<?xml version="1.0" encoding="UTF-8"?>
<gpx version="1.1" creator="https://www.youtrack.es" xsi:schemaLocation="http://www.topografix.com/GPX/1/1 http://www.topografix.com/GPX/1/1/gpx.xsd http://www.garmin.com/xmlschemas/GpxExtensions/v3 http://www.garmin.com/xmlschemas/GpxExtensionsv3.xsd http://www.garmin.com/xmlschemas/TrackPointExtension/v1 http://www.garmin.com/xmlschemas/TrackPointExtensionv1.xsd" xmlns:gpxtpx="http://www.garmin.com/xmlschemas/TrackPointExtension/v1" xmlns:gpxx="http://www.garmin.com/xmlschemas/GpxExtensions/v3" xmlns:xsi="http://www.w3.org/2001/XMLSchema-instance">
  <metadata>
    <link href="https://www.youtrack.es">
      <text>YouTrack.es</text>
    </link>
    <time>2026-05-08T08:48:04Z</time>
  </metadata>
  <trk>
    <src>https://www.youtrack.es</src>
    <link href="https://www.youtrack.es/ruta/19763-capitals-provincia-girona">
      <text>YouTrack.es</text>
    </link>
    <trkseg>
      <trkpt lat="41.965516" lon="2.816337">
        <ele>93.238</ele>
        <time>2021-02-02T09:33:08Z</time>
      </trkpt>
      <trkpt lat="41.965543" lon="2.816453">
        <ele>93.270</ele>
        <time>2021-02-02T09:33:34Z</time>
      </trkpt>
      <trkpt lat="41.965564" lon="2.816624">
        <ele>93.217</ele>
        <time>2021-02-02T09:33:35Z</time>
      </trkpt>
      <trkpt lat="41.965616" lon="2.816527">
        <ele>93.408</ele>
        <time>2021-02-02T09:33:38Z</time>
      </trkpt>
      <trkpt lat="41.965668" lon="2.816383">
        <ele>93.419</ele>
        <time>2021-02-02T09:33:40Z</time>
      </trkpt>
      <trkpt lat="41.965685" lon="2.816324">
        <ele>93.438</ele>
        <time>2021-02-02T09:33:41Z</time>
      </trkpt>
      <trkpt lat="41.965699" lon="2.816245">
        <ele>93.433</ele>
        <time>2021-02-02T09:33:43Z</time>
      </trkpt>
      <trkpt lat="41.965696" lon="2.816176">
        <ele>93.445</ele>
        <time>2021-02-02T09:33:51Z</time>
      </trkpt>
      <trkpt lat="41.965659" lon="2.816122">
        <ele>88.786</ele>
        <time>2021-02-02T09:33:54Z</time>
      </trkpt>
      <trkpt lat="41.965601" lon="2.816050">
        <ele>88.751</ele>
        <time>2021-02-02T09:33:56Z</time>
      </trkpt>
      <trkpt lat="41.965539" lon="2.815968">
        <ele>88.796</ele>
        <time>2021-02-02T09:33:58Z</time>
      </trkpt>
      <trkpt lat="41.965476" lon="2.815860">
        <ele>88.775</ele>
        <time>2021-02-02T09:34:00Z</time>
      </trkpt>
      <trkpt lat="41.965422" lon="2.815761">
        <ele>88.787</ele>
        <time>2021-02-02T09:34:02Z</time>
      </trkpt>
      <trkpt lat="41.965338" lon="2.815665">
        <ele>88.742</ele>
        <time>2021-02-02T09:34:04Z</time>
      </trkpt>
      <trkpt lat="41.965250" lon="2.815568">
        <ele>88.726</ele>
        <time>2021-02-02T09:34:06Z</time>
      </trkpt>
      <trkpt lat="41.965171" lon="2.815469">
        <ele>88.608</ele>
        <time>2021-02-02T09:34:08Z</time>
      </trkpt>
      <trkpt lat="41.965093" lon="2.815373">
        <ele>88.694</ele>
        <time>2021-02-02T09:34:10Z</time>
      </trkpt>
      <trkpt lat="41.965054" lon="2.815326">
        <ele>88.793</ele>
        <time>2021-02-02T09:34:11Z</time>
      </trkpt>
      <trkpt lat="41.965013" lon="2.815278">
        <ele>88.638</ele>
        <time>2021-02-02T09:34:12Z</time>
      </trkpt>
      <trkpt lat="41.964940" lon="2.815181">
        <ele>88.480</ele>
        <time>2021-02-02T09:34:14Z</time>
      </trkpt>
      <trkpt lat="41.964903" lon="2.815132">
        <ele>88.481</ele>
        <time>2021-02-02T09:34:15Z</time>
      </trkpt>
      <trkpt lat="41.964826" lon="2.815038">
        <ele>88.396</ele>
        <time>2021-02-02T09:34:17Z</time>
      </trkpt>
      <trkpt lat="41.964761" lon="2.814943">
        <ele>88.141</ele>
        <time>2021-02-02T09:34:19Z</time>
      </trkpt>
      <trkpt lat="41.964741" lon="2.814818">
        <ele>88.060</ele>
        <time>2021-02-02T09:34:21Z</time>
      </trkpt>
      <trkpt lat="41.964797" lon="2.814702">
        <ele>87.218</ele>
        <time>2021-02-02T09:34:23Z</time>
      </trkpt>
      <trkpt lat="41.964841" lon="2.814656">
        <ele>87.398</ele>
        <time>2021-02-02T09:34:24Z</time>
      </trkpt>
      <trkpt lat="41.964885" lon="2.814610">
        <ele>87.517</ele>
        <time>2021-02-02T09:34:25Z</time>
      </trkpt>
      <trkpt lat="41.964975" lon="2.814507">
        <ele>86.608</ele>
        <time>2021-02-02T09:34:27Z</time>
      </trkpt>
      <trkpt lat="41.965021" lon="2.814447">
        <ele>86.127</ele>
        <time>2021-02-02T09:34:28Z</time>
      </trkpt>
      <trkpt lat="41.965112" lon="2.814316">
        <ele>85.246</ele>
        <time>2021-02-02T09:34:30Z</time>
      </trkpt>
      <trkpt lat="41.965188" lon="2.814200">
        <ele>84.621</ele>
        <time>2021-02-02T09:34:32Z</time>
      </trkpt>
      <trkpt lat="41.965223" lon="2.814157">
        <ele>84.653</ele>
        <time>2021-02-02T09:34:33Z</time>
      </trkpt>
      <trkpt lat="41.965293" lon="2.814168">
        <ele>84.334</ele>
        <time>2021-02-02T09:34:35Z</time>
      </trkpt>
      <trkpt lat="41.965336" lon="2.814219">
        <ele>84.429</ele>
        <time>2021-02-02T09:34:36Z</time>
      </trkpt>
      <trkpt lat="41.965377" lon="2.814274">
        <ele>84.214</ele>
        <time>2021-02-02T09:34:37Z</time>
      </trkpt>
      <trkpt lat="41.965483" lon="2.814409">
        <ele>84.443</ele>
        <time>2021-02-02T09:34:39Z</time>
      </trkpt>
      <trkpt lat="41.965591" lon="2.814536">
        <ele>84.494</ele>
        <time>2021-02-02T09:34:41Z</time>
      </trkpt>
      <trkpt lat="41.965687" lon="2.814653">
        <ele>84.457</ele>
        <time>2021-02-02T09:34:43Z</time>
      </trkpt>
      <trkpt lat="41.965735" lon="2.814717">
        <ele>84.422</ele>
        <time>2021-02-02T09:34:44Z</time>
      </trkpt>
      <trkpt lat="41.965776" lon="2.814783">
        <ele>84.208</ele>
        <time>2021-02-02T09:34:45Z</time>
      </trkpt>
      <trkpt lat="41.965857" lon="2.814901">
        <ele>84.145</ele>
        <time>2021-02-02T09:34:47Z</time>
      </trkpt>
      <trkpt lat="41.965900" lon="2.814962">
        <ele>84.174</ele>
        <time>2021-02-02T09:34:48Z</time>
      </trkpt>
      <trkpt lat="41.965941" lon="2.815022">
        <ele>84.129</ele>
        <time>2021-02-02T09:34:49Z</time>
      </trkpt>
      <trkpt lat="41.966011" lon="2.815143">
        <ele>83.971</ele>
        <time>2021-02-02T09:34:51Z</time>
      </trkpt>
      <trkpt lat="41.966045" lon="2.815210">
        <ele>83.722</ele>
        <time>2021-02-02T09:34:52Z</time>
      </trkpt>
      <trkpt lat="41.966116" lon="2.815339">
        <ele>83.797</ele>
        <time>2021-02-02T09:34:54Z</time>
      </trkpt>
      <trkpt lat="41.966190" lon="2.815474">
        <ele>83.512</ele>
        <time>2021-02-02T09:34:56Z</time>
      </trkpt>
      <trkpt lat="41.966225" lon="2.815542">
        <ele>83.411</ele>
        <time>2021-02-02T09:34:57Z</time>
      </trkpt>
      <trkpt lat="41.966260" lon="2.815612">
        <ele>83.461</ele>
        <time>2021-02-02T09:34:58Z</time>
      </trkpt>
      <trkpt lat="41.966297" lon="2.815681">
        <ele>83.321</ele>
        <time>2021-02-02T09:34:59Z</time>
      </trkpt>
      <trkpt lat="41.966363" lon="2.815814">
        <ele>83.313</ele>
        <time>2021-02-02T09:35:01Z</time>
      </trkpt>
      <trkpt lat="41.966435" lon="2.815948">
        <ele>83.408</ele>
        <time>2021-02-02T09:35:03Z</time>
      </trkpt>
      <trkpt lat="41.966512" lon="2.816078">
        <ele>83.222</ele>
        <time>2021-02-02T09:35:05Z</time>
      </trkpt>
      <trkpt lat="41.966585" lon="2.816208">
        <ele>82.961</ele>
        <time>2021-02-02T09:35:07Z</time>
      </trkpt>
      <trkpt lat="41.966665" lon="2.816333">
        <ele>83.156</ele>
        <time>2021-02-02T09:35:09Z</time>
      </trkpt>
      <trkpt lat="41.966707" lon="2.816399">
        <ele>83.048</ele>
        <time>2021-02-02T09:35:10Z</time>
      </trkpt>
      <trkpt lat="41.966784" lon="2.816525">
        <ele>82.729</ele>
        <time>2021-02-02T09:35:12Z</time>
      </trkpt>
      <trkpt lat="41.966824" lon="2.816589">
        <ele>82.684</ele>
        <time>2021-02-02T09:35:13Z</time>
      </trkpt>
      <trkpt lat="41.966901" lon="2.816709">
        <ele>82.539</ele>
        <time>2021-02-02T09:35:15Z</time>
      </trkpt>
      <trkpt lat="41.966941" lon="2.816772">
        <ele>82.678</ele>
        <time>2021-02-02T09:35:16Z</time>
      </trkpt>
      <trkpt lat="41.967031" lon="2.816896">
        <ele>82.415</ele>
        <time>2021-02-02T09:35:18Z</time>
      </trkpt>
      <trkpt lat="41.967126" lon="2.817010">
        <ele>82.365</ele>
        <time>2021-02-02T09:35:20Z</time>
      </trkpt>
      <trkpt lat="41.967228" lon="2.817130">
        <ele>82.411</ele>
        <time>2021-02-02T09:35:22Z</time>
      </trkpt>
      <trkpt lat="41.967328" lon="2.817245">
        <ele>82.108</ele>
        <time>2021-02-02T09:35:24Z</time>
      </trkpt>
      <trkpt lat="41.967376" lon="2.817302">
        <ele>81.927</ele>
        <time>2021-02-02T09:35:25Z</time>
      </trkpt>
      <trkpt lat="41.967474" lon="2.817413">
        <ele>81.776</ele>
        <time>2021-02-02T09:35:27Z</time>
      </trkpt>
      <trkpt lat="41.967526" lon="2.817464">
        <ele>81.751</ele>
        <time>2021-02-02T09:35:28Z</time>
      </trkpt>
      <trkpt lat="41.967632" lon="2.817555">
        <ele>81.623</ele>
        <time>2021-02-02T09:35:30Z</time>
      </trkpt>
      <trkpt lat="41.967686" lon="2.817600">
        <ele>81.524</ele>
        <time>2021-02-02T09:35:31Z</time>
      </trkpt>
      <trkpt lat="41.967740" lon="2.817645">
        <ele>81.519</ele>
        <time>2021-02-02T09:35:32Z</time>
      </trkpt>
      <trkpt lat="41.967848" lon="2.817731">
        <ele>81.544</ele>
        <time>2021-02-02T09:35:34Z</time>
      </trkpt>
      <trkpt lat="41.967902" lon="2.817771">
        <ele>81.313</ele>
        <time>2021-02-02T09:35:35Z</time>
      </trkpt>
      <trkpt lat="41.968011" lon="2.817846">
        <ele>81.467</ele>
        <time>2021-02-02T09:35:37Z</time>
      </trkpt>
      <trkpt lat="41.968069" lon="2.817883">
        <ele>81.681</ele>
        <time>2021-02-02T09:35:38Z</time>
      </trkpt>
      <trkpt lat="41.968185" lon="2.817949">
        <ele>81.419</ele>
        <time>2021-02-02T09:35:40Z</time>
      </trkpt>
      <trkpt lat="41.968297" lon="2.818022">
        <ele>81.308</ele>
        <time>2021-02-02T09:35:42Z</time>
      </trkpt>
      <trkpt lat="41.968410" lon="2.818092">
        <ele>81.272</ele>
        <time>2021-02-02T09:35:44Z</time>
      </trkpt>
      <trkpt lat="41.968467" lon="2.818126">
        <ele>81.211</ele>
        <time>2021-02-02T09:35:45Z</time>
      </trkpt>
      <trkpt lat="41.968524" lon="2.818159">
        <ele>81.126</ele>
        <time>2021-02-02T09:35:46Z</time>
      </trkpt>
      <trkpt lat="41.968635" lon="2.818219">
        <ele>81.018</ele>
        <time>2021-02-02T09:35:48Z</time>
      </trkpt>
      <trkpt lat="41.968690" lon="2.818253">
        <ele>81.149</ele>
        <time>2021-02-02T09:35:49Z</time>
      </trkpt>
      <trkpt lat="41.968790" lon="2.818341">
        <ele>81.244</ele>
        <time>2021-02-02T09:35:51Z</time>
      </trkpt>
      <trkpt lat="41.968834" lon="2.818392">
        <ele>81.399</ele>
        <time>2021-02-02T09:35:52Z</time>
      </trkpt>
      <trkpt lat="41.968927" lon="2.818470">
        <ele>81.418</ele>
        <time>2021-02-02T09:35:54Z</time>
      </trkpt>
      <trkpt lat="41.969030" lon="2.818474">
        <ele>81.553</ele>
        <time>2021-02-02T09:35:56Z</time>
      </trkpt>
      <trkpt lat="41.969102" lon="2.818399">
        <ele>81.504</ele>
        <time>2021-02-02T09:35:58Z</time>
      </trkpt>
      <trkpt lat="41.969131" lon="2.818325">
        <ele>81.614</ele>
        <time>2021-02-02T09:35:59Z</time>
      </trkpt>
      <trkpt lat="41.969169" lon="2.818183">
        <ele>81.208</ele>
        <time>2021-02-02T09:36:01Z</time>
      </trkpt>
      <trkpt lat="41.969190" lon="2.818114">
        <ele>81.341</ele>
        <time>2021-02-02T09:36:03Z</time>
      </trkpt>
      <trkpt lat="41.969190" lon="2.818048">
        <ele>81.480</ele>
        <time>2021-02-02T09:36:06Z</time>
      </trkpt>
      <trkpt lat="41.969215" lon="2.817977">
        <ele>81.135</ele>
        <time>2021-02-02T09:36:07Z</time>
      </trkpt>
      <trkpt lat="41.969232" lon="2.817918">
        <ele>81.287</ele>
        <time>2021-02-02T09:36:08Z</time>
      </trkpt>
      <trkpt lat="41.969270" lon="2.817799">
        <ele>81.128</ele>
        <time>2021-02-02T09:36:10Z</time>
      </trkpt>
      <trkpt lat="41.969310" lon="2.817704">
        <ele>81.033</ele>
        <time>2021-02-02T09:36:11Z</time>
      </trkpt>
      <trkpt lat="41.969337" lon="2.817636">
        <ele>81.178</ele>
        <time>2021-02-02T09:36:12Z</time>
      </trkpt>
      <trkpt lat="41.969361" lon="2.817571">
        <ele>81.187</ele>
        <time>2021-02-02T09:36:13Z</time>
      </trkpt>
      <trkpt lat="41.969404" lon="2.817441">
        <ele>81.142</ele>
        <time>2021-02-02T09:36:15Z</time>
      </trkpt>
      <trkpt lat="41.969422" lon="2.817375">
        <ele>81.122</ele>
        <time>2021-02-02T09:36:16Z</time>
      </trkpt>
      <trkpt lat="41.969461" lon="2.817245">
        <ele>81.114</ele>
        <time>2021-02-02T09:36:18Z</time>
      </trkpt>
      <trkpt lat="41.969477" lon="2.817176">
        <ele>81.208</ele>
        <time>2021-02-02T09:36:19Z</time>
      </trkpt>
      <trkpt lat="41.969512" lon="2.817037">
        <ele>80.920</ele>
        <time>2021-02-02T09:36:21Z</time>
      </trkpt>
      <trkpt lat="41.969543" lon="2.816886">
        <ele>80.999</ele>
        <time>2021-02-02T09:36:23Z</time>
      </trkpt>
      <trkpt lat="41.969566" lon="2.816814">
        <ele>81.044</ele>
        <time>2021-02-02T09:36:24Z</time>
      </trkpt>
      <trkpt lat="41.969617" lon="2.816678">
        <ele>80.846</ele>
        <time>2021-02-02T09:36:26Z</time>
      </trkpt>
      <trkpt lat="41.969646" lon="2.816530">
        <ele>81.057</ele>
        <time>2021-02-02T09:36:28Z</time>
      </trkpt>
      <trkpt lat="41.969669" lon="2.816462">
        <ele>80.812</ele>
        <time>2021-02-02T09:36:29Z</time>
      </trkpt>
      <trkpt lat="41.969707" lon="2.816322">
        <ele>80.837</ele>
        <time>2021-02-02T09:36:31Z</time>
      </trkpt>
      <trkpt lat="41.969741" lon="2.816171">
        <ele>80.536</ele>
        <time>2021-02-02T09:36:33Z</time>
      </trkpt>
      <trkpt lat="41.969758" lon="2.816095">
        <ele>80.629</ele>
        <time>2021-02-02T09:36:34Z</time>
      </trkpt>
      <trkpt lat="41.969791" lon="2.815948">
        <ele>80.500</ele>
        <time>2021-02-02T09:36:36Z</time>
      </trkpt>
      <trkpt lat="41.969803" lon="2.815867">
        <ele>80.420</ele>
        <time>2021-02-02T09:36:37Z</time>
      </trkpt>
      <trkpt lat="41.969839" lon="2.815719">
        <ele>80.608</ele>
        <time>2021-02-02T09:36:39Z</time>
      </trkpt>
      <trkpt lat="41.969859" lon="2.815645">
        <ele>80.648</ele>
        <time>2021-02-02T09:36:40Z</time>
      </trkpt>
      <trkpt lat="41.969877" lon="2.815573">
        <ele>80.767</ele>
        <time>2021-02-02T09:36:41Z</time>
      </trkpt>
      <trkpt lat="41.969889" lon="2.815511">
        <ele>80.562</ele>
        <time>2021-02-02T09:36:42Z</time>
      </trkpt>
      <trkpt lat="41.969901" lon="2.815447">
        <ele>80.624</ele>
        <time>2021-02-02T09:36:43Z</time>
      </trkpt>
      <trkpt lat="41.969933" lon="2.815310">
        <ele>80.415</ele>
        <time>2021-02-02T09:36:45Z</time>
      </trkpt>
      <trkpt lat="41.969948" lon="2.815243">
        <ele>80.690</ele>
        <time>2021-02-02T09:36:46Z</time>
      </trkpt>
      <trkpt lat="41.969978" lon="2.815109">
        <ele>80.285</ele>
        <time>2021-02-02T09:36:48Z</time>
      </trkpt>
      <trkpt lat="41.970020" lon="2.814983">
        <ele>80.624</ele>
        <time>2021-02-02T09:36:50Z</time>
      </trkpt>
      <trkpt lat="41.970041" lon="2.814918">
        <ele>80.733</ele>
        <time>2021-02-02T09:36:51Z</time>
      </trkpt>
      <trkpt lat="41.970075" lon="2.814798">
        <ele>80.523</ele>
        <time>2021-02-02T09:36:53Z</time>
      </trkpt>
      <trkpt lat="41.970093" lon="2.814741">
        <ele>80.715</ele>
        <time>2021-02-02T09:36:54Z</time>
      </trkpt>
      <trkpt lat="41.970118" lon="2.814650">
        <ele>80.508</ele>
        <time>2021-02-02T09:36:56Z</time>
      </trkpt>
      <trkpt lat="41.970127" lon="2.814589">
        <ele>80.539</ele>
        <time>2021-02-02T09:36:58Z</time>
      </trkpt>
      <trkpt lat="41.970144" lon="2.814513">
        <ele>79.228</ele>
        <time>2021-02-02T09:37:02Z</time>
      </trkpt>
      <trkpt lat="41.970132" lon="2.814444">
        <ele>81.163</ele>
        <time>2021-02-02T09:37:34Z</time>
      </trkpt>
      <trkpt lat="41.970141" lon="2.814372">
        <ele>80.985</ele>
        <time>2021-02-02T09:37:36Z</time>
      </trkpt>
      <trkpt lat="41.970150" lon="2.814287">
        <ele>80.696</ele>
        <time>2021-02-02T09:37:38Z</time>
      </trkpt>
      <trkpt lat="41.970151" lon="2.814156">
        <ele>80.151</ele>
        <time>2021-02-02T09:37:40Z</time>
      </trkpt>
      <trkpt lat="41.970153" lon="2.814082">
        <ele>80.036</ele>
        <time>2021-02-02T09:37:41Z</time>
      </trkpt>
      <trkpt lat="41.970155" lon="2.814002">
        <ele>79.525</ele>
        <time>2021-02-02T09:37:42Z</time>
      </trkpt>
      <trkpt lat="41.970157" lon="2.813818">
        <ele>78.674</ele>
        <time>2021-02-02T09:37:44Z</time>
      </trkpt>
      <trkpt lat="41.970161" lon="2.813715">
        <ele>78.256</ele>
        <time>2021-02-02T09:37:45Z</time>
      </trkpt>
      <trkpt lat="41.970169" lon="2.813602">
        <ele>77.421</ele>
        <time>2021-02-02T09:37:46Z</time>
      </trkpt>
      <trkpt lat="41.970198" lon="2.813367">
        <ele>76.008</ele>
        <time>2021-02-02T09:37:48Z</time>
      </trkpt>
      <trkpt lat="41.970229" lon="2.813253">
        <ele>75.223</ele>
        <time>2021-02-02T09:37:49Z</time>
      </trkpt>
      <trkpt lat="41.970285" lon="2.813021">
        <ele>74.512</ele>
        <time>2021-02-02T09:37:51Z</time>
      </trkpt>
      <trkpt lat="41.970312" lon="2.812905">
        <ele>74.857</ele>
        <time>2021-02-02T09:37:52Z</time>
      </trkpt>
      <trkpt lat="41.970371" lon="2.812677">
        <ele>74.749</ele>
        <time>2021-02-02T09:37:54Z</time>
      </trkpt>
      <trkpt lat="41.970411" lon="2.812468">
        <ele>75.610</ele>
        <time>2021-02-02T09:37:56Z</time>
      </trkpt>
      <trkpt lat="41.970432" lon="2.812377">
        <ele>76.385</ele>
        <time>2021-02-02T09:37:57Z</time>
      </trkpt>
      <trkpt lat="41.970455" lon="2.812294">
        <ele>76.630</ele>
        <time>2021-02-02T09:37:58Z</time>
      </trkpt>
      <trkpt lat="41.970472" lon="2.812219">
        <ele>77.149</ele>
        <time>2021-02-02T09:37:59Z</time>
      </trkpt>
      <trkpt lat="41.970507" lon="2.812093">
        <ele>77.936</ele>
        <time>2021-02-02T09:38:01Z</time>
      </trkpt>
      <trkpt lat="41.970526" lon="2.812037">
        <ele>78.317</ele>
        <time>2021-02-02T09:38:02Z</time>
      </trkpt>
      <trkpt lat="41.970561" lon="2.811923">
        <ele>78.918</ele>
        <time>2021-02-02T09:38:04Z</time>
      </trkpt>
      <trkpt lat="41.970575" lon="2.811863">
        <ele>79.108</ele>
        <time>2021-02-02T09:38:05Z</time>
      </trkpt>
      <trkpt lat="41.970591" lon="2.811803">
        <ele>79.349</ele>
        <time>2021-02-02T09:38:06Z</time>
      </trkpt>
      <trkpt lat="41.970625" lon="2.811689">
        <ele>79.438</ele>
        <time>2021-02-02T09:38:08Z</time>
      </trkpt>
      <trkpt lat="41.970642" lon="2.811629">
        <ele>79.433</ele>
        <time>2021-02-02T09:38:09Z</time>
      </trkpt>
      <trkpt lat="41.970657" lon="2.811567">
        <ele>79.535</ele>
        <time>2021-02-02T09:38:10Z</time>
      </trkpt>
      <trkpt lat="41.970671" lon="2.811502">
        <ele>79.266</ele>
        <time>2021-02-02T09:38:11Z</time>
      </trkpt>
      <trkpt lat="41.970699" lon="2.811375">
        <ele>79.281</ele>
        <time>2021-02-02T09:38:13Z</time>
      </trkpt>
      <trkpt lat="41.970725" lon="2.811252">
        <ele>79.296</ele>
        <time>2021-02-02T09:38:15Z</time>
      </trkpt>
      <trkpt lat="41.970740" lon="2.811185">
        <ele>79.195</ele>
        <time>2021-02-02T09:38:16Z</time>
      </trkpt>
      <trkpt lat="41.970754" lon="2.811122">
        <ele>79.076</ele>
        <time>2021-02-02T09:38:17Z</time>
      </trkpt>
      <trkpt lat="41.970762" lon="2.811060">
        <ele>78.990</ele>
        <time>2021-02-02T09:38:18Z</time>
      </trkpt>
      <trkpt lat="41.970763" lon="2.810950">
        <ele>78.919</ele>
        <time>2021-02-02T09:38:20Z</time>
      </trkpt>
      <trkpt lat="41.970754" lon="2.810860">
        <ele>79.208</ele>
        <time>2021-02-02T09:38:22Z</time>
      </trkpt>
      <trkpt lat="41.970776" lon="2.810793">
        <ele>78.963</ele>
        <time>2021-02-02T09:38:29Z</time>
      </trkpt>
      <trkpt lat="41.970819" lon="2.810730">
        <ele>79.382</ele>
        <time>2021-02-02T09:38:31Z</time>
      </trkpt>
      <trkpt lat="41.970841" lon="2.810639">
        <ele>79.237</ele>
        <time>2021-02-02T09:38:33Z</time>
      </trkpt>
      <trkpt lat="41.970861" lon="2.810542">
        <ele>79.299</ele>
        <time>2021-02-02T09:38:34Z</time>
      </trkpt>
      <trkpt lat="41.970885" lon="2.810434">
        <ele>79.290</ele>
        <time>2021-02-02T09:38:35Z</time>
      </trkpt>
      <trkpt lat="41.970885" lon="2.810434">
        <ele>79.245</ele>
        <time>2021-02-02T09:38:35Z</time>
      </trkpt>
      <trkpt lat="41.970911" lon="2.810300">
        <ele>79.510</ele>
        <time>2021-02-02T09:38:37Z</time>
      </trkpt>
      <trkpt lat="41.970932" lon="2.810170">
        <ele>79.599</ele>
        <time>2021-02-02T09:38:39Z</time>
      </trkpt>
      <trkpt lat="41.970957" lon="2.810039">
        <ele>79.395</ele>
        <time>2021-02-02T09:38:41Z</time>
      </trkpt>
      <trkpt lat="41.970987" lon="2.809914">
        <ele>79.649</ele>
        <time>2021-02-02T09:38:43Z</time>
      </trkpt>
      <trkpt lat="41.971017" lon="2.809815">
        <ele>79.723</ele>
        <time>2021-02-02T09:38:45Z</time>
      </trkpt>
      <trkpt lat="41.971055" lon="2.809733">
        <ele>79.608</ele>
        <time>2021-02-02T09:38:48Z</time>
      </trkpt>
      <trkpt lat="41.971077" lon="2.809573">
        <ele>79.935</ele>
        <time>2021-02-02T09:38:49Z</time>
      </trkpt>
      <trkpt lat="41.971091" lon="2.809497">
        <ele>79.794</ele>
        <time>2021-02-02T09:38:50Z</time>
      </trkpt>
      <trkpt lat="41.971126" lon="2.809354">
        <ele>79.629</ele>
        <time>2021-02-02T09:38:52Z</time>
      </trkpt>
      <trkpt lat="41.971142" lon="2.809286">
        <ele>79.691</ele>
        <time>2021-02-02T09:38:53Z</time>
      </trkpt>
      <trkpt lat="41.971187" lon="2.809166">
        <ele>79.872</ele>
        <time>2021-02-02T09:38:55Z</time>
      </trkpt>
      <trkpt lat="41.971227" lon="2.809121">
        <ele>79.837</ele>
        <time>2021-02-02T09:38:56Z</time>
      </trkpt>
      <trkpt lat="41.971297" lon="2.809050">
        <ele>79.982</ele>
        <time>2021-02-02T09:38:58Z</time>
      </trkpt>
      <trkpt lat="41.971353" lon="2.809033">
        <ele>80.331</ele>
        <time>2021-02-02T09:38:59Z</time>
      </trkpt>
      <trkpt lat="41.971395" lon="2.809009">
        <ele>80.139</ele>
        <time>2021-02-02T09:39:01Z</time>
      </trkpt>
      <trkpt lat="41.971469" lon="2.808985">
        <ele>80.001</ele>
        <time>2021-02-02T09:39:02Z</time>
      </trkpt>
      <trkpt lat="41.971535" lon="2.808970">
        <ele>80.021</ele>
        <time>2021-02-02T09:39:03Z</time>
      </trkpt>
      <trkpt lat="41.971645" lon="2.808970">
        <ele>80.208</ele>
        <time>2021-02-02T09:39:05Z</time>
      </trkpt>
      <trkpt lat="41.971697" lon="2.808972">
        <ele>80.079</ele>
        <time>2021-02-02T09:39:06Z</time>
      </trkpt>
      <trkpt lat="41.971749" lon="2.808975">
        <ele>80.288</ele>
        <time>2021-02-02T09:39:07Z</time>
      </trkpt>
      <trkpt lat="41.971802" lon="2.808978">
        <ele>80.193</ele>
        <time>2021-02-02T09:39:08Z</time>
      </trkpt>
      <trkpt lat="41.971861" lon="2.808979">
        <ele>80.165</ele>
        <time>2021-02-02T09:39:09Z</time>
      </trkpt>
      <trkpt lat="41.971977" lon="2.808981">
        <ele>80.016</ele>
        <time>2021-02-02T09:39:11Z</time>
      </trkpt>
      <trkpt lat="41.972032" lon="2.808981">
        <ele>80.011</ele>
        <time>2021-02-02T09:39:12Z</time>
      </trkpt>
      <trkpt lat="41.972135" lon="2.808982">
        <ele>80.076</ele>
        <time>2021-02-02T09:39:14Z</time>
      </trkpt>
      <trkpt lat="41.972235" lon="2.808982">
        <ele>79.895</ele>
        <time>2021-02-02T09:39:16Z</time>
      </trkpt>
      <trkpt lat="41.972286" lon="2.808981">
        <ele>79.912</ele>
        <time>2021-02-02T09:39:17Z</time>
      </trkpt>
      <trkpt lat="41.972337" lon="2.808980">
        <ele>79.732</ele>
        <time>2021-02-02T09:39:18Z</time>
      </trkpt>
      <trkpt lat="41.972413" lon="2.808985">
        <ele>79.505</ele>
        <time>2021-02-02T09:39:20Z</time>
      </trkpt>
      <trkpt lat="41.972465" lon="2.808995">
        <ele>79.408</ele>
        <time>2021-02-02T09:39:21Z</time>
      </trkpt>
      <trkpt lat="41.972510" lon="2.809005">
        <ele>79.487</ele>
        <time>2021-02-02T09:39:22Z</time>
      </trkpt>
      <trkpt lat="41.972633" lon="2.809020">
        <ele>79.656</ele>
        <time>2021-02-02T09:39:24Z</time>
      </trkpt>
      <trkpt lat="41.972766" lon="2.809019">
        <ele>79.511</ele>
        <time>2021-02-02T09:39:26Z</time>
      </trkpt>
      <trkpt lat="41.972901" lon="2.809008">
        <ele>79.183</ele>
        <time>2021-02-02T09:39:28Z</time>
      </trkpt>
      <trkpt lat="41.973035" lon="2.809003">
        <ele>79.274</ele>
        <time>2021-02-02T09:39:30Z</time>
      </trkpt>
      <trkpt lat="41.973095" lon="2.809002">
        <ele>78.919</ele>
        <time>2021-02-02T09:39:31Z</time>
      </trkpt>
      <trkpt lat="41.973157" lon="2.809002">
        <ele>78.664</ele>
        <time>2021-02-02T09:39:32Z</time>
      </trkpt>
      <trkpt lat="41.973281" lon="2.808998">
        <ele>78.973</ele>
        <time>2021-02-02T09:39:34Z</time>
      </trkpt>
      <trkpt lat="41.973402" lon="2.809002">
        <ele>78.786</ele>
        <time>2021-02-02T09:39:36Z</time>
      </trkpt>
      <trkpt lat="41.973512" lon="2.809032">
        <ele>78.860</ele>
        <time>2021-02-02T09:39:38Z</time>
      </trkpt>
      <trkpt lat="41.973571" lon="2.809059">
        <ele>78.926</ele>
        <time>2021-02-02T09:39:39Z</time>
      </trkpt>
      <trkpt lat="41.973684" lon="2.809121">
        <ele>78.608</ele>
        <time>2021-02-02T09:39:41Z</time>
      </trkpt>
      <trkpt lat="41.973795" lon="2.809181">
        <ele>78.724</ele>
        <time>2021-02-02T09:39:43Z</time>
      </trkpt>
      <trkpt lat="41.973907" lon="2.809234">
        <ele>78.673</ele>
        <time>2021-02-02T09:39:45Z</time>
      </trkpt>
      <trkpt lat="41.974018" lon="2.809289">
        <ele>78.418</ele>
        <time>2021-02-02T09:39:47Z</time>
      </trkpt>
      <trkpt lat="41.974133" lon="2.809341">
        <ele>78.570</ele>
        <time>2021-02-02T09:39:49Z</time>
      </trkpt>
      <trkpt lat="41.974190" lon="2.809370">
        <ele>78.391</ele>
        <time>2021-02-02T09:39:50Z</time>
      </trkpt>
      <trkpt lat="41.974248" lon="2.809401">
        <ele>78.356</ele>
        <time>2021-02-02T09:39:51Z</time>
      </trkpt>
      <trkpt lat="41.974362" lon="2.809460">
        <ele>78.261</ele>
        <time>2021-02-02T09:39:53Z</time>
      </trkpt>
      <trkpt lat="41.974420" lon="2.809487">
        <ele>78.110</ele>
        <time>2021-02-02T09:39:54Z</time>
      </trkpt>
      <trkpt lat="41.974531" lon="2.809546">
        <ele>77.983</ele>
        <time>2021-02-02T09:39:56Z</time>
      </trkpt>
      <trkpt lat="41.974589" lon="2.809570">
        <ele>78.225</ele>
        <time>2021-02-02T09:39:57Z</time>
      </trkpt>
      <trkpt lat="41.974702" lon="2.809610">
        <ele>77.917</ele>
        <time>2021-02-02T09:39:59Z</time>
      </trkpt>
      <trkpt lat="41.974815" lon="2.809628">
        <ele>77.708</ele>
        <time>2021-02-02T09:40:01Z</time>
      </trkpt>
      <trkpt lat="41.974870" lon="2.809632">
        <ele>77.664</ele>
        <time>2021-02-02T09:40:02Z</time>
      </trkpt>
      <trkpt lat="41.974971" lon="2.809622">
        <ele>77.513</ele>
        <time>2021-02-02T09:40:04Z</time>
      </trkpt>
      <trkpt lat="41.975019" lon="2.809596">
        <ele>77.728</ele>
        <time>2021-02-02T09:40:05Z</time>
      </trkpt>
      <trkpt lat="41.975117" lon="2.809552">
        <ele>77.420</ele>
        <time>2021-02-02T09:40:07Z</time>
      </trkpt>
      <trkpt lat="41.975240" lon="2.809560">
        <ele>77.581</ele>
        <time>2021-02-02T09:40:09Z</time>
      </trkpt>
      <trkpt lat="41.975360" lon="2.809578">
        <ele>77.576</ele>
        <time>2021-02-02T09:40:11Z</time>
      </trkpt>
      <trkpt lat="41.975424" lon="2.809583">
        <ele>77.421</ele>
        <time>2021-02-02T09:40:12Z</time>
      </trkpt>
      <trkpt lat="41.975552" lon="2.809605">
        <ele>77.420</ele>
        <time>2021-02-02T09:40:14Z</time>
      </trkpt>
      <trkpt lat="41.975679" lon="2.809638">
        <ele>77.772</ele>
        <time>2021-02-02T09:40:16Z</time>
      </trkpt>
      <trkpt lat="41.975741" lon="2.809655">
        <ele>77.713</ele>
        <time>2021-02-02T09:40:17Z</time>
      </trkpt>
      <trkpt lat="41.975802" lon="2.809675">
        <ele>77.614</ele>
        <time>2021-02-02T09:40:18Z</time>
      </trkpt>
      <trkpt lat="41.975918" lon="2.809719">
        <ele>77.408</ele>
        <time>2021-02-02T09:40:20Z</time>
      </trkpt>
      <trkpt lat="41.975972" lon="2.809743">
        <ele>77.433</ele>
        <time>2021-02-02T09:40:21Z</time>
      </trkpt>
      <trkpt lat="41.976071" lon="2.809794">
        <ele>77.592</ele>
        <time>2021-02-02T09:40:23Z</time>
      </trkpt>
      <trkpt lat="41.976120" lon="2.809821">
        <ele>77.337</ele>
        <time>2021-02-02T09:40:24Z</time>
      </trkpt>
      <trkpt lat="41.976207" lon="2.809869">
        <ele>77.419</ele>
        <time>2021-02-02T09:40:26Z</time>
      </trkpt>
      <trkpt lat="41.976268" lon="2.809903">
        <ele>77.350</ele>
        <time>2021-02-02T09:40:28Z</time>
      </trkpt>
      <trkpt lat="41.976330" lon="2.809938">
        <ele>77.385</ele>
        <time>2021-02-02T09:40:30Z</time>
      </trkpt>
      <trkpt lat="41.976373" lon="2.809979">
        <ele>77.380</ele>
        <time>2021-02-02T09:40:33Z</time>
      </trkpt>
      <trkpt lat="41.976411" lon="2.810038">
        <ele>77.499</ele>
        <time>2021-02-02T09:40:37Z</time>
      </trkpt>
      <trkpt lat="41.976448" lon="2.810087">
        <ele>77.593</ele>
        <time>2021-02-02T09:40:40Z</time>
      </trkpt>
      <trkpt lat="41.976478" lon="2.810137">
        <ele>77.465</ele>
        <time>2021-02-02T09:40:42Z</time>
      </trkpt>
      <trkpt lat="41.976501" lon="2.810204">
        <ele>77.321</ele>
        <time>2021-02-02T09:40:45Z</time>
      </trkpt>
      <trkpt lat="41.976517" lon="2.810269">
        <ele>76.908</ele>
        <time>2021-02-02T09:40:47Z</time>
      </trkpt>
      <trkpt lat="41.976565" lon="2.810284">
        <ele>77.225</ele>
        <time>2021-02-02T09:41:17Z</time>
      </trkpt>
      <trkpt lat="41.976619" lon="2.810298">
        <ele>77.624</ele>
        <time>2021-02-02T09:41:24Z</time>
      </trkpt>
      <trkpt lat="41.976682" lon="2.810261">
        <ele>77.019</ele>
        <time>2021-02-02T09:41:27Z</time>
      </trkpt>
      <trkpt lat="41.976728" lon="2.810253">
        <ele>77.291</ele>
        <time>2021-02-02T09:41:29Z</time>
      </trkpt>
      <trkpt lat="41.976798" lon="2.810278">
        <ele>77.232</ele>
        <time>2021-02-02T09:41:31Z</time>
      </trkpt>
      <trkpt lat="41.976870" lon="2.810300">
        <ele>77.217</ele>
        <time>2021-02-02T09:41:33Z</time>
      </trkpt>
      <trkpt lat="41.977006" lon="2.810329">
        <ele>76.952</ele>
        <time>2021-02-02T09:41:35Z</time>
      </trkpt>
      <trkpt lat="41.977119" lon="2.810363">
        <ele>76.851</ele>
        <time>2021-02-02T09:41:37Z</time>
      </trkpt>
      <trkpt lat="41.977173" lon="2.810380">
        <ele>77.188</ele>
        <time>2021-02-02T09:41:38Z</time>
      </trkpt>
      <trkpt lat="41.977253" lon="2.810390">
        <ele>76.724</ele>
        <time>2021-02-02T09:41:40Z</time>
      </trkpt>
      <trkpt lat="41.977316" lon="2.810400">
        <ele>76.826</ele>
        <time>2021-02-02T09:41:41Z</time>
      </trkpt>
      <trkpt lat="41.977441" lon="2.810451">
        <ele>76.908</ele>
        <time>2021-02-02T09:41:43Z</time>
      </trkpt>
      <trkpt lat="41.977563" lon="2.810520">
        <ele>76.644</ele>
        <time>2021-02-02T09:41:45Z</time>
      </trkpt>
      <trkpt lat="41.977621" lon="2.810550">
        <ele>76.613</ele>
        <time>2021-02-02T09:41:46Z</time>
      </trkpt>
      <trkpt lat="41.977682" lon="2.810585">
        <ele>76.538</ele>
        <time>2021-02-02T09:41:47Z</time>
      </trkpt>
      <trkpt lat="41.977741" lon="2.810625">
        <ele>76.860</ele>
        <time>2021-02-02T09:41:48Z</time>
      </trkpt>
      <trkpt lat="41.977803" lon="2.810658">
        <ele>76.921</ele>
        <time>2021-02-02T09:41:49Z</time>
      </trkpt>
      <trkpt lat="41.977918" lon="2.810701">
        <ele>76.646</ele>
        <time>2021-02-02T09:41:51Z</time>
      </trkpt>
      <trkpt lat="41.977973" lon="2.810721">
        <ele>76.481</ele>
        <time>2021-02-02T09:41:52Z</time>
      </trkpt>
      <trkpt lat="41.978100" lon="2.810771">
        <ele>76.360</ele>
        <time>2021-02-02T09:41:54Z</time>
      </trkpt>
      <trkpt lat="41.978227" lon="2.810817">
        <ele>76.067</ele>
        <time>2021-02-02T09:41:56Z</time>
      </trkpt>
      <trkpt lat="41.978293" lon="2.810839">
        <ele>76.381</ele>
        <time>2021-02-02T09:41:57Z</time>
      </trkpt>
      <trkpt lat="41.978353" lon="2.810863">
        <ele>76.519</ele>
        <time>2021-02-02T09:41:58Z</time>
      </trkpt>
      <trkpt lat="41.978435" lon="2.810893">
        <ele>76.208</ele>
        <time>2021-02-02T09:42:00Z</time>
      </trkpt>
      <trkpt lat="41.978509" lon="2.810914">
        <ele>76.092</ele>
        <time>2021-02-02T09:42:02Z</time>
      </trkpt>
      <trkpt lat="41.978604" lon="2.810930">
        <ele>76.691</ele>
        <time>2021-02-02T09:42:04Z</time>
      </trkpt>
      <trkpt lat="41.978724" lon="2.810964">
        <ele>76.556</ele>
        <time>2021-02-02T09:42:06Z</time>
      </trkpt>
      <trkpt lat="41.978781" lon="2.810992">
        <ele>76.618</ele>
        <time>2021-02-02T09:42:07Z</time>
      </trkpt>
      <trkpt lat="41.978836" lon="2.811016">
        <ele>76.729</ele>
        <time>2021-02-02T09:42:08Z</time>
      </trkpt>
      <trkpt lat="41.978970" lon="2.811075">
        <ele>76.844</ele>
        <time>2021-02-02T09:42:11Z</time>
      </trkpt>
      <trkpt lat="41.979008" lon="2.811127">
        <ele>77.489</ele>
        <time>2021-02-02T09:42:13Z</time>
      </trkpt>
      <trkpt lat="41.979092" lon="2.811150">
        <ele>77.088</ele>
        <time>2021-02-02T09:42:14Z</time>
      </trkpt>
      <trkpt lat="41.979167" lon="2.811142">
        <ele>77.142</ele>
        <time>2021-02-02T09:42:17Z</time>
      </trkpt>
      <trkpt lat="41.979227" lon="2.811124">
        <ele>77.122</ele>
        <time>2021-02-02T09:42:19Z</time>
      </trkpt>
      <trkpt lat="41.979299" lon="2.811131">
        <ele>77.014</ele>
        <time>2021-02-02T09:42:21Z</time>
      </trkpt>
      <trkpt lat="41.979425" lon="2.811142">
        <ele>76.808</ele>
        <time>2021-02-02T09:42:23Z</time>
      </trkpt>
      <trkpt lat="41.979542" lon="2.811148">
        <ele>76.620</ele>
        <time>2021-02-02T09:42:25Z</time>
      </trkpt>
      <trkpt lat="41.979665" lon="2.811170">
        <ele>76.179</ele>
        <time>2021-02-02T09:42:27Z</time>
      </trkpt>
      <trkpt lat="41.979796" lon="2.811201">
        <ele>75.844</ele>
        <time>2021-02-02T09:42:29Z</time>
      </trkpt>
      <trkpt lat="41.979864" lon="2.811219">
        <ele>75.626</ele>
        <time>2021-02-02T09:42:30Z</time>
      </trkpt>
      <trkpt lat="41.979934" lon="2.811233">
        <ele>75.427</ele>
        <time>2021-02-02T09:42:31Z</time>
      </trkpt>
      <trkpt lat="41.980063" lon="2.811254">
        <ele>75.462</ele>
        <time>2021-02-02T09:42:33Z</time>
      </trkpt>
      <trkpt lat="41.980204" lon="2.811255">
        <ele>75.237</ele>
        <time>2021-02-02T09:42:35Z</time>
      </trkpt>
      <trkpt lat="41.980271" lon="2.811249">
        <ele>74.456</ele>
        <time>2021-02-02T09:42:36Z</time>
      </trkpt>
      <trkpt lat="41.980393" lon="2.811243">
        <ele>74.911</ele>
        <time>2021-02-02T09:42:38Z</time>
      </trkpt>
      <trkpt lat="41.980455" lon="2.811238">
        <ele>74.921</ele>
        <time>2021-02-02T09:42:39Z</time>
      </trkpt>
      <trkpt lat="41.980516" lon="2.811230">
        <ele>75.003</ele>
        <time>2021-02-02T09:42:40Z</time>
      </trkpt>
      <trkpt lat="41.980618" lon="2.811215">
        <ele>75.008</ele>
        <time>2021-02-02T09:42:42Z</time>
      </trkpt>
      <trkpt lat="41.980672" lon="2.811205">
        <ele>75.117</ele>
        <time>2021-02-02T09:42:44Z</time>
      </trkpt>
      <trkpt lat="41.980736" lon="2.811183">
        <ele>75.196</ele>
        <time>2021-02-02T09:42:46Z</time>
      </trkpt>
      <trkpt lat="41.980787" lon="2.811172">
        <ele>75.111</ele>
        <time>2021-02-02T09:42:48Z</time>
      </trkpt>
      <trkpt lat="41.980840" lon="2.811215">
        <ele>75.013</ele>
        <time>2021-02-02T09:42:50Z</time>
      </trkpt>
      <trkpt lat="41.980888" lon="2.811199">
        <ele>75.244</ele>
        <time>2021-02-02T09:42:51Z</time>
      </trkpt>
      <trkpt lat="41.980936" lon="2.811181">
        <ele>75.449</ele>
        <time>2021-02-02T09:42:52Z</time>
      </trkpt>
      <trkpt lat="41.981009" lon="2.811156">
        <ele>75.244</ele>
        <time>2021-02-02T09:42:54Z</time>
      </trkpt>
      <trkpt lat="41.981086" lon="2.811137">
        <ele>75.223</ele>
        <time>2021-02-02T09:42:56Z</time>
      </trkpt>
      <trkpt lat="41.981136" lon="2.811122">
        <ele>75.492</ele>
        <time>2021-02-02T09:42:58Z</time>
      </trkpt>
      <trkpt lat="41.981189" lon="2.811121">
        <ele>75.373</ele>
        <time>2021-02-02T09:43:02Z</time>
      </trkpt>
      <trkpt lat="41.981240" lon="2.811125">
        <ele>75.120</ele>
        <time>2021-02-02T09:43:05Z</time>
      </trkpt>
      <trkpt lat="41.981294" lon="2.811123">
        <ele>75.408</ele>
        <time>2021-02-02T09:43:07Z</time>
      </trkpt>
      <trkpt lat="41.981392" lon="2.811110">
        <ele>75.125</ele>
        <time>2021-02-02T09:43:09Z</time>
      </trkpt>
      <trkpt lat="41.981501" lon="2.811087">
        <ele>75.044</ele>
        <time>2021-02-02T09:43:11Z</time>
      </trkpt>
      <trkpt lat="41.981560" lon="2.811074">
        <ele>74.819</ele>
        <time>2021-02-02T09:43:12Z</time>
      </trkpt>
      <trkpt lat="41.981687" lon="2.811043">
        <ele>74.791</ele>
        <time>2021-02-02T09:43:14Z</time>
      </trkpt>
      <trkpt lat="41.981753" lon="2.811023">
        <ele>74.512</ele>
        <time>2021-02-02T09:43:15Z</time>
      </trkpt>
      <trkpt lat="41.981818" lon="2.811004">
        <ele>74.457</ele>
        <time>2021-02-02T09:43:16Z</time>
      </trkpt>
      <trkpt lat="41.981950" lon="2.810969">
        <ele>74.512</ele>
        <time>2021-02-02T09:43:18Z</time>
      </trkpt>
      <trkpt lat="41.982086" lon="2.810932">
        <ele>74.491</ele>
        <time>2021-02-02T09:43:20Z</time>
      </trkpt>
      <trkpt lat="41.982158" lon="2.810913">
        <ele>74.151</ele>
        <time>2021-02-02T09:43:21Z</time>
      </trkpt>
      <trkpt lat="41.982229" lon="2.810896">
        <ele>74.001</ele>
        <time>2021-02-02T09:43:22Z</time>
      </trkpt>
      <trkpt lat="41.982363" lon="2.810855">
        <ele>74.111</ele>
        <time>2021-02-02T09:43:24Z</time>
      </trkpt>
      <trkpt lat="41.982430" lon="2.810836">
        <ele>74.008</ele>
        <time>2021-02-02T09:43:25Z</time>
      </trkpt>
      <trkpt lat="41.982564" lon="2.810802">
        <ele>74.061</ele>
        <time>2021-02-02T09:43:27Z</time>
      </trkpt>
      <trkpt lat="41.982632" lon="2.810779">
        <ele>73.930</ele>
        <time>2021-02-02T09:43:28Z</time>
      </trkpt>
      <trkpt lat="41.982759" lon="2.810731">
        <ele>74.155</ele>
        <time>2021-02-02T09:43:30Z</time>
      </trkpt>
      <trkpt lat="41.982888" lon="2.810689">
        <ele>74.057</ele>
        <time>2021-02-02T09:43:32Z</time>
      </trkpt>
      <trkpt lat="41.982948" lon="2.810669">
        <ele>73.938</ele>
        <time>2021-02-02T09:43:33Z</time>
      </trkpt>
      <trkpt lat="41.983009" lon="2.810652">
        <ele>73.853</ele>
        <time>2021-02-02T09:43:34Z</time>
      </trkpt>
      <trkpt lat="41.983150" lon="2.810625">
        <ele>73.818</ele>
        <time>2021-02-02T09:43:36Z</time>
      </trkpt>
      <trkpt lat="41.983287" lon="2.810606">
        <ele>73.927</ele>
        <time>2021-02-02T09:43:38Z</time>
      </trkpt>
      <trkpt lat="41.983425" lon="2.810594">
        <ele>74.275</ele>
        <time>2021-02-02T09:43:40Z</time>
      </trkpt>
      <trkpt lat="41.983492" lon="2.810590">
        <ele>74.128</ele>
        <time>2021-02-02T09:43:41Z</time>
      </trkpt>
      <trkpt lat="41.983623" lon="2.810568">
        <ele>74.220</ele>
        <time>2021-02-02T09:43:43Z</time>
      </trkpt>
      <trkpt lat="41.983747" lon="2.810508">
        <ele>74.308</ele>
        <time>2021-02-02T09:43:45Z</time>
      </trkpt>
      <trkpt lat="41.983805" lon="2.810468">
        <ele>74.573</ele>
        <time>2021-02-02T09:43:46Z</time>
      </trkpt>
      <trkpt lat="41.983859" lon="2.810422">
        <ele>74.452</ele>
        <time>2021-02-02T09:43:47Z</time>
      </trkpt>
      <trkpt lat="41.983910" lon="2.810370">
        <ele>74.417</ele>
        <time>2021-02-02T09:43:48Z</time>
      </trkpt>
      <trkpt lat="41.983958" lon="2.810314">
        <ele>74.499</ele>
        <time>2021-02-02T09:43:49Z</time>
      </trkpt>
      <trkpt lat="41.984045" lon="2.810194">
        <ele>74.340</ele>
        <time>2021-02-02T09:43:51Z</time>
      </trkpt>
      <trkpt lat="41.984137" lon="2.810077">
        <ele>74.155</ele>
        <time>2021-02-02T09:43:53Z</time>
      </trkpt>
      <trkpt lat="41.984251" lon="2.809995">
        <ele>74.060</ele>
        <time>2021-02-02T09:43:55Z</time>
      </trkpt>
      <trkpt lat="41.984375" lon="2.809939">
        <ele>73.899</ele>
        <time>2021-02-02T09:43:57Z</time>
      </trkpt>
      <trkpt lat="41.984492" lon="2.809928">
        <ele>74.149</ele>
        <time>2021-02-02T09:43:59Z</time>
      </trkpt>
      <trkpt lat="41.984599" lon="2.809961">
        <ele>74.402</ele>
        <time>2021-02-02T09:44:01Z</time>
      </trkpt>
      <trkpt lat="41.984648" lon="2.809997">
        <ele>74.422</ele>
        <time>2021-02-02T09:44:02Z</time>
      </trkpt>
      <trkpt lat="41.984694" lon="2.810040">
        <ele>74.408</ele>
        <time>2021-02-02T09:44:03Z</time>
      </trkpt>
      <trkpt lat="41.984796" lon="2.810115">
        <ele>74.750</ele>
        <time>2021-02-02T09:44:05Z</time>
      </trkpt>
      <trkpt lat="41.984914" lon="2.810126">
        <ele>74.729</ele>
        <time>2021-02-02T09:44:07Z</time>
      </trkpt>
      <trkpt lat="41.985028" lon="2.810054">
        <ele>74.774</ele>
        <time>2021-02-02T09:44:09Z</time>
      </trkpt>
      <trkpt lat="41.985080" lon="2.810004">
        <ele>74.756</ele>
        <time>2021-02-02T09:44:10Z</time>
      </trkpt>
      <trkpt lat="41.985178" lon="2.809905">
        <ele>74.717</ele>
        <time>2021-02-02T09:44:12Z</time>
      </trkpt>
      <trkpt lat="41.985289" lon="2.809853">
        <ele>74.782</ele>
        <time>2021-02-02T09:44:14Z</time>
      </trkpt>
      <trkpt lat="41.985349" lon="2.809850">
        <ele>74.627</ele>
        <time>2021-02-02T09:44:15Z</time>
      </trkpt>
      <trkpt lat="41.985413" lon="2.809846">
        <ele>74.756</ele>
        <time>2021-02-02T09:44:16Z</time>
      </trkpt>
      <trkpt lat="41.985478" lon="2.809841">
        <ele>74.532</ele>
        <time>2021-02-02T09:44:17Z</time>
      </trkpt>
      <trkpt lat="41.985606" lon="2.809833">
        <ele>75.092</ele>
        <time>2021-02-02T09:44:19Z</time>
      </trkpt>
      <trkpt lat="41.985606" lon="2.809833">
        <ele>75.011</ele>
        <time>2021-02-02T09:44:19Z</time>
      </trkpt>
      <trkpt lat="41.985670" lon="2.809829">
        <ele>74.908</ele>
        <time>2021-02-02T09:44:20Z</time>
      </trkpt>
      <trkpt lat="41.985797" lon="2.809819">
        <ele>75.099</ele>
        <time>2021-02-02T09:44:22Z</time>
      </trkpt>
      <trkpt lat="41.985923" lon="2.809808">
        <ele>74.778</ele>
        <time>2021-02-02T09:44:24Z</time>
      </trkpt>
      <trkpt lat="41.985985" lon="2.809802">
        <ele>74.893</ele>
        <time>2021-02-02T09:44:25Z</time>
      </trkpt>
      <trkpt lat="41.986112" lon="2.809790">
        <ele>75.015</ele>
        <time>2021-02-02T09:44:27Z</time>
      </trkpt>
      <trkpt lat="41.986240" lon="2.809778">
        <ele>75.146</ele>
        <time>2021-02-02T09:44:29Z</time>
      </trkpt>
      <trkpt lat="41.986304" lon="2.809771">
        <ele>75.141</ele>
        <time>2021-02-02T09:44:30Z</time>
      </trkpt>
      <trkpt lat="41.986431" lon="2.809759">
        <ele>75.126</ele>
        <time>2021-02-02T09:44:32Z</time>
      </trkpt>
      <trkpt lat="41.986556" lon="2.809747">
        <ele>75.015</ele>
        <time>2021-02-02T09:44:34Z</time>
      </trkpt>
      <trkpt lat="41.986682" lon="2.809735">
        <ele>75.156</ele>
        <time>2021-02-02T09:44:36Z</time>
      </trkpt>
      <trkpt lat="41.986745" lon="2.809730">
        <ele>75.659</ele>
        <time>2021-02-02T09:44:37Z</time>
      </trkpt>
      <trkpt lat="41.986869" lon="2.809716">
        <ele>75.414</ele>
        <time>2021-02-02T09:44:39Z</time>
      </trkpt>
      <trkpt lat="41.986931" lon="2.809709">
        <ele>75.508</ele>
        <time>2021-02-02T09:44:40Z</time>
      </trkpt>
      <trkpt lat="41.987053" lon="2.809696">
        <ele>75.631</ele>
        <time>2021-02-02T09:44:42Z</time>
      </trkpt>
      <trkpt lat="41.987115" lon="2.809689">
        <ele>75.590</ele>
        <time>2021-02-02T09:44:43Z</time>
      </trkpt>
      <trkpt lat="41.987238" lon="2.809677">
        <ele>75.655</ele>
        <time>2021-02-02T09:44:45Z</time>
      </trkpt>
      <trkpt lat="41.987359" lon="2.809665">
        <ele>76.097</ele>
        <time>2021-02-02T09:44:47Z</time>
      </trkpt>
      <trkpt lat="41.987418" lon="2.809658">
        <ele>75.988</ele>
        <time>2021-02-02T09:44:48Z</time>
      </trkpt>
      <trkpt lat="41.987478" lon="2.809651">
        <ele>75.723</ele>
        <time>2021-02-02T09:44:49Z</time>
      </trkpt>
      <trkpt lat="41.987598" lon="2.809638">
        <ele>75.828</ele>
        <time>2021-02-02T09:44:51Z</time>
      </trkpt>
      <trkpt lat="41.987659" lon="2.809632">
        <ele>76.087</ele>
        <time>2021-02-02T09:44:52Z</time>
      </trkpt>
      <trkpt lat="41.987719" lon="2.809626">
        <ele>76.032</ele>
        <time>2021-02-02T09:44:53Z</time>
      </trkpt>
      <trkpt lat="41.987780" lon="2.809621">
        <ele>75.892</ele>
        <time>2021-02-02T09:44:54Z</time>
      </trkpt>
      <trkpt lat="41.987901" lon="2.809610">
        <ele>76.711</ele>
        <time>2021-02-02T09:44:56Z</time>
      </trkpt>
      <trkpt lat="41.988020" lon="2.809601">
        <ele>76.008</ele>
        <time>2021-02-02T09:44:58Z</time>
      </trkpt>
      <trkpt lat="41.988079" lon="2.809595">
        <ele>76.379</ele>
        <time>2021-02-02T09:44:59Z</time>
      </trkpt>
      <trkpt lat="41.988200" lon="2.809581">
        <ele>76.378</ele>
        <time>2021-02-02T09:45:01Z</time>
      </trkpt>
      <trkpt lat="41.988319" lon="2.809567">
        <ele>76.563</ele>
        <time>2021-02-02T09:45:03Z</time>
      </trkpt>
      <trkpt lat="41.988440" lon="2.809553">
        <ele>77.035</ele>
        <time>2021-02-02T09:45:05Z</time>
      </trkpt>
      <trkpt lat="41.988559" lon="2.809541">
        <ele>76.656</ele>
        <time>2021-02-02T09:45:07Z</time>
      </trkpt>
      <trkpt lat="41.988619" lon="2.809535">
        <ele>76.731</ele>
        <time>2021-02-02T09:45:08Z</time>
      </trkpt>
      <trkpt lat="41.988738" lon="2.809527">
        <ele>76.956</ele>
        <time>2021-02-02T09:45:10Z</time>
      </trkpt>
      <trkpt lat="41.988798" lon="2.809521">
        <ele>77.195</ele>
        <time>2021-02-02T09:45:11Z</time>
      </trkpt>
      <trkpt lat="41.988858" lon="2.809515">
        <ele>77.297</ele>
        <time>2021-02-02T09:45:12Z</time>
      </trkpt>
      <trkpt lat="41.988969" lon="2.809499">
        <ele>77.223</ele>
        <time>2021-02-02T09:45:14Z</time>
      </trkpt>
      <trkpt lat="41.988969" lon="2.809499">
        <ele>77.225</ele>
        <time>2021-02-02T09:45:14Z</time>
      </trkpt>
      <trkpt lat="41.989076" lon="2.809479">
        <ele>77.508</ele>
        <time>2021-02-02T09:45:16Z</time>
      </trkpt>
      <trkpt lat="41.989174" lon="2.809464">
        <ele>76.935</ele>
        <time>2021-02-02T09:45:18Z</time>
      </trkpt>
      <trkpt lat="41.989225" lon="2.809456">
        <ele>77.094</ele>
        <time>2021-02-02T09:45:19Z</time>
      </trkpt>
      <trkpt lat="41.989332" lon="2.809445">
        <ele>77.489</ele>
        <time>2021-02-02T09:45:21Z</time>
      </trkpt>
      <trkpt lat="41.989389" lon="2.809438">
        <ele>77.471</ele>
        <time>2021-02-02T09:45:22Z</time>
      </trkpt>
      <trkpt lat="41.989487" lon="2.809428">
        <ele>77.312</ele>
        <time>2021-02-02T09:45:24Z</time>
      </trkpt>
      <trkpt lat="41.989536" lon="2.809421">
        <ele>77.237</ele>
        <time>2021-02-02T09:45:25Z</time>
      </trkpt>
      <trkpt lat="41.989673" lon="2.809408">
        <ele>77.172</ele>
        <time>2021-02-02T09:45:27Z</time>
      </trkpt>
      <trkpt lat="41.989785" lon="2.809407">
        <ele>77.331</ele>
        <time>2021-02-02T09:45:29Z</time>
      </trkpt>
      <trkpt lat="41.989894" lon="2.809404">
        <ele>77.738</ele>
        <time>2021-02-02T09:45:31Z</time>
      </trkpt>
      <trkpt lat="41.990002" lon="2.809401">
        <ele>77.670</ele>
        <time>2021-02-02T09:45:33Z</time>
      </trkpt>
      <trkpt lat="41.990055" lon="2.809395">
        <ele>77.717</ele>
        <time>2021-02-02T09:45:34Z</time>
      </trkpt>
      <trkpt lat="41.990108" lon="2.809390">
        <ele>77.708</ele>
        <time>2021-02-02T09:45:35Z</time>
      </trkpt>
      <trkpt lat="41.990212" lon="2.809378">
        <ele>77.899</ele>
        <time>2021-02-02T09:45:37Z</time>
      </trkpt>
      <trkpt lat="41.990309" lon="2.809368">
        <ele>78.198</ele>
        <time>2021-02-02T09:45:39Z</time>
      </trkpt>
      <trkpt lat="41.990407" lon="2.809400">
        <ele>78.253</ele>
        <time>2021-02-02T09:45:41Z</time>
      </trkpt>
      <trkpt lat="41.990502" lon="2.809437">
        <ele>78.085</ele>
        <time>2021-02-02T09:45:43Z</time>
      </trkpt>
      <trkpt lat="41.990596" lon="2.809480">
        <ele>78.456</ele>
        <time>2021-02-02T09:45:45Z</time>
      </trkpt>
      <trkpt lat="41.990704" lon="2.809481">
        <ele>78.551</ele>
        <time>2021-02-02T09:45:47Z</time>
      </trkpt>
      <trkpt lat="41.990757" lon="2.809457">
        <ele>78.716</ele>
        <time>2021-02-02T09:45:48Z</time>
      </trkpt>
      <trkpt lat="41.990799" lon="2.809402">
        <ele>78.665</ele>
        <time>2021-02-02T09:45:49Z</time>
      </trkpt>
      <trkpt lat="41.990847" lon="2.809263">
        <ele>78.896</ele>
        <time>2021-02-02T09:45:51Z</time>
      </trkpt>
      <trkpt lat="41.990830" lon="2.809105">
        <ele>78.631</ele>
        <time>2021-02-02T09:45:53Z</time>
      </trkpt>
      <trkpt lat="41.990754" lon="2.808983">
        <ele>78.524</ele>
        <time>2021-02-02T09:45:55Z</time>
      </trkpt>
      <trkpt lat="41.990701" lon="2.808946">
        <ele>78.708</ele>
        <time>2021-02-02T09:45:56Z</time>
      </trkpt>
      <trkpt lat="41.990645" lon="2.808916">
        <ele>78.685</ele>
        <time>2021-02-02T09:45:57Z</time>
      </trkpt>
      <trkpt lat="41.990535" lon="2.808850">
        <ele>78.424</ele>
        <time>2021-02-02T09:45:59Z</time>
      </trkpt>
      <trkpt lat="41.990440" lon="2.808748">
        <ele>78.019</ele>
        <time>2021-02-02T09:46:01Z</time>
      </trkpt>
      <trkpt lat="41.990355" lon="2.808647">
        <ele>78.261</ele>
        <time>2021-02-02T09:46:03Z</time>
      </trkpt>
      <trkpt lat="41.990295" lon="2.808527">
        <ele>78.552</ele>
        <time>2021-02-02T09:46:05Z</time>
      </trkpt>
      <trkpt lat="41.990254" lon="2.808381">
        <ele>78.497</ele>
        <time>2021-02-02T09:46:07Z</time>
      </trkpt>
      <trkpt lat="41.990214" lon="2.808234">
        <ele>78.552</ele>
        <time>2021-02-02T09:46:09Z</time>
      </trkpt>
      <trkpt lat="41.990194" lon="2.808160">
        <ele>78.811</ele>
        <time>2021-02-02T09:46:10Z</time>
      </trkpt>
      <trkpt lat="41.990154" lon="2.808015">
        <ele>78.642</ele>
        <time>2021-02-02T09:46:12Z</time>
      </trkpt>
      <trkpt lat="41.990114" lon="2.807872">
        <ele>78.822</ele>
        <time>2021-02-02T09:46:14Z</time>
      </trkpt>
      <trkpt lat="41.990093" lon="2.807801">
        <ele>78.614</ele>
        <time>2021-02-02T09:46:15Z</time>
      </trkpt>
      <trkpt lat="41.990055" lon="2.807660">
        <ele>78.808</ele>
        <time>2021-02-02T09:46:17Z</time>
      </trkpt>
      <trkpt lat="41.990020" lon="2.807517">
        <ele>78.860</ele>
        <time>2021-02-02T09:46:19Z</time>
      </trkpt>
      <trkpt lat="41.989999" lon="2.807443">
        <ele>78.729</ele>
        <time>2021-02-02T09:46:20Z</time>
      </trkpt>
      <trkpt lat="41.989961" lon="2.807295">
        <ele>79.064</ele>
        <time>2021-02-02T09:46:22Z</time>
      </trkpt>
      <trkpt lat="41.989944" lon="2.807220">
        <ele>78.956</ele>
        <time>2021-02-02T09:46:23Z</time>
      </trkpt>
      <trkpt lat="41.989927" lon="2.807146">
        <ele>79.187</ele>
        <time>2021-02-02T09:46:24Z</time>
      </trkpt>
      <trkpt lat="41.989895" lon="2.807000">
        <ele>79.072</ele>
        <time>2021-02-02T09:46:26Z</time>
      </trkpt>
      <trkpt lat="41.989878" lon="2.806926">
        <ele>79.137</ele>
        <time>2021-02-02T09:46:27Z</time>
      </trkpt>
      <trkpt lat="41.989846" lon="2.806782">
        <ele>79.386</ele>
        <time>2021-02-02T09:46:29Z</time>
      </trkpt>
      <trkpt lat="41.989830" lon="2.806709">
        <ele>79.463</ele>
        <time>2021-02-02T09:46:30Z</time>
      </trkpt>
      <trkpt lat="41.989800" lon="2.806560">
        <ele>79.544</ele>
        <time>2021-02-02T09:46:32Z</time>
      </trkpt>
      <trkpt lat="41.989771" lon="2.806413">
        <ele>79.218</ele>
        <time>2021-02-02T09:46:34Z</time>
      </trkpt>
      <trkpt lat="41.989757" lon="2.806338">
        <ele>79.408</ele>
        <time>2021-02-02T09:46:35Z</time>
      </trkpt>
      <trkpt lat="41.989729" lon="2.806196">
        <ele>79.412</ele>
        <time>2021-02-02T09:46:37Z</time>
      </trkpt>
      <trkpt lat="41.989714" lon="2.806125">
        <ele>79.481</ele>
        <time>2021-02-02T09:46:38Z</time>
      </trkpt>
      <trkpt lat="41.989685" lon="2.805985">
        <ele>79.266</ele>
        <time>2021-02-02T09:46:40Z</time>
      </trkpt>
      <trkpt lat="41.989634" lon="2.805862">
        <ele>79.228</ele>
        <time>2021-02-02T09:46:42Z</time>
      </trkpt>
      <trkpt lat="41.989593" lon="2.805730">
        <ele>79.319</ele>
        <time>2021-02-02T09:46:44Z</time>
      </trkpt>
      <trkpt lat="41.989581" lon="2.805657">
        <ele>79.424</ele>
        <time>2021-02-02T09:46:45Z</time>
      </trkpt>
      <trkpt lat="41.989569" lon="2.805584">
        <ele>79.359</ele>
        <time>2021-02-02T09:46:46Z</time>
      </trkpt>
      <trkpt lat="41.989551" lon="2.805445">
        <ele>79.418</ele>
        <time>2021-02-02T09:46:48Z</time>
      </trkpt>
      <trkpt lat="41.989537" lon="2.805303">
        <ele>79.435</ele>
        <time>2021-02-02T09:46:50Z</time>
      </trkpt>
      <trkpt lat="41.989531" lon="2.805229">
        <ele>79.486</ele>
        <time>2021-02-02T09:46:51Z</time>
      </trkpt>
      <trkpt lat="41.989527" lon="2.805155">
        <ele>79.014</ele>
        <time>2021-02-02T09:46:52Z</time>
      </trkpt>
      <trkpt lat="41.989527" lon="2.805010">
        <ele>79.608</ele>
        <time>2021-02-02T09:46:54Z</time>
      </trkpt>
      <trkpt lat="41.989518" lon="2.804933">
        <ele>79.739</ele>
        <time>2021-02-02T09:46:55Z</time>
      </trkpt>
      <trkpt lat="41.989500" lon="2.804788">
        <ele>79.838</ele>
        <time>2021-02-02T09:46:57Z</time>
      </trkpt>
      <trkpt lat="41.989490" lon="2.804714">
        <ele>79.723</ele>
        <time>2021-02-02T09:46:58Z</time>
      </trkpt>
      <trkpt lat="41.989471" lon="2.804567">
        <ele>79.915</ele>
        <time>2021-02-02T09:47:00Z</time>
      </trkpt>
      <trkpt lat="41.989457" lon="2.804415">
        <ele>80.026</ele>
        <time>2021-02-02T09:47:02Z</time>
      </trkpt>
      <trkpt lat="41.989450" lon="2.804338">
        <ele>80.051</ele>
        <time>2021-02-02T09:47:03Z</time>
      </trkpt>
      <trkpt lat="41.989440" lon="2.804182">
        <ele>80.136</ele>
        <time>2021-02-02T09:47:05Z</time>
      </trkpt>
      <trkpt lat="41.989433" lon="2.804027">
        <ele>80.285</ele>
        <time>2021-02-02T09:47:07Z</time>
      </trkpt>
      <trkpt lat="41.989430" lon="2.803870">
        <ele>79.953</ele>
        <time>2021-02-02T09:47:09Z</time>
      </trkpt>
      <trkpt lat="41.989435" lon="2.803718">
        <ele>80.104</ele>
        <time>2021-02-02T09:47:11Z</time>
      </trkpt>
      <trkpt lat="41.989438" lon="2.803641">
        <ele>79.914</ele>
        <time>2021-02-02T09:47:12Z</time>
      </trkpt>
      <trkpt lat="41.989442" lon="2.803493">
        <ele>80.108</ele>
        <time>2021-02-02T09:47:14Z</time>
      </trkpt>
      <trkpt lat="41.989445" lon="2.803417">
        <ele>80.121</ele>
        <time>2021-02-02T09:47:15Z</time>
      </trkpt>
      <trkpt lat="41.989456" lon="2.803265">
        <ele>80.310</ele>
        <time>2021-02-02T09:47:17Z</time>
      </trkpt>
      <trkpt lat="41.989469" lon="2.803114">
        <ele>80.485</ele>
        <time>2021-02-02T09:47:19Z</time>
      </trkpt>
      <trkpt lat="41.989484" lon="2.802965">
        <ele>80.397</ele>
        <time>2021-02-02T09:47:21Z</time>
      </trkpt>
      <trkpt lat="41.989502" lon="2.802816">
        <ele>80.628</ele>
        <time>2021-02-02T09:47:23Z</time>
      </trkpt>
      <trkpt lat="41.989513" lon="2.802742">
        <ele>80.893</ele>
        <time>2021-02-02T09:47:24Z</time>
      </trkpt>
      <trkpt lat="41.989524" lon="2.802668">
        <ele>80.718</ele>
        <time>2021-02-02T09:47:25Z</time>
      </trkpt>
      <trkpt lat="41.989547" lon="2.802521">
        <ele>80.327</ele>
        <time>2021-02-02T09:47:27Z</time>
      </trkpt>
      <trkpt lat="41.989566" lon="2.802374">
        <ele>80.785</ele>
        <time>2021-02-02T09:47:29Z</time>
      </trkpt>
      <trkpt lat="41.989585" lon="2.802227">
        <ele>80.689</ele>
        <time>2021-02-02T09:47:31Z</time>
      </trkpt>
      <trkpt lat="41.989606" lon="2.802081">
        <ele>80.717</ele>
        <time>2021-02-02T09:47:33Z</time>
      </trkpt>
      <trkpt lat="41.989628" lon="2.801935">
        <ele>80.808</ele>
        <time>2021-02-02T09:47:35Z</time>
      </trkpt>
      <trkpt lat="41.989639" lon="2.801861">
        <ele>80.854</ele>
        <time>2021-02-02T09:47:36Z</time>
      </trkpt>
      <trkpt lat="41.989650" lon="2.801787">
        <ele>80.733</ele>
        <time>2021-02-02T09:47:37Z</time>
      </trkpt>
      <trkpt lat="41.989662" lon="2.801712">
        <ele>81.018</ele>
        <time>2021-02-02T09:47:38Z</time>
      </trkpt>
      <trkpt lat="41.989680" lon="2.801566">
        <ele>81.060</ele>
        <time>2021-02-02T09:47:40Z</time>
      </trkpt>
      <trkpt lat="41.989689" lon="2.801492">
        <ele>80.971</ele>
        <time>2021-02-02T09:47:41Z</time>
      </trkpt>
      <trkpt lat="41.989710" lon="2.801346">
        <ele>81.226</ele>
        <time>2021-02-02T09:47:43Z</time>
      </trkpt>
      <trkpt lat="41.989730" lon="2.801199">
        <ele>81.071</ele>
        <time>2021-02-02T09:47:45Z</time>
      </trkpt>
      <trkpt lat="41.989751" lon="2.801053">
        <ele>80.880</ele>
        <time>2021-02-02T09:47:47Z</time>
      </trkpt>
      <trkpt lat="41.989761" lon="2.800979">
        <ele>81.034</ele>
        <time>2021-02-02T09:47:48Z</time>
      </trkpt>
      <trkpt lat="41.989771" lon="2.800905">
        <ele>80.855</ele>
        <time>2021-02-02T09:47:49Z</time>
      </trkpt>
      <trkpt lat="41.989792" lon="2.800758">
        <ele>81.010</ele>
        <time>2021-02-02T09:47:51Z</time>
      </trkpt>
      <trkpt lat="41.989813" lon="2.800611">
        <ele>81.108</ele>
        <time>2021-02-02T09:47:53Z</time>
      </trkpt>
      <trkpt lat="41.989823" lon="2.800537">
        <ele>81.229</ele>
        <time>2021-02-02T09:47:54Z</time>
      </trkpt>
      <trkpt lat="41.989842" lon="2.800389">
        <ele>81.218</ele>
        <time>2021-02-02T09:47:56Z</time>
      </trkpt>
      <trkpt lat="41.989864" lon="2.800242">
        <ele>81.333</ele>
        <time>2021-02-02T09:47:58Z</time>
      </trkpt>
      <trkpt lat="41.989875" lon="2.800169">
        <ele>81.325</ele>
        <time>2021-02-02T09:47:59Z</time>
      </trkpt>
      <trkpt lat="41.989894" lon="2.800019">
        <ele>81.446</ele>
        <time>2021-02-02T09:48:01Z</time>
      </trkpt>
      <trkpt lat="41.989903" lon="2.799943">
        <ele>81.581</ele>
        <time>2021-02-02T09:48:02Z</time>
      </trkpt>
      <trkpt lat="41.989920" lon="2.799794">
        <ele>81.446</ele>
        <time>2021-02-02T09:48:04Z</time>
      </trkpt>
      <trkpt lat="41.989928" lon="2.799718">
        <ele>81.575</ele>
        <time>2021-02-02T09:48:05Z</time>
      </trkpt>
      <trkpt lat="41.989934" lon="2.799642">
        <ele>81.464</ele>
        <time>2021-02-02T09:48:06Z</time>
      </trkpt>
      <trkpt lat="41.989937" lon="2.799566">
        <ele>81.606</ele>
        <time>2021-02-02T09:48:07Z</time>
      </trkpt>
      <trkpt lat="41.989925" lon="2.799417">
        <ele>81.716</ele>
        <time>2021-02-02T09:48:09Z</time>
      </trkpt>
      <trkpt lat="41.989911" lon="2.799342">
        <ele>81.608</ele>
        <time>2021-02-02T09:48:10Z</time>
      </trkpt>
      <trkpt lat="41.989896" lon="2.799268">
        <ele>81.512</ele>
        <time>2021-02-02T09:48:11Z</time>
      </trkpt>
      <trkpt lat="41.989882" lon="2.799194">
        <ele>81.421</ele>
        <time>2021-02-02T09:48:12Z</time>
      </trkpt>
      <trkpt lat="41.989867" lon="2.799121">
        <ele>81.416</ele>
        <time>2021-02-02T09:48:13Z</time>
      </trkpt>
      <trkpt lat="41.989833" lon="2.798976">
        <ele>81.738</ele>
        <time>2021-02-02T09:48:15Z</time>
      </trkpt>
      <trkpt lat="41.989803" lon="2.798831">
        <ele>81.559</ele>
        <time>2021-02-02T09:48:17Z</time>
      </trkpt>
      <trkpt lat="41.989789" lon="2.798757">
        <ele>81.584</ele>
        <time>2021-02-02T09:48:18Z</time>
      </trkpt>
      <trkpt lat="41.989776" lon="2.798682">
        <ele>81.799</ele>
        <time>2021-02-02T09:48:19Z</time>
      </trkpt>
      <trkpt lat="41.989748" lon="2.798533">
        <ele>81.998</ele>
        <time>2021-02-02T09:48:21Z</time>
      </trkpt>
      <trkpt lat="41.989719" lon="2.798388">
        <ele>82.078</ele>
        <time>2021-02-02T09:48:23Z</time>
      </trkpt>
      <trkpt lat="41.989705" lon="2.798315">
        <ele>81.933</ele>
        <time>2021-02-02T09:48:24Z</time>
      </trkpt>
      <trkpt lat="41.989678" lon="2.798169">
        <ele>81.926</ele>
        <time>2021-02-02T09:48:26Z</time>
      </trkpt>
      <trkpt lat="41.989652" lon="2.798023">
        <ele>81.808</ele>
        <time>2021-02-02T09:48:28Z</time>
      </trkpt>
      <trkpt lat="41.989640" lon="2.797949">
        <ele>82.123</ele>
        <time>2021-02-02T09:48:29Z</time>
      </trkpt>
      <trkpt lat="41.989628" lon="2.797875">
        <ele>81.992</ele>
        <time>2021-02-02T09:48:30Z</time>
      </trkpt>
      <trkpt lat="41.989600" lon="2.797731">
        <ele>82.327</ele>
        <time>2021-02-02T09:48:32Z</time>
      </trkpt>
      <trkpt lat="41.989585" lon="2.797658">
        <ele>82.399</ele>
        <time>2021-02-02T09:48:33Z</time>
      </trkpt>
      <trkpt lat="41.989556" lon="2.797509">
        <ele>82.250</ele>
        <time>2021-02-02T09:48:35Z</time>
      </trkpt>
      <trkpt lat="41.989542" lon="2.797434">
        <ele>82.315</ele>
        <time>2021-02-02T09:48:36Z</time>
      </trkpt>
      <trkpt lat="41.989512" lon="2.797287">
        <ele>82.220</ele>
        <time>2021-02-02T09:48:38Z</time>
      </trkpt>
      <trkpt lat="41.989486" lon="2.797140">
        <ele>82.599</ele>
        <time>2021-02-02T09:48:40Z</time>
      </trkpt>
      <trkpt lat="41.989475" lon="2.797066">
        <ele>82.492</ele>
        <time>2021-02-02T09:48:41Z</time>
      </trkpt>
      <trkpt lat="41.989464" lon="2.796993">
        <ele>82.473</ele>
        <time>2021-02-02T09:48:42Z</time>
      </trkpt>
      <trkpt lat="41.989452" lon="2.796922">
        <ele>82.520</ele>
        <time>2021-02-02T09:48:43Z</time>
      </trkpt>
      <trkpt lat="41.989424" lon="2.796779">
        <ele>82.708</ele>
        <time>2021-02-02T09:48:45Z</time>
      </trkpt>
      <trkpt lat="41.989398" lon="2.796641">
        <ele>82.925</ele>
        <time>2021-02-02T09:48:47Z</time>
      </trkpt>
      <trkpt lat="41.989385" lon="2.796572">
        <ele>83.024</ele>
        <time>2021-02-02T09:48:48Z</time>
      </trkpt>
      <trkpt lat="41.989372" lon="2.796503">
        <ele>83.399</ele>
        <time>2021-02-02T09:48:49Z</time>
      </trkpt>
      <trkpt lat="41.989345" lon="2.796370">
        <ele>83.551</ele>
        <time>2021-02-02T09:48:51Z</time>
      </trkpt>
      <trkpt lat="41.989327" lon="2.796307">
        <ele>83.752</ele>
        <time>2021-02-02T09:48:52Z</time>
      </trkpt>
      <trkpt lat="41.989271" lon="2.796203">
        <ele>83.987</ele>
        <time>2021-02-02T09:48:54Z</time>
      </trkpt>
      <trkpt lat="41.989210" lon="2.796150">
        <ele>84.262</ele>
        <time>2021-02-02T09:48:56Z</time>
      </trkpt>
      <trkpt lat="41.989165" lon="2.796132">
        <ele>84.271</ele>
        <time>2021-02-02T09:48:57Z</time>
      </trkpt>
      <trkpt lat="41.989088" lon="2.796091">
        <ele>84.298</ele>
        <time>2021-02-02T09:48:59Z</time>
      </trkpt>
      <trkpt lat="41.989011" lon="2.796045">
        <ele>83.915</ele>
        <time>2021-02-02T09:49:01Z</time>
      </trkpt>
      <trkpt lat="41.988957" lon="2.796017">
        <ele>83.726</ele>
        <time>2021-02-02T09:49:05Z</time>
      </trkpt>
      <trkpt lat="41.988929" lon="2.795924">
        <ele>83.808</ele>
        <time>2021-02-02T09:49:07Z</time>
      </trkpt>
      <trkpt lat="41.988934" lon="2.795850">
        <ele>83.615</ele>
        <time>2021-02-02T09:49:09Z</time>
      </trkpt>
      <trkpt lat="41.988975" lon="2.795811">
        <ele>84.064</ele>
        <time>2021-02-02T09:49:11Z</time>
      </trkpt>
      <trkpt lat="41.989004" lon="2.795762">
        <ele>84.259</ele>
        <time>2021-02-02T09:49:12Z</time>
      </trkpt>
      <trkpt lat="41.989030" lon="2.795694">
        <ele>84.161</ele>
        <time>2021-02-02T09:49:13Z</time>
      </trkpt>
      <trkpt lat="41.989058" lon="2.795624">
        <ele>84.062</ele>
        <time>2021-02-02T09:49:15Z</time>
      </trkpt>
      <trkpt lat="41.989092" lon="2.795564">
        <ele>84.137</ele>
        <time>2021-02-02T09:49:16Z</time>
      </trkpt>
      <trkpt lat="41.989128" lon="2.795508">
        <ele>84.342</ele>
        <time>2021-02-02T09:49:17Z</time>
      </trkpt>
      <trkpt lat="41.989171" lon="2.795419">
        <ele>84.061</ele>
        <time>2021-02-02T09:49:19Z</time>
      </trkpt>
      <trkpt lat="41.989196" lon="2.795363">
        <ele>84.153</ele>
        <time>2021-02-02T09:49:21Z</time>
      </trkpt>
      <trkpt lat="41.989209" lon="2.795281">
        <ele>84.104</ele>
        <time>2021-02-02T09:49:23Z</time>
      </trkpt>
      <trkpt lat="41.989224" lon="2.795221">
        <ele>84.114</ele>
        <time>2021-02-02T09:49:24Z</time>
      </trkpt>
      <trkpt lat="41.989235" lon="2.795154">
        <ele>84.208</ele>
        <time>2021-02-02T09:49:26Z</time>
      </trkpt>
      <trkpt lat="41.989233" lon="2.795015">
        <ele>84.291</ele>
        <time>2021-02-02T09:49:27Z</time>
      </trkpt>
      <trkpt lat="41.989214" lon="2.794880">
        <ele>84.310</ele>
        <time>2021-02-02T09:49:29Z</time>
      </trkpt>
      <trkpt lat="41.989202" lon="2.794812">
        <ele>84.395</ele>
        <time>2021-02-02T09:49:30Z</time>
      </trkpt>
      <trkpt lat="41.989189" lon="2.794743">
        <ele>84.417</ele>
        <time>2021-02-02T09:49:31Z</time>
      </trkpt>
      <trkpt lat="41.989166" lon="2.794604">
        <ele>84.448</ele>
        <time>2021-02-02T09:49:33Z</time>
      </trkpt>
      <trkpt lat="41.989155" lon="2.794533">
        <ele>84.593</ele>
        <time>2021-02-02T09:49:34Z</time>
      </trkpt>
      <trkpt lat="41.989143" lon="2.794460">
        <ele>84.518</ele>
        <time>2021-02-02T09:49:35Z</time>
      </trkpt>
      <trkpt lat="41.989119" lon="2.794319">
        <ele>84.637</ele>
        <time>2021-02-02T09:49:37Z</time>
      </trkpt>
      <trkpt lat="41.989090" lon="2.794174">
        <ele>84.749</ele>
        <time>2021-02-02T09:49:39Z</time>
      </trkpt>
      <trkpt lat="41.989075" lon="2.794105">
        <ele>84.802</ele>
        <time>2021-02-02T09:49:40Z</time>
      </trkpt>
      <trkpt lat="41.989062" lon="2.794036">
        <ele>84.722</ele>
        <time>2021-02-02T09:49:41Z</time>
      </trkpt>
      <trkpt lat="41.989050" lon="2.793962">
        <ele>84.708</ele>
        <time>2021-02-02T09:49:42Z</time>
      </trkpt>
      <trkpt lat="41.989026" lon="2.793814">
        <ele>84.630</ele>
        <time>2021-02-02T09:49:44Z</time>
      </trkpt>
      <trkpt lat="41.989014" lon="2.793739">
        <ele>84.729</ele>
        <time>2021-02-02T09:49:45Z</time>
      </trkpt>
      <trkpt lat="41.988991" lon="2.793591">
        <ele>84.924</ele>
        <time>2021-02-02T09:49:47Z</time>
      </trkpt>
      <trkpt lat="41.988980" lon="2.793517">
        <ele>84.996</ele>
        <time>2021-02-02T09:49:48Z</time>
      </trkpt>
      <trkpt lat="41.988958" lon="2.793364">
        <ele>84.977</ele>
        <time>2021-02-02T09:49:50Z</time>
      </trkpt>
      <trkpt lat="41.988937" lon="2.793212">
        <ele>85.152</ele>
        <time>2021-02-02T09:49:52Z</time>
      </trkpt>
      <trkpt lat="41.988925" lon="2.793140">
        <ele>85.177</ele>
        <time>2021-02-02T09:49:53Z</time>
      </trkpt>
      <trkpt lat="41.988911" lon="2.793072">
        <ele>85.026</ele>
        <time>2021-02-02T09:49:54Z</time>
      </trkpt>
      <trkpt lat="41.988895" lon="2.792999">
        <ele>85.172</ele>
        <time>2021-02-02T09:49:55Z</time>
      </trkpt>
      <trkpt lat="41.988865" lon="2.792853">
        <ele>85.313</ele>
        <time>2021-02-02T09:49:57Z</time>
      </trkpt>
      <trkpt lat="41.988836" lon="2.792707">
        <ele>85.014</ele>
        <time>2021-02-02T09:49:59Z</time>
      </trkpt>
      <trkpt lat="41.988823" lon="2.792627">
        <ele>85.008</ele>
        <time>2021-02-02T09:50:00Z</time>
      </trkpt>
      <trkpt lat="41.988809" lon="2.792547">
        <ele>85.093</ele>
        <time>2021-02-02T09:50:01Z</time>
      </trkpt>
      <trkpt lat="41.988796" lon="2.792467">
        <ele>85.112</ele>
        <time>2021-02-02T09:50:02Z</time>
      </trkpt>
      <trkpt lat="41.988767" lon="2.792304">
        <ele>85.377</ele>
        <time>2021-02-02T09:50:04Z</time>
      </trkpt>
      <trkpt lat="41.988736" lon="2.792143">
        <ele>85.249</ele>
        <time>2021-02-02T09:50:06Z</time>
      </trkpt>
      <trkpt lat="41.988708" lon="2.791982">
        <ele>85.390</ele>
        <time>2021-02-02T09:50:08Z</time>
      </trkpt>
      <trkpt lat="41.988694" lon="2.791901">
        <ele>85.295</ele>
        <time>2021-02-02T09:50:09Z</time>
      </trkpt>
      <trkpt lat="41.988664" lon="2.791746">
        <ele>85.360</ele>
        <time>2021-02-02T09:50:11Z</time>
      </trkpt>
      <trkpt lat="41.988649" lon="2.791666">
        <ele>85.369</ele>
        <time>2021-02-02T09:50:12Z</time>
      </trkpt>
      <trkpt lat="41.988612" lon="2.791510">
        <ele>85.489</ele>
        <time>2021-02-02T09:50:14Z</time>
      </trkpt>
      <trkpt lat="41.988567" lon="2.791362">
        <ele>85.506</ele>
        <time>2021-02-02T09:50:16Z</time>
      </trkpt>
      <trkpt lat="41.988528" lon="2.791221">
        <ele>85.526</ele>
        <time>2021-02-02T09:50:18Z</time>
      </trkpt>
      <trkpt lat="41.988504" lon="2.791142">
        <ele>85.708</ele>
        <time>2021-02-02T09:50:19Z</time>
      </trkpt>
      <trkpt lat="41.988480" lon="2.791063">
        <ele>85.754</ele>
        <time>2021-02-02T09:50:20Z</time>
      </trkpt>
      <trkpt lat="41.988431" lon="2.790917">
        <ele>85.993</ele>
        <time>2021-02-02T09:50:22Z</time>
      </trkpt>
      <trkpt lat="41.988404" lon="2.790845">
        <ele>85.818</ele>
        <time>2021-02-02T09:50:23Z</time>
      </trkpt>
      <trkpt lat="41.988350" lon="2.790701">
        <ele>85.740</ele>
        <time>2021-02-02T09:50:25Z</time>
      </trkpt>
      <trkpt lat="41.988323" lon="2.790626">
        <ele>85.551</ele>
        <time>2021-02-02T09:50:26Z</time>
      </trkpt>
      <trkpt lat="41.988271" lon="2.790494">
        <ele>85.536</ele>
        <time>2021-02-02T09:50:28Z</time>
      </trkpt>
      <trkpt lat="41.988212" lon="2.790354">
        <ele>85.861</ele>
        <time>2021-02-02T09:50:30Z</time>
      </trkpt>
      <trkpt lat="41.988182" lon="2.790280">
        <ele>85.730</ele>
        <time>2021-02-02T09:50:31Z</time>
      </trkpt>
      <trkpt lat="41.988129" lon="2.790134">
        <ele>85.868</ele>
        <time>2021-02-02T09:50:33Z</time>
      </trkpt>
      <trkpt lat="41.988103" lon="2.790061">
        <ele>85.642</ele>
        <time>2021-02-02T09:50:34Z</time>
      </trkpt>
      <trkpt lat="41.988054" lon="2.789916">
        <ele>85.826</ele>
        <time>2021-02-02T09:50:36Z</time>
      </trkpt>
      <trkpt lat="41.988006" lon="2.789766">
        <ele>85.808</ele>
        <time>2021-02-02T09:50:38Z</time>
      </trkpt>
      <trkpt lat="41.987960" lon="2.789617">
        <ele>86.142</ele>
        <time>2021-02-02T09:50:40Z</time>
      </trkpt>
      <trkpt lat="41.987937" lon="2.789541">
        <ele>86.071</ele>
        <time>2021-02-02T09:50:41Z</time>
      </trkpt>
      <trkpt lat="41.987894" lon="2.789391">
        <ele>86.536</ele>
        <time>2021-02-02T09:50:43Z</time>
      </trkpt>
      <trkpt lat="41.987849" lon="2.789251">
        <ele>86.588</ele>
        <time>2021-02-02T09:50:45Z</time>
      </trkpt>
      <trkpt lat="41.987806" lon="2.789103">
        <ele>86.069</ele>
        <time>2021-02-02T09:50:47Z</time>
      </trkpt>
      <trkpt lat="41.987785" lon="2.789028">
        <ele>86.094</ele>
        <time>2021-02-02T09:50:48Z</time>
      </trkpt>
      <trkpt lat="41.987764" lon="2.788953">
        <ele>86.199</ele>
        <time>2021-02-02T09:50:49Z</time>
      </trkpt>
      <trkpt lat="41.987724" lon="2.788807">
        <ele>86.628</ele>
        <time>2021-02-02T09:50:51Z</time>
      </trkpt>
      <trkpt lat="41.987688" lon="2.788654">
        <ele>86.457</ele>
        <time>2021-02-02T09:50:53Z</time>
      </trkpt>
      <trkpt lat="41.987655" lon="2.788506">
        <ele>86.500</ele>
        <time>2021-02-02T09:50:55Z</time>
      </trkpt>
      <trkpt lat="41.987638" lon="2.788427">
        <ele>86.420</ele>
        <time>2021-02-02T09:50:56Z</time>
      </trkpt>
      <trkpt lat="41.987619" lon="2.788349">
        <ele>86.408</ele>
        <time>2021-02-02T09:50:57Z</time>
      </trkpt>
      <trkpt lat="41.987600" lon="2.788276">
        <ele>86.531</ele>
        <time>2021-02-02T09:50:58Z</time>
      </trkpt>
      <trkpt lat="41.987580" lon="2.788205">
        <ele>86.420</ele>
        <time>2021-02-02T09:50:59Z</time>
      </trkpt>
      <trkpt lat="41.987559" lon="2.788134">
        <ele>86.475</ele>
        <time>2021-02-02T09:51:00Z</time>
      </trkpt>
      <trkpt lat="41.987538" lon="2.788065">
        <ele>86.447</ele>
        <time>2021-02-02T09:51:01Z</time>
      </trkpt>
      <trkpt lat="41.987504" lon="2.787949">
        <ele>86.688</ele>
        <time>2021-02-02T09:51:03Z</time>
      </trkpt>
      <trkpt lat="41.987487" lon="2.787843">
        <ele>86.533</ele>
        <time>2021-02-02T09:51:05Z</time>
      </trkpt>
      <trkpt lat="41.987469" lon="2.787774">
        <ele>86.478</ele>
        <time>2021-02-02T09:51:06Z</time>
      </trkpt>
      <trkpt lat="41.987429" lon="2.787643">
        <ele>86.877</ele>
        <time>2021-02-02T09:51:08Z</time>
      </trkpt>
      <trkpt lat="41.987383" lon="2.787523">
        <ele>86.791</ele>
        <time>2021-02-02T09:51:10Z</time>
      </trkpt>
      <trkpt lat="41.987361" lon="2.787466">
        <ele>86.581</ele>
        <time>2021-02-02T09:51:11Z</time>
      </trkpt>
      <trkpt lat="41.987341" lon="2.787411">
        <ele>86.619</ele>
        <time>2021-02-02T09:51:12Z</time>
      </trkpt>
      <trkpt lat="41.987323" lon="2.787352">
        <ele>86.908</ele>
        <time>2021-02-02T09:51:13Z</time>
      </trkpt>
      <trkpt lat="41.987291" lon="2.787225">
        <ele>86.935</ele>
        <time>2021-02-02T09:51:15Z</time>
      </trkpt>
      <trkpt lat="41.987273" lon="2.787158">
        <ele>87.164</ele>
        <time>2021-02-02T09:51:16Z</time>
      </trkpt>
      <trkpt lat="41.987254" lon="2.787089">
        <ele>86.939</ele>
        <time>2021-02-02T09:51:17Z</time>
      </trkpt>
      <trkpt lat="41.987209" lon="2.786955">
        <ele>87.041</ele>
        <time>2021-02-02T09:51:19Z</time>
      </trkpt>
      <trkpt lat="41.987187" lon="2.786888">
        <ele>87.052</ele>
        <time>2021-02-02T09:51:20Z</time>
      </trkpt>
      <trkpt lat="41.987167" lon="2.786820">
        <ele>87.287</ele>
        <time>2021-02-02T09:51:21Z</time>
      </trkpt>
      <trkpt lat="41.987141" lon="2.786678">
        <ele>86.942</ele>
        <time>2021-02-02T09:51:23Z</time>
      </trkpt>
      <trkpt lat="41.987123" lon="2.786546">
        <ele>87.121</ele>
        <time>2021-02-02T09:51:25Z</time>
      </trkpt>
      <trkpt lat="41.987111" lon="2.786430">
        <ele>87.315</ele>
        <time>2021-02-02T09:51:27Z</time>
      </trkpt>
      <trkpt lat="41.987116" lon="2.786369">
        <ele>87.365</ele>
        <time>2021-02-02T09:51:29Z</time>
      </trkpt>
      <trkpt lat="41.987165" lon="2.786338">
        <ele>86.911</ele>
        <time>2021-02-02T09:51:31Z</time>
      </trkpt>
      <trkpt lat="41.987243" lon="2.786314">
        <ele>87.108</ele>
        <time>2021-02-02T09:51:33Z</time>
      </trkpt>
      <trkpt lat="41.987328" lon="2.786286">
        <ele>87.277</ele>
        <time>2021-02-02T09:51:35Z</time>
      </trkpt>
      <trkpt lat="41.987394" lon="2.786261">
        <ele>87.296</ele>
        <time>2021-02-02T09:51:37Z</time>
      </trkpt>
      <trkpt lat="41.987441" lon="2.786242">
        <ele>86.921</ele>
        <time>2021-02-02T09:51:38Z</time>
      </trkpt>
      <trkpt lat="41.987505" lon="2.786218">
        <ele>87.183</ele>
        <time>2021-02-02T09:51:40Z</time>
      </trkpt>
      <trkpt lat="41.987567" lon="2.786187">
        <ele>87.354</ele>
        <time>2021-02-02T09:51:42Z</time>
      </trkpt>
      <trkpt lat="41.987605" lon="2.786136">
        <ele>87.749</ele>
        <time>2021-02-02T09:51:43Z</time>
      </trkpt>
      <trkpt lat="41.987610" lon="2.786070">
        <ele>87.564</ele>
        <time>2021-02-02T09:51:44Z</time>
      </trkpt>
      <trkpt lat="41.987582" lon="2.785988">
        <ele>87.673</ele>
        <time>2021-02-02T09:51:46Z</time>
      </trkpt>
      <trkpt lat="41.987546" lon="2.785944">
        <ele>87.418</ele>
        <time>2021-02-02T09:51:47Z</time>
      </trkpt>
      <trkpt lat="41.987489" lon="2.785886">
        <ele>87.498</ele>
        <time>2021-02-02T09:51:48Z</time>
      </trkpt>
      <trkpt lat="41.987406" lon="2.785796">
        <ele>87.017</ele>
        <time>2021-02-02T09:51:50Z</time>
      </trkpt>
      <trkpt lat="41.987323" lon="2.785708">
        <ele>87.608</ele>
        <time>2021-02-02T09:51:52Z</time>
      </trkpt>
      <trkpt lat="41.987236" lon="2.785629">
        <ele>87.447</ele>
        <time>2021-02-02T09:51:54Z</time>
      </trkpt>
      <trkpt lat="41.987191" lon="2.785590">
        <ele>87.676</ele>
        <time>2021-02-02T09:51:55Z</time>
      </trkpt>
      <trkpt lat="41.987107" lon="2.785504">
        <ele>87.431</ele>
        <time>2021-02-02T09:51:57Z</time>
      </trkpt>
      <trkpt lat="41.987026" lon="2.785399">
        <ele>87.353</ele>
        <time>2021-02-02T09:51:59Z</time>
      </trkpt>
      <trkpt lat="41.986928" lon="2.785309">
        <ele>87.454</ele>
        <time>2021-02-02T09:52:01Z</time>
      </trkpt>
      <trkpt lat="41.986873" lon="2.785269">
        <ele>87.249</ele>
        <time>2021-02-02T09:52:02Z</time>
      </trkpt>
      <trkpt lat="41.986764" lon="2.785194">
        <ele>87.374</ele>
        <time>2021-02-02T09:52:04Z</time>
      </trkpt>
      <trkpt lat="41.986709" lon="2.785166">
        <ele>87.033</ele>
        <time>2021-02-02T09:52:05Z</time>
      </trkpt>
      <trkpt lat="41.986659" lon="2.785140">
        <ele>87.346</ele>
        <time>2021-02-02T09:52:06Z</time>
      </trkpt>
      <trkpt lat="41.986612" lon="2.785067">
        <ele>87.188</ele>
        <time>2021-02-02T09:52:08Z</time>
      </trkpt>
      <trkpt lat="41.986588" lon="2.785005">
        <ele>87.316</ele>
        <time>2021-02-02T09:52:09Z</time>
      </trkpt>
      <trkpt lat="41.986537" lon="2.784876">
        <ele>86.908</ele>
        <time>2021-02-02T09:52:11Z</time>
      </trkpt>
      <trkpt lat="41.986496" lon="2.784817">
        <ele>86.310</ele>
        <time>2021-02-02T09:52:12Z</time>
      </trkpt>
      <trkpt lat="41.986391" lon="2.784704">
        <ele>85.119</ele>
        <time>2021-02-02T09:52:14Z</time>
      </trkpt>
      <trkpt lat="41.986324" lon="2.784652">
        <ele>84.254</ele>
        <time>2021-02-02T09:52:15Z</time>
      </trkpt>
      <trkpt lat="41.986248" lon="2.784600">
        <ele>83.386</ele>
        <time>2021-02-02T09:52:16Z</time>
      </trkpt>
      <trkpt lat="41.986168" lon="2.784543">
        <ele>82.527</ele>
        <time>2021-02-02T09:52:17Z</time>
      </trkpt>
      <trkpt lat="41.986017" lon="2.784421">
        <ele>81.362</ele>
        <time>2021-02-02T09:52:19Z</time>
      </trkpt>
      <trkpt lat="41.985913" lon="2.784316">
        <ele>80.537</ele>
        <time>2021-02-02T09:52:21Z</time>
      </trkpt>
      <trkpt lat="41.985887" lon="2.784195">
        <ele>80.626</ele>
        <time>2021-02-02T09:52:23Z</time>
      </trkpt>
      <trkpt lat="41.985900" lon="2.784130">
        <ele>80.726</ele>
        <time>2021-02-02T09:52:24Z</time>
      </trkpt>
      <trkpt lat="41.985938" lon="2.784048">
        <ele>80.747</ele>
        <time>2021-02-02T09:52:26Z</time>
      </trkpt>
      <trkpt lat="41.985970" lon="2.783916">
        <ele>80.411</ele>
        <time>2021-02-02T09:52:28Z</time>
      </trkpt>
      <trkpt lat="41.985970" lon="2.783829">
        <ele>80.408</ele>
        <time>2021-02-02T09:52:29Z</time>
      </trkpt>
      <trkpt lat="41.985944" lon="2.783653">
        <ele>80.298</ele>
        <time>2021-02-02T09:52:31Z</time>
      </trkpt>
      <trkpt lat="41.985907" lon="2.783479">
        <ele>80.157</ele>
        <time>2021-02-02T09:52:33Z</time>
      </trkpt>
      <trkpt lat="41.985872" lon="2.783313">
        <ele>80.122</ele>
        <time>2021-02-02T09:52:35Z</time>
      </trkpt>
      <trkpt lat="41.985865" lon="2.783223">
        <ele>80.114</ele>
        <time>2021-02-02T09:52:36Z</time>
      </trkpt>
      <trkpt lat="41.985858" lon="2.783057">
        <ele>80.345</ele>
        <time>2021-02-02T09:52:38Z</time>
      </trkpt>
      <trkpt lat="41.985857" lon="2.782886">
        <ele>80.780</ele>
        <time>2021-02-02T09:52:40Z</time>
      </trkpt>
      <trkpt lat="41.985857" lon="2.782810">
        <ele>80.795</ele>
        <time>2021-02-02T09:52:41Z</time>
      </trkpt>
      <trkpt lat="41.985864" lon="2.782679">
        <ele>80.534</ele>
        <time>2021-02-02T09:52:43Z</time>
      </trkpt>
      <trkpt lat="41.985896" lon="2.782573">
        <ele>80.966</ele>
        <time>2021-02-02T09:52:45Z</time>
      </trkpt>
      <trkpt lat="41.985968" lon="2.782492">
        <ele>81.829</ele>
        <time>2021-02-02T09:52:47Z</time>
      </trkpt>
      <trkpt lat="41.986044" lon="2.782457">
        <ele>82.221</ele>
        <time>2021-02-02T09:52:49Z</time>
      </trkpt>
      <trkpt lat="41.986111" lon="2.782420">
        <ele>83.108</ele>
        <time>2021-02-02T09:52:53Z</time>
      </trkpt>
      <trkpt lat="41.986149" lon="2.782386">
        <ele>83.562</ele>
        <time>2021-02-02T09:52:54Z</time>
      </trkpt>
      <trkpt lat="41.986187" lon="2.782342">
        <ele>83.631</ele>
        <time>2021-02-02T09:52:56Z</time>
      </trkpt>
      <trkpt lat="41.986234" lon="2.782288">
        <ele>84.396</ele>
        <time>2021-02-02T09:52:58Z</time>
      </trkpt>
      <trkpt lat="41.986271" lon="2.782247">
        <ele>84.768</ele>
        <time>2021-02-02T09:52:59Z</time>
      </trkpt>
      <trkpt lat="41.986308" lon="2.782211">
        <ele>85.489</ele>
        <time>2021-02-02T09:53:01Z</time>
      </trkpt>
      <trkpt lat="41.986350" lon="2.782164">
        <ele>86.134</ele>
        <time>2021-02-02T09:53:03Z</time>
      </trkpt>
      <trkpt lat="41.986399" lon="2.782113">
        <ele>86.969</ele>
        <time>2021-02-02T09:53:06Z</time>
      </trkpt>
      <trkpt lat="41.986399" lon="2.782113">
        <ele>86.928</ele>
        <time>2021-02-02T09:53:06Z</time>
      </trkpt>
      <trkpt lat="41.986437" lon="2.782057">
        <ele>87.367</ele>
        <time>2021-02-02T09:53:09Z</time>
      </trkpt>
      <trkpt lat="41.986465" lon="2.781991">
        <ele>87.681</ele>
        <time>2021-02-02T09:53:11Z</time>
      </trkpt>
      <trkpt lat="41.986478" lon="2.781912">
        <ele>87.119</ele>
        <time>2021-02-02T09:53:13Z</time>
      </trkpt>
      <trkpt lat="41.986483" lon="2.781833">
        <ele>87.508</ele>
        <time>2021-02-02T09:53:14Z</time>
      </trkpt>
      <trkpt lat="41.986489" lon="2.781740">
        <ele>87.682</ele>
        <time>2021-02-02T09:53:16Z</time>
      </trkpt>
      <trkpt lat="41.986506" lon="2.781637">
        <ele>87.821</ele>
        <time>2021-02-02T09:53:18Z</time>
      </trkpt>
      <trkpt lat="41.986519" lon="2.781549">
        <ele>87.966</ele>
        <time>2021-02-02T09:53:20Z</time>
      </trkpt>
      <trkpt lat="41.986520" lon="2.781485">
        <ele>87.928</ele>
        <time>2021-02-02T09:53:21Z</time>
      </trkpt>
      <trkpt lat="41.986520" lon="2.781424">
        <ele>88.279</ele>
        <time>2021-02-02T09:53:22Z</time>
      </trkpt>
      <trkpt lat="41.986515" lon="2.781355">
        <ele>88.114</ele>
        <time>2021-02-02T09:53:24Z</time>
      </trkpt>
      <trkpt lat="41.986508" lon="2.781280">
        <ele>88.149</ele>
        <time>2021-02-02T09:53:26Z</time>
      </trkpt>
      <trkpt lat="41.986497" lon="2.781220">
        <ele>88.248</ele>
        <time>2021-02-02T09:53:27Z</time>
      </trkpt>
      <trkpt lat="41.986480" lon="2.781149">
        <ele>88.662</ele>
        <time>2021-02-02T09:53:29Z</time>
      </trkpt>
      <trkpt lat="41.986472" lon="2.781064">
        <ele>88.983</ele>
        <time>2021-02-02T09:53:31Z</time>
      </trkpt>
      <trkpt lat="41.986467" lon="2.780983">
        <ele>88.811</ele>
        <time>2021-02-02T09:53:33Z</time>
      </trkpt>
      <trkpt lat="41.986473" lon="2.780896">
        <ele>89.408</ele>
        <time>2021-02-02T09:53:35Z</time>
      </trkpt>
      <trkpt lat="41.986478" lon="2.780834">
        <ele>89.732</ele>
        <time>2021-02-02T09:53:36Z</time>
      </trkpt>
      <trkpt lat="41.986484" lon="2.780761">
        <ele>89.831</ele>
        <time>2021-02-02T09:53:38Z</time>
      </trkpt>
      <trkpt lat="41.986502" lon="2.780661">
        <ele>89.736</ele>
        <time>2021-02-02T09:53:40Z</time>
      </trkpt>
      <trkpt lat="41.986513" lon="2.780601">
        <ele>90.088</ele>
        <time>2021-02-02T09:53:41Z</time>
      </trkpt>
      <trkpt lat="41.986523" lon="2.780509">
        <ele>89.769</ele>
        <time>2021-02-02T09:53:43Z</time>
      </trkpt>
      <trkpt lat="41.986530" lon="2.780436">
        <ele>89.814</ele>
        <time>2021-02-02T09:53:44Z</time>
      </trkpt>
      <trkpt lat="41.986536" lon="2.780350">
        <ele>89.929</ele>
        <time>2021-02-02T09:53:45Z</time>
      </trkpt>
      <trkpt lat="41.986537" lon="2.780240">
        <ele>90.348</ele>
        <time>2021-02-02T09:53:47Z</time>
      </trkpt>
      <trkpt lat="41.986536" lon="2.780173">
        <ele>90.212</ele>
        <time>2021-02-02T09:53:48Z</time>
      </trkpt>
      <trkpt lat="41.986534" lon="2.780070">
        <ele>90.432</ele>
        <time>2021-02-02T09:53:50Z</time>
      </trkpt>
      <trkpt lat="41.986536" lon="2.779928">
        <ele>90.405</ele>
        <time>2021-02-02T09:53:51Z</time>
      </trkpt>
      <trkpt lat="41.986538" lon="2.779851">
        <ele>90.308</ele>
        <time>2021-02-02T09:53:52Z</time>
      </trkpt>
      <trkpt lat="41.986539" lon="2.779778">
        <ele>90.537</ele>
        <time>2021-02-02T09:53:53Z</time>
      </trkpt>
      <trkpt lat="41.986540" lon="2.779636">
        <ele>90.576</ele>
        <time>2021-02-02T09:53:55Z</time>
      </trkpt>
      <trkpt lat="41.986540" lon="2.779560">
        <ele>90.591</ele>
        <time>2021-02-02T09:53:56Z</time>
      </trkpt>
      <trkpt lat="41.986541" lon="2.779419">
        <ele>90.653</ele>
        <time>2021-02-02T09:53:58Z</time>
      </trkpt>
      <trkpt lat="41.986527" lon="2.779292">
        <ele>90.644</ele>
        <time>2021-02-02T09:54:00Z</time>
      </trkpt>
      <trkpt lat="41.986502" lon="2.779228">
        <ele>90.829</ele>
        <time>2021-02-02T09:54:02Z</time>
      </trkpt>
      <trkpt lat="41.986491" lon="2.779127">
        <ele>91.184</ele>
        <time>2021-02-02T09:54:03Z</time>
      </trkpt>
      <trkpt lat="41.986490" lon="2.779059">
        <ele>90.993</ele>
        <time>2021-02-02T09:54:04Z</time>
      </trkpt>
      <trkpt lat="41.986465" lon="2.778907">
        <ele>91.212</ele>
        <time>2021-02-02T09:54:06Z</time>
      </trkpt>
      <trkpt lat="41.986442" lon="2.778761">
        <ele>91.232</ele>
        <time>2021-02-02T09:54:08Z</time>
      </trkpt>
      <trkpt lat="41.986410" lon="2.778629">
        <ele>91.605</ele>
        <time>2021-02-02T09:54:10Z</time>
      </trkpt>
      <trkpt lat="41.986393" lon="2.778560">
        <ele>91.708</ele>
        <time>2021-02-02T09:54:11Z</time>
      </trkpt>
      <trkpt lat="41.986376" lon="2.778492">
        <ele>91.957</ele>
        <time>2021-02-02T09:54:12Z</time>
      </trkpt>
      <trkpt lat="41.986342" lon="2.778359">
        <ele>91.726</ele>
        <time>2021-02-02T09:54:14Z</time>
      </trkpt>
      <trkpt lat="41.986302" lon="2.778232">
        <ele>91.991</ele>
        <time>2021-02-02T09:54:16Z</time>
      </trkpt>
      <trkpt lat="41.986282" lon="2.778165">
        <ele>92.043</ele>
        <time>2021-02-02T09:54:17Z</time>
      </trkpt>
      <trkpt lat="41.986260" lon="2.778097">
        <ele>91.914</ele>
        <time>2021-02-02T09:54:18Z</time>
      </trkpt>
      <trkpt lat="41.986240" lon="2.778029">
        <ele>91.519</ele>
        <time>2021-02-02T09:54:19Z</time>
      </trkpt>
      <trkpt lat="41.986222" lon="2.777963">
        <ele>91.444</ele>
        <time>2021-02-02T09:54:20Z</time>
      </trkpt>
      <trkpt lat="41.986197" lon="2.777827">
        <ele>91.683</ele>
        <time>2021-02-02T09:54:22Z</time>
      </trkpt>
      <trkpt lat="41.986186" lon="2.777757">
        <ele>92.075</ele>
        <time>2021-02-02T09:54:23Z</time>
      </trkpt>
      <trkpt lat="41.986170" lon="2.777621">
        <ele>92.128</ele>
        <time>2021-02-02T09:54:25Z</time>
      </trkpt>
      <trkpt lat="41.986164" lon="2.777554">
        <ele>92.220</ele>
        <time>2021-02-02T09:54:26Z</time>
      </trkpt>
      <trkpt lat="41.986154" lon="2.777425">
        <ele>92.508</ele>
        <time>2021-02-02T09:54:28Z</time>
      </trkpt>
      <trkpt lat="41.986146" lon="2.777301">
        <ele>92.833</ele>
        <time>2021-02-02T09:54:30Z</time>
      </trkpt>
      <trkpt lat="41.986154" lon="2.777205">
        <ele>93.262</ele>
        <time>2021-02-02T09:54:32Z</time>
      </trkpt>
      <trkpt lat="41.986139" lon="2.777089">
        <ele>93.077</ele>
        <time>2021-02-02T09:54:34Z</time>
      </trkpt>
      <trkpt lat="41.986118" lon="2.777023">
        <ele>93.379</ele>
        <time>2021-02-02T09:54:35Z</time>
      </trkpt>
      <trkpt lat="41.986096" lon="2.776957">
        <ele>93.330</ele>
        <time>2021-02-02T09:54:36Z</time>
      </trkpt>
      <trkpt lat="41.986080" lon="2.776890">
        <ele>93.465</ele>
        <time>2021-02-02T09:54:37Z</time>
      </trkpt>
      <trkpt lat="41.986055" lon="2.776753">
        <ele>92.670</ele>
        <time>2021-02-02T09:54:39Z</time>
      </trkpt>
      <trkpt lat="41.986053" lon="2.776586">
        <ele>91.819</ele>
        <time>2021-02-02T09:54:41Z</time>
      </trkpt>
      <trkpt lat="41.986031" lon="2.776425">
        <ele>91.367</ele>
        <time>2021-02-02T09:54:43Z</time>
      </trkpt>
      <trkpt lat="41.986022" lon="2.776247">
        <ele>90.681</ele>
        <time>2021-02-02T09:54:45Z</time>
      </trkpt>
      <trkpt lat="41.985993" lon="2.776060">
        <ele>89.319</ele>
        <time>2021-02-02T09:54:47Z</time>
      </trkpt>
      <trkpt lat="41.985962" lon="2.775852">
        <ele>88.508</ele>
        <time>2021-02-02T09:54:49Z</time>
      </trkpt>
      <trkpt lat="41.985948" lon="2.775752">
        <ele>87.942</ele>
        <time>2021-02-02T09:54:50Z</time>
      </trkpt>
      <trkpt lat="41.985892" lon="2.775539">
        <ele>86.781</ele>
        <time>2021-02-02T09:54:52Z</time>
      </trkpt>
      <trkpt lat="41.985850" lon="2.775438">
        <ele>86.756</ele>
        <time>2021-02-02T09:54:53Z</time>
      </trkpt>
      <trkpt lat="41.985808" lon="2.775347">
        <ele>86.168</ele>
        <time>2021-02-02T09:54:54Z</time>
      </trkpt>
      <trkpt lat="41.985769" lon="2.775177">
        <ele>85.599</ele>
        <time>2021-02-02T09:54:56Z</time>
      </trkpt>
      <trkpt lat="41.985778" lon="2.775008">
        <ele>85.074</ele>
        <time>2021-02-02T09:54:58Z</time>
      </trkpt>
      <trkpt lat="41.985777" lon="2.774870">
        <ele>84.479</ele>
        <time>2021-02-02T09:55:00Z</time>
      </trkpt>
      <trkpt lat="41.985763" lon="2.774789">
        <ele>84.588</ele>
        <time>2021-02-02T09:55:02Z</time>
      </trkpt>
      <trkpt lat="41.985732" lon="2.774679">
        <ele>84.816</ele>
        <time>2021-02-02T09:55:04Z</time>
      </trkpt>
      <trkpt lat="41.985715" lon="2.774587">
        <ele>85.176</ele>
        <time>2021-02-02T09:55:06Z</time>
      </trkpt>
      <trkpt lat="41.985711" lon="2.774522">
        <ele>85.413</ele>
        <time>2021-02-02T09:55:08Z</time>
      </trkpt>
      <trkpt lat="41.985703" lon="2.774450">
        <ele>85.908</ele>
        <time>2021-02-02T09:55:10Z</time>
      </trkpt>
      <trkpt lat="41.985721" lon="2.774392">
        <ele>86.167</ele>
        <time>2021-02-02T09:55:11Z</time>
      </trkpt>
      <trkpt lat="41.985741" lon="2.774333">
        <ele>86.316</ele>
        <time>2021-02-02T09:55:12Z</time>
      </trkpt>
      <trkpt lat="41.985757" lon="2.774275">
        <ele>86.431</ele>
        <time>2021-02-02T09:55:13Z</time>
      </trkpt>
      <trkpt lat="41.985779" lon="2.774176">
        <ele>87.123</ele>
        <time>2021-02-02T09:55:15Z</time>
      </trkpt>
      <trkpt lat="41.985793" lon="2.774093">
        <ele>87.664</ele>
        <time>2021-02-02T09:55:17Z</time>
      </trkpt>
      <trkpt lat="41.985800" lon="2.774025">
        <ele>88.689</ele>
        <time>2021-02-02T09:55:19Z</time>
      </trkpt>
      <trkpt lat="41.985812" lon="2.773945">
        <ele>89.374</ele>
        <time>2021-02-02T09:55:22Z</time>
      </trkpt>
      <trkpt lat="41.985825" lon="2.773887">
        <ele>90.253</ele>
        <time>2021-02-02T09:55:24Z</time>
      </trkpt>
      <trkpt lat="41.985846" lon="2.773813">
        <ele>90.665</ele>
        <time>2021-02-02T09:55:26Z</time>
      </trkpt>
      <trkpt lat="41.985869" lon="2.773733">
        <ele>90.968</ele>
        <time>2021-02-02T09:55:29Z</time>
      </trkpt>
      <trkpt lat="41.985886" lon="2.773674">
        <ele>91.414</ele>
        <time>2021-02-02T09:55:30Z</time>
      </trkpt>
      <trkpt lat="41.985916" lon="2.773589">
        <ele>91.508</ele>
        <time>2021-02-02T09:55:32Z</time>
      </trkpt>
      <trkpt lat="41.985950" lon="2.773537">
        <ele>91.722</ele>
        <time>2021-02-02T09:55:34Z</time>
      </trkpt>
      <trkpt lat="41.985994" lon="2.773490">
        <ele>92.111</ele>
        <time>2021-02-02T09:55:36Z</time>
      </trkpt>
      <trkpt lat="41.986031" lon="2.773441">
        <ele>92.396</ele>
        <time>2021-02-02T09:55:38Z</time>
      </trkpt>
      <trkpt lat="41.986071" lon="2.773392">
        <ele>92.858</ele>
        <time>2021-02-02T09:55:40Z</time>
      </trkpt>
      <trkpt lat="41.986105" lon="2.773343">
        <ele>92.939</ele>
        <time>2021-02-02T09:55:41Z</time>
      </trkpt>
      <trkpt lat="41.986150" lon="2.773285">
        <ele>93.274</ele>
        <time>2021-02-02T09:55:43Z</time>
      </trkpt>
      <trkpt lat="41.986194" lon="2.773240">
        <ele>93.479</ele>
        <time>2021-02-02T09:55:45Z</time>
      </trkpt>
      <trkpt lat="41.986242" lon="2.773179">
        <ele>94.118</ele>
        <time>2021-02-02T09:55:47Z</time>
      </trkpt>
      <trkpt lat="41.986280" lon="2.773113">
        <ele>94.062</ele>
        <time>2021-02-02T09:55:49Z</time>
      </trkpt>
      <trkpt lat="41.986310" lon="2.773041">
        <ele>94.283</ele>
        <time>2021-02-02T09:55:51Z</time>
      </trkpt>
      <trkpt lat="41.986338" lon="2.772951">
        <ele>94.311</ele>
        <time>2021-02-02T09:55:53Z</time>
      </trkpt>
      <trkpt lat="41.986359" lon="2.772871">
        <ele>94.208</ele>
        <time>2021-02-02T09:55:54Z</time>
      </trkpt>
      <trkpt lat="41.986373" lon="2.772810">
        <ele>94.322</ele>
        <time>2021-02-02T09:55:55Z</time>
      </trkpt>
      <trkpt lat="41.986387" lon="2.772721">
        <ele>94.511</ele>
        <time>2021-02-02T09:55:57Z</time>
      </trkpt>
      <trkpt lat="41.986401" lon="2.772643">
        <ele>94.346</ele>
        <time>2021-02-02T09:55:58Z</time>
      </trkpt>
      <trkpt lat="41.986415" lon="2.772577">
        <ele>94.688</ele>
        <time>2021-02-02T09:55:59Z</time>
      </trkpt>
      <trkpt lat="41.986434" lon="2.772482">
        <ele>94.739</ele>
        <time>2021-02-02T09:56:01Z</time>
      </trkpt>
      <trkpt lat="41.986450" lon="2.772412">
        <ele>94.764</ele>
        <time>2021-02-02T09:56:02Z</time>
      </trkpt>
      <trkpt lat="41.986467" lon="2.772347">
        <ele>94.929</ele>
        <time>2021-02-02T09:56:03Z</time>
      </trkpt>
      <trkpt lat="41.986485" lon="2.772290">
        <ele>94.998</ele>
        <time>2021-02-02T09:56:04Z</time>
      </trkpt>
      <trkpt lat="41.986522" lon="2.772188">
        <ele>94.645</ele>
        <time>2021-02-02T09:56:06Z</time>
      </trkpt>
      <trkpt lat="41.986547" lon="2.772112">
        <ele>94.647</ele>
        <time>2021-02-02T09:56:09Z</time>
      </trkpt>
      <trkpt lat="41.986562" lon="2.772018">
        <ele>94.911</ele>
        <time>2021-02-02T09:56:11Z</time>
      </trkpt>
      <trkpt lat="41.986588" lon="2.771931">
        <ele>95.208</ele>
        <time>2021-02-02T09:56:13Z</time>
      </trkpt>
      <trkpt lat="41.986623" lon="2.771839">
        <ele>95.240</ele>
        <time>2021-02-02T09:56:14Z</time>
      </trkpt>
      <trkpt lat="41.986644" lon="2.771779">
        <ele>95.239</ele>
        <time>2021-02-02T09:56:15Z</time>
      </trkpt>
      <trkpt lat="41.986682" lon="2.771655">
        <ele>95.464</ele>
        <time>2021-02-02T09:56:17Z</time>
      </trkpt>
      <trkpt lat="41.986721" lon="2.771533">
        <ele>95.616</ele>
        <time>2021-02-02T09:56:19Z</time>
      </trkpt>
      <trkpt lat="41.986763" lon="2.771409">
        <ele>95.787</ele>
        <time>2021-02-02T09:56:21Z</time>
      </trkpt>
      <trkpt lat="41.986781" lon="2.771347">
        <ele>95.622</ele>
        <time>2021-02-02T09:56:22Z</time>
      </trkpt>
      <trkpt lat="41.986799" lon="2.771283">
        <ele>95.897</ele>
        <time>2021-02-02T09:56:23Z</time>
      </trkpt>
      <trkpt lat="41.986834" lon="2.771156">
        <ele>96.056</ele>
        <time>2021-02-02T09:56:25Z</time>
      </trkpt>
      <trkpt lat="41.986851" lon="2.771093">
        <ele>95.936</ele>
        <time>2021-02-02T09:56:26Z</time>
      </trkpt>
      <trkpt lat="41.986885" lon="2.770965">
        <ele>96.117</ele>
        <time>2021-02-02T09:56:28Z</time>
      </trkpt>
      <trkpt lat="41.986902" lon="2.770901">
        <ele>96.318</ele>
        <time>2021-02-02T09:56:29Z</time>
      </trkpt>
      <trkpt lat="41.986940" lon="2.770779">
        <ele>96.408</ele>
        <time>2021-02-02T09:56:31Z</time>
      </trkpt>
      <trkpt lat="41.986960" lon="2.770717">
        <ele>96.539</ele>
        <time>2021-02-02T09:56:32Z</time>
      </trkpt>
      <trkpt lat="41.986997" lon="2.770595">
        <ele>96.568</ele>
        <time>2021-02-02T09:56:34Z</time>
      </trkpt>
      <trkpt lat="41.987015" lon="2.770532">
        <ele>96.713</ele>
        <time>2021-02-02T09:56:35Z</time>
      </trkpt>
      <trkpt lat="41.987052" lon="2.770407">
        <ele>96.745</ele>
        <time>2021-02-02T09:56:37Z</time>
      </trkpt>
      <trkpt lat="41.987070" lon="2.770345">
        <ele>96.896</ele>
        <time>2021-02-02T09:56:38Z</time>
      </trkpt>
      <trkpt lat="41.987103" lon="2.770220">
        <ele>97.391</ele>
        <time>2021-02-02T09:56:40Z</time>
      </trkpt>
      <trkpt lat="41.987133" lon="2.770098">
        <ele>97.456</ele>
        <time>2021-02-02T09:56:42Z</time>
      </trkpt>
      <trkpt lat="41.987165" lon="2.769973">
        <ele>97.665</ele>
        <time>2021-02-02T09:56:44Z</time>
      </trkpt>
      <trkpt lat="41.987198" lon="2.769848">
        <ele>97.484</ele>
        <time>2021-02-02T09:56:46Z</time>
      </trkpt>
      <trkpt lat="41.987233" lon="2.769720">
        <ele>97.507</ele>
        <time>2021-02-02T09:56:48Z</time>
      </trkpt>
      <trkpt lat="41.987251" lon="2.769655">
        <ele>97.817</ele>
        <time>2021-02-02T09:56:49Z</time>
      </trkpt>
      <trkpt lat="41.987268" lon="2.769588">
        <ele>97.708</ele>
        <time>2021-02-02T09:56:50Z</time>
      </trkpt>
      <trkpt lat="41.987287" lon="2.769520">
        <ele>97.634</ele>
        <time>2021-02-02T09:56:51Z</time>
      </trkpt>
      <trkpt lat="41.987326" lon="2.769378">
        <ele>97.343</ele>
        <time>2021-02-02T09:56:53Z</time>
      </trkpt>
      <trkpt lat="41.987369" lon="2.769230">
        <ele>97.298</ele>
        <time>2021-02-02T09:56:55Z</time>
      </trkpt>
      <trkpt lat="41.987404" lon="2.769075">
        <ele>97.410</ele>
        <time>2021-02-02T09:56:57Z</time>
      </trkpt>
      <trkpt lat="41.987417" lon="2.768993">
        <ele>97.061</ele>
        <time>2021-02-02T09:56:58Z</time>
      </trkpt>
      <trkpt lat="41.987450" lon="2.768829">
        <ele>96.856</ele>
        <time>2021-02-02T09:57:00Z</time>
      </trkpt>
      <trkpt lat="41.987488" lon="2.768668">
        <ele>96.951</ele>
        <time>2021-02-02T09:57:02Z</time>
      </trkpt>
      <trkpt lat="41.987508" lon="2.768586">
        <ele>96.680</ele>
        <time>2021-02-02T09:57:03Z</time>
      </trkpt>
      <trkpt lat="41.987508" lon="2.768586">
        <ele>96.631</ele>
        <time>2021-02-02T09:57:03Z</time>
      </trkpt>
      <trkpt lat="41.987528" lon="2.768503">
        <ele>96.761</ele>
        <time>2021-02-02T09:57:04Z</time>
      </trkpt>
      <trkpt lat="41.987567" lon="2.768345">
        <ele>96.507</ele>
        <time>2021-02-02T09:57:06Z</time>
      </trkpt>
      <trkpt lat="41.987585" lon="2.768263">
        <ele>96.408</ele>
        <time>2021-02-02T09:57:07Z</time>
      </trkpt>
      <trkpt lat="41.987617" lon="2.768105">
        <ele>95.919</ele>
        <time>2021-02-02T09:57:09Z</time>
      </trkpt>
      <trkpt lat="41.987642" lon="2.767950">
        <ele>96.198</ele>
        <time>2021-02-02T09:57:11Z</time>
      </trkpt>
      <trkpt lat="41.987653" lon="2.767875">
        <ele>96.123</ele>
        <time>2021-02-02T09:57:12Z</time>
      </trkpt>
      <trkpt lat="41.987660" lon="2.767803">
        <ele>96.165</ele>
        <time>2021-02-02T09:57:13Z</time>
      </trkpt>
      <trkpt lat="41.987681" lon="2.767680">
        <ele>96.256</ele>
        <time>2021-02-02T09:57:15Z</time>
      </trkpt>
      <trkpt lat="41.987714" lon="2.767555">
        <ele>95.761</ele>
        <time>2021-02-02T09:57:17Z</time>
      </trkpt>
      <trkpt lat="41.987749" lon="2.767380">
        <ele>94.246</ele>
        <time>2021-02-02T09:57:19Z</time>
      </trkpt>
      <trkpt lat="41.987776" lon="2.767176">
        <ele>93.085</ele>
        <time>2021-02-02T09:57:21Z</time>
      </trkpt>
      <trkpt lat="41.987791" lon="2.767069">
        <ele>92.693</ele>
        <time>2021-02-02T09:57:22Z</time>
      </trkpt>
      <trkpt lat="41.987825" lon="2.766853">
        <ele>91.865</ele>
        <time>2021-02-02T09:57:24Z</time>
      </trkpt>
      <trkpt lat="41.987845" lon="2.766749">
        <ele>91.121</ele>
        <time>2021-02-02T09:57:25Z</time>
      </trkpt>
      <trkpt lat="41.987896" lon="2.766557">
        <ele>91.408</ele>
        <time>2021-02-02T09:57:27Z</time>
      </trkpt>
      <trkpt lat="41.987947" lon="2.766380">
        <ele>92.495</ele>
        <time>2021-02-02T09:57:29Z</time>
      </trkpt>
      <trkpt lat="41.987983" lon="2.766224">
        <ele>93.694</ele>
        <time>2021-02-02T09:57:31Z</time>
      </trkpt>
      <trkpt lat="41.987997" lon="2.766088">
        <ele>94.989</ele>
        <time>2021-02-02T09:57:33Z</time>
      </trkpt>
      <trkpt lat="41.988004" lon="2.766022">
        <ele>95.151</ele>
        <time>2021-02-02T09:57:34Z</time>
      </trkpt>
      <trkpt lat="41.988028" lon="2.765884">
        <ele>95.852</ele>
        <time>2021-02-02T09:57:36Z</time>
      </trkpt>
      <trkpt lat="41.988036" lon="2.765812">
        <ele>95.827</ele>
        <time>2021-02-02T09:57:37Z</time>
      </trkpt>
      <trkpt lat="41.988058" lon="2.765669">
        <ele>95.912</ele>
        <time>2021-02-02T09:57:39Z</time>
      </trkpt>
      <trkpt lat="41.988085" lon="2.765529">
        <ele>95.991</ele>
        <time>2021-02-02T09:57:41Z</time>
      </trkpt>
      <trkpt lat="41.988113" lon="2.765392">
        <ele>96.262</ele>
        <time>2021-02-02T09:57:43Z</time>
      </trkpt>
      <trkpt lat="41.988133" lon="2.765253">
        <ele>96.283</ele>
        <time>2021-02-02T09:57:45Z</time>
      </trkpt>
      <trkpt lat="41.988138" lon="2.765182">
        <ele>96.411</ele>
        <time>2021-02-02T09:57:46Z</time>
      </trkpt>
      <trkpt lat="41.988144" lon="2.765117">
        <ele>96.108</ele>
        <time>2021-02-02T09:57:47Z</time>
      </trkpt>
      <trkpt lat="41.988156" lon="2.765010">
        <ele>96.222</ele>
        <time>2021-02-02T09:57:49Z</time>
      </trkpt>
      <trkpt lat="41.988164" lon="2.764948">
        <ele>96.341</ele>
        <time>2021-02-02T09:57:50Z</time>
      </trkpt>
      <trkpt lat="41.988184" lon="2.764803">
        <ele>96.436</ele>
        <time>2021-02-02T09:57:52Z</time>
      </trkpt>
      <trkpt lat="41.988195" lon="2.764732">
        <ele>96.548</ele>
        <time>2021-02-02T09:57:53Z</time>
      </trkpt>
      <trkpt lat="41.988220" lon="2.764576">
        <ele>96.519</ele>
        <time>2021-02-02T09:57:55Z</time>
      </trkpt>
      <trkpt lat="41.988236" lon="2.764488">
        <ele>96.774</ele>
        <time>2021-02-02T09:57:56Z</time>
      </trkpt>
      <trkpt lat="41.988247" lon="2.764409">
        <ele>96.739</ele>
        <time>2021-02-02T09:57:57Z</time>
      </trkpt>
      <trkpt lat="41.988261" lon="2.764264">
        <ele>96.898</ele>
        <time>2021-02-02T09:57:59Z</time>
      </trkpt>
      <trkpt lat="41.988269" lon="2.764193">
        <ele>96.876</ele>
        <time>2021-02-02T09:58:00Z</time>
      </trkpt>
      <trkpt lat="41.988279" lon="2.764121">
        <ele>96.990</ele>
        <time>2021-02-02T09:58:01Z</time>
      </trkpt>
      <trkpt lat="41.988288" lon="2.764049">
        <ele>97.419</ele>
        <time>2021-02-02T09:58:02Z</time>
      </trkpt>
      <trkpt lat="41.988304" lon="2.763913">
        <ele>97.308</ele>
        <time>2021-02-02T09:58:04Z</time>
      </trkpt>
      <trkpt lat="41.988313" lon="2.763844">
        <ele>97.263</ele>
        <time>2021-02-02T09:58:05Z</time>
      </trkpt>
      <trkpt lat="41.988334" lon="2.763706">
        <ele>97.252</ele>
        <time>2021-02-02T09:58:07Z</time>
      </trkpt>
      <trkpt lat="41.988344" lon="2.763637">
        <ele>97.587</ele>
        <time>2021-02-02T09:58:08Z</time>
      </trkpt>
      <trkpt lat="41.988366" lon="2.763498">
        <ele>97.389</ele>
        <time>2021-02-02T09:58:10Z</time>
      </trkpt>
      <trkpt lat="41.988375" lon="2.763428">
        <ele>97.420</ele>
        <time>2021-02-02T09:58:11Z</time>
      </trkpt>
      <trkpt lat="41.988390" lon="2.763288">
        <ele>97.645</ele>
        <time>2021-02-02T09:58:13Z</time>
      </trkpt>
      <trkpt lat="41.988409" lon="2.763147">
        <ele>97.640</ele>
        <time>2021-02-02T09:58:15Z</time>
      </trkpt>
      <trkpt lat="41.988428" lon="2.763008">
        <ele>97.819</ele>
        <time>2021-02-02T09:58:17Z</time>
      </trkpt>
      <trkpt lat="41.988439" lon="2.762937">
        <ele>98.135</ele>
        <time>2021-02-02T09:58:18Z</time>
      </trkpt>
      <trkpt lat="41.988450" lon="2.762867">
        <ele>97.986</ele>
        <time>2021-02-02T09:58:19Z</time>
      </trkpt>
      <trkpt lat="41.988480" lon="2.762732">
        <ele>98.114</ele>
        <time>2021-02-02T09:58:21Z</time>
      </trkpt>
      <trkpt lat="41.988496" lon="2.762666">
        <ele>98.208</ele>
        <time>2021-02-02T09:58:22Z</time>
      </trkpt>
      <trkpt lat="41.988544" lon="2.762540">
        <ele>98.149</ele>
        <time>2021-02-02T09:58:24Z</time>
      </trkpt>
      <trkpt lat="41.988570" lon="2.762476">
        <ele>98.048</ele>
        <time>2021-02-02T09:58:25Z</time>
      </trkpt>
      <trkpt lat="41.988617" lon="2.762347">
        <ele>98.463</ele>
        <time>2021-02-02T09:58:27Z</time>
      </trkpt>
      <trkpt lat="41.988639" lon="2.762281">
        <ele>98.445</ele>
        <time>2021-02-02T09:58:28Z</time>
      </trkpt>
      <trkpt lat="41.988662" lon="2.762216">
        <ele>98.316</ele>
        <time>2021-02-02T09:58:29Z</time>
      </trkpt>
      <trkpt lat="41.988686" lon="2.762152">
        <ele>98.171</ele>
        <time>2021-02-02T09:58:30Z</time>
      </trkpt>
      <trkpt lat="41.988710" lon="2.762087">
        <ele>98.266</ele>
        <time>2021-02-02T09:58:31Z</time>
      </trkpt>
      <trkpt lat="41.988751" lon="2.761955">
        <ele>98.395</ele>
        <time>2021-02-02T09:58:33Z</time>
      </trkpt>
      <trkpt lat="41.988764" lon="2.761886">
        <ele>98.377</ele>
        <time>2021-02-02T09:58:34Z</time>
      </trkpt>
      <trkpt lat="41.988774" lon="2.761748">
        <ele>98.461</ele>
        <time>2021-02-02T09:58:36Z</time>
      </trkpt>
      <trkpt lat="41.988763" lon="2.761619">
        <ele>98.727</ele>
        <time>2021-02-02T09:58:38Z</time>
      </trkpt>
      <trkpt lat="41.988760" lon="2.761557">
        <ele>98.708</ele>
        <time>2021-02-02T09:58:39Z</time>
      </trkpt>
      <trkpt lat="41.988758" lon="2.761422">
        <ele>98.923</ele>
        <time>2021-02-02T09:58:41Z</time>
      </trkpt>
      <trkpt lat="41.988761" lon="2.761280">
        <ele>98.932</ele>
        <time>2021-02-02T09:58:43Z</time>
      </trkpt>
      <trkpt lat="41.988764" lon="2.761210">
        <ele>99.067</ele>
        <time>2021-02-02T09:58:44Z</time>
      </trkpt>
      <trkpt lat="41.988773" lon="2.761072">
        <ele>99.149</ele>
        <time>2021-02-02T09:58:46Z</time>
      </trkpt>
      <trkpt lat="41.988785" lon="2.760936">
        <ele>99.390</ele>
        <time>2021-02-02T09:58:48Z</time>
      </trkpt>
      <trkpt lat="41.988797" lon="2.760804">
        <ele>99.685</ele>
        <time>2021-02-02T09:58:50Z</time>
      </trkpt>
      <trkpt lat="41.988801" lon="2.760737">
        <ele>99.820</ele>
        <time>2021-02-02T09:58:51Z</time>
      </trkpt>
      <trkpt lat="41.988807" lon="2.760606">
        <ele>99.839</ele>
        <time>2021-02-02T09:58:53Z</time>
      </trkpt>
      <trkpt lat="41.988809" lon="2.760539">
        <ele>99.961</ele>
        <time>2021-02-02T09:58:54Z</time>
      </trkpt>
      <trkpt lat="41.988810" lon="2.760469">
        <ele>99.821</ele>
        <time>2021-02-02T09:58:55Z</time>
      </trkpt>
      <trkpt lat="41.988811" lon="2.760399">
        <ele>99.813</ele>
        <time>2021-02-02T09:58:56Z</time>
      </trkpt>
      <trkpt lat="41.988809" lon="2.760260">
        <ele>100.008</ele>
        <time>2021-02-02T09:58:58Z</time>
      </trkpt>
      <trkpt lat="41.988811" lon="2.760187">
        <ele>100.172</ele>
        <time>2021-02-02T09:58:59Z</time>
      </trkpt>
      <trkpt lat="41.988818" lon="2.760044">
        <ele>100.131</ele>
        <time>2021-02-02T09:59:01Z</time>
      </trkpt>
      <trkpt lat="41.988822" lon="2.759974">
        <ele>100.376</ele>
        <time>2021-02-02T09:59:02Z</time>
      </trkpt>
      <trkpt lat="41.988828" lon="2.759834">
        <ele>100.578</ele>
        <time>2021-02-02T09:59:04Z</time>
      </trkpt>
      <trkpt lat="41.988832" lon="2.759763">
        <ele>100.619</ele>
        <time>2021-02-02T09:59:05Z</time>
      </trkpt>
      <trkpt lat="41.988835" lon="2.759627">
        <ele>100.974</ele>
        <time>2021-02-02T09:59:07Z</time>
      </trkpt>
      <trkpt lat="41.988836" lon="2.759558">
        <ele>100.949</ele>
        <time>2021-02-02T09:59:08Z</time>
      </trkpt>
      <trkpt lat="41.988835" lon="2.759492">
        <ele>101.088</ele>
        <time>2021-02-02T09:59:09Z</time>
      </trkpt>
      <trkpt lat="41.988824" lon="2.759430">
        <ele>101.234</ele>
        <time>2021-02-02T09:59:10Z</time>
      </trkpt>
      <trkpt lat="41.988752" lon="2.759344">
        <ele>101.655</ele>
        <time>2021-02-02T09:59:12Z</time>
      </trkpt>
      <trkpt lat="41.988654" lon="2.759320">
        <ele>100.910</ele>
        <time>2021-02-02T09:59:14Z</time>
      </trkpt>
      <trkpt lat="41.988600" lon="2.759315">
        <ele>100.908</ele>
        <time>2021-02-02T09:59:15Z</time>
      </trkpt>
      <trkpt lat="41.988489" lon="2.759309">
        <ele>100.959</ele>
        <time>2021-02-02T09:59:17Z</time>
      </trkpt>
      <trkpt lat="41.988376" lon="2.759301">
        <ele>100.898</ele>
        <time>2021-02-02T09:59:19Z</time>
      </trkpt>
      <trkpt lat="41.988265" lon="2.759291">
        <ele>100.773</ele>
        <time>2021-02-02T09:59:21Z</time>
      </trkpt>
      <trkpt lat="41.988206" lon="2.759285">
        <ele>100.825</ele>
        <time>2021-02-02T09:59:22Z</time>
      </trkpt>
      <trkpt lat="41.988093" lon="2.759271">
        <ele>100.736</ele>
        <time>2021-02-02T09:59:24Z</time>
      </trkpt>
      <trkpt lat="41.988035" lon="2.759267">
        <ele>100.511</ele>
        <time>2021-02-02T09:59:25Z</time>
      </trkpt>
      <trkpt lat="41.987918" lon="2.759255">
        <ele>100.616</ele>
        <time>2021-02-02T09:59:27Z</time>
      </trkpt>
      <trkpt lat="41.987860" lon="2.759249">
        <ele>100.425</ele>
        <time>2021-02-02T09:59:28Z</time>
      </trkpt>
      <trkpt lat="41.987746" lon="2.759234">
        <ele>100.128</ele>
        <time>2021-02-02T09:59:30Z</time>
      </trkpt>
      <trkpt lat="41.987687" lon="2.759231">
        <ele>100.289</ele>
        <time>2021-02-02T09:59:31Z</time>
      </trkpt>
      <trkpt lat="41.987572" lon="2.759222">
        <ele>99.917</ele>
        <time>2021-02-02T09:59:33Z</time>
      </trkpt>
      <trkpt lat="41.987463" lon="2.759210">
        <ele>100.108</ele>
        <time>2021-02-02T09:59:35Z</time>
      </trkpt>
      <trkpt lat="41.987463" lon="2.759210">
        <ele>100.128</ele>
        <time>2021-02-02T09:59:35Z</time>
      </trkpt>
      <trkpt lat="41.987405" lon="2.759202">
        <ele>100.057</ele>
        <time>2021-02-02T09:59:36Z</time>
      </trkpt>
      <trkpt lat="41.987283" lon="2.759193">
        <ele>99.852</ele>
        <time>2021-02-02T09:59:38Z</time>
      </trkpt>
      <trkpt lat="41.987161" lon="2.759216">
        <ele>99.844</ele>
        <time>2021-02-02T09:59:40Z</time>
      </trkpt>
      <trkpt lat="41.987099" lon="2.759248">
        <ele>99.335</ele>
        <time>2021-02-02T09:59:41Z</time>
      </trkpt>
      <trkpt lat="41.987040" lon="2.759296">
        <ele>99.120</ele>
        <time>2021-02-02T09:59:42Z</time>
      </trkpt>
      <trkpt lat="41.986927" lon="2.759431">
        <ele>97.955</ele>
        <time>2021-02-02T09:59:44Z</time>
      </trkpt>
      <trkpt lat="41.986787" lon="2.759557">
        <ele>96.784</ele>
        <time>2021-02-02T09:59:46Z</time>
      </trkpt>
      <trkpt lat="41.986703" lon="2.759607">
        <ele>95.963</ele>
        <time>2021-02-02T09:59:47Z</time>
      </trkpt>
      <trkpt lat="41.986612" lon="2.759623">
        <ele>95.244</ele>
        <time>2021-02-02T09:59:48Z</time>
      </trkpt>
      <trkpt lat="41.986520" lon="2.759619">
        <ele>94.718</ele>
        <time>2021-02-02T09:59:49Z</time>
      </trkpt>
      <trkpt lat="41.986428" lon="2.759596">
        <ele>94.708</ele>
        <time>2021-02-02T09:59:50Z</time>
      </trkpt>
      <trkpt lat="41.986257" lon="2.759531">
        <ele>94.112</ele>
        <time>2021-02-02T09:59:52Z</time>
      </trkpt>
      <trkpt lat="41.986175" lon="2.759494">
        <ele>94.351</ele>
        <time>2021-02-02T09:59:53Z</time>
      </trkpt>
      <trkpt lat="41.986012" lon="2.759421">
        <ele>93.916</ele>
        <time>2021-02-02T09:59:55Z</time>
      </trkpt>
      <trkpt lat="41.985932" lon="2.759387">
        <ele>93.838</ele>
        <time>2021-02-02T09:59:56Z</time>
      </trkpt>
      <trkpt lat="41.985852" lon="2.759356">
        <ele>93.879</ele>
        <time>2021-02-02T09:59:57Z</time>
      </trkpt>
      <trkpt lat="41.985772" lon="2.759324">
        <ele>93.684</ele>
        <time>2021-02-02T09:59:58Z</time>
      </trkpt>
      <trkpt lat="41.985613" lon="2.759266">
        <ele>93.569</ele>
        <time>2021-02-02T10:00:00Z</time>
      </trkpt>
      <trkpt lat="41.985532" lon="2.759238">
        <ele>93.528</ele>
        <time>2021-02-02T10:00:01Z</time>
      </trkpt>
      <trkpt lat="41.985379" lon="2.759191">
        <ele>92.955</ele>
        <time>2021-02-02T10:00:03Z</time>
      </trkpt>
      <trkpt lat="41.985304" lon="2.759168">
        <ele>93.107</ele>
        <time>2021-02-02T10:00:04Z</time>
      </trkpt>
      <trkpt lat="41.985157" lon="2.759131">
        <ele>93.217</ele>
        <time>2021-02-02T10:00:06Z</time>
      </trkpt>
      <trkpt lat="41.985014" lon="2.759104">
        <ele>92.908</ele>
        <time>2021-02-02T10:00:08Z</time>
      </trkpt>
      <trkpt lat="41.984943" lon="2.759093">
        <ele>92.941</ele>
        <time>2021-02-02T10:00:09Z</time>
      </trkpt>
      <trkpt lat="41.984813" lon="2.759076">
        <ele>92.560</ele>
        <time>2021-02-02T10:00:11Z</time>
      </trkpt>
      <trkpt lat="41.984748" lon="2.759071">
        <ele>92.865</ele>
        <time>2021-02-02T10:00:12Z</time>
      </trkpt>
      <trkpt lat="41.984645" lon="2.759068">
        <ele>92.757</ele>
        <time>2021-02-02T10:00:14Z</time>
      </trkpt>
      <trkpt lat="41.984587" lon="2.759050">
        <ele>91.748</ele>
        <time>2021-02-02T10:00:17Z</time>
      </trkpt>
      <trkpt lat="41.984543" lon="2.758999">
        <ele>91.953</ele>
        <time>2021-02-02T10:00:25Z</time>
      </trkpt>
      <trkpt lat="41.984498" lon="2.758935">
        <ele>92.078</ele>
        <time>2021-02-02T10:00:27Z</time>
      </trkpt>
      <trkpt lat="41.984450" lon="2.758863">
        <ele>92.127</ele>
        <time>2021-02-02T10:00:28Z</time>
      </trkpt>
      <trkpt lat="41.984395" lon="2.758784">
        <ele>92.425</ele>
        <time>2021-02-02T10:00:29Z</time>
      </trkpt>
      <trkpt lat="41.984359" lon="2.758719">
        <ele>92.026</ele>
        <time>2021-02-02T10:00:30Z</time>
      </trkpt>
      <trkpt lat="41.984325" lon="2.758655">
        <ele>92.308</ele>
        <time>2021-02-02T10:00:31Z</time>
      </trkpt>
      <trkpt lat="41.984272" lon="2.758548">
        <ele>92.208</ele>
        <time>2021-02-02T10:00:33Z</time>
      </trkpt>
      <trkpt lat="41.984264" lon="2.758404">
        <ele>92.388</ele>
        <time>2021-02-02T10:00:35Z</time>
      </trkpt>
      <trkpt lat="41.984296" lon="2.758259">
        <ele>92.477</ele>
        <time>2021-02-02T10:00:37Z</time>
      </trkpt>
      <trkpt lat="41.984315" lon="2.758185">
        <ele>92.122</ele>
        <time>2021-02-02T10:00:38Z</time>
      </trkpt>
      <trkpt lat="41.984339" lon="2.758105">
        <ele>92.384</ele>
        <time>2021-02-02T10:00:39Z</time>
      </trkpt>
      <trkpt lat="41.984384" lon="2.757945">
        <ele>92.595</ele>
        <time>2021-02-02T10:00:41Z</time>
      </trkpt>
      <trkpt lat="41.984419" lon="2.757786">
        <ele>92.680</ele>
        <time>2021-02-02T10:00:43Z</time>
      </trkpt>
      <trkpt lat="41.984432" lon="2.757708">
        <ele>92.515</ele>
        <time>2021-02-02T10:00:44Z</time>
      </trkpt>
      <trkpt lat="41.984450" lon="2.757558">
        <ele>92.764</ele>
        <time>2021-02-02T10:00:46Z</time>
      </trkpt>
      <trkpt lat="41.984461" lon="2.757483">
        <ele>92.627</ele>
        <time>2021-02-02T10:00:47Z</time>
      </trkpt>
      <trkpt lat="41.984477" lon="2.757411">
        <ele>92.768</ele>
        <time>2021-02-02T10:00:48Z</time>
      </trkpt>
      <trkpt lat="41.984518" lon="2.757279">
        <ele>93.014</ele>
        <time>2021-02-02T10:00:50Z</time>
      </trkpt>
      <trkpt lat="41.984537" lon="2.757213">
        <ele>93.108</ele>
        <time>2021-02-02T10:00:51Z</time>
      </trkpt>
      <trkpt lat="41.984578" lon="2.757070">
        <ele>92.878</ele>
        <time>2021-02-02T10:00:53Z</time>
      </trkpt>
      <trkpt lat="41.984615" lon="2.756928">
        <ele>93.037</ele>
        <time>2021-02-02T10:00:55Z</time>
      </trkpt>
      <trkpt lat="41.984632" lon="2.756852">
        <ele>93.232</ele>
        <time>2021-02-02T10:00:56Z</time>
      </trkpt>
      <trkpt lat="41.984661" lon="2.756715">
        <ele>93.254</ele>
        <time>2021-02-02T10:00:58Z</time>
      </trkpt>
      <trkpt lat="41.984674" lon="2.756649">
        <ele>93.265</ele>
        <time>2021-02-02T10:00:59Z</time>
      </trkpt>
      <trkpt lat="41.984702" lon="2.756518">
        <ele>93.640</ele>
        <time>2021-02-02T10:01:01Z</time>
      </trkpt>
      <trkpt lat="41.984756" lon="2.756402">
        <ele>93.775</ele>
        <time>2021-02-02T10:01:03Z</time>
      </trkpt>
      <trkpt lat="41.984827" lon="2.756311">
        <ele>93.714</ele>
        <time>2021-02-02T10:01:05Z</time>
      </trkpt>
      <trkpt lat="41.984860" lon="2.756256">
        <ele>93.969</ele>
        <time>2021-02-02T10:01:06Z</time>
      </trkpt>
      <trkpt lat="41.984894" lon="2.756200">
        <ele>93.804</ele>
        <time>2021-02-02T10:01:07Z</time>
      </trkpt>
      <trkpt lat="41.984969" lon="2.756096">
        <ele>94.024</ele>
        <time>2021-02-02T10:01:09Z</time>
      </trkpt>
      <trkpt lat="41.985045" lon="2.755996">
        <ele>94.008</ele>
        <time>2021-02-02T10:01:11Z</time>
      </trkpt>
      <trkpt lat="41.985115" lon="2.755900">
        <ele>94.442</ele>
        <time>2021-02-02T10:01:13Z</time>
      </trkpt>
      <trkpt lat="41.985183" lon="2.755800">
        <ele>94.281</ele>
        <time>2021-02-02T10:01:15Z</time>
      </trkpt>
      <trkpt lat="41.985249" lon="2.755687">
        <ele>94.546</ele>
        <time>2021-02-02T10:01:17Z</time>
      </trkpt>
      <trkpt lat="41.985278" lon="2.755622">
        <ele>94.528</ele>
        <time>2021-02-02T10:01:18Z</time>
      </trkpt>
      <trkpt lat="41.985333" lon="2.755487">
        <ele>94.049</ele>
        <time>2021-02-02T10:01:20Z</time>
      </trkpt>
      <trkpt lat="41.985363" lon="2.755415">
        <ele>93.684</ele>
        <time>2021-02-02T10:01:21Z</time>
      </trkpt>
      <trkpt lat="41.985429" lon="2.755276">
        <ele>93.379</ele>
        <time>2021-02-02T10:01:23Z</time>
      </trkpt>
      <trkpt lat="41.985509" lon="2.755149">
        <ele>93.328</ele>
        <time>2021-02-02T10:01:25Z</time>
      </trkpt>
      <trkpt lat="41.985596" lon="2.755043">
        <ele>93.533</ele>
        <time>2021-02-02T10:01:27Z</time>
      </trkpt>
      <trkpt lat="41.985637" lon="2.754990">
        <ele>93.523</ele>
        <time>2021-02-02T10:01:28Z</time>
      </trkpt>
      <trkpt lat="41.985717" lon="2.754888">
        <ele>93.615</ele>
        <time>2021-02-02T10:01:30Z</time>
      </trkpt>
      <trkpt lat="41.985758" lon="2.754838">
        <ele>93.508</ele>
        <time>2021-02-02T10:01:31Z</time>
      </trkpt>
      <trkpt lat="41.985843" lon="2.754734">
        <ele>93.419</ele>
        <time>2021-02-02T10:01:33Z</time>
      </trkpt>
      <trkpt lat="41.985933" lon="2.754622">
        <ele>93.798</ele>
        <time>2021-02-02T10:01:35Z</time>
      </trkpt>
      <trkpt lat="41.985977" lon="2.754564">
        <ele>93.773</ele>
        <time>2021-02-02T10:01:36Z</time>
      </trkpt>
      <trkpt lat="41.986017" lon="2.754510">
        <ele>93.765</ele>
        <time>2021-02-02T10:01:37Z</time>
      </trkpt>
      <trkpt lat="41.986056" lon="2.754455">
        <ele>93.786</ele>
        <time>2021-02-02T10:01:38Z</time>
      </trkpt>
      <trkpt lat="41.986134" lon="2.754333">
        <ele>93.821</ele>
        <time>2021-02-02T10:01:40Z</time>
      </trkpt>
      <trkpt lat="41.986169" lon="2.754269">
        <ele>94.156</ele>
        <time>2021-02-02T10:01:41Z</time>
      </trkpt>
      <trkpt lat="41.986244" lon="2.754153">
        <ele>94.055</ele>
        <time>2021-02-02T10:01:43Z</time>
      </trkpt>
      <trkpt lat="41.986311" lon="2.754061">
        <ele>94.367</ele>
        <time>2021-02-02T10:01:45Z</time>
      </trkpt>
      <trkpt lat="41.986364" lon="2.754076">
        <ele>93.881</ele>
        <time>2021-02-02T10:04:19Z</time>
      </trkpt>
      <trkpt lat="41.986419" lon="2.754139">
        <ele>94.519</ele>
        <time>2021-02-02T10:04:22Z</time>
      </trkpt>
      <trkpt lat="41.986407" lon="2.754080">
        <ele>93.908</ele>
        <time>2021-02-02T10:05:28Z</time>
      </trkpt>
      <trkpt lat="41.986403" lon="2.754014">
        <ele>93.752</ele>
        <time>2021-02-02T10:05:31Z</time>
      </trkpt>
      <trkpt lat="41.986434" lon="2.753958">
        <ele>93.891</ele>
        <time>2021-02-02T10:05:39Z</time>
      </trkpt>
      <trkpt lat="41.986487" lon="2.753902">
        <ele>94.096</ele>
        <time>2021-02-02T10:05:41Z</time>
      </trkpt>
      <trkpt lat="41.986542" lon="2.753846">
        <ele>94.138</ele>
        <time>2021-02-02T10:05:43Z</time>
      </trkpt>
      <trkpt lat="41.986582" lon="2.753807">
        <ele>94.279</ele>
        <time>2021-02-02T10:05:44Z</time>
      </trkpt>
      <trkpt lat="41.986618" lon="2.753764">
        <ele>94.784</ele>
        <time>2021-02-02T10:05:45Z</time>
      </trkpt>
      <trkpt lat="41.986650" lon="2.753718">
        <ele>94.879</ele>
        <time>2021-02-02T10:05:47Z</time>
      </trkpt>
      <trkpt lat="41.986703" lon="2.753649">
        <ele>94.658</ele>
        <time>2021-02-02T10:05:48Z</time>
      </trkpt>
      <trkpt lat="41.986792" lon="2.753555">
        <ele>94.627</ele>
        <time>2021-02-02T10:05:50Z</time>
      </trkpt>
      <trkpt lat="41.986836" lon="2.753522">
        <ele>94.668</ele>
        <time>2021-02-02T10:05:51Z</time>
      </trkpt>
      <trkpt lat="41.986880" lon="2.753487">
        <ele>94.814</ele>
        <time>2021-02-02T10:05:52Z</time>
      </trkpt>
      <trkpt lat="41.986966" lon="2.753406">
        <ele>94.808</ele>
        <time>2021-02-02T10:05:54Z</time>
      </trkpt>
      <trkpt lat="41.987049" lon="2.753321">
        <ele>94.988</ele>
        <time>2021-02-02T10:05:56Z</time>
      </trkpt>
      <trkpt lat="41.987090" lon="2.753276">
        <ele>94.947</ele>
        <time>2021-02-02T10:05:57Z</time>
      </trkpt>
      <trkpt lat="41.987131" lon="2.753231">
        <ele>94.962</ele>
        <time>2021-02-02T10:05:58Z</time>
      </trkpt>
      <trkpt lat="41.987216" lon="2.753145">
        <ele>94.954</ele>
        <time>2021-02-02T10:06:00Z</time>
      </trkpt>
      <trkpt lat="41.987260" lon="2.753105">
        <ele>94.985</ele>
        <time>2021-02-02T10:06:01Z</time>
      </trkpt>
      <trkpt lat="41.987345" lon="2.753026">
        <ele>95.210</ele>
        <time>2021-02-02T10:06:03Z</time>
      </trkpt>
      <trkpt lat="41.987424" lon="2.752942">
        <ele>95.125</ele>
        <time>2021-02-02T10:06:05Z</time>
      </trkpt>
      <trkpt lat="41.987464" lon="2.752903">
        <ele>95.014</ele>
        <time>2021-02-02T10:06:06Z</time>
      </trkpt>
      <trkpt lat="41.987544" lon="2.752831">
        <ele>95.392</ele>
        <time>2021-02-02T10:06:08Z</time>
      </trkpt>
      <trkpt lat="41.987608" lon="2.752778">
        <ele>95.773</ele>
        <time>2021-02-02T10:06:10Z</time>
      </trkpt>
      <trkpt lat="41.987657" lon="2.752730">
        <ele>95.720</ele>
        <time>2021-02-02T10:06:12Z</time>
      </trkpt>
      <trkpt lat="41.987696" lon="2.752692">
        <ele>96.408</ele>
        <time>2021-02-02T10:06:14Z</time>
      </trkpt>
      <trkpt lat="41.987732" lon="2.752643">
        <ele>95.615</ele>
        <time>2021-02-02T10:06:17Z</time>
      </trkpt>
      <trkpt lat="41.987682" lon="2.752676">
        <ele>96.044</ele>
        <time>2021-02-02T10:06:21Z</time>
      </trkpt>
      <trkpt lat="41.987636" lon="2.752697">
        <ele>95.429</ele>
        <time>2021-02-02T10:06:23Z</time>
      </trkpt>
      <trkpt lat="41.987587" lon="2.752728">
        <ele>95.371</ele>
        <time>2021-02-02T10:06:24Z</time>
      </trkpt>
      <trkpt lat="41.987543" lon="2.752753">
        <ele>95.162</ele>
        <time>2021-02-02T10:06:25Z</time>
      </trkpt>
      <trkpt lat="41.987500" lon="2.752777">
        <ele>94.067</ele>
        <time>2021-02-02T10:06:27Z</time>
      </trkpt>
      <trkpt lat="41.987461" lon="2.752743">
        <ele>94.462</ele>
        <time>2021-02-02T10:06:33Z</time>
      </trkpt>
      <trkpt lat="41.987428" lon="2.752698">
        <ele>93.841</ele>
        <time>2021-02-02T10:06:40Z</time>
      </trkpt>
      <trkpt lat="41.987462" lon="2.752740">
        <ele>94.568</ele>
        <time>2021-02-02T10:07:37Z</time>
      </trkpt>
      <trkpt lat="41.987517" lon="2.752738">
        <ele>95.242</ele>
        <time>2021-02-02T10:07:41Z</time>
      </trkpt>
      <trkpt lat="41.987577" lon="2.752733">
        <ele>95.426</ele>
        <time>2021-02-02T10:07:55Z</time>
      </trkpt>
      <trkpt lat="41.987629" lon="2.752698">
        <ele>95.708</ele>
        <time>2021-02-02T10:07:58Z</time>
      </trkpt>
      <trkpt lat="41.987671" lon="2.752662">
        <ele>96.052</ele>
        <time>2021-02-02T10:08:00Z</time>
      </trkpt>
      <trkpt lat="41.987713" lon="2.752628">
        <ele>96.171</ele>
        <time>2021-02-02T10:08:02Z</time>
      </trkpt>
      <trkpt lat="41.987769" lon="2.752567">
        <ele>96.426</ele>
        <time>2021-02-02T10:08:04Z</time>
      </trkpt>
      <trkpt lat="41.987816" lon="2.752502">
        <ele>96.648</ele>
        <time>2021-02-02T10:08:06Z</time>
      </trkpt>
      <trkpt lat="41.987847" lon="2.752455">
        <ele>96.879</ele>
        <time>2021-02-02T10:08:07Z</time>
      </trkpt>
      <trkpt lat="41.987899" lon="2.752381">
        <ele>96.824</ele>
        <time>2021-02-02T10:08:09Z</time>
      </trkpt>
      <trkpt lat="41.987961" lon="2.752289">
        <ele>96.889</ele>
        <time>2021-02-02T10:08:11Z</time>
      </trkpt>
      <trkpt lat="41.987991" lon="2.752238">
        <ele>97.058</ele>
        <time>2021-02-02T10:08:12Z</time>
      </trkpt>
      <trkpt lat="41.988023" lon="2.752184">
        <ele>96.751</ele>
        <time>2021-02-02T10:08:13Z</time>
      </trkpt>
      <trkpt lat="41.988090" lon="2.752088">
        <ele>96.901</ele>
        <time>2021-02-02T10:08:15Z</time>
      </trkpt>
      <trkpt lat="41.988123" lon="2.752041">
        <ele>96.911</ele>
        <time>2021-02-02T10:08:16Z</time>
      </trkpt>
      <trkpt lat="41.988155" lon="2.751994">
        <ele>96.708</ele>
        <time>2021-02-02T10:08:17Z</time>
      </trkpt>
      <trkpt lat="41.988223" lon="2.751896">
        <ele>96.861</ele>
        <time>2021-02-02T10:08:19Z</time>
      </trkpt>
      <trkpt lat="41.988257" lon="2.751846">
        <ele>96.790</ele>
        <time>2021-02-02T10:08:20Z</time>
      </trkpt>
      <trkpt lat="41.988320" lon="2.751747">
        <ele>96.615</ele>
        <time>2021-02-02T10:08:22Z</time>
      </trkpt>
      <trkpt lat="41.988350" lon="2.751697">
        <ele>96.917</ele>
        <time>2021-02-02T10:08:23Z</time>
      </trkpt>
      <trkpt lat="41.988411" lon="2.751586">
        <ele>96.738</ele>
        <time>2021-02-02T10:08:25Z</time>
      </trkpt>
      <trkpt lat="41.988476" lon="2.751468">
        <ele>97.133</ele>
        <time>2021-02-02T10:08:27Z</time>
      </trkpt>
      <trkpt lat="41.988547" lon="2.751349">
        <ele>96.958</ele>
        <time>2021-02-02T10:08:29Z</time>
      </trkpt>
      <trkpt lat="41.988580" lon="2.751292">
        <ele>97.037</ele>
        <time>2021-02-02T10:08:30Z</time>
      </trkpt>
      <trkpt lat="41.988646" lon="2.751175">
        <ele>97.218</ele>
        <time>2021-02-02T10:08:32Z</time>
      </trkpt>
      <trkpt lat="41.988707" lon="2.751051">
        <ele>97.198</ele>
        <time>2021-02-02T10:08:34Z</time>
      </trkpt>
      <trkpt lat="41.988770" lon="2.750916">
        <ele>97.117</ele>
        <time>2021-02-02T10:08:36Z</time>
      </trkpt>
      <trkpt lat="41.988831" lon="2.750783">
        <ele>96.908</ele>
        <time>2021-02-02T10:08:38Z</time>
      </trkpt>
      <trkpt lat="41.988887" lon="2.750649">
        <ele>97.357</ele>
        <time>2021-02-02T10:08:40Z</time>
      </trkpt>
      <trkpt lat="41.988916" lon="2.750580">
        <ele>97.156</ele>
        <time>2021-02-02T10:08:41Z</time>
      </trkpt>
      <trkpt lat="41.988946" lon="2.750514">
        <ele>97.051</ele>
        <time>2021-02-02T10:08:42Z</time>
      </trkpt>
      <trkpt lat="41.989004" lon="2.750389">
        <ele>97.543</ele>
        <time>2021-02-02T10:08:44Z</time>
      </trkpt>
      <trkpt lat="41.989061" lon="2.750264">
        <ele>97.424</ele>
        <time>2021-02-02T10:08:46Z</time>
      </trkpt>
      <trkpt lat="41.989089" lon="2.750199">
        <ele>97.459</ele>
        <time>2021-02-02T10:08:47Z</time>
      </trkpt>
      <trkpt lat="41.989136" lon="2.750053">
        <ele>97.484</ele>
        <time>2021-02-02T10:08:49Z</time>
      </trkpt>
      <trkpt lat="41.989159" lon="2.749980">
        <ele>97.493</ele>
        <time>2021-02-02T10:08:50Z</time>
      </trkpt>
      <trkpt lat="41.989206" lon="2.749851">
        <ele>97.463</ele>
        <time>2021-02-02T10:08:52Z</time>
      </trkpt>
      <trkpt lat="41.989231" lon="2.749786">
        <ele>97.644</ele>
        <time>2021-02-02T10:08:53Z</time>
      </trkpt>
      <trkpt lat="41.989252" lon="2.749722">
        <ele>97.618</ele>
        <time>2021-02-02T10:08:54Z</time>
      </trkpt>
      <trkpt lat="41.989290" lon="2.749598">
        <ele>98.008</ele>
        <time>2021-02-02T10:08:56Z</time>
      </trkpt>
      <trkpt lat="41.989308" lon="2.749532">
        <ele>97.812</ele>
        <time>2021-02-02T10:08:57Z</time>
      </trkpt>
      <trkpt lat="41.989326" lon="2.749469">
        <ele>97.891</ele>
        <time>2021-02-02T10:08:58Z</time>
      </trkpt>
      <trkpt lat="41.989367" lon="2.749344">
        <ele>98.136</ele>
        <time>2021-02-02T10:09:00Z</time>
      </trkpt>
      <trkpt lat="41.989430" lon="2.749228">
        <ele>98.548</ele>
        <time>2021-02-02T10:09:02Z</time>
      </trkpt>
      <trkpt lat="41.989465" lon="2.749172">
        <ele>98.549</ele>
        <time>2021-02-02T10:09:03Z</time>
      </trkpt>
      <trkpt lat="41.989498" lon="2.749117">
        <ele>98.884</ele>
        <time>2021-02-02T10:09:04Z</time>
      </trkpt>
      <trkpt lat="41.989527" lon="2.749063">
        <ele>98.949</ele>
        <time>2021-02-02T10:09:05Z</time>
      </trkpt>
      <trkpt lat="41.989580" lon="2.748950">
        <ele>98.788</ele>
        <time>2021-02-02T10:09:07Z</time>
      </trkpt>
      <trkpt lat="41.989601" lon="2.748887">
        <ele>98.885</ele>
        <time>2021-02-02T10:09:08Z</time>
      </trkpt>
      <trkpt lat="41.989618" lon="2.748821">
        <ele>99.189</ele>
        <time>2021-02-02T10:09:09Z</time>
      </trkpt>
      <trkpt lat="41.989650" lon="2.748691">
        <ele>99.017</ele>
        <time>2021-02-02T10:09:11Z</time>
      </trkpt>
      <trkpt lat="41.989674" lon="2.748628">
        <ele>99.308</ele>
        <time>2021-02-02T10:09:12Z</time>
      </trkpt>
      <trkpt lat="41.989745" lon="2.748521">
        <ele>99.124</ele>
        <time>2021-02-02T10:09:14Z</time>
      </trkpt>
      <trkpt lat="41.989835" lon="2.748425">
        <ele>99.233</ele>
        <time>2021-02-02T10:09:16Z</time>
      </trkpt>
      <trkpt lat="41.989925" lon="2.748342">
        <ele>99.358</ele>
        <time>2021-02-02T10:09:18Z</time>
      </trkpt>
      <trkpt lat="41.989970" lon="2.748302">
        <ele>99.120</ele>
        <time>2021-02-02T10:09:19Z</time>
      </trkpt>
      <trkpt lat="41.990044" lon="2.748209">
        <ele>99.131</ele>
        <time>2021-02-02T10:09:21Z</time>
      </trkpt>
      <trkpt lat="41.990080" lon="2.748163">
        <ele>99.186</ele>
        <time>2021-02-02T10:09:22Z</time>
      </trkpt>
      <trkpt lat="41.990156" lon="2.748069">
        <ele>99.281</ele>
        <time>2021-02-02T10:09:24Z</time>
      </trkpt>
      <trkpt lat="41.990195" lon="2.748015">
        <ele>99.230</ele>
        <time>2021-02-02T10:09:25Z</time>
      </trkpt>
      <trkpt lat="41.990274" lon="2.747894">
        <ele>99.555</ele>
        <time>2021-02-02T10:09:27Z</time>
      </trkpt>
      <trkpt lat="41.990311" lon="2.747834">
        <ele>99.407</ele>
        <time>2021-02-02T10:09:28Z</time>
      </trkpt>
      <trkpt lat="41.990371" lon="2.747711">
        <ele>99.617</ele>
        <time>2021-02-02T10:09:30Z</time>
      </trkpt>
      <trkpt lat="41.990390" lon="2.747644">
        <ele>99.608</ele>
        <time>2021-02-02T10:09:31Z</time>
      </trkpt>
      <trkpt lat="41.990434" lon="2.747513">
        <ele>99.981</ele>
        <time>2021-02-02T10:09:33Z</time>
      </trkpt>
      <trkpt lat="41.990477" lon="2.747388">
        <ele>100.170</ele>
        <time>2021-02-02T10:09:35Z</time>
      </trkpt>
      <trkpt lat="41.990496" lon="2.747324">
        <ele>99.965</ele>
        <time>2021-02-02T10:09:36Z</time>
      </trkpt>
      <trkpt lat="41.990533" lon="2.747199">
        <ele>100.397</ele>
        <time>2021-02-02T10:09:38Z</time>
      </trkpt>
      <trkpt lat="41.990575" lon="2.747066">
        <ele>100.248</ele>
        <time>2021-02-02T10:09:40Z</time>
      </trkpt>
      <trkpt lat="41.990622" lon="2.746939">
        <ele>100.363</ele>
        <time>2021-02-02T10:09:42Z</time>
      </trkpt>
      <trkpt lat="41.990695" lon="2.746831">
        <ele>100.648</ele>
        <time>2021-02-02T10:09:44Z</time>
      </trkpt>
      <trkpt lat="41.990776" lon="2.746726">
        <ele>100.657</ele>
        <time>2021-02-02T10:09:46Z</time>
      </trkpt>
      <trkpt lat="41.990814" lon="2.746670">
        <ele>100.745</ele>
        <time>2021-02-02T10:09:47Z</time>
      </trkpt>
      <trkpt lat="41.990845" lon="2.746615">
        <ele>100.747</ele>
        <time>2021-02-02T10:09:48Z</time>
      </trkpt>
      <trkpt lat="41.990876" lon="2.746557">
        <ele>100.911</ele>
        <time>2021-02-02T10:09:49Z</time>
      </trkpt>
      <trkpt lat="41.990935" lon="2.746442">
        <ele>100.708</ele>
        <time>2021-02-02T10:09:51Z</time>
      </trkpt>
      <trkpt lat="41.990966" lon="2.746381">
        <ele>100.810</ele>
        <time>2021-02-02T10:09:52Z</time>
      </trkpt>
      <trkpt lat="41.991027" lon="2.746261">
        <ele>101.159</ele>
        <time>2021-02-02T10:09:54Z</time>
      </trkpt>
      <trkpt lat="41.991062" lon="2.746199">
        <ele>101.054</ele>
        <time>2021-02-02T10:09:55Z</time>
      </trkpt>
      <trkpt lat="41.991095" lon="2.746136">
        <ele>101.196</ele>
        <time>2021-02-02T10:09:56Z</time>
      </trkpt>
      <trkpt lat="41.991159" lon="2.746016">
        <ele>101.347</ele>
        <time>2021-02-02T10:09:58Z</time>
      </trkpt>
      <trkpt lat="41.991189" lon="2.745957">
        <ele>101.182</ele>
        <time>2021-02-02T10:09:59Z</time>
      </trkpt>
      <trkpt lat="41.991248" lon="2.745835">
        <ele>101.287</ele>
        <time>2021-02-02T10:10:01Z</time>
      </trkpt>
      <trkpt lat="41.991309" lon="2.745709">
        <ele>101.296</ele>
        <time>2021-02-02T10:10:03Z</time>
      </trkpt>
      <trkpt lat="41.991371" lon="2.745590">
        <ele>101.179</ele>
        <time>2021-02-02T10:10:05Z</time>
      </trkpt>
      <trkpt lat="41.991454" lon="2.745491">
        <ele>101.405</ele>
        <time>2021-02-02T10:10:07Z</time>
      </trkpt>
      <trkpt lat="41.991494" lon="2.745453">
        <ele>101.725</ele>
        <time>2021-02-02T10:10:08Z</time>
      </trkpt>
      <trkpt lat="41.991533" lon="2.745418">
        <ele>101.808</ele>
        <time>2021-02-02T10:10:09Z</time>
      </trkpt>
      <trkpt lat="41.991573" lon="2.745385">
        <ele>101.493</ele>
        <time>2021-02-02T10:10:10Z</time>
      </trkpt>
      <trkpt lat="41.991665" lon="2.745308">
        <ele>101.412</ele>
        <time>2021-02-02T10:10:12Z</time>
      </trkpt>
      <trkpt lat="41.991753" lon="2.745216">
        <ele>101.587</ele>
        <time>2021-02-02T10:10:14Z</time>
      </trkpt>
      <trkpt lat="41.991826" lon="2.745128">
        <ele>101.999</ele>
        <time>2021-02-02T10:10:16Z</time>
      </trkpt>
      <trkpt lat="41.991899" lon="2.745058">
        <ele>101.860</ele>
        <time>2021-02-02T10:10:18Z</time>
      </trkpt>
      <trkpt lat="41.991986" lon="2.744985">
        <ele>101.875</ele>
        <time>2021-02-02T10:10:20Z</time>
      </trkpt>
      <trkpt lat="41.992074" lon="2.744909">
        <ele>101.990</ele>
        <time>2021-02-02T10:10:22Z</time>
      </trkpt>
      <trkpt lat="41.992145" lon="2.744828">
        <ele>102.099</ele>
        <time>2021-02-02T10:10:24Z</time>
      </trkpt>
      <trkpt lat="41.992172" lon="2.744763">
        <ele>102.127</ele>
        <time>2021-02-02T10:10:26Z</time>
      </trkpt>
      <trkpt lat="41.992181" lon="2.744682">
        <ele>102.968</ele>
        <time>2021-02-02T10:10:41Z</time>
      </trkpt>
      <trkpt lat="41.992206" lon="2.744629">
        <ele>103.114</ele>
        <time>2021-02-02T10:10:45Z</time>
      </trkpt>
      <trkpt lat="41.992224" lon="2.744567">
        <ele>103.808</ele>
        <time>2021-02-02T10:10:50Z</time>
      </trkpt>
      <trkpt lat="41.992206" lon="2.744474">
        <ele>103.928</ele>
        <time>2021-02-02T10:10:52Z</time>
      </trkpt>
      <trkpt lat="41.992188" lon="2.744392">
        <ele>103.927</ele>
        <time>2021-02-02T10:10:54Z</time>
      </trkpt>
      <trkpt lat="41.992179" lon="2.744321">
        <ele>103.952</ele>
        <time>2021-02-02T10:10:55Z</time>
      </trkpt>
      <trkpt lat="41.992171" lon="2.744244">
        <ele>103.714</ele>
        <time>2021-02-02T10:10:56Z</time>
      </trkpt>
      <trkpt lat="41.992159" lon="2.744184">
        <ele>103.785</ele>
        <time>2021-02-02T10:10:57Z</time>
      </trkpt>
      <trkpt lat="41.992136" lon="2.744105">
        <ele>103.750</ele>
        <time>2021-02-02T10:10:58Z</time>
      </trkpt>
      <trkpt lat="41.992105" lon="2.743972">
        <ele>103.485</ele>
        <time>2021-02-02T10:11:00Z</time>
      </trkpt>
      <trkpt lat="41.992078" lon="2.743847">
        <ele>103.494</ele>
        <time>2021-02-02T10:11:02Z</time>
      </trkpt>
      <trkpt lat="41.992075" lon="2.743772">
        <ele>102.283</ele>
        <time>2021-02-02T10:11:04Z</time>
      </trkpt>
      <trkpt lat="41.992155" lon="2.743719">
        <ele>101.925</ele>
        <time>2021-02-02T10:11:05Z</time>
      </trkpt>
      <trkpt lat="41.992263" lon="2.743678">
        <ele>101.717</ele>
        <time>2021-02-02T10:11:07Z</time>
      </trkpt>
      <trkpt lat="41.992314" lon="2.743675">
        <ele>101.808</ele>
        <time>2021-02-02T10:11:08Z</time>
      </trkpt>
      <trkpt lat="41.992367" lon="2.743687">
        <ele>101.644</ele>
        <time>2021-02-02T10:11:10Z</time>
      </trkpt>
      <trkpt lat="41.992428" lon="2.743695">
        <ele>102.263</ele>
        <time>2021-02-02T10:11:11Z</time>
      </trkpt>
      <trkpt lat="41.992500" lon="2.743703">
        <ele>102.288</ele>
        <time>2021-02-02T10:11:13Z</time>
      </trkpt>
      <trkpt lat="41.992546" lon="2.743710">
        <ele>102.180</ele>
        <time>2021-02-02T10:11:14Z</time>
      </trkpt>
      <trkpt lat="41.992595" lon="2.743717">
        <ele>102.261</ele>
        <time>2021-02-02T10:11:16Z</time>
      </trkpt>
      <trkpt lat="41.992640" lon="2.743722">
        <ele>102.426</ele>
        <time>2021-02-02T10:11:17Z</time>
      </trkpt>
      <trkpt lat="41.992731" lon="2.743734">
        <ele>102.361</ele>
        <time>2021-02-02T10:11:18Z</time>
      </trkpt>
      <trkpt lat="41.992788" lon="2.743738">
        <ele>102.290</ele>
        <time>2021-02-02T10:11:19Z</time>
      </trkpt>
      <trkpt lat="41.992845" lon="2.743737">
        <ele>102.169</ele>
        <time>2021-02-02T10:11:20Z</time>
      </trkpt>
      <trkpt lat="41.992957" lon="2.743707">
        <ele>102.504</ele>
        <time>2021-02-02T10:11:22Z</time>
      </trkpt>
      <trkpt lat="41.993019" lon="2.743684">
        <ele>102.124</ele>
        <time>2021-02-02T10:11:23Z</time>
      </trkpt>
      <trkpt lat="41.993139" lon="2.743594">
        <ele>102.808</ele>
        <time>2021-02-02T10:11:25Z</time>
      </trkpt>
      <trkpt lat="41.993243" lon="2.743481">
        <ele>102.532</ele>
        <time>2021-02-02T10:11:27Z</time>
      </trkpt>
      <trkpt lat="41.993294" lon="2.743427">
        <ele>102.611</ele>
        <time>2021-02-02T10:11:28Z</time>
      </trkpt>
      <trkpt lat="41.993393" lon="2.743320">
        <ele>102.856</ele>
        <time>2021-02-02T10:11:30Z</time>
      </trkpt>
      <trkpt lat="41.993442" lon="2.743266">
        <ele>102.728</ele>
        <time>2021-02-02T10:11:31Z</time>
      </trkpt>
      <trkpt lat="41.993538" lon="2.743163">
        <ele>103.079</ele>
        <time>2021-02-02T10:11:33Z</time>
      </trkpt>
      <trkpt lat="41.993585" lon="2.743111">
        <ele>103.184</ele>
        <time>2021-02-02T10:11:34Z</time>
      </trkpt>
      <trkpt lat="41.993675" lon="2.743003">
        <ele>102.879</ele>
        <time>2021-02-02T10:11:36Z</time>
      </trkpt>
      <trkpt lat="41.993721" lon="2.742951">
        <ele>103.288</ele>
        <time>2021-02-02T10:11:37Z</time>
      </trkpt>
      <trkpt lat="41.993767" lon="2.742904">
        <ele>103.536</ele>
        <time>2021-02-02T10:11:38Z</time>
      </trkpt>
      <trkpt lat="41.993859" lon="2.742820">
        <ele>103.517</ele>
        <time>2021-02-02T10:11:40Z</time>
      </trkpt>
      <trkpt lat="41.993904" lon="2.742775">
        <ele>103.718</ele>
        <time>2021-02-02T10:11:41Z</time>
      </trkpt>
      <trkpt lat="41.993991" lon="2.742679">
        <ele>103.808</ele>
        <time>2021-02-02T10:11:43Z</time>
      </trkpt>
      <trkpt lat="41.994079" lon="2.742585">
        <ele>104.119</ele>
        <time>2021-02-02T10:11:45Z</time>
      </trkpt>
      <trkpt lat="41.994164" lon="2.742492">
        <ele>104.088</ele>
        <time>2021-02-02T10:11:47Z</time>
      </trkpt>
      <trkpt lat="41.994207" lon="2.742447">
        <ele>104.113</ele>
        <time>2021-02-02T10:11:48Z</time>
      </trkpt>
      <trkpt lat="41.994251" lon="2.742403">
        <ele>104.125</ele>
        <time>2021-02-02T10:11:49Z</time>
      </trkpt>
      <trkpt lat="41.994333" lon="2.742317">
        <ele>104.096</ele>
        <time>2021-02-02T10:11:51Z</time>
      </trkpt>
      <trkpt lat="41.994421" lon="2.742218">
        <ele>104.061</ele>
        <time>2021-02-02T10:11:53Z</time>
      </trkpt>
      <trkpt lat="41.994511" lon="2.742122">
        <ele>104.326</ele>
        <time>2021-02-02T10:11:55Z</time>
      </trkpt>
      <trkpt lat="41.994603" lon="2.742029">
        <ele>104.385</ele>
        <time>2021-02-02T10:11:57Z</time>
      </trkpt>
      <trkpt lat="41.994692" lon="2.741939">
        <ele>104.697</ele>
        <time>2021-02-02T10:11:59Z</time>
      </trkpt>
      <trkpt lat="41.994735" lon="2.741894">
        <ele>104.623</ele>
        <time>2021-02-02T10:12:00Z</time>
      </trkpt>
      <trkpt lat="41.994821" lon="2.741805">
        <ele>104.825</ele>
        <time>2021-02-02T10:12:02Z</time>
      </trkpt>
      <trkpt lat="41.994909" lon="2.741718">
        <ele>104.808</ele>
        <time>2021-02-02T10:12:04Z</time>
      </trkpt>
      <trkpt lat="41.994996" lon="2.741629">
        <ele>104.745</ele>
        <time>2021-02-02T10:12:06Z</time>
      </trkpt>
      <trkpt lat="41.995079" lon="2.741534">
        <ele>104.994</ele>
        <time>2021-02-02T10:12:08Z</time>
      </trkpt>
      <trkpt lat="41.995163" lon="2.741440">
        <ele>105.189</ele>
        <time>2021-02-02T10:12:10Z</time>
      </trkpt>
      <trkpt lat="41.995245" lon="2.741346">
        <ele>104.941</ele>
        <time>2021-02-02T10:12:12Z</time>
      </trkpt>
      <trkpt lat="41.995283" lon="2.741309">
        <ele>104.722</ele>
        <time>2021-02-02T10:12:13Z</time>
      </trkpt>
      <trkpt lat="41.995337" lon="2.741260">
        <ele>105.347</ele>
        <time>2021-02-02T10:12:15Z</time>
      </trkpt>
      <trkpt lat="41.995386" lon="2.741204">
        <ele>104.732</ele>
        <time>2021-02-02T10:12:17Z</time>
      </trkpt>
      <trkpt lat="41.995423" lon="2.741165">
        <ele>103.851</ele>
        <time>2021-02-02T10:12:19Z</time>
      </trkpt>
      <trkpt lat="41.995469" lon="2.741109">
        <ele>103.031</ele>
        <time>2021-02-02T10:12:21Z</time>
      </trkpt>
      <trkpt lat="41.995518" lon="2.741075">
        <ele>102.061</ele>
        <time>2021-02-02T10:12:25Z</time>
      </trkpt>
      <trkpt lat="41.995564" lon="2.741072">
        <ele>102.307</ele>
        <time>2021-02-02T10:12:39Z</time>
      </trkpt>
      <trkpt lat="41.995609" lon="2.741055">
        <ele>102.408</ele>
        <time>2021-02-02T10:12:44Z</time>
      </trkpt>
      <trkpt lat="41.995637" lon="2.740997">
        <ele>102.499</ele>
        <time>2021-02-02T10:12:51Z</time>
      </trkpt>
      <trkpt lat="41.995671" lon="2.740951">
        <ele>102.798</ele>
        <time>2021-02-02T10:12:55Z</time>
      </trkpt>
      <trkpt lat="41.995705" lon="2.740911">
        <ele>103.353</ele>
        <time>2021-02-02T10:12:58Z</time>
      </trkpt>
      <trkpt lat="41.995740" lon="2.740861">
        <ele>105.035</ele>
        <time>2021-02-02T10:13:02Z</time>
      </trkpt>
      <trkpt lat="41.995790" lon="2.740806">
        <ele>103.856</ele>
        <time>2021-02-02T10:13:29Z</time>
      </trkpt>
      <trkpt lat="41.995825" lon="2.740745">
        <ele>103.891</ele>
        <time>2021-02-02T10:13:32Z</time>
      </trkpt>
      <trkpt lat="41.995875" lon="2.740709">
        <ele>105.326</ele>
        <time>2021-02-02T10:13:36Z</time>
      </trkpt>
      <trkpt lat="41.995894" lon="2.740651">
        <ele>104.795</ele>
        <time>2021-02-02T10:13:40Z</time>
      </trkpt>
      <trkpt lat="41.995889" lon="2.740590">
        <ele>105.394</ele>
        <time>2021-02-02T10:13:46Z</time>
      </trkpt>
      <trkpt lat="41.995861" lon="2.740519">
        <ele>105.357</ele>
        <time>2021-02-02T10:13:49Z</time>
      </trkpt>
      <trkpt lat="41.995848" lon="2.740425">
        <ele>105.722</ele>
        <time>2021-02-02T10:13:51Z</time>
      </trkpt>
      <trkpt lat="41.995851" lon="2.740344">
        <ele>105.608</ele>
        <time>2021-02-02T10:13:52Z</time>
      </trkpt>
      <trkpt lat="41.995873" lon="2.740152">
        <ele>105.495</ele>
        <time>2021-02-02T10:13:54Z</time>
      </trkpt>
      <trkpt lat="41.995895" lon="2.740004">
        <ele>105.754</ele>
        <time>2021-02-02T10:13:56Z</time>
      </trkpt>
      <trkpt lat="41.995908" lon="2.739929">
        <ele>105.759</ele>
        <time>2021-02-02T10:13:57Z</time>
      </trkpt>
      <trkpt lat="41.995920" lon="2.739859">
        <ele>105.491</ele>
        <time>2021-02-02T10:13:58Z</time>
      </trkpt>
      <trkpt lat="41.995949" lon="2.739718">
        <ele>105.652</ele>
        <time>2021-02-02T10:14:00Z</time>
      </trkpt>
      <trkpt lat="41.995964" lon="2.739648">
        <ele>105.557</ele>
        <time>2021-02-02T10:14:01Z</time>
      </trkpt>
      <trkpt lat="41.995994" lon="2.739510">
        <ele>105.852</ele>
        <time>2021-02-02T10:14:03Z</time>
      </trkpt>
      <trkpt lat="41.996006" lon="2.739440">
        <ele>105.721</ele>
        <time>2021-02-02T10:14:04Z</time>
      </trkpt>
      <trkpt lat="41.996016" lon="2.739370">
        <ele>105.569</ele>
        <time>2021-02-02T10:14:05Z</time>
      </trkpt>
      <trkpt lat="41.996037" lon="2.739231">
        <ele>105.704</ele>
        <time>2021-02-02T10:14:07Z</time>
      </trkpt>
      <trkpt lat="41.996048" lon="2.739164">
        <ele>105.524</ele>
        <time>2021-02-02T10:14:08Z</time>
      </trkpt>
      <trkpt lat="41.996060" lon="2.739096">
        <ele>105.608</ele>
        <time>2021-02-02T10:14:09Z</time>
      </trkpt>
      <trkpt lat="41.996093" lon="2.738972">
        <ele>105.532</ele>
        <time>2021-02-02T10:14:11Z</time>
      </trkpt>
      <trkpt lat="41.996116" lon="2.738913">
        <ele>105.731</ele>
        <time>2021-02-02T10:14:12Z</time>
      </trkpt>
      <trkpt lat="41.996152" lon="2.738862">
        <ele>106.096</ele>
        <time>2021-02-02T10:14:13Z</time>
      </trkpt>
      <trkpt lat="41.996232" lon="2.738781">
        <ele>105.778</ele>
        <time>2021-02-02T10:14:15Z</time>
      </trkpt>
      <trkpt lat="41.996276" lon="2.738747">
        <ele>105.769</ele>
        <time>2021-02-02T10:14:16Z</time>
      </trkpt>
      <trkpt lat="41.996361" lon="2.738691">
        <ele>106.144</ele>
        <time>2021-02-02T10:14:18Z</time>
      </trkpt>
      <trkpt lat="41.996402" lon="2.738660">
        <ele>106.229</ele>
        <time>2021-02-02T10:14:19Z</time>
      </trkpt>
      <trkpt lat="41.996441" lon="2.738622">
        <ele>106.448</ele>
        <time>2021-02-02T10:14:20Z</time>
      </trkpt>
      <trkpt lat="41.996507" lon="2.738528">
        <ele>106.767</ele>
        <time>2021-02-02T10:14:22Z</time>
      </trkpt>
      <trkpt lat="41.996559" lon="2.738416">
        <ele>106.881</ele>
        <time>2021-02-02T10:14:24Z</time>
      </trkpt>
      <trkpt lat="41.996581" lon="2.738352">
        <ele>106.919</ele>
        <time>2021-02-02T10:14:25Z</time>
      </trkpt>
      <trkpt lat="41.996602" lon="2.738287">
        <ele>106.908</ele>
        <time>2021-02-02T10:14:26Z</time>
      </trkpt>
      <trkpt lat="41.996623" lon="2.738221">
        <ele>107.052</ele>
        <time>2021-02-02T10:14:27Z</time>
      </trkpt>
      <trkpt lat="41.996666" lon="2.738092">
        <ele>107.361</ele>
        <time>2021-02-02T10:14:29Z</time>
      </trkpt>
      <trkpt lat="41.996708" lon="2.737968">
        <ele>107.626</ele>
        <time>2021-02-02T10:14:31Z</time>
      </trkpt>
      <trkpt lat="41.996729" lon="2.737905">
        <ele>107.568</ele>
        <time>2021-02-02T10:14:32Z</time>
      </trkpt>
      <trkpt lat="41.996777" lon="2.737780">
        <ele>107.799</ele>
        <time>2021-02-02T10:14:34Z</time>
      </trkpt>
      <trkpt lat="41.996823" lon="2.737656">
        <ele>107.754</ele>
        <time>2021-02-02T10:14:36Z</time>
      </trkpt>
      <trkpt lat="41.996848" lon="2.737595">
        <ele>107.689</ele>
        <time>2021-02-02T10:14:37Z</time>
      </trkpt>
      <trkpt lat="41.996874" lon="2.737535">
        <ele>107.638</ele>
        <time>2021-02-02T10:14:38Z</time>
      </trkpt>
      <trkpt lat="41.996930" lon="2.737422">
        <ele>107.796</ele>
        <time>2021-02-02T10:14:40Z</time>
      </trkpt>
      <trkpt lat="41.996984" lon="2.737309">
        <ele>107.931</ele>
        <time>2021-02-02T10:14:42Z</time>
      </trkpt>
      <trkpt lat="41.997040" lon="2.737200">
        <ele>107.924</ele>
        <time>2021-02-02T10:14:44Z</time>
      </trkpt>
      <trkpt lat="41.997100" lon="2.737097">
        <ele>108.008</ele>
        <time>2021-02-02T10:14:46Z</time>
      </trkpt>
      <trkpt lat="41.997161" lon="2.737001">
        <ele>108.465</ele>
        <time>2021-02-02T10:14:48Z</time>
      </trkpt>
      <trkpt lat="41.997190" lon="2.736952">
        <ele>108.544</ele>
        <time>2021-02-02T10:14:49Z</time>
      </trkpt>
      <trkpt lat="41.997218" lon="2.736901">
        <ele>108.339</ele>
        <time>2021-02-02T10:14:50Z</time>
      </trkpt>
      <trkpt lat="41.997271" lon="2.736809">
        <ele>108.351</ele>
        <time>2021-02-02T10:14:52Z</time>
      </trkpt>
      <trkpt lat="41.997335" lon="2.736707">
        <ele>108.582</ele>
        <time>2021-02-02T10:14:54Z</time>
      </trkpt>
      <trkpt lat="41.997394" lon="2.736595">
        <ele>108.647</ele>
        <time>2021-02-02T10:14:56Z</time>
      </trkpt>
      <trkpt lat="41.997458" lon="2.736491">
        <ele>108.732</ele>
        <time>2021-02-02T10:14:58Z</time>
      </trkpt>
      <trkpt lat="41.997496" lon="2.736439">
        <ele>108.781</ele>
        <time>2021-02-02T10:14:59Z</time>
      </trkpt>
      <trkpt lat="41.997574" lon="2.736341">
        <ele>109.062</ele>
        <time>2021-02-02T10:15:01Z</time>
      </trkpt>
      <trkpt lat="41.997614" lon="2.736294">
        <ele>108.783</ele>
        <time>2021-02-02T10:15:02Z</time>
      </trkpt>
      <trkpt lat="41.997657" lon="2.736253">
        <ele>108.811</ele>
        <time>2021-02-02T10:15:03Z</time>
      </trkpt>
      <trkpt lat="41.997750" lon="2.736189">
        <ele>108.708</ele>
        <time>2021-02-02T10:15:05Z</time>
      </trkpt>
      <trkpt lat="41.997850" lon="2.736128">
        <ele>108.882</ele>
        <time>2021-02-02T10:15:07Z</time>
      </trkpt>
      <trkpt lat="41.997949" lon="2.736070">
        <ele>108.731</ele>
        <time>2021-02-02T10:15:09Z</time>
      </trkpt>
      <trkpt lat="41.998046" lon="2.736012">
        <ele>108.956</ele>
        <time>2021-02-02T10:15:11Z</time>
      </trkpt>
      <trkpt lat="41.998145" lon="2.735952">
        <ele>109.128</ele>
        <time>2021-02-02T10:15:13Z</time>
      </trkpt>
      <trkpt lat="41.998194" lon="2.735924">
        <ele>109.339</ele>
        <time>2021-02-02T10:15:14Z</time>
      </trkpt>
      <trkpt lat="41.998243" lon="2.735896">
        <ele>109.194</ele>
        <time>2021-02-02T10:15:15Z</time>
      </trkpt>
      <trkpt lat="41.998291" lon="2.735866">
        <ele>109.199</ele>
        <time>2021-02-02T10:15:16Z</time>
      </trkpt>
      <trkpt lat="41.998388" lon="2.735807">
        <ele>109.448</ele>
        <time>2021-02-02T10:15:18Z</time>
      </trkpt>
      <trkpt lat="41.998438" lon="2.735777">
        <ele>109.484</ele>
        <time>2021-02-02T10:15:19Z</time>
      </trkpt>
      <trkpt lat="41.998535" lon="2.735714">
        <ele>109.307</ele>
        <time>2021-02-02T10:15:21Z</time>
      </trkpt>
      <trkpt lat="41.998583" lon="2.735681">
        <ele>109.617</ele>
        <time>2021-02-02T10:15:22Z</time>
      </trkpt>
      <trkpt lat="41.998676" lon="2.735621">
        <ele>109.608</ele>
        <time>2021-02-02T10:15:24Z</time>
      </trkpt>
      <trkpt lat="41.998770" lon="2.735562">
        <ele>109.844</ele>
        <time>2021-02-02T10:15:26Z</time>
      </trkpt>
      <trkpt lat="41.998866" lon="2.735503">
        <ele>109.723</ele>
        <time>2021-02-02T10:15:28Z</time>
      </trkpt>
      <trkpt lat="41.998915" lon="2.735471">
        <ele>110.068</ele>
        <time>2021-02-02T10:15:29Z</time>
      </trkpt>
      <trkpt lat="41.998964" lon="2.735440">
        <ele>110.240</ele>
        <time>2021-02-02T10:15:30Z</time>
      </trkpt>
      <trkpt lat="41.999061" lon="2.735378">
        <ele>110.161</ele>
        <time>2021-02-02T10:15:32Z</time>
      </trkpt>
      <trkpt lat="41.999157" lon="2.735316">
        <ele>110.526</ele>
        <time>2021-02-02T10:15:34Z</time>
      </trkpt>
      <trkpt lat="41.999204" lon="2.735285">
        <ele>110.611</ele>
        <time>2021-02-02T10:15:35Z</time>
      </trkpt>
      <trkpt lat="41.999298" lon="2.735224">
        <ele>110.780</ele>
        <time>2021-02-02T10:15:37Z</time>
      </trkpt>
      <trkpt lat="41.999346" lon="2.735198">
        <ele>110.648</ele>
        <time>2021-02-02T10:15:38Z</time>
      </trkpt>
      <trkpt lat="41.999394" lon="2.735171">
        <ele>110.761</ele>
        <time>2021-02-02T10:15:39Z</time>
      </trkpt>
      <trkpt lat="41.999489" lon="2.735112">
        <ele>111.117</ele>
        <time>2021-02-02T10:15:41Z</time>
      </trkpt>
      <trkpt lat="41.999538" lon="2.735082">
        <ele>111.008</ele>
        <time>2021-02-02T10:15:42Z</time>
      </trkpt>
      <trkpt lat="41.999633" lon="2.735020">
        <ele>111.230</ele>
        <time>2021-02-02T10:15:44Z</time>
      </trkpt>
      <trkpt lat="41.999726" lon="2.734955">
        <ele>111.199</ele>
        <time>2021-02-02T10:15:46Z</time>
      </trkpt>
      <trkpt lat="41.999824" lon="2.734895">
        <ele>111.674</ele>
        <time>2021-02-02T10:15:48Z</time>
      </trkpt>
      <trkpt lat="41.999922" lon="2.734834">
        <ele>111.736</ele>
        <time>2021-02-02T10:15:50Z</time>
      </trkpt>
      <trkpt lat="41.999973" lon="2.734804">
        <ele>111.837</ele>
        <time>2021-02-02T10:15:51Z</time>
      </trkpt>
      <trkpt lat="42.000024" lon="2.734775">
        <ele>111.812</ele>
        <time>2021-02-02T10:15:52Z</time>
      </trkpt>
      <trkpt lat="42.000126" lon="2.734723">
        <ele>111.987</ele>
        <time>2021-02-02T10:15:54Z</time>
      </trkpt>
      <trkpt lat="42.000179" lon="2.734704">
        <ele>112.176</ele>
        <time>2021-02-02T10:15:55Z</time>
      </trkpt>
      <trkpt lat="42.000285" lon="2.734676">
        <ele>112.054</ele>
        <time>2021-02-02T10:15:57Z</time>
      </trkpt>
      <trkpt lat="42.000392" lon="2.734652">
        <ele>112.056</ele>
        <time>2021-02-02T10:15:59Z</time>
      </trkpt>
      <trkpt lat="42.000499" lon="2.734643">
        <ele>112.311</ele>
        <time>2021-02-02T10:16:01Z</time>
      </trkpt>
      <trkpt lat="42.000604" lon="2.734642">
        <ele>112.208</ele>
        <time>2021-02-02T10:16:03Z</time>
      </trkpt>
      <trkpt lat="42.000654" lon="2.734642">
        <ele>112.291</ele>
        <time>2021-02-02T10:16:04Z</time>
      </trkpt>
      <trkpt lat="42.000748" lon="2.734654">
        <ele>112.550</ele>
        <time>2021-02-02T10:16:06Z</time>
      </trkpt>
      <trkpt lat="42.000817" lon="2.734687">
        <ele>112.695</ele>
        <time>2021-02-02T10:16:08Z</time>
      </trkpt>
      <trkpt lat="42.000861" lon="2.734702">
        <ele>112.617</ele>
        <time>2021-02-02T10:16:14Z</time>
      </trkpt>
      <trkpt lat="42.000904" lon="2.734725">
        <ele>112.698</ele>
        <time>2021-02-02T10:16:20Z</time>
      </trkpt>
      <trkpt lat="42.000931" lon="2.734777">
        <ele>112.923</ele>
        <time>2021-02-02T10:16:24Z</time>
      </trkpt>
      <trkpt lat="42.000956" lon="2.734835">
        <ele>112.438</ele>
        <time>2021-02-02T10:16:31Z</time>
      </trkpt>
      <trkpt lat="42.001004" lon="2.734883">
        <ele>113.217</ele>
        <time>2021-02-02T10:16:35Z</time>
      </trkpt>
      <trkpt lat="42.001088" lon="2.734930">
        <ele>113.046</ele>
        <time>2021-02-02T10:16:38Z</time>
      </trkpt>
      <trkpt lat="42.001147" lon="2.734973">
        <ele>113.288</ele>
        <time>2021-02-02T10:16:40Z</time>
      </trkpt>
      <trkpt lat="42.001190" lon="2.735007">
        <ele>113.516</ele>
        <time>2021-02-02T10:16:41Z</time>
      </trkpt>
      <trkpt lat="42.001241" lon="2.735053">
        <ele>113.608</ele>
        <time>2021-02-02T10:16:43Z</time>
      </trkpt>
      <trkpt lat="42.001285" lon="2.735095">
        <ele>113.870</ele>
        <time>2021-02-02T10:16:44Z</time>
      </trkpt>
      <trkpt lat="42.001343" lon="2.735152">
        <ele>113.989</ele>
        <time>2021-02-02T10:16:45Z</time>
      </trkpt>
      <trkpt lat="42.001406" lon="2.735199">
        <ele>113.984</ele>
        <time>2021-02-02T10:16:46Z</time>
      </trkpt>
      <trkpt lat="42.001505" lon="2.735262">
        <ele>114.196</ele>
        <time>2021-02-02T10:16:48Z</time>
      </trkpt>
      <trkpt lat="42.001555" lon="2.735288">
        <ele>113.927</ele>
        <time>2021-02-02T10:16:49Z</time>
      </trkpt>
      <trkpt lat="42.001607" lon="2.735307">
        <ele>113.782</ele>
        <time>2021-02-02T10:16:50Z</time>
      </trkpt>
      <trkpt lat="42.001659" lon="2.735323">
        <ele>113.747</ele>
        <time>2021-02-02T10:16:51Z</time>
      </trkpt>
      <trkpt lat="42.001763" lon="2.735356">
        <ele>113.486</ele>
        <time>2021-02-02T10:16:53Z</time>
      </trkpt>
      <trkpt lat="42.001816" lon="2.735377">
        <ele>113.545</ele>
        <time>2021-02-02T10:16:54Z</time>
      </trkpt>
      <trkpt lat="42.001914" lon="2.735432">
        <ele>113.647</ele>
        <time>2021-02-02T10:16:56Z</time>
      </trkpt>
      <trkpt lat="42.001962" lon="2.735467">
        <ele>113.711</ele>
        <time>2021-02-02T10:16:57Z</time>
      </trkpt>
      <trkpt lat="42.002051" lon="2.735542">
        <ele>113.908</ele>
        <time>2021-02-02T10:16:59Z</time>
      </trkpt>
      <trkpt lat="42.002132" lon="2.735616">
        <ele>113.580</ele>
        <time>2021-02-02T10:17:01Z</time>
      </trkpt>
      <trkpt lat="42.002197" lon="2.735685">
        <ele>113.789</ele>
        <time>2021-02-02T10:17:03Z</time>
      </trkpt>
      <trkpt lat="42.002261" lon="2.735748">
        <ele>114.034</ele>
        <time>2021-02-02T10:17:05Z</time>
      </trkpt>
      <trkpt lat="42.002307" lon="2.735791">
        <ele>114.666</ele>
        <time>2021-02-02T10:17:07Z</time>
      </trkpt>
      <trkpt lat="42.002355" lon="2.735802">
        <ele>114.577</ele>
        <time>2021-02-02T10:17:09Z</time>
      </trkpt>
      <trkpt lat="42.002392" lon="2.735763">
        <ele>114.492</ele>
        <time>2021-02-02T10:17:10Z</time>
      </trkpt>
      <trkpt lat="42.002429" lon="2.735680">
        <ele>114.237</ele>
        <time>2021-02-02T10:17:11Z</time>
      </trkpt>
      <trkpt lat="42.002490" lon="2.735537">
        <ele>114.426</ele>
        <time>2021-02-02T10:17:13Z</time>
      </trkpt>
      <trkpt lat="42.002553" lon="2.735404">
        <ele>114.286</ele>
        <time>2021-02-02T10:17:15Z</time>
      </trkpt>
      <trkpt lat="42.002583" lon="2.735342">
        <ele>114.160</ele>
        <time>2021-02-02T10:17:16Z</time>
      </trkpt>
      <trkpt lat="42.002648" lon="2.735212">
        <ele>113.926</ele>
        <time>2021-02-02T10:17:18Z</time>
      </trkpt>
      <trkpt lat="42.002691" lon="2.735140">
        <ele>113.808</ele>
        <time>2021-02-02T10:17:19Z</time>
      </trkpt>
      <trkpt lat="42.002777" lon="2.734995">
        <ele>113.994</ele>
        <time>2021-02-02T10:17:21Z</time>
      </trkpt>
      <trkpt lat="42.002854" lon="2.734853">
        <ele>113.713</ele>
        <time>2021-02-02T10:17:23Z</time>
      </trkpt>
      <trkpt lat="42.002892" lon="2.734782">
        <ele>113.838</ele>
        <time>2021-02-02T10:17:24Z</time>
      </trkpt>
      <trkpt lat="42.002963" lon="2.734646">
        <ele>113.930</ele>
        <time>2021-02-02T10:17:26Z</time>
      </trkpt>
      <trkpt lat="42.003030" lon="2.734516">
        <ele>114.391</ele>
        <time>2021-02-02T10:17:28Z</time>
      </trkpt>
      <trkpt lat="42.003062" lon="2.734452">
        <ele>114.356</ele>
        <time>2021-02-02T10:17:29Z</time>
      </trkpt>
      <trkpt lat="42.003122" lon="2.734320">
        <ele>114.411</ele>
        <time>2021-02-02T10:17:31Z</time>
      </trkpt>
      <trkpt lat="42.003148" lon="2.734251">
        <ele>114.630</ele>
        <time>2021-02-02T10:17:32Z</time>
      </trkpt>
      <trkpt lat="42.003187" lon="2.734105">
        <ele>114.447</ele>
        <time>2021-02-02T10:17:34Z</time>
      </trkpt>
      <trkpt lat="42.003220" lon="2.733952">
        <ele>114.429</ele>
        <time>2021-02-02T10:17:36Z</time>
      </trkpt>
      <trkpt lat="42.003232" lon="2.733876">
        <ele>114.221</ele>
        <time>2021-02-02T10:17:37Z</time>
      </trkpt>
      <trkpt lat="42.003252" lon="2.733722">
        <ele>114.208</ele>
        <time>2021-02-02T10:17:39Z</time>
      </trkpt>
      <trkpt lat="42.003260" lon="2.733641">
        <ele>114.060</ele>
        <time>2021-02-02T10:17:40Z</time>
      </trkpt>
      <trkpt lat="42.003284" lon="2.733481">
        <ele>114.059</ele>
        <time>2021-02-02T10:17:42Z</time>
      </trkpt>
      <trkpt lat="42.003300" lon="2.733406">
        <ele>113.854</ele>
        <time>2021-02-02T10:17:43Z</time>
      </trkpt>
      <trkpt lat="42.003349" lon="2.733269">
        <ele>114.456</ele>
        <time>2021-02-02T10:17:45Z</time>
      </trkpt>
      <trkpt lat="42.003404" lon="2.733144">
        <ele>114.497</ele>
        <time>2021-02-02T10:17:47Z</time>
      </trkpt>
      <trkpt lat="42.003460" lon="2.733018">
        <ele>114.352</ele>
        <time>2021-02-02T10:17:49Z</time>
      </trkpt>
      <trkpt lat="42.003535" lon="2.732906">
        <ele>114.567</ele>
        <time>2021-02-02T10:17:51Z</time>
      </trkpt>
      <trkpt lat="42.003622" lon="2.732806">
        <ele>114.616</ele>
        <time>2021-02-02T10:17:53Z</time>
      </trkpt>
      <trkpt lat="42.003665" lon="2.732757">
        <ele>114.674</ele>
        <time>2021-02-02T10:17:54Z</time>
      </trkpt>
      <trkpt lat="42.003754" lon="2.732660">
        <ele>115.056</ele>
        <time>2021-02-02T10:17:56Z</time>
      </trkpt>
      <trkpt lat="42.003798" lon="2.732613">
        <ele>115.421</ele>
        <time>2021-02-02T10:17:57Z</time>
      </trkpt>
      <trkpt lat="42.003841" lon="2.732568">
        <ele>115.308</ele>
        <time>2021-02-02T10:17:58Z</time>
      </trkpt>
      <trkpt lat="42.003884" lon="2.732523">
        <ele>115.483</ele>
        <time>2021-02-02T10:17:59Z</time>
      </trkpt>
      <trkpt lat="42.003969" lon="2.732436">
        <ele>115.632</ele>
        <time>2021-02-02T10:18:01Z</time>
      </trkpt>
      <trkpt lat="42.004054" lon="2.732354">
        <ele>116.327</ele>
        <time>2021-02-02T10:18:03Z</time>
      </trkpt>
      <trkpt lat="42.004096" lon="2.732317">
        <ele>116.439</ele>
        <time>2021-02-02T10:18:04Z</time>
      </trkpt>
      <trkpt lat="42.004175" lon="2.732243">
        <ele>117.250</ele>
        <time>2021-02-02T10:18:06Z</time>
      </trkpt>
      <trkpt lat="42.004248" lon="2.732159">
        <ele>117.725</ele>
        <time>2021-02-02T10:18:08Z</time>
      </trkpt>
      <trkpt lat="42.004282" lon="2.732115">
        <ele>117.780</ele>
        <time>2021-02-02T10:18:09Z</time>
      </trkpt>
      <trkpt lat="42.004317" lon="2.732067">
        <ele>117.919</ele>
        <time>2021-02-02T10:18:10Z</time>
      </trkpt>
      <trkpt lat="42.004385" lon="2.731976">
        <ele>118.226</ele>
        <time>2021-02-02T10:18:12Z</time>
      </trkpt>
      <trkpt lat="42.004420" lon="2.731931">
        <ele>118.247</ele>
        <time>2021-02-02T10:18:13Z</time>
      </trkpt>
      <trkpt lat="42.004493" lon="2.731845">
        <ele>118.811</ele>
        <time>2021-02-02T10:18:15Z</time>
      </trkpt>
      <trkpt lat="42.004577" lon="2.731771">
        <ele>118.708</ele>
        <time>2021-02-02T10:18:17Z</time>
      </trkpt>
      <trkpt lat="42.004625" lon="2.731741">
        <ele>118.868</ele>
        <time>2021-02-02T10:18:18Z</time>
      </trkpt>
      <trkpt lat="42.004674" lon="2.731716">
        <ele>118.827</ele>
        <time>2021-02-02T10:18:19Z</time>
      </trkpt>
      <trkpt lat="42.004723" lon="2.731692">
        <ele>118.952</ele>
        <time>2021-02-02T10:18:20Z</time>
      </trkpt>
      <trkpt lat="42.004772" lon="2.731669">
        <ele>118.744</ele>
        <time>2021-02-02T10:18:21Z</time>
      </trkpt>
      <trkpt lat="42.004868" lon="2.731635">
        <ele>119.075</ele>
        <time>2021-02-02T10:18:23Z</time>
      </trkpt>
      <trkpt lat="42.004915" lon="2.731611">
        <ele>119.140</ele>
        <time>2021-02-02T10:18:24Z</time>
      </trkpt>
      <trkpt lat="42.004999" lon="2.731540">
        <ele>119.365</ele>
        <time>2021-02-02T10:18:26Z</time>
      </trkpt>
      <trkpt lat="42.005039" lon="2.731500">
        <ele>119.554</ele>
        <time>2021-02-02T10:18:27Z</time>
      </trkpt>
      <trkpt lat="42.005119" lon="2.731425">
        <ele>119.615</ele>
        <time>2021-02-02T10:18:29Z</time>
      </trkpt>
      <trkpt lat="42.005207" lon="2.731370">
        <ele>119.965</ele>
        <time>2021-02-02T10:18:31Z</time>
      </trkpt>
      <trkpt lat="42.005300" lon="2.731329">
        <ele>119.911</ele>
        <time>2021-02-02T10:18:33Z</time>
      </trkpt>
      <trkpt lat="42.005349" lon="2.731317">
        <ele>120.008</ele>
        <time>2021-02-02T10:18:34Z</time>
      </trkpt>
      <trkpt lat="42.005445" lon="2.731295">
        <ele>120.297</ele>
        <time>2021-02-02T10:18:36Z</time>
      </trkpt>
      <trkpt lat="42.005494" lon="2.731282">
        <ele>120.216</ele>
        <time>2021-02-02T10:18:37Z</time>
      </trkpt>
      <trkpt lat="42.005588" lon="2.731243">
        <ele>120.411</ele>
        <time>2021-02-02T10:18:39Z</time>
      </trkpt>
      <trkpt lat="42.005681" lon="2.731190">
        <ele>120.473</ele>
        <time>2021-02-02T10:18:41Z</time>
      </trkpt>
      <trkpt lat="42.005725" lon="2.731156">
        <ele>120.844</ele>
        <time>2021-02-02T10:18:42Z</time>
      </trkpt>
      <trkpt lat="42.005808" lon="2.731076">
        <ele>121.079</ele>
        <time>2021-02-02T10:18:44Z</time>
      </trkpt>
      <trkpt lat="42.005846" lon="2.731030">
        <ele>121.014</ele>
        <time>2021-02-02T10:18:45Z</time>
      </trkpt>
      <trkpt lat="42.005880" lon="2.730979">
        <ele>121.093</ele>
        <time>2021-02-02T10:18:46Z</time>
      </trkpt>
      <trkpt lat="42.005935" lon="2.730864">
        <ele>121.171</ele>
        <time>2021-02-02T10:18:48Z</time>
      </trkpt>
      <trkpt lat="42.005958" lon="2.730802">
        <ele>121.141</ele>
        <time>2021-02-02T10:18:49Z</time>
      </trkpt>
      <trkpt lat="42.006003" lon="2.730684">
        <ele>121.515</ele>
        <time>2021-02-02T10:18:51Z</time>
      </trkpt>
      <trkpt lat="42.006044" lon="2.730568">
        <ele>122.008</ele>
        <time>2021-02-02T10:18:53Z</time>
      </trkpt>
      <trkpt lat="42.006091" lon="2.730456">
        <ele>121.783</ele>
        <time>2021-02-02T10:18:55Z</time>
      </trkpt>
      <trkpt lat="42.006118" lon="2.730400">
        <ele>121.832</ele>
        <time>2021-02-02T10:18:56Z</time>
      </trkpt>
      <trkpt lat="42.006170" lon="2.730309">
        <ele>122.087</ele>
        <time>2021-02-02T10:18:58Z</time>
      </trkpt>
      <trkpt lat="42.006205" lon="2.730264">
        <ele>122.529</ele>
        <time>2021-02-02T10:18:59Z</time>
      </trkpt>
      <trkpt lat="42.006270" lon="2.730199">
        <ele>122.910</ele>
        <time>2021-02-02T10:19:01Z</time>
      </trkpt>
      <trkpt lat="42.006328" lon="2.730119">
        <ele>123.835</ele>
        <time>2021-02-02T10:19:03Z</time>
      </trkpt>
      <trkpt lat="42.006365" lon="2.730021">
        <ele>124.580</ele>
        <time>2021-02-02T10:19:05Z</time>
      </trkpt>
      <trkpt lat="42.006360" lon="2.729959">
        <ele>124.989</ele>
        <time>2021-02-02T10:19:07Z</time>
      </trkpt>
      <trkpt lat="42.006350" lon="2.729896">
        <ele>125.424</ele>
        <time>2021-02-02T10:19:09Z</time>
      </trkpt>
      <trkpt lat="42.006368" lon="2.729833">
        <ele>125.704</ele>
        <time>2021-02-02T10:19:10Z</time>
      </trkpt>
      <trkpt lat="42.006392" lon="2.729757">
        <ele>126.514</ele>
        <time>2021-02-02T10:19:12Z</time>
      </trkpt>
      <trkpt lat="42.006417" lon="2.729692">
        <ele>126.808</ele>
        <time>2021-02-02T10:19:14Z</time>
      </trkpt>
      <trkpt lat="42.006441" lon="2.729625">
        <ele>127.558</ele>
        <time>2021-02-02T10:19:16Z</time>
      </trkpt>
      <trkpt lat="42.006462" lon="2.729548">
        <ele>128.347</ele>
        <time>2021-02-02T10:19:18Z</time>
      </trkpt>
      <trkpt lat="42.006485" lon="2.729477">
        <ele>129.162</ele>
        <time>2021-02-02T10:19:20Z</time>
      </trkpt>
      <trkpt lat="42.006505" lon="2.729401">
        <ele>129.454</ele>
        <time>2021-02-02T10:19:22Z</time>
      </trkpt>
      <trkpt lat="42.006519" lon="2.729339">
        <ele>130.285</ele>
        <time>2021-02-02T10:19:24Z</time>
      </trkpt>
      <trkpt lat="42.006534" lon="2.729238">
        <ele>130.530</ele>
        <time>2021-02-02T10:19:26Z</time>
      </trkpt>
      <trkpt lat="42.006551" lon="2.729156">
        <ele>130.875</ele>
        <time>2021-02-02T10:19:28Z</time>
      </trkpt>
      <trkpt lat="42.006568" lon="2.729083">
        <ele>131.074</ele>
        <time>2021-02-02T10:19:30Z</time>
      </trkpt>
      <trkpt lat="42.006581" lon="2.729021">
        <ele>131.395</ele>
        <time>2021-02-02T10:19:31Z</time>
      </trkpt>
      <trkpt lat="42.006600" lon="2.728957">
        <ele>131.349</ele>
        <time>2021-02-02T10:19:33Z</time>
      </trkpt>
      <trkpt lat="42.006614" lon="2.728896">
        <ele>131.723</ele>
        <time>2021-02-02T10:19:34Z</time>
      </trkpt>
      <trkpt lat="42.006639" lon="2.728805">
        <ele>132.008</ele>
        <time>2021-02-02T10:19:36Z</time>
      </trkpt>
      <trkpt lat="42.006661" lon="2.728743">
        <ele>131.955</ele>
        <time>2021-02-02T10:19:38Z</time>
      </trkpt>
      <trkpt lat="42.006681" lon="2.728663">
        <ele>132.764</ele>
        <time>2021-02-02T10:19:41Z</time>
      </trkpt>
      <trkpt lat="42.006695" lon="2.728599">
        <ele>133.319</ele>
        <time>2021-02-02T10:19:43Z</time>
      </trkpt>
      <trkpt lat="42.006703" lon="2.728523">
        <ele>133.551</ele>
        <time>2021-02-02T10:19:45Z</time>
      </trkpt>
      <trkpt lat="42.006695" lon="2.728444">
        <ele>134.092</ele>
        <time>2021-02-02T10:19:47Z</time>
      </trkpt>
      <trkpt lat="42.006688" lon="2.728374">
        <ele>134.967</ele>
        <time>2021-02-02T10:19:49Z</time>
      </trkpt>
      <trkpt lat="42.006682" lon="2.728307">
        <ele>135.162</ele>
        <time>2021-02-02T10:19:51Z</time>
      </trkpt>
      <trkpt lat="42.006678" lon="2.728230">
        <ele>135.881</ele>
        <time>2021-02-02T10:19:53Z</time>
      </trkpt>
      <trkpt lat="42.006673" lon="2.728153">
        <ele>136.325</ele>
        <time>2021-02-02T10:19:55Z</time>
      </trkpt>
      <trkpt lat="42.006669" lon="2.728070">
        <ele>136.826</ele>
        <time>2021-02-02T10:19:57Z</time>
      </trkpt>
      <trkpt lat="42.006664" lon="2.728000">
        <ele>137.008</ele>
        <time>2021-02-02T10:19:59Z</time>
      </trkpt>
      <trkpt lat="42.006661" lon="2.727935">
        <ele>137.108</ele>
        <time>2021-02-02T10:20:00Z</time>
      </trkpt>
      <trkpt lat="42.006661" lon="2.727869">
        <ele>137.698</ele>
        <time>2021-02-02T10:20:01Z</time>
      </trkpt>
      <trkpt lat="42.006671" lon="2.727772">
        <ele>137.797</ele>
        <time>2021-02-02T10:20:03Z</time>
      </trkpt>
      <trkpt lat="42.006680" lon="2.727675">
        <ele>137.962</ele>
        <time>2021-02-02T10:20:05Z</time>
      </trkpt>
      <trkpt lat="42.006678" lon="2.727591">
        <ele>138.384</ele>
        <time>2021-02-02T10:20:07Z</time>
      </trkpt>
      <trkpt lat="42.006670" lon="2.727521">
        <ele>138.575</ele>
        <time>2021-02-02T10:20:08Z</time>
      </trkpt>
      <trkpt lat="42.006654" lon="2.727414">
        <ele>138.390</ele>
        <time>2021-02-02T10:20:10Z</time>
      </trkpt>
      <trkpt lat="42.006641" lon="2.727336">
        <ele>138.725</ele>
        <time>2021-02-02T10:20:12Z</time>
      </trkpt>
      <trkpt lat="42.006628" lon="2.727274">
        <ele>138.934</ele>
        <time>2021-02-02T10:20:13Z</time>
      </trkpt>
      <trkpt lat="42.006603" lon="2.727204">
        <ele>139.499</ele>
        <time>2021-02-02T10:20:15Z</time>
      </trkpt>
      <trkpt lat="42.006567" lon="2.727140">
        <ele>139.507</ele>
        <time>2021-02-02T10:20:17Z</time>
      </trkpt>
      <trkpt lat="42.006536" lon="2.727076">
        <ele>139.727</ele>
        <time>2021-02-02T10:20:19Z</time>
      </trkpt>
      <trkpt lat="42.006509" lon="2.727011">
        <ele>140.208</ele>
        <time>2021-02-02T10:20:21Z</time>
      </trkpt>
      <trkpt lat="42.006475" lon="2.726952">
        <ele>140.555</ele>
        <time>2021-02-02T10:20:23Z</time>
      </trkpt>
      <trkpt lat="42.006427" lon="2.726892">
        <ele>141.134</ele>
        <time>2021-02-02T10:20:25Z</time>
      </trkpt>
      <trkpt lat="42.006383" lon="2.726844">
        <ele>141.629</ele>
        <time>2021-02-02T10:20:27Z</time>
      </trkpt>
      <trkpt lat="42.006339" lon="2.726802">
        <ele>142.191</ele>
        <time>2021-02-02T10:20:29Z</time>
      </trkpt>
      <trkpt lat="42.006295" lon="2.726765">
        <ele>142.512</ele>
        <time>2021-02-02T10:20:31Z</time>
      </trkpt>
      <trkpt lat="42.006255" lon="2.726733">
        <ele>143.067</ele>
        <time>2021-02-02T10:20:33Z</time>
      </trkpt>
      <trkpt lat="42.006216" lon="2.726701">
        <ele>143.422</ele>
        <time>2021-02-02T10:20:35Z</time>
      </trkpt>
      <trkpt lat="42.006163" lon="2.726662">
        <ele>144.241</ele>
        <time>2021-02-02T10:20:37Z</time>
      </trkpt>
      <trkpt lat="42.006123" lon="2.726630">
        <ele>144.758</ele>
        <time>2021-02-02T10:20:39Z</time>
      </trkpt>
      <trkpt lat="42.006085" lon="2.726597">
        <ele>145.252</ele>
        <time>2021-02-02T10:20:41Z</time>
      </trkpt>
      <trkpt lat="42.006049" lon="2.726547">
        <ele>145.617</ele>
        <time>2021-02-02T10:20:43Z</time>
      </trkpt>
      <trkpt lat="42.006015" lon="2.726489">
        <ele>146.208</ele>
        <time>2021-02-02T10:20:45Z</time>
      </trkpt>
      <trkpt lat="42.005969" lon="2.726403">
        <ele>147.071</ele>
        <time>2021-02-02T10:20:48Z</time>
      </trkpt>
      <trkpt lat="42.005943" lon="2.726350">
        <ele>147.240</ele>
        <time>2021-02-02T10:20:50Z</time>
      </trkpt>
      <trkpt lat="42.005915" lon="2.726301">
        <ele>147.495</ele>
        <time>2021-02-02T10:20:51Z</time>
      </trkpt>
      <trkpt lat="42.005873" lon="2.726230">
        <ele>147.997</ele>
        <time>2021-02-02T10:20:54Z</time>
      </trkpt>
      <trkpt lat="42.005832" lon="2.726156">
        <ele>148.218</ele>
        <time>2021-02-02T10:20:56Z</time>
      </trkpt>
      <trkpt lat="42.005798" lon="2.726091">
        <ele>148.683</ele>
        <time>2021-02-02T10:20:58Z</time>
      </trkpt>
      <trkpt lat="42.005761" lon="2.726021">
        <ele>149.018</ele>
        <time>2021-02-02T10:21:00Z</time>
      </trkpt>
      <trkpt lat="42.005734" lon="2.725961">
        <ele>149.027</ele>
        <time>2021-02-02T10:21:02Z</time>
      </trkpt>
      <trkpt lat="42.005708" lon="2.725886">
        <ele>149.279</ele>
        <time>2021-02-02T10:21:04Z</time>
      </trkpt>
      <trkpt lat="42.005702" lon="2.725821">
        <ele>149.705</ele>
        <time>2021-02-02T10:21:06Z</time>
      </trkpt>
      <trkpt lat="42.005712" lon="2.725734">
        <ele>149.625</ele>
        <time>2021-02-02T10:21:08Z</time>
      </trkpt>
      <trkpt lat="42.005727" lon="2.725658">
        <ele>149.708</ele>
        <time>2021-02-02T10:21:10Z</time>
      </trkpt>
      <trkpt lat="42.005746" lon="2.725580">
        <ele>150.023</ele>
        <time>2021-02-02T10:21:12Z</time>
      </trkpt>
      <trkpt lat="42.005759" lon="2.725492">
        <ele>150.252</ele>
        <time>2021-02-02T10:21:14Z</time>
      </trkpt>
      <trkpt lat="42.005766" lon="2.725429">
        <ele>150.677</ele>
        <time>2021-02-02T10:21:16Z</time>
      </trkpt>
      <trkpt lat="42.005763" lon="2.725364">
        <ele>151.489</ele>
        <time>2021-02-02T10:21:19Z</time>
      </trkpt>
      <trkpt lat="42.005728" lon="2.725300">
        <ele>151.880</ele>
        <time>2021-02-02T10:21:22Z</time>
      </trkpt>
      <trkpt lat="42.005679" lon="2.725258">
        <ele>152.575</ele>
        <time>2021-02-02T10:21:24Z</time>
      </trkpt>
      <trkpt lat="42.005631" lon="2.725215">
        <ele>152.730</ele>
        <time>2021-02-02T10:21:26Z</time>
      </trkpt>
      <trkpt lat="42.005587" lon="2.725178">
        <ele>153.289</ele>
        <time>2021-02-02T10:21:28Z</time>
      </trkpt>
      <trkpt lat="42.005539" lon="2.725129">
        <ele>153.762</ele>
        <time>2021-02-02T10:21:30Z</time>
      </trkpt>
      <trkpt lat="42.005479" lon="2.725086">
        <ele>154.083</ele>
        <time>2021-02-02T10:21:32Z</time>
      </trkpt>
      <trkpt lat="42.005425" lon="2.725049">
        <ele>154.611</ele>
        <time>2021-02-02T10:21:34Z</time>
      </trkpt>
      <trkpt lat="42.005374" lon="2.725012">
        <ele>154.808</ele>
        <time>2021-02-02T10:21:36Z</time>
      </trkpt>
      <trkpt lat="42.005327" lon="2.724984">
        <ele>155.322</ele>
        <time>2021-02-02T10:21:38Z</time>
      </trkpt>
      <trkpt lat="42.005272" lon="2.724947">
        <ele>155.741</ele>
        <time>2021-02-02T10:21:40Z</time>
      </trkpt>
      <trkpt lat="42.005217" lon="2.724917">
        <ele>155.836</ele>
        <time>2021-02-02T10:21:42Z</time>
      </trkpt>
      <trkpt lat="42.005168" lon="2.724899">
        <ele>156.218</ele>
        <time>2021-02-02T10:21:44Z</time>
      </trkpt>
      <trkpt lat="42.005118" lon="2.724875">
        <ele>156.539</ele>
        <time>2021-02-02T10:21:46Z</time>
      </trkpt>
      <trkpt lat="42.005056" lon="2.724842">
        <ele>157.274</ele>
        <time>2021-02-02T10:21:48Z</time>
      </trkpt>
      <trkpt lat="42.005007" lon="2.724817">
        <ele>157.279</ele>
        <time>2021-02-02T10:21:50Z</time>
      </trkpt>
      <trkpt lat="42.004948" lon="2.724782">
        <ele>157.118</ele>
        <time>2021-02-02T10:21:52Z</time>
      </trkpt>
      <trkpt lat="42.004905" lon="2.724757">
        <ele>157.069</ele>
        <time>2021-02-02T10:21:54Z</time>
      </trkpt>
      <trkpt lat="42.004859" lon="2.724728">
        <ele>156.804</ele>
        <time>2021-02-02T10:21:55Z</time>
      </trkpt>
      <trkpt lat="42.004819" lon="2.724696">
        <ele>156.524</ele>
        <time>2021-02-02T10:21:56Z</time>
      </trkpt>
      <trkpt lat="42.004771" lon="2.724607">
        <ele>156.308</ele>
        <time>2021-02-02T10:21:57Z</time>
      </trkpt>
      <trkpt lat="42.004746" lon="2.724511">
        <ele>156.512</ele>
        <time>2021-02-02T10:21:59Z</time>
      </trkpt>
      <trkpt lat="42.004749" lon="2.724450">
        <ele>156.551</ele>
        <time>2021-02-02T10:22:00Z</time>
      </trkpt>
      <trkpt lat="42.004788" lon="2.724366">
        <ele>156.456</ele>
        <time>2021-02-02T10:22:02Z</time>
      </trkpt>
      <trkpt lat="42.004833" lon="2.724310">
        <ele>156.538</ele>
        <time>2021-02-02T10:22:03Z</time>
      </trkpt>
      <trkpt lat="42.004908" lon="2.724259">
        <ele>157.329</ele>
        <time>2021-02-02T10:22:06Z</time>
      </trkpt>
      <trkpt lat="42.004970" lon="2.724243">
        <ele>157.784</ele>
        <time>2021-02-02T10:22:07Z</time>
      </trkpt>
      <trkpt lat="42.005035" lon="2.724227">
        <ele>158.119</ele>
        <time>2021-02-02T10:22:09Z</time>
      </trkpt>
      <trkpt lat="42.005099" lon="2.724203">
        <ele>159.168</ele>
        <time>2021-02-02T10:22:10Z</time>
      </trkpt>
      <trkpt lat="42.005149" lon="2.724149">
        <ele>159.816</ele>
        <time>2021-02-02T10:22:12Z</time>
      </trkpt>
      <trkpt lat="42.005191" lon="2.724073">
        <ele>160.376</ele>
        <time>2021-02-02T10:22:14Z</time>
      </trkpt>
      <trkpt lat="42.005216" lon="2.724019">
        <ele>161.013</ele>
        <time>2021-02-02T10:22:15Z</time>
      </trkpt>
      <trkpt lat="42.005225" lon="2.723909">
        <ele>162.308</ele>
        <time>2021-02-02T10:22:18Z</time>
      </trkpt>
      <trkpt lat="42.005216" lon="2.723827">
        <ele>163.157</ele>
        <time>2021-02-02T10:22:21Z</time>
      </trkpt>
      <trkpt lat="42.005202" lon="2.723746">
        <ele>163.886</ele>
        <time>2021-02-02T10:22:23Z</time>
      </trkpt>
      <trkpt lat="42.005187" lon="2.723680">
        <ele>164.161</ele>
        <time>2021-02-02T10:22:25Z</time>
      </trkpt>
      <trkpt lat="42.005171" lon="2.723600">
        <ele>165.043</ele>
        <time>2021-02-02T10:22:28Z</time>
      </trkpt>
      <trkpt lat="42.005162" lon="2.723535">
        <ele>165.554</ele>
        <time>2021-02-02T10:22:30Z</time>
      </trkpt>
      <trkpt lat="42.005151" lon="2.723472">
        <ele>166.059</ele>
        <time>2021-02-02T10:22:33Z</time>
      </trkpt>
      <trkpt lat="42.005134" lon="2.723401">
        <ele>166.274</ele>
        <time>2021-02-02T10:22:35Z</time>
      </trkpt>
      <trkpt lat="42.005121" lon="2.723331">
        <ele>167.183</ele>
        <time>2021-02-02T10:22:38Z</time>
      </trkpt>
      <trkpt lat="42.005105" lon="2.723255">
        <ele>168.134</ele>
        <time>2021-02-02T10:22:41Z</time>
      </trkpt>
      <trkpt lat="42.005096" lon="2.723193">
        <ele>168.155</ele>
        <time>2021-02-02T10:22:43Z</time>
      </trkpt>
      <trkpt lat="42.005079" lon="2.723125">
        <ele>168.610</ele>
        <time>2021-02-02T10:22:46Z</time>
      </trkpt>
      <trkpt lat="42.005052" lon="2.723060">
        <ele>169.208</ele>
        <time>2021-02-02T10:22:48Z</time>
      </trkpt>
      <trkpt lat="42.005026" lon="2.722989">
        <ele>169.749</ele>
        <time>2021-02-02T10:22:51Z</time>
      </trkpt>
      <trkpt lat="42.004986" lon="2.722942">
        <ele>170.898</ele>
        <time>2021-02-02T10:22:54Z</time>
      </trkpt>
      <trkpt lat="42.004933" lon="2.722932">
        <ele>171.473</ele>
        <time>2021-02-02T10:22:57Z</time>
      </trkpt>
      <trkpt lat="42.004879" lon="2.722904">
        <ele>172.285</ele>
        <time>2021-02-02T10:23:01Z</time>
      </trkpt>
      <trkpt lat="42.004830" lon="2.722873">
        <ele>173.116</ele>
        <time>2021-02-02T10:23:05Z</time>
      </trkpt>
      <trkpt lat="42.004780" lon="2.722833">
        <ele>174.021</ele>
        <time>2021-02-02T10:23:09Z</time>
      </trkpt>
      <trkpt lat="42.004744" lon="2.722774">
        <ele>174.916</ele>
        <time>2021-02-02T10:23:13Z</time>
      </trkpt>
      <trkpt lat="42.004720" lon="2.722712">
        <ele>175.475</ele>
        <time>2021-02-02T10:23:16Z</time>
      </trkpt>
      <trkpt lat="42.004689" lon="2.722654">
        <ele>175.959</ele>
        <time>2021-02-02T10:23:19Z</time>
      </trkpt>
      <trkpt lat="42.004656" lon="2.722604">
        <ele>176.203</ele>
        <time>2021-02-02T10:23:22Z</time>
      </trkpt>
      <trkpt lat="42.004634" lon="2.722542">
        <ele>176.723</ele>
        <time>2021-02-02T10:23:25Z</time>
      </trkpt>
      <trkpt lat="42.004621" lon="2.722478">
        <ele>177.208</ele>
        <time>2021-02-02T10:23:28Z</time>
      </trkpt>
      <trkpt lat="42.004600" lon="2.722419">
        <ele>177.911</ele>
        <time>2021-02-02T10:23:31Z</time>
      </trkpt>
      <trkpt lat="42.004582" lon="2.722360">
        <ele>178.590</ele>
        <time>2021-02-02T10:23:34Z</time>
      </trkpt>
      <trkpt lat="42.004562" lon="2.722298">
        <ele>178.965</ele>
        <time>2021-02-02T10:23:37Z</time>
      </trkpt>
      <trkpt lat="42.004538" lon="2.722233">
        <ele>179.347</ele>
        <time>2021-02-02T10:23:40Z</time>
      </trkpt>
      <trkpt lat="42.004512" lon="2.722174">
        <ele>180.268</ele>
        <time>2021-02-02T10:23:43Z</time>
      </trkpt>
      <trkpt lat="42.004486" lon="2.722124">
        <ele>180.263</ele>
        <time>2021-02-02T10:23:45Z</time>
      </trkpt>
      <trkpt lat="42.004466" lon="2.722050">
        <ele>180.658</ele>
        <time>2021-02-02T10:23:48Z</time>
      </trkpt>
      <trkpt lat="42.004442" lon="2.721995">
        <ele>181.227</ele>
        <time>2021-02-02T10:23:51Z</time>
      </trkpt>
      <trkpt lat="42.004411" lon="2.721943">
        <ele>181.989</ele>
        <time>2021-02-02T10:23:54Z</time>
      </trkpt>
      <trkpt lat="42.004388" lon="2.721878">
        <ele>182.806</ele>
        <time>2021-02-02T10:23:57Z</time>
      </trkpt>
      <trkpt lat="42.004370" lon="2.721815">
        <ele>183.126</ele>
        <time>2021-02-02T10:24:00Z</time>
      </trkpt>
      <trkpt lat="42.004351" lon="2.721745">
        <ele>183.708</ele>
        <time>2021-02-02T10:24:03Z</time>
      </trkpt>
      <trkpt lat="42.004369" lon="2.721687">
        <ele>184.264</ele>
        <time>2021-02-02T10:24:06Z</time>
      </trkpt>
      <trkpt lat="42.004416" lon="2.721641">
        <ele>184.923</ele>
        <time>2021-02-02T10:24:09Z</time>
      </trkpt>
      <trkpt lat="42.004468" lon="2.721625">
        <ele>185.768</ele>
        <time>2021-02-02T10:24:12Z</time>
      </trkpt>
      <trkpt lat="42.004522" lon="2.721615">
        <ele>186.160</ele>
        <time>2021-02-02T10:24:14Z</time>
      </trkpt>
      <trkpt lat="42.004583" lon="2.721604">
        <ele>186.661</ele>
        <time>2021-02-02T10:24:17Z</time>
      </trkpt>
      <trkpt lat="42.004639" lon="2.721588">
        <ele>187.356</ele>
        <time>2021-02-02T10:24:20Z</time>
      </trkpt>
      <trkpt lat="42.004695" lon="2.721561">
        <ele>187.921</ele>
        <time>2021-02-02T10:24:23Z</time>
      </trkpt>
      <trkpt lat="42.004737" lon="2.721520">
        <ele>188.620</ele>
        <time>2021-02-02T10:24:26Z</time>
      </trkpt>
      <trkpt lat="42.004785" lon="2.721475">
        <ele>189.237</ele>
        <time>2021-02-02T10:24:29Z</time>
      </trkpt>
      <trkpt lat="42.004825" lon="2.721416">
        <ele>190.049</ele>
        <time>2021-02-02T10:24:32Z</time>
      </trkpt>
      <trkpt lat="42.004862" lon="2.721363">
        <ele>190.513</ele>
        <time>2021-02-02T10:24:35Z</time>
      </trkpt>
      <trkpt lat="42.004900" lon="2.721300">
        <ele>190.908</ele>
        <time>2021-02-02T10:24:38Z</time>
      </trkpt>
      <trkpt lat="42.004926" lon="2.721247">
        <ele>191.379</ele>
        <time>2021-02-02T10:24:41Z</time>
      </trkpt>
      <trkpt lat="42.004939" lon="2.721183">
        <ele>192.388</ele>
        <time>2021-02-02T10:24:44Z</time>
      </trkpt>
      <trkpt lat="42.004954" lon="2.721122">
        <ele>193.093</ele>
        <time>2021-02-02T10:24:47Z</time>
      </trkpt>
      <trkpt lat="42.004974" lon="2.721059">
        <ele>193.645</ele>
        <time>2021-02-02T10:24:50Z</time>
      </trkpt>
      <trkpt lat="42.004996" lon="2.720992">
        <ele>194.486</ele>
        <time>2021-02-02T10:24:53Z</time>
      </trkpt>
      <trkpt lat="42.005018" lon="2.720937">
        <ele>194.961</ele>
        <time>2021-02-02T10:24:56Z</time>
      </trkpt>
      <trkpt lat="42.005059" lon="2.720879">
        <ele>195.926</ele>
        <time>2021-02-02T10:25:00Z</time>
      </trkpt>
      <trkpt lat="42.005113" lon="2.720866">
        <ele>196.325</ele>
        <time>2021-02-02T10:25:04Z</time>
      </trkpt>
      <trkpt lat="42.005162" lon="2.720864">
        <ele>196.445</ele>
        <time>2021-02-02T10:25:08Z</time>
      </trkpt>
      <trkpt lat="42.005212" lon="2.720877">
        <ele>196.847</ele>
        <time>2021-02-02T10:25:11Z</time>
      </trkpt>
      <trkpt lat="42.005252" lon="2.720909">
        <ele>196.911</ele>
        <time>2021-02-02T10:25:14Z</time>
      </trkpt>
      <trkpt lat="42.005303" lon="2.720926">
        <ele>196.708</ele>
        <time>2021-02-02T10:25:16Z</time>
      </trkpt>
      <trkpt lat="42.005355" lon="2.720932">
        <ele>197.610</ele>
        <time>2021-02-02T10:25:19Z</time>
      </trkpt>
      <trkpt lat="42.005417" lon="2.720930">
        <ele>197.689</ele>
        <time>2021-02-02T10:25:22Z</time>
      </trkpt>
      <trkpt lat="42.005469" lon="2.720937">
        <ele>197.754</ele>
        <time>2021-02-02T10:25:24Z</time>
      </trkpt>
      <trkpt lat="42.005525" lon="2.720916">
        <ele>197.716</ele>
        <time>2021-02-02T10:25:27Z</time>
      </trkpt>
      <trkpt lat="42.005574" lon="2.720879">
        <ele>198.337</ele>
        <time>2021-02-02T10:25:29Z</time>
      </trkpt>
      <trkpt lat="42.005618" lon="2.720865">
        <ele>198.622</ele>
        <time>2021-02-02T10:25:31Z</time>
      </trkpt>
      <trkpt lat="42.005670" lon="2.720869">
        <ele>198.967</ele>
        <time>2021-02-02T10:25:33Z</time>
      </trkpt>
      <trkpt lat="42.005719" lon="2.720843">
        <ele>198.986</ele>
        <time>2021-02-02T10:25:35Z</time>
      </trkpt>
      <trkpt lat="42.005764" lon="2.720807">
        <ele>199.212</ele>
        <time>2021-02-02T10:25:37Z</time>
      </trkpt>
      <trkpt lat="42.005805" lon="2.720761">
        <ele>199.232</ele>
        <time>2021-02-02T10:25:39Z</time>
      </trkpt>
      <trkpt lat="42.005846" lon="2.720720">
        <ele>199.405</ele>
        <time>2021-02-02T10:25:41Z</time>
      </trkpt>
      <trkpt lat="42.005887" lon="2.720671">
        <ele>199.908</ele>
        <time>2021-02-02T10:25:44Z</time>
      </trkpt>
      <trkpt lat="42.005919" lon="2.720622">
        <ele>199.777</ele>
        <time>2021-02-02T10:25:47Z</time>
      </trkpt>
      <trkpt lat="42.005964" lon="2.720575">
        <ele>200.166</ele>
        <time>2021-02-02T10:25:55Z</time>
      </trkpt>
      <trkpt lat="42.006005" lon="2.720535">
        <ele>201.021</ele>
        <time>2021-02-02T10:26:00Z</time>
      </trkpt>
      <trkpt lat="42.006052" lon="2.720507">
        <ele>200.893</ele>
        <time>2021-02-02T10:26:03Z</time>
      </trkpt>
      <trkpt lat="42.006095" lon="2.720478">
        <ele>201.124</ele>
        <time>2021-02-02T10:26:06Z</time>
      </trkpt>
      <trkpt lat="42.006131" lon="2.720438">
        <ele>201.289</ele>
        <time>2021-02-02T10:26:09Z</time>
      </trkpt>
      <trkpt lat="42.006143" lon="2.720371">
        <ele>201.014</ele>
        <time>2021-02-02T10:26:12Z</time>
      </trkpt>
      <trkpt lat="42.006157" lon="2.720313">
        <ele>200.973</ele>
        <time>2021-02-02T10:26:14Z</time>
      </trkpt>
      <trkpt lat="42.006190" lon="2.720237">
        <ele>200.415</ele>
        <time>2021-02-02T10:26:18Z</time>
      </trkpt>
      <trkpt lat="42.006229" lon="2.720196">
        <ele>199.065</ele>
        <time>2021-02-02T10:26:20Z</time>
      </trkpt>
      <trkpt lat="42.006272" lon="2.720178">
        <ele>198.711</ele>
        <time>2021-02-02T10:26:22Z</time>
      </trkpt>
      <trkpt lat="42.006317" lon="2.720129">
        <ele>198.208</ele>
        <time>2021-02-02T10:26:23Z</time>
      </trkpt>
      <trkpt lat="42.006356" lon="2.720067">
        <ele>197.827</ele>
        <time>2021-02-02T10:26:25Z</time>
      </trkpt>
      <trkpt lat="42.006391" lon="2.720013">
        <ele>197.726</ele>
        <time>2021-02-02T10:26:26Z</time>
      </trkpt>
      <trkpt lat="42.006431" lon="2.719960">
        <ele>197.641</ele>
        <time>2021-02-02T10:26:28Z</time>
      </trkpt>
      <trkpt lat="42.006480" lon="2.719896">
        <ele>198.023</ele>
        <time>2021-02-02T10:26:29Z</time>
      </trkpt>
      <trkpt lat="42.006525" lon="2.719862">
        <ele>198.164</ele>
        <time>2021-02-02T10:26:31Z</time>
      </trkpt>
      <trkpt lat="42.006575" lon="2.719853">
        <ele>198.449</ele>
        <time>2021-02-02T10:26:33Z</time>
      </trkpt>
      <trkpt lat="42.006644" lon="2.719826">
        <ele>199.814</ele>
        <time>2021-02-02T10:26:36Z</time>
      </trkpt>
      <trkpt lat="42.006690" lon="2.719795">
        <ele>200.463</ele>
        <time>2021-02-02T10:26:39Z</time>
      </trkpt>
      <trkpt lat="42.006731" lon="2.719743">
        <ele>201.171</ele>
        <time>2021-02-02T10:26:41Z</time>
      </trkpt>
      <trkpt lat="42.006770" lon="2.719702">
        <ele>201.241</ele>
        <time>2021-02-02T10:26:44Z</time>
      </trkpt>
      <trkpt lat="42.006815" lon="2.719658">
        <ele>200.415</ele>
        <time>2021-02-02T10:26:47Z</time>
      </trkpt>
      <trkpt lat="42.006858" lon="2.719623">
        <ele>200.408</ele>
        <time>2021-02-02T10:26:54Z</time>
      </trkpt>
      <trkpt lat="42.006875" lon="2.719550">
        <ele>200.643</ele>
        <time>2021-02-02T10:27:04Z</time>
      </trkpt>
      <trkpt lat="42.006903" lon="2.719501">
        <ele>200.842</ele>
        <time>2021-02-02T10:27:18Z</time>
      </trkpt>
      <trkpt lat="42.006922" lon="2.719425">
        <ele>200.837</ele>
        <time>2021-02-02T10:31:18Z</time>
      </trkpt>
      <trkpt lat="42.006926" lon="2.719326">
        <ele>199.769</ele>
        <time>2021-02-02T10:31:20Z</time>
      </trkpt>
      <trkpt lat="42.006943" lon="2.719239">
        <ele>199.910</ele>
        <time>2021-02-02T10:31:22Z</time>
      </trkpt>
      <trkpt lat="42.006980" lon="2.719200">
        <ele>200.715</ele>
        <time>2021-02-02T10:31:25Z</time>
      </trkpt>
      <trkpt lat="42.007021" lon="2.719164">
        <ele>200.880</ele>
        <time>2021-02-02T10:31:27Z</time>
      </trkpt>
      <trkpt lat="42.007078" lon="2.719155">
        <ele>201.189</ele>
        <time>2021-02-02T10:31:30Z</time>
      </trkpt>
      <trkpt lat="42.007125" lon="2.719169">
        <ele>201.642</ele>
        <time>2021-02-02T10:31:32Z</time>
      </trkpt>
      <trkpt lat="42.007174" lon="2.719213">
        <ele>201.922</ele>
        <time>2021-02-02T10:31:35Z</time>
      </trkpt>
      <trkpt lat="42.007238" lon="2.719262">
        <ele>201.314</ele>
        <time>2021-02-02T10:31:37Z</time>
      </trkpt>
      <trkpt lat="42.007288" lon="2.719298">
        <ele>201.108</ele>
        <time>2021-02-02T10:31:39Z</time>
      </trkpt>
      <trkpt lat="42.007335" lon="2.719318">
        <ele>201.090</ele>
        <time>2021-02-02T10:31:40Z</time>
      </trkpt>
      <trkpt lat="42.007412" lon="2.719329">
        <ele>201.099</ele>
        <time>2021-02-02T10:31:42Z</time>
      </trkpt>
      <trkpt lat="42.007464" lon="2.719302">
        <ele>200.574</ele>
        <time>2021-02-02T10:31:44Z</time>
      </trkpt>
      <trkpt lat="42.007507" lon="2.719252">
        <ele>200.316</ele>
        <time>2021-02-02T10:31:46Z</time>
      </trkpt>
      <trkpt lat="42.007541" lon="2.719202">
        <ele>199.487</ele>
        <time>2021-02-02T10:31:48Z</time>
      </trkpt>
      <trkpt lat="42.007577" lon="2.719147">
        <ele>198.632</ele>
        <time>2021-02-02T10:31:51Z</time>
      </trkpt>
      <trkpt lat="42.007624" lon="2.719113">
        <ele>198.017</ele>
        <time>2021-02-02T10:31:54Z</time>
      </trkpt>
      <trkpt lat="42.007671" lon="2.719116">
        <ele>197.986</ele>
        <time>2021-02-02T10:31:56Z</time>
      </trkpt>
      <trkpt lat="42.007723" lon="2.719151">
        <ele>197.944</ele>
        <time>2021-02-02T10:31:58Z</time>
      </trkpt>
      <trkpt lat="42.007767" lon="2.719209">
        <ele>198.005</ele>
        <time>2021-02-02T10:32:00Z</time>
      </trkpt>
      <trkpt lat="42.007810" lon="2.719276">
        <ele>198.415</ele>
        <time>2021-02-02T10:32:02Z</time>
      </trkpt>
      <trkpt lat="42.007851" lon="2.719340">
        <ele>198.508</ele>
        <time>2021-02-02T10:32:04Z</time>
      </trkpt>
      <trkpt lat="42.007892" lon="2.719396">
        <ele>198.430</ele>
        <time>2021-02-02T10:32:06Z</time>
      </trkpt>
      <trkpt lat="42.007935" lon="2.719451">
        <ele>198.029</ele>
        <time>2021-02-02T10:32:08Z</time>
      </trkpt>
      <trkpt lat="42.007978" lon="2.719496">
        <ele>198.434</ele>
        <time>2021-02-02T10:32:09Z</time>
      </trkpt>
      <trkpt lat="42.008026" lon="2.719551">
        <ele>198.876</ele>
        <time>2021-02-02T10:32:11Z</time>
      </trkpt>
      <trkpt lat="42.008060" lon="2.719593">
        <ele>198.797</ele>
        <time>2021-02-02T10:32:12Z</time>
      </trkpt>
      <trkpt lat="42.008097" lon="2.719638">
        <ele>198.582</ele>
        <time>2021-02-02T10:32:13Z</time>
      </trkpt>
      <trkpt lat="42.008146" lon="2.719675">
        <ele>198.867</ele>
        <time>2021-02-02T10:32:15Z</time>
      </trkpt>
      <trkpt lat="42.008193" lon="2.719701">
        <ele>198.976</ele>
        <time>2021-02-02T10:32:17Z</time>
      </trkpt>
      <trkpt lat="42.008247" lon="2.719708">
        <ele>198.819</ele>
        <time>2021-02-02T10:32:19Z</time>
      </trkpt>
      <trkpt lat="42.008305" lon="2.719704">
        <ele>199.009</ele>
        <time>2021-02-02T10:32:21Z</time>
      </trkpt>
      <trkpt lat="42.008359" lon="2.719687">
        <ele>198.719</ele>
        <time>2021-02-02T10:32:23Z</time>
      </trkpt>
      <trkpt lat="42.008403" lon="2.719673">
        <ele>198.808</ele>
        <time>2021-02-02T10:32:24Z</time>
      </trkpt>
      <trkpt lat="42.008477" lon="2.719660">
        <ele>198.987</ele>
        <time>2021-02-02T10:32:26Z</time>
      </trkpt>
      <trkpt lat="42.008533" lon="2.719643">
        <ele>198.816</ele>
        <time>2021-02-02T10:32:28Z</time>
      </trkpt>
      <trkpt lat="42.008597" lon="2.719629">
        <ele>198.891</ele>
        <time>2021-02-02T10:32:30Z</time>
      </trkpt>
      <trkpt lat="42.008663" lon="2.719617">
        <ele>198.463</ele>
        <time>2021-02-02T10:32:32Z</time>
      </trkpt>
      <trkpt lat="42.008723" lon="2.719610">
        <ele>198.214</ele>
        <time>2021-02-02T10:32:33Z</time>
      </trkpt>
      <trkpt lat="42.008790" lon="2.719603">
        <ele>198.399</ele>
        <time>2021-02-02T10:32:35Z</time>
      </trkpt>
      <trkpt lat="42.008853" lon="2.719592">
        <ele>197.574</ele>
        <time>2021-02-02T10:32:37Z</time>
      </trkpt>
      <trkpt lat="42.008901" lon="2.719614">
        <ele>198.873</ele>
        <time>2021-02-02T10:32:47Z</time>
      </trkpt>
      <trkpt lat="42.008926" lon="2.719552">
        <ele>197.912</ele>
        <time>2021-02-02T10:33:43Z</time>
      </trkpt>
      <trkpt lat="42.008951" lon="2.719479">
        <ele>197.632</ele>
        <time>2021-02-02T10:33:46Z</time>
      </trkpt>
      <trkpt lat="42.008971" lon="2.719408">
        <ele>197.505</ele>
        <time>2021-02-02T10:33:48Z</time>
      </trkpt>
      <trkpt lat="42.008995" lon="2.719330">
        <ele>196.908</ele>
        <time>2021-02-02T10:33:50Z</time>
      </trkpt>
      <trkpt lat="42.009026" lon="2.719249">
        <ele>196.497</ele>
        <time>2021-02-02T10:33:52Z</time>
      </trkpt>
      <trkpt lat="42.009041" lon="2.719177">
        <ele>196.016</ele>
        <time>2021-02-02T10:33:54Z</time>
      </trkpt>
      <trkpt lat="42.009048" lon="2.719114">
        <ele>195.471</ele>
        <time>2021-02-02T10:33:57Z</time>
      </trkpt>
      <trkpt lat="42.009064" lon="2.719057">
        <ele>194.383</ele>
        <time>2021-02-02T10:34:11Z</time>
      </trkpt>
      <trkpt lat="42.009097" lon="2.718988">
        <ele>193.924</ele>
        <time>2021-02-02T10:34:29Z</time>
      </trkpt>
      <trkpt lat="42.009113" lon="2.718930">
        <ele>193.459</ele>
        <time>2021-02-02T10:34:33Z</time>
      </trkpt>
      <trkpt lat="42.009135" lon="2.718875">
        <ele>193.074</ele>
        <time>2021-02-02T10:34:36Z</time>
      </trkpt>
      <trkpt lat="42.009159" lon="2.718821">
        <ele>192.763</ele>
        <time>2021-02-02T10:34:41Z</time>
      </trkpt>
      <trkpt lat="42.009198" lon="2.718767">
        <ele>192.233</ele>
        <time>2021-02-02T10:34:44Z</time>
      </trkpt>
      <trkpt lat="42.009212" lon="2.718695">
        <ele>191.623</ele>
        <time>2021-02-02T10:34:50Z</time>
      </trkpt>
      <trkpt lat="42.009243" lon="2.718629">
        <ele>191.315</ele>
        <time>2021-02-02T10:34:54Z</time>
      </trkpt>
      <trkpt lat="42.009272" lon="2.718579">
        <ele>191.008</ele>
        <time>2021-02-02T10:34:57Z</time>
      </trkpt>
      <trkpt lat="42.009299" lon="2.718527">
        <ele>190.479</ele>
        <time>2021-02-02T10:35:02Z</time>
      </trkpt>
      <trkpt lat="42.009326" lon="2.718455">
        <ele>189.938</ele>
        <time>2021-02-02T10:35:30Z</time>
      </trkpt>
      <trkpt lat="42.009345" lon="2.718387">
        <ele>189.393</ele>
        <time>2021-02-02T10:35:35Z</time>
      </trkpt>
      <trkpt lat="42.009374" lon="2.718340">
        <ele>188.555</ele>
        <time>2021-02-02T10:35:44Z</time>
      </trkpt>
      <trkpt lat="42.009395" lon="2.718282">
        <ele>186.436</ele>
        <time>2021-02-02T10:35:56Z</time>
      </trkpt>
      <trkpt lat="42.009415" lon="2.718223">
        <ele>186.741</ele>
        <time>2021-02-02T10:36:02Z</time>
      </trkpt>
      <trkpt lat="42.009431" lon="2.718150">
        <ele>185.916</ele>
        <time>2021-02-02T10:36:05Z</time>
      </trkpt>
      <trkpt lat="42.009454" lon="2.718085">
        <ele>185.885</ele>
        <time>2021-02-02T10:36:08Z</time>
      </trkpt>
      <trkpt lat="42.009467" lon="2.718023">
        <ele>185.546</ele>
        <time>2021-02-02T10:36:11Z</time>
      </trkpt>
      <trkpt lat="42.009484" lon="2.717967">
        <ele>184.488</ele>
        <time>2021-02-02T10:36:19Z</time>
      </trkpt>
      <trkpt lat="42.009511" lon="2.717892">
        <ele>183.416</ele>
        <time>2021-02-02T10:36:22Z</time>
      </trkpt>
      <trkpt lat="42.009525" lon="2.717823">
        <ele>182.908</ele>
        <time>2021-02-02T10:36:30Z</time>
      </trkpt>
      <trkpt lat="42.009524" lon="2.717751">
        <ele>181.910</ele>
        <time>2021-02-02T10:36:35Z</time>
      </trkpt>
      <trkpt lat="42.009540" lon="2.717690">
        <ele>181.469</ele>
        <time>2021-02-02T10:36:49Z</time>
      </trkpt>
      <trkpt lat="42.009568" lon="2.717633">
        <ele>181.114</ele>
        <time>2021-02-02T10:36:51Z</time>
      </trkpt>
      <trkpt lat="42.009599" lon="2.717580">
        <ele>180.766</ele>
        <time>2021-02-02T10:36:53Z</time>
      </trkpt>
      <trkpt lat="42.009618" lon="2.717520">
        <ele>180.427</ele>
        <time>2021-02-02T10:36:54Z</time>
      </trkpt>
      <trkpt lat="42.009647" lon="2.717428">
        <ele>180.032</ele>
        <time>2021-02-02T10:36:56Z</time>
      </trkpt>
      <trkpt lat="42.009678" lon="2.717360">
        <ele>180.217</ele>
        <time>2021-02-02T10:36:57Z</time>
      </trkpt>
      <trkpt lat="42.009705" lon="2.717311">
        <ele>180.196</ele>
        <time>2021-02-02T10:36:58Z</time>
      </trkpt>
      <trkpt lat="42.009741" lon="2.717257">
        <ele>179.782</ele>
        <time>2021-02-02T10:37:00Z</time>
      </trkpt>
      <trkpt lat="42.009766" lon="2.717198">
        <ele>179.143</ele>
        <time>2021-02-02T10:37:02Z</time>
      </trkpt>
      <trkpt lat="42.009810" lon="2.717133">
        <ele>177.917</ele>
        <time>2021-02-02T10:37:04Z</time>
      </trkpt>
      <trkpt lat="42.009861" lon="2.717062">
        <ele>177.308</ele>
        <time>2021-02-02T10:37:06Z</time>
      </trkpt>
      <trkpt lat="42.009892" lon="2.717014">
        <ele>175.244</ele>
        <time>2021-02-02T10:37:09Z</time>
      </trkpt>
      <trkpt lat="42.009915" lon="2.716953">
        <ele>176.493</ele>
        <time>2021-02-02T10:37:13Z</time>
      </trkpt>
      <trkpt lat="42.009946" lon="2.716900">
        <ele>175.788</ele>
        <time>2021-02-02T10:37:16Z</time>
      </trkpt>
      <trkpt lat="42.009976" lon="2.716826">
        <ele>174.730</ele>
        <time>2021-02-02T10:37:20Z</time>
      </trkpt>
      <trkpt lat="42.010012" lon="2.716774">
        <ele>174.051</ele>
        <time>2021-02-02T10:37:30Z</time>
      </trkpt>
      <trkpt lat="42.010054" lon="2.716738">
        <ele>173.626</ele>
        <time>2021-02-02T10:37:34Z</time>
      </trkpt>
      <trkpt lat="42.010099" lon="2.716713">
        <ele>173.351</ele>
        <time>2021-02-02T10:37:38Z</time>
      </trkpt>
      <trkpt lat="42.010160" lon="2.716680">
        <ele>172.520</ele>
        <time>2021-02-02T10:37:46Z</time>
      </trkpt>
      <trkpt lat="42.010210" lon="2.716643">
        <ele>172.052</ele>
        <time>2021-02-02T10:37:48Z</time>
      </trkpt>
      <trkpt lat="42.010252" lon="2.716598">
        <ele>171.653</ele>
        <time>2021-02-02T10:37:50Z</time>
      </trkpt>
      <trkpt lat="42.010302" lon="2.716560">
        <ele>170.808</ele>
        <time>2021-02-02T10:37:52Z</time>
      </trkpt>
      <trkpt lat="42.010354" lon="2.716514">
        <ele>170.508</ele>
        <time>2021-02-02T10:37:54Z</time>
      </trkpt>
      <trkpt lat="42.010403" lon="2.716464">
        <ele>170.141</ele>
        <time>2021-02-02T10:37:56Z</time>
      </trkpt>
      <trkpt lat="42.010448" lon="2.716443">
        <ele>170.050</ele>
        <time>2021-02-02T10:38:01Z</time>
      </trkpt>
      <trkpt lat="42.010492" lon="2.716414">
        <ele>169.335</ele>
        <time>2021-02-02T10:38:05Z</time>
      </trkpt>
      <trkpt lat="42.010543" lon="2.716364">
        <ele>168.517</ele>
        <time>2021-02-02T10:38:09Z</time>
      </trkpt>
      <trkpt lat="42.010582" lon="2.716300">
        <ele>167.468</ele>
        <time>2021-02-02T10:38:15Z</time>
      </trkpt>
      <trkpt lat="42.010627" lon="2.716245">
        <ele>167.443</ele>
        <time>2021-02-02T10:38:20Z</time>
      </trkpt>
      <trkpt lat="42.010645" lon="2.716164">
        <ele>167.478</ele>
        <time>2021-02-02T10:38:25Z</time>
      </trkpt>
      <trkpt lat="42.010660" lon="2.716102">
        <ele>166.697</ele>
        <time>2021-02-02T10:38:31Z</time>
      </trkpt>
      <trkpt lat="42.010696" lon="2.716064">
        <ele>166.047</ele>
        <time>2021-02-02T10:39:18Z</time>
      </trkpt>
      <trkpt lat="42.010725" lon="2.716013">
        <ele>164.629</ele>
        <time>2021-02-02T10:39:28Z</time>
      </trkpt>
      <trkpt lat="42.010746" lon="2.715950">
        <ele>163.921</ele>
        <time>2021-02-02T10:40:21Z</time>
      </trkpt>
      <trkpt lat="42.010750" lon="2.715887">
        <ele>162.508</ele>
        <time>2021-02-02T10:40:34Z</time>
      </trkpt>
      <trkpt lat="42.010770" lon="2.715831">
        <ele>161.780</ele>
        <time>2021-02-02T10:40:39Z</time>
      </trkpt>
      <trkpt lat="42.010793" lon="2.715772">
        <ele>160.769</ele>
        <time>2021-02-02T10:40:45Z</time>
      </trkpt>
      <trkpt lat="42.010813" lon="2.715712">
        <ele>159.924</ele>
        <time>2021-02-02T10:40:52Z</time>
      </trkpt>
      <trkpt lat="42.010855" lon="2.715661">
        <ele>159.046</ele>
        <time>2021-02-02T10:40:58Z</time>
      </trkpt>
      <trkpt lat="42.010884" lon="2.715614">
        <ele>157.297</ele>
        <time>2021-02-02T10:41:11Z</time>
      </trkpt>
      <trkpt lat="42.010923" lon="2.715566">
        <ele>156.062</ele>
        <time>2021-02-02T10:41:19Z</time>
      </trkpt>
      <trkpt lat="42.010963" lon="2.715527">
        <ele>155.027</ele>
        <time>2021-02-02T10:41:23Z</time>
      </trkpt>
      <trkpt lat="42.010999" lon="2.715483">
        <ele>153.986</ele>
        <time>2021-02-02T10:41:31Z</time>
      </trkpt>
      <trkpt lat="42.011037" lon="2.715441">
        <ele>153.468</ele>
        <time>2021-02-02T10:41:34Z</time>
      </trkpt>
      <trkpt lat="42.011070" lon="2.715399">
        <ele>152.342</ele>
        <time>2021-02-02T10:41:40Z</time>
      </trkpt>
      <trkpt lat="42.011101" lon="2.715350">
        <ele>151.226</ele>
        <time>2021-02-02T10:41:52Z</time>
      </trkpt>
      <trkpt lat="42.011132" lon="2.715305">
        <ele>150.308</ele>
        <time>2021-02-02T10:41:59Z</time>
      </trkpt>
      <trkpt lat="42.011161" lon="2.715251">
        <ele>149.822</ele>
        <time>2021-02-02T10:42:10Z</time>
      </trkpt>
      <trkpt lat="42.011181" lon="2.715194">
        <ele>151.161</ele>
        <time>2021-02-02T10:42:47Z</time>
      </trkpt>
      <trkpt lat="42.011202" lon="2.715135">
        <ele>148.336</ele>
        <time>2021-02-02T10:43:01Z</time>
      </trkpt>
      <trkpt lat="42.011222" lon="2.715073">
        <ele>147.488</ele>
        <time>2021-02-02T10:43:07Z</time>
      </trkpt>
      <trkpt lat="42.011251" lon="2.715023">
        <ele>146.299</ele>
        <time>2021-02-02T10:43:15Z</time>
      </trkpt>
      <trkpt lat="42.011279" lon="2.714971">
        <ele>145.244</ele>
        <time>2021-02-02T10:43:25Z</time>
      </trkpt>
      <trkpt lat="42.011297" lon="2.714915">
        <ele>145.129</ele>
        <time>2021-02-02T10:43:27Z</time>
      </trkpt>
      <trkpt lat="42.011310" lon="2.714855">
        <ele>144.568</ele>
        <time>2021-02-02T10:43:30Z</time>
      </trkpt>
      <trkpt lat="42.011347" lon="2.714815">
        <ele>143.619</ele>
        <time>2021-02-02T10:43:40Z</time>
      </trkpt>
      <trkpt lat="42.011376" lon="2.714767">
        <ele>143.309</ele>
        <time>2021-02-02T10:43:48Z</time>
      </trkpt>
      <trkpt lat="42.011413" lon="2.714717">
        <ele>142.719</ele>
        <time>2021-02-02T10:43:51Z</time>
      </trkpt>
      <trkpt lat="42.011448" lon="2.714675">
        <ele>142.208</ele>
        <time>2021-02-02T10:43:53Z</time>
      </trkpt>
      <trkpt lat="42.011479" lon="2.714629">
        <ele>142.037</ele>
        <time>2021-02-02T10:43:55Z</time>
      </trkpt>
      <trkpt lat="42.011513" lon="2.714586">
        <ele>142.026</ele>
        <time>2021-02-02T10:43:57Z</time>
      </trkpt>
      <trkpt lat="42.011549" lon="2.714526">
        <ele>142.231</ele>
        <time>2021-02-02T10:43:59Z</time>
      </trkpt>
      <trkpt lat="42.011578" lon="2.714469">
        <ele>141.723</ele>
        <time>2021-02-02T10:44:01Z</time>
      </trkpt>
      <trkpt lat="42.011614" lon="2.714424">
        <ele>142.224</ele>
        <time>2021-02-02T10:44:04Z</time>
      </trkpt>
      <trkpt lat="42.011658" lon="2.714400">
        <ele>142.129</ele>
        <time>2021-02-02T10:44:34Z</time>
      </trkpt>
      <trkpt lat="42.011700" lon="2.714379">
        <ele>142.094</ele>
        <time>2021-02-02T10:45:33Z</time>
      </trkpt>
      <trkpt lat="42.011688" lon="2.714319">
        <ele>142.293</ele>
        <time>2021-02-02T10:46:38Z</time>
      </trkpt>
      <trkpt lat="42.011705" lon="2.714259">
        <ele>142.548</ele>
        <time>2021-02-02T10:46:41Z</time>
      </trkpt>
      <trkpt lat="42.011735" lon="2.714180">
        <ele>141.961</ele>
        <time>2021-02-02T10:46:44Z</time>
      </trkpt>
      <trkpt lat="42.011760" lon="2.714124">
        <ele>142.117</ele>
        <time>2021-02-02T10:46:47Z</time>
      </trkpt>
      <trkpt lat="42.011790" lon="2.714059">
        <ele>142.308</ele>
        <time>2021-02-02T10:46:50Z</time>
      </trkpt>
      <trkpt lat="42.011821" lon="2.714004">
        <ele>141.750</ele>
        <time>2021-02-02T10:46:52Z</time>
      </trkpt>
      <trkpt lat="42.011851" lon="2.713956">
        <ele>141.629</ele>
        <time>2021-02-02T10:46:53Z</time>
      </trkpt>
      <trkpt lat="42.011887" lon="2.713896">
        <ele>141.394</ele>
        <time>2021-02-02T10:46:56Z</time>
      </trkpt>
      <trkpt lat="42.011923" lon="2.713835">
        <ele>141.426</ele>
        <time>2021-02-02T10:46:58Z</time>
      </trkpt>
      <trkpt lat="42.011962" lon="2.713759">
        <ele>141.437</ele>
        <time>2021-02-02T10:47:01Z</time>
      </trkpt>
      <trkpt lat="42.011992" lon="2.713703">
        <ele>141.792</ele>
        <time>2021-02-02T10:47:03Z</time>
      </trkpt>
      <trkpt lat="42.012022" lon="2.713655">
        <ele>141.597</ele>
        <time>2021-02-02T10:47:04Z</time>
      </trkpt>
      <trkpt lat="42.012064" lon="2.713586">
        <ele>141.836</ele>
        <time>2021-02-02T10:47:06Z</time>
      </trkpt>
      <trkpt lat="42.012116" lon="2.713500">
        <ele>141.974</ele>
        <time>2021-02-02T10:47:08Z</time>
      </trkpt>
      <trkpt lat="42.012160" lon="2.713434">
        <ele>142.156</ele>
        <time>2021-02-02T10:47:10Z</time>
      </trkpt>
      <trkpt lat="42.012201" lon="2.713356">
        <ele>142.421</ele>
        <time>2021-02-02T10:47:12Z</time>
      </trkpt>
      <trkpt lat="42.012232" lon="2.713300">
        <ele>142.708</ele>
        <time>2021-02-02T10:47:14Z</time>
      </trkpt>
      <trkpt lat="42.012268" lon="2.713243">
        <ele>142.423</ele>
        <time>2021-02-02T10:47:15Z</time>
      </trkpt>
      <trkpt lat="42.012307" lon="2.713185">
        <ele>142.882</ele>
        <time>2021-02-02T10:47:17Z</time>
      </trkpt>
      <trkpt lat="42.012344" lon="2.713124">
        <ele>143.037</ele>
        <time>2021-02-02T10:47:18Z</time>
      </trkpt>
      <trkpt lat="42.012374" lon="2.713073">
        <ele>143.259</ele>
        <time>2021-02-02T10:47:20Z</time>
      </trkpt>
      <trkpt lat="42.012406" lon="2.713012">
        <ele>143.310</ele>
        <time>2021-02-02T10:47:21Z</time>
      </trkpt>
      <trkpt lat="42.012441" lon="2.712950">
        <ele>144.095</ele>
        <time>2021-02-02T10:47:23Z</time>
      </trkpt>
      <trkpt lat="42.012484" lon="2.712893">
        <ele>144.010</ele>
        <time>2021-02-02T10:47:25Z</time>
      </trkpt>
      <trkpt lat="42.012516" lon="2.712842">
        <ele>144.119</ele>
        <time>2021-02-02T10:47:26Z</time>
      </trkpt>
      <trkpt lat="42.012544" lon="2.712790">
        <ele>144.473</ele>
        <time>2021-02-02T10:47:28Z</time>
      </trkpt>
      <trkpt lat="42.012585" lon="2.712728">
        <ele>145.385</ele>
        <time>2021-02-02T10:47:31Z</time>
      </trkpt>
      <trkpt lat="42.012636" lon="2.712659">
        <ele>145.113</ele>
        <time>2021-02-02T10:47:34Z</time>
      </trkpt>
      <trkpt lat="42.012671" lon="2.712618">
        <ele>145.608</ele>
        <time>2021-02-02T10:47:36Z</time>
      </trkpt>
      <trkpt lat="42.012710" lon="2.712570">
        <ele>145.813</ele>
        <time>2021-02-02T10:47:39Z</time>
      </trkpt>
      <trkpt lat="42.012763" lon="2.712503">
        <ele>145.562</ele>
        <time>2021-02-02T10:47:41Z</time>
      </trkpt>
      <trkpt lat="42.012814" lon="2.712432">
        <ele>145.577</ele>
        <time>2021-02-02T10:47:43Z</time>
      </trkpt>
      <trkpt lat="42.012853" lon="2.712382">
        <ele>145.079</ele>
        <time>2021-02-02T10:47:45Z</time>
      </trkpt>
      <trkpt lat="42.012902" lon="2.712330">
        <ele>144.550</ele>
        <time>2021-02-02T10:47:47Z</time>
      </trkpt>
      <trkpt lat="42.012940" lon="2.712290">
        <ele>144.575</ele>
        <time>2021-02-02T10:47:48Z</time>
      </trkpt>
      <trkpt lat="42.012978" lon="2.712252">
        <ele>144.590</ele>
        <time>2021-02-02T10:47:50Z</time>
      </trkpt>
      <trkpt lat="42.013022" lon="2.712213">
        <ele>144.129</ele>
        <time>2021-02-02T10:47:51Z</time>
      </trkpt>
      <trkpt lat="42.013069" lon="2.712164">
        <ele>143.974</ele>
        <time>2021-02-02T10:47:52Z</time>
      </trkpt>
      <trkpt lat="42.013130" lon="2.712099">
        <ele>143.556</ele>
        <time>2021-02-02T10:47:54Z</time>
      </trkpt>
      <trkpt lat="42.013193" lon="2.712031">
        <ele>143.821</ele>
        <time>2021-02-02T10:47:56Z</time>
      </trkpt>
      <trkpt lat="42.013262" lon="2.711963">
        <ele>143.308</ele>
        <time>2021-02-02T10:47:58Z</time>
      </trkpt>
      <trkpt lat="42.013308" lon="2.711902">
        <ele>143.593</ele>
        <time>2021-02-02T10:47:59Z</time>
      </trkpt>
      <trkpt lat="42.013353" lon="2.711840">
        <ele>143.522</ele>
        <time>2021-02-02T10:48:01Z</time>
      </trkpt>
      <trkpt lat="42.013388" lon="2.711793">
        <ele>143.417</ele>
        <time>2021-02-02T10:48:02Z</time>
      </trkpt>
      <trkpt lat="42.013423" lon="2.711743">
        <ele>143.589</ele>
        <time>2021-02-02T10:48:03Z</time>
      </trkpt>
      <trkpt lat="42.013457" lon="2.711688">
        <ele>143.390</ele>
        <time>2021-02-02T10:48:05Z</time>
      </trkpt>
      <trkpt lat="42.013495" lon="2.711628">
        <ele>143.325</ele>
        <time>2021-02-02T10:48:07Z</time>
      </trkpt>
      <trkpt lat="42.013532" lon="2.711583">
        <ele>143.380</ele>
        <time>2021-02-02T10:48:09Z</time>
      </trkpt>
      <trkpt lat="42.013570" lon="2.711534">
        <ele>142.969</ele>
        <time>2021-02-02T10:48:11Z</time>
      </trkpt>
      <trkpt lat="42.013607" lon="2.711494">
        <ele>141.873</ele>
        <time>2021-02-02T10:48:13Z</time>
      </trkpt>
      <trkpt lat="42.013644" lon="2.711450">
        <ele>142.785</ele>
        <time>2021-02-02T10:48:16Z</time>
      </trkpt>
      <trkpt lat="42.013692" lon="2.711446">
        <ele>142.213</ele>
        <time>2021-02-02T10:48:24Z</time>
      </trkpt>
      <trkpt lat="42.013737" lon="2.711464">
        <ele>141.708</ele>
        <time>2021-02-02T10:48:56Z</time>
      </trkpt>
      <trkpt lat="42.013763" lon="2.711414">
        <ele>141.813</ele>
        <time>2021-02-02T10:52:16Z</time>
      </trkpt>
      <trkpt lat="42.013768" lon="2.711475">
        <ele>142.342</ele>
        <time>2021-02-02T10:53:13Z</time>
      </trkpt>
      <trkpt lat="42.013789" lon="2.711530">
        <ele>143.367</ele>
        <time>2021-02-02T10:53:47Z</time>
      </trkpt>
      <trkpt lat="42.013827" lon="2.711568">
        <ele>144.439</ele>
        <time>2021-02-02T10:53:52Z</time>
      </trkpt>
      <trkpt lat="42.013872" lon="2.711568">
        <ele>145.340</ele>
        <time>2021-02-02T10:53:59Z</time>
      </trkpt>
      <trkpt lat="42.013920" lon="2.711548">
        <ele>146.115</ele>
        <time>2021-02-02T10:54:09Z</time>
      </trkpt>
      <trkpt lat="42.013968" lon="2.711539">
        <ele>147.210</ele>
        <time>2021-02-02T10:54:14Z</time>
      </trkpt>
      <trkpt lat="42.013947" lon="2.711484">
        <ele>144.729</ele>
        <time>2021-02-02T10:54:34Z</time>
      </trkpt>
      <trkpt lat="42.013992" lon="2.711453">
        <ele>144.194</ele>
        <time>2021-02-02T10:54:44Z</time>
      </trkpt>
      <trkpt lat="42.014030" lon="2.711416">
        <ele>145.157</ele>
        <time>2021-02-02T10:54:46Z</time>
      </trkpt>
      <trkpt lat="42.014067" lon="2.711367">
        <ele>144.822</ele>
        <time>2021-02-02T10:54:48Z</time>
      </trkpt>
      <trkpt lat="42.014110" lon="2.711291">
        <ele>144.308</ele>
        <time>2021-02-02T10:54:50Z</time>
      </trkpt>
      <trkpt lat="42.014141" lon="2.711234">
        <ele>144.345</ele>
        <time>2021-02-02T10:54:52Z</time>
      </trkpt>
      <trkpt lat="42.014174" lon="2.711190">
        <ele>143.794</ele>
        <time>2021-02-02T10:55:05Z</time>
      </trkpt>
      <trkpt lat="42.014187" lon="2.711119">
        <ele>143.789</ele>
        <time>2021-02-02T10:55:10Z</time>
      </trkpt>
      <trkpt lat="42.014205" lon="2.711060">
        <ele>142.941</ele>
        <time>2021-02-02T10:55:28Z</time>
      </trkpt>
      <trkpt lat="42.014233" lon="2.711012">
        <ele>146.532</ele>
        <time>2021-02-02T10:55:46Z</time>
      </trkpt>
      <trkpt lat="42.014250" lon="2.710952">
        <ele>142.487</ele>
        <time>2021-02-02T10:55:57Z</time>
      </trkpt>
      <trkpt lat="42.014265" lon="2.710888">
        <ele>143.762</ele>
        <time>2021-02-02T10:56:05Z</time>
      </trkpt>
      <trkpt lat="42.014277" lon="2.710826">
        <ele>143.061</ele>
        <time>2021-02-02T10:56:12Z</time>
      </trkpt>
      <trkpt lat="42.014301" lon="2.710762">
        <ele>143.656</ele>
        <time>2021-02-02T10:56:19Z</time>
      </trkpt>
      <trkpt lat="42.014330" lon="2.710711">
        <ele>144.059</ele>
        <time>2021-02-02T10:56:26Z</time>
      </trkpt>
      <trkpt lat="42.014367" lon="2.710666">
        <ele>143.514</ele>
        <time>2021-02-02T10:56:31Z</time>
      </trkpt>
      <trkpt lat="42.014407" lon="2.710638">
        <ele>142.908</ele>
        <time>2021-02-02T10:56:35Z</time>
      </trkpt>
      <trkpt lat="42.014443" lon="2.710599">
        <ele>144.511</ele>
        <time>2021-02-02T10:56:39Z</time>
      </trkpt>
      <trkpt lat="42.014482" lon="2.710559">
        <ele>143.590</ele>
        <time>2021-02-02T10:56:46Z</time>
      </trkpt>
      <trkpt lat="42.014531" lon="2.710533">
        <ele>143.655</ele>
        <time>2021-02-02T10:57:00Z</time>
      </trkpt>
      <trkpt lat="42.014576" lon="2.710490">
        <ele>144.057</ele>
        <time>2021-02-02T10:57:04Z</time>
      </trkpt>
      <trkpt lat="42.014608" lon="2.710441">
        <ele>143.948</ele>
        <time>2021-02-02T10:57:09Z</time>
      </trkpt>
      <trkpt lat="42.014633" lon="2.710390">
        <ele>143.383</ele>
        <time>2021-02-02T10:57:32Z</time>
      </trkpt>
      <trkpt lat="42.014658" lon="2.710339">
        <ele>145.188</ele>
        <time>2021-02-02T10:57:37Z</time>
      </trkpt>
      <trkpt lat="42.014700" lon="2.710287">
        <ele>144.047</ele>
        <time>2021-02-02T10:57:40Z</time>
      </trkpt>
      <trkpt lat="42.014733" lon="2.710245">
        <ele>144.469</ele>
        <time>2021-02-02T10:57:41Z</time>
      </trkpt>
      <trkpt lat="42.014768" lon="2.710200">
        <ele>143.004</ele>
        <time>2021-02-02T10:57:43Z</time>
      </trkpt>
      <trkpt lat="42.014800" lon="2.710156">
        <ele>144.424</ele>
        <time>2021-02-02T10:57:45Z</time>
      </trkpt>
      <trkpt lat="42.014833" lon="2.710112">
        <ele>144.108</ele>
        <time>2021-02-02T10:57:47Z</time>
      </trkpt>
      <trkpt lat="42.014868" lon="2.710065">
        <ele>144.232</ele>
        <time>2021-02-02T10:57:51Z</time>
      </trkpt>
      <trkpt lat="42.014898" lon="2.710018">
        <ele>143.581</ele>
        <time>2021-02-02T10:58:00Z</time>
      </trkpt>
      <trkpt lat="42.014916" lon="2.709959">
        <ele>144.356</ele>
        <time>2021-02-02T10:58:07Z</time>
      </trkpt>
      <trkpt lat="42.014941" lon="2.709899">
        <ele>144.188</ele>
        <time>2021-02-02T10:58:18Z</time>
      </trkpt>
      <trkpt lat="42.014972" lon="2.709846">
        <ele>143.919</ele>
        <time>2021-02-02T10:58:23Z</time>
      </trkpt>
      <trkpt lat="42.015012" lon="2.709806">
        <ele>145.154</ele>
        <time>2021-02-02T10:58:27Z</time>
      </trkpt>
      <trkpt lat="42.015051" lon="2.709764">
        <ele>146.379</ele>
        <time>2021-02-02T10:58:31Z</time>
      </trkpt>
      <trkpt lat="42.015088" lon="2.709720">
        <ele>146.538</ele>
        <time>2021-02-02T10:58:34Z</time>
      </trkpt>
      <trkpt lat="42.015118" lon="2.709671">
        <ele>146.834</ele>
        <time>2021-02-02T10:58:37Z</time>
      </trkpt>
      <trkpt lat="42.015149" lon="2.709615">
        <ele>147.155</ele>
        <time>2021-02-02T10:58:41Z</time>
      </trkpt>
      <trkpt lat="42.015184" lon="2.709566">
        <ele>145.710</ele>
        <time>2021-02-02T10:58:44Z</time>
      </trkpt>
      <trkpt lat="42.015212" lon="2.709511">
        <ele>146.508</ele>
        <time>2021-02-02T10:58:48Z</time>
      </trkpt>
      <trkpt lat="42.015235" lon="2.709455">
        <ele>147.239</ele>
        <time>2021-02-02T10:58:51Z</time>
      </trkpt>
      <trkpt lat="42.015261" lon="2.709400">
        <ele>148.618</ele>
        <time>2021-02-02T10:58:53Z</time>
      </trkpt>
      <trkpt lat="42.015312" lon="2.709306">
        <ele>148.013</ele>
        <time>2021-02-02T10:58:55Z</time>
      </trkpt>
      <trkpt lat="42.015365" lon="2.709212">
        <ele>148.165</ele>
        <time>2021-02-02T10:58:57Z</time>
      </trkpt>
      <trkpt lat="42.015401" lon="2.709149">
        <ele>147.986</ele>
        <time>2021-02-02T10:58:58Z</time>
      </trkpt>
      <trkpt lat="42.015437" lon="2.709086">
        <ele>147.961</ele>
        <time>2021-02-02T10:59:00Z</time>
      </trkpt>
      <trkpt lat="42.015468" lon="2.709032">
        <ele>148.466</ele>
        <time>2021-02-02T10:59:01Z</time>
      </trkpt>
      <trkpt lat="42.015495" lon="2.708971">
        <ele>148.745</ele>
        <time>2021-02-02T10:59:03Z</time>
      </trkpt>
      <trkpt lat="42.015529" lon="2.708906">
        <ele>148.675</ele>
        <time>2021-02-02T10:59:05Z</time>
      </trkpt>
      <trkpt lat="42.015557" lon="2.708849">
        <ele>148.628</ele>
        <time>2021-02-02T10:59:06Z</time>
      </trkpt>
      <trkpt lat="42.015579" lon="2.708793">
        <ele>148.820</ele>
        <time>2021-02-02T10:59:08Z</time>
      </trkpt>
      <trkpt lat="42.015607" lon="2.708728">
        <ele>148.608</ele>
        <time>2021-02-02T10:59:09Z</time>
      </trkpt>
      <trkpt lat="42.015644" lon="2.708644">
        <ele>148.843</ele>
        <time>2021-02-02T10:59:11Z</time>
      </trkpt>
      <trkpt lat="42.015672" lon="2.708581">
        <ele>149.042</ele>
        <time>2021-02-02T10:59:13Z</time>
      </trkpt>
      <trkpt lat="42.015702" lon="2.708521">
        <ele>148.837</ele>
        <time>2021-02-02T10:59:14Z</time>
      </trkpt>
      <trkpt lat="42.015733" lon="2.708455">
        <ele>149.549</ele>
        <time>2021-02-02T10:59:16Z</time>
      </trkpt>
      <trkpt lat="42.015771" lon="2.708373">
        <ele>149.690</ele>
        <time>2021-02-02T10:59:18Z</time>
      </trkpt>
      <trkpt lat="42.015813" lon="2.708284">
        <ele>149.635</ele>
        <time>2021-02-02T10:59:20Z</time>
      </trkpt>
      <trkpt lat="42.015843" lon="2.708222">
        <ele>149.510</ele>
        <time>2021-02-02T10:59:22Z</time>
      </trkpt>
      <trkpt lat="42.015878" lon="2.708160">
        <ele>150.199</ele>
        <time>2021-02-02T10:59:24Z</time>
      </trkpt>
      <trkpt lat="42.015920" lon="2.708089">
        <ele>149.912</ele>
        <time>2021-02-02T10:59:27Z</time>
      </trkpt>
      <trkpt lat="42.015960" lon="2.708009">
        <ele>149.732</ele>
        <time>2021-02-02T10:59:29Z</time>
      </trkpt>
      <trkpt lat="42.016005" lon="2.707932">
        <ele>149.705</ele>
        <time>2021-02-02T10:59:31Z</time>
      </trkpt>
      <trkpt lat="42.016042" lon="2.707872">
        <ele>148.708</ele>
        <time>2021-02-02T10:59:33Z</time>
      </trkpt>
      <trkpt lat="42.016071" lon="2.707821">
        <ele>149.597</ele>
        <time>2021-02-02T10:59:34Z</time>
      </trkpt>
      <trkpt lat="42.016128" lon="2.707741">
        <ele>149.676</ele>
        <time>2021-02-02T10:59:36Z</time>
      </trkpt>
      <trkpt lat="42.016170" lon="2.707696">
        <ele>149.881</ele>
        <time>2021-02-02T10:59:38Z</time>
      </trkpt>
      <trkpt lat="42.016215" lon="2.707649">
        <ele>149.013</ele>
        <time>2021-02-02T10:59:40Z</time>
      </trkpt>
      <trkpt lat="42.016259" lon="2.707605">
        <ele>149.524</ele>
        <time>2021-02-02T10:59:41Z</time>
      </trkpt>
      <trkpt lat="42.016318" lon="2.707523">
        <ele>149.789</ele>
        <time>2021-02-02T10:59:43Z</time>
      </trkpt>
      <trkpt lat="42.016363" lon="2.707466">
        <ele>149.354</ele>
        <time>2021-02-02T10:59:45Z</time>
      </trkpt>
      <trkpt lat="42.016397" lon="2.707417">
        <ele>149.973</ele>
        <time>2021-02-02T10:59:47Z</time>
      </trkpt>
      <trkpt lat="42.016461" lon="2.707362">
        <ele>150.229</ele>
        <time>2021-02-02T10:59:49Z</time>
      </trkpt>
      <trkpt lat="42.016518" lon="2.707302">
        <ele>150.100</ele>
        <time>2021-02-02T10:59:52Z</time>
      </trkpt>
      <trkpt lat="42.016562" lon="2.707262">
        <ele>149.820</ele>
        <time>2021-02-02T10:59:54Z</time>
      </trkpt>
      <trkpt lat="42.016611" lon="2.707213">
        <ele>149.908</ele>
        <time>2021-02-02T10:59:56Z</time>
      </trkpt>
      <trkpt lat="42.016650" lon="2.707173">
        <ele>149.848</ele>
        <time>2021-02-02T10:59:58Z</time>
      </trkpt>
      <trkpt lat="42.016718" lon="2.707111">
        <ele>150.447</ele>
        <time>2021-02-02T11:00:00Z</time>
      </trkpt>
      <trkpt lat="42.016758" lon="2.707072">
        <ele>151.132</ele>
        <time>2021-02-02T11:00:02Z</time>
      </trkpt>
      <trkpt lat="42.016810" lon="2.707026">
        <ele>151.424</ele>
        <time>2021-02-02T11:00:04Z</time>
      </trkpt>
      <trkpt lat="42.016860" lon="2.706979">
        <ele>152.035</ele>
        <time>2021-02-02T11:00:07Z</time>
      </trkpt>
      <trkpt lat="42.016910" lon="2.706933">
        <ele>152.610</ele>
        <time>2021-02-02T11:00:10Z</time>
      </trkpt>
      <trkpt lat="42.016952" lon="2.706877">
        <ele>152.525</ele>
        <time>2021-02-02T11:00:13Z</time>
      </trkpt>
      <trkpt lat="42.016985" lon="2.706825">
        <ele>151.514</ele>
        <time>2021-02-02T11:00:15Z</time>
      </trkpt>
      <trkpt lat="42.017019" lon="2.706782">
        <ele>151.374</ele>
        <time>2021-02-02T11:00:16Z</time>
      </trkpt>
      <trkpt lat="42.017109" lon="2.706686">
        <ele>150.956</ele>
        <time>2021-02-02T11:00:18Z</time>
      </trkpt>
      <trkpt lat="42.017156" lon="2.706661">
        <ele>150.821</ele>
        <time>2021-02-02T11:00:20Z</time>
      </trkpt>
      <trkpt lat="42.017206" lon="2.706618">
        <ele>151.108</ele>
        <time>2021-02-02T11:00:21Z</time>
      </trkpt>
      <trkpt lat="42.017253" lon="2.706580">
        <ele>150.723</ele>
        <time>2021-02-02T11:00:23Z</time>
      </trkpt>
      <trkpt lat="42.017306" lon="2.706538">
        <ele>151.672</ele>
        <time>2021-02-02T11:00:25Z</time>
      </trkpt>
      <trkpt lat="42.017347" lon="2.706498">
        <ele>152.047</ele>
        <time>2021-02-02T11:00:27Z</time>
      </trkpt>
      <trkpt lat="42.017387" lon="2.706462">
        <ele>152.699</ele>
        <time>2021-02-02T11:00:30Z</time>
      </trkpt>
      <trkpt lat="42.017425" lon="2.706426">
        <ele>152.040</ele>
        <time>2021-02-02T11:00:32Z</time>
      </trkpt>
      <trkpt lat="42.017463" lon="2.706381">
        <ele>152.145</ele>
        <time>2021-02-02T11:00:34Z</time>
      </trkpt>
      <trkpt lat="42.017499" lon="2.706336">
        <ele>152.760</ele>
        <time>2021-02-02T11:00:36Z</time>
      </trkpt>
      <trkpt lat="42.017550" lon="2.706269">
        <ele>152.239</ele>
        <time>2021-02-02T11:00:39Z</time>
      </trkpt>
      <trkpt lat="42.017584" lon="2.706217">
        <ele>152.618</ele>
        <time>2021-02-02T11:00:41Z</time>
      </trkpt>
      <trkpt lat="42.017630" lon="2.706155">
        <ele>152.298</ele>
        <time>2021-02-02T11:00:42Z</time>
      </trkpt>
      <trkpt lat="42.017683" lon="2.706086">
        <ele>152.317</ele>
        <time>2021-02-02T11:00:44Z</time>
      </trkpt>
      <trkpt lat="42.017737" lon="2.706015">
        <ele>152.308</ele>
        <time>2021-02-02T11:00:46Z</time>
      </trkpt>
      <trkpt lat="42.017768" lon="2.705967">
        <ele>152.537</ele>
        <time>2021-02-02T11:00:47Z</time>
      </trkpt>
      <trkpt lat="42.017820" lon="2.705886">
        <ele>151.916</ele>
        <time>2021-02-02T11:00:49Z</time>
      </trkpt>
      <trkpt lat="42.017849" lon="2.705838">
        <ele>152.191</ele>
        <time>2021-02-02T11:00:50Z</time>
      </trkpt>
      <trkpt lat="42.017882" lon="2.705775">
        <ele>152.153</ele>
        <time>2021-02-02T11:00:52Z</time>
      </trkpt>
      <trkpt lat="42.017910" lon="2.705719">
        <ele>152.174</ele>
        <time>2021-02-02T11:00:53Z</time>
      </trkpt>
      <trkpt lat="42.017943" lon="2.705664">
        <ele>152.539</ele>
        <time>2021-02-02T11:00:54Z</time>
      </trkpt>
      <trkpt lat="42.017975" lon="2.705611">
        <ele>152.334</ele>
        <time>2021-02-02T11:00:56Z</time>
      </trkpt>
      <trkpt lat="42.018017" lon="2.705543">
        <ele>152.353</ele>
        <time>2021-02-02T11:00:57Z</time>
      </trkpt>
      <trkpt lat="42.018074" lon="2.705476">
        <ele>152.514</ele>
        <time>2021-02-02T11:00:59Z</time>
      </trkpt>
      <trkpt lat="42.018118" lon="2.705422">
        <ele>153.454</ele>
        <time>2021-02-02T11:01:01Z</time>
      </trkpt>
      <trkpt lat="42.018159" lon="2.705377">
        <ele>153.409</ele>
        <time>2021-02-02T11:01:03Z</time>
      </trkpt>
      <trkpt lat="42.018202" lon="2.705347">
        <ele>154.308</ele>
        <time>2021-02-02T11:01:05Z</time>
      </trkpt>
      <trkpt lat="42.018245" lon="2.705317">
        <ele>154.447</ele>
        <time>2021-02-02T11:01:07Z</time>
      </trkpt>
      <trkpt lat="42.018294" lon="2.705263">
        <ele>154.856</ele>
        <time>2021-02-02T11:01:09Z</time>
      </trkpt>
      <trkpt lat="42.018350" lon="2.705209">
        <ele>155.521</ele>
        <time>2021-02-02T11:01:12Z</time>
      </trkpt>
      <trkpt lat="42.018394" lon="2.705151">
        <ele>154.913</ele>
        <time>2021-02-02T11:01:14Z</time>
      </trkpt>
      <trkpt lat="42.018441" lon="2.705082">
        <ele>155.514</ele>
        <time>2021-02-02T11:01:17Z</time>
      </trkpt>
      <trkpt lat="42.018481" lon="2.705034">
        <ele>155.759</ele>
        <time>2021-02-02T11:01:20Z</time>
      </trkpt>
      <trkpt lat="42.018531" lon="2.704996">
        <ele>156.694</ele>
        <time>2021-02-02T11:01:23Z</time>
      </trkpt>
      <trkpt lat="42.018560" lon="2.704945">
        <ele>156.153</ele>
        <time>2021-02-02T11:01:24Z</time>
      </trkpt>
      <trkpt lat="42.018587" lon="2.704889">
        <ele>156.587</ele>
        <time>2021-02-02T11:01:26Z</time>
      </trkpt>
      <trkpt lat="42.018614" lon="2.704829">
        <ele>156.742</ele>
        <time>2021-02-02T11:01:28Z</time>
      </trkpt>
      <trkpt lat="42.018643" lon="2.704771">
        <ele>157.926</ele>
        <time>2021-02-02T11:01:31Z</time>
      </trkpt>
      <trkpt lat="42.018682" lon="2.704697">
        <ele>158.708</ele>
        <time>2021-02-02T11:01:33Z</time>
      </trkpt>
      <trkpt lat="42.018713" lon="2.704651">
        <ele>159.294</ele>
        <time>2021-02-02T11:01:35Z</time>
      </trkpt>
      <trkpt lat="42.018751" lon="2.704585">
        <ele>159.853</ele>
        <time>2021-02-02T11:01:39Z</time>
      </trkpt>
      <trkpt lat="42.018791" lon="2.704523">
        <ele>160.528</ele>
        <time>2021-02-02T11:01:43Z</time>
      </trkpt>
      <trkpt lat="42.018821" lon="2.704473">
        <ele>161.260</ele>
        <time>2021-02-02T11:01:46Z</time>
      </trkpt>
      <trkpt lat="42.018853" lon="2.704416">
        <ele>161.591</ele>
        <time>2021-02-02T11:01:48Z</time>
      </trkpt>
      <trkpt lat="42.018884" lon="2.704370">
        <ele>161.966</ele>
        <time>2021-02-02T11:01:50Z</time>
      </trkpt>
      <trkpt lat="42.018924" lon="2.704321">
        <ele>162.341</ele>
        <time>2021-02-02T11:01:53Z</time>
      </trkpt>
      <trkpt lat="42.018971" lon="2.704263">
        <ele>163.360</ele>
        <time>2021-02-02T11:01:56Z</time>
      </trkpt>
      <trkpt lat="42.019018" lon="2.704210">
        <ele>163.491</ele>
        <time>2021-02-02T11:01:59Z</time>
      </trkpt>
      <trkpt lat="42.019056" lon="2.704166">
        <ele>163.681</ele>
        <time>2021-02-02T11:02:01Z</time>
      </trkpt>
      <trkpt lat="42.019094" lon="2.704127">
        <ele>163.919</ele>
        <time>2021-02-02T11:02:03Z</time>
      </trkpt>
      <trkpt lat="42.019132" lon="2.704084">
        <ele>164.108</ele>
        <time>2021-02-02T11:02:06Z</time>
      </trkpt>
      <trkpt lat="42.019177" lon="2.704058">
        <ele>163.835</ele>
        <time>2021-02-02T11:02:09Z</time>
      </trkpt>
      <trkpt lat="42.019227" lon="2.704042">
        <ele>164.744</ele>
        <time>2021-02-02T11:02:12Z</time>
      </trkpt>
      <trkpt lat="42.019280" lon="2.704020">
        <ele>165.199</ele>
        <time>2021-02-02T11:02:15Z</time>
      </trkpt>
      <trkpt lat="42.019330" lon="2.704001">
        <ele>164.931</ele>
        <time>2021-02-02T11:02:19Z</time>
      </trkpt>
      <trkpt lat="42.019375" lon="2.703979">
        <ele>165.532</ele>
        <time>2021-02-02T11:02:24Z</time>
      </trkpt>
      <trkpt lat="42.019429" lon="2.703958">
        <ele>166.717</ele>
        <time>2021-02-02T11:02:28Z</time>
      </trkpt>
      <trkpt lat="42.019482" lon="2.703925">
        <ele>167.722</ele>
        <time>2021-02-02T11:02:32Z</time>
      </trkpt>
      <trkpt lat="42.019541" lon="2.703898">
        <ele>168.311</ele>
        <time>2021-02-02T11:02:35Z</time>
      </trkpt>
      <trkpt lat="42.019589" lon="2.703896">
        <ele>168.789</ele>
        <time>2021-02-02T11:02:39Z</time>
      </trkpt>
      <trkpt lat="42.019635" lon="2.703885">
        <ele>169.106</ele>
        <time>2021-02-02T11:02:51Z</time>
      </trkpt>
      <trkpt lat="42.019679" lon="2.703855">
        <ele>171.326</ele>
        <time>2021-02-02T11:02:58Z</time>
      </trkpt>
      <trkpt lat="42.019711" lon="2.703812">
        <ele>171.008</ele>
        <time>2021-02-02T11:03:05Z</time>
      </trkpt>
      <trkpt lat="42.019741" lon="2.703758">
        <ele>171.284</ele>
        <time>2021-02-02T11:03:08Z</time>
      </trkpt>
      <trkpt lat="42.019783" lon="2.703691">
        <ele>171.873</ele>
        <time>2021-02-02T11:03:11Z</time>
      </trkpt>
      <trkpt lat="42.019819" lon="2.703650">
        <ele>172.738</ele>
        <time>2021-02-02T11:03:14Z</time>
      </trkpt>
      <trkpt lat="42.019864" lon="2.703613">
        <ele>173.670</ele>
        <time>2021-02-02T11:03:16Z</time>
      </trkpt>
      <trkpt lat="42.019912" lon="2.703570">
        <ele>173.141</ele>
        <time>2021-02-02T11:03:19Z</time>
      </trkpt>
      <trkpt lat="42.019957" lon="2.703537">
        <ele>173.336</ele>
        <time>2021-02-02T11:03:22Z</time>
      </trkpt>
      <trkpt lat="42.019997" lon="2.703496">
        <ele>174.021</ele>
        <time>2021-02-02T11:03:25Z</time>
      </trkpt>
      <trkpt lat="42.020030" lon="2.703453">
        <ele>174.310</ele>
        <time>2021-02-02T11:03:28Z</time>
      </trkpt>
      <trkpt lat="42.020072" lon="2.703408">
        <ele>174.552</ele>
        <time>2021-02-02T11:03:32Z</time>
      </trkpt>
      <trkpt lat="42.020122" lon="2.703374">
        <ele>175.753</ele>
        <time>2021-02-02T11:03:36Z</time>
      </trkpt>
      <trkpt lat="42.020167" lon="2.703351">
        <ele>176.408</ele>
        <time>2021-02-02T11:03:39Z</time>
      </trkpt>
      <trkpt lat="42.020219" lon="2.703332">
        <ele>176.908</ele>
        <time>2021-02-02T11:03:42Z</time>
      </trkpt>
      <trkpt lat="42.020267" lon="2.703296">
        <ele>177.631</ele>
        <time>2021-02-02T11:03:46Z</time>
      </trkpt>
      <trkpt lat="42.020310" lon="2.703249">
        <ele>178.320</ele>
        <time>2021-02-02T11:03:49Z</time>
      </trkpt>
      <trkpt lat="42.020355" lon="2.703200">
        <ele>178.135</ele>
        <time>2021-02-02T11:03:52Z</time>
      </trkpt>
      <trkpt lat="42.020401" lon="2.703146">
        <ele>178.277</ele>
        <time>2021-02-02T11:03:54Z</time>
      </trkpt>
      <trkpt lat="42.020449" lon="2.703076">
        <ele>178.428</ele>
        <time>2021-02-02T11:03:56Z</time>
      </trkpt>
      <trkpt lat="42.020495" lon="2.702977">
        <ele>178.223</ele>
        <time>2021-02-02T11:03:58Z</time>
      </trkpt>
      <trkpt lat="42.020539" lon="2.702872">
        <ele>178.188</ele>
        <time>2021-02-02T11:04:00Z</time>
      </trkpt>
      <trkpt lat="42.020575" lon="2.702782">
        <ele>178.357</ele>
        <time>2021-02-02T11:04:02Z</time>
      </trkpt>
      <trkpt lat="42.020594" lon="2.702691">
        <ele>178.029</ele>
        <time>2021-02-02T11:04:04Z</time>
      </trkpt>
      <trkpt lat="42.020612" lon="2.702617">
        <ele>178.400</ele>
        <time>2021-02-02T11:04:07Z</time>
      </trkpt>
      <trkpt lat="42.020668" lon="2.702586">
        <ele>178.920</ele>
        <time>2021-02-02T11:04:29Z</time>
      </trkpt>
      <trkpt lat="42.020701" lon="2.702525">
        <ele>178.808</ele>
        <time>2021-02-02T11:04:31Z</time>
      </trkpt>
      <trkpt lat="42.020746" lon="2.702454">
        <ele>179.128</ele>
        <time>2021-02-02T11:04:33Z</time>
      </trkpt>
      <trkpt lat="42.020772" lon="2.702373">
        <ele>178.877</ele>
        <time>2021-02-02T11:04:35Z</time>
      </trkpt>
      <trkpt lat="42.020793" lon="2.702315">
        <ele>179.092</ele>
        <time>2021-02-02T11:04:37Z</time>
      </trkpt>
      <trkpt lat="42.020846" lon="2.702306">
        <ele>179.244</ele>
        <time>2021-02-02T11:04:39Z</time>
      </trkpt>
      <trkpt lat="42.020900" lon="2.702310">
        <ele>179.845</ele>
        <time>2021-02-02T11:04:42Z</time>
      </trkpt>
      <trkpt lat="42.020942" lon="2.702257">
        <ele>179.910</ele>
        <time>2021-02-02T11:04:44Z</time>
      </trkpt>
      <trkpt lat="42.020995" lon="2.702212">
        <ele>180.515</ele>
        <time>2021-02-02T11:04:47Z</time>
      </trkpt>
      <trkpt lat="42.021041" lon="2.702197">
        <ele>181.264</ele>
        <time>2021-02-02T11:04:49Z</time>
      </trkpt>
      <trkpt lat="42.021087" lon="2.702169">
        <ele>181.679</ele>
        <time>2021-02-02T11:04:52Z</time>
      </trkpt>
      <trkpt lat="42.021139" lon="2.702144">
        <ele>182.605</ele>
        <time>2021-02-02T11:04:55Z</time>
      </trkpt>
      <trkpt lat="42.021191" lon="2.702124">
        <ele>183.725</ele>
        <time>2021-02-02T11:04:58Z</time>
      </trkpt>
      <trkpt lat="42.021250" lon="2.702142">
        <ele>184.108</ele>
        <time>2021-02-02T11:05:01Z</time>
      </trkpt>
      <trkpt lat="42.021299" lon="2.702170">
        <ele>184.683</ele>
        <time>2021-02-02T11:05:04Z</time>
      </trkpt>
      <trkpt lat="42.021338" lon="2.702213">
        <ele>184.762</ele>
        <time>2021-02-02T11:05:06Z</time>
      </trkpt>
      <trkpt lat="42.021391" lon="2.702266">
        <ele>185.057</ele>
        <time>2021-02-02T11:05:09Z</time>
      </trkpt>
      <trkpt lat="42.021435" lon="2.702294">
        <ele>185.319</ele>
        <time>2021-02-02T11:05:11Z</time>
      </trkpt>
      <trkpt lat="42.021477" lon="2.702324">
        <ele>185.550</ele>
        <time>2021-02-02T11:05:13Z</time>
      </trkpt>
      <trkpt lat="42.021531" lon="2.702381">
        <ele>185.595</ele>
        <time>2021-02-02T11:05:16Z</time>
      </trkpt>
      <trkpt lat="42.021570" lon="2.702428">
        <ele>185.650</ele>
        <time>2021-02-02T11:05:18Z</time>
      </trkpt>
      <trkpt lat="42.021615" lon="2.702497">
        <ele>186.119</ele>
        <time>2021-02-02T11:05:21Z</time>
      </trkpt>
      <trkpt lat="42.021671" lon="2.702560">
        <ele>186.471</ele>
        <time>2021-02-02T11:05:23Z</time>
      </trkpt>
      <trkpt lat="42.021707" lon="2.702605">
        <ele>186.641</ele>
        <time>2021-02-02T11:05:25Z</time>
      </trkpt>
      <trkpt lat="42.021750" lon="2.702668">
        <ele>186.515</ele>
        <time>2021-02-02T11:05:27Z</time>
      </trkpt>
      <trkpt lat="42.021790" lon="2.702721">
        <ele>187.008</ele>
        <time>2021-02-02T11:05:29Z</time>
      </trkpt>
      <trkpt lat="42.021832" lon="2.702765">
        <ele>187.333</ele>
        <time>2021-02-02T11:05:31Z</time>
      </trkpt>
      <trkpt lat="42.021871" lon="2.702815">
        <ele>187.692</ele>
        <time>2021-02-02T11:05:33Z</time>
      </trkpt>
      <trkpt lat="42.021910" lon="2.702859">
        <ele>187.577</ele>
        <time>2021-02-02T11:05:35Z</time>
      </trkpt>
      <trkpt lat="42.021953" lon="2.702904">
        <ele>187.929</ele>
        <time>2021-02-02T11:05:37Z</time>
      </trkpt>
      <trkpt lat="42.021996" lon="2.702947">
        <ele>188.230</ele>
        <time>2021-02-02T11:05:39Z</time>
      </trkpt>
      <trkpt lat="42.022043" lon="2.702966">
        <ele>188.455</ele>
        <time>2021-02-02T11:05:41Z</time>
      </trkpt>
      <trkpt lat="42.022090" lon="2.702978">
        <ele>188.890</ele>
        <time>2021-02-02T11:05:43Z</time>
      </trkpt>
      <trkpt lat="42.022151" lon="2.702986">
        <ele>188.929</ele>
        <time>2021-02-02T11:05:45Z</time>
      </trkpt>
      <trkpt lat="42.022208" lon="2.702986">
        <ele>189.185</ele>
        <time>2021-02-02T11:05:47Z</time>
      </trkpt>
      <trkpt lat="42.022264" lon="2.702987">
        <ele>189.189</ele>
        <time>2021-02-02T11:05:49Z</time>
      </trkpt>
      <trkpt lat="42.022318" lon="2.702982">
        <ele>189.217</ele>
        <time>2021-02-02T11:05:51Z</time>
      </trkpt>
      <trkpt lat="42.022367" lon="2.702959">
        <ele>189.908</ele>
        <time>2021-02-02T11:05:53Z</time>
      </trkpt>
      <trkpt lat="42.022414" lon="2.702936">
        <ele>190.074</ele>
        <time>2021-02-02T11:05:55Z</time>
      </trkpt>
      <trkpt lat="42.022463" lon="2.702918">
        <ele>190.663</ele>
        <time>2021-02-02T11:05:57Z</time>
      </trkpt>
      <trkpt lat="42.022516" lon="2.702912">
        <ele>191.338</ele>
        <time>2021-02-02T11:05:59Z</time>
      </trkpt>
      <trkpt lat="42.022568" lon="2.702919">
        <ele>191.870</ele>
        <time>2021-02-02T11:06:02Z</time>
      </trkpt>
      <trkpt lat="42.022612" lon="2.702953">
        <ele>192.481</ele>
        <time>2021-02-02T11:06:04Z</time>
      </trkpt>
      <trkpt lat="42.022656" lon="2.702994">
        <ele>193.236</ele>
        <time>2021-02-02T11:06:06Z</time>
      </trkpt>
      <trkpt lat="42.022693" lon="2.703036">
        <ele>193.231</ele>
        <time>2021-02-02T11:06:08Z</time>
      </trkpt>
      <trkpt lat="42.022720" lon="2.703085">
        <ele>193.730</ele>
        <time>2021-02-02T11:06:10Z</time>
      </trkpt>
      <trkpt lat="42.022755" lon="2.703138">
        <ele>193.913</ele>
        <time>2021-02-02T11:06:12Z</time>
      </trkpt>
      <trkpt lat="42.022785" lon="2.703188">
        <ele>193.943</ele>
        <time>2021-02-02T11:06:14Z</time>
      </trkpt>
      <trkpt lat="42.022808" lon="2.703242">
        <ele>194.407</ele>
        <time>2021-02-02T11:06:16Z</time>
      </trkpt>
      <trkpt lat="42.022824" lon="2.703329">
        <ele>195.208</ele>
        <time>2021-02-02T11:06:19Z</time>
      </trkpt>
      <trkpt lat="42.022823" lon="2.703390">
        <ele>195.737</ele>
        <time>2021-02-02T11:06:21Z</time>
      </trkpt>
      <trkpt lat="42.022790" lon="2.703449">
        <ele>196.266</ele>
        <time>2021-02-02T11:06:23Z</time>
      </trkpt>
      <trkpt lat="42.022751" lon="2.703483">
        <ele>195.881</ele>
        <time>2021-02-02T11:06:24Z</time>
      </trkpt>
      <trkpt lat="42.022702" lon="2.703511">
        <ele>196.223</ele>
        <time>2021-02-02T11:06:26Z</time>
      </trkpt>
      <trkpt lat="42.022655" lon="2.703554">
        <ele>196.384</ele>
        <time>2021-02-02T11:06:27Z</time>
      </trkpt>
      <trkpt lat="42.022618" lon="2.703607">
        <ele>196.149</ele>
        <time>2021-02-02T11:06:29Z</time>
      </trkpt>
      <trkpt lat="42.022587" lon="2.703651">
        <ele>196.144</ele>
        <time>2021-02-02T11:06:30Z</time>
      </trkpt>
      <trkpt lat="42.022539" lon="2.703725">
        <ele>196.133</ele>
        <time>2021-02-02T11:06:32Z</time>
      </trkpt>
      <trkpt lat="42.022492" lon="2.703796">
        <ele>196.531</ele>
        <time>2021-02-02T11:06:34Z</time>
      </trkpt>
      <trkpt lat="42.022455" lon="2.703853">
        <ele>196.361</ele>
        <time>2021-02-02T11:06:36Z</time>
      </trkpt>
      <trkpt lat="42.022416" lon="2.703911">
        <ele>196.307</ele>
        <time>2021-02-02T11:06:38Z</time>
      </trkpt>
      <trkpt lat="42.022372" lon="2.703976">
        <ele>196.508</ele>
        <time>2021-02-02T11:06:40Z</time>
      </trkpt>
      <trkpt lat="42.022334" lon="2.704031">
        <ele>196.539</ele>
        <time>2021-02-02T11:06:42Z</time>
      </trkpt>
      <trkpt lat="42.022292" lon="2.704098">
        <ele>196.428</ele>
        <time>2021-02-02T11:06:44Z</time>
      </trkpt>
      <trkpt lat="42.022246" lon="2.704169">
        <ele>196.293</ele>
        <time>2021-02-02T11:06:46Z</time>
      </trkpt>
      <trkpt lat="42.022209" lon="2.704229">
        <ele>195.975</ele>
        <time>2021-02-02T11:06:47Z</time>
      </trkpt>
      <trkpt lat="42.022152" lon="2.704311">
        <ele>195.476</ele>
        <time>2021-02-02T11:06:49Z</time>
      </trkpt>
      <trkpt lat="42.022073" lon="2.704407">
        <ele>194.861</ele>
        <time>2021-02-02T11:06:51Z</time>
      </trkpt>
      <trkpt lat="42.021998" lon="2.704494">
        <ele>194.866</ele>
        <time>2021-02-02T11:06:53Z</time>
      </trkpt>
      <trkpt lat="42.021959" lon="2.704541">
        <ele>194.975</ele>
        <time>2021-02-02T11:06:54Z</time>
      </trkpt>
      <trkpt lat="42.021921" lon="2.704587">
        <ele>194.695</ele>
        <time>2021-02-02T11:06:55Z</time>
      </trkpt>
      <trkpt lat="42.021864" lon="2.704702">
        <ele>194.449</ele>
        <time>2021-02-02T11:06:57Z</time>
      </trkpt>
      <trkpt lat="42.021849" lon="2.704769">
        <ele>193.523</ele>
        <time>2021-02-02T11:06:58Z</time>
      </trkpt>
      <trkpt lat="42.021854" lon="2.704882">
        <ele>194.708</ele>
        <time>2021-02-02T11:07:00Z</time>
      </trkpt>
      <trkpt lat="42.021806" lon="2.704953">
        <ele>195.655</ele>
        <time>2021-02-02T11:07:03Z</time>
      </trkpt>
      <trkpt lat="42.021747" lon="2.705014">
        <ele>195.974</ele>
        <time>2021-02-02T11:07:05Z</time>
      </trkpt>
      <trkpt lat="42.021699" lon="2.705093">
        <ele>195.839</ele>
        <time>2021-02-02T11:07:06Z</time>
      </trkpt>
      <trkpt lat="42.021633" lon="2.705188">
        <ele>195.751</ele>
        <time>2021-02-02T11:07:08Z</time>
      </trkpt>
      <trkpt lat="42.021583" lon="2.705261">
        <ele>196.042</ele>
        <time>2021-02-02T11:07:10Z</time>
      </trkpt>
      <trkpt lat="42.021601" lon="2.705335">
        <ele>196.177</ele>
        <time>2021-02-02T11:07:12Z</time>
      </trkpt>
      <trkpt lat="42.021540" lon="2.705389">
        <ele>196.032</ele>
        <time>2021-02-02T11:07:13Z</time>
      </trkpt>
      <trkpt lat="42.021498" lon="2.705428">
        <ele>196.091</ele>
        <time>2021-02-02T11:07:14Z</time>
      </trkpt>
      <trkpt lat="42.021421" lon="2.705506">
        <ele>196.452</ele>
        <time>2021-02-02T11:07:16Z</time>
      </trkpt>
      <trkpt lat="42.021365" lon="2.705562">
        <ele>196.653</ele>
        <time>2021-02-02T11:07:18Z</time>
      </trkpt>
      <trkpt lat="42.021318" lon="2.705617">
        <ele>196.908</ele>
        <time>2021-02-02T11:07:19Z</time>
      </trkpt>
      <trkpt lat="42.021264" lon="2.705694">
        <ele>197.208</ele>
        <time>2021-02-02T11:07:21Z</time>
      </trkpt>
      <trkpt lat="42.021217" lon="2.705751">
        <ele>197.731</ele>
        <time>2021-02-02T11:07:23Z</time>
      </trkpt>
      <trkpt lat="42.021179" lon="2.705799">
        <ele>197.730</ele>
        <time>2021-02-02T11:07:24Z</time>
      </trkpt>
      <trkpt lat="42.021145" lon="2.705840">
        <ele>198.035</ele>
        <time>2021-02-02T11:07:25Z</time>
      </trkpt>
      <trkpt lat="42.021088" lon="2.705913">
        <ele>198.187</ele>
        <time>2021-02-02T11:07:27Z</time>
      </trkpt>
      <trkpt lat="42.021030" lon="2.705986">
        <ele>198.248</ele>
        <time>2021-02-02T11:07:29Z</time>
      </trkpt>
      <trkpt lat="42.020980" lon="2.706054">
        <ele>198.273</ele>
        <time>2021-02-02T11:07:31Z</time>
      </trkpt>
      <trkpt lat="42.020918" lon="2.706130">
        <ele>198.288</ele>
        <time>2021-02-02T11:07:33Z</time>
      </trkpt>
      <trkpt lat="42.020877" lon="2.706175">
        <ele>198.377</ele>
        <time>2021-02-02T11:07:35Z</time>
      </trkpt>
      <trkpt lat="42.020810" lon="2.706260">
        <ele>198.979</ele>
        <time>2021-02-02T11:07:37Z</time>
      </trkpt>
      <trkpt lat="42.020757" lon="2.706317">
        <ele>198.905</ele>
        <time>2021-02-02T11:07:39Z</time>
      </trkpt>
      <trkpt lat="42.020718" lon="2.706357">
        <ele>199.225</ele>
        <time>2021-02-02T11:07:41Z</time>
      </trkpt>
      <trkpt lat="42.020768" lon="2.706349">
        <ele>198.508</ele>
        <time>2021-02-02T11:09:45Z</time>
      </trkpt>
      <trkpt lat="42.020816" lon="2.706292">
        <ele>198.293</ele>
        <time>2021-02-02T11:09:46Z</time>
      </trkpt>
      <trkpt lat="42.020881" lon="2.706232">
        <ele>198.012</ele>
        <time>2021-02-02T11:09:48Z</time>
      </trkpt>
      <trkpt lat="42.020926" lon="2.706193">
        <ele>198.027</ele>
        <time>2021-02-02T11:09:49Z</time>
      </trkpt>
      <trkpt lat="42.021015" lon="2.706084">
        <ele>198.339</ele>
        <time>2021-02-02T11:09:51Z</time>
      </trkpt>
      <trkpt lat="42.021053" lon="2.706034">
        <ele>198.470</ele>
        <time>2021-02-02T11:09:52Z</time>
      </trkpt>
      <trkpt lat="42.021090" lon="2.705984">
        <ele>197.925</ele>
        <time>2021-02-02T11:09:53Z</time>
      </trkpt>
      <trkpt lat="42.021124" lon="2.705935">
        <ele>197.790</ele>
        <time>2021-02-02T11:09:54Z</time>
      </trkpt>
      <trkpt lat="42.021156" lon="2.705886">
        <ele>197.719</ele>
        <time>2021-02-02T11:09:55Z</time>
      </trkpt>
      <trkpt lat="42.021220" lon="2.705785">
        <ele>197.545</ele>
        <time>2021-02-02T11:09:57Z</time>
      </trkpt>
      <trkpt lat="42.021290" lon="2.705684">
        <ele>196.847</ele>
        <time>2021-02-02T11:09:59Z</time>
      </trkpt>
      <trkpt lat="42.021368" lon="2.705582">
        <ele>196.811</ele>
        <time>2021-02-02T11:10:01Z</time>
      </trkpt>
      <trkpt lat="42.021405" lon="2.705524">
        <ele>196.408</ele>
        <time>2021-02-02T11:10:02Z</time>
      </trkpt>
      <trkpt lat="42.021485" lon="2.705404">
        <ele>196.030</ele>
        <time>2021-02-02T11:10:04Z</time>
      </trkpt>
      <trkpt lat="42.021578" lon="2.705295">
        <ele>195.789</ele>
        <time>2021-02-02T11:10:06Z</time>
      </trkpt>
      <trkpt lat="42.021665" lon="2.705182">
        <ele>195.334</ele>
        <time>2021-02-02T11:10:08Z</time>
      </trkpt>
      <trkpt lat="42.021750" lon="2.705079">
        <ele>195.446</ele>
        <time>2021-02-02T11:10:10Z</time>
      </trkpt>
      <trkpt lat="42.021792" lon="2.705038">
        <ele>195.347</ele>
        <time>2021-02-02T11:10:11Z</time>
      </trkpt>
      <trkpt lat="42.021869" lon="2.704964">
        <ele>195.492</ele>
        <time>2021-02-02T11:10:13Z</time>
      </trkpt>
      <trkpt lat="42.021903" lon="2.704890">
        <ele>194.627</ele>
        <time>2021-02-02T11:10:15Z</time>
      </trkpt>
      <trkpt lat="42.021898" lon="2.704813">
        <ele>194.066</ele>
        <time>2021-02-02T11:10:17Z</time>
      </trkpt>
      <trkpt lat="42.021856" lon="2.704767">
        <ele>193.053</ele>
        <time>2021-02-02T11:10:19Z</time>
      </trkpt>
      <trkpt lat="42.021756" lon="2.704837">
        <ele>192.904</ele>
        <time>2021-02-02T11:10:22Z</time>
      </trkpt>
      <trkpt lat="42.021662" lon="2.704956">
        <ele>192.314</ele>
        <time>2021-02-02T11:10:24Z</time>
      </trkpt>
      <trkpt lat="42.021559" lon="2.705065">
        <ele>191.708</ele>
        <time>2021-02-02T11:10:26Z</time>
      </trkpt>
      <trkpt lat="42.021441" lon="2.705167">
        <ele>191.571</ele>
        <time>2021-02-02T11:10:28Z</time>
      </trkpt>
      <trkpt lat="42.021302" lon="2.705259">
        <ele>191.060</ele>
        <time>2021-02-02T11:10:30Z</time>
      </trkpt>
      <trkpt lat="42.021226" lon="2.705298">
        <ele>190.695</ele>
        <time>2021-02-02T11:10:31Z</time>
      </trkpt>
      <trkpt lat="42.021148" lon="2.705328">
        <ele>190.357</ele>
        <time>2021-02-02T11:10:32Z</time>
      </trkpt>
      <trkpt lat="42.020993" lon="2.705372">
        <ele>190.018</ele>
        <time>2021-02-02T11:10:34Z</time>
      </trkpt>
      <trkpt lat="42.020913" lon="2.705402">
        <ele>189.713</ele>
        <time>2021-02-02T11:10:35Z</time>
      </trkpt>
      <trkpt lat="42.020751" lon="2.705476">
        <ele>189.278</ele>
        <time>2021-02-02T11:10:37Z</time>
      </trkpt>
      <trkpt lat="42.020589" lon="2.705542">
        <ele>188.777</ele>
        <time>2021-02-02T11:10:39Z</time>
      </trkpt>
      <trkpt lat="42.020507" lon="2.705573">
        <ele>188.699</ele>
        <time>2021-02-02T11:10:40Z</time>
      </trkpt>
      <trkpt lat="42.020426" lon="2.705605">
        <ele>188.407</ele>
        <time>2021-02-02T11:10:41Z</time>
      </trkpt>
      <trkpt lat="42.020343" lon="2.705642">
        <ele>188.127</ele>
        <time>2021-02-02T11:10:42Z</time>
      </trkpt>
      <trkpt lat="42.020262" lon="2.705686">
        <ele>187.908</ele>
        <time>2021-02-02T11:10:43Z</time>
      </trkpt>
      <trkpt lat="42.020106" lon="2.705798">
        <ele>187.665</ele>
        <time>2021-02-02T11:10:45Z</time>
      </trkpt>
      <trkpt lat="42.019953" lon="2.705928">
        <ele>186.974</ele>
        <time>2021-02-02T11:10:47Z</time>
      </trkpt>
      <trkpt lat="42.019799" lon="2.706059">
        <ele>186.339</ele>
        <time>2021-02-02T11:10:49Z</time>
      </trkpt>
      <trkpt lat="42.019719" lon="2.706122">
        <ele>185.931</ele>
        <time>2021-02-02T11:10:50Z</time>
      </trkpt>
      <trkpt lat="42.019561" lon="2.706242">
        <ele>185.262</ele>
        <time>2021-02-02T11:10:52Z</time>
      </trkpt>
      <trkpt lat="42.019398" lon="2.706360">
        <ele>184.857</ele>
        <time>2021-02-02T11:10:54Z</time>
      </trkpt>
      <trkpt lat="42.019239" lon="2.706487">
        <ele>184.532</ele>
        <time>2021-02-02T11:10:56Z</time>
      </trkpt>
      <trkpt lat="42.019162" lon="2.706551">
        <ele>184.121</ele>
        <time>2021-02-02T11:10:57Z</time>
      </trkpt>
      <trkpt lat="42.019087" lon="2.706619">
        <ele>184.019</ele>
        <time>2021-02-02T11:10:58Z</time>
      </trkpt>
      <trkpt lat="42.019017" lon="2.706697">
        <ele>183.809</ele>
        <time>2021-02-02T11:10:59Z</time>
      </trkpt>
      <trkpt lat="42.018884" lon="2.706867">
        <ele>183.019</ele>
        <time>2021-02-02T11:11:01Z</time>
      </trkpt>
      <trkpt lat="42.018774" lon="2.707054">
        <ele>182.808</ele>
        <time>2021-02-02T11:11:03Z</time>
      </trkpt>
      <trkpt lat="42.018719" lon="2.707145">
        <ele>182.877</ele>
        <time>2021-02-02T11:11:04Z</time>
      </trkpt>
      <trkpt lat="42.018664" lon="2.707236">
        <ele>182.676</ele>
        <time>2021-02-02T11:11:05Z</time>
      </trkpt>
      <trkpt lat="42.018556" lon="2.707425">
        <ele>182.441</ele>
        <time>2021-02-02T11:11:07Z</time>
      </trkpt>
      <trkpt lat="42.018503" lon="2.707522">
        <ele>182.493</ele>
        <time>2021-02-02T11:11:08Z</time>
      </trkpt>
      <trkpt lat="42.018451" lon="2.707615">
        <ele>182.154</ele>
        <time>2021-02-02T11:11:09Z</time>
      </trkpt>
      <trkpt lat="42.018348" lon="2.707801">
        <ele>181.639</ele>
        <time>2021-02-02T11:11:11Z</time>
      </trkpt>
      <trkpt lat="42.018248" lon="2.707993">
        <ele>181.394</ele>
        <time>2021-02-02T11:11:13Z</time>
      </trkpt>
      <trkpt lat="42.018144" lon="2.708192">
        <ele>181.133</ele>
        <time>2021-02-02T11:11:15Z</time>
      </trkpt>
      <trkpt lat="42.018091" lon="2.708299">
        <ele>180.984</ele>
        <time>2021-02-02T11:11:16Z</time>
      </trkpt>
      <trkpt lat="42.018034" lon="2.708409">
        <ele>180.307</ele>
        <time>2021-02-02T11:11:17Z</time>
      </trkpt>
      <trkpt lat="42.017919" lon="2.708627">
        <ele>179.617</ele>
        <time>2021-02-02T11:11:19Z</time>
      </trkpt>
      <trkpt lat="42.017863" lon="2.708735">
        <ele>179.708</ele>
        <time>2021-02-02T11:11:20Z</time>
      </trkpt>
      <trkpt lat="42.017750" lon="2.708941">
        <ele>179.664</ele>
        <time>2021-02-02T11:11:22Z</time>
      </trkpt>
      <trkpt lat="42.017643" lon="2.709145">
        <ele>179.243</ele>
        <time>2021-02-02T11:11:24Z</time>
      </trkpt>
      <trkpt lat="42.017542" lon="2.709341">
        <ele>178.528</ele>
        <time>2021-02-02T11:11:26Z</time>
      </trkpt>
      <trkpt lat="42.017440" lon="2.709534">
        <ele>178.280</ele>
        <time>2021-02-02T11:11:28Z</time>
      </trkpt>
      <trkpt lat="42.017338" lon="2.709726">
        <ele>177.981</ele>
        <time>2021-02-02T11:11:30Z</time>
      </trkpt>
      <trkpt lat="42.017235" lon="2.709911">
        <ele>177.866</ele>
        <time>2021-02-02T11:11:32Z</time>
      </trkpt>
      <trkpt lat="42.017106" lon="2.710066">
        <ele>177.341</ele>
        <time>2021-02-02T11:11:34Z</time>
      </trkpt>
      <trkpt lat="42.016956" lon="2.710187">
        <ele>176.460</ele>
        <time>2021-02-02T11:11:36Z</time>
      </trkpt>
      <trkpt lat="42.016805" lon="2.710292">
        <ele>176.289</ele>
        <time>2021-02-02T11:11:38Z</time>
      </trkpt>
      <trkpt lat="42.016729" lon="2.710346">
        <ele>176.106</ele>
        <time>2021-02-02T11:11:39Z</time>
      </trkpt>
      <trkpt lat="42.016655" lon="2.710402">
        <ele>175.926</ele>
        <time>2021-02-02T11:11:40Z</time>
      </trkpt>
      <trkpt lat="42.016581" lon="2.710462">
        <ele>175.808</ele>
        <time>2021-02-02T11:11:41Z</time>
      </trkpt>
      <trkpt lat="42.016507" lon="2.710521">
        <ele>175.564</ele>
        <time>2021-02-02T11:11:42Z</time>
      </trkpt>
      <trkpt lat="42.016359" lon="2.710633">
        <ele>175.453</ele>
        <time>2021-02-02T11:11:44Z</time>
      </trkpt>
      <trkpt lat="42.016211" lon="2.710753">
        <ele>174.888</ele>
        <time>2021-02-02T11:11:46Z</time>
      </trkpt>
      <trkpt lat="42.016144" lon="2.710825">
        <ele>174.830</ele>
        <time>2021-02-02T11:11:47Z</time>
      </trkpt>
      <trkpt lat="42.016024" lon="2.710983">
        <ele>175.111</ele>
        <time>2021-02-02T11:11:49Z</time>
      </trkpt>
      <trkpt lat="42.015916" lon="2.711143">
        <ele>174.586</ele>
        <time>2021-02-02T11:11:51Z</time>
      </trkpt>
      <trkpt lat="42.015873" lon="2.711233">
        <ele>174.661</ele>
        <time>2021-02-02T11:11:52Z</time>
      </trkpt>
      <trkpt lat="42.015839" lon="2.711329">
        <ele>174.510</ele>
        <time>2021-02-02T11:11:53Z</time>
      </trkpt>
      <trkpt lat="42.015800" lon="2.711540">
        <ele>174.216</ele>
        <time>2021-02-02T11:11:55Z</time>
      </trkpt>
      <trkpt lat="42.015789" lon="2.711655">
        <ele>174.376</ele>
        <time>2021-02-02T11:11:56Z</time>
      </trkpt>
      <trkpt lat="42.015786" lon="2.711883">
        <ele>174.413</ele>
        <time>2021-02-02T11:11:58Z</time>
      </trkpt>
      <trkpt lat="42.015835" lon="2.712093">
        <ele>174.008</ele>
        <time>2021-02-02T11:12:00Z</time>
      </trkpt>
      <trkpt lat="42.015874" lon="2.712197">
        <ele>173.397</ele>
        <time>2021-02-02T11:12:01Z</time>
      </trkpt>
      <trkpt lat="42.015979" lon="2.712374">
        <ele>172.786</ele>
        <time>2021-02-02T11:12:03Z</time>
      </trkpt>
      <trkpt lat="42.016015" lon="2.712477">
        <ele>172.131</ele>
        <time>2021-02-02T11:12:04Z</time>
      </trkpt>
      <trkpt lat="42.016007" lon="2.712702">
        <ele>171.393</ele>
        <time>2021-02-02T11:12:06Z</time>
      </trkpt>
      <trkpt lat="42.015956" lon="2.712794">
        <ele>171.084</ele>
        <time>2021-02-02T11:12:07Z</time>
      </trkpt>
      <trkpt lat="42.015815" lon="2.712906">
        <ele>171.139</ele>
        <time>2021-02-02T11:12:09Z</time>
      </trkpt>
      <trkpt lat="42.015642" lon="2.712913">
        <ele>170.994</ele>
        <time>2021-02-02T11:12:11Z</time>
      </trkpt>
      <trkpt lat="42.015462" lon="2.712905">
        <ele>170.433</ele>
        <time>2021-02-02T11:12:13Z</time>
      </trkpt>
      <trkpt lat="42.015373" lon="2.712887">
        <ele>170.252</ele>
        <time>2021-02-02T11:12:14Z</time>
      </trkpt>
      <trkpt lat="42.015283" lon="2.712862">
        <ele>169.953</ele>
        <time>2021-02-02T11:12:15Z</time>
      </trkpt>
      <trkpt lat="42.015125" lon="2.712762">
        <ele>170.108</ele>
        <time>2021-02-02T11:12:17Z</time>
      </trkpt>
      <trkpt lat="42.015050" lon="2.712709">
        <ele>169.908</ele>
        <time>2021-02-02T11:12:18Z</time>
      </trkpt>
      <trkpt lat="42.014890" lon="2.712712">
        <ele>169.351</ele>
        <time>2021-02-02T11:12:20Z</time>
      </trkpt>
      <trkpt lat="42.014750" lon="2.712804">
        <ele>169.740</ele>
        <time>2021-02-02T11:12:22Z</time>
      </trkpt>
      <trkpt lat="42.014637" lon="2.712957">
        <ele>169.545</ele>
        <time>2021-02-02T11:12:24Z</time>
      </trkpt>
      <trkpt lat="42.014566" lon="2.713145">
        <ele>169.157</ele>
        <time>2021-02-02T11:12:26Z</time>
      </trkpt>
      <trkpt lat="42.014561" lon="2.713368">
        <ele>168.898</ele>
        <time>2021-02-02T11:12:28Z</time>
      </trkpt>
      <trkpt lat="42.014606" lon="2.713592">
        <ele>168.193</ele>
        <time>2021-02-02T11:12:30Z</time>
      </trkpt>
      <trkpt lat="42.014696" lon="2.713776">
        <ele>167.888</ele>
        <time>2021-02-02T11:12:32Z</time>
      </trkpt>
      <trkpt lat="42.014807" lon="2.713930">
        <ele>167.567</ele>
        <time>2021-02-02T11:12:34Z</time>
      </trkpt>
      <trkpt lat="42.014868" lon="2.714004">
        <ele>167.354</ele>
        <time>2021-02-02T11:12:35Z</time>
      </trkpt>
      <trkpt lat="42.014986" lon="2.714172">
        <ele>166.956</ele>
        <time>2021-02-02T11:12:37Z</time>
      </trkpt>
      <trkpt lat="42.015036" lon="2.714271">
        <ele>166.611</ele>
        <time>2021-02-02T11:12:38Z</time>
      </trkpt>
      <trkpt lat="42.015121" lon="2.714494">
        <ele>165.508</ele>
        <time>2021-02-02T11:12:40Z</time>
      </trkpt>
      <trkpt lat="42.015209" lon="2.714712">
        <ele>164.661</ele>
        <time>2021-02-02T11:12:42Z</time>
      </trkpt>
      <trkpt lat="42.015312" lon="2.714930">
        <ele>163.730</ele>
        <time>2021-02-02T11:12:44Z</time>
      </trkpt>
      <trkpt lat="42.015370" lon="2.715033">
        <ele>163.515</ele>
        <time>2021-02-02T11:12:45Z</time>
      </trkpt>
      <trkpt lat="42.015432" lon="2.715132">
        <ele>163.457</ele>
        <time>2021-02-02T11:12:46Z</time>
      </trkpt>
      <trkpt lat="42.015498" lon="2.715227">
        <ele>162.918</ele>
        <time>2021-02-02T11:12:47Z</time>
      </trkpt>
      <trkpt lat="42.015645" lon="2.715389">
        <ele>162.113</ele>
        <time>2021-02-02T11:12:49Z</time>
      </trkpt>
      <trkpt lat="42.015725" lon="2.715452">
        <ele>161.858</ele>
        <time>2021-02-02T11:12:50Z</time>
      </trkpt>
      <trkpt lat="42.015796" lon="2.715536">
        <ele>161.337</ele>
        <time>2021-02-02T11:12:51Z</time>
      </trkpt>
      <trkpt lat="42.015859" lon="2.715762">
        <ele>160.352</ele>
        <time>2021-02-02T11:12:53Z</time>
      </trkpt>
      <trkpt lat="42.015857" lon="2.715886">
        <ele>160.053</ele>
        <time>2021-02-02T11:12:54Z</time>
      </trkpt>
      <trkpt lat="42.015837" lon="2.716119">
        <ele>159.408</ele>
        <time>2021-02-02T11:12:56Z</time>
      </trkpt>
      <trkpt lat="42.015826" lon="2.716352">
        <ele>158.808</ele>
        <time>2021-02-02T11:12:58Z</time>
      </trkpt>
      <trkpt lat="42.015816" lon="2.716475">
        <ele>158.651</ele>
        <time>2021-02-02T11:12:59Z</time>
      </trkpt>
      <trkpt lat="42.015794" lon="2.716599">
        <ele>157.850</ele>
        <time>2021-02-02T11:13:00Z</time>
      </trkpt>
      <trkpt lat="42.015698" lon="2.716822">
        <ele>156.915</ele>
        <time>2021-02-02T11:13:02Z</time>
      </trkpt>
      <trkpt lat="42.015561" lon="2.717003">
        <ele>156.537</ele>
        <time>2021-02-02T11:13:04Z</time>
      </trkpt>
      <trkpt lat="42.015515" lon="2.717247">
        <ele>155.748</ele>
        <time>2021-02-02T11:13:06Z</time>
      </trkpt>
      <trkpt lat="42.015529" lon="2.717375">
        <ele>155.553</ele>
        <time>2021-02-02T11:13:07Z</time>
      </trkpt>
      <trkpt lat="42.015558" lon="2.717498">
        <ele>155.268</ele>
        <time>2021-02-02T11:13:08Z</time>
      </trkpt>
      <trkpt lat="42.015623" lon="2.717736">
        <ele>154.817</ele>
        <time>2021-02-02T11:13:10Z</time>
      </trkpt>
      <trkpt lat="42.015661" lon="2.717983">
        <ele>154.167</ele>
        <time>2021-02-02T11:13:12Z</time>
      </trkpt>
      <trkpt lat="42.015668" lon="2.718112">
        <ele>153.981</ele>
        <time>2021-02-02T11:13:13Z</time>
      </trkpt>
      <trkpt lat="42.015670" lon="2.718364">
        <ele>153.019</ele>
        <time>2021-02-02T11:13:15Z</time>
      </trkpt>
      <trkpt lat="42.015679" lon="2.718620">
        <ele>152.308</ele>
        <time>2021-02-02T11:13:17Z</time>
      </trkpt>
      <trkpt lat="42.015693" lon="2.718746">
        <ele>152.062</ele>
        <time>2021-02-02T11:13:18Z</time>
      </trkpt>
      <trkpt lat="42.015734" lon="2.718996">
        <ele>151.621</ele>
        <time>2021-02-02T11:13:20Z</time>
      </trkpt>
      <trkpt lat="42.015746" lon="2.719125">
        <ele>151.176</ele>
        <time>2021-02-02T11:13:21Z</time>
      </trkpt>
      <trkpt lat="42.015747" lon="2.719256">
        <ele>150.618</ele>
        <time>2021-02-02T11:13:22Z</time>
      </trkpt>
      <trkpt lat="42.015727" lon="2.719528">
        <ele>150.039</ele>
        <time>2021-02-02T11:13:24Z</time>
      </trkpt>
      <trkpt lat="42.015691" lon="2.719799">
        <ele>149.344</ele>
        <time>2021-02-02T11:13:26Z</time>
      </trkpt>
      <trkpt lat="42.015673" lon="2.719932">
        <ele>148.959</ele>
        <time>2021-02-02T11:13:27Z</time>
      </trkpt>
      <trkpt lat="42.015646" lon="2.720064">
        <ele>148.448</ele>
        <time>2021-02-02T11:13:28Z</time>
      </trkpt>
      <trkpt lat="42.015616" lon="2.720189">
        <ele>148.237</ele>
        <time>2021-02-02T11:13:29Z</time>
      </trkpt>
      <trkpt lat="42.015554" lon="2.720429">
        <ele>147.449</ele>
        <time>2021-02-02T11:13:31Z</time>
      </trkpt>
      <trkpt lat="42.015529" lon="2.720675">
        <ele>147.113</ele>
        <time>2021-02-02T11:13:33Z</time>
      </trkpt>
      <trkpt lat="42.015623" lon="2.720874">
        <ele>146.408</ele>
        <time>2021-02-02T11:13:35Z</time>
      </trkpt>
      <trkpt lat="42.015797" lon="2.720967">
        <ele>145.299</ele>
        <time>2021-02-02T11:13:37Z</time>
      </trkpt>
      <trkpt lat="42.015892" lon="2.720989">
        <ele>144.778</ele>
        <time>2021-02-02T11:13:38Z</time>
      </trkpt>
      <trkpt lat="42.015986" lon="2.721006">
        <ele>144.373</ele>
        <time>2021-02-02T11:13:39Z</time>
      </trkpt>
      <trkpt lat="42.016176" lon="2.721025">
        <ele>143.555</ele>
        <time>2021-02-02T11:13:41Z</time>
      </trkpt>
      <trkpt lat="42.016270" lon="2.721032">
        <ele>143.286</ele>
        <time>2021-02-02T11:13:42Z</time>
      </trkpt>
      <trkpt lat="42.016364" lon="2.721043">
        <ele>143.131</ele>
        <time>2021-02-02T11:13:43Z</time>
      </trkpt>
      <trkpt lat="42.016457" lon="2.721065">
        <ele>142.646</ele>
        <time>2021-02-02T11:13:44Z</time>
      </trkpt>
      <trkpt lat="42.016549" lon="2.721099">
        <ele>142.025</ele>
        <time>2021-02-02T11:13:45Z</time>
      </trkpt>
      <trkpt lat="42.016728" lon="2.721199">
        <ele>140.953</ele>
        <time>2021-02-02T11:13:47Z</time>
      </trkpt>
      <trkpt lat="42.016815" lon="2.721256">
        <ele>140.504</ele>
        <time>2021-02-02T11:13:48Z</time>
      </trkpt>
      <trkpt lat="42.016902" lon="2.721314">
        <ele>140.014</ele>
        <time>2021-02-02T11:13:49Z</time>
      </trkpt>
      <trkpt lat="42.017071" lon="2.721448">
        <ele>139.308</ele>
        <time>2021-02-02T11:13:51Z</time>
      </trkpt>
      <trkpt lat="42.017138" lon="2.721548">
        <ele>138.911</ele>
        <time>2021-02-02T11:13:52Z</time>
      </trkpt>
      <trkpt lat="42.017225" lon="2.721779">
        <ele>138.740</ele>
        <time>2021-02-02T11:13:54Z</time>
      </trkpt>
      <trkpt lat="42.017254" lon="2.721898">
        <ele>138.775</ele>
        <time>2021-02-02T11:13:55Z</time>
      </trkpt>
      <trkpt lat="42.017286" lon="2.722142">
        <ele>138.857</ele>
        <time>2021-02-02T11:13:57Z</time>
      </trkpt>
      <trkpt lat="42.017293" lon="2.722388">
        <ele>138.398</ele>
        <time>2021-02-02T11:13:59Z</time>
      </trkpt>
      <trkpt lat="42.017296" lon="2.722510">
        <ele>138.013</ele>
        <time>2021-02-02T11:14:00Z</time>
      </trkpt>
      <trkpt lat="42.017306" lon="2.722752">
        <ele>137.648</ele>
        <time>2021-02-02T11:14:02Z</time>
      </trkpt>
      <trkpt lat="42.017315" lon="2.722875">
        <ele>137.297</ele>
        <time>2021-02-02T11:14:03Z</time>
      </trkpt>
      <trkpt lat="42.017327" lon="2.723001">
        <ele>137.061</ele>
        <time>2021-02-02T11:14:04Z</time>
      </trkpt>
      <trkpt lat="42.017359" lon="2.723233">
        <ele>137.021</ele>
        <time>2021-02-02T11:14:06Z</time>
      </trkpt>
      <trkpt lat="42.017374" lon="2.723350">
        <ele>137.013</ele>
        <time>2021-02-02T11:14:07Z</time>
      </trkpt>
      <trkpt lat="42.017406" lon="2.723578">
        <ele>136.408</ele>
        <time>2021-02-02T11:14:09Z</time>
      </trkpt>
      <trkpt lat="42.017422" lon="2.723692">
        <ele>136.352</ele>
        <time>2021-02-02T11:14:10Z</time>
      </trkpt>
      <trkpt lat="42.017448" lon="2.723912">
        <ele>136.111</ele>
        <time>2021-02-02T11:14:12Z</time>
      </trkpt>
      <trkpt lat="42.017448" lon="2.724022">
        <ele>136.096</ele>
        <time>2021-02-02T11:14:13Z</time>
      </trkpt>
      <trkpt lat="42.017407" lon="2.724239">
        <ele>135.528</ele>
        <time>2021-02-02T11:14:15Z</time>
      </trkpt>
      <trkpt lat="42.017327" lon="2.724438">
        <ele>135.419</ele>
        <time>2021-02-02T11:14:17Z</time>
      </trkpt>
      <trkpt lat="42.017281" lon="2.724529">
        <ele>135.384</ele>
        <time>2021-02-02T11:14:18Z</time>
      </trkpt>
      <trkpt lat="42.017234" lon="2.724620">
        <ele>135.379</ele>
        <time>2021-02-02T11:14:19Z</time>
      </trkpt>
      <trkpt lat="42.017144" lon="2.724797">
        <ele>135.318</ele>
        <time>2021-02-02T11:14:21Z</time>
      </trkpt>
      <trkpt lat="42.017101" lon="2.724886">
        <ele>135.255</ele>
        <time>2021-02-02T11:14:22Z</time>
      </trkpt>
      <trkpt lat="42.017017" lon="2.725059">
        <ele>135.107</ele>
        <time>2021-02-02T11:14:24Z</time>
      </trkpt>
      <trkpt lat="42.016975" lon="2.725143">
        <ele>135.017</ele>
        <time>2021-02-02T11:14:25Z</time>
      </trkpt>
      <trkpt lat="42.016892" lon="2.725309">
        <ele>134.908</ele>
        <time>2021-02-02T11:14:27Z</time>
      </trkpt>
      <trkpt lat="42.016809" lon="2.725476">
        <ele>134.891</ele>
        <time>2021-02-02T11:14:29Z</time>
      </trkpt>
      <trkpt lat="42.016766" lon="2.725558">
        <ele>134.710</ele>
        <time>2021-02-02T11:14:30Z</time>
      </trkpt>
      <trkpt lat="42.016660" lon="2.725695">
        <ele>134.735</ele>
        <time>2021-02-02T11:14:32Z</time>
      </trkpt>
      <trkpt lat="42.016525" lon="2.725779">
        <ele>134.677</ele>
        <time>2021-02-02T11:14:34Z</time>
      </trkpt>
      <trkpt lat="42.016453" lon="2.725808">
        <ele>134.968</ele>
        <time>2021-02-02T11:14:35Z</time>
      </trkpt>
      <trkpt lat="42.016379" lon="2.725825">
        <ele>134.823</ele>
        <time>2021-02-02T11:14:36Z</time>
      </trkpt>
      <trkpt lat="42.016238" lon="2.725824">
        <ele>134.898</ele>
        <time>2021-02-02T11:14:38Z</time>
      </trkpt>
      <trkpt lat="42.016092" lon="2.725816">
        <ele>134.627</ele>
        <time>2021-02-02T11:14:40Z</time>
      </trkpt>
      <trkpt lat="42.015944" lon="2.725811">
        <ele>134.416</ele>
        <time>2021-02-02T11:14:42Z</time>
      </trkpt>
      <trkpt lat="42.015799" lon="2.725807">
        <ele>134.676</ele>
        <time>2021-02-02T11:14:44Z</time>
      </trkpt>
      <trkpt lat="42.015724" lon="2.725802">
        <ele>134.513</ele>
        <time>2021-02-02T11:14:45Z</time>
      </trkpt>
      <trkpt lat="42.015647" lon="2.725796">
        <ele>134.208</ele>
        <time>2021-02-02T11:14:46Z</time>
      </trkpt>
      <trkpt lat="42.015498" lon="2.725782">
        <ele>133.967</ele>
        <time>2021-02-02T11:14:48Z</time>
      </trkpt>
      <trkpt lat="42.015427" lon="2.725780">
        <ele>133.756</ele>
        <time>2021-02-02T11:14:49Z</time>
      </trkpt>
      <trkpt lat="42.015290" lon="2.725778">
        <ele>133.721</ele>
        <time>2021-02-02T11:14:51Z</time>
      </trkpt>
      <trkpt lat="42.015160" lon="2.725759">
        <ele>133.833</ele>
        <time>2021-02-02T11:14:53Z</time>
      </trkpt>
      <trkpt lat="42.015098" lon="2.725730">
        <ele>133.724</ele>
        <time>2021-02-02T11:14:54Z</time>
      </trkpt>
      <trkpt lat="42.015040" lon="2.725682">
        <ele>133.979</ele>
        <time>2021-02-02T11:14:55Z</time>
      </trkpt>
      <trkpt lat="42.014977" lon="2.725639">
        <ele>133.844</ele>
        <time>2021-02-02T11:14:56Z</time>
      </trkpt>
      <trkpt lat="42.014849" lon="2.725558">
        <ele>133.773</ele>
        <time>2021-02-02T11:14:58Z</time>
      </trkpt>
      <trkpt lat="42.014777" lon="2.725518">
        <ele>133.482</ele>
        <time>2021-02-02T11:14:59Z</time>
      </trkpt>
      <trkpt lat="42.014628" lon="2.725463">
        <ele>133.443</ele>
        <time>2021-02-02T11:15:01Z</time>
      </trkpt>
      <trkpt lat="42.014487" lon="2.725414">
        <ele>132.917</ele>
        <time>2021-02-02T11:15:03Z</time>
      </trkpt>
      <trkpt lat="42.014414" lon="2.725393">
        <ele>133.008</ele>
        <time>2021-02-02T11:15:04Z</time>
      </trkpt>
      <trkpt lat="42.014344" lon="2.725371">
        <ele>133.024</ele>
        <time>2021-02-02T11:15:05Z</time>
      </trkpt>
      <trkpt lat="42.014206" lon="2.725318">
        <ele>132.883</ele>
        <time>2021-02-02T11:15:07Z</time>
      </trkpt>
      <trkpt lat="42.014138" lon="2.725293">
        <ele>132.578</ele>
        <time>2021-02-02T11:15:08Z</time>
      </trkpt>
      <trkpt lat="42.014002" lon="2.725233">
        <ele>132.430</ele>
        <time>2021-02-02T11:15:10Z</time>
      </trkpt>
      <trkpt lat="42.013937" lon="2.725192">
        <ele>131.951</ele>
        <time>2021-02-02T11:15:11Z</time>
      </trkpt>
      <trkpt lat="42.013810" lon="2.725094">
        <ele>132.196</ele>
        <time>2021-02-02T11:15:13Z</time>
      </trkpt>
      <trkpt lat="42.013691" lon="2.725000">
        <ele>131.911</ele>
        <time>2021-02-02T11:15:15Z</time>
      </trkpt>
      <trkpt lat="42.013627" lon="2.724959">
        <ele>131.990</ele>
        <time>2021-02-02T11:15:16Z</time>
      </trkpt>
      <trkpt lat="42.013561" lon="2.724933">
        <ele>131.951</ele>
        <time>2021-02-02T11:15:17Z</time>
      </trkpt>
      <trkpt lat="42.013496" lon="2.724921">
        <ele>132.301</ele>
        <time>2021-02-02T11:15:18Z</time>
      </trkpt>
      <trkpt lat="42.013432" lon="2.724928">
        <ele>132.411</ele>
        <time>2021-02-02T11:15:19Z</time>
      </trkpt>
      <trkpt lat="42.013370" lon="2.724951">
        <ele>131.808</ele>
        <time>2021-02-02T11:15:20Z</time>
      </trkpt>
      <trkpt lat="42.013257" lon="2.725038">
        <ele>132.311</ele>
        <time>2021-02-02T11:15:22Z</time>
      </trkpt>
      <trkpt lat="42.013163" lon="2.725155">
        <ele>132.050</ele>
        <time>2021-02-02T11:15:24Z</time>
      </trkpt>
      <trkpt lat="42.013099" lon="2.725304">
        <ele>131.745</ele>
        <time>2021-02-02T11:15:26Z</time>
      </trkpt>
      <trkpt lat="42.013053" lon="2.725475">
        <ele>131.257</ele>
        <time>2021-02-02T11:15:28Z</time>
      </trkpt>
      <trkpt lat="42.013028" lon="2.725566">
        <ele>130.928</ele>
        <time>2021-02-02T11:15:29Z</time>
      </trkpt>
      <trkpt lat="42.012988" lon="2.725743">
        <ele>131.033</ele>
        <time>2021-02-02T11:15:31Z</time>
      </trkpt>
      <trkpt lat="42.012969" lon="2.725826">
        <ele>130.878</ele>
        <time>2021-02-02T11:15:32Z</time>
      </trkpt>
      <trkpt lat="42.012951" lon="2.725907">
        <ele>130.727</ele>
        <time>2021-02-02T11:15:33Z</time>
      </trkpt>
      <trkpt lat="42.012916" lon="2.726068">
        <ele>130.316</ele>
        <time>2021-02-02T11:15:35Z</time>
      </trkpt>
      <trkpt lat="42.012900" lon="2.726152">
        <ele>130.476</ele>
        <time>2021-02-02T11:15:36Z</time>
      </trkpt>
      <trkpt lat="42.012877" lon="2.726239">
        <ele>130.313</ele>
        <time>2021-02-02T11:15:37Z</time>
      </trkpt>
      <trkpt lat="42.012851" lon="2.726323">
        <ele>129.908</ele>
        <time>2021-02-02T11:15:38Z</time>
      </trkpt>
      <trkpt lat="42.012797" lon="2.726490">
        <ele>129.887</ele>
        <time>2021-02-02T11:15:40Z</time>
      </trkpt>
      <trkpt lat="42.012770" lon="2.726571">
        <ele>130.336</ele>
        <time>2021-02-02T11:15:41Z</time>
      </trkpt>
      <trkpt lat="42.012740" lon="2.726652">
        <ele>130.221</ele>
        <time>2021-02-02T11:15:42Z</time>
      </trkpt>
      <trkpt lat="42.012677" lon="2.726820">
        <ele>129.633</ele>
        <time>2021-02-02T11:15:44Z</time>
      </trkpt>
      <trkpt lat="42.012616" lon="2.726987">
        <ele>129.944</ele>
        <time>2021-02-02T11:15:46Z</time>
      </trkpt>
      <trkpt lat="42.012566" lon="2.727139">
        <ele>129.869</ele>
        <time>2021-02-02T11:15:48Z</time>
      </trkpt>
      <trkpt lat="42.012515" lon="2.727293">
        <ele>129.724</ele>
        <time>2021-02-02T11:15:50Z</time>
      </trkpt>
      <trkpt lat="42.012455" lon="2.727452">
        <ele>129.673</ele>
        <time>2021-02-02T11:15:52Z</time>
      </trkpt>
      <trkpt lat="42.012428" lon="2.727532">
        <ele>129.791</ele>
        <time>2021-02-02T11:15:53Z</time>
      </trkpt>
      <trkpt lat="42.012402" lon="2.727612">
        <ele>129.781</ele>
        <time>2021-02-02T11:15:54Z</time>
      </trkpt>
      <trkpt lat="42.012352" lon="2.727765">
        <ele>129.719</ele>
        <time>2021-02-02T11:15:56Z</time>
      </trkpt>
      <trkpt lat="42.012326" lon="2.727842">
        <ele>129.508</ele>
        <time>2021-02-02T11:15:57Z</time>
      </trkpt>
      <trkpt lat="42.012273" lon="2.727991">
        <ele>129.535</ele>
        <time>2021-02-02T11:15:59Z</time>
      </trkpt>
      <trkpt lat="42.012243" lon="2.728068">
        <ele>129.624</ele>
        <time>2021-02-02T11:16:00Z</time>
      </trkpt>
      <trkpt lat="42.012182" lon="2.728219">
        <ele>129.419</ele>
        <time>2021-02-02T11:16:02Z</time>
      </trkpt>
      <trkpt lat="42.012150" lon="2.728298">
        <ele>129.521</ele>
        <time>2021-02-02T11:16:03Z</time>
      </trkpt>
      <trkpt lat="42.012088" lon="2.728452">
        <ele>129.612</ele>
        <time>2021-02-02T11:16:05Z</time>
      </trkpt>
      <trkpt lat="42.012025" lon="2.728596">
        <ele>129.527</ele>
        <time>2021-02-02T11:16:07Z</time>
      </trkpt>
      <trkpt lat="42.011991" lon="2.728664">
        <ele>129.592</ele>
        <time>2021-02-02T11:16:08Z</time>
      </trkpt>
      <trkpt lat="42.011924" lon="2.728800">
        <ele>129.491</ele>
        <time>2021-02-02T11:16:10Z</time>
      </trkpt>
      <trkpt lat="42.011889" lon="2.728869">
        <ele>129.527</ele>
        <time>2021-02-02T11:16:11Z</time>
      </trkpt>
      <trkpt lat="42.011816" lon="2.729006">
        <ele>129.068</ele>
        <time>2021-02-02T11:16:13Z</time>
      </trkpt>
      <trkpt lat="42.011743" lon="2.729146">
        <ele>128.814</ele>
        <time>2021-02-02T11:16:15Z</time>
      </trkpt>
      <trkpt lat="42.011668" lon="2.729284">
        <ele>129.008</ele>
        <time>2021-02-02T11:16:17Z</time>
      </trkpt>
      <trkpt lat="42.011598" lon="2.729416">
        <ele>128.978</ele>
        <time>2021-02-02T11:16:19Z</time>
      </trkpt>
      <trkpt lat="42.011530" lon="2.729549">
        <ele>129.317</ele>
        <time>2021-02-02T11:16:21Z</time>
      </trkpt>
      <trkpt lat="42.011496" lon="2.729618">
        <ele>129.062</ele>
        <time>2021-02-02T11:16:22Z</time>
      </trkpt>
      <trkpt lat="42.011429" lon="2.729756">
        <ele>129.024</ele>
        <time>2021-02-02T11:16:24Z</time>
      </trkpt>
      <trkpt lat="42.011395" lon="2.729826">
        <ele>129.215</ele>
        <time>2021-02-02T11:16:25Z</time>
      </trkpt>
      <trkpt lat="42.011325" lon="2.729954">
        <ele>129.310</ele>
        <time>2021-02-02T11:16:27Z</time>
      </trkpt>
      <trkpt lat="42.011290" lon="2.730025">
        <ele>129.275</ele>
        <time>2021-02-02T11:16:28Z</time>
      </trkpt>
      <trkpt lat="42.011222" lon="2.730155">
        <ele>129.494</ele>
        <time>2021-02-02T11:16:30Z</time>
      </trkpt>
      <trkpt lat="42.011188" lon="2.730225">
        <ele>129.363</ele>
        <time>2021-02-02T11:16:31Z</time>
      </trkpt>
      <trkpt lat="42.011154" lon="2.730295">
        <ele>129.044</ele>
        <time>2021-02-02T11:16:32Z</time>
      </trkpt>
      <trkpt lat="42.011118" lon="2.730366">
        <ele>129.218</ele>
        <time>2021-02-02T11:16:33Z</time>
      </trkpt>
      <trkpt lat="42.011083" lon="2.730438">
        <ele>128.808</ele>
        <time>2021-02-02T11:16:34Z</time>
      </trkpt>
      <trkpt lat="42.011013" lon="2.730583">
        <ele>128.982</ele>
        <time>2021-02-02T11:16:36Z</time>
      </trkpt>
      <trkpt lat="42.010943" lon="2.730721">
        <ele>128.551</ele>
        <time>2021-02-02T11:16:38Z</time>
      </trkpt>
      <trkpt lat="42.010864" lon="2.730868">
        <ele>128.686</ele>
        <time>2021-02-02T11:16:40Z</time>
      </trkpt>
      <trkpt lat="42.010795" lon="2.731015">
        <ele>128.018</ele>
        <time>2021-02-02T11:16:42Z</time>
      </trkpt>
      <trkpt lat="42.010761" lon="2.731085">
        <ele>127.979</ele>
        <time>2021-02-02T11:16:43Z</time>
      </trkpt>
      <trkpt lat="42.010688" lon="2.731232">
        <ele>128.044</ele>
        <time>2021-02-02T11:16:45Z</time>
      </trkpt>
      <trkpt lat="42.010612" lon="2.731381">
        <ele>127.479</ele>
        <time>2021-02-02T11:16:47Z</time>
      </trkpt>
      <trkpt lat="42.010574" lon="2.731460">
        <ele>127.558</ele>
        <time>2021-02-02T11:16:48Z</time>
      </trkpt>
      <trkpt lat="42.010499" lon="2.731613">
        <ele>127.615</ele>
        <time>2021-02-02T11:16:50Z</time>
      </trkpt>
      <trkpt lat="42.010428" lon="2.731753">
        <ele>127.765</ele>
        <time>2021-02-02T11:16:52Z</time>
      </trkpt>
      <trkpt lat="42.010389" lon="2.731830">
        <ele>127.711</ele>
        <time>2021-02-02T11:16:53Z</time>
      </trkpt>
      <trkpt lat="42.010311" lon="2.731986">
        <ele>127.408</ele>
        <time>2021-02-02T11:16:55Z</time>
      </trkpt>
      <trkpt lat="42.010273" lon="2.732063">
        <ele>127.247</ele>
        <time>2021-02-02T11:16:56Z</time>
      </trkpt>
      <trkpt lat="42.010190" lon="2.732214">
        <ele>127.416</ele>
        <time>2021-02-02T11:16:58Z</time>
      </trkpt>
      <trkpt lat="42.010153" lon="2.732296">
        <ele>127.491</ele>
        <time>2021-02-02T11:16:59Z</time>
      </trkpt>
      <trkpt lat="42.010089" lon="2.732464">
        <ele>127.543</ele>
        <time>2021-02-02T11:17:01Z</time>
      </trkpt>
      <trkpt lat="42.010063" lon="2.732552">
        <ele>127.594</ele>
        <time>2021-02-02T11:17:02Z</time>
      </trkpt>
      <trkpt lat="42.010027" lon="2.732731">
        <ele>127.419</ele>
        <time>2021-02-02T11:17:04Z</time>
      </trkpt>
      <trkpt lat="42.010021" lon="2.732821">
        <ele>127.844</ele>
        <time>2021-02-02T11:17:05Z</time>
      </trkpt>
      <trkpt lat="42.010016" lon="2.732914">
        <ele>128.263</ele>
        <time>2021-02-02T11:17:06Z</time>
      </trkpt>
      <trkpt lat="42.010014" lon="2.733008">
        <ele>128.181</ele>
        <time>2021-02-02T11:17:07Z</time>
      </trkpt>
      <trkpt lat="42.010016" lon="2.733103">
        <ele>127.961</ele>
        <time>2021-02-02T11:17:08Z</time>
      </trkpt>
      <trkpt lat="42.010018" lon="2.733285">
        <ele>127.917</ele>
        <time>2021-02-02T11:17:10Z</time>
      </trkpt>
      <trkpt lat="42.010022" lon="2.733466">
        <ele>127.808</ele>
        <time>2021-02-02T11:17:12Z</time>
      </trkpt>
      <trkpt lat="42.010026" lon="2.733554">
        <ele>127.764</ele>
        <time>2021-02-02T11:17:13Z</time>
      </trkpt>
      <trkpt lat="42.010028" lon="2.733739">
        <ele>127.693</ele>
        <time>2021-02-02T11:17:15Z</time>
      </trkpt>
      <trkpt lat="42.010022" lon="2.733905">
        <ele>127.748</ele>
        <time>2021-02-02T11:17:17Z</time>
      </trkpt>
      <trkpt lat="42.010005" lon="2.733988">
        <ele>127.410</ele>
        <time>2021-02-02T11:17:18Z</time>
      </trkpt>
      <trkpt lat="42.009982" lon="2.734065">
        <ele>127.391</ele>
        <time>2021-02-02T11:17:19Z</time>
      </trkpt>
      <trkpt lat="42.009896" lon="2.734170">
        <ele>127.676</ele>
        <time>2021-02-02T11:17:21Z</time>
      </trkpt>
      <trkpt lat="42.009781" lon="2.734228">
        <ele>127.761</ele>
        <time>2021-02-02T11:17:23Z</time>
      </trkpt>
      <trkpt lat="42.009713" lon="2.734249">
        <ele>127.770</ele>
        <time>2021-02-02T11:17:24Z</time>
      </trkpt>
      <trkpt lat="42.009574" lon="2.734291">
        <ele>127.893</ele>
        <time>2021-02-02T11:17:26Z</time>
      </trkpt>
      <trkpt lat="42.009503" lon="2.734313">
        <ele>127.965</ele>
        <time>2021-02-02T11:17:27Z</time>
      </trkpt>
      <trkpt lat="42.009370" lon="2.734364">
        <ele>128.421</ele>
        <time>2021-02-02T11:17:29Z</time>
      </trkpt>
      <trkpt lat="42.009253" lon="2.734451">
        <ele>128.608</ele>
        <time>2021-02-02T11:17:31Z</time>
      </trkpt>
      <trkpt lat="42.009202" lon="2.734503">
        <ele>128.695</ele>
        <time>2021-02-02T11:17:32Z</time>
      </trkpt>
      <trkpt lat="42.009129" lon="2.734643">
        <ele>128.874</ele>
        <time>2021-02-02T11:17:34Z</time>
      </trkpt>
      <trkpt lat="42.009073" lon="2.734798">
        <ele>129.059</ele>
        <time>2021-02-02T11:17:36Z</time>
      </trkpt>
      <trkpt lat="42.009020" lon="2.734944">
        <ele>129.771</ele>
        <time>2021-02-02T11:17:38Z</time>
      </trkpt>
      <trkpt lat="42.008992" lon="2.735016">
        <ele>129.782</ele>
        <time>2021-02-02T11:17:39Z</time>
      </trkpt>
      <trkpt lat="42.008965" lon="2.735088">
        <ele>129.777</ele>
        <time>2021-02-02T11:17:40Z</time>
      </trkpt>
      <trkpt lat="42.008939" lon="2.735158">
        <ele>129.782</ele>
        <time>2021-02-02T11:17:41Z</time>
      </trkpt>
      <trkpt lat="42.008885" lon="2.735296">
        <ele>129.631</ele>
        <time>2021-02-02T11:17:43Z</time>
      </trkpt>
      <trkpt lat="42.008858" lon="2.735369">
        <ele>129.349</ele>
        <time>2021-02-02T11:17:44Z</time>
      </trkpt>
      <trkpt lat="42.008802" lon="2.735537">
        <ele>129.102</ele>
        <time>2021-02-02T11:17:46Z</time>
      </trkpt>
      <trkpt lat="42.008787" lon="2.735628">
        <ele>128.922</ele>
        <time>2021-02-02T11:17:47Z</time>
      </trkpt>
      <trkpt lat="42.008792" lon="2.735818">
        <ele>128.808</ele>
        <time>2021-02-02T11:17:49Z</time>
      </trkpt>
      <trkpt lat="42.008844" lon="2.735999">
        <ele>128.730</ele>
        <time>2021-02-02T11:17:51Z</time>
      </trkpt>
      <trkpt lat="42.008884" lon="2.736076">
        <ele>128.869</ele>
        <time>2021-02-02T11:17:52Z</time>
      </trkpt>
      <trkpt lat="42.008998" lon="2.736183">
        <ele>128.844</ele>
        <time>2021-02-02T11:17:54Z</time>
      </trkpt>
      <trkpt lat="42.009125" lon="2.736266">
        <ele>128.856</ele>
        <time>2021-02-02T11:17:56Z</time>
      </trkpt>
      <trkpt lat="42.009252" lon="2.736307">
        <ele>128.747</ele>
        <time>2021-02-02T11:17:58Z</time>
      </trkpt>
      <trkpt lat="42.009370" lon="2.736356">
        <ele>128.482</ele>
        <time>2021-02-02T11:18:00Z</time>
      </trkpt>
      <trkpt lat="42.009432" lon="2.736391">
        <ele>128.537</ele>
        <time>2021-02-02T11:18:01Z</time>
      </trkpt>
      <trkpt lat="42.009493" lon="2.736439">
        <ele>128.446</ele>
        <time>2021-02-02T11:18:02Z</time>
      </trkpt>
      <trkpt lat="42.009602" lon="2.736574">
        <ele>128.321</ele>
        <time>2021-02-02T11:18:04Z</time>
      </trkpt>
      <trkpt lat="42.009641" lon="2.736658">
        <ele>128.141</ele>
        <time>2021-02-02T11:18:05Z</time>
      </trkpt>
      <trkpt lat="42.009698" lon="2.736834">
        <ele>128.105</ele>
        <time>2021-02-02T11:18:07Z</time>
      </trkpt>
      <trkpt lat="42.009751" lon="2.737003">
        <ele>127.808</ele>
        <time>2021-02-02T11:18:09Z</time>
      </trkpt>
      <trkpt lat="42.009803" lon="2.737170">
        <ele>128.178</ele>
        <time>2021-02-02T11:18:11Z</time>
      </trkpt>
      <trkpt lat="42.009825" lon="2.737251">
        <ele>127.937</ele>
        <time>2021-02-02T11:18:12Z</time>
      </trkpt>
      <trkpt lat="42.009857" lon="2.737427">
        <ele>128.122</ele>
        <time>2021-02-02T11:18:14Z</time>
      </trkpt>
      <trkpt lat="42.009865" lon="2.737513">
        <ele>128.394</ele>
        <time>2021-02-02T11:18:15Z</time>
      </trkpt>
      <trkpt lat="42.009839" lon="2.737666">
        <ele>128.575</ele>
        <time>2021-02-02T11:18:17Z</time>
      </trkpt>
      <trkpt lat="42.009759" lon="2.737787">
        <ele>128.720</ele>
        <time>2021-02-02T11:18:19Z</time>
      </trkpt>
      <trkpt lat="42.009646" lon="2.737881">
        <ele>128.835</ele>
        <time>2021-02-02T11:18:21Z</time>
      </trkpt>
      <trkpt lat="42.009587" lon="2.737914">
        <ele>129.094</ele>
        <time>2021-02-02T11:18:22Z</time>
      </trkpt>
      <trkpt lat="42.009463" lon="2.737963">
        <ele>128.882</ele>
        <time>2021-02-02T11:18:24Z</time>
      </trkpt>
      <trkpt lat="42.009333" lon="2.737977">
        <ele>128.943</ele>
        <time>2021-02-02T11:18:26Z</time>
      </trkpt>
      <trkpt lat="42.009267" lon="2.737975">
        <ele>129.217</ele>
        <time>2021-02-02T11:18:27Z</time>
      </trkpt>
      <trkpt lat="42.009138" lon="2.737962">
        <ele>129.308</ele>
        <time>2021-02-02T11:18:29Z</time>
      </trkpt>
      <trkpt lat="42.009077" lon="2.737953">
        <ele>129.244</ele>
        <time>2021-02-02T11:18:30Z</time>
      </trkpt>
      <trkpt lat="42.008962" lon="2.737938">
        <ele>129.813</ele>
        <time>2021-02-02T11:18:32Z</time>
      </trkpt>
      <trkpt lat="42.008905" lon="2.737922">
        <ele>129.618</ele>
        <time>2021-02-02T11:18:33Z</time>
      </trkpt>
      <trkpt lat="42.008790" lon="2.737878">
        <ele>129.540</ele>
        <time>2021-02-02T11:18:35Z</time>
      </trkpt>
      <trkpt lat="42.008733" lon="2.737859">
        <ele>129.961</ele>
        <time>2021-02-02T11:18:36Z</time>
      </trkpt>
      <trkpt lat="42.008677" lon="2.737843">
        <ele>129.936</ele>
        <time>2021-02-02T11:18:37Z</time>
      </trkpt>
      <trkpt lat="42.008571" lon="2.737813">
        <ele>130.141</ele>
        <time>2021-02-02T11:18:39Z</time>
      </trkpt>
      <trkpt lat="42.008518" lon="2.737798">
        <ele>130.160</ele>
        <time>2021-02-02T11:18:40Z</time>
      </trkpt>
      <trkpt lat="42.008464" lon="2.737783">
        <ele>130.328</ele>
        <time>2021-02-02T11:18:41Z</time>
      </trkpt>
      <trkpt lat="42.008356" lon="2.737752">
        <ele>130.489</ele>
        <time>2021-02-02T11:18:43Z</time>
      </trkpt>
      <trkpt lat="42.008252" lon="2.737716">
        <ele>130.617</ele>
        <time>2021-02-02T11:18:45Z</time>
      </trkpt>
      <trkpt lat="42.008201" lon="2.737698">
        <ele>130.608</ele>
        <time>2021-02-02T11:18:46Z</time>
      </trkpt>
      <trkpt lat="42.008104" lon="2.737662">
        <ele>130.958</ele>
        <time>2021-02-02T11:18:48Z</time>
      </trkpt>
      <trkpt lat="42.008057" lon="2.737646">
        <ele>131.267</ele>
        <time>2021-02-02T11:18:49Z</time>
      </trkpt>
      <trkpt lat="42.008011" lon="2.737634">
        <ele>131.482</ele>
        <time>2021-02-02T11:18:50Z</time>
      </trkpt>
      <trkpt lat="42.007924" lon="2.737613">
        <ele>131.924</ele>
        <time>2021-02-02T11:18:52Z</time>
      </trkpt>
      <trkpt lat="42.007849" lon="2.737599">
        <ele>131.915</ele>
        <time>2021-02-02T11:18:54Z</time>
      </trkpt>
      <trkpt lat="42.007766" lon="2.737582">
        <ele>132.110</ele>
        <time>2021-02-02T11:18:56Z</time>
      </trkpt>
      <trkpt lat="42.007681" lon="2.737568">
        <ele>132.235</ele>
        <time>2021-02-02T11:18:58Z</time>
      </trkpt>
      <trkpt lat="42.007584" lon="2.737563">
        <ele>132.224</ele>
        <time>2021-02-02T11:19:00Z</time>
      </trkpt>
      <trkpt lat="42.007491" lon="2.737561">
        <ele>132.374</ele>
        <time>2021-02-02T11:19:02Z</time>
      </trkpt>
      <trkpt lat="42.007442" lon="2.737559">
        <ele>132.456</ele>
        <time>2021-02-02T11:19:03Z</time>
      </trkpt>
      <trkpt lat="42.007348" lon="2.737574">
        <ele>132.121</ele>
        <time>2021-02-02T11:19:05Z</time>
      </trkpt>
      <trkpt lat="42.007313" lon="2.737651">
        <ele>132.808</ele>
        <time>2021-02-02T11:19:07Z</time>
      </trkpt>
      <trkpt lat="42.007339" lon="2.737767">
        <ele>132.823</ele>
        <time>2021-02-02T11:19:09Z</time>
      </trkpt>
      <trkpt lat="42.007365" lon="2.737878">
        <ele>133.212</ele>
        <time>2021-02-02T11:19:11Z</time>
      </trkpt>
      <trkpt lat="42.007382" lon="2.737938">
        <ele>133.287</ele>
        <time>2021-02-02T11:19:12Z</time>
      </trkpt>
      <trkpt lat="42.007421" lon="2.738049">
        <ele>133.469</ele>
        <time>2021-02-02T11:19:14Z</time>
      </trkpt>
      <trkpt lat="42.007453" lon="2.738146">
        <ele>133.920</ele>
        <time>2021-02-02T11:19:16Z</time>
      </trkpt>
      <trkpt lat="42.007476" lon="2.738245">
        <ele>134.025</ele>
        <time>2021-02-02T11:19:18Z</time>
      </trkpt>
      <trkpt lat="42.007495" lon="2.738349">
        <ele>134.620</ele>
        <time>2021-02-02T11:19:20Z</time>
      </trkpt>
      <trkpt lat="42.007520" lon="2.738451">
        <ele>135.139</ele>
        <time>2021-02-02T11:19:22Z</time>
      </trkpt>
      <trkpt lat="42.007544" lon="2.738550">
        <ele>135.714</ele>
        <time>2021-02-02T11:19:24Z</time>
      </trkpt>
      <trkpt lat="42.007568" lon="2.738646">
        <ele>135.854</ele>
        <time>2021-02-02T11:19:26Z</time>
      </trkpt>
      <trkpt lat="42.007589" lon="2.738727">
        <ele>136.109</ele>
        <time>2021-02-02T11:19:28Z</time>
      </trkpt>
      <trkpt lat="42.007616" lon="2.738815">
        <ele>136.708</ele>
        <time>2021-02-02T11:19:30Z</time>
      </trkpt>
      <trkpt lat="42.007637" lon="2.738895">
        <ele>137.527</ele>
        <time>2021-02-02T11:19:32Z</time>
      </trkpt>
      <trkpt lat="42.007661" lon="2.738978">
        <ele>137.956</ele>
        <time>2021-02-02T11:19:34Z</time>
      </trkpt>
      <trkpt lat="42.007682" lon="2.739061">
        <ele>138.451</ele>
        <time>2021-02-02T11:19:36Z</time>
      </trkpt>
      <trkpt lat="42.007701" lon="2.739129">
        <ele>139.073</ele>
        <time>2021-02-02T11:19:38Z</time>
      </trkpt>
      <trkpt lat="42.007722" lon="2.739202">
        <ele>139.424</ele>
        <time>2021-02-02T11:19:40Z</time>
      </trkpt>
      <trkpt lat="42.007736" lon="2.739265">
        <ele>140.029</ele>
        <time>2021-02-02T11:19:42Z</time>
      </trkpt>
      <trkpt lat="42.007750" lon="2.739331">
        <ele>140.514</ele>
        <time>2021-02-02T11:19:44Z</time>
      </trkpt>
      <trkpt lat="42.007769" lon="2.739424">
        <ele>141.253</ele>
        <time>2021-02-02T11:19:47Z</time>
      </trkpt>
      <trkpt lat="42.007782" lon="2.739483">
        <ele>141.736</ele>
        <time>2021-02-02T11:19:49Z</time>
      </trkpt>
      <trkpt lat="42.007795" lon="2.739544">
        <ele>142.217</ele>
        <time>2021-02-02T11:19:51Z</time>
      </trkpt>
      <trkpt lat="42.007810" lon="2.739612">
        <ele>142.818</ele>
        <time>2021-02-02T11:19:53Z</time>
      </trkpt>
      <trkpt lat="42.007826" lon="2.739703">
        <ele>143.608</ele>
        <time>2021-02-02T11:19:56Z</time>
      </trkpt>
      <trkpt lat="42.007838" lon="2.739771">
        <ele>144.329</ele>
        <time>2021-02-02T11:19:58Z</time>
      </trkpt>
      <trkpt lat="42.007849" lon="2.739855">
        <ele>145.018</ele>
        <time>2021-02-02T11:20:01Z</time>
      </trkpt>
      <trkpt lat="42.007858" lon="2.739918">
        <ele>145.283</ele>
        <time>2021-02-02T11:20:03Z</time>
      </trkpt>
      <trkpt lat="42.007867" lon="2.739985">
        <ele>145.845</ele>
        <time>2021-02-02T11:20:05Z</time>
      </trkpt>
      <trkpt lat="42.007874" lon="2.740060">
        <ele>146.396</ele>
        <time>2021-02-02T11:20:07Z</time>
      </trkpt>
      <trkpt lat="42.007879" lon="2.740131">
        <ele>146.981</ele>
        <time>2021-02-02T11:20:09Z</time>
      </trkpt>
      <trkpt lat="42.007880" lon="2.740193">
        <ele>147.436</ele>
        <time>2021-02-02T11:20:11Z</time>
      </trkpt>
      <trkpt lat="42.007880" lon="2.740260">
        <ele>147.665</ele>
        <time>2021-02-02T11:20:13Z</time>
      </trkpt>
      <trkpt lat="42.007884" lon="2.740321">
        <ele>148.236</ele>
        <time>2021-02-02T11:20:15Z</time>
      </trkpt>
      <trkpt lat="42.007887" lon="2.740407">
        <ele>149.117</ele>
        <time>2021-02-02T11:20:18Z</time>
      </trkpt>
      <trkpt lat="42.007887" lon="2.740491">
        <ele>149.718</ele>
        <time>2021-02-02T11:20:21Z</time>
      </trkpt>
      <trkpt lat="42.007874" lon="2.740574">
        <ele>150.508</ele>
        <time>2021-02-02T11:20:24Z</time>
      </trkpt>
      <trkpt lat="42.007861" lon="2.740657">
        <ele>151.249</ele>
        <time>2021-02-02T11:20:27Z</time>
      </trkpt>
      <trkpt lat="42.007855" lon="2.740736">
        <ele>151.798</ele>
        <time>2021-02-02T11:20:30Z</time>
      </trkpt>
      <trkpt lat="42.007854" lon="2.740816">
        <ele>152.793</ele>
        <time>2021-02-02T11:20:33Z</time>
      </trkpt>
      <trkpt lat="42.007848" lon="2.740893">
        <ele>153.255</ele>
        <time>2021-02-02T11:20:36Z</time>
      </trkpt>
      <trkpt lat="42.007847" lon="2.740972">
        <ele>154.196</ele>
        <time>2021-02-02T11:20:39Z</time>
      </trkpt>
      <trkpt lat="42.007843" lon="2.741049">
        <ele>154.781</ele>
        <time>2021-02-02T11:20:42Z</time>
      </trkpt>
      <trkpt lat="42.007840" lon="2.741118">
        <ele>155.346</ele>
        <time>2021-02-02T11:20:45Z</time>
      </trkpt>
      <trkpt lat="42.007853" lon="2.741197">
        <ele>156.065</ele>
        <time>2021-02-02T11:20:48Z</time>
      </trkpt>
      <trkpt lat="42.007873" lon="2.741271">
        <ele>156.922</ele>
        <time>2021-02-02T11:20:51Z</time>
      </trkpt>
      <trkpt lat="42.007894" lon="2.741343">
        <ele>157.562</ele>
        <time>2021-02-02T11:20:54Z</time>
      </trkpt>
      <trkpt lat="42.007913" lon="2.741413">
        <ele>158.108</ele>
        <time>2021-02-02T11:20:57Z</time>
      </trkpt>
      <trkpt lat="42.007936" lon="2.741481">
        <ele>158.308</ele>
        <time>2021-02-02T11:21:00Z</time>
      </trkpt>
      <trkpt lat="42.007964" lon="2.741542">
        <ele>159.028</ele>
        <time>2021-02-02T11:21:03Z</time>
      </trkpt>
      <trkpt lat="42.007986" lon="2.741613">
        <ele>159.647</ele>
        <time>2021-02-02T11:21:06Z</time>
      </trkpt>
      <trkpt lat="42.008016" lon="2.741686">
        <ele>160.222</ele>
        <time>2021-02-02T11:21:09Z</time>
      </trkpt>
      <trkpt lat="42.008053" lon="2.741750">
        <ele>161.134</ele>
        <time>2021-02-02T11:21:12Z</time>
      </trkpt>
      <trkpt lat="42.008095" lon="2.741808">
        <ele>161.585</ele>
        <time>2021-02-02T11:21:15Z</time>
      </trkpt>
      <trkpt lat="42.008144" lon="2.741867">
        <ele>161.940</ele>
        <time>2021-02-02T11:21:18Z</time>
      </trkpt>
      <trkpt lat="42.008195" lon="2.741915">
        <ele>162.525</ele>
        <time>2021-02-02T11:21:21Z</time>
      </trkpt>
      <trkpt lat="42.008243" lon="2.741967">
        <ele>163.084</ele>
        <time>2021-02-02T11:21:24Z</time>
      </trkpt>
      <trkpt lat="42.008297" lon="2.742009">
        <ele>163.487</ele>
        <time>2021-02-02T11:21:27Z</time>
      </trkpt>
      <trkpt lat="42.008352" lon="2.742049">
        <ele>163.842</ele>
        <time>2021-02-02T11:21:30Z</time>
      </trkpt>
      <trkpt lat="42.008400" lon="2.742079">
        <ele>164.226</ele>
        <time>2021-02-02T11:21:33Z</time>
      </trkpt>
      <trkpt lat="42.008448" lon="2.742113">
        <ele>164.308</ele>
        <time>2021-02-02T11:21:35Z</time>
      </trkpt>
      <trkpt lat="42.008488" lon="2.742141">
        <ele>164.774</ele>
        <time>2021-02-02T11:21:37Z</time>
      </trkpt>
      <trkpt lat="42.008531" lon="2.742168">
        <ele>164.633</ele>
        <time>2021-02-02T11:21:39Z</time>
      </trkpt>
      <trkpt lat="42.008578" lon="2.742195">
        <ele>164.918</ele>
        <time>2021-02-02T11:21:41Z</time>
      </trkpt>
      <trkpt lat="42.008627" lon="2.742219">
        <ele>165.080</ele>
        <time>2021-02-02T11:21:43Z</time>
      </trkpt>
      <trkpt lat="42.008680" lon="2.742245">
        <ele>164.921</ele>
        <time>2021-02-02T11:21:45Z</time>
      </trkpt>
      <trkpt lat="42.008736" lon="2.742275">
        <ele>165.346</ele>
        <time>2021-02-02T11:21:47Z</time>
      </trkpt>
      <trkpt lat="42.008798" lon="2.742308">
        <ele>165.741</ele>
        <time>2021-02-02T11:21:49Z</time>
      </trkpt>
      <trkpt lat="42.008862" lon="2.742341">
        <ele>166.050</ele>
        <time>2021-02-02T11:21:51Z</time>
      </trkpt>
      <trkpt lat="42.008930" lon="2.742368">
        <ele>165.751</ele>
        <time>2021-02-02T11:21:53Z</time>
      </trkpt>
      <trkpt lat="42.009001" lon="2.742398">
        <ele>166.201</ele>
        <time>2021-02-02T11:21:55Z</time>
      </trkpt>
      <trkpt lat="42.009076" lon="2.742427">
        <ele>166.411</ele>
        <time>2021-02-02T11:21:57Z</time>
      </trkpt>
      <trkpt lat="42.009144" lon="2.742449">
        <ele>166.508</ele>
        <time>2021-02-02T11:21:59Z</time>
      </trkpt>
      <trkpt lat="42.009199" lon="2.742460">
        <ele>166.951</ele>
        <time>2021-02-02T11:22:00Z</time>
      </trkpt>
      <trkpt lat="42.009271" lon="2.742474">
        <ele>166.960</ele>
        <time>2021-02-02T11:22:02Z</time>
      </trkpt>
      <trkpt lat="42.009330" lon="2.742488">
        <ele>166.965</ele>
        <time>2021-02-02T11:22:03Z</time>
      </trkpt>
      <trkpt lat="42.009406" lon="2.742507">
        <ele>166.817</ele>
        <time>2021-02-02T11:22:05Z</time>
      </trkpt>
      <trkpt lat="42.009474" lon="2.742523">
        <ele>167.178</ele>
        <time>2021-02-02T11:22:06Z</time>
      </trkpt>
      <trkpt lat="42.009571" lon="2.742546">
        <ele>167.063</ele>
        <time>2021-02-02T11:22:08Z</time>
      </trkpt>
      <trkpt lat="42.009711" lon="2.742586">
        <ele>167.128</ele>
        <time>2021-02-02T11:22:10Z</time>
      </trkpt>
      <trkpt lat="42.009826" lon="2.742614">
        <ele>167.077</ele>
        <time>2021-02-02T11:22:12Z</time>
      </trkpt>
      <trkpt lat="42.009878" lon="2.742630">
        <ele>167.141</ele>
        <time>2021-02-02T11:22:13Z</time>
      </trkpt>
      <trkpt lat="42.009978" lon="2.742670">
        <ele>167.581</ele>
        <time>2021-02-02T11:22:15Z</time>
      </trkpt>
      <trkpt lat="42.010027" lon="2.742694">
        <ele>167.409</ele>
        <time>2021-02-02T11:22:16Z</time>
      </trkpt>
      <trkpt lat="42.010125" lon="2.742753">
        <ele>167.508</ele>
        <time>2021-02-02T11:22:18Z</time>
      </trkpt>
      <trkpt lat="42.010176" lon="2.742786">
        <ele>167.630</ele>
        <time>2021-02-02T11:22:19Z</time>
      </trkpt>
      <trkpt lat="42.010275" lon="2.742852">
        <ele>167.859</ele>
        <time>2021-02-02T11:22:21Z</time>
      </trkpt>
      <trkpt lat="42.010324" lon="2.742887">
        <ele>167.784</ele>
        <time>2021-02-02T11:22:22Z</time>
      </trkpt>
      <trkpt lat="42.010423" lon="2.742950">
        <ele>167.866</ele>
        <time>2021-02-02T11:22:24Z</time>
      </trkpt>
      <trkpt lat="42.010472" lon="2.742978">
        <ele>167.697</ele>
        <time>2021-02-02T11:22:25Z</time>
      </trkpt>
      <trkpt lat="42.010518" lon="2.743002">
        <ele>167.982</ele>
        <time>2021-02-02T11:22:26Z</time>
      </trkpt>
      <trkpt lat="42.010613" lon="2.743049">
        <ele>167.897</ele>
        <time>2021-02-02T11:22:28Z</time>
      </trkpt>
      <trkpt lat="42.010661" lon="2.743073">
        <ele>168.026</ele>
        <time>2021-02-02T11:22:29Z</time>
      </trkpt>
      <trkpt lat="42.010746" lon="2.743110">
        <ele>168.249</ele>
        <time>2021-02-02T11:22:31Z</time>
      </trkpt>
      <trkpt lat="42.010791" lon="2.743126">
        <ele>168.202</ele>
        <time>2021-02-02T11:22:32Z</time>
      </trkpt>
      <trkpt lat="42.010883" lon="2.743162">
        <ele>168.122</ele>
        <time>2021-02-02T11:22:34Z</time>
      </trkpt>
      <trkpt lat="42.010931" lon="2.743182">
        <ele>168.408</ele>
        <time>2021-02-02T11:22:35Z</time>
      </trkpt>
      <trkpt lat="42.011023" lon="2.743219">
        <ele>168.790</ele>
        <time>2021-02-02T11:22:37Z</time>
      </trkpt>
      <trkpt lat="42.011124" lon="2.743254">
        <ele>168.799</ele>
        <time>2021-02-02T11:22:39Z</time>
      </trkpt>
      <trkpt lat="42.011229" lon="2.743281">
        <ele>169.164</ele>
        <time>2021-02-02T11:22:41Z</time>
      </trkpt>
      <trkpt lat="42.011313" lon="2.743301">
        <ele>169.466</ele>
        <time>2021-02-02T11:22:43Z</time>
      </trkpt>
      <trkpt lat="42.011394" lon="2.743313">
        <ele>169.537</ele>
        <time>2021-02-02T11:22:45Z</time>
      </trkpt>
      <trkpt lat="42.011481" lon="2.743315">
        <ele>169.942</ele>
        <time>2021-02-02T11:22:47Z</time>
      </trkpt>
      <trkpt lat="42.011602" lon="2.743311">
        <ele>169.957</ele>
        <time>2021-02-02T11:22:49Z</time>
      </trkpt>
      <trkpt lat="42.011690" lon="2.743307">
        <ele>170.036</ele>
        <time>2021-02-02T11:22:51Z</time>
      </trkpt>
      <trkpt lat="42.011747" lon="2.743297">
        <ele>170.148</ele>
        <time>2021-02-02T11:22:52Z</time>
      </trkpt>
      <trkpt lat="42.011802" lon="2.743288">
        <ele>170.061</ele>
        <time>2021-02-02T11:22:53Z</time>
      </trkpt>
      <trkpt lat="42.011934" lon="2.743254">
        <ele>170.117</ele>
        <time>2021-02-02T11:22:55Z</time>
      </trkpt>
      <trkpt lat="42.012052" lon="2.743215">
        <ele>170.308</ele>
        <time>2021-02-02T11:22:57Z</time>
      </trkpt>
      <trkpt lat="42.012109" lon="2.743195">
        <ele>170.540</ele>
        <time>2021-02-02T11:22:58Z</time>
      </trkpt>
      <trkpt lat="42.012163" lon="2.743176">
        <ele>170.699</ele>
        <time>2021-02-02T11:22:59Z</time>
      </trkpt>
      <trkpt lat="42.012243" lon="2.743151">
        <ele>170.754</ele>
        <time>2021-02-02T11:23:01Z</time>
      </trkpt>
      <trkpt lat="42.012349" lon="2.743117">
        <ele>170.856</ele>
        <time>2021-02-02T11:23:03Z</time>
      </trkpt>
      <trkpt lat="42.012440" lon="2.743074">
        <ele>171.017</ele>
        <time>2021-02-02T11:23:05Z</time>
      </trkpt>
      <trkpt lat="42.012492" lon="2.743054">
        <ele>171.032</ele>
        <time>2021-02-02T11:23:06Z</time>
      </trkpt>
      <trkpt lat="42.012546" lon="2.743040">
        <ele>170.937</ele>
        <time>2021-02-02T11:23:07Z</time>
      </trkpt>
      <trkpt lat="42.012648" lon="2.743007">
        <ele>171.446</ele>
        <time>2021-02-02T11:23:09Z</time>
      </trkpt>
      <trkpt lat="42.012696" lon="2.742991">
        <ele>171.271</ele>
        <time>2021-02-02T11:23:10Z</time>
      </trkpt>
      <trkpt lat="42.012786" lon="2.742969">
        <ele>171.541</ele>
        <time>2021-02-02T11:23:12Z</time>
      </trkpt>
      <trkpt lat="42.012834" lon="2.742956">
        <ele>171.515</ele>
        <time>2021-02-02T11:23:13Z</time>
      </trkpt>
      <trkpt lat="42.012882" lon="2.742943">
        <ele>171.608</ele>
        <time>2021-02-02T11:23:14Z</time>
      </trkpt>
      <trkpt lat="42.012928" lon="2.742928">
        <ele>171.813</ele>
        <time>2021-02-02T11:23:15Z</time>
      </trkpt>
      <trkpt lat="42.013015" lon="2.742901">
        <ele>171.862</ele>
        <time>2021-02-02T11:23:17Z</time>
      </trkpt>
      <trkpt lat="42.013091" lon="2.742877">
        <ele>172.217</ele>
        <time>2021-02-02T11:23:19Z</time>
      </trkpt>
      <trkpt lat="42.013170" lon="2.742855">
        <ele>172.419</ele>
        <time>2021-02-02T11:23:21Z</time>
      </trkpt>
      <trkpt lat="42.013249" lon="2.742836">
        <ele>172.610</ele>
        <time>2021-02-02T11:23:23Z</time>
      </trkpt>
      <trkpt lat="42.013340" lon="2.742809">
        <ele>172.755</ele>
        <time>2021-02-02T11:23:25Z</time>
      </trkpt>
      <trkpt lat="42.013422" lon="2.742777">
        <ele>172.880</ele>
        <time>2021-02-02T11:23:27Z</time>
      </trkpt>
      <trkpt lat="42.013507" lon="2.742756">
        <ele>173.139</ele>
        <time>2021-02-02T11:23:29Z</time>
      </trkpt>
      <trkpt lat="42.013593" lon="2.742737">
        <ele>173.329</ele>
        <time>2021-02-02T11:23:31Z</time>
      </trkpt>
      <trkpt lat="42.013681" lon="2.742721">
        <ele>173.600</ele>
        <time>2021-02-02T11:23:33Z</time>
      </trkpt>
      <trkpt lat="42.013765" lon="2.742719">
        <ele>173.520</ele>
        <time>2021-02-02T11:23:35Z</time>
      </trkpt>
      <trkpt lat="42.013843" lon="2.742713">
        <ele>173.808</ele>
        <time>2021-02-02T11:23:37Z</time>
      </trkpt>
      <trkpt lat="42.013890" lon="2.742711">
        <ele>173.998</ele>
        <time>2021-02-02T11:23:38Z</time>
      </trkpt>
      <trkpt lat="42.013979" lon="2.742714">
        <ele>174.027</ele>
        <time>2021-02-02T11:23:40Z</time>
      </trkpt>
      <trkpt lat="42.014064" lon="2.742713">
        <ele>174.092</ele>
        <time>2021-02-02T11:23:42Z</time>
      </trkpt>
      <trkpt lat="42.014110" lon="2.742711">
        <ele>174.134</ele>
        <time>2021-02-02T11:23:43Z</time>
      </trkpt>
      <trkpt lat="42.014175" lon="2.742715">
        <ele>174.225</ele>
        <time>2021-02-02T11:23:45Z</time>
      </trkpt>
      <trkpt lat="42.014226" lon="2.742716">
        <ele>174.370</ele>
        <time>2021-02-02T11:23:46Z</time>
      </trkpt>
      <trkpt lat="42.014280" lon="2.742715">
        <ele>174.435</ele>
        <time>2021-02-02T11:23:47Z</time>
      </trkpt>
      <trkpt lat="42.014350" lon="2.742712">
        <ele>174.594</ele>
        <time>2021-02-02T11:23:49Z</time>
      </trkpt>
      <trkpt lat="42.014400" lon="2.742709">
        <ele>174.913</ele>
        <time>2021-02-02T11:23:50Z</time>
      </trkpt>
      <trkpt lat="42.014400" lon="2.742709">
        <ele>174.943</ele>
        <time>2021-02-02T11:23:50Z</time>
      </trkpt>
      <trkpt lat="42.014495" lon="2.742701">
        <ele>174.507</ele>
        <time>2021-02-02T11:23:52Z</time>
      </trkpt>
      <trkpt lat="42.014558" lon="2.742684">
        <ele>174.408</ele>
        <time>2021-02-02T11:23:54Z</time>
      </trkpt>
      <trkpt lat="42.014611" lon="2.742678">
        <ele>174.537</ele>
        <time>2021-02-02T11:23:56Z</time>
      </trkpt>
      <trkpt lat="42.014682" lon="2.742674">
        <ele>174.656</ele>
        <time>2021-02-02T11:23:58Z</time>
      </trkpt>
      <trkpt lat="42.014750" lon="2.742683">
        <ele>175.191</ele>
        <time>2021-02-02T11:24:00Z</time>
      </trkpt>
      <trkpt lat="42.014805" lon="2.742684">
        <ele>175.143</ele>
        <time>2021-02-02T11:24:01Z</time>
      </trkpt>
      <trkpt lat="42.014866" lon="2.742671">
        <ele>175.174</ele>
        <time>2021-02-02T11:24:03Z</time>
      </trkpt>
      <trkpt lat="42.014914" lon="2.742658">
        <ele>175.369</ele>
        <time>2021-02-02T11:24:04Z</time>
      </trkpt>
      <trkpt lat="42.014989" lon="2.742649">
        <ele>175.014</ele>
        <time>2021-02-02T11:24:05Z</time>
      </trkpt>
      <trkpt lat="42.015049" lon="2.742647">
        <ele>175.423</ele>
        <time>2021-02-02T11:24:07Z</time>
      </trkpt>
      <trkpt lat="42.015102" lon="2.742649">
        <ele>175.515</ele>
        <time>2021-02-02T11:24:08Z</time>
      </trkpt>
      <trkpt lat="42.015256" lon="2.742685">
        <ele>175.365</ele>
        <time>2021-02-02T11:24:10Z</time>
      </trkpt>
      <trkpt lat="42.015382" lon="2.742700">
        <ele>175.411</ele>
        <time>2021-02-02T11:24:12Z</time>
      </trkpt>
      <trkpt lat="42.015490" lon="2.742708">
        <ele>175.208</ele>
        <time>2021-02-02T11:24:14Z</time>
      </trkpt>
      <trkpt lat="42.015576" lon="2.742724">
        <ele>175.337</ele>
        <time>2021-02-02T11:24:16Z</time>
      </trkpt>
      <trkpt lat="42.015628" lon="2.742740">
        <ele>175.276</ele>
        <time>2021-02-02T11:24:17Z</time>
      </trkpt>
      <trkpt lat="42.015679" lon="2.742763">
        <ele>175.391</ele>
        <time>2021-02-02T11:24:18Z</time>
      </trkpt>
      <trkpt lat="42.015773" lon="2.742811">
        <ele>175.223</ele>
        <time>2021-02-02T11:24:20Z</time>
      </trkpt>
      <trkpt lat="42.015818" lon="2.742840">
        <ele>175.174</ele>
        <time>2021-02-02T11:24:21Z</time>
      </trkpt>
      <trkpt lat="42.015901" lon="2.742908">
        <ele>175.369</ele>
        <time>2021-02-02T11:24:23Z</time>
      </trkpt>
      <trkpt lat="42.015939" lon="2.742946">
        <ele>172.344</ele>
        <time>2021-02-02T11:24:24Z</time>
      </trkpt>
      <trkpt lat="42.016014" lon="2.743027">
        <ele>177.563</ele>
        <time>2021-02-02T11:24:26Z</time>
      </trkpt>
      <trkpt lat="42.016048" lon="2.743074">
        <ele>175.413</ele>
        <time>2021-02-02T11:24:27Z</time>
      </trkpt>
      <trkpt lat="42.016083" lon="2.743120">
        <ele>174.543</ele>
        <time>2021-02-02T11:24:28Z</time>
      </trkpt>
      <trkpt lat="42.016147" lon="2.743202">
        <ele>174.407</ele>
        <time>2021-02-02T11:24:30Z</time>
      </trkpt>
      <trkpt lat="42.016215" lon="2.743293">
        <ele>174.408</ele>
        <time>2021-02-02T11:24:32Z</time>
      </trkpt>
      <trkpt lat="42.016215" lon="2.743293">
        <ele>174.497</ele>
        <time>2021-02-02T11:24:32Z</time>
      </trkpt>
      <trkpt lat="42.016274" lon="2.743372">
        <ele>174.666</ele>
        <time>2021-02-02T11:24:34Z</time>
      </trkpt>
      <trkpt lat="42.016342" lon="2.743472">
        <ele>174.981</ele>
        <time>2021-02-02T11:24:36Z</time>
      </trkpt>
      <trkpt lat="42.016410" lon="2.743563">
        <ele>175.123</ele>
        <time>2021-02-02T11:24:38Z</time>
      </trkpt>
      <trkpt lat="42.016444" lon="2.743608">
        <ele>175.064</ele>
        <time>2021-02-02T11:24:39Z</time>
      </trkpt>
      <trkpt lat="42.016479" lon="2.743650">
        <ele>174.979</ele>
        <time>2021-02-02T11:24:40Z</time>
      </trkpt>
      <trkpt lat="42.016515" lon="2.743691">
        <ele>174.194</ele>
        <time>2021-02-02T11:24:41Z</time>
      </trkpt>
      <trkpt lat="42.016515" lon="2.743691">
        <ele>174.143</ele>
        <time>2021-02-02T11:24:41Z</time>
      </trkpt>
      <trkpt lat="42.016582" lon="2.743779">
        <ele>174.876</ele>
        <time>2021-02-02T11:24:43Z</time>
      </trkpt>
      <trkpt lat="42.016617" lon="2.743824">
        <ele>174.490</ele>
        <time>2021-02-02T11:24:44Z</time>
      </trkpt>
      <trkpt lat="42.016617" lon="2.743824">
        <ele>174.419</ele>
        <time>2021-02-02T11:24:44Z</time>
      </trkpt>
      <trkpt lat="42.016689" lon="2.743912">
        <ele>173.908</ele>
        <time>2021-02-02T11:24:46Z</time>
      </trkpt>
      <trkpt lat="42.016763" lon="2.743995">
        <ele>174.343</ele>
        <time>2021-02-02T11:24:48Z</time>
      </trkpt>
      <trkpt lat="42.016837" lon="2.744076">
        <ele>174.462</ele>
        <time>2021-02-02T11:24:50Z</time>
      </trkpt>
      <trkpt lat="42.016873" lon="2.744118">
        <ele>174.467</ele>
        <time>2021-02-02T11:24:51Z</time>
      </trkpt>
      <trkpt lat="42.016909" lon="2.744160">
        <ele>174.839</ele>
        <time>2021-02-02T11:24:52Z</time>
      </trkpt>
      <trkpt lat="42.016987" lon="2.744236">
        <ele>174.450</ele>
        <time>2021-02-02T11:24:54Z</time>
      </trkpt>
      <trkpt lat="42.017026" lon="2.744274">
        <ele>174.965</ele>
        <time>2021-02-02T11:24:55Z</time>
      </trkpt>
      <trkpt lat="42.017105" lon="2.744341">
        <ele>175.060</ele>
        <time>2021-02-02T11:24:57Z</time>
      </trkpt>
      <trkpt lat="42.017147" lon="2.744368">
        <ele>174.529</ele>
        <time>2021-02-02T11:24:58Z</time>
      </trkpt>
      <trkpt lat="42.017190" lon="2.744390">
        <ele>174.444</ele>
        <time>2021-02-02T11:24:59Z</time>
      </trkpt>
      <trkpt lat="42.017234" lon="2.744409">
        <ele>174.905</ele>
        <time>2021-02-02T11:25:00Z</time>
      </trkpt>
      <trkpt lat="42.017322" lon="2.744450">
        <ele>174.815</ele>
        <time>2021-02-02T11:25:02Z</time>
      </trkpt>
      <trkpt lat="42.017366" lon="2.744471">
        <ele>174.908</ele>
        <time>2021-02-02T11:25:03Z</time>
      </trkpt>
      <trkpt lat="42.017411" lon="2.744488">
        <ele>174.960</ele>
        <time>2021-02-02T11:25:04Z</time>
      </trkpt>
      <trkpt lat="42.017501" lon="2.744514">
        <ele>175.049</ele>
        <time>2021-02-02T11:25:06Z</time>
      </trkpt>
      <trkpt lat="42.017546" lon="2.744526">
        <ele>174.694</ele>
        <time>2021-02-02T11:25:07Z</time>
      </trkpt>
      <trkpt lat="42.017636" lon="2.744549">
        <ele>174.966</ele>
        <time>2021-02-02T11:25:09Z</time>
      </trkpt>
      <trkpt lat="42.017681" lon="2.744560">
        <ele>175.037</ele>
        <time>2021-02-02T11:25:10Z</time>
      </trkpt>
      <trkpt lat="42.017769" lon="2.744580">
        <ele>174.972</ele>
        <time>2021-02-02T11:25:12Z</time>
      </trkpt>
      <trkpt lat="42.017813" lon="2.744592">
        <ele>175.157</ele>
        <time>2021-02-02T11:25:13Z</time>
      </trkpt>
      <trkpt lat="42.017900" lon="2.744621">
        <ele>175.016</ele>
        <time>2021-02-02T11:25:15Z</time>
      </trkpt>
      <trkpt lat="42.017944" lon="2.744635">
        <ele>175.269</ele>
        <time>2021-02-02T11:25:16Z</time>
      </trkpt>
      <trkpt lat="42.017944" lon="2.744635">
        <ele>175.204</ele>
        <time>2021-02-02T11:25:16Z</time>
      </trkpt>
      <trkpt lat="42.018024" lon="2.744660">
        <ele>175.324</ele>
        <time>2021-02-02T11:25:18Z</time>
      </trkpt>
      <trkpt lat="42.018116" lon="2.744690">
        <ele>175.208</ele>
        <time>2021-02-02T11:25:20Z</time>
      </trkpt>
      <trkpt lat="42.018206" lon="2.744720">
        <ele>175.652</ele>
        <time>2021-02-02T11:25:22Z</time>
      </trkpt>
      <trkpt lat="42.018206" lon="2.744720">
        <ele>175.681</ele>
        <time>2021-02-02T11:25:22Z</time>
      </trkpt>
      <trkpt lat="42.018252" lon="2.744735">
        <ele>175.616</ele>
        <time>2021-02-02T11:25:23Z</time>
      </trkpt>
      <trkpt lat="42.018341" lon="2.744761">
        <ele>175.488</ele>
        <time>2021-02-02T11:25:25Z</time>
      </trkpt>
      <trkpt lat="42.018424" lon="2.744786">
        <ele>175.779</ele>
        <time>2021-02-02T11:25:27Z</time>
      </trkpt>
      <trkpt lat="42.018470" lon="2.744800">
        <ele>175.994</ele>
        <time>2021-02-02T11:25:28Z</time>
      </trkpt>
      <trkpt lat="42.018561" lon="2.744826">
        <ele>176.219</ele>
        <time>2021-02-02T11:25:30Z</time>
      </trkpt>
      <trkpt lat="42.018646" lon="2.744852">
        <ele>175.818</ele>
        <time>2021-02-02T11:25:32Z</time>
      </trkpt>
      <trkpt lat="42.018728" lon="2.744877">
        <ele>176.537</ele>
        <time>2021-02-02T11:25:34Z</time>
      </trkpt>
      <trkpt lat="42.018773" lon="2.744891">
        <ele>176.149</ele>
        <time>2021-02-02T11:25:35Z</time>
      </trkpt>
      <trkpt lat="42.018853" lon="2.744917">
        <ele>176.213</ele>
        <time>2021-02-02T11:25:37Z</time>
      </trkpt>
      <trkpt lat="42.018929" lon="2.744933">
        <ele>176.908</ele>
        <time>2021-02-02T11:25:39Z</time>
      </trkpt>
      <trkpt lat="42.019013" lon="2.744954">
        <ele>178.059</ele>
        <time>2021-02-02T11:25:41Z</time>
      </trkpt>
      <trkpt lat="42.019103" lon="2.744984">
        <ele>177.668</ele>
        <time>2021-02-02T11:25:43Z</time>
      </trkpt>
      <trkpt lat="42.019181" lon="2.745017">
        <ele>177.423</ele>
        <time>2021-02-02T11:25:45Z</time>
      </trkpt>
      <trkpt lat="42.019268" lon="2.745042">
        <ele>177.645</ele>
        <time>2021-02-02T11:25:47Z</time>
      </trkpt>
      <trkpt lat="42.019268" lon="2.745042">
        <ele>177.686</ele>
        <time>2021-02-02T11:25:47Z</time>
      </trkpt>
      <trkpt lat="42.019318" lon="2.745051">
        <ele>177.761</ele>
        <time>2021-02-02T11:25:48Z</time>
      </trkpt>
      <trkpt lat="42.019368" lon="2.745056">
        <ele>177.996</ele>
        <time>2021-02-02T11:25:49Z</time>
      </trkpt>
      <trkpt lat="42.019465" lon="2.745055">
        <ele>178.085</ele>
        <time>2021-02-02T11:25:51Z</time>
      </trkpt>
      <trkpt lat="42.019465" lon="2.745055">
        <ele>178.053</ele>
        <time>2021-02-02T11:25:51Z</time>
      </trkpt>
      <trkpt lat="42.019561" lon="2.745046">
        <ele>178.004</ele>
        <time>2021-02-02T11:25:53Z</time>
      </trkpt>
      <trkpt lat="42.019608" lon="2.745038">
        <ele>178.214</ele>
        <time>2021-02-02T11:25:54Z</time>
      </trkpt>
      <trkpt lat="42.019689" lon="2.745014">
        <ele>178.308</ele>
        <time>2021-02-02T11:25:56Z</time>
      </trkpt>
      <trkpt lat="42.019767" lon="2.744981">
        <ele>178.781</ele>
        <time>2021-02-02T11:25:58Z</time>
      </trkpt>
      <trkpt lat="42.019855" lon="2.744944">
        <ele>179.120</ele>
        <time>2021-02-02T11:26:00Z</time>
      </trkpt>
      <trkpt lat="42.019937" lon="2.744907">
        <ele>179.395</ele>
        <time>2021-02-02T11:26:02Z</time>
      </trkpt>
      <trkpt lat="42.020010" lon="2.744874">
        <ele>179.417</ele>
        <time>2021-02-02T11:26:04Z</time>
      </trkpt>
      <trkpt lat="42.020093" lon="2.744837">
        <ele>179.628</ele>
        <time>2021-02-02T11:26:06Z</time>
      </trkpt>
      <trkpt lat="42.020172" lon="2.744804">
        <ele>180.073</ele>
        <time>2021-02-02T11:26:08Z</time>
      </trkpt>
      <trkpt lat="42.020253" lon="2.744767">
        <ele>174.178</ele>
        <time>2021-02-02T11:26:10Z</time>
      </trkpt>
      <trkpt lat="42.020325" lon="2.744732">
        <ele>182.217</ele>
        <time>2021-02-02T11:26:12Z</time>
      </trkpt>
      <trkpt lat="42.020406" lon="2.744691">
        <ele>180.755</ele>
        <time>2021-02-02T11:26:14Z</time>
      </trkpt>
      <trkpt lat="42.020483" lon="2.744644">
        <ele>180.407</ele>
        <time>2021-02-02T11:26:16Z</time>
      </trkpt>
      <trkpt lat="42.020563" lon="2.744623">
        <ele>181.617</ele>
        <time>2021-02-02T11:26:18Z</time>
      </trkpt>
      <trkpt lat="42.020628" lon="2.744589">
        <ele>181.308</ele>
        <time>2021-02-02T11:26:20Z</time>
      </trkpt>
      <trkpt lat="42.020710" lon="2.744566">
        <ele>181.731</ele>
        <time>2021-02-02T11:26:22Z</time>
      </trkpt>
      <trkpt lat="42.020789" lon="2.744546">
        <ele>182.090</ele>
        <time>2021-02-02T11:26:24Z</time>
      </trkpt>
      <trkpt lat="42.020867" lon="2.744517">
        <ele>182.355</ele>
        <time>2021-02-02T11:26:26Z</time>
      </trkpt>
      <trkpt lat="42.020928" lon="2.744485">
        <ele>182.477</ele>
        <time>2021-02-02T11:26:28Z</time>
      </trkpt>
      <trkpt lat="42.020973" lon="2.744457">
        <ele>182.668</ele>
        <time>2021-02-02T11:26:29Z</time>
      </trkpt>
      <trkpt lat="42.021023" lon="2.744436">
        <ele>182.833</ele>
        <time>2021-02-02T11:26:30Z</time>
      </trkpt>
      <trkpt lat="42.021097" lon="2.744406">
        <ele>182.938</ele>
        <time>2021-02-02T11:26:32Z</time>
      </trkpt>
      <trkpt lat="42.021142" lon="2.744388">
        <ele>183.047</ele>
        <time>2021-02-02T11:26:33Z</time>
      </trkpt>
      <trkpt lat="42.021216" lon="2.744355">
        <ele>183.425</ele>
        <time>2021-02-02T11:26:35Z</time>
      </trkpt>
      <trkpt lat="42.021259" lon="2.744336">
        <ele>183.426</ele>
        <time>2021-02-02T11:26:36Z</time>
      </trkpt>
      <trkpt lat="42.021306" lon="2.744314">
        <ele>183.408</ele>
        <time>2021-02-02T11:26:37Z</time>
      </trkpt>
      <trkpt lat="42.021354" lon="2.744293">
        <ele>183.708</ele>
        <time>2021-02-02T11:26:39Z</time>
      </trkpt>
      <trkpt lat="42.021398" lon="2.744274">
        <ele>183.938</ele>
        <time>2021-02-02T11:26:40Z</time>
      </trkpt>
      <trkpt lat="42.021479" lon="2.744242">
        <ele>184.267</ele>
        <time>2021-02-02T11:26:42Z</time>
      </trkpt>
      <trkpt lat="42.021529" lon="2.744219">
        <ele>184.212</ele>
        <time>2021-02-02T11:26:43Z</time>
      </trkpt>
      <trkpt lat="42.021605" lon="2.744184">
        <ele>184.664</ele>
        <time>2021-02-02T11:26:45Z</time>
      </trkpt>
      <trkpt lat="42.021680" lon="2.744151">
        <ele>184.875</ele>
        <time>2021-02-02T11:26:47Z</time>
      </trkpt>
      <trkpt lat="42.021742" lon="2.744122">
        <ele>185.060</ele>
        <time>2021-02-02T11:26:49Z</time>
      </trkpt>
      <trkpt lat="42.021796" lon="2.744098">
        <ele>185.585</ele>
        <time>2021-02-02T11:26:50Z</time>
      </trkpt>
      <trkpt lat="42.021874" lon="2.744061">
        <ele>185.644</ele>
        <time>2021-02-02T11:26:52Z</time>
      </trkpt>
      <trkpt lat="42.021947" lon="2.744026">
        <ele>185.817</ele>
        <time>2021-02-02T11:26:54Z</time>
      </trkpt>
      <trkpt lat="42.022002" lon="2.743999">
        <ele>186.187</ele>
        <time>2021-02-02T11:26:56Z</time>
      </trkpt>
      <trkpt lat="42.022057" lon="2.743979">
        <ele>186.115</ele>
        <time>2021-02-02T11:26:57Z</time>
      </trkpt>
      <trkpt lat="42.022126" lon="2.743949">
        <ele>186.408</ele>
        <time>2021-02-02T11:26:59Z</time>
      </trkpt>
      <trkpt lat="42.022194" lon="2.743917">
        <ele>186.757</ele>
        <time>2021-02-02T11:27:01Z</time>
      </trkpt>
      <trkpt lat="42.022261" lon="2.743888">
        <ele>187.386</ele>
        <time>2021-02-02T11:27:03Z</time>
      </trkpt>
      <trkpt lat="42.022329" lon="2.743864">
        <ele>187.451</ele>
        <time>2021-02-02T11:27:05Z</time>
      </trkpt>
      <trkpt lat="42.022395" lon="2.743835">
        <ele>187.943</ele>
        <time>2021-02-02T11:27:07Z</time>
      </trkpt>
      <trkpt lat="42.022459" lon="2.743815">
        <ele>188.324</ele>
        <time>2021-02-02T11:27:09Z</time>
      </trkpt>
      <trkpt lat="42.022503" lon="2.743802">
        <ele>188.119</ele>
        <time>2021-02-02T11:27:10Z</time>
      </trkpt>
      <trkpt lat="42.022575" lon="2.743773">
        <ele>188.634</ele>
        <time>2021-02-02T11:27:12Z</time>
      </trkpt>
      <trkpt lat="42.022644" lon="2.743748">
        <ele>188.713</ele>
        <time>2021-02-02T11:27:14Z</time>
      </trkpt>
      <trkpt lat="42.022719" lon="2.743714">
        <ele>185.718</ele>
        <time>2021-02-02T11:27:16Z</time>
      </trkpt>
      <trkpt lat="42.022762" lon="2.743689">
        <ele>188.598</ele>
        <time>2021-02-02T11:27:17Z</time>
      </trkpt>
      <trkpt lat="42.022836" lon="2.743651">
        <ele>189.017</ele>
        <time>2021-02-02T11:27:19Z</time>
      </trkpt>
      <trkpt lat="42.022901" lon="2.743621">
        <ele>189.608</ele>
        <time>2021-02-02T11:27:21Z</time>
      </trkpt>
      <trkpt lat="42.022972" lon="2.743588">
        <ele>190.447</ele>
        <time>2021-02-02T11:27:23Z</time>
      </trkpt>
      <trkpt lat="42.023050" lon="2.743557">
        <ele>189.796</ele>
        <time>2021-02-02T11:27:25Z</time>
      </trkpt>
      <trkpt lat="42.023124" lon="2.743523">
        <ele>188.441</ele>
        <time>2021-02-02T11:27:27Z</time>
      </trkpt>
      <trkpt lat="42.023167" lon="2.743503">
        <ele>189.063</ele>
        <time>2021-02-02T11:27:28Z</time>
      </trkpt>
      <trkpt lat="42.023248" lon="2.743474">
        <ele>189.584</ele>
        <time>2021-02-02T11:27:30Z</time>
      </trkpt>
      <trkpt lat="42.023322" lon="2.743446">
        <ele>189.619</ele>
        <time>2021-02-02T11:27:32Z</time>
      </trkpt>
      <trkpt lat="42.023398" lon="2.743415">
        <ele>189.914</ele>
        <time>2021-02-02T11:27:34Z</time>
      </trkpt>
      <trkpt lat="42.023476" lon="2.743381">
        <ele>189.853</ele>
        <time>2021-02-02T11:27:36Z</time>
      </trkpt>
      <trkpt lat="42.023552" lon="2.743349">
        <ele>190.336</ele>
        <time>2021-02-02T11:27:38Z</time>
      </trkpt>
      <trkpt lat="42.023630" lon="2.743315">
        <ele>190.217</ele>
        <time>2021-02-02T11:27:40Z</time>
      </trkpt>
      <trkpt lat="42.023702" lon="2.743290">
        <ele>190.718</ele>
        <time>2021-02-02T11:27:42Z</time>
      </trkpt>
      <trkpt lat="42.023781" lon="2.743261">
        <ele>191.208</ele>
        <time>2021-02-02T11:27:44Z</time>
      </trkpt>
      <trkpt lat="42.023860" lon="2.743233">
        <ele>191.579</ele>
        <time>2021-02-02T11:27:46Z</time>
      </trkpt>
      <trkpt lat="42.023937" lon="2.743200">
        <ele>192.088</ele>
        <time>2021-02-02T11:27:48Z</time>
      </trkpt>
      <trkpt lat="42.024011" lon="2.743169">
        <ele>191.533</ele>
        <time>2021-02-02T11:27:50Z</time>
      </trkpt>
      <trkpt lat="42.024088" lon="2.743133">
        <ele>192.215</ele>
        <time>2021-02-02T11:27:52Z</time>
      </trkpt>
      <trkpt lat="42.024132" lon="2.743111">
        <ele>192.216</ele>
        <time>2021-02-02T11:27:53Z</time>
      </trkpt>
      <trkpt lat="42.024211" lon="2.743077">
        <ele>191.821</ele>
        <time>2021-02-02T11:27:55Z</time>
      </trkpt>
      <trkpt lat="42.024295" lon="2.743042">
        <ele>191.546</ele>
        <time>2021-02-02T11:27:57Z</time>
      </trkpt>
      <trkpt lat="42.024378" lon="2.743001">
        <ele>192.595</ele>
        <time>2021-02-02T11:27:59Z</time>
      </trkpt>
      <trkpt lat="42.024456" lon="2.742964">
        <ele>192.864</ele>
        <time>2021-02-02T11:28:01Z</time>
      </trkpt>
      <trkpt lat="42.024524" lon="2.742938">
        <ele>193.406</ele>
        <time>2021-02-02T11:28:03Z</time>
      </trkpt>
      <trkpt lat="42.024597" lon="2.742908">
        <ele>193.516</ele>
        <time>2021-02-02T11:28:05Z</time>
      </trkpt>
      <trkpt lat="42.024667" lon="2.742881">
        <ele>193.708</ele>
        <time>2021-02-02T11:28:07Z</time>
      </trkpt>
      <trkpt lat="42.024720" lon="2.742857">
        <ele>193.552</ele>
        <time>2021-02-02T11:28:08Z</time>
      </trkpt>
      <trkpt lat="42.024784" lon="2.742826">
        <ele>193.761</ele>
        <time>2021-02-02T11:28:10Z</time>
      </trkpt>
      <trkpt lat="42.024845" lon="2.742804">
        <ele>194.156</ele>
        <time>2021-02-02T11:28:11Z</time>
      </trkpt>
      <trkpt lat="42.024896" lon="2.742787">
        <ele>194.078</ele>
        <time>2021-02-02T11:28:12Z</time>
      </trkpt>
      <trkpt lat="42.024941" lon="2.742768">
        <ele>194.219</ele>
        <time>2021-02-02T11:28:13Z</time>
      </trkpt>
      <trkpt lat="42.025023" lon="2.742741">
        <ele>194.854</ele>
        <time>2021-02-02T11:28:15Z</time>
      </trkpt>
      <trkpt lat="42.025095" lon="2.742709">
        <ele>194.749</ele>
        <time>2021-02-02T11:28:17Z</time>
      </trkpt>
      <trkpt lat="42.025153" lon="2.742679">
        <ele>194.968</ele>
        <time>2021-02-02T11:28:18Z</time>
      </trkpt>
      <trkpt lat="42.025197" lon="2.742660">
        <ele>195.042</ele>
        <time>2021-02-02T11:28:19Z</time>
      </trkpt>
      <trkpt lat="42.025279" lon="2.742624">
        <ele>195.122</ele>
        <time>2021-02-02T11:28:21Z</time>
      </trkpt>
      <trkpt lat="42.025324" lon="2.742603">
        <ele>195.314</ele>
        <time>2021-02-02T11:28:22Z</time>
      </trkpt>
      <trkpt lat="42.025402" lon="2.742564">
        <ele>195.708</ele>
        <time>2021-02-02T11:28:24Z</time>
      </trkpt>
      <trkpt lat="42.025434" lon="2.742519">
        <ele>195.780</ele>
        <time>2021-02-02T11:28:26Z</time>
      </trkpt>
      <trkpt lat="42.025491" lon="2.742495">
        <ele>195.749</ele>
        <time>2021-02-02T11:28:27Z</time>
      </trkpt>
      <trkpt lat="42.025543" lon="2.742480">
        <ele>196.024</ele>
        <time>2021-02-02T11:28:28Z</time>
      </trkpt>
      <trkpt lat="42.025615" lon="2.742457">
        <ele>196.076</ele>
        <time>2021-02-02T11:28:30Z</time>
      </trkpt>
      <trkpt lat="42.025677" lon="2.742432">
        <ele>195.997</ele>
        <time>2021-02-02T11:28:31Z</time>
      </trkpt>
      <trkpt lat="42.025729" lon="2.742411">
        <ele>196.292</ele>
        <time>2021-02-02T11:28:32Z</time>
      </trkpt>
      <trkpt lat="42.025773" lon="2.742394">
        <ele>196.497</ele>
        <time>2021-02-02T11:28:33Z</time>
      </trkpt>
      <trkpt lat="42.025819" lon="2.742374">
        <ele>196.756</ele>
        <time>2021-02-02T11:28:34Z</time>
      </trkpt>
      <trkpt lat="42.025864" lon="2.742355">
        <ele>196.938</ele>
        <time>2021-02-02T11:28:35Z</time>
      </trkpt>
      <trkpt lat="42.025915" lon="2.742335">
        <ele>196.870</ele>
        <time>2021-02-02T11:28:37Z</time>
      </trkpt>
      <trkpt lat="42.025974" lon="2.742309">
        <ele>196.917</ele>
        <time>2021-02-02T11:28:38Z</time>
      </trkpt>
      <trkpt lat="42.026019" lon="2.742289">
        <ele>197.208</ele>
        <time>2021-02-02T11:28:39Z</time>
      </trkpt>
      <trkpt lat="42.026087" lon="2.742262">
        <ele>197.549</ele>
        <time>2021-02-02T11:28:41Z</time>
      </trkpt>
      <trkpt lat="42.026139" lon="2.742242">
        <ele>197.768</ele>
        <time>2021-02-02T11:28:42Z</time>
      </trkpt>
      <trkpt lat="42.026183" lon="2.742222">
        <ele>197.713</ele>
        <time>2021-02-02T11:28:43Z</time>
      </trkpt>
      <trkpt lat="42.026245" lon="2.742200">
        <ele>198.035</ele>
        <time>2021-02-02T11:28:44Z</time>
      </trkpt>
      <trkpt lat="42.026303" lon="2.742178">
        <ele>198.436</ele>
        <time>2021-02-02T11:28:46Z</time>
      </trkpt>
      <trkpt lat="42.026393" lon="2.742138">
        <ele>198.331</ele>
        <time>2021-02-02T11:28:48Z</time>
      </trkpt>
      <trkpt lat="42.026481" lon="2.742105">
        <ele>198.566</ele>
        <time>2021-02-02T11:28:50Z</time>
      </trkpt>
      <trkpt lat="42.026527" lon="2.742093">
        <ele>198.715</ele>
        <time>2021-02-02T11:28:51Z</time>
      </trkpt>
      <trkpt lat="42.026571" lon="2.742077">
        <ele>198.987</ele>
        <time>2021-02-02T11:28:52Z</time>
      </trkpt>
      <trkpt lat="42.026637" lon="2.742047">
        <ele>198.942</ele>
        <time>2021-02-02T11:28:54Z</time>
      </trkpt>
      <trkpt lat="42.026689" lon="2.742027">
        <ele>198.926</ele>
        <time>2021-02-02T11:28:55Z</time>
      </trkpt>
      <trkpt lat="42.026744" lon="2.742006">
        <ele>199.108</ele>
        <time>2021-02-02T11:28:56Z</time>
      </trkpt>
      <trkpt lat="42.026797" lon="2.741983">
        <ele>199.534</ele>
        <time>2021-02-02T11:28:57Z</time>
      </trkpt>
      <trkpt lat="42.026869" lon="2.741950">
        <ele>199.463</ele>
        <time>2021-02-02T11:28:59Z</time>
      </trkpt>
      <trkpt lat="42.026916" lon="2.741921">
        <ele>199.468</ele>
        <time>2021-02-02T11:29:00Z</time>
      </trkpt>
      <trkpt lat="42.026981" lon="2.741891">
        <ele>199.850</ele>
        <time>2021-02-02T11:29:02Z</time>
      </trkpt>
      <trkpt lat="42.027025" lon="2.741872">
        <ele>199.981</ele>
        <time>2021-02-02T11:29:03Z</time>
      </trkpt>
      <trkpt lat="42.027077" lon="2.741851">
        <ele>200.296</ele>
        <time>2021-02-02T11:29:04Z</time>
      </trkpt>
      <trkpt lat="42.027126" lon="2.741829">
        <ele>200.591</ele>
        <time>2021-02-02T11:29:05Z</time>
      </trkpt>
      <trkpt lat="42.027201" lon="2.741794">
        <ele>200.530</ele>
        <time>2021-02-02T11:29:07Z</time>
      </trkpt>
      <trkpt lat="42.027273" lon="2.741757">
        <ele>200.667</ele>
        <time>2021-02-02T11:29:09Z</time>
      </trkpt>
      <trkpt lat="42.027338" lon="2.741712">
        <ele>201.081</ele>
        <time>2021-02-02T11:29:10Z</time>
      </trkpt>
      <trkpt lat="42.027379" lon="2.741684">
        <ele>201.019</ele>
        <time>2021-02-02T11:29:11Z</time>
      </trkpt>
      <trkpt lat="42.027465" lon="2.741629">
        <ele>201.308</ele>
        <time>2021-02-02T11:29:13Z</time>
      </trkpt>
      <trkpt lat="42.027508" lon="2.741600">
        <ele>201.232</ele>
        <time>2021-02-02T11:29:14Z</time>
      </trkpt>
      <trkpt lat="42.027590" lon="2.741542">
        <ele>201.641</ele>
        <time>2021-02-02T11:29:16Z</time>
      </trkpt>
      <trkpt lat="42.027590" lon="2.741542">
        <ele>201.626</ele>
        <time>2021-02-02T11:29:16Z</time>
      </trkpt>
      <trkpt lat="42.027631" lon="2.741510">
        <ele>201.948</ele>
        <time>2021-02-02T11:29:17Z</time>
      </trkpt>
      <trkpt lat="42.027673" lon="2.741477">
        <ele>201.749</ele>
        <time>2021-02-02T11:29:18Z</time>
      </trkpt>
      <trkpt lat="42.027714" lon="2.741444">
        <ele>201.694</ele>
        <time>2021-02-02T11:29:19Z</time>
      </trkpt>
      <trkpt lat="42.027758" lon="2.741411">
        <ele>201.759</ele>
        <time>2021-02-02T11:29:20Z</time>
      </trkpt>
      <trkpt lat="42.027758" lon="2.741411">
        <ele>201.738</ele>
        <time>2021-02-02T11:29:20Z</time>
      </trkpt>
      <trkpt lat="42.027844" lon="2.741347">
        <ele>201.999</ele>
        <time>2021-02-02T11:29:22Z</time>
      </trkpt>
      <trkpt lat="42.027844" lon="2.741347">
        <ele>201.907</ele>
        <time>2021-02-02T11:29:22Z</time>
      </trkpt>
      <trkpt lat="42.027928" lon="2.741277">
        <ele>202.027</ele>
        <time>2021-02-02T11:29:24Z</time>
      </trkpt>
      <trkpt lat="42.028008" lon="2.741209">
        <ele>202.608</ele>
        <time>2021-02-02T11:29:26Z</time>
      </trkpt>
      <trkpt lat="42.028090" lon="2.741146">
        <ele>201.925</ele>
        <time>2021-02-02T11:29:28Z</time>
      </trkpt>
      <trkpt lat="42.028131" lon="2.741113">
        <ele>201.454</ele>
        <time>2021-02-02T11:29:29Z</time>
      </trkpt>
      <trkpt lat="42.028213" lon="2.741047">
        <ele>201.589</ele>
        <time>2021-02-02T11:29:31Z</time>
      </trkpt>
      <trkpt lat="42.028254" lon="2.741015">
        <ele>201.851</ele>
        <time>2021-02-02T11:29:32Z</time>
      </trkpt>
      <trkpt lat="42.028295" lon="2.740984">
        <ele>201.772</ele>
        <time>2021-02-02T11:29:33Z</time>
      </trkpt>
      <trkpt lat="42.028335" lon="2.740954">
        <ele>201.817</ele>
        <time>2021-02-02T11:29:34Z</time>
      </trkpt>
      <trkpt lat="42.028413" lon="2.740893">
        <ele>202.262</ele>
        <time>2021-02-02T11:29:36Z</time>
      </trkpt>
      <trkpt lat="42.028486" lon="2.740839">
        <ele>202.331</ele>
        <time>2021-02-02T11:29:38Z</time>
      </trkpt>
      <trkpt lat="42.028559" lon="2.740779">
        <ele>203.983</ele>
        <time>2021-02-02T11:29:40Z</time>
      </trkpt>
      <trkpt lat="42.028634" lon="2.740719">
        <ele>202.525</ele>
        <time>2021-02-02T11:29:42Z</time>
      </trkpt>
      <trkpt lat="42.028705" lon="2.740664">
        <ele>203.617</ele>
        <time>2021-02-02T11:29:44Z</time>
      </trkpt>
      <trkpt lat="42.028777" lon="2.740609">
        <ele>204.308</ele>
        <time>2021-02-02T11:29:46Z</time>
      </trkpt>
      <trkpt lat="42.028847" lon="2.740555">
        <ele>203.274</ele>
        <time>2021-02-02T11:29:48Z</time>
      </trkpt>
      <trkpt lat="42.028909" lon="2.740519">
        <ele>205.133</ele>
        <time>2021-02-02T11:29:50Z</time>
      </trkpt>
      <trkpt lat="42.028961" lon="2.740503">
        <ele>205.158</ele>
        <time>2021-02-02T11:29:51Z</time>
      </trkpt>
      <trkpt lat="42.029026" lon="2.740456">
        <ele>205.050</ele>
        <time>2021-02-02T11:29:53Z</time>
      </trkpt>
      <trkpt lat="42.029066" lon="2.740423">
        <ele>204.671</ele>
        <time>2021-02-02T11:29:54Z</time>
      </trkpt>
      <trkpt lat="42.029121" lon="2.740383">
        <ele>205.596</ele>
        <time>2021-02-02T11:29:56Z</time>
      </trkpt>
      <trkpt lat="42.029173" lon="2.740344">
        <ele>206.461</ele>
        <time>2021-02-02T11:29:57Z</time>
      </trkpt>
      <trkpt lat="42.029217" lon="2.740316">
        <ele>205.520</ele>
        <time>2021-02-02T11:29:58Z</time>
      </trkpt>
      <trkpt lat="42.029280" lon="2.740275">
        <ele>205.249</ele>
        <time>2021-02-02T11:30:00Z</time>
      </trkpt>
      <trkpt lat="42.029326" lon="2.740249">
        <ele>204.502</ele>
        <time>2021-02-02T11:30:01Z</time>
      </trkpt>
      <trkpt lat="42.029374" lon="2.740220">
        <ele>205.522</ele>
        <time>2021-02-02T11:30:02Z</time>
      </trkpt>
      <trkpt lat="42.029429" lon="2.740192">
        <ele>206.808</ele>
        <time>2021-02-02T11:30:03Z</time>
      </trkpt>
      <trkpt lat="42.029513" lon="2.740143">
        <ele>206.910</ele>
        <time>2021-02-02T11:30:05Z</time>
      </trkpt>
      <trkpt lat="42.029513" lon="2.740143">
        <ele>206.959</ele>
        <time>2021-02-02T11:30:05Z</time>
      </trkpt>
      <trkpt lat="42.029597" lon="2.740094">
        <ele>205.954</ele>
        <time>2021-02-02T11:30:07Z</time>
      </trkpt>
      <trkpt lat="42.029641" lon="2.740070">
        <ele>206.696</ele>
        <time>2021-02-02T11:30:08Z</time>
      </trkpt>
      <trkpt lat="42.029685" lon="2.740046">
        <ele>206.167</ele>
        <time>2021-02-02T11:30:09Z</time>
      </trkpt>
      <trkpt lat="42.029729" lon="2.740022">
        <ele>205.142</ele>
        <time>2021-02-02T11:30:10Z</time>
      </trkpt>
      <trkpt lat="42.029815" lon="2.739977">
        <ele>205.147</ele>
        <time>2021-02-02T11:30:12Z</time>
      </trkpt>
      <trkpt lat="42.029860" lon="2.739955">
        <ele>206.136</ele>
        <time>2021-02-02T11:30:13Z</time>
      </trkpt>
      <trkpt lat="42.029950" lon="2.739912">
        <ele>206.124</ele>
        <time>2021-02-02T11:30:15Z</time>
      </trkpt>
      <trkpt lat="42.029997" lon="2.739892">
        <ele>206.504</ele>
        <time>2021-02-02T11:30:16Z</time>
      </trkpt>
      <trkpt lat="42.030044" lon="2.739874">
        <ele>207.314</ele>
        <time>2021-02-02T11:30:17Z</time>
      </trkpt>
      <trkpt lat="42.030044" lon="2.739874">
        <ele>207.308</ele>
        <time>2021-02-02T11:30:17Z</time>
      </trkpt>
      <trkpt lat="42.030139" lon="2.739846">
        <ele>206.778</ele>
        <time>2021-02-02T11:30:19Z</time>
      </trkpt>
      <trkpt lat="42.030232" lon="2.739821">
        <ele>206.347</ele>
        <time>2021-02-02T11:30:21Z</time>
      </trkpt>
      <trkpt lat="42.030278" lon="2.739809">
        <ele>206.692</ele>
        <time>2021-02-02T11:30:22Z</time>
      </trkpt>
      <trkpt lat="42.030278" lon="2.739809">
        <ele>206.664</ele>
        <time>2021-02-02T11:30:22Z</time>
      </trkpt>
      <trkpt lat="42.030369" lon="2.739788">
        <ele>207.185</ele>
        <time>2021-02-02T11:30:24Z</time>
      </trkpt>
      <trkpt lat="42.030452" lon="2.739768">
        <ele>207.310</ele>
        <time>2021-02-02T11:30:26Z</time>
      </trkpt>
      <trkpt lat="42.030529" lon="2.739753">
        <ele>208.515</ele>
        <time>2021-02-02T11:30:28Z</time>
      </trkpt>
      <trkpt lat="42.030603" lon="2.739741">
        <ele>207.484</ele>
        <time>2021-02-02T11:30:30Z</time>
      </trkpt>
      <trkpt lat="42.030650" lon="2.739728">
        <ele>208.279</ele>
        <time>2021-02-02T11:30:32Z</time>
      </trkpt>
      <trkpt lat="42.030707" lon="2.739697">
        <ele>208.405</ele>
        <time>2021-02-02T11:30:35Z</time>
      </trkpt>
      <trkpt lat="42.030755" lon="2.739698">
        <ele>208.625</ele>
        <time>2021-02-02T11:30:36Z</time>
      </trkpt>
      <trkpt lat="42.030803" lon="2.739699">
        <ele>208.608</ele>
        <time>2021-02-02T11:30:37Z</time>
      </trkpt>
      <trkpt lat="42.030876" lon="2.739697">
        <ele>209.433</ele>
        <time>2021-02-02T11:30:39Z</time>
      </trkpt>
      <trkpt lat="42.030939" lon="2.739683">
        <ele>210.342</ele>
        <time>2021-02-02T11:30:41Z</time>
      </trkpt>
      <trkpt lat="42.031002" lon="2.739679">
        <ele>210.637</ele>
        <time>2021-02-02T11:30:43Z</time>
      </trkpt>
      <trkpt lat="42.031059" lon="2.739673">
        <ele>210.759</ele>
        <time>2021-02-02T11:30:45Z</time>
      </trkpt>
      <trkpt lat="42.031139" lon="2.739667">
        <ele>211.530</ele>
        <time>2021-02-02T11:30:47Z</time>
      </trkpt>
      <trkpt lat="42.031184" lon="2.739663">
        <ele>211.975</ele>
        <time>2021-02-02T11:30:49Z</time>
      </trkpt>
      <trkpt lat="42.031237" lon="2.739659">
        <ele>212.370</ele>
        <time>2021-02-02T11:30:50Z</time>
      </trkpt>
      <trkpt lat="42.031291" lon="2.739645">
        <ele>213.329</ele>
        <time>2021-02-02T11:30:52Z</time>
      </trkpt>
      <trkpt lat="42.031346" lon="2.739630">
        <ele>213.132</ele>
        <time>2021-02-02T11:30:54Z</time>
      </trkpt>
      <trkpt lat="42.031401" lon="2.739608">
        <ele>213.292</ele>
        <time>2021-02-02T11:30:56Z</time>
      </trkpt>
      <trkpt lat="42.031463" lon="2.739580">
        <ele>214.111</ele>
        <time>2021-02-02T11:30:58Z</time>
      </trkpt>
      <trkpt lat="42.031513" lon="2.739555">
        <ele>214.308</ele>
        <time>2021-02-02T11:31:00Z</time>
      </trkpt>
      <trkpt lat="42.031565" lon="2.739527">
        <ele>214.879</ele>
        <time>2021-02-02T11:31:02Z</time>
      </trkpt>
      <trkpt lat="42.031565" lon="2.739527">
        <ele>214.838</ele>
        <time>2021-02-02T11:31:02Z</time>
      </trkpt>
      <trkpt lat="42.031609" lon="2.739490">
        <ele>215.483</ele>
        <time>2021-02-02T11:31:04Z</time>
      </trkpt>
      <trkpt lat="42.031609" lon="2.739490">
        <ele>215.415</ele>
        <time>2021-02-02T11:31:04Z</time>
      </trkpt>
      <trkpt lat="42.031658" lon="2.739454">
        <ele>215.526</ele>
        <time>2021-02-02T11:31:06Z</time>
      </trkpt>
      <trkpt lat="42.031703" lon="2.739426">
        <ele>215.711</ele>
        <time>2021-02-02T11:31:08Z</time>
      </trkpt>
      <trkpt lat="42.031750" lon="2.739390">
        <ele>216.156</ele>
        <time>2021-02-02T11:31:10Z</time>
      </trkpt>
      <trkpt lat="42.031796" lon="2.739339">
        <ele>216.615</ele>
        <time>2021-02-02T11:31:12Z</time>
      </trkpt>
      <trkpt lat="42.031835" lon="2.739303">
        <ele>217.067</ele>
        <time>2021-02-02T11:31:14Z</time>
      </trkpt>
      <trkpt lat="42.031835" lon="2.739303">
        <ele>217.081</ele>
        <time>2021-02-02T11:31:14Z</time>
      </trkpt>
      <trkpt lat="42.031881" lon="2.739275">
        <ele>217.219</ele>
        <time>2021-02-02T11:31:16Z</time>
      </trkpt>
      <trkpt lat="42.031928" lon="2.739229">
        <ele>218.008</ele>
        <time>2021-02-02T11:31:19Z</time>
      </trkpt>
      <trkpt lat="42.031971" lon="2.739197">
        <ele>218.012</ele>
        <time>2021-02-02T11:31:21Z</time>
      </trkpt>
      <trkpt lat="42.032023" lon="2.739154">
        <ele>218.351</ele>
        <time>2021-02-02T11:31:23Z</time>
      </trkpt>
      <trkpt lat="42.032057" lon="2.739115">
        <ele>218.656</ele>
        <time>2021-02-02T11:31:24Z</time>
      </trkpt>
      <trkpt lat="42.032094" lon="2.739075">
        <ele>218.998</ele>
        <time>2021-02-02T11:31:26Z</time>
      </trkpt>
      <trkpt lat="42.032140" lon="2.739018">
        <ele>219.499</ele>
        <time>2021-02-02T11:31:28Z</time>
      </trkpt>
      <trkpt lat="42.032186" lon="2.738957">
        <ele>220.194</ele>
        <time>2021-02-02T11:31:31Z</time>
      </trkpt>
      <trkpt lat="42.032222" lon="2.738905">
        <ele>220.319</ele>
        <time>2021-02-02T11:31:33Z</time>
      </trkpt>
      <trkpt lat="42.032266" lon="2.738858">
        <ele>220.988</ele>
        <time>2021-02-02T11:31:35Z</time>
      </trkpt>
      <trkpt lat="42.032309" lon="2.738815">
        <ele>221.159</ele>
        <time>2021-02-02T11:31:37Z</time>
      </trkpt>
      <trkpt lat="42.032344" lon="2.738776">
        <ele>221.403</ele>
        <time>2021-02-02T11:31:39Z</time>
      </trkpt>
      <trkpt lat="42.032389" lon="2.738727">
        <ele>221.823</ele>
        <time>2021-02-02T11:31:41Z</time>
      </trkpt>
      <trkpt lat="42.032434" lon="2.738678">
        <ele>222.308</ele>
        <time>2021-02-02T11:31:43Z</time>
      </trkpt>
      <trkpt lat="42.032466" lon="2.738627">
        <ele>222.541</ele>
        <time>2021-02-02T11:31:45Z</time>
      </trkpt>
      <trkpt lat="42.032500" lon="2.738583">
        <ele>222.950</ele>
        <time>2021-02-02T11:31:47Z</time>
      </trkpt>
      <trkpt lat="42.032545" lon="2.738514">
        <ele>223.325</ele>
        <time>2021-02-02T11:31:49Z</time>
      </trkpt>
      <trkpt lat="42.032545" lon="2.738514">
        <ele>223.367</ele>
        <time>2021-02-02T11:31:49Z</time>
      </trkpt>
      <trkpt lat="42.032580" lon="2.738457">
        <ele>223.518</ele>
        <time>2021-02-02T11:31:51Z</time>
      </trkpt>
      <trkpt lat="42.032607" lon="2.738406">
        <ele>223.893</ele>
        <time>2021-02-02T11:31:53Z</time>
      </trkpt>
      <trkpt lat="42.032643" lon="2.738363">
        <ele>223.918</ele>
        <time>2021-02-02T11:31:54Z</time>
      </trkpt>
      <trkpt lat="42.032686" lon="2.738312">
        <ele>224.227</ele>
        <time>2021-02-02T11:31:56Z</time>
      </trkpt>
      <trkpt lat="42.032731" lon="2.738257">
        <ele>224.574</ele>
        <time>2021-02-02T11:31:58Z</time>
      </trkpt>
      <trkpt lat="42.032777" lon="2.738183">
        <ele>224.656</ele>
        <time>2021-02-02T11:32:00Z</time>
      </trkpt>
      <trkpt lat="42.032817" lon="2.738122">
        <ele>225.121</ele>
        <time>2021-02-02T11:32:02Z</time>
      </trkpt>
      <trkpt lat="42.032855" lon="2.738075">
        <ele>225.308</ele>
        <time>2021-02-02T11:32:03Z</time>
      </trkpt>
      <trkpt lat="42.032903" lon="2.738016">
        <ele>225.143</ele>
        <time>2021-02-02T11:32:05Z</time>
      </trkpt>
      <trkpt lat="42.032938" lon="2.737973">
        <ele>225.122</ele>
        <time>2021-02-02T11:32:06Z</time>
      </trkpt>
      <trkpt lat="42.032969" lon="2.737927">
        <ele>225.497</ele>
        <time>2021-02-02T11:32:08Z</time>
      </trkpt>
      <trkpt lat="42.033022" lon="2.737845">
        <ele>225.389</ele>
        <time>2021-02-02T11:32:10Z</time>
      </trkpt>
      <trkpt lat="42.033063" lon="2.737796">
        <ele>225.320</ele>
        <time>2021-02-02T11:32:11Z</time>
      </trkpt>
      <trkpt lat="42.033114" lon="2.737734">
        <ele>225.735</ele>
        <time>2021-02-02T11:32:13Z</time>
      </trkpt>
      <trkpt lat="42.033158" lon="2.737674">
        <ele>225.590</ele>
        <time>2021-02-02T11:32:14Z</time>
      </trkpt>
      <trkpt lat="42.033197" lon="2.737614">
        <ele>225.569</ele>
        <time>2021-02-02T11:32:16Z</time>
      </trkpt>
      <trkpt lat="42.033238" lon="2.737558">
        <ele>225.618</ele>
        <time>2021-02-02T11:32:17Z</time>
      </trkpt>
      <trkpt lat="42.033271" lon="2.737508">
        <ele>225.798</ele>
        <time>2021-02-02T11:32:18Z</time>
      </trkpt>
      <trkpt lat="42.033303" lon="2.737460">
        <ele>225.617</ele>
        <time>2021-02-02T11:32:19Z</time>
      </trkpt>
      <trkpt lat="42.033345" lon="2.737401">
        <ele>225.408</ele>
        <time>2021-02-02T11:32:21Z</time>
      </trkpt>
      <trkpt lat="42.033377" lon="2.737357">
        <ele>225.557</ele>
        <time>2021-02-02T11:32:22Z</time>
      </trkpt>
      <trkpt lat="42.033417" lon="2.737311">
        <ele>225.826</ele>
        <time>2021-02-02T11:32:23Z</time>
      </trkpt>
      <trkpt lat="42.033463" lon="2.737261">
        <ele>225.981</ele>
        <time>2021-02-02T11:32:24Z</time>
      </trkpt>
      <trkpt lat="42.033499" lon="2.737213">
        <ele>225.763</ele>
        <time>2021-02-02T11:32:25Z</time>
      </trkpt>
      <trkpt lat="42.033532" lon="2.737170">
        <ele>225.734</ele>
        <time>2021-02-02T11:32:26Z</time>
      </trkpt>
      <trkpt lat="42.033568" lon="2.737131">
        <ele>225.999</ele>
        <time>2021-02-02T11:32:28Z</time>
      </trkpt>
      <trkpt lat="42.033603" lon="2.737092">
        <ele>225.744</ele>
        <time>2021-02-02T11:32:29Z</time>
      </trkpt>
      <trkpt lat="42.033662" lon="2.737030">
        <ele>225.873</ele>
        <time>2021-02-02T11:32:30Z</time>
      </trkpt>
      <trkpt lat="42.033704" lon="2.736989">
        <ele>225.984</ele>
        <time>2021-02-02T11:32:32Z</time>
      </trkpt>
      <trkpt lat="42.033753" lon="2.736951">
        <ele>225.907</ele>
        <time>2021-02-02T11:32:33Z</time>
      </trkpt>
      <trkpt lat="42.033798" lon="2.736919">
        <ele>225.917</ele>
        <time>2021-02-02T11:32:34Z</time>
      </trkpt>
      <trkpt lat="42.033866" lon="2.736861">
        <ele>226.108</ele>
        <time>2021-02-02T11:32:36Z</time>
      </trkpt>
      <trkpt lat="42.033933" lon="2.736797">
        <ele>226.264</ele>
        <time>2021-02-02T11:32:38Z</time>
      </trkpt>
      <trkpt lat="42.034000" lon="2.736743">
        <ele>226.443</ele>
        <time>2021-02-02T11:32:40Z</time>
      </trkpt>
      <trkpt lat="42.034044" lon="2.736706">
        <ele>226.588</ele>
        <time>2021-02-02T11:32:41Z</time>
      </trkpt>
      <trkpt lat="42.034090" lon="2.736665">
        <ele>226.730</ele>
        <time>2021-02-02T11:32:43Z</time>
      </trkpt>
      <trkpt lat="42.034128" lon="2.736629">
        <ele>226.981</ele>
        <time>2021-02-02T11:32:44Z</time>
      </trkpt>
      <trkpt lat="42.034190" lon="2.736574">
        <ele>226.896</ele>
        <time>2021-02-02T11:32:46Z</time>
      </trkpt>
      <trkpt lat="42.034255" lon="2.736535">
        <ele>227.191</ele>
        <time>2021-02-02T11:32:48Z</time>
      </trkpt>
      <trkpt lat="42.034255" lon="2.736535">
        <ele>227.110</ele>
        <time>2021-02-02T11:32:48Z</time>
      </trkpt>
      <trkpt lat="42.034303" lon="2.736503">
        <ele>227.113</ele>
        <time>2021-02-02T11:32:50Z</time>
      </trkpt>
      <trkpt lat="42.034345" lon="2.736475">
        <ele>227.143</ele>
        <time>2021-02-02T11:32:52Z</time>
      </trkpt>
      <trkpt lat="42.034400" lon="2.736439">
        <ele>227.407</ele>
        <time>2021-02-02T11:32:54Z</time>
      </trkpt>
      <trkpt lat="42.034456" lon="2.736395">
        <ele>227.508</ele>
        <time>2021-02-02T11:32:56Z</time>
      </trkpt>
      <trkpt lat="42.034498" lon="2.736360">
        <ele>227.627</ele>
        <time>2021-02-02T11:32:58Z</time>
      </trkpt>
      <trkpt lat="42.034538" lon="2.736327">
        <ele>227.736</ele>
        <time>2021-02-02T11:32:59Z</time>
      </trkpt>
      <trkpt lat="42.034584" lon="2.736291">
        <ele>227.971</ele>
        <time>2021-02-02T11:33:00Z</time>
      </trkpt>
      <trkpt lat="42.034652" lon="2.736235">
        <ele>228.473</ele>
        <time>2021-02-02T11:33:02Z</time>
      </trkpt>
      <trkpt lat="42.034689" lon="2.736200">
        <ele>228.224</ele>
        <time>2021-02-02T11:33:03Z</time>
      </trkpt>
      <trkpt lat="42.034766" lon="2.736136">
        <ele>228.349</ele>
        <time>2021-02-02T11:33:05Z</time>
      </trkpt>
      <trkpt lat="42.034812" lon="2.736100">
        <ele>228.094</ele>
        <time>2021-02-02T11:33:06Z</time>
      </trkpt>
      <trkpt lat="42.034901" lon="2.736026">
        <ele>228.393</ele>
        <time>2021-02-02T11:33:08Z</time>
      </trkpt>
      <trkpt lat="42.034943" lon="2.735989">
        <ele>228.672</ele>
        <time>2021-02-02T11:33:09Z</time>
      </trkpt>
      <trkpt lat="42.034943" lon="2.735989">
        <ele>228.613</ele>
        <time>2021-02-02T11:33:09Z</time>
      </trkpt>
      <trkpt lat="42.035025" lon="2.735920">
        <ele>228.914</ele>
        <time>2021-02-02T11:33:11Z</time>
      </trkpt>
      <trkpt lat="42.035067" lon="2.735886">
        <ele>228.908</ele>
        <time>2021-02-02T11:33:12Z</time>
      </trkpt>
      <trkpt lat="42.035108" lon="2.735851">
        <ele>229.263</ele>
        <time>2021-02-02T11:33:13Z</time>
      </trkpt>
      <trkpt lat="42.035185" lon="2.735776">
        <ele>229.432</ele>
        <time>2021-02-02T11:33:15Z</time>
      </trkpt>
      <trkpt lat="42.035255" lon="2.735701">
        <ele>229.727</ele>
        <time>2021-02-02T11:33:17Z</time>
      </trkpt>
      <trkpt lat="42.035321" lon="2.735635">
        <ele>230.089</ele>
        <time>2021-02-02T11:33:19Z</time>
      </trkpt>
      <trkpt lat="42.035386" lon="2.735573">
        <ele>230.170</ele>
        <time>2021-02-02T11:33:21Z</time>
      </trkpt>
      <trkpt lat="42.035423" lon="2.735532">
        <ele>230.565</ele>
        <time>2021-02-02T11:33:22Z</time>
      </trkpt>
      <trkpt lat="42.035464" lon="2.735488">
        <ele>230.780</ele>
        <time>2021-02-02T11:33:23Z</time>
      </trkpt>
      <trkpt lat="42.035494" lon="2.735414">
        <ele>230.849</ele>
        <time>2021-02-02T11:33:25Z</time>
      </trkpt>
      <trkpt lat="42.035551" lon="2.735356">
        <ele>231.153</ele>
        <time>2021-02-02T11:33:27Z</time>
      </trkpt>
      <trkpt lat="42.035601" lon="2.735309">
        <ele>231.504</ele>
        <time>2021-02-02T11:33:28Z</time>
      </trkpt>
      <trkpt lat="42.035664" lon="2.735253">
        <ele>231.614</ele>
        <time>2021-02-02T11:33:30Z</time>
      </trkpt>
      <trkpt lat="42.035718" lon="2.735213">
        <ele>231.708</ele>
        <time>2021-02-02T11:33:31Z</time>
      </trkpt>
      <trkpt lat="42.035786" lon="2.735142">
        <ele>232.561</ele>
        <time>2021-02-02T11:33:33Z</time>
      </trkpt>
      <trkpt lat="42.035786" lon="2.735142">
        <ele>232.540</ele>
        <time>2021-02-02T11:33:33Z</time>
      </trkpt>
      <trkpt lat="42.035851" lon="2.735081">
        <ele>232.665</ele>
        <time>2021-02-02T11:33:35Z</time>
      </trkpt>
      <trkpt lat="42.035912" lon="2.735031">
        <ele>232.717</ele>
        <time>2021-02-02T11:33:37Z</time>
      </trkpt>
      <trkpt lat="42.035983" lon="2.734977">
        <ele>233.498</ele>
        <time>2021-02-02T11:33:39Z</time>
      </trkpt>
      <trkpt lat="42.036052" lon="2.734925">
        <ele>233.423</ele>
        <time>2021-02-02T11:33:41Z</time>
      </trkpt>
      <trkpt lat="42.036116" lon="2.734887">
        <ele>234.258</ele>
        <time>2021-02-02T11:33:43Z</time>
      </trkpt>
      <trkpt lat="42.036188" lon="2.734848">
        <ele>234.287</ele>
        <time>2021-02-02T11:33:45Z</time>
      </trkpt>
      <trkpt lat="42.036253" lon="2.734811">
        <ele>234.644</ele>
        <time>2021-02-02T11:33:47Z</time>
      </trkpt>
      <trkpt lat="42.036314" lon="2.734778">
        <ele>234.905</ele>
        <time>2021-02-02T11:33:49Z</time>
      </trkpt>
      <trkpt lat="42.036366" lon="2.734744">
        <ele>235.315</ele>
        <time>2021-02-02T11:33:51Z</time>
      </trkpt>
      <trkpt lat="42.036417" lon="2.734721">
        <ele>235.608</ele>
        <time>2021-02-02T11:33:53Z</time>
      </trkpt>
      <trkpt lat="42.036487" lon="2.734700">
        <ele>235.940</ele>
        <time>2021-02-02T11:33:55Z</time>
      </trkpt>
      <trkpt lat="42.036545" lon="2.734682">
        <ele>236.049</ele>
        <time>2021-02-02T11:33:57Z</time>
      </trkpt>
      <trkpt lat="42.036604" lon="2.734664">
        <ele>236.224</ele>
        <time>2021-02-02T11:33:59Z</time>
      </trkpt>
      <trkpt lat="42.036661" lon="2.734649">
        <ele>236.816</ele>
        <time>2021-02-02T11:34:01Z</time>
      </trkpt>
      <trkpt lat="42.036710" lon="2.734636">
        <ele>237.327</ele>
        <time>2021-02-02T11:34:03Z</time>
      </trkpt>
      <trkpt lat="42.036782" lon="2.734608">
        <ele>237.752</ele>
        <time>2021-02-02T11:34:05Z</time>
      </trkpt>
      <trkpt lat="42.036837" lon="2.734594">
        <ele>238.497</ele>
        <time>2021-02-02T11:34:07Z</time>
      </trkpt>
      <trkpt lat="42.036900" lon="2.734579">
        <ele>238.746</ele>
        <time>2021-02-02T11:34:09Z</time>
      </trkpt>
      <trkpt lat="42.036951" lon="2.734567">
        <ele>239.254</ele>
        <time>2021-02-02T11:34:11Z</time>
      </trkpt>
      <trkpt lat="42.037014" lon="2.734560">
        <ele>239.156</ele>
        <time>2021-02-02T11:34:13Z</time>
      </trkpt>
      <trkpt lat="42.037073" lon="2.734550">
        <ele>239.511</ele>
        <time>2021-02-02T11:34:15Z</time>
      </trkpt>
      <trkpt lat="42.037138" lon="2.734526">
        <ele>239.708</ele>
        <time>2021-02-02T11:34:17Z</time>
      </trkpt>
      <trkpt lat="42.037189" lon="2.734518">
        <ele>239.971</ele>
        <time>2021-02-02T11:34:19Z</time>
      </trkpt>
      <trkpt lat="42.037262" lon="2.734505">
        <ele>240.390</ele>
        <time>2021-02-02T11:34:21Z</time>
      </trkpt>
      <trkpt lat="42.037321" lon="2.734506">
        <ele>240.745</ele>
        <time>2021-02-02T11:34:23Z</time>
      </trkpt>
      <trkpt lat="42.037394" lon="2.734513">
        <ele>241.157</ele>
        <time>2021-02-02T11:34:25Z</time>
      </trkpt>
      <trkpt lat="42.037453" lon="2.734517">
        <ele>241.318</ele>
        <time>2021-02-02T11:34:27Z</time>
      </trkpt>
      <trkpt lat="42.037510" lon="2.734518">
        <ele>241.823</ele>
        <time>2021-02-02T11:34:29Z</time>
      </trkpt>
      <trkpt lat="42.037572" lon="2.734516">
        <ele>241.948</ele>
        <time>2021-02-02T11:34:31Z</time>
      </trkpt>
      <trkpt lat="42.037628" lon="2.734513">
        <ele>242.257</ele>
        <time>2021-02-02T11:34:33Z</time>
      </trkpt>
      <trkpt lat="42.037686" lon="2.734491">
        <ele>242.699</ele>
        <time>2021-02-02T11:34:35Z</time>
      </trkpt>
      <trkpt lat="42.037744" lon="2.734485">
        <ele>243.107</ele>
        <time>2021-02-02T11:34:37Z</time>
      </trkpt>
      <trkpt lat="42.037792" lon="2.734494">
        <ele>243.427</ele>
        <time>2021-02-02T11:34:39Z</time>
      </trkpt>
      <trkpt lat="42.037845" lon="2.734489">
        <ele>243.708</ele>
        <time>2021-02-02T11:34:41Z</time>
      </trkpt>
      <trkpt lat="42.037910" lon="2.734479">
        <ele>244.325</ele>
        <time>2021-02-02T11:34:43Z</time>
      </trkpt>
      <trkpt lat="42.037962" lon="2.734469">
        <ele>244.744</ele>
        <time>2021-02-02T11:34:45Z</time>
      </trkpt>
      <trkpt lat="42.038020" lon="2.734450">
        <ele>245.279</ele>
        <time>2021-02-02T11:34:47Z</time>
      </trkpt>
      <trkpt lat="42.038064" lon="2.734419">
        <ele>245.561</ele>
        <time>2021-02-02T11:34:49Z</time>
      </trkpt>
      <trkpt lat="42.038124" lon="2.734386">
        <ele>245.862</ele>
        <time>2021-02-02T11:34:51Z</time>
      </trkpt>
      <trkpt lat="42.038179" lon="2.734349">
        <ele>246.177</ele>
        <time>2021-02-02T11:34:53Z</time>
      </trkpt>
      <trkpt lat="42.038224" lon="2.734312">
        <ele>246.422</ele>
        <time>2021-02-02T11:34:55Z</time>
      </trkpt>
      <trkpt lat="42.038280" lon="2.734267">
        <ele>246.461</ele>
        <time>2021-02-02T11:34:57Z</time>
      </trkpt>
      <trkpt lat="42.038336" lon="2.734227">
        <ele>246.973</ele>
        <time>2021-02-02T11:34:59Z</time>
      </trkpt>
      <trkpt lat="42.038385" lon="2.734182">
        <ele>247.185</ele>
        <time>2021-02-02T11:35:01Z</time>
      </trkpt>
      <trkpt lat="42.038436" lon="2.734150">
        <ele>247.413</ele>
        <time>2021-02-02T11:35:03Z</time>
      </trkpt>
      <trkpt lat="42.038488" lon="2.734110">
        <ele>247.708</ele>
        <time>2021-02-02T11:35:05Z</time>
      </trkpt>
      <trkpt lat="42.038542" lon="2.734070">
        <ele>247.643</ele>
        <time>2021-02-02T11:35:07Z</time>
      </trkpt>
      <trkpt lat="42.038589" lon="2.734033">
        <ele>247.852</ele>
        <time>2021-02-02T11:35:08Z</time>
      </trkpt>
      <trkpt lat="42.038637" lon="2.733998">
        <ele>248.357</ele>
        <time>2021-02-02T11:35:10Z</time>
      </trkpt>
      <trkpt lat="42.038687" lon="2.733964">
        <ele>248.349</ele>
        <time>2021-02-02T11:35:12Z</time>
      </trkpt>
      <trkpt lat="42.038747" lon="2.733910">
        <ele>248.990</ele>
        <time>2021-02-02T11:35:14Z</time>
      </trkpt>
      <trkpt lat="42.038811" lon="2.733863">
        <ele>248.985</ele>
        <time>2021-02-02T11:35:17Z</time>
      </trkpt>
      <trkpt lat="42.038873" lon="2.733822">
        <ele>249.460</ele>
        <time>2021-02-02T11:35:19Z</time>
      </trkpt>
      <trkpt lat="42.038934" lon="2.733775">
        <ele>249.589</ele>
        <time>2021-02-02T11:35:22Z</time>
      </trkpt>
      <trkpt lat="42.038992" lon="2.733731">
        <ele>249.689</ele>
        <time>2021-02-02T11:35:24Z</time>
      </trkpt>
      <trkpt lat="42.039029" lon="2.733693">
        <ele>249.906</ele>
        <time>2021-02-02T11:35:26Z</time>
      </trkpt>
      <trkpt lat="42.039073" lon="2.733665">
        <ele>250.226</ele>
        <time>2021-02-02T11:35:28Z</time>
      </trkpt>
      <trkpt lat="42.039118" lon="2.733630">
        <ele>249.108</ele>
        <time>2021-02-02T11:35:30Z</time>
      </trkpt>
      <trkpt lat="42.039178" lon="2.733586">
        <ele>250.414</ele>
        <time>2021-02-02T11:35:32Z</time>
      </trkpt>
      <trkpt lat="42.039219" lon="2.733559">
        <ele>250.533</ele>
        <time>2021-02-02T11:35:34Z</time>
      </trkpt>
      <trkpt lat="42.039219" lon="2.733559">
        <ele>250.578</ele>
        <time>2021-02-02T11:35:34Z</time>
      </trkpt>
      <trkpt lat="42.039261" lon="2.733510">
        <ele>251.010</ele>
        <time>2021-02-02T11:35:36Z</time>
      </trkpt>
      <trkpt lat="42.039292" lon="2.733461">
        <ele>250.421</ele>
        <time>2021-02-02T11:35:38Z</time>
      </trkpt>
      <trkpt lat="42.039411" lon="2.733430">
        <ele>252.046</ele>
        <time>2021-02-02T11:35:43Z</time>
      </trkpt>
      <trkpt lat="42.039411" lon="2.733430">
        <ele>252.031</ele>
        <time>2021-02-02T11:35:43Z</time>
      </trkpt>
      <trkpt lat="42.039411" lon="2.733430">
        <ele>252.080</ele>
        <time>2021-02-02T11:35:43Z</time>
      </trkpt>
      <trkpt lat="42.039411" lon="2.733430">
        <ele>252.056</ele>
        <time>2021-02-02T11:35:43Z</time>
      </trkpt>
      <trkpt lat="42.039453" lon="2.733380">
        <ele>252.159</ele>
        <time>2021-02-02T11:35:45Z</time>
      </trkpt>
      <trkpt lat="42.039453" lon="2.733380">
        <ele>252.114</ele>
        <time>2021-02-02T11:35:45Z</time>
      </trkpt>
      <trkpt lat="42.039453" lon="2.733380">
        <ele>252.108</ele>
        <time>2021-02-02T11:35:45Z</time>
      </trkpt>
      <trkpt lat="42.039501" lon="2.733319">
        <ele>252.151</ele>
        <time>2021-02-02T11:35:47Z</time>
      </trkpt>
      <trkpt lat="42.039501" lon="2.733319">
        <ele>252.130</ele>
        <time>2021-02-02T11:35:47Z</time>
      </trkpt>
      <trkpt lat="42.039578" lon="2.733258">
        <ele>252.475</ele>
        <time>2021-02-02T11:35:50Z</time>
      </trkpt>
      <trkpt lat="42.039578" lon="2.733258">
        <ele>252.477</ele>
        <time>2021-02-02T11:35:50Z</time>
      </trkpt>
      <trkpt lat="42.039625" lon="2.733226">
        <ele>253.378</ele>
        <time>2021-02-02T11:35:52Z</time>
      </trkpt>
      <trkpt lat="42.039662" lon="2.733184">
        <ele>254.193</ele>
        <time>2021-02-02T11:35:54Z</time>
      </trkpt>
      <trkpt lat="42.039693" lon="2.733125">
        <ele>255.048</ele>
        <time>2021-02-02T11:35:56Z</time>
      </trkpt>
      <trkpt lat="42.039720" lon="2.733069">
        <ele>253.447</ele>
        <time>2021-02-02T11:35:58Z</time>
      </trkpt>
      <trkpt lat="42.039741" lon="2.732960">
        <ele>255.577</ele>
        <time>2021-02-02T11:36:01Z</time>
      </trkpt>
      <trkpt lat="42.039763" lon="2.732884">
        <ele>256.061</ele>
        <time>2021-02-02T11:36:03Z</time>
      </trkpt>
      <trkpt lat="42.039781" lon="2.732811">
        <ele>256.427</ele>
        <time>2021-02-02T11:36:05Z</time>
      </trkpt>
      <trkpt lat="42.039800" lon="2.732751">
        <ele>256.608</ele>
        <time>2021-02-02T11:36:07Z</time>
      </trkpt>
      <trkpt lat="42.039827" lon="2.732686">
        <ele>257.473</ele>
        <time>2021-02-02T11:36:09Z</time>
      </trkpt>
      <trkpt lat="42.039853" lon="2.732619">
        <ele>257.362</ele>
        <time>2021-02-02T11:36:11Z</time>
      </trkpt>
      <trkpt lat="42.039891" lon="2.732566">
        <ele>257.387</ele>
        <time>2021-02-02T11:36:13Z</time>
      </trkpt>
      <trkpt lat="42.039926" lon="2.732510">
        <ele>257.699</ele>
        <time>2021-02-02T11:36:15Z</time>
      </trkpt>
      <trkpt lat="42.039960" lon="2.732451">
        <ele>258.090</ele>
        <time>2021-02-02T11:36:17Z</time>
      </trkpt>
      <trkpt lat="42.039992" lon="2.732406">
        <ele>258.325</ele>
        <time>2021-02-02T11:36:19Z</time>
      </trkpt>
      <trkpt lat="42.040027" lon="2.732355">
        <ele>258.730</ele>
        <time>2021-02-02T11:36:21Z</time>
      </trkpt>
      <trkpt lat="42.040060" lon="2.732295">
        <ele>258.489</ele>
        <time>2021-02-02T11:36:23Z</time>
      </trkpt>
      <trkpt lat="42.040100" lon="2.732219">
        <ele>258.986</ele>
        <time>2021-02-02T11:36:26Z</time>
      </trkpt>
      <trkpt lat="42.040131" lon="2.732167">
        <ele>260.760</ele>
        <time>2021-02-02T11:36:28Z</time>
      </trkpt>
      <trkpt lat="42.040173" lon="2.732107">
        <ele>259.826</ele>
        <time>2021-02-02T11:36:30Z</time>
      </trkpt>
      <trkpt lat="42.040209" lon="2.732061">
        <ele>259.908</ele>
        <time>2021-02-02T11:36:32Z</time>
      </trkpt>
      <trkpt lat="42.040259" lon="2.732007">
        <ele>260.254</ele>
        <time>2021-02-02T11:36:34Z</time>
      </trkpt>
      <trkpt lat="42.040310" lon="2.731960">
        <ele>260.483</ele>
        <time>2021-02-02T11:36:36Z</time>
      </trkpt>
      <trkpt lat="42.040368" lon="2.731913">
        <ele>260.838</ele>
        <time>2021-02-02T11:36:38Z</time>
      </trkpt>
      <trkpt lat="42.040425" lon="2.731867">
        <ele>261.110</ele>
        <time>2021-02-02T11:36:40Z</time>
      </trkpt>
      <trkpt lat="42.040477" lon="2.731824">
        <ele>261.321</ele>
        <time>2021-02-02T11:36:42Z</time>
      </trkpt>
      <trkpt lat="42.040524" lon="2.731792">
        <ele>262.166</ele>
        <time>2021-02-02T11:36:44Z</time>
      </trkpt>
      <trkpt lat="42.040576" lon="2.731762">
        <ele>262.441</ele>
        <time>2021-02-02T11:36:46Z</time>
      </trkpt>
      <trkpt lat="42.040622" lon="2.731720">
        <ele>262.620</ele>
        <time>2021-02-02T11:36:48Z</time>
      </trkpt>
      <trkpt lat="42.040670" lon="2.731683">
        <ele>263.255</ele>
        <time>2021-02-02T11:36:50Z</time>
      </trkpt>
      <trkpt lat="42.040716" lon="2.731644">
        <ele>263.407</ele>
        <time>2021-02-02T11:36:52Z</time>
      </trkpt>
      <trkpt lat="42.040756" lon="2.731605">
        <ele>263.617</ele>
        <time>2021-02-02T11:36:54Z</time>
      </trkpt>
      <trkpt lat="42.040803" lon="2.731551">
        <ele>264.108</ele>
        <time>2021-02-02T11:36:57Z</time>
      </trkpt>
      <trkpt lat="42.040839" lon="2.731512">
        <ele>264.341</ele>
        <time>2021-02-02T11:36:59Z</time>
      </trkpt>
      <trkpt lat="42.040876" lon="2.731469">
        <ele>264.770</ele>
        <time>2021-02-02T11:37:00Z</time>
      </trkpt>
      <trkpt lat="42.040910" lon="2.731422">
        <ele>264.595</ele>
        <time>2021-02-02T11:37:02Z</time>
      </trkpt>
      <trkpt lat="42.040948" lon="2.731363">
        <ele>265.377</ele>
        <time>2021-02-02T11:37:04Z</time>
      </trkpt>
      <trkpt lat="42.040980" lon="2.731309">
        <ele>265.588</ele>
        <time>2021-02-02T11:37:06Z</time>
      </trkpt>
      <trkpt lat="42.041020" lon="2.731248">
        <ele>266.163</ele>
        <time>2021-02-02T11:37:08Z</time>
      </trkpt>
      <trkpt lat="42.041050" lon="2.731202">
        <ele>266.218</ele>
        <time>2021-02-02T11:37:10Z</time>
      </trkpt>
      <trkpt lat="42.041080" lon="2.731155">
        <ele>266.967</ele>
        <time>2021-02-02T11:37:12Z</time>
      </trkpt>
      <trkpt lat="42.041109" lon="2.731105">
        <ele>266.981</ele>
        <time>2021-02-02T11:37:14Z</time>
      </trkpt>
      <trkpt lat="42.041152" lon="2.731043">
        <ele>267.561</ele>
        <time>2021-02-02T11:37:16Z</time>
      </trkpt>
      <trkpt lat="42.041196" lon="2.730983">
        <ele>267.917</ele>
        <time>2021-02-02T11:37:18Z</time>
      </trkpt>
      <trkpt lat="42.041238" lon="2.730933">
        <ele>268.208</ele>
        <time>2021-02-02T11:37:20Z</time>
      </trkpt>
      <trkpt lat="42.041287" lon="2.730868">
        <ele>268.314</ele>
        <time>2021-02-02T11:37:22Z</time>
      </trkpt>
      <trkpt lat="42.041324" lon="2.730828">
        <ele>268.863</ele>
        <time>2021-02-02T11:37:23Z</time>
      </trkpt>
      <trkpt lat="42.041372" lon="2.730780">
        <ele>269.018</ele>
        <time>2021-02-02T11:37:25Z</time>
      </trkpt>
      <trkpt lat="42.041425" lon="2.730737">
        <ele>269.430</ele>
        <time>2021-02-02T11:37:27Z</time>
      </trkpt>
      <trkpt lat="42.041466" lon="2.730703">
        <ele>269.581</ele>
        <time>2021-02-02T11:37:29Z</time>
      </trkpt>
      <trkpt lat="42.041466" lon="2.730703">
        <ele>269.516</ele>
        <time>2021-02-02T11:37:29Z</time>
      </trkpt>
      <trkpt lat="42.041514" lon="2.730662">
        <ele>269.811</ele>
        <time>2021-02-02T11:37:31Z</time>
      </trkpt>
      <trkpt lat="42.041561" lon="2.730614">
        <ele>270.010</ele>
        <time>2021-02-02T11:37:33Z</time>
      </trkpt>
      <trkpt lat="42.041604" lon="2.730565">
        <ele>270.429</ele>
        <time>2021-02-02T11:37:35Z</time>
      </trkpt>
      <trkpt lat="42.041656" lon="2.730517">
        <ele>271.100</ele>
        <time>2021-02-02T11:37:37Z</time>
      </trkpt>
      <trkpt lat="42.041714" lon="2.730466">
        <ele>271.020</ele>
        <time>2021-02-02T11:37:39Z</time>
      </trkpt>
      <trkpt lat="42.041768" lon="2.730426">
        <ele>271.508</ele>
        <time>2021-02-02T11:37:41Z</time>
      </trkpt>
      <trkpt lat="42.041827" lon="2.730397">
        <ele>271.638</ele>
        <time>2021-02-02T11:37:43Z</time>
      </trkpt>
      <trkpt lat="42.041881" lon="2.730357">
        <ele>271.857</ele>
        <time>2021-02-02T11:37:45Z</time>
      </trkpt>
      <trkpt lat="42.041928" lon="2.730317">
        <ele>272.382</ele>
        <time>2021-02-02T11:37:47Z</time>
      </trkpt>
      <trkpt lat="42.041971" lon="2.730285">
        <ele>272.884</ele>
        <time>2021-02-02T11:37:49Z</time>
      </trkpt>
      <trkpt lat="42.042012" lon="2.730255">
        <ele>272.975</ele>
        <time>2021-02-02T11:37:50Z</time>
      </trkpt>
      <trkpt lat="42.042055" lon="2.730226">
        <ele>272.940</ele>
        <time>2021-02-02T11:37:52Z</time>
      </trkpt>
      <trkpt lat="42.042096" lon="2.730192">
        <ele>273.575</ele>
        <time>2021-02-02T11:37:54Z</time>
      </trkpt>
      <trkpt lat="42.042137" lon="2.730160">
        <ele>273.584</ele>
        <time>2021-02-02T11:37:55Z</time>
      </trkpt>
      <trkpt lat="42.042188" lon="2.730115">
        <ele>273.767</ele>
        <time>2021-02-02T11:37:57Z</time>
      </trkpt>
      <trkpt lat="42.042227" lon="2.730079">
        <ele>274.481</ele>
        <time>2021-02-02T11:37:59Z</time>
      </trkpt>
      <trkpt lat="42.042275" lon="2.730039">
        <ele>274.719</ele>
        <time>2021-02-02T11:38:01Z</time>
      </trkpt>
      <trkpt lat="42.042324" lon="2.729999">
        <ele>275.308</ele>
        <time>2021-02-02T11:38:03Z</time>
      </trkpt>
      <trkpt lat="42.042378" lon="2.729960">
        <ele>275.652</ele>
        <time>2021-02-02T11:38:05Z</time>
      </trkpt>
      <trkpt lat="42.042432" lon="2.729919">
        <ele>275.741</ele>
        <time>2021-02-02T11:38:08Z</time>
      </trkpt>
      <trkpt lat="42.042480" lon="2.729875">
        <ele>276.326</ele>
        <time>2021-02-02T11:38:10Z</time>
      </trkpt>
      <trkpt lat="42.042532" lon="2.729818">
        <ele>276.928</ele>
        <time>2021-02-02T11:38:13Z</time>
      </trkpt>
      <trkpt lat="42.042570" lon="2.729777">
        <ele>277.559</ele>
        <time>2021-02-02T11:38:15Z</time>
      </trkpt>
      <trkpt lat="42.042607" lon="2.729736">
        <ele>277.694</ele>
        <time>2021-02-02T11:38:17Z</time>
      </trkpt>
      <trkpt lat="42.042644" lon="2.729699">
        <ele>277.889</ele>
        <time>2021-02-02T11:38:19Z</time>
      </trkpt>
      <trkpt lat="42.042686" lon="2.729668">
        <ele>278.498</ele>
        <time>2021-02-02T11:38:21Z</time>
      </trkpt>
      <trkpt lat="42.042735" lon="2.729632">
        <ele>278.611</ele>
        <time>2021-02-02T11:38:23Z</time>
      </trkpt>
      <trkpt lat="42.042784" lon="2.729579">
        <ele>278.921</ele>
        <time>2021-02-02T11:38:26Z</time>
      </trkpt>
      <trkpt lat="42.042838" lon="2.729520">
        <ele>279.803</ele>
        <time>2021-02-02T11:38:29Z</time>
      </trkpt>
      <trkpt lat="42.042877" lon="2.729480">
        <ele>279.608</ele>
        <time>2021-02-02T11:38:31Z</time>
      </trkpt>
      <trkpt lat="42.042918" lon="2.729437">
        <ele>280.137</ele>
        <time>2021-02-02T11:38:33Z</time>
      </trkpt>
      <trkpt lat="42.042960" lon="2.729393">
        <ele>280.616</ele>
        <time>2021-02-02T11:38:36Z</time>
      </trkpt>
      <trkpt lat="42.042997" lon="2.729356">
        <ele>280.651</ele>
        <time>2021-02-02T11:38:38Z</time>
      </trkpt>
      <trkpt lat="42.043038" lon="2.729327">
        <ele>281.393</ele>
        <time>2021-02-02T11:38:40Z</time>
      </trkpt>
      <trkpt lat="42.043086" lon="2.729289">
        <ele>281.584</ele>
        <time>2021-02-02T11:38:42Z</time>
      </trkpt>
      <trkpt lat="42.043128" lon="2.729254">
        <ele>281.829</ele>
        <time>2021-02-02T11:38:44Z</time>
      </trkpt>
      <trkpt lat="42.043170" lon="2.729221">
        <ele>282.294</ele>
        <time>2021-02-02T11:38:46Z</time>
      </trkpt>
      <trkpt lat="42.043211" lon="2.729186">
        <ele>282.553</ele>
        <time>2021-02-02T11:38:48Z</time>
      </trkpt>
      <trkpt lat="42.043257" lon="2.729154">
        <ele>282.747</ele>
        <time>2021-02-02T11:38:50Z</time>
      </trkpt>
      <trkpt lat="42.043322" lon="2.729124">
        <ele>283.229</ele>
        <time>2021-02-02T11:38:53Z</time>
      </trkpt>
      <trkpt lat="42.043368" lon="2.729102">
        <ele>283.621</ele>
        <time>2021-02-02T11:38:55Z</time>
      </trkpt>
      <trkpt lat="42.043413" lon="2.729083">
        <ele>283.708</ele>
        <time>2021-02-02T11:38:57Z</time>
      </trkpt>
      <trkpt lat="42.043467" lon="2.729057">
        <ele>284.570</ele>
        <time>2021-02-02T11:39:00Z</time>
      </trkpt>
      <trkpt lat="42.043509" lon="2.729029">
        <ele>284.859</ele>
        <time>2021-02-02T11:39:02Z</time>
      </trkpt>
      <trkpt lat="42.043556" lon="2.729001">
        <ele>285.114</ele>
        <time>2021-02-02T11:39:04Z</time>
      </trkpt>
      <trkpt lat="42.043608" lon="2.728964">
        <ele>285.396</ele>
        <time>2021-02-02T11:39:06Z</time>
      </trkpt>
      <trkpt lat="42.043651" lon="2.728938">
        <ele>285.767</ele>
        <time>2021-02-02T11:39:08Z</time>
      </trkpt>
      <trkpt lat="42.043696" lon="2.728909">
        <ele>286.262</ele>
        <time>2021-02-02T11:39:10Z</time>
      </trkpt>
      <trkpt lat="42.043739" lon="2.728884">
        <ele>286.497</ele>
        <time>2021-02-02T11:39:12Z</time>
      </trkpt>
      <trkpt lat="42.043789" lon="2.728855">
        <ele>286.826</ele>
        <time>2021-02-02T11:39:14Z</time>
      </trkpt>
      <trkpt lat="42.043833" lon="2.728824">
        <ele>287.312</ele>
        <time>2021-02-02T11:39:16Z</time>
      </trkpt>
      <trkpt lat="42.043885" lon="2.728790">
        <ele>287.632</ele>
        <time>2021-02-02T11:39:19Z</time>
      </trkpt>
      <trkpt lat="42.043925" lon="2.728761">
        <ele>288.205</ele>
        <time>2021-02-02T11:39:21Z</time>
      </trkpt>
      <trkpt lat="42.043973" lon="2.728734">
        <ele>288.408</ele>
        <time>2021-02-02T11:39:23Z</time>
      </trkpt>
      <trkpt lat="42.043973" lon="2.728734">
        <ele>288.457</ele>
        <time>2021-02-02T11:39:23Z</time>
      </trkpt>
      <trkpt lat="42.044029" lon="2.728698">
        <ele>289.176</ele>
        <time>2021-02-02T11:39:26Z</time>
      </trkpt>
      <trkpt lat="42.044078" lon="2.728671">
        <ele>289.291</ele>
        <time>2021-02-02T11:39:28Z</time>
      </trkpt>
      <trkpt lat="42.044136" lon="2.728660">
        <ele>289.883</ele>
        <time>2021-02-02T11:39:31Z</time>
      </trkpt>
      <trkpt lat="42.044191" lon="2.728645">
        <ele>290.134</ele>
        <time>2021-02-02T11:39:33Z</time>
      </trkpt>
      <trkpt lat="42.044248" lon="2.728630">
        <ele>290.269</ele>
        <time>2021-02-02T11:39:35Z</time>
      </trkpt>
      <trkpt lat="42.044303" lon="2.728621">
        <ele>290.784</ele>
        <time>2021-02-02T11:39:37Z</time>
      </trkpt>
      <trkpt lat="42.044350" lon="2.728612">
        <ele>291.373</ele>
        <time>2021-02-02T11:39:39Z</time>
      </trkpt>
      <trkpt lat="42.044407" lon="2.728600">
        <ele>291.196</ele>
        <time>2021-02-02T11:39:41Z</time>
      </trkpt>
      <trkpt lat="42.044460" lon="2.728598">
        <ele>291.731</ele>
        <time>2021-02-02T11:39:43Z</time>
      </trkpt>
      <trkpt lat="42.044523" lon="2.728588">
        <ele>291.824</ele>
        <time>2021-02-02T11:39:45Z</time>
      </trkpt>
      <trkpt lat="42.044575" lon="2.728569">
        <ele>292.508</ele>
        <time>2021-02-02T11:39:47Z</time>
      </trkpt>
      <trkpt lat="42.044634" lon="2.728548">
        <ele>292.635</ele>
        <time>2021-02-02T11:39:50Z</time>
      </trkpt>
      <trkpt lat="42.044689" lon="2.728531">
        <ele>293.334</ele>
        <time>2021-02-02T11:39:52Z</time>
      </trkpt>
      <trkpt lat="42.044742" lon="2.728503">
        <ele>293.639</ele>
        <time>2021-02-02T11:39:55Z</time>
      </trkpt>
      <trkpt lat="42.044805" lon="2.728486">
        <ele>293.991</ele>
        <time>2021-02-02T11:39:57Z</time>
      </trkpt>
      <trkpt lat="42.044852" lon="2.728469">
        <ele>294.452</ele>
        <time>2021-02-02T11:39:59Z</time>
      </trkpt>
      <trkpt lat="42.044909" lon="2.728441">
        <ele>295.257</ele>
        <time>2021-02-02T11:40:02Z</time>
      </trkpt>
      <trkpt lat="42.044963" lon="2.728416">
        <ele>295.472</ele>
        <time>2021-02-02T11:40:05Z</time>
      </trkpt>
      <trkpt lat="42.045020" lon="2.728389">
        <ele>296.151</ele>
        <time>2021-02-02T11:40:07Z</time>
      </trkpt>
      <trkpt lat="42.045061" lon="2.728358">
        <ele>296.613</ele>
        <time>2021-02-02T11:40:09Z</time>
      </trkpt>
      <trkpt lat="42.045108" lon="2.728312">
        <ele>296.743</ele>
        <time>2021-02-02T11:40:11Z</time>
      </trkpt>
      <trkpt lat="42.045156" lon="2.728280">
        <ele>297.007</ele>
        <time>2021-02-02T11:40:13Z</time>
      </trkpt>
      <trkpt lat="42.045216" lon="2.728224">
        <ele>297.208</ele>
        <time>2021-02-02T11:40:15Z</time>
      </trkpt>
      <trkpt lat="42.045257" lon="2.728184">
        <ele>297.887</ele>
        <time>2021-02-02T11:40:17Z</time>
      </trkpt>
      <trkpt lat="42.045306" lon="2.728141">
        <ele>298.516</ele>
        <time>2021-02-02T11:40:20Z</time>
      </trkpt>
      <trkpt lat="42.045374" lon="2.728084">
        <ele>299.261</ele>
        <time>2021-02-02T11:40:23Z</time>
      </trkpt>
      <trkpt lat="42.045430" lon="2.728051">
        <ele>299.393</ele>
        <time>2021-02-02T11:40:25Z</time>
      </trkpt>
      <trkpt lat="42.045478" lon="2.728017">
        <ele>299.794</ele>
        <time>2021-02-02T11:40:27Z</time>
      </trkpt>
      <trkpt lat="42.045526" lon="2.727983">
        <ele>299.989</ele>
        <time>2021-02-02T11:40:29Z</time>
      </trkpt>
      <trkpt lat="42.045565" lon="2.727949">
        <ele>300.314</ele>
        <time>2021-02-02T11:40:31Z</time>
      </trkpt>
      <trkpt lat="42.045607" lon="2.727910">
        <ele>300.633</ele>
        <time>2021-02-02T11:40:33Z</time>
      </trkpt>
      <trkpt lat="42.045655" lon="2.727870">
        <ele>301.243</ele>
        <time>2021-02-02T11:40:36Z</time>
      </trkpt>
      <trkpt lat="42.045697" lon="2.727830">
        <ele>301.764</ele>
        <time>2021-02-02T11:40:38Z</time>
      </trkpt>
      <trkpt lat="42.045735" lon="2.727784">
        <ele>301.910</ele>
        <time>2021-02-02T11:40:40Z</time>
      </trkpt>
      <trkpt lat="42.045788" lon="2.727746">
        <ele>302.608</ele>
        <time>2021-02-02T11:40:43Z</time>
      </trkpt>
      <trkpt lat="42.045826" lon="2.727711">
        <ele>302.940</ele>
        <time>2021-02-02T11:40:45Z</time>
      </trkpt>
      <trkpt lat="42.045876" lon="2.727656">
        <ele>303.849</ele>
        <time>2021-02-02T11:40:48Z</time>
      </trkpt>
      <trkpt lat="42.045913" lon="2.727618">
        <ele>303.984</ele>
        <time>2021-02-02T11:40:50Z</time>
      </trkpt>
      <trkpt lat="42.045977" lon="2.727569">
        <ele>304.756</ele>
        <time>2021-02-02T11:40:53Z</time>
      </trkpt>
      <trkpt lat="42.046036" lon="2.727522">
        <ele>305.167</ele>
        <time>2021-02-02T11:40:56Z</time>
      </trkpt>
      <trkpt lat="42.046085" lon="2.727484">
        <ele>305.622</ele>
        <time>2021-02-02T11:40:59Z</time>
      </trkpt>
      <trkpt lat="42.046125" lon="2.727445">
        <ele>305.947</ele>
        <time>2021-02-02T11:41:01Z</time>
      </trkpt>
      <trkpt lat="42.046164" lon="2.727413">
        <ele>306.366</ele>
        <time>2021-02-02T11:41:03Z</time>
      </trkpt>
      <trkpt lat="42.046204" lon="2.727380">
        <ele>306.858</ele>
        <time>2021-02-02T11:41:05Z</time>
      </trkpt>
      <trkpt lat="42.046253" lon="2.727345">
        <ele>307.152</ele>
        <time>2021-02-02T11:41:08Z</time>
      </trkpt>
      <trkpt lat="42.046301" lon="2.727325">
        <ele>307.717</ele>
        <time>2021-02-02T11:41:10Z</time>
      </trkpt>
      <trkpt lat="42.046347" lon="2.727285">
        <ele>308.008</ele>
        <time>2021-02-02T11:41:13Z</time>
      </trkpt>
      <trkpt lat="42.046399" lon="2.727255">
        <ele>308.241</ele>
        <time>2021-02-02T11:41:15Z</time>
      </trkpt>
      <trkpt lat="42.046452" lon="2.727229">
        <ele>309.270</ele>
        <time>2021-02-02T11:41:18Z</time>
      </trkpt>
      <trkpt lat="42.046519" lon="2.727212">
        <ele>309.575</ele>
        <time>2021-02-02T11:41:21Z</time>
      </trkpt>
      <trkpt lat="42.046573" lon="2.727201">
        <ele>309.957</ele>
        <time>2021-02-02T11:41:24Z</time>
      </trkpt>
      <trkpt lat="42.046628" lon="2.727215">
        <ele>310.688</ele>
        <time>2021-02-02T11:41:27Z</time>
      </trkpt>
      <trkpt lat="42.046681" lon="2.727248">
        <ele>310.853</ele>
        <time>2021-02-02T11:41:30Z</time>
      </trkpt>
      <trkpt lat="42.046741" lon="2.727284">
        <ele>311.628</ele>
        <time>2021-02-02T11:41:33Z</time>
      </trkpt>
      <trkpt lat="42.046784" lon="2.727308">
        <ele>311.997</ele>
        <time>2021-02-02T11:41:35Z</time>
      </trkpt>
      <trkpt lat="42.046847" lon="2.727356">
        <ele>312.073</ele>
        <time>2021-02-02T11:41:37Z</time>
      </trkpt>
      <trkpt lat="42.046880" lon="2.727403">
        <ele>312.385</ele>
        <time>2021-02-02T11:41:39Z</time>
      </trkpt>
      <trkpt lat="42.046932" lon="2.727449">
        <ele>312.413</ele>
        <time>2021-02-02T11:41:41Z</time>
      </trkpt>
      <trkpt lat="42.046973" lon="2.727474">
        <ele>312.808</ele>
        <time>2021-02-02T11:41:43Z</time>
      </trkpt>
      <trkpt lat="42.047029" lon="2.727515">
        <ele>313.033</ele>
        <time>2021-02-02T11:41:45Z</time>
      </trkpt>
      <trkpt lat="42.047071" lon="2.727557">
        <ele>313.572</ele>
        <time>2021-02-02T11:41:47Z</time>
      </trkpt>
      <trkpt lat="42.047128" lon="2.727603">
        <ele>313.747</ele>
        <time>2021-02-02T11:41:50Z</time>
      </trkpt>
      <trkpt lat="42.047184" lon="2.727646">
        <ele>313.989</ele>
        <time>2021-02-02T11:41:53Z</time>
      </trkpt>
      <trkpt lat="42.047239" lon="2.727673">
        <ele>314.250</ele>
        <time>2021-02-02T11:41:55Z</time>
      </trkpt>
      <trkpt lat="42.047282" lon="2.727716">
        <ele>314.425</ele>
        <time>2021-02-02T11:41:57Z</time>
      </trkpt>
      <trkpt lat="42.047321" lon="2.727751">
        <ele>314.870</ele>
        <time>2021-02-02T11:41:59Z</time>
      </trkpt>
      <trkpt lat="42.047382" lon="2.727788">
        <ele>314.839</ele>
        <time>2021-02-02T11:42:02Z</time>
      </trkpt>
      <trkpt lat="42.047382" lon="2.727788">
        <ele>314.831</ele>
        <time>2021-02-02T11:42:02Z</time>
      </trkpt>
      <trkpt lat="42.047430" lon="2.727817">
        <ele>315.361</ele>
        <time>2021-02-02T11:42:04Z</time>
      </trkpt>
      <trkpt lat="42.047484" lon="2.727844">
        <ele>315.507</ele>
        <time>2021-02-02T11:42:07Z</time>
      </trkpt>
      <trkpt lat="42.047484" lon="2.727844">
        <ele>315.508</ele>
        <time>2021-02-02T11:42:07Z</time>
      </trkpt>
      <trkpt lat="42.047526" lon="2.727880">
        <ele>316.069</ele>
        <time>2021-02-02T11:42:10Z</time>
      </trkpt>
      <trkpt lat="42.047576" lon="2.727900">
        <ele>316.478</ele>
        <time>2021-02-02T11:42:12Z</time>
      </trkpt>
      <trkpt lat="42.047632" lon="2.727907">
        <ele>316.663</ele>
        <time>2021-02-02T11:42:15Z</time>
      </trkpt>
      <trkpt lat="42.047682" lon="2.727909">
        <ele>316.425</ele>
        <time>2021-02-02T11:42:17Z</time>
      </trkpt>
      <trkpt lat="42.047733" lon="2.727908">
        <ele>316.666</ele>
        <time>2021-02-02T11:42:19Z</time>
      </trkpt>
      <trkpt lat="42.047792" lon="2.727899">
        <ele>316.691</ele>
        <time>2021-02-02T11:42:21Z</time>
      </trkpt>
      <trkpt lat="42.047849" lon="2.727879">
        <ele>316.676</ele>
        <time>2021-02-02T11:42:22Z</time>
      </trkpt>
      <trkpt lat="42.047931" lon="2.727862">
        <ele>316.585</ele>
        <time>2021-02-02T11:42:24Z</time>
      </trkpt>
      <trkpt lat="42.048012" lon="2.727840">
        <ele>316.487</ele>
        <time>2021-02-02T11:42:26Z</time>
      </trkpt>
      <trkpt lat="42.048057" lon="2.727826">
        <ele>316.142</ele>
        <time>2021-02-02T11:42:27Z</time>
      </trkpt>
      <trkpt lat="42.048150" lon="2.727792">
        <ele>316.026</ele>
        <time>2021-02-02T11:42:29Z</time>
      </trkpt>
      <trkpt lat="42.048226" lon="2.727767">
        <ele>316.008</ele>
        <time>2021-02-02T11:42:31Z</time>
      </trkpt>
      <trkpt lat="42.048346" lon="2.727745">
        <ele>315.394</ele>
        <time>2021-02-02T11:42:32Z</time>
      </trkpt>
      <trkpt lat="42.048346" lon="2.727745">
        <ele>315.393</ele>
        <time>2021-02-02T11:42:32Z</time>
      </trkpt>
      <trkpt lat="42.048462" lon="2.727715">
        <ele>314.688</ele>
        <time>2021-02-02T11:42:34Z</time>
      </trkpt>
      <trkpt lat="42.048525" lon="2.727702">
        <ele>312.810</ele>
        <time>2021-02-02T11:42:35Z</time>
      </trkpt>
      <trkpt lat="42.048670" lon="2.727678">
        <ele>313.341</ele>
        <time>2021-02-02T11:42:37Z</time>
      </trkpt>
      <trkpt lat="42.048751" lon="2.727671">
        <ele>314.686</ele>
        <time>2021-02-02T11:42:38Z</time>
      </trkpt>
      <trkpt lat="42.048917" lon="2.727676">
        <ele>311.441</ele>
        <time>2021-02-02T11:42:40Z</time>
      </trkpt>
      <trkpt lat="42.048997" lon="2.727683">
        <ele>313.240</ele>
        <time>2021-02-02T11:42:41Z</time>
      </trkpt>
      <trkpt lat="42.049150" lon="2.727703">
        <ele>313.352</ele>
        <time>2021-02-02T11:42:43Z</time>
      </trkpt>
      <trkpt lat="42.049223" lon="2.727718">
        <ele>313.053</ele>
        <time>2021-02-02T11:42:44Z</time>
      </trkpt>
      <trkpt lat="42.049293" lon="2.727736">
        <ele>311.808</ele>
        <time>2021-02-02T11:42:45Z</time>
      </trkpt>
      <trkpt lat="42.049429" lon="2.727770">
        <ele>312.008</ele>
        <time>2021-02-02T11:42:47Z</time>
      </trkpt>
      <trkpt lat="42.049556" lon="2.727806">
        <ele>308.531</ele>
        <time>2021-02-02T11:42:49Z</time>
      </trkpt>
      <trkpt lat="42.049685" lon="2.727841">
        <ele>312.190</ele>
        <time>2021-02-02T11:42:51Z</time>
      </trkpt>
      <trkpt lat="42.049822" lon="2.727875">
        <ele>310.985</ele>
        <time>2021-02-02T11:42:53Z</time>
      </trkpt>
      <trkpt lat="42.049966" lon="2.727891">
        <ele>310.127</ele>
        <time>2021-02-02T11:42:55Z</time>
      </trkpt>
      <trkpt lat="42.050117" lon="2.727889">
        <ele>309.648</ele>
        <time>2021-02-02T11:42:57Z</time>
      </trkpt>
      <trkpt lat="42.050194" lon="2.727880">
        <ele>309.393</ele>
        <time>2021-02-02T11:42:58Z</time>
      </trkpt>
      <trkpt lat="42.050272" lon="2.727872">
        <ele>309.068</ele>
        <time>2021-02-02T11:42:59Z</time>
      </trkpt>
      <trkpt lat="42.050429" lon="2.727868">
        <ele>308.637</ele>
        <time>2021-02-02T11:43:01Z</time>
      </trkpt>
      <trkpt lat="42.050509" lon="2.727880">
        <ele>308.486</ele>
        <time>2021-02-02T11:43:02Z</time>
      </trkpt>
      <trkpt lat="42.050655" lon="2.727943">
        <ele>308.360</ele>
        <time>2021-02-02T11:43:04Z</time>
      </trkpt>
      <trkpt lat="42.050712" lon="2.727978">
        <ele>308.226</ele>
        <time>2021-02-02T11:43:05Z</time>
      </trkpt>
      <trkpt lat="42.050826" lon="2.728062">
        <ele>308.908</ele>
        <time>2021-02-02T11:43:07Z</time>
      </trkpt>
      <trkpt lat="42.050928" lon="2.728161">
        <ele>309.354</ele>
        <time>2021-02-02T11:43:09Z</time>
      </trkpt>
      <trkpt lat="42.051011" lon="2.728248">
        <ele>310.143</ele>
        <time>2021-02-02T11:43:11Z</time>
      </trkpt>
      <trkpt lat="42.051087" lon="2.728320">
        <ele>310.478</ele>
        <time>2021-02-02T11:43:13Z</time>
      </trkpt>
      <trkpt lat="42.051159" lon="2.728398">
        <ele>310.750</ele>
        <time>2021-02-02T11:43:15Z</time>
      </trkpt>
      <trkpt lat="42.051212" lon="2.728463">
        <ele>311.151</ele>
        <time>2021-02-02T11:43:17Z</time>
      </trkpt>
      <trkpt lat="42.051271" lon="2.728548">
        <ele>311.676</ele>
        <time>2021-02-02T11:43:19Z</time>
      </trkpt>
      <trkpt lat="42.051318" lon="2.728642">
        <ele>311.641</ele>
        <time>2021-02-02T11:43:21Z</time>
      </trkpt>
      <trkpt lat="42.051368" lon="2.728648">
        <ele>312.130</ele>
        <time>2021-02-02T11:43:24Z</time>
      </trkpt>
      <trkpt lat="42.051394" lon="2.728698">
        <ele>311.842</ele>
        <time>2021-02-02T11:43:25Z</time>
      </trkpt>
      <trkpt lat="42.051428" lon="2.728793">
        <ele>312.122</ele>
        <time>2021-02-02T11:43:26Z</time>
      </trkpt>
      <trkpt lat="42.051455" lon="2.728874">
        <ele>311.814</ele>
        <time>2021-02-02T11:43:27Z</time>
      </trkpt>
      <trkpt lat="42.051473" lon="2.728956">
        <ele>311.908</ele>
        <time>2021-02-02T11:43:28Z</time>
      </trkpt>
      <trkpt lat="42.051494" lon="2.729055">
        <ele>312.340</ele>
        <time>2021-02-02T11:43:30Z</time>
      </trkpt>
      <trkpt lat="42.051511" lon="2.729174">
        <ele>312.279</ele>
        <time>2021-02-02T11:43:31Z</time>
      </trkpt>
      <trkpt lat="42.051553" lon="2.729247">
        <ele>312.414</ele>
        <time>2021-02-02T11:43:33Z</time>
      </trkpt>
      <trkpt lat="42.051576" lon="2.729330">
        <ele>312.286</ele>
        <time>2021-02-02T11:43:34Z</time>
      </trkpt>
      <trkpt lat="42.051565" lon="2.729407">
        <ele>312.457</ele>
        <time>2021-02-02T11:43:35Z</time>
      </trkpt>
      <trkpt lat="42.051575" lon="2.729467">
        <ele>312.442</ele>
        <time>2021-02-02T11:43:36Z</time>
      </trkpt>
      <trkpt lat="42.051562" lon="2.729540">
        <ele>312.497</ele>
        <time>2021-02-02T11:43:38Z</time>
      </trkpt>
      <trkpt lat="42.051586" lon="2.729650">
        <ele>312.846</ele>
        <time>2021-02-02T11:43:40Z</time>
      </trkpt>
      <trkpt lat="42.051598" lon="2.729718">
        <ele>312.816</ele>
        <time>2021-02-02T11:43:41Z</time>
      </trkpt>
      <trkpt lat="42.051615" lon="2.729799">
        <ele>312.876</ele>
        <time>2021-02-02T11:43:42Z</time>
      </trkpt>
      <trkpt lat="42.051633" lon="2.729872">
        <ele>312.713</ele>
        <time>2021-02-02T11:43:44Z</time>
      </trkpt>
      <trkpt lat="42.051650" lon="2.729960">
        <ele>312.608</ele>
        <time>2021-02-02T11:43:45Z</time>
      </trkpt>
      <trkpt lat="42.051674" lon="2.730101">
        <ele>312.767</ele>
        <time>2021-02-02T11:43:47Z</time>
      </trkpt>
      <trkpt lat="42.051703" lon="2.730156">
        <ele>312.626</ele>
        <time>2021-02-02T11:43:48Z</time>
      </trkpt>
      <trkpt lat="42.051723" lon="2.730218">
        <ele>312.761</ele>
        <time>2021-02-02T11:43:50Z</time>
      </trkpt>
      <trkpt lat="42.051732" lon="2.730290">
        <ele>312.763</ele>
        <time>2021-02-02T11:43:51Z</time>
      </trkpt>
      <trkpt lat="42.051743" lon="2.730368">
        <ele>312.884</ele>
        <time>2021-02-02T11:43:52Z</time>
      </trkpt>
      <trkpt lat="42.051743" lon="2.730368">
        <ele>312.829</ele>
        <time>2021-02-02T11:43:52Z</time>
      </trkpt>
      <trkpt lat="42.051757" lon="2.730466">
        <ele>313.124</ele>
        <time>2021-02-02T11:43:54Z</time>
      </trkpt>
      <trkpt lat="42.051770" lon="2.730539">
        <ele>313.213</ele>
        <time>2021-02-02T11:43:55Z</time>
      </trkpt>
      <trkpt lat="42.051789" lon="2.730639">
        <ele>313.783</ele>
        <time>2021-02-02T11:43:57Z</time>
      </trkpt>
      <trkpt lat="42.051799" lon="2.730702">
        <ele>313.625</ele>
        <time>2021-02-02T11:43:58Z</time>
      </trkpt>
      <trkpt lat="42.051809" lon="2.730814">
        <ele>313.917</ele>
        <time>2021-02-02T11:44:00Z</time>
      </trkpt>
      <trkpt lat="42.051818" lon="2.730914">
        <ele>314.508</ele>
        <time>2021-02-02T11:44:02Z</time>
      </trkpt>
      <trkpt lat="42.051821" lon="2.730979">
        <ele>314.514</ele>
        <time>2021-02-02T11:44:03Z</time>
      </trkpt>
      <trkpt lat="42.051810" lon="2.731073">
        <ele>314.533</ele>
        <time>2021-02-02T11:44:05Z</time>
      </trkpt>
      <trkpt lat="42.051778" lon="2.731179">
        <ele>315.058</ele>
        <time>2021-02-02T11:44:07Z</time>
      </trkpt>
      <trkpt lat="42.051760" lon="2.731237">
        <ele>314.970</ele>
        <time>2021-02-02T11:44:08Z</time>
      </trkpt>
      <trkpt lat="42.051736" lon="2.731307">
        <ele>315.211</ele>
        <time>2021-02-02T11:44:10Z</time>
      </trkpt>
      <trkpt lat="42.051710" lon="2.731377">
        <ele>315.566</ele>
        <time>2021-02-02T11:44:11Z</time>
      </trkpt>
      <trkpt lat="42.051710" lon="2.731377">
        <ele>315.561</ele>
        <time>2021-02-02T11:44:11Z</time>
      </trkpt>
      <trkpt lat="42.051680" lon="2.731459">
        <ele>315.810</ele>
        <time>2021-02-02T11:44:13Z</time>
      </trkpt>
      <trkpt lat="42.051652" lon="2.731531">
        <ele>315.961</ele>
        <time>2021-02-02T11:44:15Z</time>
      </trkpt>
      <trkpt lat="42.051627" lon="2.731593">
        <ele>316.421</ele>
        <time>2021-02-02T11:44:16Z</time>
      </trkpt>
      <trkpt lat="42.051589" lon="2.731682">
        <ele>317.013</ele>
        <time>2021-02-02T11:44:18Z</time>
      </trkpt>
      <trkpt lat="42.051555" lon="2.731764">
        <ele>317.008</ele>
        <time>2021-02-02T11:44:20Z</time>
      </trkpt>
      <trkpt lat="42.051527" lon="2.731835">
        <ele>317.722</ele>
        <time>2021-02-02T11:44:22Z</time>
      </trkpt>
      <trkpt lat="42.051500" lon="2.731920">
        <ele>318.131</ele>
        <time>2021-02-02T11:44:24Z</time>
      </trkpt>
      <trkpt lat="42.051480" lon="2.732001">
        <ele>318.376</ele>
        <time>2021-02-02T11:44:26Z</time>
      </trkpt>
      <trkpt lat="42.051465" lon="2.732077">
        <ele>318.888</ele>
        <time>2021-02-02T11:44:28Z</time>
      </trkpt>
      <trkpt lat="42.051455" lon="2.732156">
        <ele>318.839</ele>
        <time>2021-02-02T11:44:30Z</time>
      </trkpt>
      <trkpt lat="42.051453" lon="2.732226">
        <ele>319.274</ele>
        <time>2021-02-02T11:44:32Z</time>
      </trkpt>
      <trkpt lat="42.051453" lon="2.732293">
        <ele>319.569</ele>
        <time>2021-02-02T11:44:33Z</time>
      </trkpt>
      <trkpt lat="42.051454" lon="2.732372">
        <ele>320.068</ele>
        <time>2021-02-02T11:44:35Z</time>
      </trkpt>
      <trkpt lat="42.051458" lon="2.732442">
        <ele>320.643</ele>
        <time>2021-02-02T11:44:37Z</time>
      </trkpt>
      <trkpt lat="42.051470" lon="2.732545">
        <ele>320.764</ele>
        <time>2021-02-02T11:44:39Z</time>
      </trkpt>
      <trkpt lat="42.051470" lon="2.732545">
        <ele>320.710</ele>
        <time>2021-02-02T11:44:39Z</time>
      </trkpt>
      <trkpt lat="42.051488" lon="2.732634">
        <ele>321.208</ele>
        <time>2021-02-02T11:44:41Z</time>
      </trkpt>
      <trkpt lat="42.051506" lon="2.732703">
        <ele>321.470</ele>
        <time>2021-02-02T11:44:43Z</time>
      </trkpt>
      <trkpt lat="42.051522" lon="2.732769">
        <ele>322.069</ele>
        <time>2021-02-02T11:44:44Z</time>
      </trkpt>
      <trkpt lat="42.051536" lon="2.732829">
        <ele>322.164</ele>
        <time>2021-02-02T11:44:46Z</time>
      </trkpt>
      <trkpt lat="42.051556" lon="2.732884">
        <ele>322.556</ele>
        <time>2021-02-02T11:44:47Z</time>
      </trkpt>
      <trkpt lat="42.051586" lon="2.732951">
        <ele>322.677</ele>
        <time>2021-02-02T11:44:49Z</time>
      </trkpt>
      <trkpt lat="42.051607" lon="2.733006">
        <ele>323.172</ele>
        <time>2021-02-02T11:44:50Z</time>
      </trkpt>
      <trkpt lat="42.051632" lon="2.733081">
        <ele>323.497</ele>
        <time>2021-02-02T11:44:52Z</time>
      </trkpt>
      <trkpt lat="42.051660" lon="2.733156">
        <ele>324.016</ele>
        <time>2021-02-02T11:44:54Z</time>
      </trkpt>
      <trkpt lat="42.051680" lon="2.733222">
        <ele>324.043</ele>
        <time>2021-02-02T11:44:56Z</time>
      </trkpt>
      <trkpt lat="42.051700" lon="2.733292">
        <ele>324.464</ele>
        <time>2021-02-02T11:44:58Z</time>
      </trkpt>
      <trkpt lat="42.051713" lon="2.733360">
        <ele>324.810</ele>
        <time>2021-02-02T11:45:00Z</time>
      </trkpt>
      <trkpt lat="42.051727" lon="2.733424">
        <ele>325.308</ele>
        <time>2021-02-02T11:45:02Z</time>
      </trkpt>
      <trkpt lat="42.051746" lon="2.733500">
        <ele>325.680</ele>
        <time>2021-02-02T11:45:04Z</time>
      </trkpt>
      <trkpt lat="42.051763" lon="2.733568">
        <ele>325.979</ele>
        <time>2021-02-02T11:45:06Z</time>
      </trkpt>
      <trkpt lat="42.051785" lon="2.733646">
        <ele>326.334</ele>
        <time>2021-02-02T11:45:08Z</time>
      </trkpt>
      <trkpt lat="42.051804" lon="2.733723">
        <ele>326.576</ele>
        <time>2021-02-02T11:45:11Z</time>
      </trkpt>
      <trkpt lat="42.051827" lon="2.733804">
        <ele>327.057</ele>
        <time>2021-02-02T11:45:13Z</time>
      </trkpt>
      <trkpt lat="42.051840" lon="2.733871">
        <ele>327.262</ele>
        <time>2021-02-02T11:45:15Z</time>
      </trkpt>
      <trkpt lat="42.051865" lon="2.733964">
        <ele>326.957</ele>
        <time>2021-02-02T11:45:17Z</time>
      </trkpt>
      <trkpt lat="42.051880" lon="2.734026">
        <ele>327.456</ele>
        <time>2021-02-02T11:45:19Z</time>
      </trkpt>
      <trkpt lat="42.051892" lon="2.734102">
        <ele>327.442</ele>
        <time>2021-02-02T11:45:20Z</time>
      </trkpt>
      <trkpt lat="42.051903" lon="2.734166">
        <ele>327.522</ele>
        <time>2021-02-02T11:45:22Z</time>
      </trkpt>
      <trkpt lat="42.051917" lon="2.734240">
        <ele>327.114</ele>
        <time>2021-02-02T11:45:23Z</time>
      </trkpt>
      <trkpt lat="42.051941" lon="2.734319">
        <ele>326.508</ele>
        <time>2021-02-02T11:45:25Z</time>
      </trkpt>
      <trkpt lat="42.051956" lon="2.734390">
        <ele>326.350</ele>
        <time>2021-02-02T11:45:26Z</time>
      </trkpt>
      <trkpt lat="42.051966" lon="2.734494">
        <ele>326.089</ele>
        <time>2021-02-02T11:45:27Z</time>
      </trkpt>
      <trkpt lat="42.051964" lon="2.734657">
        <ele>324.944</ele>
        <time>2021-02-02T11:45:29Z</time>
      </trkpt>
      <trkpt lat="42.051942" lon="2.734845">
        <ele>323.756</ele>
        <time>2021-02-02T11:45:31Z</time>
      </trkpt>
      <trkpt lat="42.051907" lon="2.735057">
        <ele>322.277</ele>
        <time>2021-02-02T11:45:33Z</time>
      </trkpt>
      <trkpt lat="42.051874" lon="2.735286">
        <ele>321.182</ele>
        <time>2021-02-02T11:45:35Z</time>
      </trkpt>
      <trkpt lat="42.051857" lon="2.735410">
        <ele>320.197</ele>
        <time>2021-02-02T11:45:36Z</time>
      </trkpt>
      <trkpt lat="42.051839" lon="2.735535">
        <ele>319.046</ele>
        <time>2021-02-02T11:45:37Z</time>
      </trkpt>
      <trkpt lat="42.051819" lon="2.735662">
        <ele>318.456</ele>
        <time>2021-02-02T11:45:38Z</time>
      </trkpt>
      <trkpt lat="42.051781" lon="2.735915">
        <ele>317.559</ele>
        <time>2021-02-02T11:45:40Z</time>
      </trkpt>
      <trkpt lat="42.051765" lon="2.736178">
        <ele>316.514</ele>
        <time>2021-02-02T11:45:42Z</time>
      </trkpt>
      <trkpt lat="42.051813" lon="2.736443">
        <ele>315.008</ele>
        <time>2021-02-02T11:45:44Z</time>
      </trkpt>
      <trkpt lat="42.051813" lon="2.736443">
        <ele>315.031</ele>
        <time>2021-02-02T11:45:44Z</time>
      </trkpt>
      <trkpt lat="42.051855" lon="2.736575">
        <ele>314.210</ele>
        <time>2021-02-02T11:45:45Z</time>
      </trkpt>
      <trkpt lat="42.051933" lon="2.736849">
        <ele>312.495</ele>
        <time>2021-02-02T11:45:47Z</time>
      </trkpt>
      <trkpt lat="42.051962" lon="2.736993">
        <ele>311.787</ele>
        <time>2021-02-02T11:45:48Z</time>
      </trkpt>
      <trkpt lat="42.051984" lon="2.737138">
        <ele>310.988</ele>
        <time>2021-02-02T11:45:49Z</time>
      </trkpt>
      <trkpt lat="42.052001" lon="2.737397">
        <ele>309.043</ele>
        <time>2021-02-02T11:45:51Z</time>
      </trkpt>
      <trkpt lat="42.052001" lon="2.737608">
        <ele>307.998</ele>
        <time>2021-02-02T11:45:53Z</time>
      </trkpt>
      <trkpt lat="42.052001" lon="2.737695">
        <ele>307.037</ele>
        <time>2021-02-02T11:45:54Z</time>
      </trkpt>
      <trkpt lat="42.052005" lon="2.737863">
        <ele>305.857</ele>
        <time>2021-02-02T11:45:56Z</time>
      </trkpt>
      <trkpt lat="42.052006" lon="2.738014">
        <ele>305.200</ele>
        <time>2021-02-02T11:45:58Z</time>
      </trkpt>
      <trkpt lat="42.052003" lon="2.738087">
        <ele>304.820</ele>
        <time>2021-02-02T11:45:59Z</time>
      </trkpt>
      <trkpt lat="42.052001" lon="2.738226">
        <ele>304.608</ele>
        <time>2021-02-02T11:46:01Z</time>
      </trkpt>
      <trkpt lat="42.051988" lon="2.738321">
        <ele>304.671</ele>
        <time>2021-02-02T11:46:03Z</time>
      </trkpt>
      <trkpt lat="42.051926" lon="2.738375">
        <ele>304.570</ele>
        <time>2021-02-02T11:46:05Z</time>
      </trkpt>
      <trkpt lat="42.051926" lon="2.738375">
        <ele>304.545</ele>
        <time>2021-02-02T11:46:05Z</time>
      </trkpt>
      <trkpt lat="42.051838" lon="2.738429">
        <ele>303.047</ele>
        <time>2021-02-02T11:46:07Z</time>
      </trkpt>
      <trkpt lat="42.051765" lon="2.738475">
        <ele>305.478</ele>
        <time>2021-02-02T11:46:09Z</time>
      </trkpt>
      <trkpt lat="42.051726" lon="2.738523">
        <ele>304.263</ele>
        <time>2021-02-02T11:46:11Z</time>
      </trkpt>
      <trkpt lat="42.051687" lon="2.738574">
        <ele>304.438</ele>
        <time>2021-02-02T11:46:12Z</time>
      </trkpt>
      <trkpt lat="42.051621" lon="2.738625">
        <ele>304.397</ele>
        <time>2021-02-02T11:46:13Z</time>
      </trkpt>
      <trkpt lat="42.051590" lon="2.738679">
        <ele>304.427</ele>
        <time>2021-02-02T11:46:14Z</time>
      </trkpt>
      <trkpt lat="42.051567" lon="2.738812">
        <ele>304.368</ele>
        <time>2021-02-02T11:46:16Z</time>
      </trkpt>
      <trkpt lat="42.051605" lon="2.738953">
        <ele>304.114</ele>
        <time>2021-02-02T11:46:18Z</time>
      </trkpt>
      <trkpt lat="42.051638" lon="2.739015">
        <ele>304.108</ele>
        <time>2021-02-02T11:46:19Z</time>
      </trkpt>
      <trkpt lat="42.051672" lon="2.739074">
        <ele>303.868</ele>
        <time>2021-02-02T11:46:20Z</time>
      </trkpt>
      <trkpt lat="42.051695" lon="2.739141">
        <ele>303.687</ele>
        <time>2021-02-02T11:46:21Z</time>
      </trkpt>
      <trkpt lat="42.051709" lon="2.739215">
        <ele>303.542</ele>
        <time>2021-02-02T11:46:22Z</time>
      </trkpt>
      <trkpt lat="42.051706" lon="2.739366">
        <ele>303.424</ele>
        <time>2021-02-02T11:46:24Z</time>
      </trkpt>
      <trkpt lat="42.051661" lon="2.739505">
        <ele>302.935</ele>
        <time>2021-02-02T11:46:26Z</time>
      </trkpt>
      <trkpt lat="42.051624" lon="2.739567">
        <ele>302.990</ele>
        <time>2021-02-02T11:46:27Z</time>
      </trkpt>
      <trkpt lat="42.051577" lon="2.739621">
        <ele>302.475</ele>
        <time>2021-02-02T11:46:28Z</time>
      </trkpt>
      <trkpt lat="42.051524" lon="2.739677">
        <ele>302.194</ele>
        <time>2021-02-02T11:46:29Z</time>
      </trkpt>
      <trkpt lat="42.051420" lon="2.739801">
        <ele>301.199</ele>
        <time>2021-02-02T11:46:31Z</time>
      </trkpt>
      <trkpt lat="42.051365" lon="2.739871">
        <ele>300.807</ele>
        <time>2021-02-02T11:46:32Z</time>
      </trkpt>
      <trkpt lat="42.051312" lon="2.739947">
        <ele>300.327</ele>
        <time>2021-02-02T11:46:33Z</time>
      </trkpt>
      <trkpt lat="42.051232" lon="2.740124">
        <ele>299.608</ele>
        <time>2021-02-02T11:46:35Z</time>
      </trkpt>
      <trkpt lat="42.051202" lon="2.740224">
        <ele>299.185</ele>
        <time>2021-02-02T11:46:36Z</time>
      </trkpt>
      <trkpt lat="42.051176" lon="2.740326">
        <ele>298.854</ele>
        <time>2021-02-02T11:46:37Z</time>
      </trkpt>
      <trkpt lat="42.051121" lon="2.740520">
        <ele>298.619</ele>
        <time>2021-02-02T11:46:39Z</time>
      </trkpt>
      <trkpt lat="42.051093" lon="2.740618">
        <ele>298.571</ele>
        <time>2021-02-02T11:46:40Z</time>
      </trkpt>
      <trkpt lat="42.051068" lon="2.740716">
        <ele>298.832</ele>
        <time>2021-02-02T11:46:41Z</time>
      </trkpt>
      <trkpt lat="42.051024" lon="2.740889">
        <ele>299.317</ele>
        <time>2021-02-02T11:46:43Z</time>
      </trkpt>
      <trkpt lat="42.050997" lon="2.740980">
        <ele>299.472</ele>
        <time>2021-02-02T11:46:44Z</time>
      </trkpt>
      <trkpt lat="42.050944" lon="2.741149">
        <ele>299.661</ele>
        <time>2021-02-02T11:46:46Z</time>
      </trkpt>
      <trkpt lat="42.050919" lon="2.741232">
        <ele>299.432</ele>
        <time>2021-02-02T11:46:47Z</time>
      </trkpt>
      <trkpt lat="42.050869" lon="2.741399">
        <ele>299.592</ele>
        <time>2021-02-02T11:46:49Z</time>
      </trkpt>
      <trkpt lat="42.050846" lon="2.741477">
        <ele>299.411</ele>
        <time>2021-02-02T11:46:50Z</time>
      </trkpt>
      <trkpt lat="42.050824" lon="2.741553">
        <ele>299.508</ele>
        <time>2021-02-02T11:46:51Z</time>
      </trkpt>
      <trkpt lat="42.050778" lon="2.741727">
        <ele>298.829</ele>
        <time>2021-02-02T11:46:53Z</time>
      </trkpt>
      <trkpt lat="42.050758" lon="2.741820">
        <ele>298.528</ele>
        <time>2021-02-02T11:46:54Z</time>
      </trkpt>
      <trkpt lat="42.050742" lon="2.741921">
        <ele>298.393</ele>
        <time>2021-02-02T11:46:55Z</time>
      </trkpt>
      <trkpt lat="42.050708" lon="2.742128">
        <ele>297.435</ele>
        <time>2021-02-02T11:46:57Z</time>
      </trkpt>
      <trkpt lat="42.050685" lon="2.742347">
        <ele>296.156</ele>
        <time>2021-02-02T11:46:59Z</time>
      </trkpt>
      <trkpt lat="42.050668" lon="2.742580">
        <ele>294.771</ele>
        <time>2021-02-02T11:47:01Z</time>
      </trkpt>
      <trkpt lat="42.050652" lon="2.742700">
        <ele>294.046</ele>
        <time>2021-02-02T11:47:02Z</time>
      </trkpt>
      <trkpt lat="42.050593" lon="2.742938">
        <ele>292.525</ele>
        <time>2021-02-02T11:47:04Z</time>
      </trkpt>
      <trkpt lat="42.050593" lon="2.742938">
        <ele>292.577</ele>
        <time>2021-02-02T11:47:04Z</time>
      </trkpt>
      <trkpt lat="42.050511" lon="2.743175">
        <ele>290.961</ele>
        <time>2021-02-02T11:47:06Z</time>
      </trkpt>
      <trkpt lat="42.050444" lon="2.743278">
        <ele>290.527</ele>
        <time>2021-02-02T11:47:07Z</time>
      </trkpt>
      <trkpt lat="42.050363" lon="2.743364">
        <ele>289.608</ele>
        <time>2021-02-02T11:47:08Z</time>
      </trkpt>
      <trkpt lat="42.050169" lon="2.743501">
        <ele>287.633</ele>
        <time>2021-02-02T11:47:10Z</time>
      </trkpt>
      <trkpt lat="42.049964" lon="2.743656">
        <ele>284.552</ele>
        <time>2021-02-02T11:47:12Z</time>
      </trkpt>
      <trkpt lat="42.049744" lon="2.743816">
        <ele>281.717</ele>
        <time>2021-02-02T11:47:14Z</time>
      </trkpt>
      <trkpt lat="42.049509" lon="2.743962">
        <ele>279.449</ele>
        <time>2021-02-02T11:47:16Z</time>
      </trkpt>
      <trkpt lat="42.049282" lon="2.744128">
        <ele>277.660</ele>
        <time>2021-02-02T11:47:18Z</time>
      </trkpt>
      <trkpt lat="42.049084" lon="2.744321">
        <ele>275.855</ele>
        <time>2021-02-02T11:47:20Z</time>
      </trkpt>
      <trkpt lat="42.049084" lon="2.744321">
        <ele>275.810</ele>
        <time>2021-02-02T11:47:20Z</time>
      </trkpt>
      <trkpt lat="42.048908" lon="2.744539">
        <ele>275.059</ele>
        <time>2021-02-02T11:47:22Z</time>
      </trkpt>
      <trkpt lat="42.048752" lon="2.744749">
        <ele>273.714</ele>
        <time>2021-02-02T11:47:24Z</time>
      </trkpt>
      <trkpt lat="42.048752" lon="2.744749">
        <ele>273.754</ele>
        <time>2021-02-02T11:47:24Z</time>
      </trkpt>
      <trkpt lat="42.048592" lon="2.744955">
        <ele>272.809</ele>
        <time>2021-02-02T11:47:26Z</time>
      </trkpt>
      <trkpt lat="42.048443" lon="2.745148">
        <ele>272.308</ele>
        <time>2021-02-02T11:47:28Z</time>
      </trkpt>
      <trkpt lat="42.048291" lon="2.745332">
        <ele>271.577</ele>
        <time>2021-02-02T11:47:30Z</time>
      </trkpt>
      <trkpt lat="42.048135" lon="2.745512">
        <ele>271.386</ele>
        <time>2021-02-02T11:47:32Z</time>
      </trkpt>
      <trkpt lat="42.047978" lon="2.745675">
        <ele>270.011</ele>
        <time>2021-02-02T11:47:34Z</time>
      </trkpt>
      <trkpt lat="42.047820" lon="2.745834">
        <ele>269.033</ele>
        <time>2021-02-02T11:47:36Z</time>
      </trkpt>
      <trkpt lat="42.047742" lon="2.745916">
        <ele>268.424</ele>
        <time>2021-02-02T11:47:37Z</time>
      </trkpt>
      <trkpt lat="42.047664" lon="2.745999">
        <ele>267.319</ele>
        <time>2021-02-02T11:47:38Z</time>
      </trkpt>
      <trkpt lat="42.047510" lon="2.746160">
        <ele>266.244</ele>
        <time>2021-02-02T11:47:40Z</time>
      </trkpt>
      <trkpt lat="42.047364" lon="2.746330">
        <ele>266.033</ele>
        <time>2021-02-02T11:47:42Z</time>
      </trkpt>
      <trkpt lat="42.047233" lon="2.746515">
        <ele>264.954</ele>
        <time>2021-02-02T11:47:44Z</time>
      </trkpt>
      <trkpt lat="42.047107" lon="2.746684">
        <ele>263.856</ele>
        <time>2021-02-02T11:47:46Z</time>
      </trkpt>
      <trkpt lat="42.047050" lon="2.746758">
        <ele>263.311</ele>
        <time>2021-02-02T11:47:47Z</time>
      </trkpt>
      <trkpt lat="42.046954" lon="2.746881">
        <ele>262.708</ele>
        <time>2021-02-02T11:47:49Z</time>
      </trkpt>
      <trkpt lat="42.046863" lon="2.746998">
        <ele>262.031</ele>
        <time>2021-02-02T11:47:51Z</time>
      </trkpt>
      <trkpt lat="42.046770" lon="2.747121">
        <ele>261.060</ele>
        <time>2021-02-02T11:47:53Z</time>
      </trkpt>
      <trkpt lat="42.046730" lon="2.747201">
        <ele>260.885</ele>
        <time>2021-02-02T11:47:54Z</time>
      </trkpt>
      <trkpt lat="42.046671" lon="2.747383">
        <ele>260.217</ele>
        <time>2021-02-02T11:47:56Z</time>
      </trkpt>
      <trkpt lat="42.046619" lon="2.747572">
        <ele>259.898</ele>
        <time>2021-02-02T11:47:58Z</time>
      </trkpt>
      <trkpt lat="42.046619" lon="2.747572">
        <ele>259.893</ele>
        <time>2021-02-02T11:47:58Z</time>
      </trkpt>
      <trkpt lat="42.046578" lon="2.747652">
        <ele>259.438</ele>
        <time>2021-02-02T11:47:59Z</time>
      </trkpt>
      <trkpt lat="42.046485" lon="2.747789">
        <ele>259.877</ele>
        <time>2021-02-02T11:48:01Z</time>
      </trkpt>
      <trkpt lat="42.046377" lon="2.747914">
        <ele>258.985</ele>
        <time>2021-02-02T11:48:03Z</time>
      </trkpt>
      <trkpt lat="42.046320" lon="2.747976">
        <ele>258.389</ele>
        <time>2021-02-02T11:48:04Z</time>
      </trkpt>
      <trkpt lat="42.046203" lon="2.748104">
        <ele>258.417</ele>
        <time>2021-02-02T11:48:06Z</time>
      </trkpt>
      <trkpt lat="42.046144" lon="2.748169">
        <ele>258.508</ele>
        <time>2021-02-02T11:48:07Z</time>
      </trkpt>
      <trkpt lat="42.046027" lon="2.748288">
        <ele>257.834</ele>
        <time>2021-02-02T11:48:09Z</time>
      </trkpt>
      <trkpt lat="42.045909" lon="2.748405">
        <ele>257.493</ele>
        <time>2021-02-02T11:48:11Z</time>
      </trkpt>
      <trkpt lat="42.045787" lon="2.748521">
        <ele>256.918</ele>
        <time>2021-02-02T11:48:13Z</time>
      </trkpt>
      <trkpt lat="42.045726" lon="2.748572">
        <ele>256.630</ele>
        <time>2021-02-02T11:48:14Z</time>
      </trkpt>
      <trkpt lat="42.045605" lon="2.748674">
        <ele>256.151</ele>
        <time>2021-02-02T11:48:16Z</time>
      </trkpt>
      <trkpt lat="42.045538" lon="2.748722">
        <ele>255.596</ele>
        <time>2021-02-02T11:48:17Z</time>
      </trkpt>
      <trkpt lat="42.045396" lon="2.748821">
        <ele>254.461</ele>
        <time>2021-02-02T11:48:19Z</time>
      </trkpt>
      <trkpt lat="42.045316" lon="2.748875">
        <ele>253.540</ele>
        <time>2021-02-02T11:48:20Z</time>
      </trkpt>
      <trkpt lat="42.045148" lon="2.748995">
        <ele>251.919</ele>
        <time>2021-02-02T11:48:22Z</time>
      </trkpt>
      <trkpt lat="42.045061" lon="2.749069">
        <ele>250.609</ele>
        <time>2021-02-02T11:48:23Z</time>
      </trkpt>
      <trkpt lat="42.044891" lon="2.749238">
        <ele>248.619</ele>
        <time>2021-02-02T11:48:25Z</time>
      </trkpt>
      <trkpt lat="42.044715" lon="2.749423">
        <ele>245.908</ele>
        <time>2021-02-02T11:48:27Z</time>
      </trkpt>
      <trkpt lat="42.044625" lon="2.749520">
        <ele>245.157</ele>
        <time>2021-02-02T11:48:28Z</time>
      </trkpt>
      <trkpt lat="42.044448" lon="2.749718">
        <ele>242.846</ele>
        <time>2021-02-02T11:48:30Z</time>
      </trkpt>
      <trkpt lat="42.044279" lon="2.749914">
        <ele>240.291</ele>
        <time>2021-02-02T11:48:32Z</time>
      </trkpt>
      <trkpt lat="42.044200" lon="2.750011">
        <ele>239.753</ele>
        <time>2021-02-02T11:48:33Z</time>
      </trkpt>
      <trkpt lat="42.044051" lon="2.750203">
        <ele>237.774</ele>
        <time>2021-02-02T11:48:35Z</time>
      </trkpt>
      <trkpt lat="42.043896" lon="2.750412">
        <ele>235.789</ele>
        <time>2021-02-02T11:48:37Z</time>
      </trkpt>
      <trkpt lat="42.043759" lon="2.750648">
        <ele>233.984</ele>
        <time>2021-02-02T11:48:39Z</time>
      </trkpt>
      <trkpt lat="42.043759" lon="2.750648">
        <ele>233.963</ele>
        <time>2021-02-02T11:48:39Z</time>
      </trkpt>
      <trkpt lat="42.043704" lon="2.750771">
        <ele>233.325</ele>
        <time>2021-02-02T11:48:40Z</time>
      </trkpt>
      <trkpt lat="42.043620" lon="2.750987">
        <ele>232.026</ele>
        <time>2021-02-02T11:48:42Z</time>
      </trkpt>
      <trkpt lat="42.043582" lon="2.751078">
        <ele>231.608</ele>
        <time>2021-02-02T11:48:43Z</time>
      </trkpt>
      <trkpt lat="42.043493" lon="2.751238">
        <ele>230.508</ele>
        <time>2021-02-02T11:48:45Z</time>
      </trkpt>
      <trkpt lat="42.043426" lon="2.751288">
        <ele>229.788</ele>
        <time>2021-02-02T11:48:46Z</time>
      </trkpt>
      <trkpt lat="42.043260" lon="2.751348">
        <ele>228.167</ele>
        <time>2021-02-02T11:48:48Z</time>
      </trkpt>
      <trkpt lat="42.043075" lon="2.751336">
        <ele>226.352</ele>
        <time>2021-02-02T11:48:50Z</time>
      </trkpt>
      <trkpt lat="42.042869" lon="2.751264">
        <ele>224.654</ele>
        <time>2021-02-02T11:48:52Z</time>
      </trkpt>
      <trkpt lat="42.042766" lon="2.751215">
        <ele>223.775</ele>
        <time>2021-02-02T11:48:53Z</time>
      </trkpt>
      <trkpt lat="42.042658" lon="2.751166">
        <ele>223.380</ele>
        <time>2021-02-02T11:48:54Z</time>
      </trkpt>
      <trkpt lat="42.042658" lon="2.751166">
        <ele>223.355</ele>
        <time>2021-02-02T11:48:54Z</time>
      </trkpt>
      <trkpt lat="42.042445" lon="2.751070">
        <ele>221.514</ele>
        <time>2021-02-02T11:48:56Z</time>
      </trkpt>
      <trkpt lat="42.042238" lon="2.751001">
        <ele>220.149</ele>
        <time>2021-02-02T11:48:58Z</time>
      </trkpt>
      <trkpt lat="42.042131" lon="2.751005">
        <ele>219.102</ele>
        <time>2021-02-02T11:48:59Z</time>
      </trkpt>
      <trkpt lat="42.041930" lon="2.751060">
        <ele>217.522</ele>
        <time>2021-02-02T11:49:01Z</time>
      </trkpt>
      <trkpt lat="42.041733" lon="2.751147">
        <ele>217.108</ele>
        <time>2021-02-02T11:49:03Z</time>
      </trkpt>
      <trkpt lat="42.041545" lon="2.751245">
        <ele>216.210</ele>
        <time>2021-02-02T11:49:05Z</time>
      </trkpt>
      <trkpt lat="42.041455" lon="2.751298">
        <ele>215.839</ele>
        <time>2021-02-02T11:49:06Z</time>
      </trkpt>
      <trkpt lat="42.041288" lon="2.751408">
        <ele>215.424</ele>
        <time>2021-02-02T11:49:08Z</time>
      </trkpt>
      <trkpt lat="42.041125" lon="2.751504">
        <ele>215.036</ele>
        <time>2021-02-02T11:49:10Z</time>
      </trkpt>
      <trkpt lat="42.041044" lon="2.751544">
        <ele>214.627</ele>
        <time>2021-02-02T11:49:11Z</time>
      </trkpt>
      <trkpt lat="42.040965" lon="2.751583">
        <ele>214.232</ele>
        <time>2021-02-02T11:49:12Z</time>
      </trkpt>
      <trkpt lat="42.040886" lon="2.751623">
        <ele>214.067</ele>
        <time>2021-02-02T11:49:13Z</time>
      </trkpt>
      <trkpt lat="42.040737" lon="2.751696">
        <ele>213.576</ele>
        <time>2021-02-02T11:49:15Z</time>
      </trkpt>
      <trkpt lat="42.040588" lon="2.751770">
        <ele>213.512</ele>
        <time>2021-02-02T11:49:17Z</time>
      </trkpt>
      <trkpt lat="42.040513" lon="2.751806">
        <ele>213.332</ele>
        <time>2021-02-02T11:49:18Z</time>
      </trkpt>
      <trkpt lat="42.040362" lon="2.751871">
        <ele>212.705</ele>
        <time>2021-02-02T11:49:20Z</time>
      </trkpt>
      <trkpt lat="42.040287" lon="2.751904">
        <ele>212.308</ele>
        <time>2021-02-02T11:49:21Z</time>
      </trkpt>
      <trkpt lat="42.040137" lon="2.751973">
        <ele>211.957</ele>
        <time>2021-02-02T11:49:23Z</time>
      </trkpt>
      <trkpt lat="42.039990" lon="2.752043">
        <ele>211.376</ele>
        <time>2021-02-02T11:49:25Z</time>
      </trkpt>
      <trkpt lat="42.039915" lon="2.752079">
        <ele>211.151</ele>
        <time>2021-02-02T11:49:26Z</time>
      </trkpt>
      <trkpt lat="42.039765" lon="2.752165">
        <ele>210.643</ele>
        <time>2021-02-02T11:49:28Z</time>
      </trkpt>
      <trkpt lat="42.039686" lon="2.752213">
        <ele>210.184</ele>
        <time>2021-02-02T11:49:29Z</time>
      </trkpt>
      <trkpt lat="42.039532" lon="2.752308">
        <ele>208.969</ele>
        <time>2021-02-02T11:49:31Z</time>
      </trkpt>
      <trkpt lat="42.039453" lon="2.752357">
        <ele>208.874</ele>
        <time>2021-02-02T11:49:32Z</time>
      </trkpt>
      <trkpt lat="42.039296" lon="2.752464">
        <ele>207.443</ele>
        <time>2021-02-02T11:49:34Z</time>
      </trkpt>
      <trkpt lat="42.039139" lon="2.752575">
        <ele>206.855</ele>
        <time>2021-02-02T11:49:36Z</time>
      </trkpt>
      <trkpt lat="42.038985" lon="2.752678">
        <ele>206.207</ele>
        <time>2021-02-02T11:49:38Z</time>
      </trkpt>
      <trkpt lat="42.038826" lon="2.752771">
        <ele>205.317</ele>
        <time>2021-02-02T11:49:40Z</time>
      </trkpt>
      <trkpt lat="42.038826" lon="2.752771">
        <ele>205.308</ele>
        <time>2021-02-02T11:49:40Z</time>
      </trkpt>
      <trkpt lat="42.038664" lon="2.752851">
        <ele>204.511</ele>
        <time>2021-02-02T11:49:42Z</time>
      </trkpt>
      <trkpt lat="42.038577" lon="2.752894">
        <ele>204.250</ele>
        <time>2021-02-02T11:49:43Z</time>
      </trkpt>
      <trkpt lat="42.038488" lon="2.752939">
        <ele>202.835</ele>
        <time>2021-02-02T11:49:44Z</time>
      </trkpt>
      <trkpt lat="42.038318" lon="2.753054">
        <ele>201.667</ele>
        <time>2021-02-02T11:49:46Z</time>
      </trkpt>
      <trkpt lat="42.038230" lon="2.753130">
        <ele>200.878</ele>
        <time>2021-02-02T11:49:47Z</time>
      </trkpt>
      <trkpt lat="42.038049" lon="2.753285">
        <ele>199.183</ele>
        <time>2021-02-02T11:49:49Z</time>
      </trkpt>
      <trkpt lat="42.037875" lon="2.753421">
        <ele>197.578</ele>
        <time>2021-02-02T11:49:51Z</time>
      </trkpt>
      <trkpt lat="42.037875" lon="2.753421">
        <ele>197.587</ele>
        <time>2021-02-02T11:49:51Z</time>
      </trkpt>
      <trkpt lat="42.037797" lon="2.753493">
        <ele>196.989</ele>
        <time>2021-02-02T11:49:52Z</time>
      </trkpt>
      <trkpt lat="42.037678" lon="2.753675">
        <ele>195.106</ele>
        <time>2021-02-02T11:49:54Z</time>
      </trkpt>
      <trkpt lat="42.037599" lon="2.753922">
        <ele>193.926</ele>
        <time>2021-02-02T11:49:56Z</time>
      </trkpt>
      <trkpt lat="42.037559" lon="2.754055">
        <ele>193.208</ele>
        <time>2021-02-02T11:49:57Z</time>
      </trkpt>
      <trkpt lat="42.037469" lon="2.754317">
        <ele>191.344</ele>
        <time>2021-02-02T11:49:59Z</time>
      </trkpt>
      <trkpt lat="42.037369" lon="2.754585">
        <ele>189.493</ele>
        <time>2021-02-02T11:50:01Z</time>
      </trkpt>
      <trkpt lat="42.037264" lon="2.754856">
        <ele>187.748</ele>
        <time>2021-02-02T11:50:03Z</time>
      </trkpt>
      <trkpt lat="42.037212" lon="2.754992">
        <ele>186.580</ele>
        <time>2021-02-02T11:50:04Z</time>
      </trkpt>
      <trkpt lat="42.037104" lon="2.755264">
        <ele>184.731</ele>
        <time>2021-02-02T11:50:06Z</time>
      </trkpt>
      <trkpt lat="42.036992" lon="2.755545">
        <ele>182.786</ele>
        <time>2021-02-02T11:50:08Z</time>
      </trkpt>
      <trkpt lat="42.036935" lon="2.755688">
        <ele>182.161</ele>
        <time>2021-02-02T11:50:09Z</time>
      </trkpt>
      <trkpt lat="42.036878" lon="2.755831">
        <ele>180.890</ele>
        <time>2021-02-02T11:50:10Z</time>
      </trkpt>
      <trkpt lat="42.036766" lon="2.756118">
        <ele>178.964</ele>
        <time>2021-02-02T11:50:12Z</time>
      </trkpt>
      <trkpt lat="42.036714" lon="2.756267">
        <ele>177.306</ele>
        <time>2021-02-02T11:50:13Z</time>
      </trkpt>
      <trkpt lat="42.036626" lon="2.756584">
        <ele>175.416</ele>
        <time>2021-02-02T11:50:15Z</time>
      </trkpt>
      <trkpt lat="42.036590" lon="2.756747">
        <ele>174.408</ele>
        <time>2021-02-02T11:50:16Z</time>
      </trkpt>
      <trkpt lat="42.036533" lon="2.757068">
        <ele>172.452</ele>
        <time>2021-02-02T11:50:18Z</time>
      </trkpt>
      <trkpt lat="42.036519" lon="2.757212">
        <ele>172.361</ele>
        <time>2021-02-02T11:50:19Z</time>
      </trkpt>
      <trkpt lat="42.036551" lon="2.757472">
        <ele>172.646</ele>
        <time>2021-02-02T11:50:21Z</time>
      </trkpt>
      <trkpt lat="42.036602" lon="2.757574">
        <ele>172.798</ele>
        <time>2021-02-02T11:50:22Z</time>
      </trkpt>
      <trkpt lat="42.036664" lon="2.757660">
        <ele>172.899</ele>
        <time>2021-02-02T11:50:23Z</time>
      </trkpt>
      <trkpt lat="42.036731" lon="2.757737">
        <ele>172.864</ele>
        <time>2021-02-02T11:50:24Z</time>
      </trkpt>
      <trkpt lat="42.036872" lon="2.757834">
        <ele>173.429</ele>
        <time>2021-02-02T11:50:26Z</time>
      </trkpt>
      <trkpt lat="42.036946" lon="2.757861">
        <ele>173.548</ele>
        <time>2021-02-02T11:50:27Z</time>
      </trkpt>
      <trkpt lat="42.037020" lon="2.757877">
        <ele>173.388</ele>
        <time>2021-02-02T11:50:28Z</time>
      </trkpt>
      <trkpt lat="42.037092" lon="2.757891">
        <ele>173.424</ele>
        <time>2021-02-02T11:50:29Z</time>
      </trkpt>
      <trkpt lat="42.037219" lon="2.757949">
        <ele>173.426</ele>
        <time>2021-02-02T11:50:31Z</time>
      </trkpt>
      <trkpt lat="42.037219" lon="2.757949">
        <ele>173.408</ele>
        <time>2021-02-02T11:50:31Z</time>
      </trkpt>
      <trkpt lat="42.037275" lon="2.758091">
        <ele>173.524</ele>
        <time>2021-02-02T11:50:33Z</time>
      </trkpt>
      <trkpt lat="42.037304" lon="2.758226">
        <ele>174.043</ele>
        <time>2021-02-02T11:50:35Z</time>
      </trkpt>
      <trkpt lat="42.037242" lon="2.758330">
        <ele>174.758</ele>
        <time>2021-02-02T11:50:37Z</time>
      </trkpt>
      <trkpt lat="42.037160" lon="2.758370">
        <ele>175.080</ele>
        <time>2021-02-02T11:50:39Z</time>
      </trkpt>
      <trkpt lat="42.037086" lon="2.758404">
        <ele>175.691</ele>
        <time>2021-02-02T11:50:41Z</time>
      </trkpt>
      <trkpt lat="42.037029" lon="2.758437">
        <ele>176.146</ele>
        <time>2021-02-02T11:50:43Z</time>
      </trkpt>
      <trkpt lat="42.036973" lon="2.758472">
        <ele>176.431</ele>
        <time>2021-02-02T11:50:44Z</time>
      </trkpt>
      <trkpt lat="42.036928" lon="2.758473">
        <ele>176.720</ele>
        <time>2021-02-02T11:50:47Z</time>
      </trkpt>
      <trkpt lat="42.036874" lon="2.758516">
        <ele>176.869</ele>
        <time>2021-02-02T11:50:49Z</time>
      </trkpt>
      <trkpt lat="42.036826" lon="2.758548">
        <ele>177.504</ele>
        <time>2021-02-02T11:50:51Z</time>
      </trkpt>
      <trkpt lat="42.036770" lon="2.758591">
        <ele>177.524</ele>
        <time>2021-02-02T11:50:54Z</time>
      </trkpt>
      <trkpt lat="42.036728" lon="2.758618">
        <ele>177.908</ele>
        <time>2021-02-02T11:50:56Z</time>
      </trkpt>
      <trkpt lat="42.036681" lon="2.758643">
        <ele>178.362</ele>
        <time>2021-02-02T11:50:58Z</time>
      </trkpt>
      <trkpt lat="42.036637" lon="2.758670">
        <ele>178.881</ele>
        <time>2021-02-02T11:51:00Z</time>
      </trkpt>
      <trkpt lat="42.036594" lon="2.758695">
        <ele>179.096</ele>
        <time>2021-02-02T11:51:01Z</time>
      </trkpt>
      <trkpt lat="42.036545" lon="2.758739">
        <ele>179.338</ele>
        <time>2021-02-02T11:51:04Z</time>
      </trkpt>
      <trkpt lat="42.036492" lon="2.758765">
        <ele>179.399</ele>
        <time>2021-02-02T11:51:06Z</time>
      </trkpt>
      <trkpt lat="42.036443" lon="2.758798">
        <ele>180.054</ele>
        <time>2021-02-02T11:51:09Z</time>
      </trkpt>
      <trkpt lat="42.036401" lon="2.758843">
        <ele>180.269</ele>
        <time>2021-02-02T11:51:11Z</time>
      </trkpt>
      <trkpt lat="42.036360" lon="2.758885">
        <ele>181.178</ele>
        <time>2021-02-02T11:51:14Z</time>
      </trkpt>
      <trkpt lat="42.036326" lon="2.758942">
        <ele>181.362</ele>
        <time>2021-02-02T11:51:16Z</time>
      </trkpt>
      <trkpt lat="42.036293" lon="2.759005">
        <ele>181.683</ele>
        <time>2021-02-02T11:51:19Z</time>
      </trkpt>
      <trkpt lat="42.036258" lon="2.759067">
        <ele>182.111</ele>
        <time>2021-02-02T11:51:21Z</time>
      </trkpt>
      <trkpt lat="42.036231" lon="2.759117">
        <ele>182.508</ele>
        <time>2021-02-02T11:51:23Z</time>
      </trkpt>
      <trkpt lat="42.036194" lon="2.759184">
        <ele>183.042</ele>
        <time>2021-02-02T11:51:26Z</time>
      </trkpt>
      <trkpt lat="42.036166" lon="2.759234">
        <ele>183.371</ele>
        <time>2021-02-02T11:51:28Z</time>
      </trkpt>
      <trkpt lat="42.036141" lon="2.759308">
        <ele>183.866</ele>
        <time>2021-02-02T11:51:31Z</time>
      </trkpt>
      <trkpt lat="42.036095" lon="2.759362">
        <ele>183.478</ele>
        <time>2021-02-02T11:51:34Z</time>
      </trkpt>
      <trkpt lat="42.036151" lon="2.759343">
        <ele>184.029</ele>
        <time>2021-02-02T11:51:50Z</time>
      </trkpt>
      <trkpt lat="42.036202" lon="2.759320">
        <ele>184.354</ele>
        <time>2021-02-02T11:51:53Z</time>
      </trkpt>
      <trkpt lat="42.036225" lon="2.759263">
        <ele>184.399</ele>
        <time>2021-02-02T11:52:00Z</time>
      </trkpt>
      <trkpt lat="42.036184" lon="2.759311">
        <ele>185.098</ele>
        <time>2021-02-02T11:53:22Z</time>
      </trkpt>
      <trkpt lat="42.036139" lon="2.759347">
        <ele>185.413</ele>
        <time>2021-02-02T11:53:24Z</time>
      </trkpt>
      <trkpt lat="42.036096" lon="2.759416">
        <ele>185.643</ele>
        <time>2021-02-02T11:53:26Z</time>
      </trkpt>
      <trkpt lat="42.036064" lon="2.759459">
        <ele>185.807</ele>
        <time>2021-02-02T11:53:27Z</time>
      </trkpt>
      <trkpt lat="42.036029" lon="2.759498">
        <ele>186.308</ele>
        <time>2021-02-02T11:53:28Z</time>
      </trkpt>
      <trkpt lat="42.036002" lon="2.759555">
        <ele>186.757</ele>
        <time>2021-02-02T11:53:30Z</time>
      </trkpt>
      <trkpt lat="42.035973" lon="2.759618">
        <ele>187.036</ele>
        <time>2021-02-02T11:53:32Z</time>
      </trkpt>
      <trkpt lat="42.035927" lon="2.759681">
        <ele>187.361</ele>
        <time>2021-02-02T11:53:35Z</time>
      </trkpt>
      <trkpt lat="42.035894" lon="2.759740">
        <ele>187.693</ele>
        <time>2021-02-02T11:53:37Z</time>
      </trkpt>
      <trkpt lat="42.035859" lon="2.759801">
        <ele>187.734</ele>
        <time>2021-02-02T11:53:39Z</time>
      </trkpt>
      <trkpt lat="42.035802" lon="2.759854">
        <ele>188.299</ele>
        <time>2021-02-02T11:53:42Z</time>
      </trkpt>
      <trkpt lat="42.035758" lon="2.759906">
        <ele>187.894</ele>
        <time>2021-02-02T11:53:44Z</time>
      </trkpt>
      <trkpt lat="42.035710" lon="2.759961">
        <ele>188.353</ele>
        <time>2021-02-02T11:53:46Z</time>
      </trkpt>
      <trkpt lat="42.035661" lon="2.760017">
        <ele>188.491</ele>
        <time>2021-02-02T11:53:48Z</time>
      </trkpt>
      <trkpt lat="42.035661" lon="2.760017">
        <ele>188.481</ele>
        <time>2021-02-02T11:53:48Z</time>
      </trkpt>
      <trkpt lat="42.035613" lon="2.760079">
        <ele>188.419</ele>
        <time>2021-02-02T11:53:50Z</time>
      </trkpt>
      <trkpt lat="42.035551" lon="2.760153">
        <ele>188.508</ele>
        <time>2021-02-02T11:53:52Z</time>
      </trkpt>
      <trkpt lat="42.035502" lon="2.760213">
        <ele>189.065</ele>
        <time>2021-02-02T11:53:54Z</time>
      </trkpt>
      <trkpt lat="42.035446" lon="2.760269">
        <ele>189.054</ele>
        <time>2021-02-02T11:53:56Z</time>
      </trkpt>
      <trkpt lat="42.035401" lon="2.760307">
        <ele>188.799</ele>
        <time>2021-02-02T11:53:57Z</time>
      </trkpt>
      <trkpt lat="42.035342" lon="2.760364">
        <ele>189.381</ele>
        <time>2021-02-02T11:54:00Z</time>
      </trkpt>
      <trkpt lat="42.035308" lon="2.760407">
        <ele>189.332</ele>
        <time>2021-02-02T11:54:01Z</time>
      </trkpt>
      <trkpt lat="42.035258" lon="2.760454">
        <ele>189.467</ele>
        <time>2021-02-02T11:54:03Z</time>
      </trkpt>
      <trkpt lat="42.035208" lon="2.760507">
        <ele>189.532</ele>
        <time>2021-02-02T11:54:05Z</time>
      </trkpt>
      <trkpt lat="42.035155" lon="2.760555">
        <ele>189.581</ele>
        <time>2021-02-02T11:54:06Z</time>
      </trkpt>
      <trkpt lat="42.035115" lon="2.760598">
        <ele>189.843</ele>
        <time>2021-02-02T11:54:08Z</time>
      </trkpt>
      <trkpt lat="42.035069" lon="2.760642">
        <ele>189.864</ele>
        <time>2021-02-02T11:54:09Z</time>
      </trkpt>
      <trkpt lat="42.035009" lon="2.760705">
        <ele>189.710</ele>
        <time>2021-02-02T11:54:11Z</time>
      </trkpt>
      <trkpt lat="42.034949" lon="2.760757">
        <ele>189.608</ele>
        <time>2021-02-02T11:54:13Z</time>
      </trkpt>
      <trkpt lat="42.034889" lon="2.760810">
        <ele>189.470</ele>
        <time>2021-02-02T11:54:14Z</time>
      </trkpt>
      <trkpt lat="42.034803" lon="2.760860">
        <ele>189.459</ele>
        <time>2021-02-02T11:54:16Z</time>
      </trkpt>
      <trkpt lat="42.034703" lon="2.760907">
        <ele>189.114</ele>
        <time>2021-02-02T11:54:18Z</time>
      </trkpt>
      <trkpt lat="42.034601" lon="2.760937">
        <ele>189.076</ele>
        <time>2021-02-02T11:54:20Z</time>
      </trkpt>
      <trkpt lat="42.034492" lon="2.760946">
        <ele>189.057</ele>
        <time>2021-02-02T11:54:22Z</time>
      </trkpt>
      <trkpt lat="42.034434" lon="2.760946">
        <ele>188.872</ele>
        <time>2021-02-02T11:54:23Z</time>
      </trkpt>
      <trkpt lat="42.034374" lon="2.760943">
        <ele>188.527</ele>
        <time>2021-02-02T11:54:24Z</time>
      </trkpt>
      <trkpt lat="42.034313" lon="2.760939">
        <ele>188.376</ele>
        <time>2021-02-02T11:54:25Z</time>
      </trkpt>
      <trkpt lat="42.034186" lon="2.760924">
        <ele>187.929</ele>
        <time>2021-02-02T11:54:27Z</time>
      </trkpt>
      <trkpt lat="42.034121" lon="2.760915">
        <ele>187.700</ele>
        <time>2021-02-02T11:54:28Z</time>
      </trkpt>
      <trkpt lat="42.033991" lon="2.760910">
        <ele>187.720</ele>
        <time>2021-02-02T11:54:30Z</time>
      </trkpt>
      <trkpt lat="42.033924" lon="2.760918">
        <ele>187.408</ele>
        <time>2021-02-02T11:54:31Z</time>
      </trkpt>
      <trkpt lat="42.033790" lon="2.760943">
        <ele>187.098</ele>
        <time>2021-02-02T11:54:33Z</time>
      </trkpt>
      <trkpt lat="42.033658" lon="2.760977">
        <ele>186.587</ele>
        <time>2021-02-02T11:54:35Z</time>
      </trkpt>
      <trkpt lat="42.033529" lon="2.761035">
        <ele>186.972</ele>
        <time>2021-02-02T11:54:37Z</time>
      </trkpt>
      <trkpt lat="42.033468" lon="2.761073">
        <ele>186.984</ele>
        <time>2021-02-02T11:54:38Z</time>
      </trkpt>
      <trkpt lat="42.033355" lon="2.761162">
        <ele>186.895</ele>
        <time>2021-02-02T11:54:40Z</time>
      </trkpt>
      <trkpt lat="42.033255" lon="2.761251">
        <ele>186.610</ele>
        <time>2021-02-02T11:54:42Z</time>
      </trkpt>
      <trkpt lat="42.033152" lon="2.761349">
        <ele>186.685</ele>
        <time>2021-02-02T11:54:44Z</time>
      </trkpt>
      <trkpt lat="42.033100" lon="2.761397">
        <ele>186.454</ele>
        <time>2021-02-02T11:54:45Z</time>
      </trkpt>
      <trkpt lat="42.033000" lon="2.761501">
        <ele>186.659</ele>
        <time>2021-02-02T11:54:47Z</time>
      </trkpt>
      <trkpt lat="42.032899" lon="2.761604">
        <ele>186.503</ele>
        <time>2021-02-02T11:54:49Z</time>
      </trkpt>
      <trkpt lat="42.032847" lon="2.761656">
        <ele>186.523</ele>
        <time>2021-02-02T11:54:50Z</time>
      </trkpt>
      <trkpt lat="42.032746" lon="2.761756">
        <ele>186.308</ele>
        <time>2021-02-02T11:54:52Z</time>
      </trkpt>
      <trkpt lat="42.032694" lon="2.761806">
        <ele>186.581</ele>
        <time>2021-02-02T11:54:53Z</time>
      </trkpt>
      <trkpt lat="42.032600" lon="2.761906">
        <ele>186.870</ele>
        <time>2021-02-02T11:54:55Z</time>
      </trkpt>
      <trkpt lat="42.032512" lon="2.762015">
        <ele>186.665</ele>
        <time>2021-02-02T11:54:57Z</time>
      </trkpt>
      <trkpt lat="42.032468" lon="2.762067">
        <ele>186.897</ele>
        <time>2021-02-02T11:54:58Z</time>
      </trkpt>
      <trkpt lat="42.032389" lon="2.762159">
        <ele>186.838</ele>
        <time>2021-02-02T11:55:00Z</time>
      </trkpt>
      <trkpt lat="42.032306" lon="2.762247">
        <ele>187.053</ele>
        <time>2021-02-02T11:55:02Z</time>
      </trkpt>
      <trkpt lat="42.032262" lon="2.762295">
        <ele>187.178</ele>
        <time>2021-02-02T11:55:03Z</time>
      </trkpt>
      <trkpt lat="42.032174" lon="2.762393">
        <ele>187.217</ele>
        <time>2021-02-02T11:55:05Z</time>
      </trkpt>
      <trkpt lat="42.032093" lon="2.762507">
        <ele>186.738</ele>
        <time>2021-02-02T11:55:07Z</time>
      </trkpt>
      <trkpt lat="42.032014" lon="2.762624">
        <ele>186.770</ele>
        <time>2021-02-02T11:55:09Z</time>
      </trkpt>
      <trkpt lat="42.031935" lon="2.762753">
        <ele>186.417</ele>
        <time>2021-02-02T11:55:11Z</time>
      </trkpt>
      <trkpt lat="42.031854" lon="2.762881">
        <ele>186.008</ele>
        <time>2021-02-02T11:55:13Z</time>
      </trkpt>
      <trkpt lat="42.031768" lon="2.763001">
        <ele>185.819</ele>
        <time>2021-02-02T11:55:15Z</time>
      </trkpt>
      <trkpt lat="42.031718" lon="2.763058">
        <ele>185.798</ele>
        <time>2021-02-02T11:55:16Z</time>
      </trkpt>
      <trkpt lat="42.031617" lon="2.763167">
        <ele>185.643</ele>
        <time>2021-02-02T11:55:18Z</time>
      </trkpt>
      <trkpt lat="42.031566" lon="2.763220">
        <ele>185.735</ele>
        <time>2021-02-02T11:55:19Z</time>
      </trkpt>
      <trkpt lat="42.031515" lon="2.763272">
        <ele>185.776</ele>
        <time>2021-02-02T11:55:20Z</time>
      </trkpt>
      <trkpt lat="42.031418" lon="2.763372">
        <ele>185.731</ele>
        <time>2021-02-02T11:55:22Z</time>
      </trkpt>
      <trkpt lat="42.031369" lon="2.763422">
        <ele>185.986</ele>
        <time>2021-02-02T11:55:23Z</time>
      </trkpt>
      <trkpt lat="42.031321" lon="2.763468">
        <ele>185.885</ele>
        <time>2021-02-02T11:55:24Z</time>
      </trkpt>
      <trkpt lat="42.031220" lon="2.763557">
        <ele>185.934</ele>
        <time>2021-02-02T11:55:26Z</time>
      </trkpt>
      <trkpt lat="42.031122" lon="2.763641">
        <ele>185.955</ele>
        <time>2021-02-02T11:55:28Z</time>
      </trkpt>
      <trkpt lat="42.031025" lon="2.763725">
        <ele>186.210</ele>
        <time>2021-02-02T11:55:30Z</time>
      </trkpt>
      <trkpt lat="42.030980" lon="2.763768">
        <ele>186.208</ele>
        <time>2021-02-02T11:55:31Z</time>
      </trkpt>
      <trkpt lat="42.030894" lon="2.763851">
        <ele>186.279</ele>
        <time>2021-02-02T11:55:33Z</time>
      </trkpt>
      <trkpt lat="42.030894" lon="2.763851">
        <ele>186.288</ele>
        <time>2021-02-02T11:55:33Z</time>
      </trkpt>
      <trkpt lat="42.030852" lon="2.763894">
        <ele>186.883</ele>
        <time>2021-02-02T11:55:34Z</time>
      </trkpt>
      <trkpt lat="42.030810" lon="2.763940">
        <ele>187.075</ele>
        <time>2021-02-02T11:55:35Z</time>
      </trkpt>
      <trkpt lat="42.030727" lon="2.764032">
        <ele>186.966</ele>
        <time>2021-02-02T11:55:37Z</time>
      </trkpt>
      <trkpt lat="42.030645" lon="2.764119">
        <ele>186.761</ele>
        <time>2021-02-02T11:55:39Z</time>
      </trkpt>
      <trkpt lat="42.030565" lon="2.764215">
        <ele>186.866</ele>
        <time>2021-02-02T11:55:41Z</time>
      </trkpt>
      <trkpt lat="42.030483" lon="2.764310">
        <ele>187.445</ele>
        <time>2021-02-02T11:55:43Z</time>
      </trkpt>
      <trkpt lat="42.030404" lon="2.764400">
        <ele>187.798</ele>
        <time>2021-02-02T11:55:45Z</time>
      </trkpt>
      <trkpt lat="42.030365" lon="2.764444">
        <ele>187.615</ele>
        <time>2021-02-02T11:55:46Z</time>
      </trkpt>
      <trkpt lat="42.030285" lon="2.764532">
        <ele>187.726</ele>
        <time>2021-02-02T11:55:48Z</time>
      </trkpt>
      <trkpt lat="42.030244" lon="2.764575">
        <ele>187.608</ele>
        <time>2021-02-02T11:55:49Z</time>
      </trkpt>
      <trkpt lat="42.030204" lon="2.764618">
        <ele>187.565</ele>
        <time>2021-02-02T11:55:50Z</time>
      </trkpt>
      <trkpt lat="42.030127" lon="2.764709">
        <ele>187.484</ele>
        <time>2021-02-02T11:55:52Z</time>
      </trkpt>
      <trkpt lat="42.030053" lon="2.764800">
        <ele>187.899</ele>
        <time>2021-02-02T11:55:54Z</time>
      </trkpt>
      <trkpt lat="42.029977" lon="2.764875">
        <ele>187.871</ele>
        <time>2021-02-02T11:55:56Z</time>
      </trkpt>
      <trkpt lat="42.029937" lon="2.764911">
        <ele>188.312</ele>
        <time>2021-02-02T11:55:57Z</time>
      </trkpt>
      <trkpt lat="42.029860" lon="2.764989">
        <ele>188.567</ele>
        <time>2021-02-02T11:55:59Z</time>
      </trkpt>
      <trkpt lat="42.029793" lon="2.765071">
        <ele>188.652</ele>
        <time>2021-02-02T11:56:01Z</time>
      </trkpt>
      <trkpt lat="42.029738" lon="2.765130">
        <ele>189.171</ele>
        <time>2021-02-02T11:56:03Z</time>
      </trkpt>
      <trkpt lat="42.029667" lon="2.765188">
        <ele>189.296</ele>
        <time>2021-02-02T11:56:05Z</time>
      </trkpt>
      <trkpt lat="42.029594" lon="2.765246">
        <ele>189.231</ele>
        <time>2021-02-02T11:56:07Z</time>
      </trkpt>
      <trkpt lat="42.029537" lon="2.765291">
        <ele>189.324</ele>
        <time>2021-02-02T11:56:08Z</time>
      </trkpt>
      <trkpt lat="42.029481" lon="2.765342">
        <ele>189.608</ele>
        <time>2021-02-02T11:56:10Z</time>
      </trkpt>
      <trkpt lat="42.029417" lon="2.765398">
        <ele>190.265</ele>
        <time>2021-02-02T11:56:12Z</time>
      </trkpt>
      <trkpt lat="42.029361" lon="2.765457">
        <ele>190.424</ele>
        <time>2021-02-02T11:56:14Z</time>
      </trkpt>
      <trkpt lat="42.029293" lon="2.765516">
        <ele>190.689</ele>
        <time>2021-02-02T11:56:16Z</time>
      </trkpt>
      <trkpt lat="42.029228" lon="2.765570">
        <ele>191.341</ele>
        <time>2021-02-02T11:56:18Z</time>
      </trkpt>
      <trkpt lat="42.029154" lon="2.765621">
        <ele>191.472</ele>
        <time>2021-02-02T11:56:20Z</time>
      </trkpt>
      <trkpt lat="42.029079" lon="2.765683">
        <ele>191.627</ele>
        <time>2021-02-02T11:56:22Z</time>
      </trkpt>
      <trkpt lat="42.029007" lon="2.765731">
        <ele>191.642</ele>
        <time>2021-02-02T11:56:24Z</time>
      </trkpt>
      <trkpt lat="42.028943" lon="2.765765">
        <ele>192.081</ele>
        <time>2021-02-02T11:56:26Z</time>
      </trkpt>
      <trkpt lat="42.028873" lon="2.765810">
        <ele>192.265</ele>
        <time>2021-02-02T11:56:28Z</time>
      </trkpt>
      <trkpt lat="42.028807" lon="2.765853">
        <ele>192.468</ele>
        <time>2021-02-02T11:56:30Z</time>
      </trkpt>
      <trkpt lat="42.028747" lon="2.765900">
        <ele>192.514</ele>
        <time>2021-02-02T11:56:32Z</time>
      </trkpt>
      <trkpt lat="42.028687" lon="2.765956">
        <ele>192.708</ele>
        <time>2021-02-02T11:56:34Z</time>
      </trkpt>
      <trkpt lat="42.028624" lon="2.766012">
        <ele>192.962</ele>
        <time>2021-02-02T11:56:36Z</time>
      </trkpt>
      <trkpt lat="42.028559" lon="2.766067">
        <ele>193.171</ele>
        <time>2021-02-02T11:56:38Z</time>
      </trkpt>
      <trkpt lat="42.028496" lon="2.766122">
        <ele>193.286</ele>
        <time>2021-02-02T11:56:40Z</time>
      </trkpt>
      <trkpt lat="42.028456" lon="2.766155">
        <ele>193.258</ele>
        <time>2021-02-02T11:56:41Z</time>
      </trkpt>
      <trkpt lat="42.028414" lon="2.766189">
        <ele>193.549</ele>
        <time>2021-02-02T11:56:42Z</time>
      </trkpt>
      <trkpt lat="42.028414" lon="2.766189">
        <ele>193.554</ele>
        <time>2021-02-02T11:56:42Z</time>
      </trkpt>
      <trkpt lat="42.028335" lon="2.766254">
        <ele>193.469</ele>
        <time>2021-02-02T11:56:44Z</time>
      </trkpt>
      <trkpt lat="42.028254" lon="2.766324">
        <ele>193.468</ele>
        <time>2021-02-02T11:56:46Z</time>
      </trkpt>
      <trkpt lat="42.028171" lon="2.766406">
        <ele>193.613</ele>
        <time>2021-02-02T11:56:48Z</time>
      </trkpt>
      <trkpt lat="42.028129" lon="2.766448">
        <ele>193.743</ele>
        <time>2021-02-02T11:56:49Z</time>
      </trkpt>
      <trkpt lat="42.028087" lon="2.766488">
        <ele>193.607</ele>
        <time>2021-02-02T11:56:50Z</time>
      </trkpt>
      <trkpt lat="42.028003" lon="2.766564">
        <ele>193.708</ele>
        <time>2021-02-02T11:56:52Z</time>
      </trkpt>
      <trkpt lat="42.027917" lon="2.766641">
        <ele>193.797</ele>
        <time>2021-02-02T11:56:54Z</time>
      </trkpt>
      <trkpt lat="42.027838" lon="2.766717">
        <ele>193.886</ele>
        <time>2021-02-02T11:56:56Z</time>
      </trkpt>
      <trkpt lat="42.027796" lon="2.766753">
        <ele>193.941</ele>
        <time>2021-02-02T11:56:57Z</time>
      </trkpt>
      <trkpt lat="42.027796" lon="2.766753">
        <ele>193.913</ele>
        <time>2021-02-02T11:56:57Z</time>
      </trkpt>
      <trkpt lat="42.027711" lon="2.766822">
        <ele>193.794</ele>
        <time>2021-02-02T11:56:59Z</time>
      </trkpt>
      <trkpt lat="42.027643" lon="2.766868">
        <ele>194.239</ele>
        <time>2021-02-02T11:57:01Z</time>
      </trkpt>
      <trkpt lat="42.027562" lon="2.766927">
        <ele>194.194</ele>
        <time>2021-02-02T11:57:03Z</time>
      </trkpt>
      <trkpt lat="42.027518" lon="2.766952">
        <ele>194.353</ele>
        <time>2021-02-02T11:57:04Z</time>
      </trkpt>
      <trkpt lat="42.027472" lon="2.766981">
        <ele>194.066</ele>
        <time>2021-02-02T11:57:05Z</time>
      </trkpt>
      <trkpt lat="42.027424" lon="2.767005">
        <ele>194.229</ele>
        <time>2021-02-02T11:57:06Z</time>
      </trkpt>
      <trkpt lat="42.027331" lon="2.767066">
        <ele>194.421</ele>
        <time>2021-02-02T11:57:08Z</time>
      </trkpt>
      <trkpt lat="42.027238" lon="2.767144">
        <ele>194.208</ele>
        <time>2021-02-02T11:57:10Z</time>
      </trkpt>
      <trkpt lat="42.027192" lon="2.767180">
        <ele>194.042</ele>
        <time>2021-02-02T11:57:11Z</time>
      </trkpt>
      <trkpt lat="42.027101" lon="2.767248">
        <ele>194.141</ele>
        <time>2021-02-02T11:57:13Z</time>
      </trkpt>
      <trkpt lat="42.027008" lon="2.767326">
        <ele>194.256</ele>
        <time>2021-02-02T11:57:15Z</time>
      </trkpt>
      <trkpt lat="42.026963" lon="2.767366">
        <ele>194.048</ele>
        <time>2021-02-02T11:57:16Z</time>
      </trkpt>
      <trkpt lat="42.026916" lon="2.767403">
        <ele>193.979</ele>
        <time>2021-02-02T11:57:17Z</time>
      </trkpt>
      <trkpt lat="42.026865" lon="2.767440">
        <ele>193.784</ele>
        <time>2021-02-02T11:57:18Z</time>
      </trkpt>
      <trkpt lat="42.026814" lon="2.767472">
        <ele>193.749</ele>
        <time>2021-02-02T11:57:19Z</time>
      </trkpt>
      <trkpt lat="42.026708" lon="2.767544">
        <ele>193.268</ele>
        <time>2021-02-02T11:57:21Z</time>
      </trkpt>
      <trkpt lat="42.026652" lon="2.767585">
        <ele>193.093</ele>
        <time>2021-02-02T11:57:22Z</time>
      </trkpt>
      <trkpt lat="42.026550" lon="2.767662">
        <ele>192.965</ele>
        <time>2021-02-02T11:57:24Z</time>
      </trkpt>
      <trkpt lat="42.026447" lon="2.767746">
        <ele>192.821</ele>
        <time>2021-02-02T11:57:26Z</time>
      </trkpt>
      <trkpt lat="42.026395" lon="2.767783">
        <ele>192.708</ele>
        <time>2021-02-02T11:57:27Z</time>
      </trkpt>
      <trkpt lat="42.026341" lon="2.767819">
        <ele>192.475</ele>
        <time>2021-02-02T11:57:28Z</time>
      </trkpt>
      <trkpt lat="42.026341" lon="2.767819">
        <ele>192.464</ele>
        <time>2021-02-02T11:57:28Z</time>
      </trkpt>
      <trkpt lat="42.026290" lon="2.767855">
        <ele>192.279</ele>
        <time>2021-02-02T11:57:29Z</time>
      </trkpt>
      <trkpt lat="42.026183" lon="2.767928">
        <ele>192.041</ele>
        <time>2021-02-02T11:57:31Z</time>
      </trkpt>
      <trkpt lat="42.026128" lon="2.767965">
        <ele>192.362</ele>
        <time>2021-02-02T11:57:32Z</time>
      </trkpt>
      <trkpt lat="42.026128" lon="2.767965">
        <ele>192.347</ele>
        <time>2021-02-02T11:57:32Z</time>
      </trkpt>
      <trkpt lat="42.026017" lon="2.768048">
        <ele>191.782</ele>
        <time>2021-02-02T11:57:34Z</time>
      </trkpt>
      <trkpt lat="42.025914" lon="2.768120">
        <ele>191.811</ele>
        <time>2021-02-02T11:57:36Z</time>
      </trkpt>
      <trkpt lat="42.025864" lon="2.768156">
        <ele>191.624</ele>
        <time>2021-02-02T11:57:37Z</time>
      </trkpt>
      <trkpt lat="42.025864" lon="2.768156">
        <ele>191.604</ele>
        <time>2021-02-02T11:57:37Z</time>
      </trkpt>
      <trkpt lat="42.025769" lon="2.768228">
        <ele>191.414</ele>
        <time>2021-02-02T11:57:39Z</time>
      </trkpt>
      <trkpt lat="42.025728" lon="2.768261">
        <ele>191.208</ele>
        <time>2021-02-02T11:57:40Z</time>
      </trkpt>
      <trkpt lat="42.025703" lon="2.768333">
        <ele>191.578</ele>
        <time>2021-02-02T11:57:42Z</time>
      </trkpt>
      <trkpt lat="42.025728" lon="2.768454">
        <ele>190.937</ele>
        <time>2021-02-02T11:57:44Z</time>
      </trkpt>
      <trkpt lat="42.025765" lon="2.768514">
        <ele>190.752</ele>
        <time>2021-02-02T11:57:45Z</time>
      </trkpt>
      <trkpt lat="42.025820" lon="2.768573">
        <ele>190.574</ele>
        <time>2021-02-02T11:57:46Z</time>
      </trkpt>
      <trkpt lat="42.025876" lon="2.768635">
        <ele>190.015</ele>
        <time>2021-02-02T11:57:47Z</time>
      </trkpt>
      <trkpt lat="42.026000" lon="2.768771">
        <ele>188.410</ele>
        <time>2021-02-02T11:57:49Z</time>
      </trkpt>
      <trkpt lat="42.026073" lon="2.768843">
        <ele>187.495</ele>
        <time>2021-02-02T11:57:50Z</time>
      </trkpt>
      <trkpt lat="42.026225" lon="2.769000">
        <ele>185.494</ele>
        <time>2021-02-02T11:57:52Z</time>
      </trkpt>
      <trkpt lat="42.026306" lon="2.769085">
        <ele>184.253</ele>
        <time>2021-02-02T11:57:53Z</time>
      </trkpt>
      <trkpt lat="42.026387" lon="2.769170">
        <ele>183.804</ele>
        <time>2021-02-02T11:57:54Z</time>
      </trkpt>
      <trkpt lat="42.026521" lon="2.769366">
        <ele>182.014</ele>
        <time>2021-02-02T11:57:56Z</time>
      </trkpt>
      <trkpt lat="42.026579" lon="2.769610">
        <ele>182.808</ele>
        <time>2021-02-02T11:57:58Z</time>
      </trkpt>
      <trkpt lat="42.026591" lon="2.769735">
        <ele>182.591</ele>
        <time>2021-02-02T11:57:59Z</time>
      </trkpt>
      <trkpt lat="42.026604" lon="2.769853">
        <ele>182.470</ele>
        <time>2021-02-02T11:58:00Z</time>
      </trkpt>
      <trkpt lat="42.026640" lon="2.770070">
        <ele>181.555</ele>
        <time>2021-02-02T11:58:02Z</time>
      </trkpt>
      <trkpt lat="42.026682" lon="2.770263">
        <ele>183.137</ele>
        <time>2021-02-02T11:58:04Z</time>
      </trkpt>
      <trkpt lat="42.026709" lon="2.770437">
        <ele>183.078</ele>
        <time>2021-02-02T11:58:06Z</time>
      </trkpt>
      <trkpt lat="42.026718" lon="2.770513">
        <ele>183.433</ele>
        <time>2021-02-02T11:58:07Z</time>
      </trkpt>
      <trkpt lat="42.026722" lon="2.770582">
        <ele>184.138</ele>
        <time>2021-02-02T11:58:08Z</time>
      </trkpt>
      <trkpt lat="42.026716" lon="2.770664">
        <ele>184.737</ele>
        <time>2021-02-02T11:58:10Z</time>
      </trkpt>
      <trkpt lat="42.026701" lon="2.770737">
        <ele>185.828</ele>
        <time>2021-02-02T11:58:12Z</time>
      </trkpt>
      <trkpt lat="42.026669" lon="2.770811">
        <ele>186.889</ele>
        <time>2021-02-02T11:58:15Z</time>
      </trkpt>
      <trkpt lat="42.026644" lon="2.770869">
        <ele>187.417</ele>
        <time>2021-02-02T11:58:17Z</time>
      </trkpt>
      <trkpt lat="42.026617" lon="2.770935">
        <ele>188.008</ele>
        <time>2021-02-02T11:58:19Z</time>
      </trkpt>
      <trkpt lat="42.026583" lon="2.770998">
        <ele>188.698</ele>
        <time>2021-02-02T11:58:21Z</time>
      </trkpt>
      <trkpt lat="42.026556" lon="2.771060">
        <ele>188.827</ele>
        <time>2021-02-02T11:58:23Z</time>
      </trkpt>
      <trkpt lat="42.026539" lon="2.771122">
        <ele>189.692</ele>
        <time>2021-02-02T11:58:25Z</time>
      </trkpt>
      <trkpt lat="42.026531" lon="2.771185">
        <ele>189.944</ele>
        <time>2021-02-02T11:58:27Z</time>
      </trkpt>
      <trkpt lat="42.026542" lon="2.771259">
        <ele>190.845</ele>
        <time>2021-02-02T11:58:30Z</time>
      </trkpt>
      <trkpt lat="42.026552" lon="2.771320">
        <ele>191.160</ele>
        <time>2021-02-02T11:58:32Z</time>
      </trkpt>
      <trkpt lat="42.026566" lon="2.771385">
        <ele>191.125</ele>
        <time>2021-02-02T11:58:34Z</time>
      </trkpt>
      <trkpt lat="42.026591" lon="2.771447">
        <ele>191.664</ele>
        <time>2021-02-02T11:58:36Z</time>
      </trkpt>
      <trkpt lat="42.026616" lon="2.771507">
        <ele>192.051</ele>
        <time>2021-02-02T11:58:38Z</time>
      </trkpt>
      <trkpt lat="42.026630" lon="2.771566">
        <ele>191.901</ele>
        <time>2021-02-02T11:58:40Z</time>
      </trkpt>
      <trkpt lat="42.026654" lon="2.771635">
        <ele>192.911</ele>
        <time>2021-02-02T11:58:43Z</time>
      </trkpt>
      <trkpt lat="42.026685" lon="2.771708">
        <ele>193.608</ele>
        <time>2021-02-02T11:58:46Z</time>
      </trkpt>
      <trkpt lat="42.026711" lon="2.771772">
        <ele>194.051</ele>
        <time>2021-02-02T11:58:49Z</time>
      </trkpt>
      <trkpt lat="42.026729" lon="2.771845">
        <ele>194.710</ele>
        <time>2021-02-02T11:58:52Z</time>
      </trkpt>
      <trkpt lat="42.026730" lon="2.771923">
        <ele>195.335</ele>
        <time>2021-02-02T11:58:55Z</time>
      </trkpt>
      <trkpt lat="42.026738" lon="2.771983">
        <ele>195.867</ele>
        <time>2021-02-02T11:58:58Z</time>
      </trkpt>
      <trkpt lat="42.026743" lon="2.772049">
        <ele>196.228</ele>
        <time>2021-02-02T11:59:02Z</time>
      </trkpt>
      <trkpt lat="42.026741" lon="2.772126">
        <ele>197.253</ele>
        <time>2021-02-02T11:59:06Z</time>
      </trkpt>
      <trkpt lat="42.026719" lon="2.772193">
        <ele>197.738</ele>
        <time>2021-02-02T11:59:09Z</time>
      </trkpt>
      <trkpt lat="42.026698" lon="2.772255">
        <ele>198.077</ele>
        <time>2021-02-02T11:59:12Z</time>
      </trkpt>
      <trkpt lat="42.026684" lon="2.772333">
        <ele>198.873</ele>
        <time>2021-02-02T11:59:16Z</time>
      </trkpt>
      <trkpt lat="42.026664" lon="2.772400">
        <ele>199.285</ele>
        <time>2021-02-02T11:59:19Z</time>
      </trkpt>
      <trkpt lat="42.026632" lon="2.772459">
        <ele>199.413</ele>
        <time>2021-02-02T11:59:22Z</time>
      </trkpt>
      <trkpt lat="42.026601" lon="2.772514">
        <ele>200.008</ele>
        <time>2021-02-02T11:59:25Z</time>
      </trkpt>
      <trkpt lat="42.026562" lon="2.772581">
        <ele>200.813</ele>
        <time>2021-02-02T11:59:29Z</time>
      </trkpt>
      <trkpt lat="42.026527" lon="2.772639">
        <ele>200.972</ele>
        <time>2021-02-02T11:59:32Z</time>
      </trkpt>
      <trkpt lat="42.026483" lon="2.772684">
        <ele>201.527</ele>
        <time>2021-02-02T11:59:35Z</time>
      </trkpt>
      <trkpt lat="42.026443" lon="2.772723">
        <ele>201.999</ele>
        <time>2021-02-02T11:59:38Z</time>
      </trkpt>
      <trkpt lat="42.026396" lon="2.772774">
        <ele>202.330</ele>
        <time>2021-02-02T11:59:41Z</time>
      </trkpt>
      <trkpt lat="42.026366" lon="2.772835">
        <ele>203.045</ele>
        <time>2021-02-02T11:59:44Z</time>
      </trkpt>
      <trkpt lat="42.026360" lon="2.772906">
        <ele>203.560</ele>
        <time>2021-02-02T11:59:47Z</time>
      </trkpt>
      <trkpt lat="42.026351" lon="2.772969">
        <ele>203.789</ele>
        <time>2021-02-02T11:59:50Z</time>
      </trkpt>
      <trkpt lat="42.026329" lon="2.773034">
        <ele>204.476</ele>
        <time>2021-02-02T11:59:53Z</time>
      </trkpt>
      <trkpt lat="42.026325" lon="2.773104">
        <ele>205.190</ele>
        <time>2021-02-02T11:59:56Z</time>
      </trkpt>
      <trkpt lat="42.026312" lon="2.773175">
        <ele>205.119</ele>
        <time>2021-02-02T11:59:59Z</time>
      </trkpt>
      <trkpt lat="42.026300" lon="2.773250">
        <ele>205.608</ele>
        <time>2021-02-02T12:00:02Z</time>
      </trkpt>
      <trkpt lat="42.026290" lon="2.773310">
        <ele>205.983</ele>
        <time>2021-02-02T12:00:04Z</time>
      </trkpt>
      <trkpt lat="42.026290" lon="2.773393">
        <ele>206.192</ele>
        <time>2021-02-02T12:00:07Z</time>
      </trkpt>
      <trkpt lat="42.026301" lon="2.773482">
        <ele>206.817</ele>
        <time>2021-02-02T12:00:10Z</time>
      </trkpt>
      <trkpt lat="42.026316" lon="2.773554">
        <ele>206.859</ele>
        <time>2021-02-02T12:00:12Z</time>
      </trkpt>
      <trkpt lat="42.026333" lon="2.773617">
        <ele>206.770</ele>
        <time>2021-02-02T12:00:14Z</time>
      </trkpt>
      <trkpt lat="42.026360" lon="2.773704">
        <ele>206.525</ele>
        <time>2021-02-02T12:00:16Z</time>
      </trkpt>
      <trkpt lat="42.026389" lon="2.773786">
        <ele>206.280</ele>
        <time>2021-02-02T12:00:18Z</time>
      </trkpt>
      <trkpt lat="42.026406" lon="2.773906">
        <ele>204.429</ele>
        <time>2021-02-02T12:00:20Z</time>
      </trkpt>
      <trkpt lat="42.026375" lon="2.774080">
        <ele>204.534</ele>
        <time>2021-02-02T12:00:22Z</time>
      </trkpt>
      <trkpt lat="42.026320" lon="2.774280">
        <ele>202.055</ele>
        <time>2021-02-02T12:00:24Z</time>
      </trkpt>
      <trkpt lat="42.026253" lon="2.774493">
        <ele>200.110</ele>
        <time>2021-02-02T12:00:26Z</time>
      </trkpt>
      <trkpt lat="42.026217" lon="2.774608">
        <ele>199.208</ele>
        <time>2021-02-02T12:00:27Z</time>
      </trkpt>
      <trkpt lat="42.026183" lon="2.774715">
        <ele>198.719</ele>
        <time>2021-02-02T12:00:28Z</time>
      </trkpt>
      <trkpt lat="42.026136" lon="2.774969">
        <ele>196.898</ele>
        <time>2021-02-02T12:00:30Z</time>
      </trkpt>
      <trkpt lat="42.026115" lon="2.775112">
        <ele>196.863</ele>
        <time>2021-02-02T12:00:31Z</time>
      </trkpt>
      <trkpt lat="42.026102" lon="2.775396">
        <ele>196.065</ele>
        <time>2021-02-02T12:00:33Z</time>
      </trkpt>
      <trkpt lat="42.026113" lon="2.775526">
        <ele>196.016</ele>
        <time>2021-02-02T12:00:34Z</time>
      </trkpt>
      <trkpt lat="42.026207" lon="2.775726">
        <ele>196.151</ele>
        <time>2021-02-02T12:00:36Z</time>
      </trkpt>
      <trkpt lat="42.026272" lon="2.775799">
        <ele>196.266</ele>
        <time>2021-02-02T12:00:37Z</time>
      </trkpt>
      <trkpt lat="42.026406" lon="2.775882">
        <ele>196.735</ele>
        <time>2021-02-02T12:00:39Z</time>
      </trkpt>
      <trkpt lat="42.026470" lon="2.775915">
        <ele>196.819</ele>
        <time>2021-02-02T12:00:40Z</time>
      </trkpt>
      <trkpt lat="42.026578" lon="2.775987">
        <ele>197.609</ele>
        <time>2021-02-02T12:00:42Z</time>
      </trkpt>
      <trkpt lat="42.026620" lon="2.776030">
        <ele>198.019</ele>
        <time>2021-02-02T12:00:43Z</time>
      </trkpt>
      <trkpt lat="42.026677" lon="2.776109">
        <ele>198.508</ele>
        <time>2021-02-02T12:00:45Z</time>
      </trkpt>
      <trkpt lat="42.026705" lon="2.776161">
        <ele>199.097</ele>
        <time>2021-02-02T12:00:46Z</time>
      </trkpt>
      <trkpt lat="42.026746" lon="2.776261">
        <ele>199.486</ele>
        <time>2021-02-02T12:00:48Z</time>
      </trkpt>
      <trkpt lat="42.026777" lon="2.776356">
        <ele>199.781</ele>
        <time>2021-02-02T12:00:50Z</time>
      </trkpt>
      <trkpt lat="42.026809" lon="2.776473">
        <ele>199.733</ele>
        <time>2021-02-02T12:00:51Z</time>
      </trkpt>
      <trkpt lat="42.026824" lon="2.776589">
        <ele>198.864</ele>
        <time>2021-02-02T12:00:53Z</time>
      </trkpt>
      <trkpt lat="42.026829" lon="2.776665">
        <ele>198.039</ele>
        <time>2021-02-02T12:00:54Z</time>
      </trkpt>
      <trkpt lat="42.026822" lon="2.776751">
        <ele>197.364</ele>
        <time>2021-02-02T12:00:55Z</time>
      </trkpt>
      <trkpt lat="42.026777" lon="2.776927">
        <ele>196.583</ele>
        <time>2021-02-02T12:00:57Z</time>
      </trkpt>
      <trkpt lat="42.026748" lon="2.777027">
        <ele>196.233</ele>
        <time>2021-02-02T12:00:58Z</time>
      </trkpt>
      <trkpt lat="42.026700" lon="2.777225">
        <ele>195.623</ele>
        <time>2021-02-02T12:01:00Z</time>
      </trkpt>
      <trkpt lat="42.026622" lon="2.777415">
        <ele>194.715</ele>
        <time>2021-02-02T12:01:02Z</time>
      </trkpt>
      <trkpt lat="42.026565" lon="2.777509">
        <ele>194.108</ele>
        <time>2021-02-02T12:01:03Z</time>
      </trkpt>
      <trkpt lat="42.026437" lon="2.777687">
        <ele>192.599</ele>
        <time>2021-02-02T12:01:05Z</time>
      </trkpt>
      <trkpt lat="42.026299" lon="2.777867">
        <ele>190.588</ele>
        <time>2021-02-02T12:01:07Z</time>
      </trkpt>
      <trkpt lat="42.026176" lon="2.778082">
        <ele>189.853</ele>
        <time>2021-02-02T12:01:09Z</time>
      </trkpt>
      <trkpt lat="42.026176" lon="2.778082">
        <ele>189.885</ele>
        <time>2021-02-02T12:01:09Z</time>
      </trkpt>
      <trkpt lat="42.026141" lon="2.778202">
        <ele>189.936</ele>
        <time>2021-02-02T12:01:10Z</time>
      </trkpt>
      <trkpt lat="42.026125" lon="2.778328">
        <ele>189.861</ele>
        <time>2021-02-02T12:01:11Z</time>
      </trkpt>
      <trkpt lat="42.026117" lon="2.778450">
        <ele>189.956</ele>
        <time>2021-02-02T12:01:12Z</time>
      </trkpt>
      <trkpt lat="42.026114" lon="2.778567">
        <ele>189.965</ele>
        <time>2021-02-02T12:01:13Z</time>
      </trkpt>
      <trkpt lat="42.026117" lon="2.778678">
        <ele>189.758</ele>
        <time>2021-02-02T12:01:14Z</time>
      </trkpt>
      <trkpt lat="42.026122" lon="2.778879">
        <ele>189.652</ele>
        <time>2021-02-02T12:01:16Z</time>
      </trkpt>
      <trkpt lat="42.026114" lon="2.778975">
        <ele>189.717</ele>
        <time>2021-02-02T12:01:17Z</time>
      </trkpt>
      <trkpt lat="42.026083" lon="2.779160">
        <ele>189.408</ele>
        <time>2021-02-02T12:01:19Z</time>
      </trkpt>
      <trkpt lat="42.026029" lon="2.779358">
        <ele>188.191</ele>
        <time>2021-02-02T12:01:21Z</time>
      </trkpt>
      <trkpt lat="42.026002" lon="2.779465">
        <ele>187.190</ele>
        <time>2021-02-02T12:01:22Z</time>
      </trkpt>
      <trkpt lat="42.025974" lon="2.779579">
        <ele>186.585</ele>
        <time>2021-02-02T12:01:23Z</time>
      </trkpt>
      <trkpt lat="42.025946" lon="2.779699">
        <ele>185.537</ele>
        <time>2021-02-02T12:01:24Z</time>
      </trkpt>
      <trkpt lat="42.025912" lon="2.779825">
        <ele>183.678</ele>
        <time>2021-02-02T12:01:25Z</time>
      </trkpt>
      <trkpt lat="42.025800" lon="2.780067">
        <ele>182.043</ele>
        <time>2021-02-02T12:01:27Z</time>
      </trkpt>
      <trkpt lat="42.025732" lon="2.780184">
        <ele>181.578</ele>
        <time>2021-02-02T12:01:28Z</time>
      </trkpt>
      <trkpt lat="42.025629" lon="2.780424">
        <ele>180.967</ele>
        <time>2021-02-02T12:01:30Z</time>
      </trkpt>
      <trkpt lat="42.025596" lon="2.780550">
        <ele>180.837</ele>
        <time>2021-02-02T12:01:31Z</time>
      </trkpt>
      <trkpt lat="42.025528" lon="2.780781">
        <ele>180.749</ele>
        <time>2021-02-02T12:01:33Z</time>
      </trkpt>
      <trkpt lat="42.025455" lon="2.780986">
        <ele>181.113</ele>
        <time>2021-02-02T12:01:35Z</time>
      </trkpt>
      <trkpt lat="42.025368" lon="2.781169">
        <ele>180.308</ele>
        <time>2021-02-02T12:01:37Z</time>
      </trkpt>
      <trkpt lat="42.025322" lon="2.781258">
        <ele>180.029</ele>
        <time>2021-02-02T12:01:38Z</time>
      </trkpt>
      <trkpt lat="42.025275" lon="2.781346">
        <ele>179.778</ele>
        <time>2021-02-02T12:01:39Z</time>
      </trkpt>
      <trkpt lat="42.025225" lon="2.781428">
        <ele>179.733</ele>
        <time>2021-02-02T12:01:40Z</time>
      </trkpt>
      <trkpt lat="42.025110" lon="2.781567">
        <ele>179.675</ele>
        <time>2021-02-02T12:01:42Z</time>
      </trkpt>
      <trkpt lat="42.024986" lon="2.781687">
        <ele>179.076</ele>
        <time>2021-02-02T12:01:44Z</time>
      </trkpt>
      <trkpt lat="42.024873" lon="2.781827">
        <ele>178.511</ele>
        <time>2021-02-02T12:01:46Z</time>
      </trkpt>
      <trkpt lat="42.024873" lon="2.781827">
        <ele>178.526</ele>
        <time>2021-02-02T12:01:46Z</time>
      </trkpt>
      <trkpt lat="42.024820" lon="2.781907">
        <ele>177.645</ele>
        <time>2021-02-02T12:01:47Z</time>
      </trkpt>
      <trkpt lat="42.024724" lon="2.782096">
        <ele>175.439</ele>
        <time>2021-02-02T12:01:49Z</time>
      </trkpt>
      <trkpt lat="42.024621" lon="2.782326">
        <ele>173.101</ele>
        <time>2021-02-02T12:01:51Z</time>
      </trkpt>
      <trkpt lat="42.024572" lon="2.782457">
        <ele>171.821</ele>
        <time>2021-02-02T12:01:52Z</time>
      </trkpt>
      <trkpt lat="42.024529" lon="2.782602">
        <ele>170.008</ele>
        <time>2021-02-02T12:01:53Z</time>
      </trkpt>
      <trkpt lat="42.024445" lon="2.782902">
        <ele>167.789</ele>
        <time>2021-02-02T12:01:55Z</time>
      </trkpt>
      <trkpt lat="42.024403" lon="2.783055">
        <ele>166.258</ele>
        <time>2021-02-02T12:01:56Z</time>
      </trkpt>
      <trkpt lat="42.024320" lon="2.783375">
        <ele>163.013</ele>
        <time>2021-02-02T12:01:58Z</time>
      </trkpt>
      <trkpt lat="42.024279" lon="2.783545">
        <ele>161.595</ele>
        <time>2021-02-02T12:01:59Z</time>
      </trkpt>
      <trkpt lat="42.024213" lon="2.783901">
        <ele>158.546</ele>
        <time>2021-02-02T12:02:01Z</time>
      </trkpt>
      <trkpt lat="42.024193" lon="2.784084">
        <ele>157.261</ele>
        <time>2021-02-02T12:02:02Z</time>
      </trkpt>
      <trkpt lat="42.024180" lon="2.784268">
        <ele>156.226</ele>
        <time>2021-02-02T12:02:03Z</time>
      </trkpt>
      <trkpt lat="42.024167" lon="2.784648">
        <ele>153.295</ele>
        <time>2021-02-02T12:02:05Z</time>
      </trkpt>
      <trkpt lat="42.024156" lon="2.784836">
        <ele>152.659</ele>
        <time>2021-02-02T12:02:06Z</time>
      </trkpt>
      <trkpt lat="42.024144" lon="2.785016">
        <ele>152.303</ele>
        <time>2021-02-02T12:02:07Z</time>
      </trkpt>
      <trkpt lat="42.024125" lon="2.785361">
        <ele>150.023</ele>
        <time>2021-02-02T12:02:09Z</time>
      </trkpt>
      <trkpt lat="42.024116" lon="2.785539">
        <ele>149.108</ele>
        <time>2021-02-02T12:02:10Z</time>
      </trkpt>
      <trkpt lat="42.024099" lon="2.785857">
        <ele>147.171</ele>
        <time>2021-02-02T12:02:12Z</time>
      </trkpt>
      <trkpt lat="42.024091" lon="2.786113">
        <ele>145.960</ele>
        <time>2021-02-02T12:02:14Z</time>
      </trkpt>
      <trkpt lat="42.024118" lon="2.786370">
        <ele>143.685</ele>
        <time>2021-02-02T12:02:16Z</time>
      </trkpt>
      <trkpt lat="42.024158" lon="2.786658">
        <ele>141.187</ele>
        <time>2021-02-02T12:02:18Z</time>
      </trkpt>
      <trkpt lat="42.024228" lon="2.786975">
        <ele>138.358</ele>
        <time>2021-02-02T12:02:20Z</time>
      </trkpt>
      <trkpt lat="42.024326" lon="2.787289">
        <ele>136.413</ele>
        <time>2021-02-02T12:02:22Z</time>
      </trkpt>
      <trkpt lat="42.024374" lon="2.787447">
        <ele>135.428</ele>
        <time>2021-02-02T12:02:23Z</time>
      </trkpt>
      <trkpt lat="42.024419" lon="2.787605">
        <ele>134.527</ele>
        <time>2021-02-02T12:02:24Z</time>
      </trkpt>
      <trkpt lat="42.024495" lon="2.787910">
        <ele>133.888</ele>
        <time>2021-02-02T12:02:26Z</time>
      </trkpt>
      <trkpt lat="42.024546" lon="2.788206">
        <ele>133.624</ele>
        <time>2021-02-02T12:02:28Z</time>
      </trkpt>
      <trkpt lat="42.024586" lon="2.788500">
        <ele>132.526</ele>
        <time>2021-02-02T12:02:30Z</time>
      </trkpt>
      <trkpt lat="42.024600" lon="2.788652">
        <ele>130.908</ele>
        <time>2021-02-02T12:02:31Z</time>
      </trkpt>
      <trkpt lat="42.024607" lon="2.788971">
        <ele>129.034</ele>
        <time>2021-02-02T12:02:33Z</time>
      </trkpt>
      <trkpt lat="42.024589" lon="2.789294">
        <ele>127.243</ele>
        <time>2021-02-02T12:02:35Z</time>
      </trkpt>
      <trkpt lat="42.024574" lon="2.789455">
        <ele>126.468</ele>
        <time>2021-02-02T12:02:36Z</time>
      </trkpt>
      <trkpt lat="42.024548" lon="2.789769">
        <ele>125.430</ele>
        <time>2021-02-02T12:02:38Z</time>
      </trkpt>
      <trkpt lat="42.024538" lon="2.789926">
        <ele>125.021</ele>
        <time>2021-02-02T12:02:39Z</time>
      </trkpt>
      <trkpt lat="42.024536" lon="2.790220">
        <ele>124.226</ele>
        <time>2021-02-02T12:02:41Z</time>
      </trkpt>
      <trkpt lat="42.024522" lon="2.790506">
        <ele>123.331</ele>
        <time>2021-02-02T12:02:43Z</time>
      </trkpt>
      <trkpt lat="42.024495" lon="2.790656">
        <ele>121.770</ele>
        <time>2021-02-02T12:02:44Z</time>
      </trkpt>
      <trkpt lat="42.024412" lon="2.790949">
        <ele>120.435</ele>
        <time>2021-02-02T12:02:46Z</time>
      </trkpt>
      <trkpt lat="42.024361" lon="2.791089">
        <ele>119.886</ele>
        <time>2021-02-02T12:02:47Z</time>
      </trkpt>
      <trkpt lat="42.024312" lon="2.791227">
        <ele>118.914</ele>
        <time>2021-02-02T12:02:48Z</time>
      </trkpt>
      <trkpt lat="42.024218" lon="2.791495">
        <ele>118.308</ele>
        <time>2021-02-02T12:02:50Z</time>
      </trkpt>
      <trkpt lat="42.024172" lon="2.791625">
        <ele>118.139</ele>
        <time>2021-02-02T12:02:51Z</time>
      </trkpt>
      <trkpt lat="42.024089" lon="2.791881">
        <ele>117.738</ele>
        <time>2021-02-02T12:02:53Z</time>
      </trkpt>
      <trkpt lat="42.024089" lon="2.791881">
        <ele>117.793</ele>
        <time>2021-02-02T12:02:53Z</time>
      </trkpt>
      <trkpt lat="42.024011" lon="2.792136">
        <ele>116.715</ele>
        <time>2021-02-02T12:02:55Z</time>
      </trkpt>
      <trkpt lat="42.023975" lon="2.792265">
        <ele>116.286</ele>
        <time>2021-02-02T12:02:56Z</time>
      </trkpt>
      <trkpt lat="42.023937" lon="2.792532">
        <ele>114.681</ele>
        <time>2021-02-02T12:02:58Z</time>
      </trkpt>
      <trkpt lat="42.023940" lon="2.792668">
        <ele>114.446</ele>
        <time>2021-02-02T12:02:59Z</time>
      </trkpt>
      <trkpt lat="42.023959" lon="2.792802">
        <ele>114.465</ele>
        <time>2021-02-02T12:03:00Z</time>
      </trkpt>
      <trkpt lat="42.024021" lon="2.793053">
        <ele>113.799</ele>
        <time>2021-02-02T12:03:02Z</time>
      </trkpt>
      <trkpt lat="42.024131" lon="2.793279">
        <ele>112.707</ele>
        <time>2021-02-02T12:03:04Z</time>
      </trkpt>
      <trkpt lat="42.024198" lon="2.793377">
        <ele>112.627</ele>
        <time>2021-02-02T12:03:05Z</time>
      </trkpt>
      <trkpt lat="42.024331" lon="2.793540">
        <ele>111.708</ele>
        <time>2021-02-02T12:03:07Z</time>
      </trkpt>
      <trkpt lat="42.024387" lon="2.793631">
        <ele>111.645</ele>
        <time>2021-02-02T12:03:08Z</time>
      </trkpt>
      <trkpt lat="42.024475" lon="2.793829">
        <ele>111.424</ele>
        <time>2021-02-02T12:03:10Z</time>
      </trkpt>
      <trkpt lat="42.024520" lon="2.793938">
        <ele>110.979</ele>
        <time>2021-02-02T12:03:11Z</time>
      </trkpt>
      <trkpt lat="42.024565" lon="2.794050">
        <ele>110.191</ele>
        <time>2021-02-02T12:03:12Z</time>
      </trkpt>
      <trkpt lat="42.024664" lon="2.794274">
        <ele>108.942</ele>
        <time>2021-02-02T12:03:14Z</time>
      </trkpt>
      <trkpt lat="42.024724" lon="2.794376">
        <ele>108.397</ele>
        <time>2021-02-02T12:03:15Z</time>
      </trkpt>
      <trkpt lat="42.024797" lon="2.794446">
        <ele>107.822</ele>
        <time>2021-02-02T12:03:16Z</time>
      </trkpt>
      <trkpt lat="42.024963" lon="2.794522">
        <ele>107.331</ele>
        <time>2021-02-02T12:03:18Z</time>
      </trkpt>
      <trkpt lat="42.025045" lon="2.794574">
        <ele>107.148</ele>
        <time>2021-02-02T12:03:19Z</time>
      </trkpt>
      <trkpt lat="42.025180" lon="2.794724">
        <ele>107.061</ele>
        <time>2021-02-02T12:03:21Z</time>
      </trkpt>
      <trkpt lat="42.025210" lon="2.794824">
        <ele>107.417</ele>
        <time>2021-02-02T12:03:22Z</time>
      </trkpt>
      <trkpt lat="42.025210" lon="2.794824">
        <ele>107.408</ele>
        <time>2021-02-02T12:03:22Z</time>
      </trkpt>
      <trkpt lat="42.025259" lon="2.795008">
        <ele>107.560</ele>
        <time>2021-02-02T12:03:24Z</time>
      </trkpt>
      <trkpt lat="42.025315" lon="2.795187">
        <ele>107.229</ele>
        <time>2021-02-02T12:03:26Z</time>
      </trkpt>
      <trkpt lat="42.025346" lon="2.795273">
        <ele>107.494</ele>
        <time>2021-02-02T12:03:27Z</time>
      </trkpt>
      <trkpt lat="42.025374" lon="2.795356">
        <ele>108.046</ele>
        <time>2021-02-02T12:03:28Z</time>
      </trkpt>
      <trkpt lat="42.025431" lon="2.795510">
        <ele>108.487</ele>
        <time>2021-02-02T12:03:30Z</time>
      </trkpt>
      <trkpt lat="42.025488" lon="2.795646">
        <ele>108.792</ele>
        <time>2021-02-02T12:03:32Z</time>
      </trkpt>
      <trkpt lat="42.025555" lon="2.795755">
        <ele>108.527</ele>
        <time>2021-02-02T12:03:34Z</time>
      </trkpt>
      <trkpt lat="42.025600" lon="2.795814">
        <ele>108.246</ele>
        <time>2021-02-02T12:03:35Z</time>
      </trkpt>
      <trkpt lat="42.025700" lon="2.795963">
        <ele>106.414</ele>
        <time>2021-02-02T12:03:37Z</time>
      </trkpt>
      <trkpt lat="42.025746" lon="2.796055">
        <ele>105.754</ele>
        <time>2021-02-02T12:03:38Z</time>
      </trkpt>
      <trkpt lat="42.025826" lon="2.796276">
        <ele>104.309</ele>
        <time>2021-02-02T12:03:40Z</time>
      </trkpt>
      <trkpt lat="42.025887" lon="2.796526">
        <ele>102.308</ele>
        <time>2021-02-02T12:03:42Z</time>
      </trkpt>
      <trkpt lat="42.025919" lon="2.796801">
        <ele>100.647</ele>
        <time>2021-02-02T12:03:44Z</time>
      </trkpt>
      <trkpt lat="42.025896" lon="2.797064">
        <ele>99.616</ele>
        <time>2021-02-02T12:03:46Z</time>
      </trkpt>
      <trkpt lat="42.025818" lon="2.797296">
        <ele>98.631</ele>
        <time>2021-02-02T12:03:48Z</time>
      </trkpt>
      <trkpt lat="42.025705" lon="2.797478">
        <ele>97.583</ele>
        <time>2021-02-02T12:03:50Z</time>
      </trkpt>
      <trkpt lat="42.025576" lon="2.797658">
        <ele>96.174</ele>
        <time>2021-02-02T12:03:52Z</time>
      </trkpt>
      <trkpt lat="42.025532" lon="2.797766">
        <ele>95.929</ele>
        <time>2021-02-02T12:03:53Z</time>
      </trkpt>
      <trkpt lat="42.025501" lon="2.797866">
        <ele>96.784</ele>
        <time>2021-02-02T12:03:54Z</time>
      </trkpt>
      <trkpt lat="42.025446" lon="2.798034">
        <ele>98.223</ele>
        <time>2021-02-02T12:03:56Z</time>
      </trkpt>
      <trkpt lat="42.025420" lon="2.798095">
        <ele>98.432</ele>
        <time>2021-02-02T12:03:57Z</time>
      </trkpt>
      <trkpt lat="42.025369" lon="2.798198">
        <ele>98.992</ele>
        <time>2021-02-02T12:03:59Z</time>
      </trkpt>
      <trkpt lat="42.025313" lon="2.798305">
        <ele>99.311</ele>
        <time>2021-02-02T12:04:01Z</time>
      </trkpt>
      <trkpt lat="42.025262" lon="2.798394">
        <ele>99.508</ele>
        <time>2021-02-02T12:04:03Z</time>
      </trkpt>
      <trkpt lat="42.025199" lon="2.798504">
        <ele>100.219</ele>
        <time>2021-02-02T12:04:05Z</time>
      </trkpt>
      <trkpt lat="42.025160" lon="2.798579">
        <ele>101.318</ele>
        <time>2021-02-02T12:04:08Z</time>
      </trkpt>
      <trkpt lat="42.025140" lon="2.798658">
        <ele>101.583</ele>
        <time>2021-02-02T12:04:10Z</time>
      </trkpt>
      <trkpt lat="42.025142" lon="2.798759">
        <ele>102.345</ele>
        <time>2021-02-02T12:04:12Z</time>
      </trkpt>
      <trkpt lat="42.025159" lon="2.798850">
        <ele>102.946</ele>
        <time>2021-02-02T12:04:14Z</time>
      </trkpt>
      <trkpt lat="42.025195" lon="2.798927">
        <ele>103.011</ele>
        <time>2021-02-02T12:04:16Z</time>
      </trkpt>
      <trkpt lat="42.025246" lon="2.798991">
        <ele>103.226</ele>
        <time>2021-02-02T12:04:18Z</time>
      </trkpt>
      <trkpt lat="42.025309" lon="2.799038">
        <ele>103.235</ele>
        <time>2021-02-02T12:04:20Z</time>
      </trkpt>
      <trkpt lat="42.025366" lon="2.799091">
        <ele>103.114</ele>
        <time>2021-02-02T12:04:22Z</time>
      </trkpt>
      <trkpt lat="42.025431" lon="2.799152">
        <ele>103.154</ele>
        <time>2021-02-02T12:04:24Z</time>
      </trkpt>
      <trkpt lat="42.025483" lon="2.799197">
        <ele>103.109</ele>
        <time>2021-02-02T12:04:26Z</time>
      </trkpt>
      <trkpt lat="42.025535" lon="2.799244">
        <ele>103.508</ele>
        <time>2021-02-02T12:04:28Z</time>
      </trkpt>
      <trkpt lat="42.025581" lon="2.799292">
        <ele>103.997</ele>
        <time>2021-02-02T12:04:30Z</time>
      </trkpt>
      <trkpt lat="42.025621" lon="2.799336">
        <ele>104.276</ele>
        <time>2021-02-02T12:04:32Z</time>
      </trkpt>
      <trkpt lat="42.025657" lon="2.799383">
        <ele>104.261</ele>
        <time>2021-02-02T12:04:34Z</time>
      </trkpt>
      <trkpt lat="42.025691" lon="2.799441">
        <ele>104.433</ele>
        <time>2021-02-02T12:04:36Z</time>
      </trkpt>
      <trkpt lat="42.025717" lon="2.799502">
        <ele>105.154</ele>
        <time>2021-02-02T12:04:38Z</time>
      </trkpt>
      <trkpt lat="42.025747" lon="2.799577">
        <ele>105.569</ele>
        <time>2021-02-02T12:04:41Z</time>
      </trkpt>
      <trkpt lat="42.025775" lon="2.799651">
        <ele>106.194</ele>
        <time>2021-02-02T12:04:44Z</time>
      </trkpt>
      <trkpt lat="42.025810" lon="2.799724">
        <ele>107.053</ele>
        <time>2021-02-02T12:04:47Z</time>
      </trkpt>
      <trkpt lat="42.025840" lon="2.799786">
        <ele>107.371</ele>
        <time>2021-02-02T12:04:50Z</time>
      </trkpt>
      <trkpt lat="42.025869" lon="2.799857">
        <ele>107.841</ele>
        <time>2021-02-02T12:04:53Z</time>
      </trkpt>
      <trkpt lat="42.025885" lon="2.799930">
        <ele>108.315</ele>
        <time>2021-02-02T12:04:56Z</time>
      </trkpt>
      <trkpt lat="42.025893" lon="2.800010">
        <ele>108.708</ele>
        <time>2021-02-02T12:04:59Z</time>
      </trkpt>
      <trkpt lat="42.025904" lon="2.800086">
        <ele>109.133</ele>
        <time>2021-02-02T12:05:02Z</time>
      </trkpt>
      <trkpt lat="42.025906" lon="2.800153">
        <ele>108.972</ele>
        <time>2021-02-02T12:05:04Z</time>
      </trkpt>
      <trkpt lat="42.025913" lon="2.800224">
        <ele>108.877</ele>
        <time>2021-02-02T12:05:06Z</time>
      </trkpt>
      <trkpt lat="42.025910" lon="2.800328">
        <ele>108.399</ele>
        <time>2021-02-02T12:05:08Z</time>
      </trkpt>
      <trkpt lat="42.025892" lon="2.800454">
        <ele>107.730</ele>
        <time>2021-02-02T12:05:10Z</time>
      </trkpt>
      <trkpt lat="42.025883" lon="2.800521">
        <ele>107.475</ele>
        <time>2021-02-02T12:05:11Z</time>
      </trkpt>
      <trkpt lat="42.025863" lon="2.800673">
        <ele>106.540</ele>
        <time>2021-02-02T12:05:13Z</time>
      </trkpt>
      <trkpt lat="42.025834" lon="2.800835">
        <ele>106.129</ele>
        <time>2021-02-02T12:05:15Z</time>
      </trkpt>
      <trkpt lat="42.025797" lon="2.800998">
        <ele>105.516</ele>
        <time>2021-02-02T12:05:17Z</time>
      </trkpt>
      <trkpt lat="42.025785" lon="2.801079">
        <ele>105.676</ele>
        <time>2021-02-02T12:05:18Z</time>
      </trkpt>
      <trkpt lat="42.025786" lon="2.801157">
        <ele>105.613</ele>
        <time>2021-02-02T12:05:19Z</time>
      </trkpt>
      <trkpt lat="42.025801" lon="2.801305">
        <ele>105.308</ele>
        <time>2021-02-02T12:05:21Z</time>
      </trkpt>
      <trkpt lat="42.025807" lon="2.801385">
        <ele>105.277</ele>
        <time>2021-02-02T12:05:22Z</time>
      </trkpt>
      <trkpt lat="42.025803" lon="2.801475">
        <ele>104.776</ele>
        <time>2021-02-02T12:05:23Z</time>
      </trkpt>
      <trkpt lat="42.025803" lon="2.801475">
        <ele>104.771</ele>
        <time>2021-02-02T12:05:23Z</time>
      </trkpt>
      <trkpt lat="42.025751" lon="2.801636">
        <ele>104.213</ele>
        <time>2021-02-02T12:05:25Z</time>
      </trkpt>
      <trkpt lat="42.025703" lon="2.801687">
        <ele>104.484</ele>
        <time>2021-02-02T12:05:26Z</time>
      </trkpt>
      <trkpt lat="42.025603" lon="2.801773">
        <ele>104.569</ele>
        <time>2021-02-02T12:05:28Z</time>
      </trkpt>
      <trkpt lat="42.025552" lon="2.801817">
        <ele>104.234</ele>
        <time>2021-02-02T12:05:29Z</time>
      </trkpt>
      <trkpt lat="42.025552" lon="2.801817">
        <ele>104.293</ele>
        <time>2021-02-02T12:05:29Z</time>
      </trkpt>
      <trkpt lat="42.025456" lon="2.801911">
        <ele>104.223</ele>
        <time>2021-02-02T12:05:31Z</time>
      </trkpt>
      <trkpt lat="42.025411" lon="2.801961">
        <ele>104.283</ele>
        <time>2021-02-02T12:05:32Z</time>
      </trkpt>
      <trkpt lat="42.025329" lon="2.802065">
        <ele>103.911</ele>
        <time>2021-02-02T12:05:34Z</time>
      </trkpt>
      <trkpt lat="42.025292" lon="2.802120">
        <ele>103.508</ele>
        <time>2021-02-02T12:05:35Z</time>
      </trkpt>
      <trkpt lat="42.025292" lon="2.802120">
        <ele>103.568</ele>
        <time>2021-02-02T12:05:35Z</time>
      </trkpt>
      <trkpt lat="42.025247" lon="2.802273">
        <ele>103.027</ele>
        <time>2021-02-02T12:05:37Z</time>
      </trkpt>
      <trkpt lat="42.025262" lon="2.802430">
        <ele>102.942</ele>
        <time>2021-02-02T12:05:39Z</time>
      </trkpt>
      <trkpt lat="42.025281" lon="2.802544">
        <ele>103.514</ele>
        <time>2021-02-02T12:05:41Z</time>
      </trkpt>
      <trkpt lat="42.025280" lon="2.802675">
        <ele>104.245</ele>
        <time>2021-02-02T12:05:43Z</time>
      </trkpt>
      <trkpt lat="42.025260" lon="2.802753">
        <ele>104.850</ele>
        <time>2021-02-02T12:05:45Z</time>
      </trkpt>
      <trkpt lat="42.025209" lon="2.802803">
        <ele>105.275</ele>
        <time>2021-02-02T12:05:47Z</time>
      </trkpt>
      <trkpt lat="42.025135" lon="2.802840">
        <ele>105.034</ele>
        <time>2021-02-02T12:05:49Z</time>
      </trkpt>
      <trkpt lat="42.025059" lon="2.802869">
        <ele>105.463</ele>
        <time>2021-02-02T12:05:51Z</time>
      </trkpt>
      <trkpt lat="42.024993" lon="2.802903">
        <ele>105.544</ele>
        <time>2021-02-02T12:05:53Z</time>
      </trkpt>
      <trkpt lat="42.024939" lon="2.802933">
        <ele>106.118</ele>
        <time>2021-02-02T12:05:55Z</time>
      </trkpt>
      <trkpt lat="42.024882" lon="2.802970">
        <ele>106.408</ele>
        <time>2021-02-02T12:05:57Z</time>
      </trkpt>
      <trkpt lat="42.024834" lon="2.803005">
        <ele>106.662</ele>
        <time>2021-02-02T12:05:59Z</time>
      </trkpt>
      <trkpt lat="42.024780" lon="2.803046">
        <ele>107.111</ele>
        <time>2021-02-02T12:06:01Z</time>
      </trkpt>
      <trkpt lat="42.024730" lon="2.803077">
        <ele>107.456</ele>
        <time>2021-02-02T12:06:03Z</time>
      </trkpt>
      <trkpt lat="42.024679" lon="2.803104">
        <ele>108.538</ele>
        <time>2021-02-02T12:06:05Z</time>
      </trkpt>
      <trkpt lat="42.024627" lon="2.803138">
        <ele>109.219</ele>
        <time>2021-02-02T12:06:07Z</time>
      </trkpt>
      <trkpt lat="42.024580" lon="2.803167">
        <ele>109.554</ele>
        <time>2021-02-02T12:06:09Z</time>
      </trkpt>
      <trkpt lat="42.024529" lon="2.803202">
        <ele>110.379</ele>
        <time>2021-02-02T12:06:11Z</time>
      </trkpt>
      <trkpt lat="42.024487" lon="2.803248">
        <ele>110.048</ele>
        <time>2021-02-02T12:06:13Z</time>
      </trkpt>
      <trkpt lat="42.024443" lon="2.803277">
        <ele>110.458</ele>
        <time>2021-02-02T12:06:15Z</time>
      </trkpt>
      <trkpt lat="42.024395" lon="2.803305">
        <ele>110.352</ele>
        <time>2021-02-02T12:06:17Z</time>
      </trkpt>
      <trkpt lat="42.024326" lon="2.803354">
        <ele>110.617</ele>
        <time>2021-02-02T12:06:19Z</time>
      </trkpt>
      <trkpt lat="42.024276" lon="2.803427">
        <ele>110.808</ele>
        <time>2021-02-02T12:06:21Z</time>
      </trkpt>
      <trkpt lat="42.024240" lon="2.803512">
        <ele>110.741</ele>
        <time>2021-02-02T12:06:23Z</time>
      </trkpt>
      <trkpt lat="42.024206" lon="2.803602">
        <ele>111.150</ele>
        <time>2021-02-02T12:06:25Z</time>
      </trkpt>
      <trkpt lat="42.024170" lon="2.803702">
        <ele>111.385</ele>
        <time>2021-02-02T12:06:27Z</time>
      </trkpt>
      <trkpt lat="42.024142" lon="2.803786">
        <ele>111.487</ele>
        <time>2021-02-02T12:06:29Z</time>
      </trkpt>
      <trkpt lat="42.024120" lon="2.803869">
        <ele>111.458</ele>
        <time>2021-02-02T12:06:31Z</time>
      </trkpt>
      <trkpt lat="42.024099" lon="2.803953">
        <ele>111.613</ele>
        <time>2021-02-02T12:06:33Z</time>
      </trkpt>
      <trkpt lat="42.024084" lon="2.804039">
        <ele>111.678</ele>
        <time>2021-02-02T12:06:35Z</time>
      </trkpt>
      <trkpt lat="42.024084" lon="2.804039">
        <ele>111.667</ele>
        <time>2021-02-02T12:06:35Z</time>
      </trkpt>
      <trkpt lat="42.024063" lon="2.804135">
        <ele>111.877</ele>
        <time>2021-02-02T12:06:37Z</time>
      </trkpt>
      <trkpt lat="42.024034" lon="2.804236">
        <ele>111.961</ele>
        <time>2021-02-02T12:06:39Z</time>
      </trkpt>
      <trkpt lat="42.024007" lon="2.804331">
        <ele>112.127</ele>
        <time>2021-02-02T12:06:41Z</time>
      </trkpt>
      <trkpt lat="42.023979" lon="2.804403">
        <ele>112.008</ele>
        <time>2021-02-02T12:06:43Z</time>
      </trkpt>
      <trkpt lat="42.023938" lon="2.804462">
        <ele>112.093</ele>
        <time>2021-02-02T12:06:45Z</time>
      </trkpt>
      <trkpt lat="42.023876" lon="2.804520">
        <ele>112.622</ele>
        <time>2021-02-02T12:06:47Z</time>
      </trkpt>
      <trkpt lat="42.023834" lon="2.804568">
        <ele>113.097</ele>
        <time>2021-02-02T12:06:49Z</time>
      </trkpt>
      <trkpt lat="42.023777" lon="2.804636">
        <ele>113.089</ele>
        <time>2021-02-02T12:06:51Z</time>
      </trkpt>
      <trkpt lat="42.023737" lon="2.804682">
        <ele>113.370</ele>
        <time>2021-02-02T12:06:53Z</time>
      </trkpt>
      <trkpt lat="42.023689" lon="2.804735">
        <ele>113.155</ele>
        <time>2021-02-02T12:06:54Z</time>
      </trkpt>
      <trkpt lat="42.023629" lon="2.804795">
        <ele>113.280</ele>
        <time>2021-02-02T12:06:56Z</time>
      </trkpt>
      <trkpt lat="42.023583" lon="2.804854">
        <ele>113.219</ele>
        <time>2021-02-02T12:06:57Z</time>
      </trkpt>
      <trkpt lat="42.023526" lon="2.804935">
        <ele>113.415</ele>
        <time>2021-02-02T12:06:59Z</time>
      </trkpt>
      <trkpt lat="42.023478" lon="2.805007">
        <ele>113.565</ele>
        <time>2021-02-02T12:07:01Z</time>
      </trkpt>
      <trkpt lat="42.023425" lon="2.805073">
        <ele>113.711</ele>
        <time>2021-02-02T12:07:03Z</time>
      </trkpt>
      <trkpt lat="42.023380" lon="2.805132">
        <ele>113.608</ele>
        <time>2021-02-02T12:07:05Z</time>
      </trkpt>
      <trkpt lat="42.023321" lon="2.805214">
        <ele>113.577</ele>
        <time>2021-02-02T12:07:07Z</time>
      </trkpt>
      <trkpt lat="42.023241" lon="2.805306">
        <ele>113.286</ele>
        <time>2021-02-02T12:07:09Z</time>
      </trkpt>
      <trkpt lat="42.023190" lon="2.805362">
        <ele>113.111</ele>
        <time>2021-02-02T12:07:10Z</time>
      </trkpt>
      <trkpt lat="42.023149" lon="2.805404">
        <ele>112.943</ele>
        <time>2021-02-02T12:07:12Z</time>
      </trkpt>
      <trkpt lat="42.023090" lon="2.805463">
        <ele>113.064</ele>
        <time>2021-02-02T12:07:13Z</time>
      </trkpt>
      <trkpt lat="42.023025" lon="2.805532">
        <ele>113.129</ele>
        <time>2021-02-02T12:07:15Z</time>
      </trkpt>
      <trkpt lat="42.022939" lon="2.805629">
        <ele>112.744</ele>
        <time>2021-02-02T12:07:17Z</time>
      </trkpt>
      <trkpt lat="42.022892" lon="2.805698">
        <ele>112.783</ele>
        <time>2021-02-02T12:07:19Z</time>
      </trkpt>
      <trkpt lat="42.022853" lon="2.805731">
        <ele>112.172</ele>
        <time>2021-02-02T12:07:21Z</time>
      </trkpt>
      <trkpt lat="42.022791" lon="2.805878">
        <ele>111.513</ele>
        <time>2021-02-02T12:07:22Z</time>
      </trkpt>
      <trkpt lat="42.022756" lon="2.805948">
        <ele>111.014</ele>
        <time>2021-02-02T12:07:23Z</time>
      </trkpt>
      <trkpt lat="42.022657" lon="2.806069">
        <ele>110.508</ele>
        <time>2021-02-02T12:07:25Z</time>
      </trkpt>
      <trkpt lat="42.022657" lon="2.806069">
        <ele>110.513</ele>
        <time>2021-02-02T12:07:25Z</time>
      </trkpt>
      <trkpt lat="42.022588" lon="2.806104">
        <ele>110.292</ele>
        <time>2021-02-02T12:07:26Z</time>
      </trkpt>
      <trkpt lat="42.022518" lon="2.806128">
        <ele>110.227</ele>
        <time>2021-02-02T12:07:27Z</time>
      </trkpt>
      <trkpt lat="42.022378" lon="2.806178">
        <ele>110.989</ele>
        <time>2021-02-02T12:07:29Z</time>
      </trkpt>
      <trkpt lat="42.022235" lon="2.806238">
        <ele>111.250</ele>
        <time>2021-02-02T12:07:31Z</time>
      </trkpt>
      <trkpt lat="42.022114" lon="2.806300">
        <ele>111.645</ele>
        <time>2021-02-02T12:07:33Z</time>
      </trkpt>
      <trkpt lat="42.022060" lon="2.806329">
        <ele>111.910</ele>
        <time>2021-02-02T12:07:34Z</time>
      </trkpt>
      <trkpt lat="42.021964" lon="2.806374">
        <ele>112.569</ele>
        <time>2021-02-02T12:07:36Z</time>
      </trkpt>
      <trkpt lat="42.021964" lon="2.806374">
        <ele>112.579</ele>
        <time>2021-02-02T12:07:36Z</time>
      </trkpt>
      <trkpt lat="42.021892" lon="2.806405">
        <ele>113.405</ele>
        <time>2021-02-02T12:07:38Z</time>
      </trkpt>
      <trkpt lat="42.021821" lon="2.806438">
        <ele>113.625</ele>
        <time>2021-02-02T12:07:40Z</time>
      </trkpt>
      <trkpt lat="42.021758" lon="2.806465">
        <ele>114.008</ele>
        <time>2021-02-02T12:07:42Z</time>
      </trkpt>
      <trkpt lat="42.021758" lon="2.806465">
        <ele>114.013</ele>
        <time>2021-02-02T12:07:42Z</time>
      </trkpt>
      <trkpt lat="42.021686" lon="2.806506">
        <ele>114.552</ele>
        <time>2021-02-02T12:07:44Z</time>
      </trkpt>
      <trkpt lat="42.021623" lon="2.806546">
        <ele>114.767</ele>
        <time>2021-02-02T12:07:46Z</time>
      </trkpt>
      <trkpt lat="42.021623" lon="2.806546">
        <ele>114.719</ele>
        <time>2021-02-02T12:07:46Z</time>
      </trkpt>
      <trkpt lat="42.021570" lon="2.806594">
        <ele>115.140</ele>
        <time>2021-02-02T12:07:48Z</time>
      </trkpt>
      <trkpt lat="42.021513" lon="2.806669">
        <ele>115.655</ele>
        <time>2021-02-02T12:07:50Z</time>
      </trkpt>
      <trkpt lat="42.021473" lon="2.806733">
        <ele>115.830</ele>
        <time>2021-02-02T12:07:52Z</time>
      </trkpt>
      <trkpt lat="42.021442" lon="2.806779">
        <ele>116.189</ele>
        <time>2021-02-02T12:07:54Z</time>
      </trkpt>
      <trkpt lat="42.021394" lon="2.806842">
        <ele>116.676</ele>
        <time>2021-02-02T12:07:59Z</time>
      </trkpt>
      <trkpt lat="42.021345" lon="2.806879">
        <ele>116.790</ele>
        <time>2021-02-02T12:08:01Z</time>
      </trkpt>
      <trkpt lat="42.021289" lon="2.806923">
        <ele>116.619</ele>
        <time>2021-02-02T12:08:03Z</time>
      </trkpt>
      <trkpt lat="42.021230" lon="2.806953">
        <ele>116.708</ele>
        <time>2021-02-02T12:08:05Z</time>
      </trkpt>
      <trkpt lat="42.021160" lon="2.806985">
        <ele>117.143</ele>
        <time>2021-02-02T12:08:07Z</time>
      </trkpt>
      <trkpt lat="42.021088" lon="2.807014">
        <ele>117.372</ele>
        <time>2021-02-02T12:08:09Z</time>
      </trkpt>
      <trkpt lat="42.021018" lon="2.807055">
        <ele>117.877</ele>
        <time>2021-02-02T12:08:11Z</time>
      </trkpt>
      <trkpt lat="42.020944" lon="2.807097">
        <ele>118.179</ele>
        <time>2021-02-02T12:08:13Z</time>
      </trkpt>
      <trkpt lat="42.020881" lon="2.807122">
        <ele>118.370</ele>
        <time>2021-02-02T12:08:15Z</time>
      </trkpt>
      <trkpt lat="42.020819" lon="2.807144">
        <ele>118.725</ele>
        <time>2021-02-02T12:08:17Z</time>
      </trkpt>
      <trkpt lat="42.020751" lon="2.807169">
        <ele>119.110</ele>
        <time>2021-02-02T12:08:19Z</time>
      </trkpt>
      <trkpt lat="42.020674" lon="2.807201">
        <ele>119.269</ele>
        <time>2021-02-02T12:08:21Z</time>
      </trkpt>
      <trkpt lat="42.020601" lon="2.807217">
        <ele>119.422</ele>
        <time>2021-02-02T12:08:23Z</time>
      </trkpt>
      <trkpt lat="42.020520" lon="2.807230">
        <ele>119.962</ele>
        <time>2021-02-02T12:08:25Z</time>
      </trkpt>
      <trkpt lat="42.020452" lon="2.807248">
        <ele>120.208</ele>
        <time>2021-02-02T12:08:27Z</time>
      </trkpt>
      <trkpt lat="42.020383" lon="2.807287">
        <ele>120.508</ele>
        <time>2021-02-02T12:08:29Z</time>
      </trkpt>
      <trkpt lat="42.020333" lon="2.807325">
        <ele>121.048</ele>
        <time>2021-02-02T12:08:31Z</time>
      </trkpt>
      <trkpt lat="42.020268" lon="2.807372">
        <ele>121.187</ele>
        <time>2021-02-02T12:08:33Z</time>
      </trkpt>
      <trkpt lat="42.020203" lon="2.807417">
        <ele>121.392</ele>
        <time>2021-02-02T12:08:35Z</time>
      </trkpt>
      <trkpt lat="42.020135" lon="2.807456">
        <ele>121.324</ele>
        <time>2021-02-02T12:08:37Z</time>
      </trkpt>
      <trkpt lat="42.020055" lon="2.807501">
        <ele>122.175</ele>
        <time>2021-02-02T12:08:39Z</time>
      </trkpt>
      <trkpt lat="42.019995" lon="2.807547">
        <ele>122.340</ele>
        <time>2021-02-02T12:08:41Z</time>
      </trkpt>
      <trkpt lat="42.019955" lon="2.807611">
        <ele>122.655</ele>
        <time>2021-02-02T12:08:43Z</time>
      </trkpt>
      <trkpt lat="42.019913" lon="2.807678">
        <ele>123.124</ele>
        <time>2021-02-02T12:08:45Z</time>
      </trkpt>
      <trkpt lat="42.019880" lon="2.807743">
        <ele>123.754</ele>
        <time>2021-02-02T12:08:47Z</time>
      </trkpt>
      <trkpt lat="42.019856" lon="2.807799">
        <ele>124.056</ele>
        <time>2021-02-02T12:08:49Z</time>
      </trkpt>
      <trkpt lat="42.019829" lon="2.807866">
        <ele>125.111</ele>
        <time>2021-02-02T12:08:52Z</time>
      </trkpt>
      <trkpt lat="42.019802" lon="2.807928">
        <ele>125.608</ele>
        <time>2021-02-02T12:08:55Z</time>
      </trkpt>
      <trkpt lat="42.019802" lon="2.807928">
        <ele>125.611</ele>
        <time>2021-02-02T12:08:55Z</time>
      </trkpt>
      <trkpt lat="42.019777" lon="2.807985">
        <ele>126.060</ele>
        <time>2021-02-02T12:08:58Z</time>
      </trkpt>
      <trkpt lat="42.019724" lon="2.808045">
        <ele>126.375</ele>
        <time>2021-02-02T12:09:01Z</time>
      </trkpt>
      <trkpt lat="42.019671" lon="2.808078">
        <ele>126.417</ele>
        <time>2021-02-02T12:09:03Z</time>
      </trkpt>
      <trkpt lat="42.019616" lon="2.808104">
        <ele>126.668</ele>
        <time>2021-02-02T12:09:05Z</time>
      </trkpt>
      <trkpt lat="42.019560" lon="2.808136">
        <ele>127.073</ele>
        <time>2021-02-02T12:09:07Z</time>
      </trkpt>
      <trkpt lat="42.019499" lon="2.808171">
        <ele>126.558</ele>
        <time>2021-02-02T12:09:09Z</time>
      </trkpt>
      <trkpt lat="42.019448" lon="2.808214">
        <ele>126.957</ele>
        <time>2021-02-02T12:09:11Z</time>
      </trkpt>
      <trkpt lat="42.019409" lon="2.808252">
        <ele>127.152</ele>
        <time>2021-02-02T12:09:13Z</time>
      </trkpt>
      <trkpt lat="42.019367" lon="2.808308">
        <ele>127.353</ele>
        <time>2021-02-02T12:09:15Z</time>
      </trkpt>
      <trkpt lat="42.019318" lon="2.808360">
        <ele>127.708</ele>
        <time>2021-02-02T12:09:17Z</time>
      </trkpt>
      <trkpt lat="42.019265" lon="2.808403">
        <ele>127.408</ele>
        <time>2021-02-02T12:09:19Z</time>
      </trkpt>
      <trkpt lat="42.019203" lon="2.808434">
        <ele>127.741</ele>
        <time>2021-02-02T12:09:21Z</time>
      </trkpt>
      <trkpt lat="42.019131" lon="2.808457">
        <ele>127.930</ele>
        <time>2021-02-02T12:09:23Z</time>
      </trkpt>
      <trkpt lat="42.019056" lon="2.808476">
        <ele>127.755</ele>
        <time>2021-02-02T12:09:25Z</time>
      </trkpt>
      <trkpt lat="42.018969" lon="2.808483">
        <ele>127.957</ele>
        <time>2021-02-02T12:09:27Z</time>
      </trkpt>
      <trkpt lat="42.018884" lon="2.808488">
        <ele>128.238</ele>
        <time>2021-02-02T12:09:29Z</time>
      </trkpt>
      <trkpt lat="42.018803" lon="2.808496">
        <ele>128.553</ele>
        <time>2021-02-02T12:09:31Z</time>
      </trkpt>
      <trkpt lat="42.018758" lon="2.808494">
        <ele>128.768</ele>
        <time>2021-02-02T12:09:32Z</time>
      </trkpt>
      <trkpt lat="42.018690" lon="2.808493">
        <ele>128.647</ele>
        <time>2021-02-02T12:09:34Z</time>
      </trkpt>
      <trkpt lat="42.018639" lon="2.808491">
        <ele>128.893</ele>
        <time>2021-02-02T12:09:35Z</time>
      </trkpt>
      <trkpt lat="42.018565" lon="2.808489">
        <ele>128.565</ele>
        <time>2021-02-02T12:09:37Z</time>
      </trkpt>
      <trkpt lat="42.018508" lon="2.808494">
        <ele>128.321</ele>
        <time>2021-02-02T12:09:38Z</time>
      </trkpt>
      <trkpt lat="42.018455" lon="2.808497">
        <ele>128.308</ele>
        <time>2021-02-02T12:09:39Z</time>
      </trkpt>
      <trkpt lat="42.018360" lon="2.808502">
        <ele>128.335</ele>
        <time>2021-02-02T12:09:41Z</time>
      </trkpt>
      <trkpt lat="42.018313" lon="2.808502">
        <ele>128.374</ele>
        <time>2021-02-02T12:09:42Z</time>
      </trkpt>
      <trkpt lat="42.018180" lon="2.808511">
        <ele>128.339</ele>
        <time>2021-02-02T12:09:44Z</time>
      </trkpt>
      <trkpt lat="42.018073" lon="2.808520">
        <ele>128.571</ele>
        <time>2021-02-02T12:09:46Z</time>
      </trkpt>
      <trkpt lat="42.018029" lon="2.808482">
        <ele>128.472</ele>
        <time>2021-02-02T12:09:48Z</time>
      </trkpt>
      <trkpt lat="42.017931" lon="2.808537">
        <ele>128.637</ele>
        <time>2021-02-02T12:09:49Z</time>
      </trkpt>
      <trkpt lat="42.017841" lon="2.808570">
        <ele>128.542</ele>
        <time>2021-02-02T12:09:52Z</time>
      </trkpt>
      <trkpt lat="42.017697" lon="2.808620">
        <ele>128.711</ele>
        <time>2021-02-02T12:09:54Z</time>
      </trkpt>
      <trkpt lat="42.017640" lon="2.808629">
        <ele>128.856</ele>
        <time>2021-02-02T12:09:55Z</time>
      </trkpt>
      <trkpt lat="42.017590" lon="2.808637">
        <ele>128.659</ele>
        <time>2021-02-02T12:09:56Z</time>
      </trkpt>
      <trkpt lat="42.017482" lon="2.808628">
        <ele>128.614</ele>
        <time>2021-02-02T12:09:58Z</time>
      </trkpt>
      <trkpt lat="42.017383" lon="2.808601">
        <ele>128.708</ele>
        <time>2021-02-02T12:10:00Z</time>
      </trkpt>
      <trkpt lat="42.017296" lon="2.808549">
        <ele>128.371</ele>
        <time>2021-02-02T12:10:02Z</time>
      </trkpt>
      <trkpt lat="42.017189" lon="2.808495">
        <ele>127.790</ele>
        <time>2021-02-02T12:10:04Z</time>
      </trkpt>
      <trkpt lat="42.017075" lon="2.808439">
        <ele>126.855</ele>
        <time>2021-02-02T12:10:06Z</time>
      </trkpt>
      <trkpt lat="42.016928" lon="2.808399">
        <ele>126.367</ele>
        <time>2021-02-02T12:10:08Z</time>
      </trkpt>
      <trkpt lat="42.016853" lon="2.808416">
        <ele>126.028</ele>
        <time>2021-02-02T12:10:09Z</time>
      </trkpt>
      <trkpt lat="42.016783" lon="2.808441">
        <ele>125.533</ele>
        <time>2021-02-02T12:10:10Z</time>
      </trkpt>
      <trkpt lat="42.016672" lon="2.808519">
        <ele>125.058</ele>
        <time>2021-02-02T12:10:12Z</time>
      </trkpt>
      <trkpt lat="42.016613" lon="2.808544">
        <ele>124.757</ele>
        <time>2021-02-02T12:10:13Z</time>
      </trkpt>
      <trkpt lat="42.016496" lon="2.808560">
        <ele>123.589</ele>
        <time>2021-02-02T12:10:15Z</time>
      </trkpt>
      <trkpt lat="42.016430" lon="2.808563">
        <ele>123.806</ele>
        <time>2021-02-02T12:10:16Z</time>
      </trkpt>
      <trkpt lat="42.016307" lon="2.808564">
        <ele>123.526</ele>
        <time>2021-02-02T12:10:18Z</time>
      </trkpt>
      <trkpt lat="42.016307" lon="2.808564">
        <ele>123.508</ele>
        <time>2021-02-02T12:10:18Z</time>
      </trkpt>
      <trkpt lat="42.016248" lon="2.808566">
        <ele>123.594</ele>
        <time>2021-02-02T12:10:19Z</time>
      </trkpt>
      <trkpt lat="42.016248" lon="2.808566">
        <ele>123.533</ele>
        <time>2021-02-02T12:10:19Z</time>
      </trkpt>
      <trkpt lat="42.016128" lon="2.808571">
        <ele>122.948</ele>
        <time>2021-02-02T12:10:21Z</time>
      </trkpt>
      <trkpt lat="42.016065" lon="2.808571">
        <ele>122.710</ele>
        <time>2021-02-02T12:10:22Z</time>
      </trkpt>
      <trkpt lat="42.016001" lon="2.808576">
        <ele>122.531</ele>
        <time>2021-02-02T12:10:23Z</time>
      </trkpt>
      <trkpt lat="42.015940" lon="2.808579">
        <ele>122.516</ele>
        <time>2021-02-02T12:10:24Z</time>
      </trkpt>
      <trkpt lat="42.015828" lon="2.808585">
        <ele>121.951</ele>
        <time>2021-02-02T12:10:26Z</time>
      </trkpt>
      <trkpt lat="42.015772" lon="2.808608">
        <ele>121.530</ele>
        <time>2021-02-02T12:10:27Z</time>
      </trkpt>
      <trkpt lat="42.015661" lon="2.808691">
        <ele>120.892</ele>
        <time>2021-02-02T12:10:29Z</time>
      </trkpt>
      <trkpt lat="42.015524" lon="2.808748">
        <ele>119.773</ele>
        <time>2021-02-02T12:10:31Z</time>
      </trkpt>
      <trkpt lat="42.015385" lon="2.808769">
        <ele>117.820</ele>
        <time>2021-02-02T12:10:33Z</time>
      </trkpt>
      <trkpt lat="42.015307" lon="2.808775">
        <ele>117.408</ele>
        <time>2021-02-02T12:10:34Z</time>
      </trkpt>
      <trkpt lat="42.015138" lon="2.808795">
        <ele>116.395</ele>
        <time>2021-02-02T12:10:36Z</time>
      </trkpt>
      <trkpt lat="42.014961" lon="2.808832">
        <ele>114.914</ele>
        <time>2021-02-02T12:10:38Z</time>
      </trkpt>
      <trkpt lat="42.014867" lon="2.808856">
        <ele>114.159</ele>
        <time>2021-02-02T12:10:39Z</time>
      </trkpt>
      <trkpt lat="42.014770" lon="2.808888">
        <ele>113.031</ele>
        <time>2021-02-02T12:10:40Z</time>
      </trkpt>
      <trkpt lat="42.014574" lon="2.808978">
        <ele>111.242</ele>
        <time>2021-02-02T12:10:42Z</time>
      </trkpt>
      <trkpt lat="42.014484" lon="2.809035">
        <ele>110.527</ele>
        <time>2021-02-02T12:10:43Z</time>
      </trkpt>
      <trkpt lat="42.014293" lon="2.809158">
        <ele>108.942</ele>
        <time>2021-02-02T12:10:45Z</time>
      </trkpt>
      <trkpt lat="42.014188" lon="2.809230">
        <ele>107.761</ele>
        <time>2021-02-02T12:10:46Z</time>
      </trkpt>
      <trkpt lat="42.013973" lon="2.809358">
        <ele>105.618</ele>
        <time>2021-02-02T12:10:48Z</time>
      </trkpt>
      <trkpt lat="42.013973" lon="2.809358">
        <ele>105.698</ele>
        <time>2021-02-02T12:10:48Z</time>
      </trkpt>
      <trkpt lat="42.013755" lon="2.809484">
        <ele>103.217</ele>
        <time>2021-02-02T12:10:50Z</time>
      </trkpt>
      <trkpt lat="42.013645" lon="2.809555">
        <ele>102.108</ele>
        <time>2021-02-02T12:10:51Z</time>
      </trkpt>
      <trkpt lat="42.013423" lon="2.809702">
        <ele>99.947</ele>
        <time>2021-02-02T12:10:53Z</time>
      </trkpt>
      <trkpt lat="42.013303" lon="2.809783">
        <ele>98.726</ele>
        <time>2021-02-02T12:10:54Z</time>
      </trkpt>
      <trkpt lat="42.013078" lon="2.809988">
        <ele>96.041</ele>
        <time>2021-02-02T12:10:56Z</time>
      </trkpt>
      <trkpt lat="42.012971" lon="2.810111">
        <ele>94.743</ele>
        <time>2021-02-02T12:10:57Z</time>
      </trkpt>
      <trkpt lat="42.012867" lon="2.810234">
        <ele>93.524</ele>
        <time>2021-02-02T12:10:58Z</time>
      </trkpt>
      <trkpt lat="42.012703" lon="2.810473">
        <ele>91.319</ele>
        <time>2021-02-02T12:11:00Z</time>
      </trkpt>
      <trkpt lat="42.012577" lon="2.810691">
        <ele>88.914</ele>
        <time>2021-02-02T12:11:02Z</time>
      </trkpt>
      <trkpt lat="42.012466" lon="2.810891">
        <ele>87.733</ele>
        <time>2021-02-02T12:11:04Z</time>
      </trkpt>
      <trkpt lat="42.012400" lon="2.811064">
        <ele>86.233</ele>
        <time>2021-02-02T12:11:06Z</time>
      </trkpt>
      <trkpt lat="42.012370" lon="2.811139">
        <ele>85.823</ele>
        <time>2021-02-02T12:11:07Z</time>
      </trkpt>
      <trkpt lat="42.012338" lon="2.811201">
        <ele>85.115</ele>
        <time>2021-02-02T12:11:08Z</time>
      </trkpt>
      <trkpt lat="42.012255" lon="2.811343">
        <ele>84.308</ele>
        <time>2021-02-02T12:11:10Z</time>
      </trkpt>
      <trkpt lat="42.012224" lon="2.811520">
        <ele>83.229</ele>
        <time>2021-02-02T12:11:12Z</time>
      </trkpt>
      <trkpt lat="42.012261" lon="2.811694">
        <ele>82.068</ele>
        <time>2021-02-02T12:11:14Z</time>
      </trkpt>
      <trkpt lat="42.012328" lon="2.811885">
        <ele>80.213</ele>
        <time>2021-02-02T12:11:16Z</time>
      </trkpt>
      <trkpt lat="42.012326" lon="2.812087">
        <ele>80.045</ele>
        <time>2021-02-02T12:11:18Z</time>
      </trkpt>
      <trkpt lat="42.012309" lon="2.812191">
        <ele>79.756</ele>
        <time>2021-02-02T12:11:19Z</time>
      </trkpt>
      <trkpt lat="42.012280" lon="2.812402">
        <ele>79.311</ele>
        <time>2021-02-02T12:11:21Z</time>
      </trkpt>
      <trkpt lat="42.012269" lon="2.812510">
        <ele>79.016</ele>
        <time>2021-02-02T12:11:22Z</time>
      </trkpt>
      <trkpt lat="42.012247" lon="2.812726">
        <ele>78.125</ele>
        <time>2021-02-02T12:11:24Z</time>
      </trkpt>
      <trkpt lat="42.012235" lon="2.812837">
        <ele>77.695</ele>
        <time>2021-02-02T12:11:25Z</time>
      </trkpt>
      <trkpt lat="42.012212" lon="2.813055">
        <ele>76.549</ele>
        <time>2021-02-02T12:11:27Z</time>
      </trkpt>
      <trkpt lat="42.012185" lon="2.813268">
        <ele>76.223</ele>
        <time>2021-02-02T12:11:29Z</time>
      </trkpt>
      <trkpt lat="42.012165" lon="2.813445">
        <ele>75.308</ele>
        <time>2021-02-02T12:11:31Z</time>
      </trkpt>
      <trkpt lat="42.012157" lon="2.813518">
        <ele>75.165</ele>
        <time>2021-02-02T12:11:32Z</time>
      </trkpt>
      <trkpt lat="42.012141" lon="2.813645">
        <ele>74.134</ele>
        <time>2021-02-02T12:11:34Z</time>
      </trkpt>
      <trkpt lat="42.012104" lon="2.813765">
        <ele>72.859</ele>
        <time>2021-02-02T12:11:36Z</time>
      </trkpt>
      <trkpt lat="42.012060" lon="2.813805">
        <ele>74.241</ele>
        <time>2021-02-02T12:11:37Z</time>
      </trkpt>
      <trkpt lat="42.012008" lon="2.813827">
        <ele>75.152</ele>
        <time>2021-02-02T12:11:38Z</time>
      </trkpt>
      <trkpt lat="42.011890" lon="2.813788">
        <ele>74.147</ele>
        <time>2021-02-02T12:11:40Z</time>
      </trkpt>
      <trkpt lat="42.011827" lon="2.813766">
        <ele>73.982</ele>
        <time>2021-02-02T12:11:41Z</time>
      </trkpt>
      <trkpt lat="42.011706" lon="2.813727">
        <ele>74.251</ele>
        <time>2021-02-02T12:11:43Z</time>
      </trkpt>
      <trkpt lat="42.011640" lon="2.813708">
        <ele>73.926</ele>
        <time>2021-02-02T12:11:44Z</time>
      </trkpt>
      <trkpt lat="42.011576" lon="2.813690">
        <ele>73.447</ele>
        <time>2021-02-02T12:11:45Z</time>
      </trkpt>
      <trkpt lat="42.011453" lon="2.813660">
        <ele>73.511</ele>
        <time>2021-02-02T12:11:47Z</time>
      </trkpt>
      <trkpt lat="42.011392" lon="2.813648">
        <ele>73.108</ele>
        <time>2021-02-02T12:11:48Z</time>
      </trkpt>
      <trkpt lat="42.011333" lon="2.813636">
        <ele>73.158</ele>
        <time>2021-02-02T12:11:49Z</time>
      </trkpt>
      <trkpt lat="42.011213" lon="2.813610">
        <ele>73.267</ele>
        <time>2021-02-02T12:11:51Z</time>
      </trkpt>
      <trkpt lat="42.011153" lon="2.813596">
        <ele>73.312</ele>
        <time>2021-02-02T12:11:52Z</time>
      </trkpt>
      <trkpt lat="42.011037" lon="2.813571">
        <ele>73.294</ele>
        <time>2021-02-02T12:11:54Z</time>
      </trkpt>
      <trkpt lat="42.010923" lon="2.813549">
        <ele>73.145</ele>
        <time>2021-02-02T12:11:56Z</time>
      </trkpt>
      <trkpt lat="42.010864" lon="2.813539">
        <ele>73.020</ele>
        <time>2021-02-02T12:11:57Z</time>
      </trkpt>
      <trkpt lat="42.010802" lon="2.813528">
        <ele>72.535</ele>
        <time>2021-02-02T12:11:58Z</time>
      </trkpt>
      <trkpt lat="42.010683" lon="2.813502">
        <ele>72.884</ele>
        <time>2021-02-02T12:12:00Z</time>
      </trkpt>
      <trkpt lat="42.010566" lon="2.813480">
        <ele>72.792</ele>
        <time>2021-02-02T12:12:02Z</time>
      </trkpt>
      <trkpt lat="42.010448" lon="2.813453">
        <ele>72.473</ele>
        <time>2021-02-02T12:12:04Z</time>
      </trkpt>
      <trkpt lat="42.010331" lon="2.813427">
        <ele>72.220</ele>
        <time>2021-02-02T12:12:06Z</time>
      </trkpt>
      <trkpt lat="42.010271" lon="2.813416">
        <ele>72.208</ele>
        <time>2021-02-02T12:12:07Z</time>
      </trkpt>
      <trkpt lat="42.010158" lon="2.813397">
        <ele>72.415</ele>
        <time>2021-02-02T12:12:09Z</time>
      </trkpt>
      <trkpt lat="42.010041" lon="2.813373">
        <ele>72.614</ele>
        <time>2021-02-02T12:12:11Z</time>
      </trkpt>
      <trkpt lat="42.009983" lon="2.813361">
        <ele>72.459</ele>
        <time>2021-02-02T12:12:12Z</time>
      </trkpt>
      <trkpt lat="42.009983" lon="2.813361">
        <ele>72.491</ele>
        <time>2021-02-02T12:12:12Z</time>
      </trkpt>
      <trkpt lat="42.009870" lon="2.813341">
        <ele>72.242</ele>
        <time>2021-02-02T12:12:14Z</time>
      </trkpt>
      <trkpt lat="42.009810" lon="2.813333">
        <ele>72.397</ele>
        <time>2021-02-02T12:12:15Z</time>
      </trkpt>
      <trkpt lat="42.009810" lon="2.813333">
        <ele>72.332</ele>
        <time>2021-02-02T12:12:15Z</time>
      </trkpt>
      <trkpt lat="42.009696" lon="2.813316">
        <ele>72.121</ele>
        <time>2021-02-02T12:12:17Z</time>
      </trkpt>
      <trkpt lat="42.009639" lon="2.813307">
        <ele>72.238</ele>
        <time>2021-02-02T12:12:18Z</time>
      </trkpt>
      <trkpt lat="42.009584" lon="2.813299">
        <ele>72.170</ele>
        <time>2021-02-02T12:12:19Z</time>
      </trkpt>
      <trkpt lat="42.009584" lon="2.813299">
        <ele>72.117</ele>
        <time>2021-02-02T12:12:19Z</time>
      </trkpt>
      <trkpt lat="42.009527" lon="2.813291">
        <ele>72.008</ele>
        <time>2021-02-02T12:12:20Z</time>
      </trkpt>
      <trkpt lat="42.009417" lon="2.813270">
        <ele>71.969</ele>
        <time>2021-02-02T12:12:22Z</time>
      </trkpt>
      <trkpt lat="42.009362" lon="2.813256">
        <ele>71.828</ele>
        <time>2021-02-02T12:12:23Z</time>
      </trkpt>
      <trkpt lat="42.009250" lon="2.813218">
        <ele>71.713</ele>
        <time>2021-02-02T12:12:25Z</time>
      </trkpt>
      <trkpt lat="42.009137" lon="2.813170">
        <ele>71.525</ele>
        <time>2021-02-02T12:12:27Z</time>
      </trkpt>
      <trkpt lat="42.009022" lon="2.813124">
        <ele>71.786</ele>
        <time>2021-02-02T12:12:29Z</time>
      </trkpt>
      <trkpt lat="42.008911" lon="2.813063">
        <ele>71.431</ele>
        <time>2021-02-02T12:12:31Z</time>
      </trkpt>
      <trkpt lat="42.008803" lon="2.812997">
        <ele>71.156</ele>
        <time>2021-02-02T12:12:33Z</time>
      </trkpt>
      <trkpt lat="42.008690" lon="2.812928">
        <ele>71.165</ele>
        <time>2021-02-02T12:12:35Z</time>
      </trkpt>
      <trkpt lat="42.008570" lon="2.812865">
        <ele>70.858</ele>
        <time>2021-02-02T12:12:37Z</time>
      </trkpt>
      <trkpt lat="42.008509" lon="2.812839">
        <ele>70.852</ele>
        <time>2021-02-02T12:12:38Z</time>
      </trkpt>
      <trkpt lat="42.008385" lon="2.812786">
        <ele>70.117</ele>
        <time>2021-02-02T12:12:40Z</time>
      </trkpt>
      <trkpt lat="42.008322" lon="2.812764">
        <ele>70.208</ele>
        <time>2021-02-02T12:12:41Z</time>
      </trkpt>
      <trkpt lat="42.008258" lon="2.812744">
        <ele>69.941</ele>
        <time>2021-02-02T12:12:42Z</time>
      </trkpt>
      <trkpt lat="42.008126" lon="2.812702">
        <ele>69.330</ele>
        <time>2021-02-02T12:12:44Z</time>
      </trkpt>
      <trkpt lat="42.008056" lon="2.812685">
        <ele>69.325</ele>
        <time>2021-02-02T12:12:45Z</time>
      </trkpt>
      <trkpt lat="42.007912" lon="2.812665">
        <ele>69.097</ele>
        <time>2021-02-02T12:12:47Z</time>
      </trkpt>
      <trkpt lat="42.007767" lon="2.812649">
        <ele>68.658</ele>
        <time>2021-02-02T12:12:49Z</time>
      </trkpt>
      <trkpt lat="42.007690" lon="2.812644">
        <ele>67.983</ele>
        <time>2021-02-02T12:12:50Z</time>
      </trkpt>
      <trkpt lat="42.007613" lon="2.812642">
        <ele>67.568</ele>
        <time>2021-02-02T12:12:51Z</time>
      </trkpt>
      <trkpt lat="42.007464" lon="2.812644">
        <ele>67.457</ele>
        <time>2021-02-02T12:12:53Z</time>
      </trkpt>
      <trkpt lat="42.007393" lon="2.812653">
        <ele>67.538</ele>
        <time>2021-02-02T12:12:54Z</time>
      </trkpt>
      <trkpt lat="42.007259" lon="2.812675">
        <ele>67.870</ele>
        <time>2021-02-02T12:12:56Z</time>
      </trkpt>
      <trkpt lat="42.007193" lon="2.812689">
        <ele>67.617</ele>
        <time>2021-02-02T12:12:57Z</time>
      </trkpt>
      <trkpt lat="42.007128" lon="2.812703">
        <ele>67.808</ele>
        <time>2021-02-02T12:12:58Z</time>
      </trkpt>
      <trkpt lat="42.007064" lon="2.812717">
        <ele>68.189</ele>
        <time>2021-02-02T12:12:59Z</time>
      </trkpt>
      <trkpt lat="42.006945" lon="2.812759">
        <ele>67.898</ele>
        <time>2021-02-02T12:13:01Z</time>
      </trkpt>
      <trkpt lat="42.006887" lon="2.812784">
        <ele>68.283</ele>
        <time>2021-02-02T12:13:02Z</time>
      </trkpt>
      <trkpt lat="42.006770" lon="2.812833">
        <ele>67.975</ele>
        <time>2021-02-02T12:13:04Z</time>
      </trkpt>
      <trkpt lat="42.006711" lon="2.812859">
        <ele>68.116</ele>
        <time>2021-02-02T12:13:05Z</time>
      </trkpt>
      <trkpt lat="42.006597" lon="2.812906">
        <ele>68.241</ele>
        <time>2021-02-02T12:13:07Z</time>
      </trkpt>
      <trkpt lat="42.006485" lon="2.812951">
        <ele>67.886</ele>
        <time>2021-02-02T12:13:09Z</time>
      </trkpt>
      <trkpt lat="42.006430" lon="2.812974">
        <ele>68.215</ele>
        <time>2021-02-02T12:13:10Z</time>
      </trkpt>
      <trkpt lat="42.006375" lon="2.813000">
        <ele>68.375</ele>
        <time>2021-02-02T12:13:11Z</time>
      </trkpt>
      <trkpt lat="42.006322" lon="2.813031">
        <ele>68.028</ele>
        <time>2021-02-02T12:13:12Z</time>
      </trkpt>
      <trkpt lat="42.006270" lon="2.813061">
        <ele>68.420</ele>
        <time>2021-02-02T12:13:13Z</time>
      </trkpt>
      <trkpt lat="42.006167" lon="2.813122">
        <ele>68.508</ele>
        <time>2021-02-02T12:13:15Z</time>
      </trkpt>
      <trkpt lat="42.006069" lon="2.813184">
        <ele>68.933</ele>
        <time>2021-02-02T12:13:17Z</time>
      </trkpt>
      <trkpt lat="42.006019" lon="2.813217">
        <ele>68.872</ele>
        <time>2021-02-02T12:13:18Z</time>
      </trkpt>
      <trkpt lat="42.005968" lon="2.813252">
        <ele>68.947</ele>
        <time>2021-02-02T12:13:19Z</time>
      </trkpt>
      <trkpt lat="42.005873" lon="2.813326">
        <ele>69.189</ele>
        <time>2021-02-02T12:13:21Z</time>
      </trkpt>
      <trkpt lat="42.005784" lon="2.813385">
        <ele>69.410</ele>
        <time>2021-02-02T12:13:23Z</time>
      </trkpt>
      <trkpt lat="42.005740" lon="2.813415">
        <ele>69.395</ele>
        <time>2021-02-02T12:13:24Z</time>
      </trkpt>
      <trkpt lat="42.005696" lon="2.813445">
        <ele>69.180</ele>
        <time>2021-02-02T12:13:25Z</time>
      </trkpt>
      <trkpt lat="42.005609" lon="2.813501">
        <ele>69.429</ele>
        <time>2021-02-02T12:13:27Z</time>
      </trkpt>
      <trkpt lat="42.005567" lon="2.813535">
        <ele>69.738</ele>
        <time>2021-02-02T12:13:28Z</time>
      </trkpt>
      <trkpt lat="42.005528" lon="2.813575">
        <ele>69.870</ele>
        <time>2021-02-02T12:13:29Z</time>
      </trkpt>
      <trkpt lat="42.005469" lon="2.813634">
        <ele>70.017</ele>
        <time>2021-02-02T12:13:31Z</time>
      </trkpt>
      <trkpt lat="42.005430" lon="2.813666">
        <ele>69.808</ele>
        <time>2021-02-02T12:13:32Z</time>
      </trkpt>
      <trkpt lat="42.005345" lon="2.813735">
        <ele>69.839</ele>
        <time>2021-02-02T12:13:34Z</time>
      </trkpt>
      <trkpt lat="42.005307" lon="2.813772">
        <ele>69.768</ele>
        <time>2021-02-02T12:13:35Z</time>
      </trkpt>
      <trkpt lat="42.005247" lon="2.813829">
        <ele>70.063</ele>
        <time>2021-02-02T12:13:37Z</time>
      </trkpt>
      <trkpt lat="42.005204" lon="2.813866">
        <ele>70.235</ele>
        <time>2021-02-02T12:13:38Z</time>
      </trkpt>
      <trkpt lat="42.005136" lon="2.813930">
        <ele>70.516</ele>
        <time>2021-02-02T12:13:40Z</time>
      </trkpt>
      <trkpt lat="42.005067" lon="2.813996">
        <ele>71.061</ele>
        <time>2021-02-02T12:13:42Z</time>
      </trkpt>
      <trkpt lat="42.004996" lon="2.814060">
        <ele>70.966</ele>
        <time>2021-02-02T12:13:44Z</time>
      </trkpt>
      <trkpt lat="42.004926" lon="2.814135">
        <ele>71.155</ele>
        <time>2021-02-02T12:13:46Z</time>
      </trkpt>
      <trkpt lat="42.004891" lon="2.814175">
        <ele>71.154</ele>
        <time>2021-02-02T12:13:47Z</time>
      </trkpt>
      <trkpt lat="42.004852" lon="2.814218">
        <ele>71.256</ele>
        <time>2021-02-02T12:13:48Z</time>
      </trkpt>
      <trkpt lat="42.004773" lon="2.814297">
        <ele>71.211</ele>
        <time>2021-02-02T12:13:50Z</time>
      </trkpt>
      <trkpt lat="42.004734" lon="2.814335">
        <ele>71.408</ele>
        <time>2021-02-02T12:13:51Z</time>
      </trkpt>
      <trkpt lat="42.004656" lon="2.814409">
        <ele>71.181</ele>
        <time>2021-02-02T12:13:53Z</time>
      </trkpt>
      <trkpt lat="42.004616" lon="2.814448">
        <ele>71.470</ele>
        <time>2021-02-02T12:13:54Z</time>
      </trkpt>
      <trkpt lat="42.004577" lon="2.814486">
        <ele>71.585</ele>
        <time>2021-02-02T12:13:55Z</time>
      </trkpt>
      <trkpt lat="42.004540" lon="2.814525">
        <ele>71.527</ele>
        <time>2021-02-02T12:13:56Z</time>
      </trkpt>
      <trkpt lat="42.004473" lon="2.814609">
        <ele>71.378</ele>
        <time>2021-02-02T12:13:58Z</time>
      </trkpt>
      <trkpt lat="42.004406" lon="2.814681">
        <ele>71.783</ele>
        <time>2021-02-02T12:14:00Z</time>
      </trkpt>
      <trkpt lat="42.004328" lon="2.814762">
        <ele>71.678</ele>
        <time>2021-02-02T12:14:02Z</time>
      </trkpt>
      <trkpt lat="42.004290" lon="2.814801">
        <ele>71.597</ele>
        <time>2021-02-02T12:14:03Z</time>
      </trkpt>
      <trkpt lat="42.004217" lon="2.814876">
        <ele>71.986</ele>
        <time>2021-02-02T12:14:05Z</time>
      </trkpt>
      <trkpt lat="42.004139" lon="2.814953">
        <ele>71.560</ele>
        <time>2021-02-02T12:14:07Z</time>
      </trkpt>
      <trkpt lat="42.004100" lon="2.814991">
        <ele>71.626</ele>
        <time>2021-02-02T12:14:08Z</time>
      </trkpt>
      <trkpt lat="42.004061" lon="2.815028">
        <ele>71.808</ele>
        <time>2021-02-02T12:14:09Z</time>
      </trkpt>
      <trkpt lat="42.003996" lon="2.815086">
        <ele>71.644</ele>
        <time>2021-02-02T12:14:11Z</time>
      </trkpt>
      <trkpt lat="42.003917" lon="2.815165">
        <ele>71.523</ele>
        <time>2021-02-02T12:14:13Z</time>
      </trkpt>
      <trkpt lat="42.003877" lon="2.815205">
        <ele>71.598</ele>
        <time>2021-02-02T12:14:14Z</time>
      </trkpt>
      <trkpt lat="42.003819" lon="2.815266">
        <ele>71.620</ele>
        <time>2021-02-02T12:14:16Z</time>
      </trkpt>
      <trkpt lat="42.003774" lon="2.815307">
        <ele>71.931</ele>
        <time>2021-02-02T12:14:17Z</time>
      </trkpt>
      <trkpt lat="42.003734" lon="2.815340">
        <ele>72.246</ele>
        <time>2021-02-02T12:14:18Z</time>
      </trkpt>
      <trkpt lat="42.003691" lon="2.815367">
        <ele>72.121</ele>
        <time>2021-02-02T12:14:19Z</time>
      </trkpt>
      <trkpt lat="42.003599" lon="2.815422">
        <ele>72.010</ele>
        <time>2021-02-02T12:14:21Z</time>
      </trkpt>
      <trkpt lat="42.003472" lon="2.815503">
        <ele>71.961</ele>
        <time>2021-02-02T12:14:24Z</time>
      </trkpt>
      <trkpt lat="42.003420" lon="2.815535">
        <ele>71.821</ele>
        <time>2021-02-02T12:14:25Z</time>
      </trkpt>
      <trkpt lat="42.003334" lon="2.815604">
        <ele>71.513</ele>
        <time>2021-02-02T12:14:27Z</time>
      </trkpt>
      <trkpt lat="42.003257" lon="2.815689">
        <ele>71.608</ele>
        <time>2021-02-02T12:14:29Z</time>
      </trkpt>
      <trkpt lat="42.003223" lon="2.815736">
        <ele>71.912</ele>
        <time>2021-02-02T12:14:30Z</time>
      </trkpt>
      <trkpt lat="42.003156" lon="2.815825">
        <ele>71.711</ele>
        <time>2021-02-02T12:14:32Z</time>
      </trkpt>
      <trkpt lat="42.003119" lon="2.815864">
        <ele>71.936</ele>
        <time>2021-02-02T12:14:33Z</time>
      </trkpt>
      <trkpt lat="42.003078" lon="2.815893">
        <ele>71.998</ele>
        <time>2021-02-02T12:14:34Z</time>
      </trkpt>
      <trkpt lat="42.002988" lon="2.815927">
        <ele>72.469</ele>
        <time>2021-02-02T12:14:36Z</time>
      </trkpt>
      <trkpt lat="42.002891" lon="2.815936">
        <ele>72.014</ele>
        <time>2021-02-02T12:14:38Z</time>
      </trkpt>
      <trkpt lat="42.002793" lon="2.815943">
        <ele>72.339</ele>
        <time>2021-02-02T12:14:40Z</time>
      </trkpt>
      <trkpt lat="42.002744" lon="2.815949">
        <ele>72.258</ele>
        <time>2021-02-02T12:14:41Z</time>
      </trkpt>
      <trkpt lat="42.002647" lon="2.815965">
        <ele>72.333</ele>
        <time>2021-02-02T12:14:43Z</time>
      </trkpt>
      <trkpt lat="42.002599" lon="2.815976">
        <ele>72.323</ele>
        <time>2021-02-02T12:14:44Z</time>
      </trkpt>
      <trkpt lat="42.002506" lon="2.815997">
        <ele>72.415</ele>
        <time>2021-02-02T12:14:46Z</time>
      </trkpt>
      <trkpt lat="42.002459" lon="2.816007">
        <ele>72.308</ele>
        <time>2021-02-02T12:14:47Z</time>
      </trkpt>
      <trkpt lat="42.002368" lon="2.816026">
        <ele>72.449</ele>
        <time>2021-02-02T12:14:49Z</time>
      </trkpt>
      <trkpt lat="42.002275" lon="2.816045">
        <ele>72.718</ele>
        <time>2021-02-02T12:14:51Z</time>
      </trkpt>
      <trkpt lat="42.002229" lon="2.816055">
        <ele>72.763</ele>
        <time>2021-02-02T12:14:52Z</time>
      </trkpt>
      <trkpt lat="42.002183" lon="2.816064">
        <ele>72.415</ele>
        <time>2021-02-02T12:14:53Z</time>
      </trkpt>
      <trkpt lat="42.002090" lon="2.816082">
        <ele>72.866</ele>
        <time>2021-02-02T12:14:55Z</time>
      </trkpt>
      <trkpt lat="42.002090" lon="2.816082">
        <ele>72.821</ele>
        <time>2021-02-02T12:14:55Z</time>
      </trkpt>
      <trkpt lat="42.001995" lon="2.816100">
        <ele>72.466</ele>
        <time>2021-02-02T12:14:57Z</time>
      </trkpt>
      <trkpt lat="42.001947" lon="2.816107">
        <ele>72.795</ele>
        <time>2021-02-02T12:14:58Z</time>
      </trkpt>
      <trkpt lat="42.001853" lon="2.816122">
        <ele>73.197</ele>
        <time>2021-02-02T12:15:00Z</time>
      </trkpt>
      <trkpt lat="42.001807" lon="2.816130">
        <ele>73.323</ele>
        <time>2021-02-02T12:15:01Z</time>
      </trkpt>
      <trkpt lat="42.001762" lon="2.816139">
        <ele>73.425</ele>
        <time>2021-02-02T12:15:02Z</time>
      </trkpt>
      <trkpt lat="42.001676" lon="2.816160">
        <ele>73.408</ele>
        <time>2021-02-02T12:15:04Z</time>
      </trkpt>
      <trkpt lat="42.001629" lon="2.816172">
        <ele>73.085</ele>
        <time>2021-02-02T12:15:05Z</time>
      </trkpt>
      <trkpt lat="42.001539" lon="2.816197">
        <ele>72.944</ele>
        <time>2021-02-02T12:15:07Z</time>
      </trkpt>
      <trkpt lat="42.001539" lon="2.816197">
        <ele>72.919</ele>
        <time>2021-02-02T12:15:07Z</time>
      </trkpt>
      <trkpt lat="42.001449" lon="2.816221">
        <ele>73.781</ele>
        <time>2021-02-02T12:15:09Z</time>
      </trkpt>
      <trkpt lat="42.001403" lon="2.816234">
        <ele>73.722</ele>
        <time>2021-02-02T12:15:10Z</time>
      </trkpt>
      <trkpt lat="42.001314" lon="2.816267">
        <ele>73.737</ele>
        <time>2021-02-02T12:15:12Z</time>
      </trkpt>
      <trkpt lat="42.001270" lon="2.816288">
        <ele>73.542</ele>
        <time>2021-02-02T12:15:13Z</time>
      </trkpt>
      <trkpt lat="42.001225" lon="2.816308">
        <ele>73.731</ele>
        <time>2021-02-02T12:15:14Z</time>
      </trkpt>
      <trkpt lat="42.001179" lon="2.816327">
        <ele>73.986</ele>
        <time>2021-02-02T12:15:15Z</time>
      </trkpt>
      <trkpt lat="42.001132" lon="2.816348">
        <ele>73.960</ele>
        <time>2021-02-02T12:15:16Z</time>
      </trkpt>
      <trkpt lat="42.001038" lon="2.816394">
        <ele>73.926</ele>
        <time>2021-02-02T12:15:18Z</time>
      </trkpt>
      <trkpt lat="42.000988" lon="2.816417">
        <ele>73.608</ele>
        <time>2021-02-02T12:15:19Z</time>
      </trkpt>
      <trkpt lat="42.000895" lon="2.816463">
        <ele>74.634</ele>
        <time>2021-02-02T12:15:21Z</time>
      </trkpt>
      <trkpt lat="42.000805" lon="2.816519">
        <ele>74.293</ele>
        <time>2021-02-02T12:15:23Z</time>
      </trkpt>
      <trkpt lat="42.000761" lon="2.816549">
        <ele>74.338</ele>
        <time>2021-02-02T12:15:24Z</time>
      </trkpt>
      <trkpt lat="42.000717" lon="2.816579">
        <ele>74.330</ele>
        <time>2021-02-02T12:15:25Z</time>
      </trkpt>
      <trkpt lat="42.000673" lon="2.816610">
        <ele>74.421</ele>
        <time>2021-02-02T12:15:26Z</time>
      </trkpt>
      <trkpt lat="42.000587" lon="2.816675">
        <ele>74.556</ele>
        <time>2021-02-02T12:15:28Z</time>
      </trkpt>
      <trkpt lat="42.000545" lon="2.816709">
        <ele>74.541</ele>
        <time>2021-02-02T12:15:29Z</time>
      </trkpt>
      <trkpt lat="42.000464" lon="2.816775">
        <ele>74.510</ele>
        <time>2021-02-02T12:15:31Z</time>
      </trkpt>
      <trkpt lat="42.000384" lon="2.816844">
        <ele>74.461</ele>
        <time>2021-02-02T12:15:33Z</time>
      </trkpt>
      <trkpt lat="42.000347" lon="2.816878">
        <ele>74.721</ele>
        <time>2021-02-02T12:15:34Z</time>
      </trkpt>
      <trkpt lat="42.000308" lon="2.816915">
        <ele>74.713</ele>
        <time>2021-02-02T12:15:35Z</time>
      </trkpt>
      <trkpt lat="42.000269" lon="2.816951">
        <ele>74.808</ele>
        <time>2021-02-02T12:15:36Z</time>
      </trkpt>
      <trkpt lat="42.000187" lon="2.817015">
        <ele>75.062</ele>
        <time>2021-02-02T12:15:38Z</time>
      </trkpt>
      <trkpt lat="42.000144" lon="2.817042">
        <ele>74.951</ele>
        <time>2021-02-02T12:15:39Z</time>
      </trkpt>
      <trkpt lat="42.000058" lon="2.817087">
        <ele>75.016</ele>
        <time>2021-02-02T12:15:41Z</time>
      </trkpt>
      <trkpt lat="42.000014" lon="2.817107">
        <ele>75.318</ele>
        <time>2021-02-02T12:15:42Z</time>
      </trkpt>
      <trkpt lat="41.999924" lon="2.817142">
        <ele>75.419</ele>
        <time>2021-02-02T12:15:44Z</time>
      </trkpt>
      <trkpt lat="41.999831" lon="2.817191">
        <ele>75.534</ele>
        <time>2021-02-02T12:15:46Z</time>
      </trkpt>
      <trkpt lat="41.999732" lon="2.817263">
        <ele>75.919</ele>
        <time>2021-02-02T12:15:48Z</time>
      </trkpt>
      <trkpt lat="41.999684" lon="2.817309">
        <ele>75.728</ele>
        <time>2021-02-02T12:15:49Z</time>
      </trkpt>
      <trkpt lat="41.999628" lon="2.817441">
        <ele>76.083</ele>
        <time>2021-02-02T12:15:51Z</time>
      </trkpt>
      <trkpt lat="41.999621" lon="2.817522">
        <ele>76.125</ele>
        <time>2021-02-02T12:15:52Z</time>
      </trkpt>
      <trkpt lat="41.999656" lon="2.817679">
        <ele>75.717</ele>
        <time>2021-02-02T12:15:54Z</time>
      </trkpt>
      <trkpt lat="41.999694" lon="2.817744">
        <ele>75.408</ele>
        <time>2021-02-02T12:15:55Z</time>
      </trkpt>
      <trkpt lat="41.999742" lon="2.817795">
        <ele>75.614</ele>
        <time>2021-02-02T12:15:56Z</time>
      </trkpt>
      <trkpt lat="41.999797" lon="2.817832">
        <ele>75.523</ele>
        <time>2021-02-02T12:15:57Z</time>
      </trkpt>
      <trkpt lat="41.999797" lon="2.817832">
        <ele>75.588</ele>
        <time>2021-02-02T12:15:57Z</time>
      </trkpt>
      <trkpt lat="41.999908" lon="2.817863">
        <ele>75.340</ele>
        <time>2021-02-02T12:15:59Z</time>
      </trkpt>
      <trkpt lat="41.999966" lon="2.817872">
        <ele>75.111</ele>
        <time>2021-02-02T12:16:00Z</time>
      </trkpt>
      <trkpt lat="42.000078" lon="2.817931">
        <ele>73.856</ele>
        <time>2021-02-02T12:16:02Z</time>
      </trkpt>
      <trkpt lat="42.000078" lon="2.817931">
        <ele>73.891</ele>
        <time>2021-02-02T12:16:02Z</time>
      </trkpt>
      <trkpt lat="42.000165" lon="2.818056">
        <ele>74.570</ele>
        <time>2021-02-02T12:16:04Z</time>
      </trkpt>
      <trkpt lat="42.000192" lon="2.818133">
        <ele>75.673</ele>
        <time>2021-02-02T12:16:05Z</time>
      </trkpt>
      <trkpt lat="42.000221" lon="2.818210">
        <ele>75.085</ele>
        <time>2021-02-02T12:16:06Z</time>
      </trkpt>
      <trkpt lat="42.000286" lon="2.818351">
        <ele>74.613</ele>
        <time>2021-02-02T12:16:08Z</time>
      </trkpt>
      <trkpt lat="42.000286" lon="2.818351">
        <ele>74.608</ele>
        <time>2021-02-02T12:16:08Z</time>
      </trkpt>
      <trkpt lat="42.000346" lon="2.818488">
        <ele>74.363</ele>
        <time>2021-02-02T12:16:10Z</time>
      </trkpt>
      <trkpt lat="42.000406" lon="2.818623">
        <ele>74.232</ele>
        <time>2021-02-02T12:16:12Z</time>
      </trkpt>
      <trkpt lat="42.000464" lon="2.818758">
        <ele>74.157</ele>
        <time>2021-02-02T12:16:14Z</time>
      </trkpt>
      <trkpt lat="42.000522" lon="2.818891">
        <ele>74.089</ele>
        <time>2021-02-02T12:16:16Z</time>
      </trkpt>
      <trkpt lat="42.000581" lon="2.819022">
        <ele>74.060</ele>
        <time>2021-02-02T12:16:18Z</time>
      </trkpt>
      <trkpt lat="42.000643" lon="2.819155">
        <ele>74.075</ele>
        <time>2021-02-02T12:16:20Z</time>
      </trkpt>
      <trkpt lat="42.000708" lon="2.819301">
        <ele>73.640</ele>
        <time>2021-02-02T12:16:22Z</time>
      </trkpt>
      <trkpt lat="42.000741" lon="2.819378">
        <ele>73.519</ele>
        <time>2021-02-02T12:16:23Z</time>
      </trkpt>
      <trkpt lat="42.000774" lon="2.819454">
        <ele>73.376</ele>
        <time>2021-02-02T12:16:24Z</time>
      </trkpt>
      <trkpt lat="42.000809" lon="2.819529">
        <ele>73.390</ele>
        <time>2021-02-02T12:16:25Z</time>
      </trkpt>
      <trkpt lat="42.000809" lon="2.819529">
        <ele>73.319</ele>
        <time>2021-02-02T12:16:25Z</time>
      </trkpt>
      <trkpt lat="42.000880" lon="2.819684">
        <ele>73.008</ele>
        <time>2021-02-02T12:16:27Z</time>
      </trkpt>
      <trkpt lat="42.000952" lon="2.819843">
        <ele>73.073</ele>
        <time>2021-02-02T12:16:29Z</time>
      </trkpt>
      <trkpt lat="42.000988" lon="2.819924">
        <ele>73.082</ele>
        <time>2021-02-02T12:16:30Z</time>
      </trkpt>
      <trkpt lat="42.001026" lon="2.820008">
        <ele>73.247</ele>
        <time>2021-02-02T12:16:31Z</time>
      </trkpt>
      <trkpt lat="42.001103" lon="2.820173">
        <ele>72.869</ele>
        <time>2021-02-02T12:16:33Z</time>
      </trkpt>
      <trkpt lat="42.001179" lon="2.820339">
        <ele>72.370</ele>
        <time>2021-02-02T12:16:35Z</time>
      </trkpt>
      <trkpt lat="42.001216" lon="2.820422">
        <ele>72.745</ele>
        <time>2021-02-02T12:16:36Z</time>
      </trkpt>
      <trkpt lat="42.001216" lon="2.820422">
        <ele>72.730</ele>
        <time>2021-02-02T12:16:36Z</time>
      </trkpt>
      <trkpt lat="42.001254" lon="2.820504">
        <ele>72.669</ele>
        <time>2021-02-02T12:16:37Z</time>
      </trkpt>
      <trkpt lat="42.001330" lon="2.820671">
        <ele>72.376</ele>
        <time>2021-02-02T12:16:39Z</time>
      </trkpt>
      <trkpt lat="42.001368" lon="2.820753">
        <ele>72.090</ele>
        <time>2021-02-02T12:16:40Z</time>
      </trkpt>
      <trkpt lat="42.001406" lon="2.820835">
        <ele>72.119</ele>
        <time>2021-02-02T12:16:41Z</time>
      </trkpt>
      <trkpt lat="42.001479" lon="2.820997">
        <ele>71.808</ele>
        <time>2021-02-02T12:16:43Z</time>
      </trkpt>
      <trkpt lat="42.001515" lon="2.821078">
        <ele>71.863</ele>
        <time>2021-02-02T12:16:44Z</time>
      </trkpt>
      <trkpt lat="42.001590" lon="2.821240">
        <ele>71.592</ele>
        <time>2021-02-02T12:16:46Z</time>
      </trkpt>
      <trkpt lat="42.001664" lon="2.821399">
        <ele>71.637</ele>
        <time>2021-02-02T12:16:48Z</time>
      </trkpt>
      <trkpt lat="42.001736" lon="2.821558">
        <ele>71.499</ele>
        <time>2021-02-02T12:16:50Z</time>
      </trkpt>
      <trkpt lat="42.001810" lon="2.821722">
        <ele>71.220</ele>
        <time>2021-02-02T12:16:52Z</time>
      </trkpt>
      <trkpt lat="42.001847" lon="2.821806">
        <ele>71.185</ele>
        <time>2021-02-02T12:16:53Z</time>
      </trkpt>
      <trkpt lat="42.001883" lon="2.821889">
        <ele>70.920</ele>
        <time>2021-02-02T12:16:54Z</time>
      </trkpt>
      <trkpt lat="42.001956" lon="2.822051">
        <ele>70.819</ele>
        <time>2021-02-02T12:16:56Z</time>
      </trkpt>
      <trkpt lat="42.001993" lon="2.822133">
        <ele>70.646</ele>
        <time>2021-02-02T12:16:57Z</time>
      </trkpt>
      <trkpt lat="42.002029" lon="2.822215">
        <ele>70.888</ele>
        <time>2021-02-02T12:16:58Z</time>
      </trkpt>
      <trkpt lat="42.002029" lon="2.822215">
        <ele>70.816</ele>
        <time>2021-02-02T12:16:58Z</time>
      </trkpt>
      <trkpt lat="42.002101" lon="2.822376">
        <ele>70.508</ele>
        <time>2021-02-02T12:17:00Z</time>
      </trkpt>
      <trkpt lat="42.002137" lon="2.822458">
        <ele>70.510</ele>
        <time>2021-02-02T12:17:01Z</time>
      </trkpt>
      <trkpt lat="42.002172" lon="2.822540">
        <ele>70.499</ele>
        <time>2021-02-02T12:17:02Z</time>
      </trkpt>
      <trkpt lat="42.002207" lon="2.822623">
        <ele>70.224</ele>
        <time>2021-02-02T12:17:03Z</time>
      </trkpt>
      <trkpt lat="42.002243" lon="2.822705">
        <ele>70.376</ele>
        <time>2021-02-02T12:17:04Z</time>
      </trkpt>
      <trkpt lat="42.002280" lon="2.822788">
        <ele>70.357</ele>
        <time>2021-02-02T12:17:05Z</time>
      </trkpt>
      <trkpt lat="42.002352" lon="2.822944">
        <ele>70.072</ele>
        <time>2021-02-02T12:17:07Z</time>
      </trkpt>
      <trkpt lat="42.002422" lon="2.823101">
        <ele>69.067</ele>
        <time>2021-02-02T12:17:09Z</time>
      </trkpt>
      <trkpt lat="42.002455" lon="2.823177">
        <ele>68.966</ele>
        <time>2021-02-02T12:17:10Z</time>
      </trkpt>
      <trkpt lat="42.002506" lon="2.823308">
        <ele>69.238</ele>
        <time>2021-02-02T12:17:12Z</time>
      </trkpt>
      <trkpt lat="42.002474" lon="2.823388">
        <ele>69.970</ele>
        <time>2021-02-02T12:17:14Z</time>
      </trkpt>
      <trkpt lat="42.002367" lon="2.823415">
        <ele>68.717</ele>
        <time>2021-02-02T12:17:16Z</time>
      </trkpt>
      <trkpt lat="42.002241" lon="2.823428">
        <ele>68.508</ele>
        <time>2021-02-02T12:17:18Z</time>
      </trkpt>
      <trkpt lat="42.002122" lon="2.823468">
        <ele>68.659</ele>
        <time>2021-02-02T12:17:20Z</time>
      </trkpt>
      <trkpt lat="42.002066" lon="2.823489">
        <ele>68.488</ele>
        <time>2021-02-02T12:17:21Z</time>
      </trkpt>
      <trkpt lat="42.002066" lon="2.823489">
        <ele>68.473</ele>
        <time>2021-02-02T12:17:21Z</time>
      </trkpt>
      <trkpt lat="42.001951" lon="2.823543">
        <ele>68.455</ele>
        <time>2021-02-02T12:17:23Z</time>
      </trkpt>
      <trkpt lat="42.001894" lon="2.823571">
        <ele>68.646</ele>
        <time>2021-02-02T12:17:24Z</time>
      </trkpt>
      <trkpt lat="42.001781" lon="2.823618">
        <ele>68.561</ele>
        <time>2021-02-02T12:17:26Z</time>
      </trkpt>
      <trkpt lat="42.001724" lon="2.823640">
        <ele>68.446</ele>
        <time>2021-02-02T12:17:27Z</time>
      </trkpt>
      <trkpt lat="42.001614" lon="2.823687">
        <ele>68.485</ele>
        <time>2021-02-02T12:17:29Z</time>
      </trkpt>
      <trkpt lat="42.001560" lon="2.823707">
        <ele>68.617</ele>
        <time>2021-02-02T12:17:30Z</time>
      </trkpt>
      <trkpt lat="42.001505" lon="2.823731">
        <ele>68.687</ele>
        <time>2021-02-02T12:17:31Z</time>
      </trkpt>
      <trkpt lat="42.001398" lon="2.823778">
        <ele>68.615</ele>
        <time>2021-02-02T12:17:33Z</time>
      </trkpt>
      <trkpt lat="42.001345" lon="2.823800">
        <ele>68.908</ele>
        <time>2021-02-02T12:17:34Z</time>
      </trkpt>
      <trkpt lat="42.001248" lon="2.823863">
        <ele>68.767</ele>
        <time>2021-02-02T12:17:36Z</time>
      </trkpt>
      <trkpt lat="42.001185" lon="2.823984">
        <ele>68.876</ele>
        <time>2021-02-02T12:17:38Z</time>
      </trkpt>
      <trkpt lat="42.001163" lon="2.824130">
        <ele>68.731</ele>
        <time>2021-02-02T12:17:40Z</time>
      </trkpt>
      <trkpt lat="42.001158" lon="2.824271">
        <ele>68.553</ele>
        <time>2021-02-02T12:17:42Z</time>
      </trkpt>
      <trkpt lat="42.001158" lon="2.824271">
        <ele>68.584</ele>
        <time>2021-02-02T12:17:42Z</time>
      </trkpt>
      <trkpt lat="42.001143" lon="2.824364">
        <ele>69.469</ele>
        <time>2021-02-02T12:17:44Z</time>
      </trkpt>
      <trkpt lat="42.001074" lon="2.824398">
        <ele>69.174</ele>
        <time>2021-02-02T12:17:47Z</time>
      </trkpt>
      <trkpt lat="42.001025" lon="2.824395">
        <ele>68.973</ele>
        <time>2021-02-02T12:17:48Z</time>
      </trkpt>
      <trkpt lat="42.000969" lon="2.824388">
        <ele>68.947</ele>
        <time>2021-02-02T12:17:49Z</time>
      </trkpt>
      <trkpt lat="42.000864" lon="2.824371">
        <ele>68.929</ele>
        <time>2021-02-02T12:17:51Z</time>
      </trkpt>
      <trkpt lat="42.000807" lon="2.824365">
        <ele>68.721</ele>
        <time>2021-02-02T12:17:52Z</time>
      </trkpt>
      <trkpt lat="42.000695" lon="2.824362">
        <ele>68.208</ele>
        <time>2021-02-02T12:17:54Z</time>
      </trkpt>
      <trkpt lat="42.000583" lon="2.824364">
        <ele>68.430</ele>
        <time>2021-02-02T12:17:56Z</time>
      </trkpt>
      <trkpt lat="42.000529" lon="2.824363">
        <ele>68.239</ele>
        <time>2021-02-02T12:17:57Z</time>
      </trkpt>
      <trkpt lat="42.000475" lon="2.824360">
        <ele>68.434</ele>
        <time>2021-02-02T12:17:58Z</time>
      </trkpt>
      <trkpt lat="42.000362" lon="2.824361">
        <ele>68.336</ele>
        <time>2021-02-02T12:18:00Z</time>
      </trkpt>
      <trkpt lat="42.000304" lon="2.824362">
        <ele>68.217</ele>
        <time>2021-02-02T12:18:01Z</time>
      </trkpt>
      <trkpt lat="42.000186" lon="2.824364">
        <ele>67.842</ele>
        <time>2021-02-02T12:18:03Z</time>
      </trkpt>
      <trkpt lat="42.000069" lon="2.824365">
        <ele>67.847</ele>
        <time>2021-02-02T12:18:05Z</time>
      </trkpt>
      <trkpt lat="41.999950" lon="2.824368">
        <ele>68.116</ele>
        <time>2021-02-02T12:18:07Z</time>
      </trkpt>
      <trkpt lat="41.999888" lon="2.824368">
        <ele>67.822</ele>
        <time>2021-02-02T12:18:08Z</time>
      </trkpt>
      <trkpt lat="41.999826" lon="2.824367">
        <ele>68.062</ele>
        <time>2021-02-02T12:18:09Z</time>
      </trkpt>
      <trkpt lat="41.999706" lon="2.824368">
        <ele>67.608</ele>
        <time>2021-02-02T12:18:11Z</time>
      </trkpt>
      <trkpt lat="41.999647" lon="2.824370">
        <ele>67.508</ele>
        <time>2021-02-02T12:18:12Z</time>
      </trkpt>
      <trkpt lat="41.999587" lon="2.824372">
        <ele>67.478</ele>
        <time>2021-02-02T12:18:13Z</time>
      </trkpt>
      <trkpt lat="41.999527" lon="2.824373">
        <ele>67.417</ele>
        <time>2021-02-02T12:18:14Z</time>
      </trkpt>
      <trkpt lat="41.999414" lon="2.824372">
        <ele>67.422</ele>
        <time>2021-02-02T12:18:16Z</time>
      </trkpt>
      <trkpt lat="41.999414" lon="2.824372">
        <ele>67.434</ele>
        <time>2021-02-02T12:18:16Z</time>
      </trkpt>
      <trkpt lat="41.999355" lon="2.824370">
        <ele>67.775</ele>
        <time>2021-02-02T12:18:17Z</time>
      </trkpt>
      <trkpt lat="41.999239" lon="2.824371">
        <ele>67.350</ele>
        <time>2021-02-02T12:18:19Z</time>
      </trkpt>
      <trkpt lat="41.999120" lon="2.824376">
        <ele>67.235</ele>
        <time>2021-02-02T12:18:21Z</time>
      </trkpt>
      <trkpt lat="41.999007" lon="2.824374">
        <ele>67.314</ele>
        <time>2021-02-02T12:18:23Z</time>
      </trkpt>
      <trkpt lat="41.998888" lon="2.824375">
        <ele>66.894</ele>
        <time>2021-02-02T12:18:25Z</time>
      </trkpt>
      <trkpt lat="41.998829" lon="2.824378">
        <ele>67.257</ele>
        <time>2021-02-02T12:18:26Z</time>
      </trkpt>
      <trkpt lat="41.998708" lon="2.824382">
        <ele>66.822</ele>
        <time>2021-02-02T12:18:28Z</time>
      </trkpt>
      <trkpt lat="41.998596" lon="2.824383">
        <ele>67.008</ele>
        <time>2021-02-02T12:18:30Z</time>
      </trkpt>
      <trkpt lat="41.998538" lon="2.824386">
        <ele>67.025</ele>
        <time>2021-02-02T12:18:31Z</time>
      </trkpt>
      <trkpt lat="41.998419" lon="2.824399">
        <ele>66.714</ele>
        <time>2021-02-02T12:18:33Z</time>
      </trkpt>
      <trkpt lat="41.998419" lon="2.824399">
        <ele>66.779</ele>
        <time>2021-02-02T12:18:33Z</time>
      </trkpt>
      <trkpt lat="41.998357" lon="2.824400">
        <ele>67.041</ele>
        <time>2021-02-02T12:18:34Z</time>
      </trkpt>
      <trkpt lat="41.998234" lon="2.824406">
        <ele>66.942</ele>
        <time>2021-02-02T12:18:36Z</time>
      </trkpt>
      <trkpt lat="41.998175" lon="2.824410">
        <ele>66.727</ele>
        <time>2021-02-02T12:18:37Z</time>
      </trkpt>
      <trkpt lat="41.998117" lon="2.824411">
        <ele>66.782</ele>
        <time>2021-02-02T12:18:38Z</time>
      </trkpt>
      <trkpt lat="41.998008" lon="2.824414">
        <ele>66.541</ele>
        <time>2021-02-02T12:18:40Z</time>
      </trkpt>
      <trkpt lat="41.997894" lon="2.824421">
        <ele>66.111</ele>
        <time>2021-02-02T12:18:42Z</time>
      </trkpt>
      <trkpt lat="41.997894" lon="2.824421">
        <ele>66.121</ele>
        <time>2021-02-02T12:18:42Z</time>
      </trkpt>
      <trkpt lat="41.997835" lon="2.824424">
        <ele>66.303</ele>
        <time>2021-02-02T12:18:43Z</time>
      </trkpt>
      <trkpt lat="41.997720" lon="2.824420">
        <ele>66.508</ele>
        <time>2021-02-02T12:18:45Z</time>
      </trkpt>
      <trkpt lat="41.997659" lon="2.824419">
        <ele>66.237</ele>
        <time>2021-02-02T12:18:46Z</time>
      </trkpt>
      <trkpt lat="41.997544" lon="2.824416">
        <ele>66.756</ele>
        <time>2021-02-02T12:18:48Z</time>
      </trkpt>
      <trkpt lat="41.997486" lon="2.824425">
        <ele>66.411</ele>
        <time>2021-02-02T12:18:49Z</time>
      </trkpt>
      <trkpt lat="41.997427" lon="2.824438">
        <ele>66.353</ele>
        <time>2021-02-02T12:18:50Z</time>
      </trkpt>
      <trkpt lat="41.997312" lon="2.824469">
        <ele>66.164</ele>
        <time>2021-02-02T12:18:52Z</time>
      </trkpt>
      <trkpt lat="41.997256" lon="2.824484">
        <ele>66.429</ele>
        <time>2021-02-02T12:18:53Z</time>
      </trkpt>
      <trkpt lat="41.997150" lon="2.824517">
        <ele>66.164</ele>
        <time>2021-02-02T12:18:55Z</time>
      </trkpt>
      <trkpt lat="41.997046" lon="2.824548">
        <ele>66.023</ele>
        <time>2021-02-02T12:18:57Z</time>
      </trkpt>
      <trkpt lat="41.996940" lon="2.824588">
        <ele>66.025</ele>
        <time>2021-02-02T12:18:59Z</time>
      </trkpt>
      <trkpt lat="41.996885" lon="2.824613">
        <ele>66.026</ele>
        <time>2021-02-02T12:19:00Z</time>
      </trkpt>
      <trkpt lat="41.996775" lon="2.824663">
        <ele>65.908</ele>
        <time>2021-02-02T12:19:02Z</time>
      </trkpt>
      <trkpt lat="41.996721" lon="2.824684">
        <ele>66.108</ele>
        <time>2021-02-02T12:19:03Z</time>
      </trkpt>
      <trkpt lat="41.996670" lon="2.824702">
        <ele>66.038</ele>
        <time>2021-02-02T12:19:04Z</time>
      </trkpt>
      <trkpt lat="41.996579" lon="2.824740">
        <ele>65.937</ele>
        <time>2021-02-02T12:19:06Z</time>
      </trkpt>
      <trkpt lat="41.996487" lon="2.824783">
        <ele>65.942</ele>
        <time>2021-02-02T12:19:08Z</time>
      </trkpt>
      <trkpt lat="41.996436" lon="2.824807">
        <ele>66.014</ele>
        <time>2021-02-02T12:19:09Z</time>
      </trkpt>
      <trkpt lat="41.996385" lon="2.824833">
        <ele>66.255</ele>
        <time>2021-02-02T12:19:10Z</time>
      </trkpt>
      <trkpt lat="41.996290" lon="2.824879">
        <ele>65.870</ele>
        <time>2021-02-02T12:19:12Z</time>
      </trkpt>
      <trkpt lat="41.996207" lon="2.824923">
        <ele>66.365</ele>
        <time>2021-02-02T12:19:14Z</time>
      </trkpt>
      <trkpt lat="41.996119" lon="2.824974">
        <ele>65.994</ele>
        <time>2021-02-02T12:19:16Z</time>
      </trkpt>
      <trkpt lat="41.996032" lon="2.825020">
        <ele>65.942</ele>
        <time>2021-02-02T12:19:18Z</time>
      </trkpt>
      <trkpt lat="41.995950" lon="2.825067">
        <ele>65.722</ele>
        <time>2021-02-02T12:19:20Z</time>
      </trkpt>
      <trkpt lat="41.995950" lon="2.825067">
        <ele>65.714</ele>
        <time>2021-02-02T12:19:20Z</time>
      </trkpt>
      <trkpt lat="41.995849" lon="2.825125">
        <ele>66.208</ele>
        <time>2021-02-02T12:19:22Z</time>
      </trkpt>
      <trkpt lat="41.995790" lon="2.825159">
        <ele>66.380</ele>
        <time>2021-02-02T12:19:23Z</time>
      </trkpt>
      <trkpt lat="41.995681" lon="2.825225">
        <ele>66.049</ele>
        <time>2021-02-02T12:19:25Z</time>
      </trkpt>
      <trkpt lat="41.995626" lon="2.825256">
        <ele>66.164</ele>
        <time>2021-02-02T12:19:26Z</time>
      </trkpt>
      <trkpt lat="41.995573" lon="2.825282">
        <ele>66.156</ele>
        <time>2021-02-02T12:19:27Z</time>
      </trkpt>
      <trkpt lat="41.995468" lon="2.825327">
        <ele>66.237</ele>
        <time>2021-02-02T12:19:29Z</time>
      </trkpt>
      <trkpt lat="41.995367" lon="2.825365">
        <ele>65.822</ele>
        <time>2021-02-02T12:19:31Z</time>
      </trkpt>
      <trkpt lat="41.995367" lon="2.825365">
        <ele>65.867</ele>
        <time>2021-02-02T12:19:31Z</time>
      </trkpt>
      <trkpt lat="41.995260" lon="2.825404">
        <ele>66.386</ele>
        <time>2021-02-02T12:19:33Z</time>
      </trkpt>
      <trkpt lat="41.995155" lon="2.825441">
        <ele>65.841</ele>
        <time>2021-02-02T12:19:35Z</time>
      </trkpt>
      <trkpt lat="41.995051" lon="2.825477">
        <ele>65.781</ele>
        <time>2021-02-02T12:19:37Z</time>
      </trkpt>
      <trkpt lat="41.994947" lon="2.825509">
        <ele>65.909</ele>
        <time>2021-02-02T12:19:39Z</time>
      </trkpt>
      <trkpt lat="41.994891" lon="2.825533">
        <ele>65.808</ele>
        <time>2021-02-02T12:19:40Z</time>
      </trkpt>
      <trkpt lat="41.994791" lon="2.825570">
        <ele>65.830</ele>
        <time>2021-02-02T12:19:42Z</time>
      </trkpt>
      <trkpt lat="41.994738" lon="2.825584">
        <ele>65.849</ele>
        <time>2021-02-02T12:19:43Z</time>
      </trkpt>
      <trkpt lat="41.994628" lon="2.825614">
        <ele>65.954</ele>
        <time>2021-02-02T12:19:45Z</time>
      </trkpt>
      <trkpt lat="41.994521" lon="2.825639">
        <ele>65.986</ele>
        <time>2021-02-02T12:19:47Z</time>
      </trkpt>
      <trkpt lat="41.994416" lon="2.825655">
        <ele>65.997</ele>
        <time>2021-02-02T12:19:49Z</time>
      </trkpt>
      <trkpt lat="41.994362" lon="2.825664">
        <ele>66.122</ele>
        <time>2021-02-02T12:19:50Z</time>
      </trkpt>
      <trkpt lat="41.994258" lon="2.825685">
        <ele>66.287</ele>
        <time>2021-02-02T12:19:52Z</time>
      </trkpt>
      <trkpt lat="41.994159" lon="2.825708">
        <ele>66.056</ele>
        <time>2021-02-02T12:19:54Z</time>
      </trkpt>
      <trkpt lat="41.994109" lon="2.825720">
        <ele>66.387</ele>
        <time>2021-02-02T12:19:55Z</time>
      </trkpt>
      <trkpt lat="41.994010" lon="2.825750">
        <ele>66.342</ele>
        <time>2021-02-02T12:19:57Z</time>
      </trkpt>
      <trkpt lat="41.993961" lon="2.825763">
        <ele>66.226</ele>
        <time>2021-02-02T12:19:58Z</time>
      </trkpt>
      <trkpt lat="41.993912" lon="2.825773">
        <ele>66.108</ele>
        <time>2021-02-02T12:19:59Z</time>
      </trkpt>
      <trkpt lat="41.993864" lon="2.825782">
        <ele>66.444</ele>
        <time>2021-02-02T12:20:00Z</time>
      </trkpt>
      <trkpt lat="41.993767" lon="2.825802">
        <ele>66.573</ele>
        <time>2021-02-02T12:20:02Z</time>
      </trkpt>
      <trkpt lat="41.993670" lon="2.825823">
        <ele>66.418</ele>
        <time>2021-02-02T12:20:04Z</time>
      </trkpt>
      <trkpt lat="41.993670" lon="2.825823">
        <ele>66.490</ele>
        <time>2021-02-02T12:20:04Z</time>
      </trkpt>
      <trkpt lat="41.993621" lon="2.825831">
        <ele>66.811</ele>
        <time>2021-02-02T12:20:05Z</time>
      </trkpt>
      <trkpt lat="41.993521" lon="2.825850">
        <ele>66.796</ele>
        <time>2021-02-02T12:20:07Z</time>
      </trkpt>
      <trkpt lat="41.993420" lon="2.825867">
        <ele>66.931</ele>
        <time>2021-02-02T12:20:09Z</time>
      </trkpt>
      <trkpt lat="41.993321" lon="2.825871">
        <ele>67.190</ele>
        <time>2021-02-02T12:20:11Z</time>
      </trkpt>
      <trkpt lat="41.993220" lon="2.825869">
        <ele>66.875</ele>
        <time>2021-02-02T12:20:13Z</time>
      </trkpt>
      <trkpt lat="41.993124" lon="2.825858">
        <ele>67.228</ele>
        <time>2021-02-02T12:20:15Z</time>
      </trkpt>
      <trkpt lat="41.993075" lon="2.825844">
        <ele>67.220</ele>
        <time>2021-02-02T12:20:16Z</time>
      </trkpt>
      <trkpt lat="41.992993" lon="2.825819">
        <ele>67.308</ele>
        <time>2021-02-02T12:20:18Z</time>
      </trkpt>
      <trkpt lat="41.992993" lon="2.825819">
        <ele>67.383</ele>
        <time>2021-02-02T12:20:18Z</time>
      </trkpt>
      <trkpt lat="41.992945" lon="2.825798">
        <ele>67.252</ele>
        <time>2021-02-02T12:20:19Z</time>
      </trkpt>
      <trkpt lat="41.992847" lon="2.825750">
        <ele>66.927</ele>
        <time>2021-02-02T12:20:21Z</time>
      </trkpt>
      <trkpt lat="41.992750" lon="2.825702">
        <ele>67.759</ele>
        <time>2021-02-02T12:20:23Z</time>
      </trkpt>
      <trkpt lat="41.992658" lon="2.825649">
        <ele>67.530</ele>
        <time>2021-02-02T12:20:25Z</time>
      </trkpt>
      <trkpt lat="41.992557" lon="2.825584">
        <ele>67.685</ele>
        <time>2021-02-02T12:20:27Z</time>
      </trkpt>
      <trkpt lat="41.992512" lon="2.825556">
        <ele>67.760</ele>
        <time>2021-02-02T12:20:28Z</time>
      </trkpt>
      <trkpt lat="41.992436" lon="2.825510">
        <ele>67.719</ele>
        <time>2021-02-02T12:20:30Z</time>
      </trkpt>
      <trkpt lat="41.992390" lon="2.825479">
        <ele>67.996</ele>
        <time>2021-02-02T12:20:31Z</time>
      </trkpt>
      <trkpt lat="41.992309" lon="2.825421">
        <ele>68.131</ele>
        <time>2021-02-02T12:20:33Z</time>
      </trkpt>
      <trkpt lat="41.992205" lon="2.825339">
        <ele>67.824</ele>
        <time>2021-02-02T12:20:35Z</time>
      </trkpt>
      <trkpt lat="41.992119" lon="2.825282">
        <ele>67.808</ele>
        <time>2021-02-02T12:20:37Z</time>
      </trkpt>
      <trkpt lat="41.992072" lon="2.825250">
        <ele>67.855</ele>
        <time>2021-02-02T12:20:38Z</time>
      </trkpt>
      <trkpt lat="41.991988" lon="2.825194">
        <ele>67.994</ele>
        <time>2021-02-02T12:20:40Z</time>
      </trkpt>
      <trkpt lat="41.991903" lon="2.825143">
        <ele>67.899</ele>
        <time>2021-02-02T12:20:42Z</time>
      </trkpt>
      <trkpt lat="41.991903" lon="2.825143">
        <ele>67.861</ele>
        <time>2021-02-02T12:20:42Z</time>
      </trkpt>
      <trkpt lat="41.991854" lon="2.825115">
        <ele>68.192</ele>
        <time>2021-02-02T12:20:43Z</time>
      </trkpt>
      <trkpt lat="41.991772" lon="2.825069">
        <ele>68.417</ele>
        <time>2021-02-02T12:20:45Z</time>
      </trkpt>
      <trkpt lat="41.991691" lon="2.825020">
        <ele>68.112</ele>
        <time>2021-02-02T12:20:47Z</time>
      </trkpt>
      <trkpt lat="41.991639" lon="2.824991">
        <ele>68.271</ele>
        <time>2021-02-02T12:20:48Z</time>
      </trkpt>
      <trkpt lat="41.991540" lon="2.824934">
        <ele>68.224</ele>
        <time>2021-02-02T12:20:50Z</time>
      </trkpt>
      <trkpt lat="41.991485" lon="2.824899">
        <ele>68.304</ele>
        <time>2021-02-02T12:20:51Z</time>
      </trkpt>
      <trkpt lat="41.991400" lon="2.824835">
        <ele>68.314</ele>
        <time>2021-02-02T12:20:53Z</time>
      </trkpt>
      <trkpt lat="41.991304" lon="2.824783">
        <ele>68.508</ele>
        <time>2021-02-02T12:20:55Z</time>
      </trkpt>
      <trkpt lat="41.991231" lon="2.824750">
        <ele>68.748</ele>
        <time>2021-02-02T12:20:57Z</time>
      </trkpt>
      <trkpt lat="41.991186" lon="2.824728">
        <ele>69.087</ele>
        <time>2021-02-02T12:20:58Z</time>
      </trkpt>
      <trkpt lat="41.991137" lon="2.824700">
        <ele>68.882</ele>
        <time>2021-02-02T12:20:59Z</time>
      </trkpt>
      <trkpt lat="41.991055" lon="2.824660">
        <ele>68.694</ele>
        <time>2021-02-02T12:21:01Z</time>
      </trkpt>
      <trkpt lat="41.990981" lon="2.824591">
        <ele>68.575</ele>
        <time>2021-02-02T12:21:03Z</time>
      </trkpt>
      <trkpt lat="41.990981" lon="2.824591">
        <ele>68.530</ele>
        <time>2021-02-02T12:21:03Z</time>
      </trkpt>
      <trkpt lat="41.990949" lon="2.824542">
        <ele>68.765</ele>
        <time>2021-02-02T12:21:04Z</time>
      </trkpt>
      <trkpt lat="41.990916" lon="2.824496">
        <ele>69.064</ele>
        <time>2021-02-02T12:21:05Z</time>
      </trkpt>
      <trkpt lat="41.990832" lon="2.824395">
        <ele>69.129</ele>
        <time>2021-02-02T12:21:07Z</time>
      </trkpt>
      <trkpt lat="41.990757" lon="2.824329">
        <ele>69.200</ele>
        <time>2021-02-02T12:21:09Z</time>
      </trkpt>
      <trkpt lat="41.990707" lon="2.824301">
        <ele>69.020</ele>
        <time>2021-02-02T12:21:10Z</time>
      </trkpt>
      <trkpt lat="41.990614" lon="2.824243">
        <ele>68.908</ele>
        <time>2021-02-02T12:21:12Z</time>
      </trkpt>
      <trkpt lat="41.990524" lon="2.824180">
        <ele>69.358</ele>
        <time>2021-02-02T12:21:14Z</time>
      </trkpt>
      <trkpt lat="41.990428" lon="2.824121">
        <ele>68.987</ele>
        <time>2021-02-02T12:21:16Z</time>
      </trkpt>
      <trkpt lat="41.990355" lon="2.824069">
        <ele>68.942</ele>
        <time>2021-02-02T12:21:18Z</time>
      </trkpt>
      <trkpt lat="41.990306" lon="2.824033">
        <ele>69.394</ele>
        <time>2021-02-02T12:21:19Z</time>
      </trkpt>
      <trkpt lat="41.990213" lon="2.823982">
        <ele>69.245</ele>
        <time>2021-02-02T12:21:21Z</time>
      </trkpt>
      <trkpt lat="41.990128" lon="2.823933">
        <ele>69.480</ele>
        <time>2021-02-02T12:21:23Z</time>
      </trkpt>
      <trkpt lat="41.990046" lon="2.823881">
        <ele>69.445</ele>
        <time>2021-02-02T12:21:25Z</time>
      </trkpt>
      <trkpt lat="41.989966" lon="2.823855">
        <ele>69.574</ele>
        <time>2021-02-02T12:21:27Z</time>
      </trkpt>
      <trkpt lat="41.989889" lon="2.823805">
        <ele>69.744</ele>
        <time>2021-02-02T12:21:29Z</time>
      </trkpt>
      <trkpt lat="41.989889" lon="2.823805">
        <ele>69.705</ele>
        <time>2021-02-02T12:21:29Z</time>
      </trkpt>
      <trkpt lat="41.989810" lon="2.823767">
        <ele>69.715</ele>
        <time>2021-02-02T12:21:31Z</time>
      </trkpt>
      <trkpt lat="41.989735" lon="2.823725">
        <ele>69.808</ele>
        <time>2021-02-02T12:21:33Z</time>
      </trkpt>
      <trkpt lat="41.989663" lon="2.823671">
        <ele>69.680</ele>
        <time>2021-02-02T12:21:35Z</time>
      </trkpt>
      <trkpt lat="41.989606" lon="2.823614">
        <ele>69.789</ele>
        <time>2021-02-02T12:21:37Z</time>
      </trkpt>
      <trkpt lat="41.989568" lon="2.823551">
        <ele>69.674</ele>
        <time>2021-02-02T12:21:39Z</time>
      </trkpt>
      <trkpt lat="41.989557" lon="2.823466">
        <ele>69.666</ele>
        <time>2021-02-02T12:21:41Z</time>
      </trkpt>
      <trkpt lat="41.989553" lon="2.823366">
        <ele>69.737</ele>
        <time>2021-02-02T12:21:43Z</time>
      </trkpt>
      <trkpt lat="41.989552" lon="2.823253">
        <ele>70.482</ele>
        <time>2021-02-02T12:21:45Z</time>
      </trkpt>
      <trkpt lat="41.989548" lon="2.823117">
        <ele>70.437</ele>
        <time>2021-02-02T12:21:47Z</time>
      </trkpt>
      <trkpt lat="41.989543" lon="2.822982">
        <ele>70.236</ele>
        <time>2021-02-02T12:21:49Z</time>
      </trkpt>
      <trkpt lat="41.989539" lon="2.822871">
        <ele>69.926</ele>
        <time>2021-02-02T12:21:51Z</time>
      </trkpt>
      <trkpt lat="41.989536" lon="2.822799">
        <ele>70.047</ele>
        <time>2021-02-02T12:21:53Z</time>
      </trkpt>
      <trkpt lat="41.989488" lon="2.822803">
        <ele>70.111</ele>
        <time>2021-02-02T12:21:57Z</time>
      </trkpt>
      <trkpt lat="41.989445" lon="2.822825">
        <ele>70.608</ele>
        <time>2021-02-02T12:21:59Z</time>
      </trkpt>
      <trkpt lat="41.989375" lon="2.822813">
        <ele>69.868</ele>
        <time>2021-02-02T12:22:01Z</time>
      </trkpt>
      <trkpt lat="41.989275" lon="2.822760">
        <ele>69.677</ele>
        <time>2021-02-02T12:22:03Z</time>
      </trkpt>
      <trkpt lat="41.989185" lon="2.822699">
        <ele>69.392</ele>
        <time>2021-02-02T12:22:05Z</time>
      </trkpt>
      <trkpt lat="41.989090" lon="2.822647">
        <ele>69.254</ele>
        <time>2021-02-02T12:22:07Z</time>
      </trkpt>
      <trkpt lat="41.989041" lon="2.822648">
        <ele>69.135</ele>
        <time>2021-02-02T12:22:08Z</time>
      </trkpt>
      <trkpt lat="41.988947" lon="2.822687">
        <ele>69.150</ele>
        <time>2021-02-02T12:22:10Z</time>
      </trkpt>
      <trkpt lat="41.988899" lon="2.822711">
        <ele>69.155</ele>
        <time>2021-02-02T12:22:11Z</time>
      </trkpt>
      <trkpt lat="41.988799" lon="2.822743">
        <ele>69.584</ele>
        <time>2021-02-02T12:22:13Z</time>
      </trkpt>
      <trkpt lat="41.988700" lon="2.822776">
        <ele>69.633</ele>
        <time>2021-02-02T12:22:15Z</time>
      </trkpt>
      <trkpt lat="41.988650" lon="2.822791">
        <ele>69.423</ele>
        <time>2021-02-02T12:22:16Z</time>
      </trkpt>
      <trkpt lat="41.988550" lon="2.822820">
        <ele>69.415</ele>
        <time>2021-02-02T12:22:18Z</time>
      </trkpt>
      <trkpt lat="41.988499" lon="2.822833">
        <ele>69.408</ele>
        <time>2021-02-02T12:22:19Z</time>
      </trkpt>
      <trkpt lat="41.988397" lon="2.822860">
        <ele>69.529</ele>
        <time>2021-02-02T12:22:21Z</time>
      </trkpt>
      <trkpt lat="41.988344" lon="2.822873">
        <ele>69.318</ele>
        <time>2021-02-02T12:22:22Z</time>
      </trkpt>
      <trkpt lat="41.988241" lon="2.822897">
        <ele>69.613</ele>
        <time>2021-02-02T12:22:24Z</time>
      </trkpt>
      <trkpt lat="41.988190" lon="2.822908">
        <ele>69.585</ele>
        <time>2021-02-02T12:22:25Z</time>
      </trkpt>
      <trkpt lat="41.988096" lon="2.822940">
        <ele>69.736</ele>
        <time>2021-02-02T12:22:27Z</time>
      </trkpt>
      <trkpt lat="41.988051" lon="2.822952">
        <ele>69.891</ele>
        <time>2021-02-02T12:22:28Z</time>
      </trkpt>
      <trkpt lat="41.987960" lon="2.823013">
        <ele>69.546</ele>
        <time>2021-02-02T12:22:30Z</time>
      </trkpt>
      <trkpt lat="41.987912" lon="2.823044">
        <ele>69.655</ele>
        <time>2021-02-02T12:22:31Z</time>
      </trkpt>
      <trkpt lat="41.987856" lon="2.823077">
        <ele>69.553</ele>
        <time>2021-02-02T12:22:32Z</time>
      </trkpt>
      <trkpt lat="41.987756" lon="2.823127">
        <ele>69.504</ele>
        <time>2021-02-02T12:22:34Z</time>
      </trkpt>
      <trkpt lat="41.987657" lon="2.823171">
        <ele>69.514</ele>
        <time>2021-02-02T12:22:36Z</time>
      </trkpt>
      <trkpt lat="41.987580" lon="2.823197">
        <ele>69.508</ele>
        <time>2021-02-02T12:22:38Z</time>
      </trkpt>
      <trkpt lat="41.987580" lon="2.823197">
        <ele>69.511</ele>
        <time>2021-02-02T12:22:38Z</time>
      </trkpt>
      <trkpt lat="41.987526" lon="2.823213">
        <ele>69.640</ele>
        <time>2021-02-02T12:22:39Z</time>
      </trkpt>
      <trkpt lat="41.987428" lon="2.823242">
        <ele>69.795</ele>
        <time>2021-02-02T12:22:41Z</time>
      </trkpt>
      <trkpt lat="41.987428" lon="2.823242">
        <ele>69.737</ele>
        <time>2021-02-02T12:22:41Z</time>
      </trkpt>
      <trkpt lat="41.987371" lon="2.823255">
        <ele>69.898</ele>
        <time>2021-02-02T12:22:42Z</time>
      </trkpt>
      <trkpt lat="41.987256" lon="2.823285">
        <ele>69.583</ele>
        <time>2021-02-02T12:22:44Z</time>
      </trkpt>
      <trkpt lat="41.987256" lon="2.823285">
        <ele>69.598</ele>
        <time>2021-02-02T12:22:44Z</time>
      </trkpt>
      <trkpt lat="41.987154" lon="2.823317">
        <ele>69.447</ele>
        <time>2021-02-02T12:22:46Z</time>
      </trkpt>
      <trkpt lat="41.987097" lon="2.823339">
        <ele>69.596</ele>
        <time>2021-02-02T12:22:47Z</time>
      </trkpt>
      <trkpt lat="41.987045" lon="2.823357">
        <ele>69.531</ele>
        <time>2021-02-02T12:22:48Z</time>
      </trkpt>
      <trkpt lat="41.986960" lon="2.823414">
        <ele>69.724</ele>
        <time>2021-02-02T12:22:50Z</time>
      </trkpt>
      <trkpt lat="41.986915" lon="2.823444">
        <ele>69.708</ele>
        <time>2021-02-02T12:22:51Z</time>
      </trkpt>
      <trkpt lat="41.986867" lon="2.823476">
        <ele>69.955</ele>
        <time>2021-02-02T12:22:52Z</time>
      </trkpt>
      <trkpt lat="41.986798" lon="2.823511">
        <ele>69.994</ele>
        <time>2021-02-02T12:22:54Z</time>
      </trkpt>
      <trkpt lat="41.986722" lon="2.823551">
        <ele>69.839</ele>
        <time>2021-02-02T12:22:55Z</time>
      </trkpt>
      <trkpt lat="41.986667" lon="2.823581">
        <ele>70.051</ele>
        <time>2021-02-02T12:22:56Z</time>
      </trkpt>
      <trkpt lat="41.986578" lon="2.823645">
        <ele>69.932</ele>
        <time>2021-02-02T12:22:58Z</time>
      </trkpt>
      <trkpt lat="41.986536" lon="2.823678">
        <ele>70.127</ele>
        <time>2021-02-02T12:22:59Z</time>
      </trkpt>
      <trkpt lat="41.986494" lon="2.823703">
        <ele>70.342</ele>
        <time>2021-02-02T12:23:00Z</time>
      </trkpt>
      <trkpt lat="41.986431" lon="2.823749">
        <ele>69.941</ele>
        <time>2021-02-02T12:23:02Z</time>
      </trkpt>
      <trkpt lat="41.986386" lon="2.823769">
        <ele>70.014</ele>
        <time>2021-02-02T12:23:05Z</time>
      </trkpt>
      <trkpt lat="41.986333" lon="2.823752">
        <ele>69.954</ele>
        <time>2021-02-02T12:23:07Z</time>
      </trkpt>
      <trkpt lat="41.986271" lon="2.823705">
        <ele>70.209</ele>
        <time>2021-02-02T12:23:09Z</time>
      </trkpt>
      <trkpt lat="41.986218" lon="2.823660">
        <ele>70.008</ele>
        <time>2021-02-02T12:23:11Z</time>
      </trkpt>
      <trkpt lat="41.986154" lon="2.823614">
        <ele>69.717</ele>
        <time>2021-02-02T12:23:12Z</time>
      </trkpt>
      <trkpt lat="41.986082" lon="2.823560">
        <ele>69.966</ele>
        <time>2021-02-02T12:23:14Z</time>
      </trkpt>
      <trkpt lat="41.986038" lon="2.823532">
        <ele>70.251</ele>
        <time>2021-02-02T12:23:15Z</time>
      </trkpt>
      <trkpt lat="41.985914" lon="2.823511">
        <ele>69.633</ele>
        <time>2021-02-02T12:23:17Z</time>
      </trkpt>
      <trkpt lat="41.985861" lon="2.823505">
        <ele>69.824</ele>
        <time>2021-02-02T12:23:18Z</time>
      </trkpt>
      <trkpt lat="41.985788" lon="2.823503">
        <ele>69.539</ele>
        <time>2021-02-02T12:23:20Z</time>
      </trkpt>
      <trkpt lat="41.985703" lon="2.823519">
        <ele>69.614</ele>
        <time>2021-02-02T12:23:21Z</time>
      </trkpt>
      <trkpt lat="41.985658" lon="2.823531">
        <ele>70.083</ele>
        <time>2021-02-02T12:23:22Z</time>
      </trkpt>
      <trkpt lat="41.985599" lon="2.823537">
        <ele>69.281</ele>
        <time>2021-02-02T12:23:24Z</time>
      </trkpt>
      <trkpt lat="41.985535" lon="2.823537">
        <ele>70.761</ele>
        <time>2021-02-02T12:23:25Z</time>
      </trkpt>
      <trkpt lat="41.985470" lon="2.823523">
        <ele>70.017</ele>
        <time>2021-02-02T12:23:27Z</time>
      </trkpt>
      <trkpt lat="41.985425" lon="2.823515">
        <ele>69.908</ele>
        <time>2021-02-02T12:23:29Z</time>
      </trkpt>
      <trkpt lat="41.985378" lon="2.823502">
        <ele>69.734</ele>
        <time>2021-02-02T12:23:30Z</time>
      </trkpt>
      <trkpt lat="41.985319" lon="2.823495">
        <ele>69.743</ele>
        <time>2021-02-02T12:23:32Z</time>
      </trkpt>
      <trkpt lat="41.985256" lon="2.823495">
        <ele>70.388</ele>
        <time>2021-02-02T12:23:34Z</time>
      </trkpt>
      <trkpt lat="41.985203" lon="2.823496">
        <ele>70.190</ele>
        <time>2021-02-02T12:23:35Z</time>
      </trkpt>
      <trkpt lat="41.985136" lon="2.823496">
        <ele>70.271</ele>
        <time>2021-02-02T12:23:37Z</time>
      </trkpt>
      <trkpt lat="41.985090" lon="2.823486">
        <ele>70.176</ele>
        <time>2021-02-02T12:23:39Z</time>
      </trkpt>
      <trkpt lat="41.985019" lon="2.823476">
        <ele>70.641</ele>
        <time>2021-02-02T12:23:41Z</time>
      </trkpt>
      <trkpt lat="41.984958" lon="2.823467">
        <ele>70.360</ele>
        <time>2021-02-02T12:23:43Z</time>
      </trkpt>
      <trkpt lat="41.984901" lon="2.823458">
        <ele>70.521</ele>
        <time>2021-02-02T12:23:45Z</time>
      </trkpt>
      <trkpt lat="41.984825" lon="2.823461">
        <ele>70.841</ele>
        <time>2021-02-02T12:23:47Z</time>
      </trkpt>
      <trkpt lat="41.984750" lon="2.823443">
        <ele>70.505</ele>
        <time>2021-02-02T12:23:49Z</time>
      </trkpt>
      <trkpt lat="41.984683" lon="2.823416">
        <ele>70.608</ele>
        <time>2021-02-02T12:23:51Z</time>
      </trkpt>
      <trkpt lat="41.984616" lon="2.823379">
        <ele>70.498</ele>
        <time>2021-02-02T12:23:53Z</time>
      </trkpt>
      <trkpt lat="41.984559" lon="2.823357">
        <ele>70.577</ele>
        <time>2021-02-02T12:23:55Z</time>
      </trkpt>
      <trkpt lat="41.984431" lon="2.823318">
        <ele>70.012</ele>
        <time>2021-02-02T12:23:56Z</time>
      </trkpt>
      <trkpt lat="41.984326" lon="2.823302">
        <ele>70.054</ele>
        <time>2021-02-02T12:23:58Z</time>
      </trkpt>
      <trkpt lat="41.984227" lon="2.823276">
        <ele>69.945</ele>
        <time>2021-02-02T12:24:00Z</time>
      </trkpt>
      <trkpt lat="41.984155" lon="2.823262">
        <ele>69.960</ele>
        <time>2021-02-02T12:24:02Z</time>
      </trkpt>
      <trkpt lat="41.984101" lon="2.823243">
        <ele>69.995</ele>
        <time>2021-02-02T12:24:03Z</time>
      </trkpt>
      <trkpt lat="41.984041" lon="2.823216">
        <ele>69.734</ele>
        <time>2021-02-02T12:24:04Z</time>
      </trkpt>
      <trkpt lat="41.983995" lon="2.823199">
        <ele>69.518</ele>
        <time>2021-02-02T12:24:05Z</time>
      </trkpt>
      <trkpt lat="41.983936" lon="2.823127">
        <ele>69.398</ele>
        <time>2021-02-02T12:24:07Z</time>
      </trkpt>
      <trkpt lat="41.983887" lon="2.823109">
        <ele>69.417</ele>
        <time>2021-02-02T12:24:08Z</time>
      </trkpt>
      <trkpt lat="41.983828" lon="2.823125">
        <ele>69.408</ele>
        <time>2021-02-02T12:24:09Z</time>
      </trkpt>
      <trkpt lat="41.983729" lon="2.823119">
        <ele>69.487</ele>
        <time>2021-02-02T12:24:11Z</time>
      </trkpt>
      <trkpt lat="41.983672" lon="2.823104">
        <ele>69.626</ele>
        <time>2021-02-02T12:24:12Z</time>
      </trkpt>
      <trkpt lat="41.983618" lon="2.823093">
        <ele>69.541</ele>
        <time>2021-02-02T12:24:13Z</time>
      </trkpt>
      <trkpt lat="41.983515" lon="2.823062">
        <ele>69.093</ele>
        <time>2021-02-02T12:24:15Z</time>
      </trkpt>
      <trkpt lat="41.983417" lon="2.823028">
        <ele>69.354</ele>
        <time>2021-02-02T12:24:17Z</time>
      </trkpt>
      <trkpt lat="41.983417" lon="2.823028">
        <ele>69.319</ele>
        <time>2021-02-02T12:24:17Z</time>
      </trkpt>
      <trkpt lat="41.983330" lon="2.822997">
        <ele>69.394</ele>
        <time>2021-02-02T12:24:19Z</time>
      </trkpt>
      <trkpt lat="41.983265" lon="2.822976">
        <ele>69.213</ele>
        <time>2021-02-02T12:24:21Z</time>
      </trkpt>
      <trkpt lat="41.983166" lon="2.822958">
        <ele>69.548</ele>
        <time>2021-02-02T12:24:23Z</time>
      </trkpt>
      <trkpt lat="41.983123" lon="2.822938">
        <ele>70.761</ele>
        <time>2021-02-02T12:24:24Z</time>
      </trkpt>
      <trkpt lat="41.983057" lon="2.822893">
        <ele>70.717</ele>
        <time>2021-02-02T12:24:26Z</time>
      </trkpt>
      <trkpt lat="41.982992" lon="2.822859">
        <ele>70.508</ele>
        <time>2021-02-02T12:24:27Z</time>
      </trkpt>
      <trkpt lat="41.982920" lon="2.822825">
        <ele>70.970</ele>
        <time>2021-02-02T12:24:29Z</time>
      </trkpt>
      <trkpt lat="41.982844" lon="2.822792">
        <ele>71.229</ele>
        <time>2021-02-02T12:24:31Z</time>
      </trkpt>
      <trkpt lat="41.982795" lon="2.822765">
        <ele>71.344</ele>
        <time>2021-02-02T12:24:33Z</time>
      </trkpt>
      <trkpt lat="41.982748" lon="2.822738">
        <ele>71.366</ele>
        <time>2021-02-02T12:24:35Z</time>
      </trkpt>
      <trkpt lat="41.982684" lon="2.822722">
        <ele>71.617</ele>
        <time>2021-02-02T12:24:37Z</time>
      </trkpt>
      <trkpt lat="41.982602" lon="2.822705">
        <ele>71.112</ele>
        <time>2021-02-02T12:24:39Z</time>
      </trkpt>
      <trkpt lat="41.982518" lon="2.822703">
        <ele>71.177</ele>
        <time>2021-02-02T12:24:41Z</time>
      </trkpt>
      <trkpt lat="41.982463" lon="2.822698">
        <ele>70.726</ele>
        <time>2021-02-02T12:24:43Z</time>
      </trkpt>
      <trkpt lat="41.982404" lon="2.822688">
        <ele>70.494</ele>
        <time>2021-02-02T12:24:46Z</time>
      </trkpt>
      <trkpt lat="41.982353" lon="2.822706">
        <ele>70.557</ele>
        <time>2021-02-02T12:24:48Z</time>
      </trkpt>
      <trkpt lat="41.982296" lon="2.822783">
        <ele>70.522</ele>
        <time>2021-02-02T12:24:50Z</time>
      </trkpt>
      <trkpt lat="41.982261" lon="2.822842">
        <ele>70.308</ele>
        <time>2021-02-02T12:24:51Z</time>
      </trkpt>
      <trkpt lat="41.982205" lon="2.822927">
        <ele>70.535</ele>
        <time>2021-02-02T12:24:53Z</time>
      </trkpt>
      <trkpt lat="41.982163" lon="2.822966">
        <ele>70.514</ele>
        <time>2021-02-02T12:24:54Z</time>
      </trkpt>
      <trkpt lat="41.982116" lon="2.822997">
        <ele>70.839</ele>
        <time>2021-02-02T12:24:55Z</time>
      </trkpt>
      <trkpt lat="41.982021" lon="2.823035">
        <ele>70.931</ele>
        <time>2021-02-02T12:24:57Z</time>
      </trkpt>
      <trkpt lat="41.981969" lon="2.823053">
        <ele>70.842</ele>
        <time>2021-02-02T12:24:58Z</time>
      </trkpt>
      <trkpt lat="41.981919" lon="2.823068">
        <ele>70.837</ele>
        <time>2021-02-02T12:24:59Z</time>
      </trkpt>
      <trkpt lat="41.981817" lon="2.823090">
        <ele>71.112</ele>
        <time>2021-02-02T12:25:01Z</time>
      </trkpt>
      <trkpt lat="41.981765" lon="2.823095">
        <ele>71.061</ele>
        <time>2021-02-02T12:25:02Z</time>
      </trkpt>
      <trkpt lat="41.981714" lon="2.823099">
        <ele>71.056</ele>
        <time>2021-02-02T12:25:03Z</time>
      </trkpt>
      <trkpt lat="41.981614" lon="2.823109">
        <ele>71.259</ele>
        <time>2021-02-02T12:25:05Z</time>
      </trkpt>
      <trkpt lat="41.981563" lon="2.823118">
        <ele>71.114</ele>
        <time>2021-02-02T12:25:06Z</time>
      </trkpt>
      <trkpt lat="41.981461" lon="2.823137">
        <ele>71.008</ele>
        <time>2021-02-02T12:25:08Z</time>
      </trkpt>
      <trkpt lat="41.981411" lon="2.823146">
        <ele>70.731</ele>
        <time>2021-02-02T12:25:09Z</time>
      </trkpt>
      <trkpt lat="41.981361" lon="2.823156">
        <ele>71.390</ele>
        <time>2021-02-02T12:25:10Z</time>
      </trkpt>
      <trkpt lat="41.981309" lon="2.823172">
        <ele>71.375</ele>
        <time>2021-02-02T12:25:11Z</time>
      </trkpt>
      <trkpt lat="41.981208" lon="2.823208">
        <ele>71.337</ele>
        <time>2021-02-02T12:25:13Z</time>
      </trkpt>
      <trkpt lat="41.981107" lon="2.823241">
        <ele>71.438</ele>
        <time>2021-02-02T12:25:15Z</time>
      </trkpt>
      <trkpt lat="41.981005" lon="2.823267">
        <ele>71.793</ele>
        <time>2021-02-02T12:25:17Z</time>
      </trkpt>
      <trkpt lat="41.980914" lon="2.823277">
        <ele>71.488</ele>
        <time>2021-02-02T12:25:19Z</time>
      </trkpt>
      <trkpt lat="41.980914" lon="2.823277">
        <ele>71.447</ele>
        <time>2021-02-02T12:25:19Z</time>
      </trkpt>
      <trkpt lat="41.980817" lon="2.823282">
        <ele>71.535</ele>
        <time>2021-02-02T12:25:21Z</time>
      </trkpt>
      <trkpt lat="41.980753" lon="2.823303">
        <ele>71.486</ele>
        <time>2021-02-02T12:25:22Z</time>
      </trkpt>
      <trkpt lat="41.980643" lon="2.823355">
        <ele>71.614</ele>
        <time>2021-02-02T12:25:24Z</time>
      </trkpt>
      <trkpt lat="41.980536" lon="2.823402">
        <ele>71.508</ele>
        <time>2021-02-02T12:25:26Z</time>
      </trkpt>
      <trkpt lat="41.980434" lon="2.823440">
        <ele>71.149</ele>
        <time>2021-02-02T12:25:28Z</time>
      </trkpt>
      <trkpt lat="41.980380" lon="2.823458">
        <ele>71.368</ele>
        <time>2021-02-02T12:25:29Z</time>
      </trkpt>
      <trkpt lat="41.980380" lon="2.823458">
        <ele>71.393</ele>
        <time>2021-02-02T12:25:29Z</time>
      </trkpt>
      <trkpt lat="41.980268" lon="2.823484">
        <ele>71.775</ele>
        <time>2021-02-02T12:25:31Z</time>
      </trkpt>
      <trkpt lat="41.980158" lon="2.823508">
        <ele>71.786</ele>
        <time>2021-02-02T12:25:33Z</time>
      </trkpt>
      <trkpt lat="41.980050" lon="2.823532">
        <ele>71.711</ele>
        <time>2021-02-02T12:25:35Z</time>
      </trkpt>
      <trkpt lat="41.980050" lon="2.823532">
        <ele>71.776</ele>
        <time>2021-02-02T12:25:35Z</time>
      </trkpt>
      <trkpt lat="41.979995" lon="2.823543">
        <ele>71.795</ele>
        <time>2021-02-02T12:25:36Z</time>
      </trkpt>
      <trkpt lat="41.979995" lon="2.823543">
        <ele>71.763</ele>
        <time>2021-02-02T12:25:36Z</time>
      </trkpt>
      <trkpt lat="41.979888" lon="2.823564">
        <ele>71.944</ele>
        <time>2021-02-02T12:25:38Z</time>
      </trkpt>
      <trkpt lat="41.979888" lon="2.823564">
        <ele>71.918</ele>
        <time>2021-02-02T12:25:38Z</time>
      </trkpt>
      <trkpt lat="41.979790" lon="2.823583">
        <ele>71.808</ele>
        <time>2021-02-02T12:25:40Z</time>
      </trkpt>
      <trkpt lat="41.979743" lon="2.823592">
        <ele>72.032</ele>
        <time>2021-02-02T12:25:41Z</time>
      </trkpt>
      <trkpt lat="41.979639" lon="2.823602">
        <ele>71.981</ele>
        <time>2021-02-02T12:25:43Z</time>
      </trkpt>
      <trkpt lat="41.979525" lon="2.823619">
        <ele>71.916</ele>
        <time>2021-02-02T12:25:45Z</time>
      </trkpt>
      <trkpt lat="41.979429" lon="2.823631">
        <ele>72.058</ele>
        <time>2021-02-02T12:25:47Z</time>
      </trkpt>
      <trkpt lat="41.979373" lon="2.823638">
        <ele>72.059</ele>
        <time>2021-02-02T12:25:48Z</time>
      </trkpt>
      <trkpt lat="41.979319" lon="2.823650">
        <ele>72.224</ele>
        <time>2021-02-02T12:25:49Z</time>
      </trkpt>
      <trkpt lat="41.979319" lon="2.823650">
        <ele>72.269</ele>
        <time>2021-02-02T12:25:49Z</time>
      </trkpt>
      <trkpt lat="41.979206" lon="2.823675">
        <ele>72.238</ele>
        <time>2021-02-02T12:25:51Z</time>
      </trkpt>
      <trkpt lat="41.979156" lon="2.823669">
        <ele>72.359</ele>
        <time>2021-02-02T12:25:52Z</time>
      </trkpt>
      <trkpt lat="41.979071" lon="2.823666">
        <ele>72.003</ele>
        <time>2021-02-02T12:25:54Z</time>
      </trkpt>
      <trkpt lat="41.978978" lon="2.823727">
        <ele>72.323</ele>
        <time>2021-02-02T12:25:56Z</time>
      </trkpt>
      <trkpt lat="41.978923" lon="2.823793">
        <ele>72.208</ele>
        <time>2021-02-02T12:25:57Z</time>
      </trkpt>
      <trkpt lat="41.978864" lon="2.823885">
        <ele>74.031</ele>
        <time>2021-02-02T12:25:59Z</time>
      </trkpt>
      <trkpt lat="41.978808" lon="2.823958">
        <ele>73.860</ele>
        <time>2021-02-02T12:26:00Z</time>
      </trkpt>
      <trkpt lat="41.978773" lon="2.824006">
        <ele>74.025</ele>
        <time>2021-02-02T12:26:01Z</time>
      </trkpt>
      <trkpt lat="41.978693" lon="2.824122">
        <ele>74.047</ele>
        <time>2021-02-02T12:26:03Z</time>
      </trkpt>
      <trkpt lat="41.978617" lon="2.824232">
        <ele>73.858</ele>
        <time>2021-02-02T12:26:05Z</time>
      </trkpt>
      <trkpt lat="41.978576" lon="2.824284">
        <ele>73.593</ele>
        <time>2021-02-02T12:26:06Z</time>
      </trkpt>
      <trkpt lat="41.978471" lon="2.824361">
        <ele>72.478</ele>
        <time>2021-02-02T12:26:08Z</time>
      </trkpt>
      <trkpt lat="41.978339" lon="2.824368">
        <ele>72.077</ele>
        <time>2021-02-02T12:26:10Z</time>
      </trkpt>
      <trkpt lat="41.978339" lon="2.824368">
        <ele>72.018</ele>
        <time>2021-02-02T12:26:10Z</time>
      </trkpt>
      <trkpt lat="41.978269" lon="2.824356">
        <ele>71.598</ele>
        <time>2021-02-02T12:26:11Z</time>
      </trkpt>
      <trkpt lat="41.978139" lon="2.824329">
        <ele>71.117</ele>
        <time>2021-02-02T12:26:13Z</time>
      </trkpt>
      <trkpt lat="41.978139" lon="2.824329">
        <ele>71.108</ele>
        <time>2021-02-02T12:26:13Z</time>
      </trkpt>
      <trkpt lat="41.978077" lon="2.824318">
        <ele>71.457</ele>
        <time>2021-02-02T12:26:14Z</time>
      </trkpt>
      <trkpt lat="41.977960" lon="2.824308">
        <ele>71.576</ele>
        <time>2021-02-02T12:26:16Z</time>
      </trkpt>
      <trkpt lat="41.977906" lon="2.824306">
        <ele>71.491</ele>
        <time>2021-02-02T12:26:17Z</time>
      </trkpt>
      <trkpt lat="41.977798" lon="2.824306">
        <ele>71.293</ele>
        <time>2021-02-02T12:26:19Z</time>
      </trkpt>
      <trkpt lat="41.977687" lon="2.824303">
        <ele>71.514</ele>
        <time>2021-02-02T12:26:21Z</time>
      </trkpt>
      <trkpt lat="41.977572" lon="2.824293">
        <ele>71.339</ele>
        <time>2021-02-02T12:26:23Z</time>
      </trkpt>
      <trkpt lat="41.977519" lon="2.824289">
        <ele>71.614</ele>
        <time>2021-02-02T12:26:24Z</time>
      </trkpt>
      <trkpt lat="41.977467" lon="2.824284">
        <ele>71.473</ele>
        <time>2021-02-02T12:26:25Z</time>
      </trkpt>
      <trkpt lat="41.977360" lon="2.824273">
        <ele>71.693</ele>
        <time>2021-02-02T12:26:27Z</time>
      </trkpt>
      <trkpt lat="41.977256" lon="2.824259">
        <ele>71.865</ele>
        <time>2021-02-02T12:26:29Z</time>
      </trkpt>
      <trkpt lat="41.977203" lon="2.824251">
        <ele>71.821</ele>
        <time>2021-02-02T12:26:30Z</time>
      </trkpt>
      <trkpt lat="41.977096" lon="2.824233">
        <ele>72.108</ele>
        <time>2021-02-02T12:26:32Z</time>
      </trkpt>
      <trkpt lat="41.976999" lon="2.824213">
        <ele>71.765</ele>
        <time>2021-02-02T12:26:34Z</time>
      </trkpt>
      <trkpt lat="41.976895" lon="2.824194">
        <ele>72.144</ele>
        <time>2021-02-02T12:26:36Z</time>
      </trkpt>
      <trkpt lat="41.976811" lon="2.824183">
        <ele>71.899</ele>
        <time>2021-02-02T12:26:38Z</time>
      </trkpt>
      <trkpt lat="41.976703" lon="2.824181">
        <ele>71.821</ele>
        <time>2021-02-02T12:26:40Z</time>
      </trkpt>
      <trkpt lat="41.976648" lon="2.824182">
        <ele>71.992</ele>
        <time>2021-02-02T12:26:41Z</time>
      </trkpt>
      <trkpt lat="41.976553" lon="2.824202">
        <ele>71.967</ele>
        <time>2021-02-02T12:26:43Z</time>
      </trkpt>
      <trkpt lat="41.976504" lon="2.824216">
        <ele>71.832</ele>
        <time>2021-02-02T12:26:44Z</time>
      </trkpt>
      <trkpt lat="41.976400" lon="2.824261">
        <ele>72.121</ele>
        <time>2021-02-02T12:26:46Z</time>
      </trkpt>
      <trkpt lat="41.976339" lon="2.824290">
        <ele>72.316</ele>
        <time>2021-02-02T12:26:47Z</time>
      </trkpt>
      <trkpt lat="41.976203" lon="2.824345">
        <ele>72.176</ele>
        <time>2021-02-02T12:26:49Z</time>
      </trkpt>
      <trkpt lat="41.976073" lon="2.824408">
        <ele>72.013</ele>
        <time>2021-02-02T12:26:51Z</time>
      </trkpt>
      <trkpt lat="41.976018" lon="2.824443">
        <ele>72.108</ele>
        <time>2021-02-02T12:26:52Z</time>
      </trkpt>
      <trkpt lat="41.975898" lon="2.824516">
        <ele>72.287</ele>
        <time>2021-02-02T12:26:54Z</time>
      </trkpt>
      <trkpt lat="41.975789" lon="2.824596">
        <ele>72.236</ele>
        <time>2021-02-02T12:26:56Z</time>
      </trkpt>
      <trkpt lat="41.975740" lon="2.824638">
        <ele>72.311</ele>
        <time>2021-02-02T12:26:57Z</time>
      </trkpt>
      <trkpt lat="41.975669" lon="2.824702">
        <ele>72.463</ele>
        <time>2021-02-02T12:26:59Z</time>
      </trkpt>
      <trkpt lat="41.975618" lon="2.824770">
        <ele>72.244</ele>
        <time>2021-02-02T12:27:01Z</time>
      </trkpt>
      <trkpt lat="41.975578" lon="2.824798">
        <ele>72.169</ele>
        <time>2021-02-02T12:27:03Z</time>
      </trkpt>
      <trkpt lat="41.974448" lon="2.814009">
        <ele>79.617</ele>
        <time>2020-11-03T17:29:48Z</time>
      </trkpt>
      <trkpt lat="41.974436" lon="2.814019">
        <ele>79.687</ele>
        <time>2020-11-03T17:29:49Z</time>
      </trkpt>
      <trkpt lat="41.974411" lon="2.814031">
        <ele>79.615</ele>
        <time>2020-11-03T17:29:50Z</time>
      </trkpt>
      <trkpt lat="41.974395" lon="2.814042">
        <ele>79.608</ele>
        <time>2020-11-03T17:29:51Z</time>
      </trkpt>
      <trkpt lat="41.974375" lon="2.814045">
        <ele>79.677</ele>
        <time>2020-11-03T17:29:52Z</time>
      </trkpt>
      <trkpt lat="41.974353" lon="2.814047">
        <ele>79.651</ele>
        <time>2020-11-03T17:29:53Z</time>
      </trkpt>
      <trkpt lat="41.974333" lon="2.814051">
        <ele>79.619</ele>
        <time>2020-11-03T17:29:54Z</time>
      </trkpt>
      <trkpt lat="41.974314" lon="2.814060">
        <ele>79.651</ele>
        <time>2020-11-03T17:29:55Z</time>
      </trkpt>
      <trkpt lat="41.974295" lon="2.814066">
        <ele>79.697</ele>
        <time>2020-11-03T17:29:56Z</time>
      </trkpt>
      <trkpt lat="41.974277" lon="2.814070">
        <ele>79.642</ele>
        <time>2020-11-03T17:29:57Z</time>
      </trkpt>
      <trkpt lat="41.974258" lon="2.814073">
        <ele>79.617</ele>
        <time>2020-11-03T17:29:58Z</time>
      </trkpt>
      <trkpt lat="41.974242" lon="2.814081">
        <ele>79.620</ele>
        <time>2020-11-03T17:29:59Z</time>
      </trkpt>
      <trkpt lat="41.974226" lon="2.814083">
        <ele>79.656</ele>
        <time>2020-11-03T17:30:00Z</time>
      </trkpt>
      <trkpt lat="41.974212" lon="2.814087">
        <ele>79.659</ele>
        <time>2020-11-03T17:30:01Z</time>
      </trkpt>
      <trkpt lat="41.974198" lon="2.814085">
        <ele>79.614</ele>
        <time>2020-11-03T17:30:02Z</time>
      </trkpt>
      <trkpt lat="41.974182" lon="2.814075">
        <ele>79.608</ele>
        <time>2020-11-03T17:30:03Z</time>
      </trkpt>
      <trkpt lat="41.974165" lon="2.814065">
        <ele>79.631</ele>
        <time>2020-11-03T17:30:04Z</time>
      </trkpt>
      <trkpt lat="41.974150" lon="2.814064">
        <ele>79.625</ele>
        <time>2020-11-03T17:30:05Z</time>
      </trkpt>
      <trkpt lat="41.974134" lon="2.814060">
        <ele>79.613</ele>
        <time>2020-11-03T17:30:06Z</time>
      </trkpt>
      <trkpt lat="41.974117" lon="2.814060">
        <ele>79.625</ele>
        <time>2020-11-03T17:30:07Z</time>
      </trkpt>
      <trkpt lat="41.974109" lon="2.814064">
        <ele>79.671</ele>
        <time>2020-11-03T17:30:08Z</time>
      </trkpt>
      <trkpt lat="41.974096" lon="2.814063">
        <ele>79.696</ele>
        <time>2020-11-03T17:30:10Z</time>
      </trkpt>
      <trkpt lat="41.974070" lon="2.814004">
        <ele>79.671</ele>
        <time>2020-11-03T17:30:11Z</time>
      </trkpt>
      <trkpt lat="41.974047" lon="2.813981">
        <ele>79.684</ele>
        <time>2020-11-03T17:30:12Z</time>
      </trkpt>
      <trkpt lat="41.974025" lon="2.813978">
        <ele>79.673</ele>
        <time>2020-11-03T17:30:13Z</time>
      </trkpt>
      <trkpt lat="41.973996" lon="2.813981">
        <ele>79.685</ele>
        <time>2020-11-03T17:30:14Z</time>
      </trkpt>
      <trkpt lat="41.973961" lon="2.813984">
        <ele>79.613</ele>
        <time>2020-11-03T17:30:15Z</time>
      </trkpt>
      <trkpt lat="41.973921" lon="2.813981">
        <ele>79.608</ele>
        <time>2020-11-03T17:30:16Z</time>
      </trkpt>
      <trkpt lat="41.973880" lon="2.813980">
        <ele>79.683</ele>
        <time>2020-11-03T17:30:17Z</time>
      </trkpt>
      <trkpt lat="41.973838" lon="2.813979">
        <ele>79.697</ele>
        <time>2020-11-03T17:30:18Z</time>
      </trkpt>
      <trkpt lat="41.973795" lon="2.813971">
        <ele>79.655</ele>
        <time>2020-11-03T17:30:19Z</time>
      </trkpt>
      <trkpt lat="41.973750" lon="2.813962">
        <ele>79.647</ele>
        <time>2020-11-03T17:30:20Z</time>
      </trkpt>
      <trkpt lat="41.973705" lon="2.813952">
        <ele>79.633</ele>
        <time>2020-11-03T17:30:21Z</time>
      </trkpt>
      <trkpt lat="41.973658" lon="2.813943">
        <ele>79.688</ele>
        <time>2020-11-03T17:30:22Z</time>
      </trkpt>
      <trkpt lat="41.973611" lon="2.813929">
        <ele>79.853</ele>
        <time>2020-11-03T17:30:23Z</time>
      </trkpt>
      <trkpt lat="41.973565" lon="2.813916">
        <ele>79.836</ele>
        <time>2020-11-03T17:30:24Z</time>
      </trkpt>
      <trkpt lat="41.973517" lon="2.813904">
        <ele>80.024</ele>
        <time>2020-11-03T17:30:25Z</time>
      </trkpt>
      <trkpt lat="41.973470" lon="2.813899">
        <ele>80.004</ele>
        <time>2020-11-03T17:30:26Z</time>
      </trkpt>
      <trkpt lat="41.973421" lon="2.813888">
        <ele>80.014</ele>
        <time>2020-11-03T17:30:27Z</time>
      </trkpt>
      <trkpt lat="41.973371" lon="2.813877">
        <ele>80.208</ele>
        <time>2020-11-03T17:30:28Z</time>
      </trkpt>
      <trkpt lat="41.973321" lon="2.813870">
        <ele>80.218</ele>
        <time>2020-11-03T17:30:29Z</time>
      </trkpt>
      <trkpt lat="41.973272" lon="2.813864">
        <ele>80.212</ele>
        <time>2020-11-03T17:30:30Z</time>
      </trkpt>
      <trkpt lat="41.973222" lon="2.813865">
        <ele>80.230</ele>
        <time>2020-11-03T17:30:31Z</time>
      </trkpt>
      <trkpt lat="41.973170" lon="2.813872">
        <ele>80.272</ele>
        <time>2020-11-03T17:30:32Z</time>
      </trkpt>
      <trkpt lat="41.973115" lon="2.813880">
        <ele>80.288</ele>
        <time>2020-11-03T17:30:33Z</time>
      </trkpt>
      <trkpt lat="41.973057" lon="2.813880">
        <ele>80.283</ele>
        <time>2020-11-03T17:30:34Z</time>
      </trkpt>
      <trkpt lat="41.973000" lon="2.813864">
        <ele>80.268</ele>
        <time>2020-11-03T17:30:35Z</time>
      </trkpt>
      <trkpt lat="41.972946" lon="2.813842">
        <ele>80.211</ele>
        <time>2020-11-03T17:30:36Z</time>
      </trkpt>
      <trkpt lat="41.972891" lon="2.813820">
        <ele>80.286</ele>
        <time>2020-11-03T17:30:37Z</time>
      </trkpt>
      <trkpt lat="41.972834" lon="2.813796">
        <ele>80.260</ele>
        <time>2020-11-03T17:30:38Z</time>
      </trkpt>
      <trkpt lat="41.972767" lon="2.813789">
        <ele>80.226</ele>
        <time>2020-11-03T17:30:39Z</time>
      </trkpt>
      <trkpt lat="41.972704" lon="2.813774">
        <ele>80.208</ele>
        <time>2020-11-03T17:30:40Z</time>
      </trkpt>
      <trkpt lat="41.972641" lon="2.813753">
        <ele>80.244</ele>
        <time>2020-11-03T17:30:41Z</time>
      </trkpt>
      <trkpt lat="41.972577" lon="2.813729">
        <ele>80.048</ele>
        <time>2020-11-03T17:30:42Z</time>
      </trkpt>
      <trkpt lat="41.972510" lon="2.813704">
        <ele>79.866</ele>
        <time>2020-11-03T17:30:43Z</time>
      </trkpt>
      <trkpt lat="41.972442" lon="2.813674">
        <ele>79.668</ele>
        <time>2020-11-03T17:30:44Z</time>
      </trkpt>
      <trkpt lat="41.972373" lon="2.813641">
        <ele>79.494</ele>
        <time>2020-11-03T17:30:45Z</time>
      </trkpt>
      <trkpt lat="41.972302" lon="2.813610">
        <ele>79.239</ele>
        <time>2020-11-03T17:30:46Z</time>
      </trkpt>
      <trkpt lat="41.972231" lon="2.813582">
        <ele>79.084</ele>
        <time>2020-11-03T17:30:47Z</time>
      </trkpt>
      <trkpt lat="41.972159" lon="2.813555">
        <ele>78.667</ele>
        <time>2020-11-03T17:30:48Z</time>
      </trkpt>
      <trkpt lat="41.972023" lon="2.813500">
        <ele>78.464</ele>
        <time>2020-11-03T17:30:49Z</time>
      </trkpt>
      <trkpt lat="41.972023" lon="2.813500">
        <ele>78.406</ele>
        <time>2020-11-03T17:30:50Z</time>
      </trkpt>
      <trkpt lat="41.971955" lon="2.813473">
        <ele>78.216</ele>
        <time>2020-11-03T17:30:51Z</time>
      </trkpt>
      <trkpt lat="41.971887" lon="2.813446">
        <ele>78.208</ele>
        <time>2020-11-03T17:30:52Z</time>
      </trkpt>
      <trkpt lat="41.971821" lon="2.813421">
        <ele>78.252</ele>
        <time>2020-11-03T17:30:53Z</time>
      </trkpt>
      <trkpt lat="41.971755" lon="2.813397">
        <ele>78.256</ele>
        <time>2020-11-03T17:30:54Z</time>
      </trkpt>
      <trkpt lat="41.971691" lon="2.813373">
        <ele>78.234</ele>
        <time>2020-11-03T17:30:55Z</time>
      </trkpt>
      <trkpt lat="41.971628" lon="2.813348">
        <ele>78.486</ele>
        <time>2020-11-03T17:30:56Z</time>
      </trkpt>
      <trkpt lat="41.971564" lon="2.813324">
        <ele>78.692</ele>
        <time>2020-11-03T17:30:57Z</time>
      </trkpt>
      <trkpt lat="41.971497" lon="2.813305">
        <ele>78.817</ele>
        <time>2020-11-03T17:30:58Z</time>
      </trkpt>
      <trkpt lat="41.971431" lon="2.813282">
        <ele>79.282</ele>
        <time>2020-11-03T17:30:59Z</time>
      </trkpt>
      <trkpt lat="41.971365" lon="2.813258">
        <ele>79.615</ele>
        <time>2020-11-03T17:31:00Z</time>
      </trkpt>
      <trkpt lat="41.971299" lon="2.813233">
        <ele>79.866</ele>
        <time>2020-11-03T17:31:01Z</time>
      </trkpt>
      <trkpt lat="41.971232" lon="2.813207">
        <ele>79.829</ele>
        <time>2020-11-03T17:31:02Z</time>
      </trkpt>
      <trkpt lat="41.971166" lon="2.813181">
        <ele>80.021</ele>
        <time>2020-11-03T17:31:03Z</time>
      </trkpt>
      <trkpt lat="41.971100" lon="2.813156">
        <ele>80.208</ele>
        <time>2020-11-03T17:31:04Z</time>
      </trkpt>
      <trkpt lat="41.971036" lon="2.813131">
        <ele>80.272</ele>
        <time>2020-11-03T17:31:05Z</time>
      </trkpt>
      <trkpt lat="41.970971" lon="2.813104">
        <ele>80.446</ele>
        <time>2020-11-03T17:31:06Z</time>
      </trkpt>
      <trkpt lat="41.970907" lon="2.813078">
        <ele>80.444</ele>
        <time>2020-11-03T17:31:07Z</time>
      </trkpt>
      <trkpt lat="41.970841" lon="2.813052">
        <ele>80.496</ele>
        <time>2020-11-03T17:31:08Z</time>
      </trkpt>
      <trkpt lat="41.970776" lon="2.813027">
        <ele>80.462</ele>
        <time>2020-11-03T17:31:09Z</time>
      </trkpt>
      <trkpt lat="41.970712" lon="2.813001">
        <ele>80.667</ele>
        <time>2020-11-03T17:31:10Z</time>
      </trkpt>
      <trkpt lat="41.970648" lon="2.812978">
        <ele>80.892</ele>
        <time>2020-11-03T17:31:11Z</time>
      </trkpt>
      <trkpt lat="41.970584" lon="2.812954">
        <ele>80.825</ele>
        <time>2020-11-03T17:31:12Z</time>
      </trkpt>
      <trkpt lat="41.970520" lon="2.812929">
        <ele>81.025</ele>
        <time>2020-11-03T17:31:13Z</time>
      </trkpt>
      <trkpt lat="41.970457" lon="2.812905">
        <ele>81.226</ele>
        <time>2020-11-03T17:31:14Z</time>
      </trkpt>
      <trkpt lat="41.970396" lon="2.812883">
        <ele>81.608</ele>
        <time>2020-11-03T17:31:15Z</time>
      </trkpt>
      <trkpt lat="41.970333" lon="2.812860">
        <ele>81.808</ele>
        <time>2020-11-03T17:31:16Z</time>
      </trkpt>
      <trkpt lat="41.970270" lon="2.812836">
        <ele>81.868</ele>
        <time>2020-11-03T17:31:17Z</time>
      </trkpt>
      <trkpt lat="41.970207" lon="2.812811">
        <ele>81.872</ele>
        <time>2020-11-03T17:31:18Z</time>
      </trkpt>
      <trkpt lat="41.970144" lon="2.812787">
        <ele>82.010</ele>
        <time>2020-11-03T17:31:19Z</time>
      </trkpt>
      <trkpt lat="41.970080" lon="2.812764">
        <ele>82.042</ele>
        <time>2020-11-03T17:31:20Z</time>
      </trkpt>
      <trkpt lat="41.970015" lon="2.812739">
        <ele>82.088</ele>
        <time>2020-11-03T17:31:21Z</time>
      </trkpt>
      <trkpt lat="41.969949" lon="2.812713">
        <ele>82.053</ele>
        <time>2020-11-03T17:31:22Z</time>
      </trkpt>
      <trkpt lat="41.969813" lon="2.812663">
        <ele>82.478</ele>
        <time>2020-11-03T17:31:23Z</time>
      </trkpt>
      <trkpt lat="41.969813" lon="2.812663">
        <ele>82.491</ele>
        <time>2020-11-03T17:31:24Z</time>
      </trkpt>
      <trkpt lat="41.969745" lon="2.812632">
        <ele>82.639</ele>
        <time>2020-11-03T17:31:25Z</time>
      </trkpt>
      <trkpt lat="41.969680" lon="2.812595">
        <ele>82.801</ele>
        <time>2020-11-03T17:31:26Z</time>
      </trkpt>
      <trkpt lat="41.969618" lon="2.812551">
        <ele>83.021</ele>
        <time>2020-11-03T17:31:27Z</time>
      </trkpt>
      <trkpt lat="41.969558" lon="2.812503">
        <ele>83.208</ele>
        <time>2020-11-03T17:31:28Z</time>
      </trkpt>
      <trkpt lat="41.969499" lon="2.812455">
        <ele>83.499</ele>
        <time>2020-11-03T17:31:29Z</time>
      </trkpt>
      <trkpt lat="41.969443" lon="2.812402">
        <ele>83.653</ele>
        <time>2020-11-03T17:31:30Z</time>
      </trkpt>
      <trkpt lat="41.969391" lon="2.812342">
        <ele>83.651</ele>
        <time>2020-11-03T17:31:31Z</time>
      </trkpt>
      <trkpt lat="41.969338" lon="2.812278">
        <ele>83.693</ele>
        <time>2020-11-03T17:31:32Z</time>
      </trkpt>
      <trkpt lat="41.969282" lon="2.812216">
        <ele>83.649</ele>
        <time>2020-11-03T17:31:33Z</time>
      </trkpt>
      <trkpt lat="41.969225" lon="2.812156">
        <ele>83.624</ele>
        <time>2020-11-03T17:31:34Z</time>
      </trkpt>
      <trkpt lat="41.969169" lon="2.812095">
        <ele>83.459</ele>
        <time>2020-11-03T17:31:35Z</time>
      </trkpt>
      <trkpt lat="41.969113" lon="2.812033">
        <ele>83.412</ele>
        <time>2020-11-03T17:31:36Z</time>
      </trkpt>
      <trkpt lat="41.969058" lon="2.811972">
        <ele>83.469</ele>
        <time>2020-11-03T17:31:37Z</time>
      </trkpt>
      <trkpt lat="41.968988" lon="2.811942">
        <ele>83.404</ele>
        <time>2020-11-03T17:31:38Z</time>
      </trkpt>
      <trkpt lat="41.968926" lon="2.811892">
        <ele>83.424</ele>
        <time>2020-11-03T17:31:39Z</time>
      </trkpt>
      <trkpt lat="41.968869" lon="2.811834">
        <ele>83.408</ele>
        <time>2020-11-03T17:31:40Z</time>
      </trkpt>
      <trkpt lat="41.968812" lon="2.811775">
        <ele>83.412</ele>
        <time>2020-11-03T17:31:41Z</time>
      </trkpt>
      <trkpt lat="41.968755" lon="2.811717">
        <ele>83.486</ele>
        <time>2020-11-03T17:31:42Z</time>
      </trkpt>
      <trkpt lat="41.968699" lon="2.811656">
        <ele>83.684</ele>
        <time>2020-11-03T17:31:43Z</time>
      </trkpt>
      <trkpt lat="41.968645" lon="2.811597">
        <ele>83.686</ele>
        <time>2020-11-03T17:31:44Z</time>
      </trkpt>
      <trkpt lat="41.968590" lon="2.811538">
        <ele>83.662</ele>
        <time>2020-11-03T17:31:45Z</time>
      </trkpt>
      <trkpt lat="41.968535" lon="2.811479">
        <ele>83.677</ele>
        <time>2020-11-03T17:31:46Z</time>
      </trkpt>
      <trkpt lat="41.968481" lon="2.811420">
        <ele>83.882</ele>
        <time>2020-11-03T17:31:47Z</time>
      </trkpt>
      <trkpt lat="41.968425" lon="2.811361">
        <ele>83.885</ele>
        <time>2020-11-03T17:31:48Z</time>
      </trkpt>
      <trkpt lat="41.968371" lon="2.811303">
        <ele>83.845</ele>
        <time>2020-11-03T17:31:49Z</time>
      </trkpt>
      <trkpt lat="41.968307" lon="2.811264">
        <ele>83.847</ele>
        <time>2020-11-03T17:31:50Z</time>
      </trkpt>
      <trkpt lat="41.968255" lon="2.811218">
        <ele>83.811</ele>
        <time>2020-11-03T17:31:51Z</time>
      </trkpt>
      <trkpt lat="41.968210" lon="2.811164">
        <ele>83.808</ele>
        <time>2020-11-03T17:31:52Z</time>
      </trkpt>
      <trkpt lat="41.968170" lon="2.811108">
        <ele>83.870</ele>
        <time>2020-11-03T17:31:53Z</time>
      </trkpt>
      <trkpt lat="41.968135" lon="2.811060">
        <ele>83.834</ele>
        <time>2020-11-03T17:31:54Z</time>
      </trkpt>
      <trkpt lat="41.968109" lon="2.811024">
        <ele>84.012</ele>
        <time>2020-11-03T17:31:55Z</time>
      </trkpt>
      <trkpt lat="41.968094" lon="2.810995">
        <ele>84.214</ele>
        <time>2020-11-03T17:31:56Z</time>
      </trkpt>
      <trkpt lat="41.968085" lon="2.810978">
        <ele>84.270</ele>
        <time>2020-11-03T17:31:57Z</time>
      </trkpt>
      <trkpt lat="41.968083" lon="2.810968">
        <ele>84.425</ele>
        <time>2020-11-03T17:31:58Z</time>
      </trkpt>
      <trkpt lat="41.968054" lon="2.810931">
        <ele>84.620</ele>
        <time>2020-11-03T17:32:51Z</time>
      </trkpt>
      <trkpt lat="41.968032" lon="2.810909">
        <ele>84.643</ele>
        <time>2020-11-03T17:32:52Z</time>
      </trkpt>
      <trkpt lat="41.968002" lon="2.810879">
        <ele>84.429</ele>
        <time>2020-11-03T17:32:53Z</time>
      </trkpt>
      <trkpt lat="41.967963" lon="2.810838">
        <ele>84.400</ele>
        <time>2020-11-03T17:32:54Z</time>
      </trkpt>
      <trkpt lat="41.967919" lon="2.810793">
        <ele>84.420</ele>
        <time>2020-11-03T17:32:55Z</time>
      </trkpt>
      <trkpt lat="41.967872" lon="2.810743">
        <ele>84.408</ele>
        <time>2020-11-03T17:32:56Z</time>
      </trkpt>
      <trkpt lat="41.967818" lon="2.810693">
        <ele>84.448</ele>
        <time>2020-11-03T17:32:57Z</time>
      </trkpt>
      <trkpt lat="41.967761" lon="2.810642">
        <ele>84.412</ele>
        <time>2020-11-03T17:32:58Z</time>
      </trkpt>
      <trkpt lat="41.967705" lon="2.810586">
        <ele>84.430</ele>
        <time>2020-11-03T17:32:59Z</time>
      </trkpt>
      <trkpt lat="41.967649" lon="2.810527">
        <ele>84.442</ele>
        <time>2020-11-03T17:33:00Z</time>
      </trkpt>
      <trkpt lat="41.967590" lon="2.810466">
        <ele>84.458</ele>
        <time>2020-11-03T17:33:01Z</time>
      </trkpt>
      <trkpt lat="41.967529" lon="2.810406">
        <ele>84.433</ele>
        <time>2020-11-03T17:33:02Z</time>
      </trkpt>
      <trkpt lat="41.967467" lon="2.810344">
        <ele>84.448</ele>
        <time>2020-11-03T17:33:03Z</time>
      </trkpt>
      <trkpt lat="41.967406" lon="2.810280">
        <ele>84.421</ele>
        <time>2020-11-03T17:33:04Z</time>
      </trkpt>
      <trkpt lat="41.967344" lon="2.810218">
        <ele>84.638</ele>
        <time>2020-11-03T17:33:05Z</time>
      </trkpt>
      <trkpt lat="41.967282" lon="2.810156">
        <ele>84.670</ele>
        <time>2020-11-03T17:33:06Z</time>
      </trkpt>
      <trkpt lat="41.967222" lon="2.810096">
        <ele>84.617</ele>
        <time>2020-11-03T17:33:07Z</time>
      </trkpt>
      <trkpt lat="41.967165" lon="2.810039">
        <ele>84.808</ele>
        <time>2020-11-03T17:33:08Z</time>
      </trkpt>
      <trkpt lat="41.967110" lon="2.809980">
        <ele>84.829</ele>
        <time>2020-11-03T17:33:09Z</time>
      </trkpt>
      <trkpt lat="41.967055" lon="2.809921">
        <ele>84.823</ele>
        <time>2020-11-03T17:33:10Z</time>
      </trkpt>
      <trkpt lat="41.966998" lon="2.809858">
        <ele>85.031</ele>
        <time>2020-11-03T17:33:11Z</time>
      </trkpt>
      <trkpt lat="41.966940" lon="2.809794">
        <ele>85.093</ele>
        <time>2020-11-03T17:33:12Z</time>
      </trkpt>
      <trkpt lat="41.966880" lon="2.809731">
        <ele>85.089</ele>
        <time>2020-11-03T17:33:13Z</time>
      </trkpt>
      <trkpt lat="41.966819" lon="2.809670">
        <ele>85.034</ele>
        <time>2020-11-03T17:33:14Z</time>
      </trkpt>
      <trkpt lat="41.966762" lon="2.809610">
        <ele>85.299</ele>
        <time>2020-11-03T17:33:15Z</time>
      </trkpt>
      <trkpt lat="41.966703" lon="2.809548">
        <ele>85.242</ele>
        <time>2020-11-03T17:33:16Z</time>
      </trkpt>
      <trkpt lat="41.966643" lon="2.809484">
        <ele>85.463</ele>
        <time>2020-11-03T17:33:17Z</time>
      </trkpt>
      <trkpt lat="41.966583" lon="2.809425">
        <ele>85.644</ele>
        <time>2020-11-03T17:33:18Z</time>
      </trkpt>
      <trkpt lat="41.966524" lon="2.809364">
        <ele>85.818</ele>
        <time>2020-11-03T17:33:19Z</time>
      </trkpt>
      <trkpt lat="41.966465" lon="2.809302">
        <ele>85.808</ele>
        <time>2020-11-03T17:33:20Z</time>
      </trkpt>
      <trkpt lat="41.966406" lon="2.809241">
        <ele>85.892</ele>
        <time>2020-11-03T17:33:21Z</time>
      </trkpt>
      <trkpt lat="41.966350" lon="2.809182">
        <ele>86.026</ele>
        <time>2020-11-03T17:33:22Z</time>
      </trkpt>
      <trkpt lat="41.966294" lon="2.809128">
        <ele>86.084</ele>
        <time>2020-11-03T17:33:23Z</time>
      </trkpt>
      <trkpt lat="41.966241" lon="2.809074">
        <ele>86.066</ele>
        <time>2020-11-03T17:33:24Z</time>
      </trkpt>
      <trkpt lat="41.966189" lon="2.809022">
        <ele>85.812</ele>
        <time>2020-11-03T17:33:25Z</time>
      </trkpt>
      <trkpt lat="41.966143" lon="2.808974">
        <ele>85.837</ele>
        <time>2020-11-03T17:33:26Z</time>
      </trkpt>
      <trkpt lat="41.966101" lon="2.808927">
        <ele>85.832</ele>
        <time>2020-11-03T17:33:27Z</time>
      </trkpt>
      <trkpt lat="41.966065" lon="2.808885">
        <ele>86.015</ele>
        <time>2020-11-03T17:33:28Z</time>
      </trkpt>
      <trkpt lat="41.966036" lon="2.808854">
        <ele>86.023</ele>
        <time>2020-11-03T17:33:29Z</time>
      </trkpt>
      <trkpt lat="41.966015" lon="2.808833">
        <ele>86.083</ele>
        <time>2020-11-03T17:33:30Z</time>
      </trkpt>
      <trkpt lat="41.966001" lon="2.808817">
        <ele>86.011</ele>
        <time>2020-11-03T17:33:31Z</time>
      </trkpt>
      <trkpt lat="41.965991" lon="2.808805">
        <ele>86.208</ele>
        <time>2020-11-03T17:33:32Z</time>
      </trkpt>
      <trkpt lat="41.965987" lon="2.808797">
        <ele>86.298</ele>
        <time>2020-11-03T17:33:33Z</time>
      </trkpt>
      <trkpt lat="41.965984" lon="2.808792">
        <ele>86.252</ele>
        <time>2020-11-03T17:33:34Z</time>
      </trkpt>
      <trkpt lat="41.965980" lon="2.808787">
        <ele>86.230</ele>
        <time>2020-11-03T17:33:35Z</time>
      </trkpt>
      <trkpt lat="41.965976" lon="2.808780">
        <ele>86.292</ele>
        <time>2020-11-03T17:33:36Z</time>
      </trkpt>
      <trkpt lat="41.965974" lon="2.808763">
        <ele>86.268</ele>
        <time>2020-11-03T17:33:37Z</time>
      </trkpt>
      <trkpt lat="41.965971" lon="2.808733">
        <ele>86.263</ele>
        <time>2020-11-03T17:33:38Z</time>
      </trkpt>
      <trkpt lat="41.965967" lon="2.808696">
        <ele>86.258</ele>
        <time>2020-11-03T17:33:39Z</time>
      </trkpt>
      <trkpt lat="41.965962" lon="2.808649">
        <ele>86.261</ele>
        <time>2020-11-03T17:33:40Z</time>
      </trkpt>
      <trkpt lat="41.965959" lon="2.808595">
        <ele>86.255</ele>
        <time>2020-11-03T17:33:41Z</time>
      </trkpt>
      <trkpt lat="41.965957" lon="2.808540">
        <ele>86.207</ele>
        <time>2020-11-03T17:33:42Z</time>
      </trkpt>
      <trkpt lat="41.965956" lon="2.808484">
        <ele>86.217</ele>
        <time>2020-11-03T17:33:43Z</time>
      </trkpt>
      <trkpt lat="41.965954" lon="2.808428">
        <ele>86.208</ele>
        <time>2020-11-03T17:33:44Z</time>
      </trkpt>
      <trkpt lat="41.965946" lon="2.808374">
        <ele>86.271</ele>
        <time>2020-11-03T17:33:45Z</time>
      </trkpt>
      <trkpt lat="41.965937" lon="2.808321">
        <ele>86.075</ele>
        <time>2020-11-03T17:33:46Z</time>
      </trkpt>
      <trkpt lat="41.965933" lon="2.808265">
        <ele>86.083</ele>
        <time>2020-11-03T17:33:47Z</time>
      </trkpt>
      <trkpt lat="41.965931" lon="2.808204">
        <ele>86.035</ele>
        <time>2020-11-03T17:33:48Z</time>
      </trkpt>
      <trkpt lat="41.965934" lon="2.808146">
        <ele>85.861</ele>
        <time>2020-11-03T17:33:49Z</time>
      </trkpt>
      <trkpt lat="41.965941" lon="2.808095">
        <ele>85.816</ele>
        <time>2020-11-03T17:33:50Z</time>
      </trkpt>
      <trkpt lat="41.965948" lon="2.808044">
        <ele>85.891</ele>
        <time>2020-11-03T17:33:51Z</time>
      </trkpt>
      <trkpt lat="41.965952" lon="2.807993">
        <ele>85.824</ele>
        <time>2020-11-03T17:33:52Z</time>
      </trkpt>
      <trkpt lat="41.965954" lon="2.807941">
        <ele>85.887</ele>
        <time>2020-11-03T17:33:53Z</time>
      </trkpt>
      <trkpt lat="41.965964" lon="2.807896">
        <ele>85.842</ele>
        <time>2020-11-03T17:33:54Z</time>
      </trkpt>
      <trkpt lat="41.965982" lon="2.807859">
        <ele>85.626</ele>
        <time>2020-11-03T17:33:55Z</time>
      </trkpt>
      <trkpt lat="41.965995" lon="2.807824">
        <ele>85.408</ele>
        <time>2020-11-03T17:33:56Z</time>
      </trkpt>
      <trkpt lat="41.965996" lon="2.807784">
        <ele>85.434</ele>
        <time>2020-11-03T17:33:57Z</time>
      </trkpt>
      <trkpt lat="41.965990" lon="2.807735">
        <ele>85.438</ele>
        <time>2020-11-03T17:33:58Z</time>
      </trkpt>
      <trkpt lat="41.965985" lon="2.807673">
        <ele>85.466</ele>
        <time>2020-11-03T17:33:59Z</time>
      </trkpt>
      <trkpt lat="41.965982" lon="2.807603">
        <ele>85.438</ele>
        <time>2020-11-03T17:34:00Z</time>
      </trkpt>
      <trkpt lat="41.965975" lon="2.807530">
        <ele>85.424</ele>
        <time>2020-11-03T17:34:01Z</time>
      </trkpt>
      <trkpt lat="41.965967" lon="2.807457">
        <ele>85.489</ele>
        <time>2020-11-03T17:34:02Z</time>
      </trkpt>
      <trkpt lat="41.965957" lon="2.807383">
        <ele>85.274</ele>
        <time>2020-11-03T17:34:03Z</time>
      </trkpt>
      <trkpt lat="41.965950" lon="2.807314">
        <ele>85.247</ele>
        <time>2020-11-03T17:34:04Z</time>
      </trkpt>
      <trkpt lat="41.965943" lon="2.807256">
        <ele>85.253</ele>
        <time>2020-11-03T17:34:05Z</time>
      </trkpt>
      <trkpt lat="41.965927" lon="2.807218">
        <ele>85.004</ele>
        <time>2020-11-03T17:34:06Z</time>
      </trkpt>
      <trkpt lat="41.965906" lon="2.807202">
        <ele>85.014</ele>
        <time>2020-11-03T17:34:07Z</time>
      </trkpt>
      <trkpt lat="41.965888" lon="2.807202">
        <ele>85.008</ele>
        <time>2020-11-03T17:34:08Z</time>
      </trkpt>
      <trkpt lat="41.965874" lon="2.807216">
        <ele>85.271</ele>
        <time>2020-11-03T17:34:09Z</time>
      </trkpt>
      <trkpt lat="41.965859" lon="2.807241">
        <ele>85.465</ele>
        <time>2020-11-03T17:34:10Z</time>
      </trkpt>
      <trkpt lat="41.965841" lon="2.807271">
        <ele>85.693</ele>
        <time>2020-11-03T17:34:11Z</time>
      </trkpt>
      <trkpt lat="41.965824" lon="2.807303">
        <ele>85.695</ele>
        <time>2020-11-03T17:34:12Z</time>
      </trkpt>
      <trkpt lat="41.965811" lon="2.807326">
        <ele>85.831</ele>
        <time>2020-11-03T17:34:13Z</time>
      </trkpt>
      <trkpt lat="41.965802" lon="2.807338">
        <ele>85.836</ele>
        <time>2020-11-03T17:34:14Z</time>
      </trkpt>
      <trkpt lat="41.965796" lon="2.807347">
        <ele>85.871</ele>
        <time>2020-11-03T17:34:15Z</time>
      </trkpt>
      <trkpt lat="41.965792" lon="2.807350">
        <ele>85.844</ele>
        <time>2020-11-03T17:34:16Z</time>
      </trkpt>
      <trkpt lat="41.965776" lon="2.807339">
        <ele>85.282</ele>
        <time>2020-11-03T17:34:24Z</time>
      </trkpt>
      <trkpt lat="41.965758" lon="2.807319">
        <ele>85.243</ele>
        <time>2020-11-03T17:34:25Z</time>
      </trkpt>
      <trkpt lat="41.965741" lon="2.807293">
        <ele>85.217</ele>
        <time>2020-11-03T17:34:26Z</time>
      </trkpt>
      <trkpt lat="41.965723" lon="2.807266">
        <ele>85.208</ele>
        <time>2020-11-03T17:34:27Z</time>
      </trkpt>
      <trkpt lat="41.965697" lon="2.807243">
        <ele>85.294</ele>
        <time>2020-11-03T17:34:28Z</time>
      </trkpt>
      <trkpt lat="41.965664" lon="2.807228">
        <ele>85.298</ele>
        <time>2020-11-03T17:34:29Z</time>
      </trkpt>
      <trkpt lat="41.965631" lon="2.807222">
        <ele>85.436</ele>
        <time>2020-11-03T17:34:30Z</time>
      </trkpt>
      <trkpt lat="41.965598" lon="2.807223">
        <ele>85.628</ele>
        <time>2020-11-03T17:34:31Z</time>
      </trkpt>
      <trkpt lat="41.965565" lon="2.807225">
        <ele>85.814</ele>
        <time>2020-11-03T17:34:32Z</time>
      </trkpt>
      <trkpt lat="41.965523" lon="2.807230">
        <ele>85.879</ele>
        <time>2020-11-03T17:34:33Z</time>
      </trkpt>
      <trkpt lat="41.965478" lon="2.807235">
        <ele>86.064</ele>
        <time>2020-11-03T17:34:34Z</time>
      </trkpt>
      <trkpt lat="41.965428" lon="2.807241">
        <ele>86.047</ele>
        <time>2020-11-03T17:34:35Z</time>
      </trkpt>
      <trkpt lat="41.965376" lon="2.807249">
        <ele>86.046</ele>
        <time>2020-11-03T17:34:36Z</time>
      </trkpt>
      <trkpt lat="41.965324" lon="2.807248">
        <ele>86.088</ele>
        <time>2020-11-03T17:34:37Z</time>
      </trkpt>
      <trkpt lat="41.965276" lon="2.807229">
        <ele>86.016</ele>
        <time>2020-11-03T17:34:38Z</time>
      </trkpt>
      <trkpt lat="41.965230" lon="2.807195">
        <ele>85.808</ele>
        <time>2020-11-03T17:34:39Z</time>
      </trkpt>
      <trkpt lat="41.965182" lon="2.807159">
        <ele>85.840</ele>
        <time>2020-11-03T17:34:40Z</time>
      </trkpt>
      <trkpt lat="41.965133" lon="2.807126">
        <ele>85.894</ele>
        <time>2020-11-03T17:34:41Z</time>
      </trkpt>
      <trkpt lat="41.965083" lon="2.807101">
        <ele>85.812</ele>
        <time>2020-11-03T17:34:42Z</time>
      </trkpt>
      <trkpt lat="41.965032" lon="2.807089">
        <ele>85.814</ele>
        <time>2020-11-03T17:34:43Z</time>
      </trkpt>
      <trkpt lat="41.964981" lon="2.807086">
        <ele>85.820</ele>
        <time>2020-11-03T17:34:44Z</time>
      </trkpt>
      <trkpt lat="41.964936" lon="2.807087">
        <ele>85.865</ele>
        <time>2020-11-03T17:34:45Z</time>
      </trkpt>
      <trkpt lat="41.964895" lon="2.807078">
        <ele>85.810</ele>
        <time>2020-11-03T17:34:46Z</time>
      </trkpt>
      <trkpt lat="41.964861" lon="2.807058">
        <ele>85.663</ele>
        <time>2020-11-03T17:34:47Z</time>
      </trkpt>
      <trkpt lat="41.964828" lon="2.807044">
        <ele>85.664</ele>
        <time>2020-11-03T17:34:48Z</time>
      </trkpt>
      <trkpt lat="41.964797" lon="2.807044">
        <ele>85.606</ele>
        <time>2020-11-03T17:34:49Z</time>
      </trkpt>
      <trkpt lat="41.964766" lon="2.807057">
        <ele>85.616</ele>
        <time>2020-11-03T17:34:50Z</time>
      </trkpt>
      <trkpt lat="41.964735" lon="2.807073">
        <ele>85.408</ele>
        <time>2020-11-03T17:34:51Z</time>
      </trkpt>
      <trkpt lat="41.964703" lon="2.807087">
        <ele>85.652</ele>
        <time>2020-11-03T17:34:52Z</time>
      </trkpt>
      <trkpt lat="41.964666" lon="2.807099">
        <ele>85.636</ele>
        <time>2020-11-03T17:34:53Z</time>
      </trkpt>
      <trkpt lat="41.964630" lon="2.807103">
        <ele>85.634</ele>
        <time>2020-11-03T17:34:54Z</time>
      </trkpt>
      <trkpt lat="41.964597" lon="2.807095">
        <ele>85.686</ele>
        <time>2020-11-03T17:34:55Z</time>
      </trkpt>
      <trkpt lat="41.964564" lon="2.807076">
        <ele>85.652</ele>
        <time>2020-11-03T17:34:56Z</time>
      </trkpt>
      <trkpt lat="41.964528" lon="2.807048">
        <ele>85.687</ele>
        <time>2020-11-03T17:34:57Z</time>
      </trkpt>
      <trkpt lat="41.964488" lon="2.807019">
        <ele>85.452</ele>
        <time>2020-11-03T17:34:58Z</time>
      </trkpt>
      <trkpt lat="41.964451" lon="2.806989">
        <ele>85.415</ele>
        <time>2020-11-03T17:34:59Z</time>
      </trkpt>
      <trkpt lat="41.964408" lon="2.806968">
        <ele>85.445</ele>
        <time>2020-11-03T17:35:00Z</time>
      </trkpt>
      <trkpt lat="41.964359" lon="2.806951">
        <ele>85.247</ele>
        <time>2020-11-03T17:35:01Z</time>
      </trkpt>
      <trkpt lat="41.964311" lon="2.806937">
        <ele>85.211</ele>
        <time>2020-11-03T17:35:02Z</time>
      </trkpt>
      <trkpt lat="41.964270" lon="2.806919">
        <ele>85.208</ele>
        <time>2020-11-03T17:35:03Z</time>
      </trkpt>
      <trkpt lat="41.964227" lon="2.806890">
        <ele>85.210</ele>
        <time>2020-11-03T17:35:04Z</time>
      </trkpt>
      <trkpt lat="41.964185" lon="2.806852">
        <ele>85.244</ele>
        <time>2020-11-03T17:35:05Z</time>
      </trkpt>
      <trkpt lat="41.964137" lon="2.806801">
        <ele>85.242</ele>
        <time>2020-11-03T17:35:06Z</time>
      </trkpt>
      <trkpt lat="41.964091" lon="2.806745">
        <ele>85.284</ele>
        <time>2020-11-03T17:35:07Z</time>
      </trkpt>
      <trkpt lat="41.964041" lon="2.806685">
        <ele>85.240</ele>
        <time>2020-11-03T17:35:08Z</time>
      </trkpt>
      <trkpt lat="41.963989" lon="2.806630">
        <ele>85.215</ele>
        <time>2020-11-03T17:35:09Z</time>
      </trkpt>
      <trkpt lat="41.963938" lon="2.806578">
        <ele>85.450</ele>
        <time>2020-11-03T17:35:10Z</time>
      </trkpt>
      <trkpt lat="41.963883" lon="2.806522">
        <ele>85.483</ele>
        <time>2020-11-03T17:35:11Z</time>
      </trkpt>
      <trkpt lat="41.963828" lon="2.806466">
        <ele>85.438</ele>
        <time>2020-11-03T17:35:12Z</time>
      </trkpt>
      <trkpt lat="41.963773" lon="2.806411">
        <ele>85.670</ele>
        <time>2020-11-03T17:35:13Z</time>
      </trkpt>
      <trkpt lat="41.963716" lon="2.806354">
        <ele>85.617</ele>
        <time>2020-11-03T17:35:14Z</time>
      </trkpt>
      <trkpt lat="41.963658" lon="2.806295">
        <ele>85.608</ele>
        <time>2020-11-03T17:35:15Z</time>
      </trkpt>
      <trkpt lat="41.963602" lon="2.806240">
        <ele>85.629</ele>
        <time>2020-11-03T17:35:16Z</time>
      </trkpt>
      <trkpt lat="41.963544" lon="2.806186">
        <ele>85.693</ele>
        <time>2020-11-03T17:35:17Z</time>
      </trkpt>
      <trkpt lat="41.963487" lon="2.806133">
        <ele>85.681</ele>
        <time>2020-11-03T17:35:18Z</time>
      </trkpt>
      <trkpt lat="41.963432" lon="2.806080">
        <ele>85.663</ele>
        <time>2020-11-03T17:35:19Z</time>
      </trkpt>
      <trkpt lat="41.963378" lon="2.806024">
        <ele>85.639</ele>
        <time>2020-11-03T17:35:20Z</time>
      </trkpt>
      <trkpt lat="41.963324" lon="2.805968">
        <ele>85.644</ele>
        <time>2020-11-03T17:35:21Z</time>
      </trkpt>
      <trkpt lat="41.963272" lon="2.805914">
        <ele>85.849</ele>
        <time>2020-11-03T17:35:22Z</time>
      </trkpt>
      <trkpt lat="41.963220" lon="2.805860">
        <ele>86.012</ele>
        <time>2020-11-03T17:35:23Z</time>
      </trkpt>
      <trkpt lat="41.963170" lon="2.805807">
        <ele>86.088</ele>
        <time>2020-11-03T17:35:24Z</time>
      </trkpt>
      <trkpt lat="41.963118" lon="2.805754">
        <ele>86.224</ele>
        <time>2020-11-03T17:35:25Z</time>
      </trkpt>
      <trkpt lat="41.963063" lon="2.805704">
        <ele>86.226</ele>
        <time>2020-11-03T17:35:26Z</time>
      </trkpt>
      <trkpt lat="41.963011" lon="2.805655">
        <ele>86.408</ele>
        <time>2020-11-03T17:35:27Z</time>
      </trkpt>
      <trkpt lat="41.962961" lon="2.805604">
        <ele>86.634</ele>
        <time>2020-11-03T17:35:28Z</time>
      </trkpt>
      <trkpt lat="41.962912" lon="2.805551">
        <ele>86.898</ele>
        <time>2020-11-03T17:35:29Z</time>
      </trkpt>
      <trkpt lat="41.962862" lon="2.805500">
        <ele>87.016</ele>
        <time>2020-11-03T17:35:30Z</time>
      </trkpt>
      <trkpt lat="41.962812" lon="2.805448">
        <ele>87.218</ele>
        <time>2020-11-03T17:35:31Z</time>
      </trkpt>
      <trkpt lat="41.962762" lon="2.805395">
        <ele>87.244</ele>
        <time>2020-11-03T17:35:32Z</time>
      </trkpt>
      <trkpt lat="41.962710" lon="2.805343">
        <ele>87.479</ele>
        <time>2020-11-03T17:35:33Z</time>
      </trkpt>
      <trkpt lat="41.962661" lon="2.805291">
        <ele>87.484</ele>
        <time>2020-11-03T17:35:34Z</time>
      </trkpt>
      <trkpt lat="41.962609" lon="2.805238">
        <ele>87.487</ele>
        <time>2020-11-03T17:35:35Z</time>
      </trkpt>
      <trkpt lat="41.962558" lon="2.805186">
        <ele>87.214</ele>
        <time>2020-11-03T17:35:36Z</time>
      </trkpt>
      <trkpt lat="41.962508" lon="2.805135">
        <ele>87.254</ele>
        <time>2020-11-03T17:35:37Z</time>
      </trkpt>
      <trkpt lat="41.962457" lon="2.805085">
        <ele>87.209</ele>
        <time>2020-11-03T17:35:38Z</time>
      </trkpt>
      <trkpt lat="41.962407" lon="2.805038">
        <ele>87.208</ele>
        <time>2020-11-03T17:35:39Z</time>
      </trkpt>
      <trkpt lat="41.962357" lon="2.804989">
        <ele>87.277</ele>
        <time>2020-11-03T17:35:40Z</time>
      </trkpt>
      <trkpt lat="41.962308" lon="2.804939">
        <ele>87.241</ele>
        <time>2020-11-03T17:35:41Z</time>
      </trkpt>
      <trkpt lat="41.962261" lon="2.804890">
        <ele>87.279</ele>
        <time>2020-11-03T17:35:42Z</time>
      </trkpt>
      <trkpt lat="41.962211" lon="2.804846">
        <ele>87.261</ele>
        <time>2020-11-03T17:35:43Z</time>
      </trkpt>
      <trkpt lat="41.962160" lon="2.804801">
        <ele>87.267</ele>
        <time>2020-11-03T17:35:44Z</time>
      </trkpt>
      <trkpt lat="41.962110" lon="2.804755">
        <ele>87.222</ele>
        <time>2020-11-03T17:35:45Z</time>
      </trkpt>
      <trkpt lat="41.962061" lon="2.804708">
        <ele>87.467</ele>
        <time>2020-11-03T17:35:46Z</time>
      </trkpt>
      <trkpt lat="41.962012" lon="2.804661">
        <ele>87.430</ele>
        <time>2020-11-03T17:35:47Z</time>
      </trkpt>
      <trkpt lat="41.961963" lon="2.804611">
        <ele>87.675</ele>
        <time>2020-11-03T17:35:48Z</time>
      </trkpt>
      <trkpt lat="41.961911" lon="2.804560">
        <ele>87.628</ele>
        <time>2020-11-03T17:35:49Z</time>
      </trkpt>
      <trkpt lat="41.961860" lon="2.804509">
        <ele>87.820</ele>
        <time>2020-11-03T17:35:50Z</time>
      </trkpt>
      <trkpt lat="41.961809" lon="2.804459">
        <ele>88.008</ele>
        <time>2020-11-03T17:35:51Z</time>
      </trkpt>
      <trkpt lat="41.961758" lon="2.804409">
        <ele>88.073</ele>
        <time>2020-11-03T17:35:52Z</time>
      </trkpt>
      <trkpt lat="41.961708" lon="2.804358">
        <ele>88.077</ele>
        <time>2020-11-03T17:35:53Z</time>
      </trkpt>
      <trkpt lat="41.961657" lon="2.804305">
        <ele>88.015</ele>
        <time>2020-11-03T17:35:54Z</time>
      </trkpt>
      <trkpt lat="41.961604" lon="2.804252">
        <ele>88.217</ele>
        <time>2020-11-03T17:35:55Z</time>
      </trkpt>
      <trkpt lat="41.961552" lon="2.804199">
        <ele>88.263</ele>
        <time>2020-11-03T17:35:56Z</time>
      </trkpt>
      <trkpt lat="41.961502" lon="2.804147">
        <ele>88.468</ele>
        <time>2020-11-03T17:35:57Z</time>
      </trkpt>
      <trkpt lat="41.961452" lon="2.804095">
        <ele>88.683</ele>
        <time>2020-11-03T17:35:58Z</time>
      </trkpt>
      <trkpt lat="41.961401" lon="2.804042">
        <ele>88.676</ele>
        <time>2020-11-03T17:35:59Z</time>
      </trkpt>
      <trkpt lat="41.961350" lon="2.803987">
        <ele>88.667</ele>
        <time>2020-11-03T17:36:00Z</time>
      </trkpt>
      <trkpt lat="41.961299" lon="2.803933">
        <ele>88.881</ele>
        <time>2020-11-03T17:36:01Z</time>
      </trkpt>
      <trkpt lat="41.961249" lon="2.803880">
        <ele>88.819</ele>
        <time>2020-11-03T17:36:02Z</time>
      </trkpt>
      <trkpt lat="41.961199" lon="2.803827">
        <ele>89.008</ele>
        <time>2020-11-03T17:36:03Z</time>
      </trkpt>
      <trkpt lat="41.961150" lon="2.803775">
        <ele>89.252</ele>
        <time>2020-11-03T17:36:04Z</time>
      </trkpt>
      <trkpt lat="41.961100" lon="2.803724">
        <ele>89.256</ele>
        <time>2020-11-03T17:36:05Z</time>
      </trkpt>
      <trkpt lat="41.961048" lon="2.803674">
        <ele>89.454</ele>
        <time>2020-11-03T17:36:06Z</time>
      </trkpt>
      <trkpt lat="41.960995" lon="2.803622">
        <ele>89.416</ele>
        <time>2020-11-03T17:36:07Z</time>
      </trkpt>
      <trkpt lat="41.960941" lon="2.803570">
        <ele>89.422</ele>
        <time>2020-11-03T17:36:08Z</time>
      </trkpt>
      <trkpt lat="41.960886" lon="2.803519">
        <ele>89.677</ele>
        <time>2020-11-03T17:36:09Z</time>
      </trkpt>
      <trkpt lat="41.960834" lon="2.803465">
        <ele>89.632</ele>
        <time>2020-11-03T17:36:10Z</time>
      </trkpt>
      <trkpt lat="41.960781" lon="2.803412">
        <ele>89.895</ele>
        <time>2020-11-03T17:36:11Z</time>
      </trkpt>
      <trkpt lat="41.960727" lon="2.803360">
        <ele>89.875</ele>
        <time>2020-11-03T17:36:12Z</time>
      </trkpt>
      <trkpt lat="41.960673" lon="2.803309">
        <ele>90.028</ele>
        <time>2020-11-03T17:36:13Z</time>
      </trkpt>
      <trkpt lat="41.960619" lon="2.803259">
        <ele>90.220</ele>
        <time>2020-11-03T17:36:14Z</time>
      </trkpt>
      <trkpt lat="41.960567" lon="2.803210">
        <ele>90.408</ele>
        <time>2020-11-03T17:36:15Z</time>
      </trkpt>
      <trkpt lat="41.960513" lon="2.803164">
        <ele>90.673</ele>
        <time>2020-11-03T17:36:16Z</time>
      </trkpt>
      <trkpt lat="41.960465" lon="2.803111">
        <ele>90.627</ele>
        <time>2020-11-03T17:36:17Z</time>
      </trkpt>
      <trkpt lat="41.960421" lon="2.803049">
        <ele>90.825</ele>
        <time>2020-11-03T17:36:18Z</time>
      </trkpt>
      <trkpt lat="41.960384" lon="2.802979">
        <ele>91.037</ele>
        <time>2020-11-03T17:36:19Z</time>
      </trkpt>
      <trkpt lat="41.960356" lon="2.802901">
        <ele>91.033</ele>
        <time>2020-11-03T17:36:20Z</time>
      </trkpt>
      <trkpt lat="41.960332" lon="2.802828">
        <ele>91.068</ele>
        <time>2020-11-03T17:36:21Z</time>
      </trkpt>
      <trkpt lat="41.960316" lon="2.802756">
        <ele>91.073</ele>
        <time>2020-11-03T17:36:22Z</time>
      </trkpt>
      <trkpt lat="41.960298" lon="2.802696">
        <ele>91.056</ele>
        <time>2020-11-03T17:36:23Z</time>
      </trkpt>
      <trkpt lat="41.960277" lon="2.802651">
        <ele>91.033</ele>
        <time>2020-11-03T17:36:24Z</time>
      </trkpt>
      <trkpt lat="41.960264" lon="2.802622">
        <ele>91.223</ele>
        <time>2020-11-03T17:36:25Z</time>
      </trkpt>
      <trkpt lat="41.960257" lon="2.802608">
        <ele>91.415</ele>
        <time>2020-11-03T17:36:26Z</time>
      </trkpt>
      <trkpt lat="41.960254" lon="2.802598">
        <ele>91.608</ele>
        <time>2020-11-03T17:36:27Z</time>
      </trkpt>
      <trkpt lat="41.960251" lon="2.802589">
        <ele>91.839</ele>
        <time>2020-11-03T17:36:28Z</time>
      </trkpt>
      <trkpt lat="41.960251" lon="2.802586">
        <ele>92.033</ele>
        <time>2020-11-03T17:36:29Z</time>
      </trkpt>
      <trkpt lat="41.960253" lon="2.802575">
        <ele>92.041</ele>
        <time>2020-11-03T17:36:31Z</time>
      </trkpt>
      <trkpt lat="41.960248" lon="2.802557">
        <ele>92.053</ele>
        <time>2020-11-03T17:36:32Z</time>
      </trkpt>
      <trkpt lat="41.960232" lon="2.802533">
        <ele>92.289</ele>
        <time>2020-11-03T17:36:33Z</time>
      </trkpt>
      <trkpt lat="41.960204" lon="2.802507">
        <ele>92.234</ele>
        <time>2020-11-03T17:36:34Z</time>
      </trkpt>
      <trkpt lat="41.960175" lon="2.802477">
        <ele>92.069</ele>
        <time>2020-11-03T17:36:35Z</time>
      </trkpt>
      <trkpt lat="41.960148" lon="2.802442">
        <ele>92.012</ele>
        <time>2020-11-03T17:36:36Z</time>
      </trkpt>
      <trkpt lat="41.960120" lon="2.802403">
        <ele>92.049</ele>
        <time>2020-11-03T17:36:37Z</time>
      </trkpt>
      <trkpt lat="41.960091" lon="2.802371">
        <ele>92.002</ele>
        <time>2020-11-03T17:36:38Z</time>
      </trkpt>
      <trkpt lat="41.960072" lon="2.802347">
        <ele>92.022</ele>
        <time>2020-11-03T17:36:39Z</time>
      </trkpt>
      <trkpt lat="41.960052" lon="2.802324">
        <ele>92.008</ele>
        <time>2020-11-03T17:36:40Z</time>
      </trkpt>
      <trkpt lat="41.960029" lon="2.802272">
        <ele>92.010</ele>
        <time>2020-11-03T17:36:41Z</time>
      </trkpt>
      <trkpt lat="41.960006" lon="2.802233">
        <ele>92.234</ele>
        <time>2020-11-03T17:36:42Z</time>
      </trkpt>
      <trkpt lat="41.959992" lon="2.802206">
        <ele>92.212</ele>
        <time>2020-11-03T17:36:43Z</time>
      </trkpt>
      <trkpt lat="41.959984" lon="2.802196">
        <ele>92.294</ele>
        <time>2020-11-03T17:36:44Z</time>
      </trkpt>
      <trkpt lat="41.959953" lon="2.802136">
        <ele>92.410</ele>
        <time>2020-11-03T17:36:52Z</time>
      </trkpt>
      <trkpt lat="41.959935" lon="2.802103">
        <ele>92.455</ele>
        <time>2020-11-03T17:36:53Z</time>
      </trkpt>
      <trkpt lat="41.959916" lon="2.802061">
        <ele>92.450</ele>
        <time>2020-11-03T17:36:54Z</time>
      </trkpt>
      <trkpt lat="41.959896" lon="2.802020">
        <ele>92.413</ele>
        <time>2020-11-03T17:36:55Z</time>
      </trkpt>
      <trkpt lat="41.959877" lon="2.801973">
        <ele>92.679</ele>
        <time>2020-11-03T17:36:56Z</time>
      </trkpt>
      <trkpt lat="41.959861" lon="2.801918">
        <ele>92.605</ele>
        <time>2020-11-03T17:36:57Z</time>
      </trkpt>
      <trkpt lat="41.959849" lon="2.801860">
        <ele>92.825</ele>
        <time>2020-11-03T17:36:58Z</time>
      </trkpt>
      <trkpt lat="41.959840" lon="2.801797">
        <ele>92.808</ele>
        <time>2020-11-03T17:36:59Z</time>
      </trkpt>
      <trkpt lat="41.959840" lon="2.801731">
        <ele>92.893</ele>
        <time>2020-11-03T17:37:00Z</time>
      </trkpt>
      <trkpt lat="41.959854" lon="2.801667">
        <ele>92.867</ele>
        <time>2020-11-03T17:37:01Z</time>
      </trkpt>
      <trkpt lat="41.959878" lon="2.801610">
        <ele>92.895</ele>
        <time>2020-11-03T17:37:02Z</time>
      </trkpt>
      <trkpt lat="41.959900" lon="2.801559">
        <ele>92.637</ele>
        <time>2020-11-03T17:37:03Z</time>
      </trkpt>
      <trkpt lat="41.959912" lon="2.801503">
        <ele>92.643</ele>
        <time>2020-11-03T17:37:04Z</time>
      </trkpt>
      <trkpt lat="41.959913" lon="2.801441">
        <ele>92.668</ele>
        <time>2020-11-03T17:37:05Z</time>
      </trkpt>
      <trkpt lat="41.959917" lon="2.801379">
        <ele>92.443</ele>
        <time>2020-11-03T17:37:06Z</time>
      </trkpt>
      <trkpt lat="41.959930" lon="2.801319">
        <ele>92.446</ele>
        <time>2020-11-03T17:37:07Z</time>
      </trkpt>
      <trkpt lat="41.959949" lon="2.801256">
        <ele>92.489</ele>
        <time>2020-11-03T17:37:08Z</time>
      </trkpt>
      <trkpt lat="41.959971" lon="2.801191">
        <ele>92.406</ele>
        <time>2020-11-03T17:37:09Z</time>
      </trkpt>
      <trkpt lat="41.959994" lon="2.801122">
        <ele>92.226</ele>
        <time>2020-11-03T17:37:10Z</time>
      </trkpt>
      <trkpt lat="41.960016" lon="2.801050">
        <ele>92.208</ele>
        <time>2020-11-03T17:37:11Z</time>
      </trkpt>
      <trkpt lat="41.960041" lon="2.800978">
        <ele>92.064</ele>
        <time>2020-11-03T17:37:12Z</time>
      </trkpt>
      <trkpt lat="41.960067" lon="2.800904">
        <ele>92.068</ele>
        <time>2020-11-03T17:37:13Z</time>
      </trkpt>
      <trkpt lat="41.960097" lon="2.800831">
        <ele>92.086</ele>
        <time>2020-11-03T17:37:14Z</time>
      </trkpt>
      <trkpt lat="41.960131" lon="2.800760">
        <ele>92.088</ele>
        <time>2020-11-03T17:37:15Z</time>
      </trkpt>
      <trkpt lat="41.960166" lon="2.800689">
        <ele>92.074</ele>
        <time>2020-11-03T17:37:16Z</time>
      </trkpt>
      <trkpt lat="41.960200" lon="2.800616">
        <ele>92.049</ele>
        <time>2020-11-03T17:37:17Z</time>
      </trkpt>
      <trkpt lat="41.960233" lon="2.800541">
        <ele>92.064</ele>
        <time>2020-11-03T17:37:18Z</time>
      </trkpt>
      <trkpt lat="41.960265" lon="2.800463">
        <ele>92.077</ele>
        <time>2020-11-03T17:37:19Z</time>
      </trkpt>
      <trkpt lat="41.960296" lon="2.800382">
        <ele>92.087</ele>
        <time>2020-11-03T17:37:20Z</time>
      </trkpt>
      <trkpt lat="41.960329" lon="2.800299">
        <ele>91.842</ele>
        <time>2020-11-03T17:37:21Z</time>
      </trkpt>
      <trkpt lat="41.960363" lon="2.800216">
        <ele>91.826</ele>
        <time>2020-11-03T17:37:22Z</time>
      </trkpt>
      <trkpt lat="41.960399" lon="2.800133">
        <ele>91.808</ele>
        <time>2020-11-03T17:37:23Z</time>
      </trkpt>
      <trkpt lat="41.960435" lon="2.800048">
        <ele>91.664</ele>
        <time>2020-11-03T17:37:24Z</time>
      </trkpt>
      <trkpt lat="41.960473" lon="2.799963">
        <ele>91.878</ele>
        <time>2020-11-03T17:37:25Z</time>
      </trkpt>
      <trkpt lat="41.960511" lon="2.799875">
        <ele>91.666</ele>
        <time>2020-11-03T17:37:26Z</time>
      </trkpt>
      <trkpt lat="41.960551" lon="2.799785">
        <ele>91.678</ele>
        <time>2020-11-03T17:37:27Z</time>
      </trkpt>
      <trkpt lat="41.960590" lon="2.799694">
        <ele>91.674</ele>
        <time>2020-11-03T17:37:28Z</time>
      </trkpt>
      <trkpt lat="41.960630" lon="2.799603">
        <ele>91.699</ele>
        <time>2020-11-03T17:37:29Z</time>
      </trkpt>
      <trkpt lat="41.960668" lon="2.799512">
        <ele>91.454</ele>
        <time>2020-11-03T17:37:30Z</time>
      </trkpt>
      <trkpt lat="41.960703" lon="2.799418">
        <ele>91.037</ele>
        <time>2020-11-03T17:37:31Z</time>
      </trkpt>
      <trkpt lat="41.960738" lon="2.799326">
        <ele>90.895</ele>
        <time>2020-11-03T17:37:32Z</time>
      </trkpt>
      <trkpt lat="41.960775" lon="2.799238">
        <ele>90.649</ele>
        <time>2020-11-03T17:37:33Z</time>
      </trkpt>
      <trkpt lat="41.960811" lon="2.799152">
        <ele>90.423</ele>
        <time>2020-11-03T17:37:34Z</time>
      </trkpt>
      <trkpt lat="41.960843" lon="2.799070">
        <ele>90.408</ele>
        <time>2020-11-03T17:37:35Z</time>
      </trkpt>
      <trkpt lat="41.960857" lon="2.798986">
        <ele>90.225</ele>
        <time>2020-11-03T17:37:36Z</time>
      </trkpt>
      <trkpt lat="41.960845" lon="2.798909">
        <ele>90.449</ele>
        <time>2020-11-03T17:37:37Z</time>
      </trkpt>
      <trkpt lat="41.960816" lon="2.798843">
        <ele>90.647</ele>
        <time>2020-11-03T17:37:38Z</time>
      </trkpt>
      <trkpt lat="41.960773" lon="2.798791">
        <ele>91.089</ele>
        <time>2020-11-03T17:37:39Z</time>
      </trkpt>
      <trkpt lat="41.960718" lon="2.798755">
        <ele>91.445</ele>
        <time>2020-11-03T17:37:40Z</time>
      </trkpt>
      <trkpt lat="41.960657" lon="2.798727">
        <ele>91.810</ele>
        <time>2020-11-03T17:37:41Z</time>
      </trkpt>
      <trkpt lat="41.960596" lon="2.798703">
        <ele>91.865</ele>
        <time>2020-11-03T17:37:42Z</time>
      </trkpt>
      <trkpt lat="41.960535" lon="2.798682">
        <ele>92.068</ele>
        <time>2020-11-03T17:37:43Z</time>
      </trkpt>
      <trkpt lat="41.960477" lon="2.798661">
        <ele>92.091</ele>
        <time>2020-11-03T17:37:44Z</time>
      </trkpt>
      <trkpt lat="41.960419" lon="2.798637">
        <ele>92.081</ele>
        <time>2020-11-03T17:37:45Z</time>
      </trkpt>
      <trkpt lat="41.960358" lon="2.798612">
        <ele>92.019</ele>
        <time>2020-11-03T17:37:46Z</time>
      </trkpt>
      <trkpt lat="41.960296" lon="2.798586">
        <ele>92.008</ele>
        <time>2020-11-03T17:37:47Z</time>
      </trkpt>
      <trkpt lat="41.960233" lon="2.798560">
        <ele>92.255</ele>
        <time>2020-11-03T17:37:48Z</time>
      </trkpt>
      <trkpt lat="41.960169" lon="2.798534">
        <ele>92.229</ele>
        <time>2020-11-03T17:37:49Z</time>
      </trkpt>
      <trkpt lat="41.960104" lon="2.798507">
        <ele>92.477</ele>
        <time>2020-11-03T17:37:50Z</time>
      </trkpt>
      <trkpt lat="41.960038" lon="2.798479">
        <ele>92.489</ele>
        <time>2020-11-03T17:37:51Z</time>
      </trkpt>
      <trkpt lat="41.959971" lon="2.798453">
        <ele>92.425</ele>
        <time>2020-11-03T17:37:52Z</time>
      </trkpt>
      <trkpt lat="41.959902" lon="2.798429">
        <ele>92.440</ele>
        <time>2020-11-03T17:37:53Z</time>
      </trkpt>
      <trkpt lat="41.959835" lon="2.798406">
        <ele>92.435</ele>
        <time>2020-11-03T17:37:54Z</time>
      </trkpt>
      <trkpt lat="41.959770" lon="2.798384">
        <ele>92.488</ele>
        <time>2020-11-03T17:37:55Z</time>
      </trkpt>
      <trkpt lat="41.959707" lon="2.798364">
        <ele>92.676</ele>
        <time>2020-11-03T17:37:56Z</time>
      </trkpt>
      <trkpt lat="41.959645" lon="2.798339">
        <ele>92.690</ele>
        <time>2020-11-03T17:37:57Z</time>
      </trkpt>
      <trkpt lat="41.959582" lon="2.798306">
        <ele>92.819</ele>
        <time>2020-11-03T17:37:58Z</time>
      </trkpt>
      <trkpt lat="41.959520" lon="2.798265">
        <ele>93.008</ele>
        <time>2020-11-03T17:37:59Z</time>
      </trkpt>
      <trkpt lat="41.959455" lon="2.798221">
        <ele>93.223</ele>
        <time>2020-11-03T17:38:00Z</time>
      </trkpt>
      <trkpt lat="41.959386" lon="2.798183">
        <ele>93.677</ele>
        <time>2020-11-03T17:38:01Z</time>
      </trkpt>
      <trkpt lat="41.959316" lon="2.798151">
        <ele>93.695</ele>
        <time>2020-11-03T17:38:02Z</time>
      </trkpt>
      <trkpt lat="41.959247" lon="2.798120">
        <ele>93.827</ele>
        <time>2020-11-03T17:38:03Z</time>
      </trkpt>
      <trkpt lat="41.959177" lon="2.798087">
        <ele>93.883</ele>
        <time>2020-11-03T17:38:04Z</time>
      </trkpt>
      <trkpt lat="41.959107" lon="2.798057">
        <ele>93.838</ele>
        <time>2020-11-03T17:38:05Z</time>
      </trkpt>
      <trkpt lat="41.959036" lon="2.798027">
        <ele>94.043</ele>
        <time>2020-11-03T17:38:06Z</time>
      </trkpt>
      <trkpt lat="41.958966" lon="2.797999">
        <ele>94.086</ele>
        <time>2020-11-03T17:38:07Z</time>
      </trkpt>
      <trkpt lat="41.958897" lon="2.797969">
        <ele>94.067</ele>
        <time>2020-11-03T17:38:08Z</time>
      </trkpt>
      <trkpt lat="41.958827" lon="2.797938">
        <ele>94.281</ele>
        <time>2020-11-03T17:38:09Z</time>
      </trkpt>
      <trkpt lat="41.958758" lon="2.797907">
        <ele>94.219</ele>
        <time>2020-11-03T17:38:10Z</time>
      </trkpt>
      <trkpt lat="41.958690" lon="2.797874">
        <ele>94.208</ele>
        <time>2020-11-03T17:38:11Z</time>
      </trkpt>
      <trkpt lat="41.958623" lon="2.797840">
        <ele>94.462</ele>
        <time>2020-11-03T17:38:12Z</time>
      </trkpt>
      <trkpt lat="41.958556" lon="2.797805">
        <ele>94.416</ele>
        <time>2020-11-03T17:38:13Z</time>
      </trkpt>
      <trkpt lat="41.958488" lon="2.797772">
        <ele>94.424</ele>
        <time>2020-11-03T17:38:14Z</time>
      </trkpt>
      <trkpt lat="41.958419" lon="2.797740">
        <ele>94.486</ele>
        <time>2020-11-03T17:38:15Z</time>
      </trkpt>
      <trkpt lat="41.958351" lon="2.797706">
        <ele>94.472</ele>
        <time>2020-11-03T17:38:16Z</time>
      </trkpt>
      <trkpt lat="41.958281" lon="2.797669">
        <ele>94.477</ele>
        <time>2020-11-03T17:38:17Z</time>
      </trkpt>
      <trkpt lat="41.958212" lon="2.797639">
        <ele>94.422</ele>
        <time>2020-11-03T17:38:18Z</time>
      </trkpt>
      <trkpt lat="41.958142" lon="2.797617">
        <ele>94.485</ele>
        <time>2020-11-03T17:38:19Z</time>
      </trkpt>
      <trkpt lat="41.958075" lon="2.797596">
        <ele>94.678</ele>
        <time>2020-11-03T17:38:20Z</time>
      </trkpt>
      <trkpt lat="41.958010" lon="2.797570">
        <ele>94.833</ele>
        <time>2020-11-03T17:38:21Z</time>
      </trkpt>
      <trkpt lat="41.957948" lon="2.797541">
        <ele>95.026</ele>
        <time>2020-11-03T17:38:22Z</time>
      </trkpt>
      <trkpt lat="41.957890" lon="2.797510">
        <ele>95.008</ele>
        <time>2020-11-03T17:38:23Z</time>
      </trkpt>
      <trkpt lat="41.957834" lon="2.797480">
        <ele>95.213</ele>
        <time>2020-11-03T17:38:24Z</time>
      </trkpt>
      <trkpt lat="41.957778" lon="2.797451">
        <ele>95.217</ele>
        <time>2020-11-03T17:38:25Z</time>
      </trkpt>
      <trkpt lat="41.957725" lon="2.797423">
        <ele>95.255</ele>
        <time>2020-11-03T17:38:26Z</time>
      </trkpt>
      <trkpt lat="41.957671" lon="2.797397">
        <ele>95.247</ele>
        <time>2020-11-03T17:38:27Z</time>
      </trkpt>
      <trkpt lat="41.957616" lon="2.797369">
        <ele>95.423</ele>
        <time>2020-11-03T17:38:28Z</time>
      </trkpt>
      <trkpt lat="41.957563" lon="2.797342">
        <ele>95.498</ele>
        <time>2020-11-03T17:38:29Z</time>
      </trkpt>
      <trkpt lat="41.957510" lon="2.797314">
        <ele>95.643</ele>
        <time>2020-11-03T17:38:30Z</time>
      </trkpt>
      <trkpt lat="41.957458" lon="2.797287">
        <ele>95.626</ele>
        <time>2020-11-03T17:38:31Z</time>
      </trkpt>
      <trkpt lat="41.957407" lon="2.797259">
        <ele>95.642</ele>
        <time>2020-11-03T17:38:32Z</time>
      </trkpt>
      <trkpt lat="41.957357" lon="2.797232">
        <ele>95.622</ele>
        <time>2020-11-03T17:38:33Z</time>
      </trkpt>
      <trkpt lat="41.957307" lon="2.797207">
        <ele>95.614</ele>
        <time>2020-11-03T17:38:34Z</time>
      </trkpt>
      <trkpt lat="41.957256" lon="2.797180">
        <ele>95.808</ele>
        <time>2020-11-03T17:38:35Z</time>
      </trkpt>
      <trkpt lat="41.957203" lon="2.797157">
        <ele>95.810</ele>
        <time>2020-11-03T17:38:36Z</time>
      </trkpt>
      <trkpt lat="41.957153" lon="2.797136">
        <ele>95.864</ele>
        <time>2020-11-03T17:38:37Z</time>
      </trkpt>
      <trkpt lat="41.957104" lon="2.797124">
        <ele>95.892</ele>
        <time>2020-11-03T17:38:38Z</time>
      </trkpt>
      <trkpt lat="41.957057" lon="2.797129">
        <ele>95.884</ele>
        <time>2020-11-03T17:38:39Z</time>
      </trkpt>
      <trkpt lat="41.957016" lon="2.797147">
        <ele>95.880</ele>
        <time>2020-11-03T17:38:40Z</time>
      </trkpt>
      <trkpt lat="41.956979" lon="2.797169">
        <ele>96.025</ele>
        <time>2020-11-03T17:38:41Z</time>
      </trkpt>
      <trkpt lat="41.956944" lon="2.797178">
        <ele>96.070</ele>
        <time>2020-11-03T17:38:42Z</time>
      </trkpt>
      <trkpt lat="41.956917" lon="2.797165">
        <ele>96.083</ele>
        <time>2020-11-03T17:38:43Z</time>
      </trkpt>
      <trkpt lat="41.956905" lon="2.797135">
        <ele>96.083</ele>
        <time>2020-11-03T17:38:44Z</time>
      </trkpt>
      <trkpt lat="41.956900" lon="2.797091">
        <ele>96.025</ele>
        <time>2020-11-03T17:38:45Z</time>
      </trkpt>
      <trkpt lat="41.956888" lon="2.797044">
        <ele>96.017</ele>
        <time>2020-11-03T17:38:46Z</time>
      </trkpt>
      <trkpt lat="41.956865" lon="2.797008">
        <ele>96.008</ele>
        <time>2020-11-03T17:38:47Z</time>
      </trkpt>
      <trkpt lat="41.956831" lon="2.796977">
        <ele>96.014</ele>
        <time>2020-11-03T17:38:48Z</time>
      </trkpt>
      <trkpt lat="41.956785" lon="2.796944">
        <ele>96.098</ele>
        <time>2020-11-03T17:38:49Z</time>
      </trkpt>
      <trkpt lat="41.956731" lon="2.796911">
        <ele>96.096</ele>
        <time>2020-11-03T17:38:50Z</time>
      </trkpt>
      <trkpt lat="41.956677" lon="2.796877">
        <ele>96.058</ele>
        <time>2020-11-03T17:38:51Z</time>
      </trkpt>
      <trkpt lat="41.956622" lon="2.796843">
        <ele>96.014</ele>
        <time>2020-11-03T17:38:52Z</time>
      </trkpt>
      <trkpt lat="41.956565" lon="2.796809">
        <ele>96.039</ele>
        <time>2020-11-03T17:38:53Z</time>
      </trkpt>
      <trkpt lat="41.956505" lon="2.796773">
        <ele>96.054</ele>
        <time>2020-11-03T17:38:54Z</time>
      </trkpt>
      <trkpt lat="41.956443" lon="2.796738">
        <ele>96.057</ele>
        <time>2020-11-03T17:38:55Z</time>
      </trkpt>
      <trkpt lat="41.956380" lon="2.796702">
        <ele>96.274</ele>
        <time>2020-11-03T17:38:56Z</time>
      </trkpt>
      <trkpt lat="41.956318" lon="2.796665">
        <ele>96.256</ele>
        <time>2020-11-03T17:38:57Z</time>
      </trkpt>
      <trkpt lat="41.956256" lon="2.796627">
        <ele>96.421</ele>
        <time>2020-11-03T17:38:58Z</time>
      </trkpt>
      <trkpt lat="41.956196" lon="2.796591">
        <ele>96.408</ele>
        <time>2020-11-03T17:38:59Z</time>
      </trkpt>
      <trkpt lat="41.956136" lon="2.796554">
        <ele>96.623</ele>
        <time>2020-11-03T17:39:00Z</time>
      </trkpt>
      <trkpt lat="41.956076" lon="2.796518">
        <ele>96.637</ele>
        <time>2020-11-03T17:39:01Z</time>
      </trkpt>
      <trkpt lat="41.956021" lon="2.796485">
        <ele>96.645</ele>
        <time>2020-11-03T17:39:02Z</time>
      </trkpt>
      <trkpt lat="41.955968" lon="2.796451">
        <ele>96.657</ele>
        <time>2020-11-03T17:39:03Z</time>
      </trkpt>
      <trkpt lat="41.955913" lon="2.796418">
        <ele>96.823</ele>
        <time>2020-11-03T17:39:04Z</time>
      </trkpt>
      <trkpt lat="41.955856" lon="2.796385">
        <ele>96.898</ele>
        <time>2020-11-03T17:39:05Z</time>
      </trkpt>
      <trkpt lat="41.955799" lon="2.796352">
        <ele>96.883</ele>
        <time>2020-11-03T17:39:06Z</time>
      </trkpt>
      <trkpt lat="41.955742" lon="2.796320">
        <ele>97.086</ele>
        <time>2020-11-03T17:39:07Z</time>
      </trkpt>
      <trkpt lat="41.955684" lon="2.796287">
        <ele>97.077</ele>
        <time>2020-11-03T17:39:08Z</time>
      </trkpt>
      <trkpt lat="41.955624" lon="2.796254">
        <ele>97.261</ele>
        <time>2020-11-03T17:39:09Z</time>
      </trkpt>
      <trkpt lat="41.955563" lon="2.796219">
        <ele>97.227</ele>
        <time>2020-11-03T17:39:10Z</time>
      </trkpt>
      <trkpt lat="41.955502" lon="2.796184">
        <ele>97.208</ele>
        <time>2020-11-03T17:39:11Z</time>
      </trkpt>
      <trkpt lat="41.955441" lon="2.796147">
        <ele>97.223</ele>
        <time>2020-11-03T17:39:12Z</time>
      </trkpt>
      <trkpt lat="41.955381" lon="2.796109">
        <ele>97.267</ele>
        <time>2020-11-03T17:39:13Z</time>
      </trkpt>
      <trkpt lat="41.955319" lon="2.796071">
        <ele>97.475</ele>
        <time>2020-11-03T17:39:14Z</time>
      </trkpt>
      <trkpt lat="41.955258" lon="2.796037">
        <ele>97.437</ele>
        <time>2020-11-03T17:39:15Z</time>
      </trkpt>
      <trkpt lat="41.955197" lon="2.796003">
        <ele>97.483</ele>
        <time>2020-11-03T17:39:16Z</time>
      </trkpt>
      <trkpt lat="41.955138" lon="2.795969">
        <ele>97.488</ele>
        <time>2020-11-03T17:39:17Z</time>
      </trkpt>
      <trkpt lat="41.955080" lon="2.795936">
        <ele>97.613</ele>
        <time>2020-11-03T17:39:18Z</time>
      </trkpt>
      <trkpt lat="41.955023" lon="2.795908">
        <ele>97.626</ele>
        <time>2020-11-03T17:39:19Z</time>
      </trkpt>
      <trkpt lat="41.954965" lon="2.795878">
        <ele>97.634</ele>
        <time>2020-11-03T17:39:20Z</time>
      </trkpt>
      <trkpt lat="41.954912" lon="2.795848">
        <ele>97.655</ele>
        <time>2020-11-03T17:39:21Z</time>
      </trkpt>
      <trkpt lat="41.954863" lon="2.795822">
        <ele>97.810</ele>
        <time>2020-11-03T17:39:22Z</time>
      </trkpt>
      <trkpt lat="41.954824" lon="2.795801">
        <ele>98.008</ele>
        <time>2020-11-03T17:39:23Z</time>
      </trkpt>
      <trkpt lat="41.954789" lon="2.795792">
        <ele>98.099</ele>
        <time>2020-11-03T17:39:24Z</time>
      </trkpt>
      <trkpt lat="41.954756" lon="2.795802">
        <ele>98.263</ele>
        <time>2020-11-03T17:39:25Z</time>
      </trkpt>
      <trkpt lat="41.954724" lon="2.795833">
        <ele>98.271</ele>
        <time>2020-11-03T17:39:26Z</time>
      </trkpt>
      <trkpt lat="41.954693" lon="2.795878">
        <ele>98.463</ele>
        <time>2020-11-03T17:39:27Z</time>
      </trkpt>
      <trkpt lat="41.954664" lon="2.795938">
        <ele>98.499</ele>
        <time>2020-11-03T17:39:28Z</time>
      </trkpt>
      <trkpt lat="41.954638" lon="2.796008">
        <ele>98.454</ele>
        <time>2020-11-03T17:39:29Z</time>
      </trkpt>
      <trkpt lat="41.954616" lon="2.796080">
        <ele>98.659</ele>
        <time>2020-11-03T17:39:30Z</time>
      </trkpt>
      <trkpt lat="41.954595" lon="2.796151">
        <ele>98.492</ele>
        <time>2020-11-03T17:39:31Z</time>
      </trkpt>
      <trkpt lat="41.954572" lon="2.796220">
        <ele>98.439</ele>
        <time>2020-11-03T17:39:32Z</time>
      </trkpt>
      <trkpt lat="41.954551" lon="2.796290">
        <ele>98.201</ele>
        <time>2020-11-03T17:39:33Z</time>
      </trkpt>
      <trkpt lat="41.954528" lon="2.796354">
        <ele>98.221</ele>
        <time>2020-11-03T17:39:34Z</time>
      </trkpt>
      <trkpt lat="41.954503" lon="2.796416">
        <ele>98.008</ele>
        <time>2020-11-03T17:39:35Z</time>
      </trkpt>
      <trkpt lat="41.954478" lon="2.796476">
        <ele>98.069</ele>
        <time>2020-11-03T17:39:36Z</time>
      </trkpt>
      <trkpt lat="41.954451" lon="2.796536">
        <ele>98.273</ele>
        <time>2020-11-03T17:39:37Z</time>
      </trkpt>
      <trkpt lat="41.954423" lon="2.796597">
        <ele>98.251</ele>
        <time>2020-11-03T17:39:38Z</time>
      </trkpt>
      <trkpt lat="41.954399" lon="2.796659">
        <ele>98.493</ele>
        <time>2020-11-03T17:39:39Z</time>
      </trkpt>
      <trkpt lat="41.954371" lon="2.796713">
        <ele>98.629</ele>
        <time>2020-11-03T17:39:40Z</time>
      </trkpt>
      <trkpt lat="41.954345" lon="2.796769">
        <ele>98.694</ele>
        <time>2020-11-03T17:39:41Z</time>
      </trkpt>
      <trkpt lat="41.954322" lon="2.796817">
        <ele>98.669</ele>
        <time>2020-11-03T17:39:42Z</time>
      </trkpt>
      <trkpt lat="41.954309" lon="2.796859">
        <ele>98.862</ele>
        <time>2020-11-03T17:39:43Z</time>
      </trkpt>
      <trkpt lat="41.954296" lon="2.796881">
        <ele>98.868</ele>
        <time>2020-11-03T17:39:44Z</time>
      </trkpt>
      <trkpt lat="41.954282" lon="2.796892">
        <ele>98.842</ele>
        <time>2020-11-03T17:39:45Z</time>
      </trkpt>
      <trkpt lat="41.954264" lon="2.796897">
        <ele>99.026</ele>
        <time>2020-11-03T17:39:46Z</time>
      </trkpt>
      <trkpt lat="41.954239" lon="2.796897">
        <ele>99.008</ele>
        <time>2020-11-03T17:39:47Z</time>
      </trkpt>
      <trkpt lat="41.954208" lon="2.796885">
        <ele>99.012</ele>
        <time>2020-11-03T17:39:48Z</time>
      </trkpt>
      <trkpt lat="41.954170" lon="2.796857">
        <ele>99.016</ele>
        <time>2020-11-03T17:39:49Z</time>
      </trkpt>
      <trkpt lat="41.954132" lon="2.796822">
        <ele>99.044</ele>
        <time>2020-11-03T17:39:50Z</time>
      </trkpt>
      <trkpt lat="41.954094" lon="2.796785">
        <ele>99.016</ele>
        <time>2020-11-03T17:39:51Z</time>
      </trkpt>
      <trkpt lat="41.954062" lon="2.796757">
        <ele>99.042</ele>
        <time>2020-11-03T17:39:52Z</time>
      </trkpt>
      <trkpt lat="41.954043" lon="2.796749">
        <ele>99.057</ele>
        <time>2020-11-03T17:39:53Z</time>
      </trkpt>
      <trkpt lat="41.954040" lon="2.796748">
        <ele>99.012</ele>
        <time>2020-11-03T17:39:54Z</time>
      </trkpt>
      <trkpt lat="41.954030" lon="2.796757">
        <ele>99.285</ele>
        <time>2020-11-03T17:40:01Z</time>
      </trkpt>
      <trkpt lat="41.954022" lon="2.796768">
        <ele>99.296</ele>
        <time>2020-11-03T17:40:02Z</time>
      </trkpt>
      <trkpt lat="41.954008" lon="2.796790">
        <ele>99.231</ele>
        <time>2020-11-03T17:40:03Z</time>
      </trkpt>
      <trkpt lat="41.953988" lon="2.796816">
        <ele>99.224</ele>
        <time>2020-11-03T17:40:04Z</time>
      </trkpt>
      <trkpt lat="41.953963" lon="2.796837">
        <ele>99.208</ele>
        <time>2020-11-03T17:40:05Z</time>
      </trkpt>
      <trkpt lat="41.953933" lon="2.796844">
        <ele>99.215</ele>
        <time>2020-11-03T17:40:06Z</time>
      </trkpt>
      <trkpt lat="41.953900" lon="2.796832">
        <ele>99.239</ele>
        <time>2020-11-03T17:40:07Z</time>
      </trkpt>
      <trkpt lat="41.953861" lon="2.796809">
        <ele>99.277</ele>
        <time>2020-11-03T17:40:08Z</time>
      </trkpt>
      <trkpt lat="41.953820" lon="2.796782">
        <ele>99.269</ele>
        <time>2020-11-03T17:40:09Z</time>
      </trkpt>
      <trkpt lat="41.953780" lon="2.796746">
        <ele>99.265</ele>
        <time>2020-11-03T17:40:10Z</time>
      </trkpt>
      <trkpt lat="41.953742" lon="2.796704">
        <ele>99.260</ele>
        <time>2020-11-03T17:40:11Z</time>
      </trkpt>
      <trkpt lat="41.953702" lon="2.796661">
        <ele>99.275</ele>
        <time>2020-11-03T17:40:12Z</time>
      </trkpt>
      <trkpt lat="41.953663" lon="2.796618">
        <ele>99.238</ele>
        <time>2020-11-03T17:40:13Z</time>
      </trkpt>
      <trkpt lat="41.953626" lon="2.796573">
        <ele>99.251</ele>
        <time>2020-11-03T17:40:14Z</time>
      </trkpt>
      <trkpt lat="41.953586" lon="2.796529">
        <ele>99.401</ele>
        <time>2020-11-03T17:40:15Z</time>
      </trkpt>
      <trkpt lat="41.953543" lon="2.796501">
        <ele>99.411</ele>
        <time>2020-11-03T17:40:16Z</time>
      </trkpt>
      <trkpt lat="41.953506" lon="2.796487">
        <ele>99.608</ele>
        <time>2020-11-03T17:40:17Z</time>
      </trkpt>
      <trkpt lat="41.953474" lon="2.796470">
        <ele>99.691</ele>
        <time>2020-11-03T17:40:18Z</time>
      </trkpt>
      <trkpt lat="41.953444" lon="2.796438">
        <ele>99.885</ele>
        <time>2020-11-03T17:40:19Z</time>
      </trkpt>
      <trkpt lat="41.953409" lon="2.796399">
        <ele>99.873</ele>
        <time>2020-11-03T17:40:20Z</time>
      </trkpt>
      <trkpt lat="41.953370" lon="2.796357">
        <ele>99.895</ele>
        <time>2020-11-03T17:40:21Z</time>
      </trkpt>
      <trkpt lat="41.953329" lon="2.796314">
        <ele>99.871</ele>
        <time>2020-11-03T17:40:22Z</time>
      </trkpt>
      <trkpt lat="41.953286" lon="2.796271">
        <ele>99.886</ele>
        <time>2020-11-03T17:40:23Z</time>
      </trkpt>
      <trkpt lat="41.953241" lon="2.796226">
        <ele>100.051</ele>
        <time>2020-11-03T17:40:24Z</time>
      </trkpt>
      <trkpt lat="41.953197" lon="2.796181">
        <ele>100.054</ele>
        <time>2020-11-03T17:40:25Z</time>
      </trkpt>
      <trkpt lat="41.953153" lon="2.796134">
        <ele>100.021</ele>
        <time>2020-11-03T17:40:26Z</time>
      </trkpt>
      <trkpt lat="41.953108" lon="2.796086">
        <ele>100.041</ele>
        <time>2020-11-03T17:40:27Z</time>
      </trkpt>
      <trkpt lat="41.953065" lon="2.796035">
        <ele>100.005</ele>
        <time>2020-11-03T17:40:28Z</time>
      </trkpt>
      <trkpt lat="41.953024" lon="2.795980">
        <ele>100.208</ele>
        <time>2020-11-03T17:40:29Z</time>
      </trkpt>
      <trkpt lat="41.952984" lon="2.795924">
        <ele>100.228</ele>
        <time>2020-11-03T17:40:30Z</time>
      </trkpt>
      <trkpt lat="41.952939" lon="2.795866">
        <ele>100.232</ele>
        <time>2020-11-03T17:40:31Z</time>
      </trkpt>
      <trkpt lat="41.952893" lon="2.795813">
        <ele>100.290</ele>
        <time>2020-11-03T17:40:32Z</time>
      </trkpt>
      <trkpt lat="41.952845" lon="2.795767">
        <ele>100.272</ele>
        <time>2020-11-03T17:40:33Z</time>
      </trkpt>
      <trkpt lat="41.952795" lon="2.795725">
        <ele>100.268</ele>
        <time>2020-11-03T17:40:34Z</time>
      </trkpt>
      <trkpt lat="41.952744" lon="2.795689">
        <ele>100.413</ele>
        <time>2020-11-03T17:40:35Z</time>
      </trkpt>
      <trkpt lat="41.952691" lon="2.795662">
        <ele>100.498</ele>
        <time>2020-11-03T17:40:36Z</time>
      </trkpt>
      <trkpt lat="41.952638" lon="2.795648">
        <ele>100.611</ele>
        <time>2020-11-03T17:40:37Z</time>
      </trkpt>
      <trkpt lat="41.952586" lon="2.795648">
        <ele>100.656</ele>
        <time>2020-11-03T17:40:38Z</time>
      </trkpt>
      <trkpt lat="41.952535" lon="2.795661">
        <ele>100.659</ele>
        <time>2020-11-03T17:40:39Z</time>
      </trkpt>
      <trkpt lat="41.952488" lon="2.795688">
        <ele>100.614</ele>
        <time>2020-11-03T17:40:40Z</time>
      </trkpt>
      <trkpt lat="41.952448" lon="2.795723">
        <ele>100.408</ele>
        <time>2020-11-03T17:40:41Z</time>
      </trkpt>
      <trkpt lat="41.952411" lon="2.795763">
        <ele>100.431</ele>
        <time>2020-11-03T17:40:42Z</time>
      </trkpt>
      <trkpt lat="41.952378" lon="2.795805">
        <ele>100.445</ele>
        <time>2020-11-03T17:40:43Z</time>
      </trkpt>
      <trkpt lat="41.952348" lon="2.795848">
        <ele>100.413</ele>
        <time>2020-11-03T17:40:44Z</time>
      </trkpt>
      <trkpt lat="41.952317" lon="2.795883">
        <ele>100.475</ele>
        <time>2020-11-03T17:40:45Z</time>
      </trkpt>
      <trkpt lat="41.952283" lon="2.795898">
        <ele>100.421</ele>
        <time>2020-11-03T17:40:46Z</time>
      </trkpt>
      <trkpt lat="41.952253" lon="2.795891">
        <ele>100.686</ele>
        <time>2020-11-03T17:40:47Z</time>
      </trkpt>
      <trkpt lat="41.952235" lon="2.795865">
        <ele>100.681</ele>
        <time>2020-11-03T17:40:48Z</time>
      </trkpt>
      <trkpt lat="41.952232" lon="2.795828">
        <ele>100.674</ele>
        <time>2020-11-03T17:40:49Z</time>
      </trkpt>
      <trkpt lat="41.952246" lon="2.795785">
        <ele>100.876</ele>
        <time>2020-11-03T17:40:50Z</time>
      </trkpt>
      <trkpt lat="41.952267" lon="2.795737">
        <ele>100.890</ele>
        <time>2020-11-03T17:40:51Z</time>
      </trkpt>
      <trkpt lat="41.952280" lon="2.795679">
        <ele>100.819</ele>
        <time>2020-11-03T17:40:52Z</time>
      </trkpt>
      <trkpt lat="41.952288" lon="2.795614">
        <ele>100.808</ele>
        <time>2020-11-03T17:40:53Z</time>
      </trkpt>
      <trkpt lat="41.952301" lon="2.795549">
        <ele>100.813</ele>
        <time>2020-11-03T17:40:54Z</time>
      </trkpt>
      <trkpt lat="41.952307" lon="2.795481">
        <ele>100.897</ele>
        <time>2020-11-03T17:40:55Z</time>
      </trkpt>
      <trkpt lat="41.952298" lon="2.795412">
        <ele>100.815</ele>
        <time>2020-11-03T17:40:56Z</time>
      </trkpt>
      <trkpt lat="41.952281" lon="2.795344">
        <ele>100.817</ele>
        <time>2020-11-03T17:40:57Z</time>
      </trkpt>
      <trkpt lat="41.952258" lon="2.795274">
        <ele>100.813</ele>
        <time>2020-11-03T17:40:58Z</time>
      </trkpt>
      <trkpt lat="41.952235" lon="2.795215">
        <ele>101.018</ele>
        <time>2020-11-03T17:40:59Z</time>
      </trkpt>
      <trkpt lat="41.952197" lon="2.795166">
        <ele>101.063</ele>
        <time>2020-11-03T17:41:00Z</time>
      </trkpt>
      <trkpt lat="41.952151" lon="2.795126">
        <ele>101.086</ele>
        <time>2020-11-03T17:41:01Z</time>
      </trkpt>
      <trkpt lat="41.952104" lon="2.795085">
        <ele>101.094</ele>
        <time>2020-11-03T17:41:02Z</time>
      </trkpt>
      <trkpt lat="41.952055" lon="2.795043">
        <ele>101.057</ele>
        <time>2020-11-03T17:41:03Z</time>
      </trkpt>
      <trkpt lat="41.952007" lon="2.794997">
        <ele>101.222</ele>
        <time>2020-11-03T17:41:04Z</time>
      </trkpt>
      <trkpt lat="41.951959" lon="2.794948">
        <ele>101.208</ele>
        <time>2020-11-03T17:41:05Z</time>
      </trkpt>
      <trkpt lat="41.951913" lon="2.794900">
        <ele>101.285</ele>
        <time>2020-11-03T17:41:06Z</time>
      </trkpt>
      <trkpt lat="41.951867" lon="2.794854">
        <ele>101.269</ele>
        <time>2020-11-03T17:41:07Z</time>
      </trkpt>
      <trkpt lat="41.951817" lon="2.794817">
        <ele>101.227</ele>
        <time>2020-11-03T17:41:08Z</time>
      </trkpt>
      <trkpt lat="41.951766" lon="2.794786">
        <ele>101.469</ele>
        <time>2020-11-03T17:41:09Z</time>
      </trkpt>
      <trkpt lat="41.951719" lon="2.794747">
        <ele>101.485</ele>
        <time>2020-11-03T17:41:10Z</time>
      </trkpt>
      <trkpt lat="41.951674" lon="2.794700">
        <ele>101.430</ele>
        <time>2020-11-03T17:41:11Z</time>
      </trkpt>
      <trkpt lat="41.951622" lon="2.794650">
        <ele>101.685</ele>
        <time>2020-11-03T17:41:12Z</time>
      </trkpt>
      <trkpt lat="41.951570" lon="2.794601">
        <ele>101.688</ele>
        <time>2020-11-03T17:41:13Z</time>
      </trkpt>
      <trkpt lat="41.951518" lon="2.794552">
        <ele>101.853</ele>
        <time>2020-11-03T17:41:14Z</time>
      </trkpt>
      <trkpt lat="41.951467" lon="2.794501">
        <ele>101.804</ele>
        <time>2020-11-03T17:41:15Z</time>
      </trkpt>
      <trkpt lat="41.951412" lon="2.794454">
        <ele>102.014</ele>
        <time>2020-11-03T17:41:16Z</time>
      </trkpt>
      <trkpt lat="41.951358" lon="2.794406">
        <ele>102.008</ele>
        <time>2020-11-03T17:41:17Z</time>
      </trkpt>
      <trkpt lat="41.951302" lon="2.794355">
        <ele>102.021</ele>
        <time>2020-11-03T17:41:18Z</time>
      </trkpt>
      <trkpt lat="41.951245" lon="2.794310">
        <ele>102.065</ele>
        <time>2020-11-03T17:41:19Z</time>
      </trkpt>
      <trkpt lat="41.951191" lon="2.794260">
        <ele>102.063</ele>
        <time>2020-11-03T17:41:20Z</time>
      </trkpt>
      <trkpt lat="41.951141" lon="2.794206">
        <ele>102.235</ele>
        <time>2020-11-03T17:41:21Z</time>
      </trkpt>
      <trkpt lat="41.951086" lon="2.794153">
        <ele>102.231</ele>
        <time>2020-11-03T17:41:22Z</time>
      </trkpt>
      <trkpt lat="41.951034" lon="2.794103">
        <ele>102.456</ele>
        <time>2020-11-03T17:41:23Z</time>
      </trkpt>
      <trkpt lat="41.950985" lon="2.794051">
        <ele>102.451</ele>
        <time>2020-11-03T17:41:24Z</time>
      </trkpt>
      <trkpt lat="41.950933" lon="2.793998">
        <ele>102.464</ele>
        <time>2020-11-03T17:41:25Z</time>
      </trkpt>
      <trkpt lat="41.950879" lon="2.793946">
        <ele>102.661</ele>
        <time>2020-11-03T17:41:26Z</time>
      </trkpt>
      <trkpt lat="41.950828" lon="2.793894">
        <ele>102.621</ele>
        <time>2020-11-03T17:41:27Z</time>
      </trkpt>
      <trkpt lat="41.950778" lon="2.793841">
        <ele>102.613</ele>
        <time>2020-11-03T17:41:28Z</time>
      </trkpt>
      <trkpt lat="41.950728" lon="2.793784">
        <ele>102.808</ele>
        <time>2020-11-03T17:41:29Z</time>
      </trkpt>
      <trkpt lat="41.950679" lon="2.793729">
        <ele>102.842</ele>
        <time>2020-11-03T17:41:30Z</time>
      </trkpt>
      <trkpt lat="41.950625" lon="2.793679">
        <ele>102.846</ele>
        <time>2020-11-03T17:41:31Z</time>
      </trkpt>
      <trkpt lat="41.950571" lon="2.793634">
        <ele>102.674</ele>
        <time>2020-11-03T17:41:32Z</time>
      </trkpt>
      <trkpt lat="41.950523" lon="2.793600">
        <ele>102.646</ele>
        <time>2020-11-03T17:41:33Z</time>
      </trkpt>
      <trkpt lat="41.950478" lon="2.793571">
        <ele>102.832</ele>
        <time>2020-11-03T17:41:34Z</time>
      </trkpt>
      <trkpt lat="41.950439" lon="2.793542">
        <ele>102.877</ele>
        <time>2020-11-03T17:41:35Z</time>
      </trkpt>
      <trkpt lat="41.950404" lon="2.793508">
        <ele>103.032</ele>
        <time>2020-11-03T17:41:36Z</time>
      </trkpt>
      <trkpt lat="41.950374" lon="2.793469">
        <ele>103.275</ele>
        <time>2020-11-03T17:41:37Z</time>
      </trkpt>
      <trkpt lat="41.950344" lon="2.793426">
        <ele>103.298</ele>
        <time>2020-11-03T17:41:38Z</time>
      </trkpt>
      <trkpt lat="41.950317" lon="2.793376">
        <ele>103.415</ele>
        <time>2020-11-03T17:41:39Z</time>
      </trkpt>
      <trkpt lat="41.950288" lon="2.793324">
        <ele>103.626</ele>
        <time>2020-11-03T17:41:40Z</time>
      </trkpt>
      <trkpt lat="41.950253" lon="2.793278">
        <ele>103.608</ele>
        <time>2020-11-03T17:41:41Z</time>
      </trkpt>
      <trkpt lat="41.950211" lon="2.793239">
        <ele>103.845</ele>
        <time>2020-11-03T17:41:42Z</time>
      </trkpt>
      <trkpt lat="41.950169" lon="2.793201">
        <ele>103.849</ele>
        <time>2020-11-03T17:41:43Z</time>
      </trkpt>
      <trkpt lat="41.950123" lon="2.793165">
        <ele>103.847</ele>
        <time>2020-11-03T17:41:44Z</time>
      </trkpt>
      <trkpt lat="41.950074" lon="2.793140">
        <ele>103.879</ele>
        <time>2020-11-03T17:41:45Z</time>
      </trkpt>
      <trkpt lat="41.950023" lon="2.793127">
        <ele>103.815</ele>
        <time>2020-11-03T17:41:46Z</time>
      </trkpt>
      <trkpt lat="41.949974" lon="2.793120">
        <ele>103.810</ele>
        <time>2020-11-03T17:41:47Z</time>
      </trkpt>
      <trkpt lat="41.949927" lon="2.793109">
        <ele>103.895</ele>
        <time>2020-11-03T17:41:48Z</time>
      </trkpt>
      <trkpt lat="41.949877" lon="2.793098">
        <ele>103.898</ele>
        <time>2020-11-03T17:41:49Z</time>
      </trkpt>
      <trkpt lat="41.949827" lon="2.793087">
        <ele>103.878</ele>
        <time>2020-11-03T17:41:50Z</time>
      </trkpt>
      <trkpt lat="41.949775" lon="2.793075">
        <ele>103.833</ele>
        <time>2020-11-03T17:41:51Z</time>
      </trkpt>
      <trkpt lat="41.949724" lon="2.793065">
        <ele>103.826</ele>
        <time>2020-11-03T17:41:52Z</time>
      </trkpt>
      <trkpt lat="41.949672" lon="2.793053">
        <ele>103.808</ele>
        <time>2020-11-03T17:41:53Z</time>
      </trkpt>
      <trkpt lat="41.949621" lon="2.793039">
        <ele>103.813</ele>
        <time>2020-11-03T17:41:54Z</time>
      </trkpt>
      <trkpt lat="41.949571" lon="2.793027">
        <ele>103.897</ele>
        <time>2020-11-03T17:41:55Z</time>
      </trkpt>
      <trkpt lat="41.949525" lon="2.793017">
        <ele>103.855</ele>
        <time>2020-11-03T17:41:56Z</time>
      </trkpt>
      <trkpt lat="41.949481" lon="2.793008">
        <ele>103.877</ele>
        <time>2020-11-03T17:41:57Z</time>
      </trkpt>
      <trkpt lat="41.949429" lon="2.792994">
        <ele>104.093</ele>
        <time>2020-11-03T17:41:58Z</time>
      </trkpt>
      <trkpt lat="41.949378" lon="2.792982">
        <ele>104.258</ele>
        <time>2020-11-03T17:41:59Z</time>
      </trkpt>
      <trkpt lat="41.949326" lon="2.792972">
        <ele>104.423</ele>
        <time>2020-11-03T17:42:00Z</time>
      </trkpt>
      <trkpt lat="41.949271" lon="2.792961">
        <ele>104.626</ele>
        <time>2020-11-03T17:42:01Z</time>
      </trkpt>
      <trkpt lat="41.949218" lon="2.792950">
        <ele>104.876</ele>
        <time>2020-11-03T17:42:02Z</time>
      </trkpt>
      <trkpt lat="41.949164" lon="2.792940">
        <ele>104.890</ele>
        <time>2020-11-03T17:42:03Z</time>
      </trkpt>
      <trkpt lat="41.949110" lon="2.792930">
        <ele>104.819</ele>
        <time>2020-11-03T17:42:04Z</time>
      </trkpt>
      <trkpt lat="41.949056" lon="2.792918">
        <ele>104.808</ele>
        <time>2020-11-03T17:42:05Z</time>
      </trkpt>
      <trkpt lat="41.949002" lon="2.792908">
        <ele>104.863</ele>
        <time>2020-11-03T17:42:06Z</time>
      </trkpt>
      <trkpt lat="41.948948" lon="2.792900">
        <ele>104.857</ele>
        <time>2020-11-03T17:42:07Z</time>
      </trkpt>
      <trkpt lat="41.948894" lon="2.792891">
        <ele>105.025</ele>
        <time>2020-11-03T17:42:08Z</time>
      </trkpt>
      <trkpt lat="41.948841" lon="2.792882">
        <ele>105.047</ele>
        <time>2020-11-03T17:42:09Z</time>
      </trkpt>
      <trkpt lat="41.948785" lon="2.792871">
        <ele>105.273</ele>
        <time>2020-11-03T17:42:10Z</time>
      </trkpt>
      <trkpt lat="41.948732" lon="2.792859">
        <ele>105.268</ele>
        <time>2020-11-03T17:42:11Z</time>
      </trkpt>
      <trkpt lat="41.948680" lon="2.792844">
        <ele>105.283</ele>
        <time>2020-11-03T17:42:12Z</time>
      </trkpt>
      <trkpt lat="41.948629" lon="2.792829">
        <ele>105.436</ele>
        <time>2020-11-03T17:42:13Z</time>
      </trkpt>
      <trkpt lat="41.948577" lon="2.792816">
        <ele>105.473</ele>
        <time>2020-11-03T17:42:14Z</time>
      </trkpt>
      <trkpt lat="41.948524" lon="2.792803">
        <ele>105.485</ele>
        <time>2020-11-03T17:42:15Z</time>
      </trkpt>
      <trkpt lat="41.948471" lon="2.792791">
        <ele>105.413</ele>
        <time>2020-11-03T17:42:16Z</time>
      </trkpt>
      <trkpt lat="41.948417" lon="2.792782">
        <ele>105.408</ele>
        <time>2020-11-03T17:42:17Z</time>
      </trkpt>
      <trkpt lat="41.948364" lon="2.792776">
        <ele>105.653</ele>
        <time>2020-11-03T17:42:18Z</time>
      </trkpt>
      <trkpt lat="41.948313" lon="2.792767">
        <ele>105.637</ele>
        <time>2020-11-03T17:42:19Z</time>
      </trkpt>
      <trkpt lat="41.948262" lon="2.792759">
        <ele>105.625</ele>
        <time>2020-11-03T17:42:20Z</time>
      </trkpt>
      <trkpt lat="41.948212" lon="2.792751">
        <ele>105.657</ele>
        <time>2020-11-03T17:42:21Z</time>
      </trkpt>
      <trkpt lat="41.948161" lon="2.792742">
        <ele>105.653</ele>
        <time>2020-11-03T17:42:22Z</time>
      </trkpt>
      <trkpt lat="41.948110" lon="2.792733">
        <ele>105.638</ele>
        <time>2020-11-03T17:42:23Z</time>
      </trkpt>
      <trkpt lat="41.948059" lon="2.792724">
        <ele>105.613</ele>
        <time>2020-11-03T17:42:24Z</time>
      </trkpt>
      <trkpt lat="41.948009" lon="2.792711">
        <ele>105.646</ele>
        <time>2020-11-03T17:42:25Z</time>
      </trkpt>
      <trkpt lat="41.947962" lon="2.792695">
        <ele>105.625</ele>
        <time>2020-11-03T17:42:26Z</time>
      </trkpt>
      <trkpt lat="41.947920" lon="2.792671">
        <ele>105.626</ele>
        <time>2020-11-03T17:42:27Z</time>
      </trkpt>
      <trkpt lat="41.947880" lon="2.792643">
        <ele>105.608</ele>
        <time>2020-11-03T17:42:28Z</time>
      </trkpt>
      <trkpt lat="41.947841" lon="2.792612">
        <ele>105.608</ele>
        <time>2020-11-03T17:42:29Z</time>
      </trkpt>
      <trkpt lat="41.947803" lon="2.792581">
        <ele>105.818</ele>
        <time>2020-11-03T17:42:30Z</time>
      </trkpt>
      <trkpt lat="41.947768" lon="2.792545">
        <ele>105.852</ele>
        <time>2020-11-03T17:42:31Z</time>
      </trkpt>
      <trkpt lat="41.947737" lon="2.792500">
        <ele>105.810</ele>
        <time>2020-11-03T17:42:32Z</time>
      </trkpt>
      <trkpt lat="41.947713" lon="2.792447">
        <ele>106.072</ele>
        <time>2020-11-03T17:42:33Z</time>
      </trkpt>
      <trkpt lat="41.947694" lon="2.792388">
        <ele>106.278</ele>
        <time>2020-11-03T17:42:34Z</time>
      </trkpt>
      <trkpt lat="41.947679" lon="2.792330">
        <ele>106.483</ele>
        <time>2020-11-03T17:42:35Z</time>
      </trkpt>
      <trkpt lat="41.947664" lon="2.792280">
        <ele>106.438</ele>
        <time>2020-11-03T17:42:36Z</time>
      </trkpt>
      <trkpt lat="41.947644" lon="2.792246">
        <ele>106.691</ele>
        <time>2020-11-03T17:42:37Z</time>
      </trkpt>
      <trkpt lat="41.947624" lon="2.792228">
        <ele>106.653</ele>
        <time>2020-11-03T17:42:38Z</time>
      </trkpt>
      <trkpt lat="41.947609" lon="2.792210">
        <ele>106.604</ele>
        <time>2020-11-03T17:42:39Z</time>
      </trkpt>
      <trkpt lat="41.947594" lon="2.792193">
        <ele>106.814</ele>
        <time>2020-11-03T17:42:40Z</time>
      </trkpt>
      <trkpt lat="41.947575" lon="2.792186">
        <ele>106.808</ele>
        <time>2020-11-03T17:42:41Z</time>
      </trkpt>
      <trkpt lat="41.947554" lon="2.792191">
        <ele>107.091</ele>
        <time>2020-11-03T17:42:42Z</time>
      </trkpt>
      <trkpt lat="41.947530" lon="2.792210">
        <ele>107.055</ele>
        <time>2020-11-03T17:42:43Z</time>
      </trkpt>
      <trkpt lat="41.947502" lon="2.792239">
        <ele>107.023</ele>
        <time>2020-11-03T17:42:44Z</time>
      </trkpt>
      <trkpt lat="41.947467" lon="2.792270">
        <ele>107.085</ele>
        <time>2020-11-03T17:42:45Z</time>
      </trkpt>
      <trkpt lat="41.947424" lon="2.792292">
        <ele>107.011</ele>
        <time>2020-11-03T17:42:46Z</time>
      </trkpt>
      <trkpt lat="41.947374" lon="2.792301">
        <ele>107.016</ele>
        <time>2020-11-03T17:42:47Z</time>
      </trkpt>
      <trkpt lat="41.947320" lon="2.792299">
        <ele>106.851</ele>
        <time>2020-11-03T17:42:48Z</time>
      </trkpt>
      <trkpt lat="41.947264" lon="2.792286">
        <ele>106.874</ele>
        <time>2020-11-03T17:42:49Z</time>
      </trkpt>
      <trkpt lat="41.947208" lon="2.792267">
        <ele>106.826</ele>
        <time>2020-11-03T17:42:50Z</time>
      </trkpt>
      <trkpt lat="41.947150" lon="2.792245">
        <ele>106.847</ele>
        <time>2020-11-03T17:42:51Z</time>
      </trkpt>
      <trkpt lat="41.947093" lon="2.792225">
        <ele>106.811</ele>
        <time>2020-11-03T17:42:52Z</time>
      </trkpt>
      <trkpt lat="41.947037" lon="2.792202">
        <ele>106.808</ele>
        <time>2020-11-03T17:42:53Z</time>
      </trkpt>
      <trkpt lat="41.946983" lon="2.792177">
        <ele>106.818</ele>
        <time>2020-11-03T17:42:54Z</time>
      </trkpt>
      <trkpt lat="41.946928" lon="2.792148">
        <ele>106.842</ele>
        <time>2020-11-03T17:42:55Z</time>
      </trkpt>
      <trkpt lat="41.946873" lon="2.792120">
        <ele>106.860</ele>
        <time>2020-11-03T17:42:56Z</time>
      </trkpt>
      <trkpt lat="41.946819" lon="2.792096">
        <ele>106.872</ele>
        <time>2020-11-03T17:42:57Z</time>
      </trkpt>
      <trkpt lat="41.946764" lon="2.792076">
        <ele>106.838</ele>
        <time>2020-11-03T17:42:58Z</time>
      </trkpt>
      <trkpt lat="41.946711" lon="2.792062">
        <ele>106.873</ele>
        <time>2020-11-03T17:42:59Z</time>
      </trkpt>
      <trkpt lat="41.946658" lon="2.792057">
        <ele>106.818</ele>
        <time>2020-11-03T17:43:00Z</time>
      </trkpt>
      <trkpt lat="41.946605" lon="2.792060">
        <ele>106.831</ele>
        <time>2020-11-03T17:43:01Z</time>
      </trkpt>
      <trkpt lat="41.946554" lon="2.792070">
        <ele>106.699</ele>
        <time>2020-11-03T17:43:02Z</time>
      </trkpt>
      <trkpt lat="41.946503" lon="2.792085">
        <ele>106.607</ele>
        <time>2020-11-03T17:43:03Z</time>
      </trkpt>
      <trkpt lat="41.946452" lon="2.792099">
        <ele>106.627</ele>
        <time>2020-11-03T17:43:04Z</time>
      </trkpt>
      <trkpt lat="41.946398" lon="2.792113">
        <ele>106.608</ele>
        <time>2020-11-03T17:43:05Z</time>
      </trkpt>
      <trkpt lat="41.946344" lon="2.792129">
        <ele>106.665</ele>
        <time>2020-11-03T17:43:06Z</time>
      </trkpt>
      <trkpt lat="41.946290" lon="2.792147">
        <ele>106.639</ele>
        <time>2020-11-03T17:43:07Z</time>
      </trkpt>
      <trkpt lat="41.946235" lon="2.792167">
        <ele>106.497</ele>
        <time>2020-11-03T17:43:08Z</time>
      </trkpt>
      <trkpt lat="41.946177" lon="2.792192">
        <ele>106.449</ele>
        <time>2020-11-03T17:43:09Z</time>
      </trkpt>
      <trkpt lat="41.946114" lon="2.792220">
        <ele>106.485</ele>
        <time>2020-11-03T17:43:10Z</time>
      </trkpt>
      <trkpt lat="41.946050" lon="2.792245">
        <ele>106.450</ele>
        <time>2020-11-03T17:43:11Z</time>
      </trkpt>
      <trkpt lat="41.945983" lon="2.792265">
        <ele>106.455</ele>
        <time>2020-11-03T17:43:12Z</time>
      </trkpt>
      <trkpt lat="41.945912" lon="2.792282">
        <ele>106.498</ele>
        <time>2020-11-03T17:43:13Z</time>
      </trkpt>
      <trkpt lat="41.945839" lon="2.792293">
        <ele>106.227</ele>
        <time>2020-11-03T17:43:14Z</time>
      </trkpt>
      <trkpt lat="41.945766" lon="2.792298">
        <ele>106.268</ele>
        <time>2020-11-03T17:43:15Z</time>
      </trkpt>
      <trkpt lat="41.945693" lon="2.792298">
        <ele>106.014</ele>
        <time>2020-11-03T17:43:16Z</time>
      </trkpt>
      <trkpt lat="41.945618" lon="2.792297">
        <ele>106.008</ele>
        <time>2020-11-03T17:43:17Z</time>
      </trkpt>
      <trkpt lat="41.945543" lon="2.792293">
        <ele>105.818</ele>
        <time>2020-11-03T17:43:18Z</time>
      </trkpt>
      <trkpt lat="41.945468" lon="2.792284">
        <ele>105.872</ele>
        <time>2020-11-03T17:43:19Z</time>
      </trkpt>
      <trkpt lat="41.945393" lon="2.792269">
        <ele>105.810</ele>
        <time>2020-11-03T17:43:20Z</time>
      </trkpt>
      <trkpt lat="41.945319" lon="2.792253">
        <ele>105.842</ele>
        <time>2020-11-03T17:43:21Z</time>
      </trkpt>
      <trkpt lat="41.945244" lon="2.792236">
        <ele>105.818</ele>
        <time>2020-11-03T17:43:22Z</time>
      </trkpt>
      <trkpt lat="41.945169" lon="2.792221">
        <ele>105.893</ele>
        <time>2020-11-03T17:43:23Z</time>
      </trkpt>
      <trkpt lat="41.945093" lon="2.792206">
        <ele>105.818</ele>
        <time>2020-11-03T17:43:24Z</time>
      </trkpt>
      <trkpt lat="41.945017" lon="2.792193">
        <ele>105.871</ele>
        <time>2020-11-03T17:43:25Z</time>
      </trkpt>
      <trkpt lat="41.944941" lon="2.792176">
        <ele>105.882</ele>
        <time>2020-11-03T17:43:26Z</time>
      </trkpt>
      <trkpt lat="41.944863" lon="2.792158">
        <ele>105.843</ele>
        <time>2020-11-03T17:43:27Z</time>
      </trkpt>
      <trkpt lat="41.944786" lon="2.792142">
        <ele>106.017</ele>
        <time>2020-11-03T17:43:28Z</time>
      </trkpt>
      <trkpt lat="41.944709" lon="2.792124">
        <ele>106.008</ele>
        <time>2020-11-03T17:43:29Z</time>
      </trkpt>
      <trkpt lat="41.944631" lon="2.792108">
        <ele>106.284</ele>
        <time>2020-11-03T17:43:30Z</time>
      </trkpt>
      <trkpt lat="41.944554" lon="2.792093">
        <ele>106.288</ele>
        <time>2020-11-03T17:43:31Z</time>
      </trkpt>
      <trkpt lat="41.944477" lon="2.792076">
        <ele>106.256</ele>
        <time>2020-11-03T17:43:32Z</time>
      </trkpt>
      <trkpt lat="41.944400" lon="2.792053">
        <ele>106.248</ele>
        <time>2020-11-03T17:43:33Z</time>
      </trkpt>
      <trkpt lat="41.944325" lon="2.792019">
        <ele>106.234</ele>
        <time>2020-11-03T17:43:34Z</time>
      </trkpt>
      <trkpt lat="41.944252" lon="2.791977">
        <ele>106.439</ele>
        <time>2020-11-03T17:43:35Z</time>
      </trkpt>
      <trkpt lat="41.944179" lon="2.791934">
        <ele>106.424</ele>
        <time>2020-11-03T17:43:36Z</time>
      </trkpt>
      <trkpt lat="41.944105" lon="2.791892">
        <ele>106.467</ele>
        <time>2020-11-03T17:43:37Z</time>
      </trkpt>
      <trkpt lat="41.944032" lon="2.791852">
        <ele>106.435</ele>
        <time>2020-11-03T17:43:38Z</time>
      </trkpt>
      <trkpt lat="41.943962" lon="2.791810">
        <ele>106.486</ele>
        <time>2020-11-03T17:43:39Z</time>
      </trkpt>
      <trkpt lat="41.943892" lon="2.791766">
        <ele>106.414</ele>
        <time>2020-11-03T17:43:40Z</time>
      </trkpt>
      <trkpt lat="41.943825" lon="2.791720">
        <ele>106.608</ele>
        <time>2020-11-03T17:43:41Z</time>
      </trkpt>
      <trkpt lat="41.943756" lon="2.791677">
        <ele>106.639</ele>
        <time>2020-11-03T17:43:42Z</time>
      </trkpt>
      <trkpt lat="41.943687" lon="2.791634">
        <ele>106.623</ele>
        <time>2020-11-03T17:43:43Z</time>
      </trkpt>
      <trkpt lat="41.943617" lon="2.791591">
        <ele>106.621</ele>
        <time>2020-11-03T17:43:44Z</time>
      </trkpt>
      <trkpt lat="41.943547" lon="2.791546">
        <ele>106.813</ele>
        <time>2020-11-03T17:43:45Z</time>
      </trkpt>
      <trkpt lat="41.943477" lon="2.791501">
        <ele>106.819</ele>
        <time>2020-11-03T17:43:46Z</time>
      </trkpt>
      <trkpt lat="41.943407" lon="2.791459">
        <ele>106.844</ele>
        <time>2020-11-03T17:43:47Z</time>
      </trkpt>
      <trkpt lat="41.943338" lon="2.791418">
        <ele>106.899</ele>
        <time>2020-11-03T17:43:48Z</time>
      </trkpt>
      <trkpt lat="41.943269" lon="2.791377">
        <ele>106.832</ele>
        <time>2020-11-03T17:43:49Z</time>
      </trkpt>
      <trkpt lat="41.943200" lon="2.791334">
        <ele>107.039</ele>
        <time>2020-11-03T17:43:50Z</time>
      </trkpt>
      <trkpt lat="41.943132" lon="2.791290">
        <ele>107.001</ele>
        <time>2020-11-03T17:43:51Z</time>
      </trkpt>
      <trkpt lat="41.943065" lon="2.791247">
        <ele>107.021</ele>
        <time>2020-11-03T17:43:52Z</time>
      </trkpt>
      <trkpt lat="41.942997" lon="2.791205">
        <ele>107.008</ele>
        <time>2020-11-03T17:43:53Z</time>
      </trkpt>
      <trkpt lat="41.942929" lon="2.791165">
        <ele>107.269</ele>
        <time>2020-11-03T17:43:54Z</time>
      </trkpt>
      <trkpt lat="41.942860" lon="2.791125">
        <ele>107.473</ele>
        <time>2020-11-03T17:43:55Z</time>
      </trkpt>
      <trkpt lat="41.942793" lon="2.791085">
        <ele>107.421</ele>
        <time>2020-11-03T17:43:56Z</time>
      </trkpt>
      <trkpt lat="41.942726" lon="2.791041">
        <ele>107.653</ele>
        <time>2020-11-03T17:43:57Z</time>
      </trkpt>
      <trkpt lat="41.942661" lon="2.790998">
        <ele>107.639</ele>
        <time>2020-11-03T17:43:58Z</time>
      </trkpt>
      <trkpt lat="41.942595" lon="2.790955">
        <ele>107.844</ele>
        <time>2020-11-03T17:43:59Z</time>
      </trkpt>
      <trkpt lat="41.942529" lon="2.790913">
        <ele>107.839</ele>
        <time>2020-11-03T17:44:00Z</time>
      </trkpt>
      <trkpt lat="41.942463" lon="2.790873">
        <ele>107.862</ele>
        <time>2020-11-03T17:44:01Z</time>
      </trkpt>
      <trkpt lat="41.942395" lon="2.790835">
        <ele>108.095</ele>
        <time>2020-11-03T17:44:02Z</time>
      </trkpt>
      <trkpt lat="41.942325" lon="2.790798">
        <ele>108.049</ele>
        <time>2020-11-03T17:44:03Z</time>
      </trkpt>
      <trkpt lat="41.942255" lon="2.790761">
        <ele>108.223</ele>
        <time>2020-11-03T17:44:04Z</time>
      </trkpt>
      <trkpt lat="41.942186" lon="2.790726">
        <ele>108.408</ele>
        <time>2020-11-03T17:44:05Z</time>
      </trkpt>
      <trkpt lat="41.942118" lon="2.790692">
        <ele>108.645</ele>
        <time>2020-11-03T17:44:06Z</time>
      </trkpt>
      <trkpt lat="41.942050" lon="2.790658">
        <ele>108.619</ele>
        <time>2020-11-03T17:44:07Z</time>
      </trkpt>
      <trkpt lat="41.941984" lon="2.790625">
        <ele>108.847</ele>
        <time>2020-11-03T17:44:08Z</time>
      </trkpt>
      <trkpt lat="41.941919" lon="2.790590">
        <ele>108.839</ele>
        <time>2020-11-03T17:44:09Z</time>
      </trkpt>
      <trkpt lat="41.941856" lon="2.790557">
        <ele>109.025</ele>
        <time>2020-11-03T17:44:10Z</time>
      </trkpt>
      <trkpt lat="41.941793" lon="2.790523">
        <ele>109.250</ele>
        <time>2020-11-03T17:44:11Z</time>
      </trkpt>
      <trkpt lat="41.941729" lon="2.790490">
        <ele>109.295</ele>
        <time>2020-11-03T17:44:12Z</time>
      </trkpt>
      <trkpt lat="41.941664" lon="2.790457">
        <ele>109.488</ele>
        <time>2020-11-03T17:44:13Z</time>
      </trkpt>
      <trkpt lat="41.941600" lon="2.790425">
        <ele>109.462</ele>
        <time>2020-11-03T17:44:14Z</time>
      </trkpt>
      <trkpt lat="41.941536" lon="2.790394">
        <ele>109.683</ele>
        <time>2020-11-03T17:44:15Z</time>
      </trkpt>
      <trkpt lat="41.941471" lon="2.790363">
        <ele>109.611</ele>
        <time>2020-11-03T17:44:16Z</time>
      </trkpt>
      <trkpt lat="41.941407" lon="2.790328">
        <ele>109.808</ele>
        <time>2020-11-03T17:44:17Z</time>
      </trkpt>
      <trkpt lat="41.941342" lon="2.790292">
        <ele>110.012</ele>
        <time>2020-11-03T17:44:18Z</time>
      </trkpt>
      <trkpt lat="41.941277" lon="2.790256">
        <ele>110.076</ele>
        <time>2020-11-03T17:44:19Z</time>
      </trkpt>
      <trkpt lat="41.941210" lon="2.790221">
        <ele>110.064</ele>
        <time>2020-11-03T17:44:20Z</time>
      </trkpt>
      <trkpt lat="41.941144" lon="2.790191">
        <ele>110.076</ele>
        <time>2020-11-03T17:44:21Z</time>
      </trkpt>
      <trkpt lat="41.941077" lon="2.790165">
        <ele>110.022</ele>
        <time>2020-11-03T17:44:22Z</time>
      </trkpt>
      <trkpt lat="41.941011" lon="2.790140">
        <ele>110.097</ele>
        <time>2020-11-03T17:44:23Z</time>
      </trkpt>
      <trkpt lat="41.940945" lon="2.790114">
        <ele>110.022</ele>
        <time>2020-11-03T17:44:24Z</time>
      </trkpt>
      <trkpt lat="41.940879" lon="2.790085">
        <ele>110.235</ele>
        <time>2020-11-03T17:44:25Z</time>
      </trkpt>
      <trkpt lat="41.940815" lon="2.790049">
        <ele>110.254</ele>
        <time>2020-11-03T17:44:26Z</time>
      </trkpt>
      <trkpt lat="41.940753" lon="2.790010">
        <ele>110.256</ele>
        <time>2020-11-03T17:44:27Z</time>
      </trkpt>
      <trkpt lat="41.940690" lon="2.789973">
        <ele>110.211</ele>
        <time>2020-11-03T17:44:28Z</time>
      </trkpt>
      <trkpt lat="41.940622" lon="2.789950">
        <ele>110.208</ele>
        <time>2020-11-03T17:44:29Z</time>
      </trkpt>
      <trkpt lat="41.940549" lon="2.789943">
        <ele>110.281</ele>
        <time>2020-11-03T17:44:30Z</time>
      </trkpt>
      <trkpt lat="41.940478" lon="2.789948">
        <ele>110.475</ele>
        <time>2020-11-03T17:44:31Z</time>
      </trkpt>
      <trkpt lat="41.940408" lon="2.789955">
        <ele>110.613</ele>
        <time>2020-11-03T17:44:32Z</time>
      </trkpt>
      <trkpt lat="41.940343" lon="2.789950">
        <ele>110.665</ele>
        <time>2020-11-03T17:44:33Z</time>
      </trkpt>
      <trkpt lat="41.940282" lon="2.789934">
        <ele>110.621</ele>
        <time>2020-11-03T17:44:34Z</time>
      </trkpt>
      <trkpt lat="41.940226" lon="2.789907">
        <ele>110.666</ele>
        <time>2020-11-03T17:44:35Z</time>
      </trkpt>
      <trkpt lat="41.940178" lon="2.789871">
        <ele>110.891</ele>
        <time>2020-11-03T17:44:36Z</time>
      </trkpt>
      <trkpt lat="41.940132" lon="2.789826">
        <ele>111.074</ele>
        <time>2020-11-03T17:44:37Z</time>
      </trkpt>
      <trkpt lat="41.940086" lon="2.789778">
        <ele>111.227</ele>
        <time>2020-11-03T17:44:38Z</time>
      </trkpt>
      <trkpt lat="41.940040" lon="2.789733">
        <ele>111.668</ele>
        <time>2020-11-03T17:44:39Z</time>
      </trkpt>
      <trkpt lat="41.939992" lon="2.789688">
        <ele>111.814</ele>
        <time>2020-11-03T17:44:40Z</time>
      </trkpt>
      <trkpt lat="41.939946" lon="2.789643">
        <ele>112.208</ele>
        <time>2020-11-03T17:44:41Z</time>
      </trkpt>
      <trkpt lat="41.939901" lon="2.789599">
        <ele>112.488</ele>
        <time>2020-11-03T17:44:42Z</time>
      </trkpt>
      <trkpt lat="41.939853" lon="2.789557">
        <ele>112.442</ele>
        <time>2020-11-03T17:44:43Z</time>
      </trkpt>
      <trkpt lat="41.939805" lon="2.789513">
        <ele>112.410</ele>
        <time>2020-11-03T17:44:44Z</time>
      </trkpt>
      <trkpt lat="41.939756" lon="2.789464">
        <ele>112.682</ele>
        <time>2020-11-03T17:44:45Z</time>
      </trkpt>
      <trkpt lat="41.939705" lon="2.789418">
        <ele>112.818</ele>
        <time>2020-11-03T17:44:46Z</time>
      </trkpt>
      <trkpt lat="41.939657" lon="2.789374">
        <ele>112.823</ele>
        <time>2020-11-03T17:44:47Z</time>
      </trkpt>
      <trkpt lat="41.939608" lon="2.789328">
        <ele>113.018</ele>
        <time>2020-11-03T17:44:48Z</time>
      </trkpt>
      <trkpt lat="41.939556" lon="2.789282">
        <ele>113.031</ele>
        <time>2020-11-03T17:44:49Z</time>
      </trkpt>
      <trkpt lat="41.939504" lon="2.789236">
        <ele>113.059</ele>
        <time>2020-11-03T17:44:50Z</time>
      </trkpt>
      <trkpt lat="41.939453" lon="2.789190">
        <ele>113.003</ele>
        <time>2020-11-03T17:44:51Z</time>
      </trkpt>
      <trkpt lat="41.939402" lon="2.789142">
        <ele>113.223</ele>
        <time>2020-11-03T17:44:52Z</time>
      </trkpt>
      <trkpt lat="41.939350" lon="2.789097">
        <ele>113.208</ele>
        <time>2020-11-03T17:44:53Z</time>
      </trkpt>
      <trkpt lat="41.939298" lon="2.789055">
        <ele>113.221</ele>
        <time>2020-11-03T17:44:54Z</time>
      </trkpt>
      <trkpt lat="41.939244" lon="2.789012">
        <ele>113.445</ele>
        <time>2020-11-03T17:44:55Z</time>
      </trkpt>
      <trkpt lat="41.939188" lon="2.788975">
        <ele>113.433</ele>
        <time>2020-11-03T17:44:56Z</time>
      </trkpt>
      <trkpt lat="41.939130" lon="2.788943">
        <ele>113.695</ele>
        <time>2020-11-03T17:44:57Z</time>
      </trkpt>
      <trkpt lat="41.939069" lon="2.788914">
        <ele>113.621</ele>
        <time>2020-11-03T17:44:58Z</time>
      </trkpt>
      <trkpt lat="41.939010" lon="2.788896">
        <ele>113.626</ele>
        <time>2020-11-03T17:44:59Z</time>
      </trkpt>
      <trkpt lat="41.938947" lon="2.788880">
        <ele>113.821</ele>
        <time>2020-11-03T17:45:00Z</time>
      </trkpt>
      <trkpt lat="41.938883" lon="2.788871">
        <ele>113.854</ele>
        <time>2020-11-03T17:45:01Z</time>
      </trkpt>
      <trkpt lat="41.938818" lon="2.788866">
        <ele>113.829</ele>
        <time>2020-11-03T17:45:02Z</time>
      </trkpt>
      <trkpt lat="41.938752" lon="2.788860">
        <ele>113.800</ele>
        <time>2020-11-03T17:45:03Z</time>
      </trkpt>
      <trkpt lat="41.938685" lon="2.788852">
        <ele>114.020</ele>
        <time>2020-11-03T17:45:04Z</time>
      </trkpt>
      <trkpt lat="41.938616" lon="2.788842">
        <ele>114.008</ele>
        <time>2020-11-03T17:45:05Z</time>
      </trkpt>
      <trkpt lat="41.938546" lon="2.788833">
        <ele>114.088</ele>
        <time>2020-11-03T17:45:06Z</time>
      </trkpt>
      <trkpt lat="41.938477" lon="2.788824">
        <ele>114.082</ele>
        <time>2020-11-03T17:45:07Z</time>
      </trkpt>
      <trkpt lat="41.938406" lon="2.788812">
        <ele>113.880</ele>
        <time>2020-11-03T17:45:08Z</time>
      </trkpt>
      <trkpt lat="41.938336" lon="2.788803">
        <ele>113.882</ele>
        <time>2020-11-03T17:45:09Z</time>
      </trkpt>
      <trkpt lat="41.938264" lon="2.788794">
        <ele>113.838</ele>
        <time>2020-11-03T17:45:10Z</time>
      </trkpt>
      <trkpt lat="41.938191" lon="2.788782">
        <ele>113.813</ele>
        <time>2020-11-03T17:45:11Z</time>
      </trkpt>
      <trkpt lat="41.938119" lon="2.788769">
        <ele>113.618</ele>
        <time>2020-11-03T17:45:12Z</time>
      </trkpt>
      <trkpt lat="41.938043" lon="2.788759">
        <ele>113.631</ele>
        <time>2020-11-03T17:45:13Z</time>
      </trkpt>
      <trkpt lat="41.937967" lon="2.788748">
        <ele>113.481</ele>
        <time>2020-11-03T17:45:14Z</time>
      </trkpt>
      <trkpt lat="41.937890" lon="2.788734">
        <ele>113.461</ele>
        <time>2020-11-03T17:45:15Z</time>
      </trkpt>
      <trkpt lat="41.937813" lon="2.788722">
        <ele>113.417</ele>
        <time>2020-11-03T17:45:16Z</time>
      </trkpt>
      <trkpt lat="41.937736" lon="2.788710">
        <ele>113.408</ele>
        <time>2020-11-03T17:45:17Z</time>
      </trkpt>
      <trkpt lat="41.937659" lon="2.788697">
        <ele>113.214</ele>
        <time>2020-11-03T17:45:18Z</time>
      </trkpt>
      <trkpt lat="41.937583" lon="2.788681">
        <ele>113.218</ele>
        <time>2020-11-03T17:45:19Z</time>
      </trkpt>
      <trkpt lat="41.937506" lon="2.788665">
        <ele>113.276</ele>
        <time>2020-11-03T17:45:20Z</time>
      </trkpt>
      <trkpt lat="41.937430" lon="2.788651">
        <ele>113.238</ele>
        <time>2020-11-03T17:45:21Z</time>
      </trkpt>
      <trkpt lat="41.937354" lon="2.788636">
        <ele>113.274</ele>
        <time>2020-11-03T17:45:22Z</time>
      </trkpt>
      <trkpt lat="41.937280" lon="2.788620">
        <ele>113.229</ele>
        <time>2020-11-03T17:45:23Z</time>
      </trkpt>
      <trkpt lat="41.937206" lon="2.788604">
        <ele>113.014</ele>
        <time>2020-11-03T17:45:24Z</time>
      </trkpt>
      <trkpt lat="41.937132" lon="2.788588">
        <ele>113.027</ele>
        <time>2020-11-03T17:45:25Z</time>
      </trkpt>
      <trkpt lat="41.937060" lon="2.788568">
        <ele>113.042</ele>
        <time>2020-11-03T17:45:26Z</time>
      </trkpt>
      <trkpt lat="41.936989" lon="2.788543">
        <ele>113.022</ele>
        <time>2020-11-03T17:45:27Z</time>
      </trkpt>
      <trkpt lat="41.936916" lon="2.788518">
        <ele>113.014</ele>
        <time>2020-11-03T17:45:28Z</time>
      </trkpt>
      <trkpt lat="41.936843" lon="2.788495">
        <ele>113.008</ele>
        <time>2020-11-03T17:45:29Z</time>
      </trkpt>
      <trkpt lat="41.936770" lon="2.788476">
        <ele>113.230</ele>
        <time>2020-11-03T17:45:30Z</time>
      </trkpt>
      <trkpt lat="41.936696" lon="2.788457">
        <ele>113.264</ele>
        <time>2020-11-03T17:45:31Z</time>
      </trkpt>
      <trkpt lat="41.936623" lon="2.788439">
        <ele>113.252</ele>
        <time>2020-11-03T17:45:32Z</time>
      </trkpt>
      <trkpt lat="41.936552" lon="2.788419">
        <ele>113.494</ele>
        <time>2020-11-03T17:45:33Z</time>
      </trkpt>
      <trkpt lat="41.936481" lon="2.788397">
        <ele>113.430</ele>
        <time>2020-11-03T17:45:34Z</time>
      </trkpt>
      <trkpt lat="41.936410" lon="2.788375">
        <ele>113.455</ele>
        <time>2020-11-03T17:45:35Z</time>
      </trkpt>
      <trkpt lat="41.936338" lon="2.788352">
        <ele>113.460</ele>
        <time>2020-11-03T17:45:36Z</time>
      </trkpt>
      <trkpt lat="41.936268" lon="2.788330">
        <ele>113.453</ele>
        <time>2020-11-03T17:45:37Z</time>
      </trkpt>
      <trkpt lat="41.936199" lon="2.788307">
        <ele>113.637</ele>
        <time>2020-11-03T17:45:38Z</time>
      </trkpt>
      <trkpt lat="41.936129" lon="2.788286">
        <ele>113.849</ele>
        <time>2020-11-03T17:45:39Z</time>
      </trkpt>
      <trkpt lat="41.936061" lon="2.788264">
        <ele>114.013</ele>
        <time>2020-11-03T17:45:40Z</time>
      </trkpt>
      <trkpt lat="41.935994" lon="2.788242">
        <ele>114.008</ele>
        <time>2020-11-03T17:45:41Z</time>
      </trkpt>
      <trkpt lat="41.935926" lon="2.788220">
        <ele>114.239</ele>
        <time>2020-11-03T17:45:42Z</time>
      </trkpt>
      <trkpt lat="41.935859" lon="2.788198">
        <ele>114.493</ele>
        <time>2020-11-03T17:45:43Z</time>
      </trkpt>
      <trkpt lat="41.935793" lon="2.788177">
        <ele>114.611</ele>
        <time>2020-11-03T17:45:44Z</time>
      </trkpt>
      <trkpt lat="41.935728" lon="2.788156">
        <ele>114.883</ele>
        <time>2020-11-03T17:45:45Z</time>
      </trkpt>
      <trkpt lat="41.935664" lon="2.788133">
        <ele>115.079</ele>
        <time>2020-11-03T17:45:46Z</time>
      </trkpt>
      <trkpt lat="41.935600" lon="2.788113">
        <ele>115.094</ele>
        <time>2020-11-03T17:45:47Z</time>
      </trkpt>
      <trkpt lat="41.935536" lon="2.788093">
        <ele>115.079</ele>
        <time>2020-11-03T17:45:48Z</time>
      </trkpt>
      <trkpt lat="41.935473" lon="2.788073">
        <ele>115.282</ele>
        <time>2020-11-03T17:45:49Z</time>
      </trkpt>
      <trkpt lat="41.935409" lon="2.788052">
        <ele>115.468</ele>
        <time>2020-11-03T17:45:50Z</time>
      </trkpt>
      <trkpt lat="41.935348" lon="2.788030">
        <ele>115.642</ele>
        <time>2020-11-03T17:45:51Z</time>
      </trkpt>
      <trkpt lat="41.935285" lon="2.788010">
        <ele>115.826</ele>
        <time>2020-11-03T17:45:52Z</time>
      </trkpt>
      <trkpt lat="41.935222" lon="2.787990">
        <ele>115.808</ele>
        <time>2020-11-03T17:45:53Z</time>
      </trkpt>
      <trkpt lat="41.935156" lon="2.787973">
        <ele>115.862</ele>
        <time>2020-11-03T17:45:54Z</time>
      </trkpt>
      <trkpt lat="41.935091" lon="2.787957">
        <ele>116.046</ele>
        <time>2020-11-03T17:45:55Z</time>
      </trkpt>
      <trkpt lat="41.935025" lon="2.787942">
        <ele>116.094</ele>
        <time>2020-11-03T17:45:56Z</time>
      </trkpt>
      <trkpt lat="41.934957" lon="2.787927">
        <ele>116.086</ele>
        <time>2020-11-03T17:45:57Z</time>
      </trkpt>
      <trkpt lat="41.934889" lon="2.787915">
        <ele>116.022</ele>
        <time>2020-11-03T17:45:58Z</time>
      </trkpt>
      <trkpt lat="41.934819" lon="2.787903">
        <ele>116.077</ele>
        <time>2020-11-03T17:45:59Z</time>
      </trkpt>
      <trkpt lat="41.934750" lon="2.787893">
        <ele>116.092</ele>
        <time>2020-11-03T17:46:00Z</time>
      </trkpt>
      <trkpt lat="41.934680" lon="2.787886">
        <ele>116.065</ele>
        <time>2020-11-03T17:46:01Z</time>
      </trkpt>
      <trkpt lat="41.934610" lon="2.787878">
        <ele>116.037</ele>
        <time>2020-11-03T17:46:02Z</time>
      </trkpt>
      <trkpt lat="41.934540" lon="2.787869">
        <ele>115.849</ele>
        <time>2020-11-03T17:46:03Z</time>
      </trkpt>
      <trkpt lat="41.934472" lon="2.787851">
        <ele>115.813</ele>
        <time>2020-11-03T17:46:04Z</time>
      </trkpt>
      <trkpt lat="41.934410" lon="2.787819">
        <ele>115.608</ele>
        <time>2020-11-03T17:46:05Z</time>
      </trkpt>
      <trkpt lat="41.934354" lon="2.787772">
        <ele>115.499</ele>
        <time>2020-11-03T17:46:06Z</time>
      </trkpt>
      <trkpt lat="41.934310" lon="2.787708">
        <ele>115.263</ele>
        <time>2020-11-03T17:46:07Z</time>
      </trkpt>
      <trkpt lat="41.934273" lon="2.787632">
        <ele>115.271</ele>
        <time>2020-11-03T17:46:08Z</time>
      </trkpt>
      <trkpt lat="41.934245" lon="2.787557">
        <ele>115.033</ele>
        <time>2020-11-03T17:46:09Z</time>
      </trkpt>
      <trkpt lat="41.934230" lon="2.787480">
        <ele>115.099</ele>
        <time>2020-11-03T17:46:10Z</time>
      </trkpt>
      <trkpt lat="41.934224" lon="2.787398">
        <ele>114.824</ele>
        <time>2020-11-03T17:46:11Z</time>
      </trkpt>
      <trkpt lat="41.934214" lon="2.787313">
        <ele>114.849</ele>
        <time>2020-11-03T17:46:12Z</time>
      </trkpt>
      <trkpt lat="41.934200" lon="2.787230">
        <ele>114.812</ele>
        <time>2020-11-03T17:46:13Z</time>
      </trkpt>
      <trkpt lat="41.934186" lon="2.787153">
        <ele>114.683</ele>
        <time>2020-11-03T17:46:14Z</time>
      </trkpt>
      <trkpt lat="41.934175" lon="2.787080">
        <ele>114.625</ele>
        <time>2020-11-03T17:46:15Z</time>
      </trkpt>
      <trkpt lat="41.934157" lon="2.787008">
        <ele>114.817</ele>
        <time>2020-11-03T17:46:16Z</time>
      </trkpt>
      <trkpt lat="41.934142" lon="2.786956">
        <ele>114.608</ele>
        <time>2020-11-03T17:46:17Z</time>
      </trkpt>
      <trkpt lat="41.934128" lon="2.786905">
        <ele>114.624</ele>
        <time>2020-11-03T17:46:18Z</time>
      </trkpt>
      <trkpt lat="41.934116" lon="2.786818">
        <ele>114.698</ele>
        <time>2020-11-03T17:46:19Z</time>
      </trkpt>
      <trkpt lat="41.934103" lon="2.786728">
        <ele>114.826</ele>
        <time>2020-11-03T17:46:20Z</time>
      </trkpt>
      <trkpt lat="41.934083" lon="2.786667">
        <ele>114.858</ele>
        <time>2020-11-03T17:46:21Z</time>
      </trkpt>
      <trkpt lat="41.934055" lon="2.786623">
        <ele>115.084</ele>
        <time>2020-11-03T17:46:22Z</time>
      </trkpt>
      <trkpt lat="41.934025" lon="2.786600">
        <ele>115.249</ele>
        <time>2020-11-03T17:46:23Z</time>
      </trkpt>
      <trkpt lat="41.933995" lon="2.786583">
        <ele>115.234</ele>
        <time>2020-11-03T17:46:24Z</time>
      </trkpt>
      <trkpt lat="41.933960" lon="2.786575">
        <ele>115.227</ele>
        <time>2020-11-03T17:46:25Z</time>
      </trkpt>
      <trkpt lat="41.933924" lon="2.786579">
        <ele>115.264</ele>
        <time>2020-11-03T17:46:26Z</time>
      </trkpt>
      <trkpt lat="41.933897" lon="2.786597">
        <ele>115.206</ele>
        <time>2020-11-03T17:46:27Z</time>
      </trkpt>
      <trkpt lat="41.933882" lon="2.786630">
        <ele>115.216</ele>
        <time>2020-11-03T17:46:28Z</time>
      </trkpt>
      <trkpt lat="41.933878" lon="2.786664">
        <ele>115.008</ele>
        <time>2020-11-03T17:46:29Z</time>
      </trkpt>
      <trkpt lat="41.933877" lon="2.786693">
        <ele>115.092</ele>
        <time>2020-11-03T17:46:30Z</time>
      </trkpt>
      <trkpt lat="41.933879" lon="2.786717">
        <ele>115.056</ele>
        <time>2020-11-03T17:46:31Z</time>
      </trkpt>
      <trkpt lat="41.933897" lon="2.786753">
        <ele>115.054</ele>
        <time>2020-11-03T17:46:32Z</time>
      </trkpt>
      <trkpt lat="41.933906" lon="2.786789">
        <ele>115.026</ele>
        <time>2020-11-03T17:46:33Z</time>
      </trkpt>
      <trkpt lat="41.933912" lon="2.786824">
        <ele>115.042</ele>
        <time>2020-11-03T17:46:34Z</time>
      </trkpt>
      <trkpt lat="41.933924" lon="2.786879">
        <ele>115.067</ele>
        <time>2020-11-03T17:46:35Z</time>
      </trkpt>
      <trkpt lat="41.933917" lon="2.786973">
        <ele>115.032</ele>
        <time>2020-11-03T17:46:36Z</time>
      </trkpt>
      <trkpt lat="41.933963" lon="2.787100">
        <ele>115.015</ele>
        <time>2020-11-03T17:46:37Z</time>
      </trkpt>
      <trkpt lat="41.933966" lon="2.787148">
        <ele>115.022</ele>
        <time>2020-11-03T17:46:38Z</time>
      </trkpt>
      <trkpt lat="41.933957" lon="2.787193">
        <ele>115.062</ele>
        <time>2020-11-03T17:46:39Z</time>
      </trkpt>
      <trkpt lat="41.933935" lon="2.787228">
        <ele>114.808</ele>
        <time>2020-11-03T17:46:40Z</time>
      </trkpt>
      <trkpt lat="41.933913" lon="2.787254">
        <ele>115.008</ele>
        <time>2020-11-03T17:46:41Z</time>
      </trkpt>
      <trkpt lat="41.933890" lon="2.787259">
        <ele>115.418</ele>
        <time>2020-11-03T17:46:42Z</time>
      </trkpt>
      <trkpt lat="41.933866" lon="2.787256">
        <ele>115.672</ele>
        <time>2020-11-03T17:46:43Z</time>
      </trkpt>
      <trkpt lat="41.933840" lon="2.787248">
        <ele>115.890</ele>
        <time>2020-11-03T17:46:44Z</time>
      </trkpt>
      <trkpt lat="41.933813" lon="2.787233">
        <ele>116.012</ele>
        <time>2020-11-03T17:46:45Z</time>
      </trkpt>
      <trkpt lat="41.933784" lon="2.787219">
        <ele>116.298</ele>
        <time>2020-11-03T17:46:46Z</time>
      </trkpt>
      <trkpt lat="41.933758" lon="2.787202">
        <ele>116.453</ele>
        <time>2020-11-03T17:46:47Z</time>
      </trkpt>
      <trkpt lat="41.933728" lon="2.787176">
        <ele>116.858</ele>
        <time>2020-11-03T17:46:48Z</time>
      </trkpt>
      <trkpt lat="41.933695" lon="2.787152">
        <ele>117.071</ele>
        <time>2020-11-03T17:46:49Z</time>
      </trkpt>
      <trkpt lat="41.933661" lon="2.787139">
        <ele>117.245</ele>
        <time>2020-11-03T17:46:50Z</time>
      </trkpt>
      <trkpt lat="41.933625" lon="2.787128">
        <ele>117.647</ele>
        <time>2020-11-03T17:46:51Z</time>
      </trkpt>
      <trkpt lat="41.933586" lon="2.787114">
        <ele>117.811</ele>
        <time>2020-11-03T17:46:52Z</time>
      </trkpt>
      <trkpt lat="41.933546" lon="2.787098">
        <ele>118.008</ele>
        <time>2020-11-03T17:46:53Z</time>
      </trkpt>
      <trkpt lat="41.933506" lon="2.787081">
        <ele>118.090</ele>
        <time>2020-11-03T17:46:54Z</time>
      </trkpt>
      <trkpt lat="41.933463" lon="2.787066">
        <ele>118.214</ele>
        <time>2020-11-03T17:46:55Z</time>
      </trkpt>
      <trkpt lat="41.933420" lon="2.787051">
        <ele>118.242</ele>
        <time>2020-11-03T17:46:56Z</time>
      </trkpt>
      <trkpt lat="41.933378" lon="2.787034">
        <ele>118.214</ele>
        <time>2020-11-03T17:46:57Z</time>
      </trkpt>
      <trkpt lat="41.933337" lon="2.787013">
        <ele>118.240</ele>
        <time>2020-11-03T17:46:58Z</time>
      </trkpt>
      <trkpt lat="41.933297" lon="2.786988">
        <ele>118.255</ele>
        <time>2020-11-03T17:46:59Z</time>
      </trkpt>
      <trkpt lat="41.933255" lon="2.786962">
        <ele>118.250</ele>
        <time>2020-11-03T17:47:00Z</time>
      </trkpt>
      <trkpt lat="41.933211" lon="2.786938">
        <ele>118.293</ele>
        <time>2020-11-03T17:47:01Z</time>
      </trkpt>
      <trkpt lat="41.933165" lon="2.786916">
        <ele>118.276</ele>
        <time>2020-11-03T17:47:02Z</time>
      </trkpt>
      <trkpt lat="41.933118" lon="2.786893">
        <ele>118.490</ele>
        <time>2020-11-03T17:47:03Z</time>
      </trkpt>
      <trkpt lat="41.933071" lon="2.786870">
        <ele>118.419</ele>
        <time>2020-11-03T17:47:04Z</time>
      </trkpt>
      <trkpt lat="41.933023" lon="2.786848">
        <ele>118.408</ele>
        <time>2020-11-03T17:47:05Z</time>
      </trkpt>
      <trkpt lat="41.932974" lon="2.786825">
        <ele>118.423</ele>
        <time>2020-11-03T17:47:06Z</time>
      </trkpt>
      <trkpt lat="41.932924" lon="2.786801">
        <ele>118.487</ele>
        <time>2020-11-03T17:47:07Z</time>
      </trkpt>
      <trkpt lat="41.932875" lon="2.786773">
        <ele>118.465</ele>
        <time>2020-11-03T17:47:08Z</time>
      </trkpt>
      <trkpt lat="41.932825" lon="2.786745">
        <ele>118.437</ele>
        <time>2020-11-03T17:47:09Z</time>
      </trkpt>
      <trkpt lat="41.932775" lon="2.786718">
        <ele>118.613</ele>
        <time>2020-11-03T17:47:10Z</time>
      </trkpt>
      <trkpt lat="41.932724" lon="2.786689">
        <ele>118.678</ele>
        <time>2020-11-03T17:47:11Z</time>
      </trkpt>
      <trkpt lat="41.932673" lon="2.786662">
        <ele>118.463</ele>
        <time>2020-11-03T17:47:12Z</time>
      </trkpt>
      <trkpt lat="41.932620" lon="2.786634">
        <ele>118.476</ele>
        <time>2020-11-03T17:47:13Z</time>
      </trkpt>
      <trkpt lat="41.932566" lon="2.786606">
        <ele>118.493</ele>
        <time>2020-11-03T17:47:14Z</time>
      </trkpt>
      <trkpt lat="41.932512" lon="2.786578">
        <ele>118.265</ele>
        <time>2020-11-03T17:47:15Z</time>
      </trkpt>
      <trkpt lat="41.932458" lon="2.786553">
        <ele>118.221</ele>
        <time>2020-11-03T17:47:16Z</time>
      </trkpt>
      <trkpt lat="41.932406" lon="2.786527">
        <ele>118.008</ele>
        <time>2020-11-03T17:47:17Z</time>
      </trkpt>
      <trkpt lat="41.932355" lon="2.786500">
        <ele>118.025</ele>
        <time>2020-11-03T17:47:18Z</time>
      </trkpt>
      <trkpt lat="41.932303" lon="2.786472">
        <ele>118.079</ele>
        <time>2020-11-03T17:47:19Z</time>
      </trkpt>
      <trkpt lat="41.932251" lon="2.786445">
        <ele>118.257</ele>
        <time>2020-11-03T17:47:20Z</time>
      </trkpt>
      <trkpt lat="41.932198" lon="2.786422">
        <ele>118.279</ele>
        <time>2020-11-03T17:47:21Z</time>
      </trkpt>
      <trkpt lat="41.932144" lon="2.786398">
        <ele>118.265</ele>
        <time>2020-11-03T17:47:22Z</time>
      </trkpt>
      <trkpt lat="41.932091" lon="2.786369">
        <ele>118.450</ele>
        <time>2020-11-03T17:47:23Z</time>
      </trkpt>
      <trkpt lat="41.932038" lon="2.786338">
        <ele>118.455</ele>
        <time>2020-11-03T17:47:24Z</time>
      </trkpt>
      <trkpt lat="41.931986" lon="2.786310">
        <ele>118.268</ele>
        <time>2020-11-03T17:47:25Z</time>
      </trkpt>
      <trkpt lat="41.931934" lon="2.786282">
        <ele>118.425</ele>
        <time>2020-11-03T17:47:26Z</time>
      </trkpt>
      <trkpt lat="41.931882" lon="2.786252">
        <ele>118.226</ele>
        <time>2020-11-03T17:47:27Z</time>
      </trkpt>
      <trkpt lat="41.931829" lon="2.786219">
        <ele>118.208</ele>
        <time>2020-11-03T17:47:28Z</time>
      </trkpt>
      <trkpt lat="41.931778" lon="2.786189">
        <ele>118.408</ele>
        <time>2020-11-03T17:47:29Z</time>
      </trkpt>
      <trkpt lat="41.931725" lon="2.786160">
        <ele>118.498</ele>
        <time>2020-11-03T17:47:30Z</time>
      </trkpt>
      <trkpt lat="41.931673" lon="2.786131">
        <ele>118.632</ele>
        <time>2020-11-03T17:47:31Z</time>
      </trkpt>
      <trkpt lat="41.931619" lon="2.786101">
        <ele>118.680</ele>
        <time>2020-11-03T17:47:32Z</time>
      </trkpt>
      <trkpt lat="41.931566" lon="2.786072">
        <ele>118.852</ele>
        <time>2020-11-03T17:47:33Z</time>
      </trkpt>
      <trkpt lat="41.931514" lon="2.786042">
        <ele>118.848</ele>
        <time>2020-11-03T17:47:34Z</time>
      </trkpt>
      <trkpt lat="41.931462" lon="2.786012">
        <ele>118.873</ele>
        <time>2020-11-03T17:47:35Z</time>
      </trkpt>
      <trkpt lat="41.931410" lon="2.785984">
        <ele>118.878</ele>
        <time>2020-11-03T17:47:36Z</time>
      </trkpt>
      <trkpt lat="41.931359" lon="2.785955">
        <ele>118.821</ele>
        <time>2020-11-03T17:47:37Z</time>
      </trkpt>
      <trkpt lat="41.931311" lon="2.785924">
        <ele>119.056</ele>
        <time>2020-11-03T17:47:38Z</time>
      </trkpt>
      <trkpt lat="41.931265" lon="2.785892">
        <ele>119.059</ele>
        <time>2020-11-03T17:47:39Z</time>
      </trkpt>
      <trkpt lat="41.931216" lon="2.785860">
        <ele>119.214</ele>
        <time>2020-11-03T17:47:40Z</time>
      </trkpt>
      <trkpt lat="41.931167" lon="2.785828">
        <ele>119.208</ele>
        <time>2020-11-03T17:47:41Z</time>
      </trkpt>
      <trkpt lat="41.931118" lon="2.785799">
        <ele>119.221</ele>
        <time>2020-11-03T17:47:42Z</time>
      </trkpt>
      <trkpt lat="41.931070" lon="2.785770">
        <ele>119.265</ele>
        <time>2020-11-03T17:47:43Z</time>
      </trkpt>
      <trkpt lat="41.931022" lon="2.785738">
        <ele>119.293</ele>
        <time>2020-11-03T17:47:44Z</time>
      </trkpt>
      <trkpt lat="41.930973" lon="2.785707">
        <ele>119.295</ele>
        <time>2020-11-03T17:47:45Z</time>
      </trkpt>
      <trkpt lat="41.930925" lon="2.785676">
        <ele>119.291</ele>
        <time>2020-11-03T17:47:46Z</time>
      </trkpt>
      <trkpt lat="41.930876" lon="2.785647">
        <ele>119.046</ele>
        <time>2020-11-03T17:47:47Z</time>
      </trkpt>
      <trkpt lat="41.930827" lon="2.785617">
        <ele>119.051</ele>
        <time>2020-11-03T17:47:48Z</time>
      </trkpt>
      <trkpt lat="41.930779" lon="2.785588">
        <ele>119.034</ele>
        <time>2020-11-03T17:47:49Z</time>
      </trkpt>
      <trkpt lat="41.930730" lon="2.785562">
        <ele>119.251</ele>
        <time>2020-11-03T17:47:50Z</time>
      </trkpt>
      <trkpt lat="41.930680" lon="2.785533">
        <ele>119.201</ele>
        <time>2020-11-03T17:47:51Z</time>
      </trkpt>
      <trkpt lat="41.930631" lon="2.785501">
        <ele>119.211</ele>
        <time>2020-11-03T17:47:52Z</time>
      </trkpt>
      <trkpt lat="41.930581" lon="2.785467">
        <ele>119.408</ele>
        <time>2020-11-03T17:47:53Z</time>
      </trkpt>
      <trkpt lat="41.930531" lon="2.785439">
        <ele>119.481</ele>
        <time>2020-11-03T17:47:54Z</time>
      </trkpt>
      <trkpt lat="41.930480" lon="2.785410">
        <ele>119.655</ele>
        <time>2020-11-03T17:47:55Z</time>
      </trkpt>
      <trkpt lat="41.930429" lon="2.785380">
        <ele>119.813</ele>
        <time>2020-11-03T17:47:56Z</time>
      </trkpt>
      <trkpt lat="41.930378" lon="2.785350">
        <ele>119.835</ele>
        <time>2020-11-03T17:47:57Z</time>
      </trkpt>
      <trkpt lat="41.930326" lon="2.785321">
        <ele>119.861</ele>
        <time>2020-11-03T17:47:58Z</time>
      </trkpt>
      <trkpt lat="41.930273" lon="2.785293">
        <ele>119.816</ele>
        <time>2020-11-03T17:47:59Z</time>
      </trkpt>
      <trkpt lat="41.930218" lon="2.785267">
        <ele>119.821</ele>
        <time>2020-11-03T17:48:00Z</time>
      </trkpt>
      <trkpt lat="41.930162" lon="2.785243">
        <ele>119.824</ele>
        <time>2020-11-03T17:48:01Z</time>
      </trkpt>
      <trkpt lat="41.930106" lon="2.785217">
        <ele>119.862</ele>
        <time>2020-11-03T17:48:02Z</time>
      </trkpt>
      <trkpt lat="41.930051" lon="2.785191">
        <ele>119.883</ele>
        <time>2020-11-03T17:48:03Z</time>
      </trkpt>
      <trkpt lat="41.929995" lon="2.785164">
        <ele>119.811</ele>
        <time>2020-11-03T17:48:04Z</time>
      </trkpt>
      <trkpt lat="41.929939" lon="2.785143">
        <ele>119.808</ele>
        <time>2020-11-03T17:48:05Z</time>
      </trkpt>
      <trkpt lat="41.929881" lon="2.785131">
        <ele>119.822</ele>
        <time>2020-11-03T17:48:06Z</time>
      </trkpt>
      <trkpt lat="41.929824" lon="2.785125">
        <ele>119.876</ele>
        <time>2020-11-03T17:48:07Z</time>
      </trkpt>
      <trkpt lat="41.929767" lon="2.785120">
        <ele>119.874</ele>
        <time>2020-11-03T17:48:08Z</time>
      </trkpt>
      <trkpt lat="41.929712" lon="2.785117">
        <ele>119.836</ele>
        <time>2020-11-03T17:48:09Z</time>
      </trkpt>
      <trkpt lat="41.929658" lon="2.785112">
        <ele>119.882</ele>
        <time>2020-11-03T17:48:10Z</time>
      </trkpt>
      <trkpt lat="41.929604" lon="2.785108">
        <ele>120.097</ele>
        <time>2020-11-03T17:48:11Z</time>
      </trkpt>
      <trkpt lat="41.929556" lon="2.785104">
        <ele>120.062</ele>
        <time>2020-11-03T17:48:12Z</time>
      </trkpt>
      <trkpt lat="41.929511" lon="2.785096">
        <ele>120.085</ele>
        <time>2020-11-03T17:48:13Z</time>
      </trkpt>
      <trkpt lat="41.929466" lon="2.785080">
        <ele>120.055</ele>
        <time>2020-11-03T17:48:14Z</time>
      </trkpt>
      <trkpt lat="41.929421" lon="2.785064">
        <ele>120.007</ele>
        <time>2020-11-03T17:48:15Z</time>
      </trkpt>
      <trkpt lat="41.929376" lon="2.785044">
        <ele>120.017</ele>
        <time>2020-11-03T17:48:16Z</time>
      </trkpt>
      <trkpt lat="41.929332" lon="2.785023">
        <ele>120.008</ele>
        <time>2020-11-03T17:48:17Z</time>
      </trkpt>
      <trkpt lat="41.929288" lon="2.785000">
        <ele>120.051</ele>
        <time>2020-11-03T17:48:18Z</time>
      </trkpt>
      <trkpt lat="41.929244" lon="2.784978">
        <ele>120.065</ele>
        <time>2020-11-03T17:48:19Z</time>
      </trkpt>
      <trkpt lat="41.929198" lon="2.784949">
        <ele>120.273</ele>
        <time>2020-11-03T17:48:20Z</time>
      </trkpt>
      <trkpt lat="41.929152" lon="2.784914">
        <ele>120.295</ele>
        <time>2020-11-03T17:48:21Z</time>
      </trkpt>
      <trkpt lat="41.929111" lon="2.784883">
        <ele>120.221</ele>
        <time>2020-11-03T17:48:22Z</time>
      </trkpt>
      <trkpt lat="41.929074" lon="2.784853">
        <ele>120.426</ele>
        <time>2020-11-03T17:48:23Z</time>
      </trkpt>
      <trkpt lat="41.929035" lon="2.784816">
        <ele>120.451</ele>
        <time>2020-11-03T17:48:24Z</time>
      </trkpt>
      <trkpt lat="41.928991" lon="2.784782">
        <ele>120.434</ele>
        <time>2020-11-03T17:48:25Z</time>
      </trkpt>
      <trkpt lat="41.928945" lon="2.784750">
        <ele>120.474</ele>
        <time>2020-11-03T17:48:26Z</time>
      </trkpt>
      <trkpt lat="41.928904" lon="2.784719">
        <ele>120.456</ele>
        <time>2020-11-03T17:48:27Z</time>
      </trkpt>
      <trkpt lat="41.928868" lon="2.784689">
        <ele>120.621</ele>
        <time>2020-11-03T17:48:28Z</time>
      </trkpt>
      <trkpt lat="41.928833" lon="2.784658">
        <ele>120.608</ele>
        <time>2020-11-03T17:48:29Z</time>
      </trkpt>
      <trkpt lat="41.928801" lon="2.784620">
        <ele>120.673</ele>
        <time>2020-11-03T17:48:30Z</time>
      </trkpt>
      <trkpt lat="41.928767" lon="2.784578">
        <ele>120.697</ele>
        <time>2020-11-03T17:48:31Z</time>
      </trkpt>
      <trkpt lat="41.928733" lon="2.784541">
        <ele>120.875</ele>
        <time>2020-11-03T17:48:32Z</time>
      </trkpt>
      <trkpt lat="41.928720" lon="2.784510">
        <ele>120.817</ele>
        <time>2020-11-03T17:48:33Z</time>
      </trkpt>
      <trkpt lat="41.928699" lon="2.784471">
        <ele>120.823</ele>
        <time>2020-11-03T17:48:34Z</time>
      </trkpt>
      <trkpt lat="41.928671" lon="2.784431">
        <ele>120.878</ele>
        <time>2020-11-03T17:48:35Z</time>
      </trkpt>
      <trkpt lat="41.928642" lon="2.784399">
        <ele>120.893</ele>
        <time>2020-11-03T17:48:36Z</time>
      </trkpt>
      <trkpt lat="41.928610" lon="2.784354">
        <ele>120.826</ele>
        <time>2020-11-03T17:48:37Z</time>
      </trkpt>
      <trkpt lat="41.928573" lon="2.784300">
        <ele>120.895</ele>
        <time>2020-11-03T17:48:38Z</time>
      </trkpt>
      <trkpt lat="41.928535" lon="2.784239">
        <ele>120.849</ele>
        <time>2020-11-03T17:48:39Z</time>
      </trkpt>
      <trkpt lat="41.928496" lon="2.784178">
        <ele>120.823</ele>
        <time>2020-11-03T17:48:40Z</time>
      </trkpt>
      <trkpt lat="41.928452" lon="2.784119">
        <ele>120.808</ele>
        <time>2020-11-03T17:48:41Z</time>
      </trkpt>
      <trkpt lat="41.928404" lon="2.784062">
        <ele>120.835</ele>
        <time>2020-11-03T17:48:42Z</time>
      </trkpt>
      <trkpt lat="41.928355" lon="2.784006">
        <ele>120.819</ele>
        <time>2020-11-03T17:48:43Z</time>
      </trkpt>
      <trkpt lat="41.928304" lon="2.783950">
        <ele>120.837</ele>
        <time>2020-11-03T17:48:44Z</time>
      </trkpt>
      <trkpt lat="41.928252" lon="2.783894">
        <ele>121.089</ele>
        <time>2020-11-03T17:48:45Z</time>
      </trkpt>
      <trkpt lat="41.928200" lon="2.783839">
        <ele>121.025</ele>
        <time>2020-11-03T17:48:46Z</time>
      </trkpt>
      <trkpt lat="41.928152" lon="2.783778">
        <ele>121.050</ele>
        <time>2020-11-03T17:48:47Z</time>
      </trkpt>
      <trkpt lat="41.928101" lon="2.783710">
        <ele>121.085</ele>
        <time>2020-11-03T17:48:48Z</time>
      </trkpt>
      <trkpt lat="41.928049" lon="2.783647">
        <ele>121.268</ele>
        <time>2020-11-03T17:48:49Z</time>
      </trkpt>
      <trkpt lat="41.927994" lon="2.783588">
        <ele>121.212</ele>
        <time>2020-11-03T17:48:50Z</time>
      </trkpt>
      <trkpt lat="41.927937" lon="2.783531">
        <ele>121.432</ele>
        <time>2020-11-03T17:48:51Z</time>
      </trkpt>
      <trkpt lat="41.927891" lon="2.783481">
        <ele>121.405</ele>
        <time>2020-11-03T17:48:52Z</time>
      </trkpt>
      <trkpt lat="41.927836" lon="2.783431">
        <ele>121.408</ele>
        <time>2020-11-03T17:48:53Z</time>
      </trkpt>
      <trkpt lat="41.927775" lon="2.783375">
        <ele>121.457</ele>
        <time>2020-11-03T17:48:54Z</time>
      </trkpt>
      <trkpt lat="41.927714" lon="2.783321">
        <ele>121.651</ele>
        <time>2020-11-03T17:48:55Z</time>
      </trkpt>
      <trkpt lat="41.927656" lon="2.783274">
        <ele>121.649</ele>
        <time>2020-11-03T17:48:56Z</time>
      </trkpt>
      <trkpt lat="41.927593" lon="2.783225">
        <ele>121.681</ele>
        <time>2020-11-03T17:48:57Z</time>
      </trkpt>
      <trkpt lat="41.927531" lon="2.783174">
        <ele>121.637</ele>
        <time>2020-11-03T17:48:58Z</time>
      </trkpt>
      <trkpt lat="41.927476" lon="2.783116">
        <ele>121.622</ele>
        <time>2020-11-03T17:48:59Z</time>
      </trkpt>
      <trkpt lat="41.927423" lon="2.783057">
        <ele>121.637</ele>
        <time>2020-11-03T17:49:00Z</time>
      </trkpt>
      <trkpt lat="41.927371" lon="2.783000">
        <ele>121.870</ele>
        <time>2020-11-03T17:49:01Z</time>
      </trkpt>
      <trkpt lat="41.927319" lon="2.782945">
        <ele>121.899</ele>
        <time>2020-11-03T17:49:02Z</time>
      </trkpt>
      <trkpt lat="41.927268" lon="2.782894">
        <ele>122.207</ele>
        <time>2020-11-03T17:49:03Z</time>
      </trkpt>
      <trkpt lat="41.927217" lon="2.782849">
        <ele>122.627</ele>
        <time>2020-11-03T17:49:04Z</time>
      </trkpt>
      <trkpt lat="41.927163" lon="2.782803">
        <ele>122.608</ele>
        <time>2020-11-03T17:49:05Z</time>
      </trkpt>
      <trkpt lat="41.927109" lon="2.782759">
        <ele>122.815</ele>
        <time>2020-11-03T17:49:06Z</time>
      </trkpt>
      <trkpt lat="41.927054" lon="2.782713">
        <ele>122.879</ele>
        <time>2020-11-03T17:49:07Z</time>
      </trkpt>
      <trkpt lat="41.926995" lon="2.782666">
        <ele>123.067</ele>
        <time>2020-11-03T17:49:08Z</time>
      </trkpt>
      <trkpt lat="41.926934" lon="2.782628">
        <ele>123.069</ele>
        <time>2020-11-03T17:49:09Z</time>
      </trkpt>
      <trkpt lat="41.926873" lon="2.782603">
        <ele>123.015</ele>
        <time>2020-11-03T17:49:10Z</time>
      </trkpt>
      <trkpt lat="41.926813" lon="2.782594">
        <ele>123.070</ele>
        <time>2020-11-03T17:49:11Z</time>
      </trkpt>
      <trkpt lat="41.926756" lon="2.782601">
        <ele>123.055</ele>
        <time>2020-11-03T17:49:12Z</time>
      </trkpt>
      <trkpt lat="41.926698" lon="2.782617">
        <ele>123.048</ele>
        <time>2020-11-03T17:49:13Z</time>
      </trkpt>
      <trkpt lat="41.926636" lon="2.782627">
        <ele>123.034</ele>
        <time>2020-11-03T17:49:14Z</time>
      </trkpt>
      <trkpt lat="41.926577" lon="2.782635">
        <ele>123.055</ele>
        <time>2020-11-03T17:49:15Z</time>
      </trkpt>
      <trkpt lat="41.926521" lon="2.782643">
        <ele>123.010</ele>
        <time>2020-11-03T17:49:16Z</time>
      </trkpt>
      <trkpt lat="41.926462" lon="2.782650">
        <ele>123.008</ele>
        <time>2020-11-03T17:49:17Z</time>
      </trkpt>
      <trkpt lat="41.926410" lon="2.782657">
        <ele>123.059</ele>
        <time>2020-11-03T17:49:18Z</time>
      </trkpt>
      <trkpt lat="41.926364" lon="2.782657">
        <ele>122.873</ele>
        <time>2020-11-03T17:49:19Z</time>
      </trkpt>
      <trkpt lat="41.926320" lon="2.782656">
        <ele>122.861</ele>
        <time>2020-11-03T17:49:20Z</time>
      </trkpt>
      <trkpt lat="41.926273" lon="2.782656">
        <ele>122.823</ele>
        <time>2020-11-03T17:49:21Z</time>
      </trkpt>
      <trkpt lat="41.926229" lon="2.782660">
        <ele>122.879</ele>
        <time>2020-11-03T17:49:22Z</time>
      </trkpt>
      <trkpt lat="41.926172" lon="2.782666">
        <ele>122.624</ele>
        <time>2020-11-03T17:49:23Z</time>
      </trkpt>
      <trkpt lat="41.926122" lon="2.782667">
        <ele>122.699</ele>
        <time>2020-11-03T17:49:24Z</time>
      </trkpt>
      <trkpt lat="41.926068" lon="2.782675">
        <ele>122.662</ele>
        <time>2020-11-03T17:49:25Z</time>
      </trkpt>
      <trkpt lat="41.926013" lon="2.782682">
        <ele>122.697</ele>
        <time>2020-11-03T17:49:26Z</time>
      </trkpt>
      <trkpt lat="41.925961" lon="2.782685">
        <ele>122.623</ele>
        <time>2020-11-03T17:49:27Z</time>
      </trkpt>
      <trkpt lat="41.925911" lon="2.782682">
        <ele>122.625</ele>
        <time>2020-11-03T17:49:28Z</time>
      </trkpt>
      <trkpt lat="41.925866" lon="2.782682">
        <ele>122.808</ele>
        <time>2020-11-03T17:49:29Z</time>
      </trkpt>
      <trkpt lat="41.925827" lon="2.782691">
        <ele>122.825</ele>
        <time>2020-11-03T17:49:30Z</time>
      </trkpt>
      <trkpt lat="41.925781" lon="2.782709">
        <ele>122.889</ele>
        <time>2020-11-03T17:49:31Z</time>
      </trkpt>
      <trkpt lat="41.925732" lon="2.782737">
        <ele>122.827</ele>
        <time>2020-11-03T17:49:32Z</time>
      </trkpt>
      <trkpt lat="41.925674" lon="2.782764">
        <ele>122.879</ele>
        <time>2020-11-03T17:49:33Z</time>
      </trkpt>
      <trkpt lat="41.925612" lon="2.782789">
        <ele>123.085</ele>
        <time>2020-11-03T17:49:34Z</time>
      </trkpt>
      <trkpt lat="41.925554" lon="2.782818">
        <ele>123.060</ele>
        <time>2020-11-03T17:49:35Z</time>
      </trkpt>
      <trkpt lat="41.925494" lon="2.782849">
        <ele>123.065</ele>
        <time>2020-11-03T17:49:36Z</time>
      </trkpt>
      <trkpt lat="41.925437" lon="2.782889">
        <ele>123.048</ele>
        <time>2020-11-03T17:49:37Z</time>
      </trkpt>
      <trkpt lat="41.925382" lon="2.782937">
        <ele>123.018</ele>
        <time>2020-11-03T17:49:38Z</time>
      </trkpt>
      <trkpt lat="41.925328" lon="2.782988">
        <ele>123.098</ele>
        <time>2020-11-03T17:49:39Z</time>
      </trkpt>
      <trkpt lat="41.925278" lon="2.783039">
        <ele>123.017</ele>
        <time>2020-11-03T17:49:40Z</time>
      </trkpt>
      <trkpt lat="41.925229" lon="2.783087">
        <ele>122.808</ele>
        <time>2020-11-03T17:49:41Z</time>
      </trkpt>
      <trkpt lat="41.925178" lon="2.783124">
        <ele>122.877</ele>
        <time>2020-11-03T17:49:42Z</time>
      </trkpt>
      <trkpt lat="41.925121" lon="2.783141">
        <ele>122.821</ele>
        <time>2020-11-03T17:49:43Z</time>
      </trkpt>
      <trkpt lat="41.925063" lon="2.783143">
        <ele>122.859</ele>
        <time>2020-11-03T17:49:44Z</time>
      </trkpt>
      <trkpt lat="41.925008" lon="2.783128">
        <ele>123.091</ele>
        <time>2020-11-03T17:49:45Z</time>
      </trkpt>
      <trkpt lat="41.924957" lon="2.783097">
        <ele>123.247</ele>
        <time>2020-11-03T17:49:46Z</time>
      </trkpt>
      <trkpt lat="41.924909" lon="2.783056">
        <ele>123.472</ele>
        <time>2020-11-03T17:49:47Z</time>
      </trkpt>
      <trkpt lat="41.924865" lon="2.783009">
        <ele>123.617</ele>
        <time>2020-11-03T17:49:48Z</time>
      </trkpt>
      <trkpt lat="41.924823" lon="2.782957">
        <ele>123.650</ele>
        <time>2020-11-03T17:49:49Z</time>
      </trkpt>
      <trkpt lat="41.924784" lon="2.782903">
        <ele>123.643</ele>
        <time>2020-11-03T17:49:50Z</time>
      </trkpt>
      <trkpt lat="41.924745" lon="2.782850">
        <ele>123.664</ele>
        <time>2020-11-03T17:49:51Z</time>
      </trkpt>
      <trkpt lat="41.924707" lon="2.782799">
        <ele>123.810</ele>
        <time>2020-11-03T17:49:52Z</time>
      </trkpt>
      <trkpt lat="41.924672" lon="2.782749">
        <ele>124.008</ele>
        <time>2020-11-03T17:49:53Z</time>
      </trkpt>
      <trkpt lat="41.924641" lon="2.782697">
        <ele>124.080</ele>
        <time>2020-11-03T17:49:54Z</time>
      </trkpt>
      <trkpt lat="41.924611" lon="2.782643">
        <ele>124.284</ele>
        <time>2020-11-03T17:49:55Z</time>
      </trkpt>
      <trkpt lat="41.924578" lon="2.782589">
        <ele>124.232</ele>
        <time>2020-11-03T17:49:56Z</time>
      </trkpt>
      <trkpt lat="41.924546" lon="2.782539">
        <ele>124.254</ele>
        <time>2020-11-03T17:49:57Z</time>
      </trkpt>
      <trkpt lat="41.924515" lon="2.782485">
        <ele>124.270</ele>
        <time>2020-11-03T17:49:58Z</time>
      </trkpt>
      <trkpt lat="41.924485" lon="2.782433">
        <ele>124.455</ele>
        <time>2020-11-03T17:49:59Z</time>
      </trkpt>
      <trkpt lat="41.924457" lon="2.782389">
        <ele>124.470</ele>
        <time>2020-11-03T17:50:00Z</time>
      </trkpt>
      <trkpt lat="41.924431" lon="2.782348">
        <ele>124.493</ele>
        <time>2020-11-03T17:50:01Z</time>
      </trkpt>
      <trkpt lat="41.924400" lon="2.782303">
        <ele>124.446</ele>
        <time>2020-11-03T17:50:02Z</time>
      </trkpt>
      <trkpt lat="41.924363" lon="2.782259">
        <ele>124.688</ele>
        <time>2020-11-03T17:50:03Z</time>
      </trkpt>
      <trkpt lat="41.924324" lon="2.782213">
        <ele>124.616</ele>
        <time>2020-11-03T17:50:04Z</time>
      </trkpt>
      <trkpt lat="41.924291" lon="2.782167">
        <ele>125.008</ele>
        <time>2020-11-03T17:50:05Z</time>
      </trkpt>
      <trkpt lat="41.924256" lon="2.782118">
        <ele>125.220</ele>
        <time>2020-11-03T17:50:06Z</time>
      </trkpt>
      <trkpt lat="41.924221" lon="2.782074">
        <ele>125.474</ele>
        <time>2020-11-03T17:50:07Z</time>
      </trkpt>
      <trkpt lat="41.924186" lon="2.782034">
        <ele>125.642</ele>
        <time>2020-11-03T17:50:08Z</time>
      </trkpt>
      <trkpt lat="41.924152" lon="2.781996">
        <ele>125.824</ele>
        <time>2020-11-03T17:50:09Z</time>
      </trkpt>
      <trkpt lat="41.924122" lon="2.781958">
        <ele>126.220</ele>
        <time>2020-11-03T17:50:10Z</time>
      </trkpt>
      <trkpt lat="41.924091" lon="2.781912">
        <ele>126.615</ele>
        <time>2020-11-03T17:50:11Z</time>
      </trkpt>
      <trkpt lat="41.924064" lon="2.781861">
        <ele>127.290</ele>
        <time>2020-11-03T17:50:12Z</time>
      </trkpt>
      <trkpt lat="41.924037" lon="2.781813">
        <ele>127.843</ele>
        <time>2020-11-03T17:50:13Z</time>
      </trkpt>
      <trkpt lat="41.924013" lon="2.781762">
        <ele>128.284</ele>
        <time>2020-11-03T17:50:14Z</time>
      </trkpt>
      <trkpt lat="41.923988" lon="2.781713">
        <ele>128.607</ele>
        <time>2020-11-03T17:50:15Z</time>
      </trkpt>
      <trkpt lat="41.923965" lon="2.781664">
        <ele>128.817</ele>
        <time>2020-11-03T17:50:16Z</time>
      </trkpt>
      <trkpt lat="41.923945" lon="2.781617">
        <ele>128.808</ele>
        <time>2020-11-03T17:50:17Z</time>
      </trkpt>
      <trkpt lat="41.923914" lon="2.781556">
        <ele>129.084</ele>
        <time>2020-11-03T17:50:18Z</time>
      </trkpt>
      <trkpt lat="41.923885" lon="2.781493">
        <ele>129.028</ele>
        <time>2020-11-03T17:50:19Z</time>
      </trkpt>
      <trkpt lat="41.923853" lon="2.781421">
        <ele>129.076</ele>
        <time>2020-11-03T17:50:20Z</time>
      </trkpt>
      <trkpt lat="41.923819" lon="2.781348">
        <ele>129.038</ele>
        <time>2020-11-03T17:50:21Z</time>
      </trkpt>
      <trkpt lat="41.923787" lon="2.781283">
        <ele>129.084</ele>
        <time>2020-11-03T17:50:22Z</time>
      </trkpt>
      <trkpt lat="41.923752" lon="2.781226">
        <ele>129.039</ele>
        <time>2020-11-03T17:50:23Z</time>
      </trkpt>
      <trkpt lat="41.923711" lon="2.781169">
        <ele>128.814</ele>
        <time>2020-11-03T17:50:24Z</time>
      </trkpt>
      <trkpt lat="41.923668" lon="2.781112">
        <ele>128.837</ele>
        <time>2020-11-03T17:50:25Z</time>
      </trkpt>
      <trkpt lat="41.923623" lon="2.781056">
        <ele>128.883</ele>
        <time>2020-11-03T17:50:26Z</time>
      </trkpt>
      <trkpt lat="41.923586" lon="2.781004">
        <ele>128.825</ele>
        <time>2020-11-03T17:50:27Z</time>
      </trkpt>
      <trkpt lat="41.923550" lon="2.780952">
        <ele>128.817</ele>
        <time>2020-11-03T17:50:28Z</time>
      </trkpt>
      <trkpt lat="41.923515" lon="2.780901">
        <ele>129.008</ele>
        <time>2020-11-03T17:50:29Z</time>
      </trkpt>
      <trkpt lat="41.923481" lon="2.780847">
        <ele>129.074</ele>
        <time>2020-11-03T17:50:30Z</time>
      </trkpt>
      <trkpt lat="41.923447" lon="2.780790">
        <ele>129.268</ele>
        <time>2020-11-03T17:50:31Z</time>
      </trkpt>
      <trkpt lat="41.923418" lon="2.780726">
        <ele>129.286</ele>
        <time>2020-11-03T17:50:32Z</time>
      </trkpt>
      <trkpt lat="41.923386" lon="2.780653">
        <ele>129.298</ele>
        <time>2020-11-03T17:50:33Z</time>
      </trkpt>
      <trkpt lat="41.923347" lon="2.780574">
        <ele>129.464</ele>
        <time>2020-11-03T17:50:34Z</time>
      </trkpt>
      <trkpt lat="41.923302" lon="2.780499">
        <ele>129.479</ele>
        <time>2020-11-03T17:50:35Z</time>
      </trkpt>
      <trkpt lat="41.923257" lon="2.780423">
        <ele>129.214</ele>
        <time>2020-11-03T17:50:36Z</time>
      </trkpt>
      <trkpt lat="41.923210" lon="2.780346">
        <ele>129.037</ele>
        <time>2020-11-03T17:50:37Z</time>
      </trkpt>
      <trkpt lat="41.923162" lon="2.780272">
        <ele>128.822</ele>
        <time>2020-11-03T17:50:38Z</time>
      </trkpt>
      <trkpt lat="41.923118" lon="2.780201">
        <ele>128.862</ele>
        <time>2020-11-03T17:50:39Z</time>
      </trkpt>
      <trkpt lat="41.923073" lon="2.780133">
        <ele>128.608</ele>
        <time>2020-11-03T17:50:40Z</time>
      </trkpt>
      <trkpt lat="41.923029" lon="2.780065">
        <ele>128.608</ele>
        <time>2020-11-03T17:50:41Z</time>
      </trkpt>
      <trkpt lat="41.922986" lon="2.779997">
        <ele>128.678</ele>
        <time>2020-11-03T17:50:42Z</time>
      </trkpt>
      <trkpt lat="41.922944" lon="2.779931">
        <ele>128.642</ele>
        <time>2020-11-03T17:50:43Z</time>
      </trkpt>
      <trkpt lat="41.922902" lon="2.779865">
        <ele>128.630</ele>
        <time>2020-11-03T17:50:44Z</time>
      </trkpt>
      <trkpt lat="41.922863" lon="2.779800">
        <ele>128.872</ele>
        <time>2020-11-03T17:50:45Z</time>
      </trkpt>
      <trkpt lat="41.922827" lon="2.779731">
        <ele>129.028</ele>
        <time>2020-11-03T17:50:46Z</time>
      </trkpt>
      <trkpt lat="41.922791" lon="2.779662">
        <ele>129.093</ele>
        <time>2020-11-03T17:50:47Z</time>
      </trkpt>
      <trkpt lat="41.922760" lon="2.779590">
        <ele>129.048</ele>
        <time>2020-11-03T17:50:48Z</time>
      </trkpt>
      <trkpt lat="41.922728" lon="2.779522">
        <ele>129.021</ele>
        <time>2020-11-03T17:50:49Z</time>
      </trkpt>
      <trkpt lat="41.922698" lon="2.779451">
        <ele>129.258</ele>
        <time>2020-11-03T17:50:50Z</time>
      </trkpt>
      <trkpt lat="41.922672" lon="2.779379">
        <ele>129.252</ele>
        <time>2020-11-03T17:50:51Z</time>
      </trkpt>
      <trkpt lat="41.922646" lon="2.779302">
        <ele>129.017</ele>
        <time>2020-11-03T17:50:52Z</time>
      </trkpt>
      <trkpt lat="41.922616" lon="2.779224">
        <ele>129.008</ele>
        <time>2020-11-03T17:50:53Z</time>
      </trkpt>
      <trkpt lat="41.922583" lon="2.779146">
        <ele>129.041</ele>
        <time>2020-11-03T17:50:54Z</time>
      </trkpt>
      <trkpt lat="41.922547" lon="2.779075">
        <ele>129.055</ele>
        <time>2020-11-03T17:50:55Z</time>
      </trkpt>
      <trkpt lat="41.922509" lon="2.779008">
        <ele>129.253</ele>
        <time>2020-11-03T17:50:56Z</time>
      </trkpt>
      <trkpt lat="41.922468" lon="2.778942">
        <ele>129.215</ele>
        <time>2020-11-03T17:50:57Z</time>
      </trkpt>
      <trkpt lat="41.922431" lon="2.778879">
        <ele>129.411</ele>
        <time>2020-11-03T17:50:58Z</time>
      </trkpt>
      <trkpt lat="41.922387" lon="2.778816">
        <ele>129.426</ele>
        <time>2020-11-03T17:50:59Z</time>
      </trkpt>
      <trkpt lat="41.922337" lon="2.778750">
        <ele>129.661</ele>
        <time>2020-11-03T17:51:00Z</time>
      </trkpt>
      <trkpt lat="41.922287" lon="2.778685">
        <ele>129.684</ele>
        <time>2020-11-03T17:51:01Z</time>
      </trkpt>
      <trkpt lat="41.922237" lon="2.778625">
        <ele>129.673</ele>
        <time>2020-11-03T17:51:02Z</time>
      </trkpt>
      <trkpt lat="41.922184" lon="2.778566">
        <ele>129.685</ele>
        <time>2020-11-03T17:51:03Z</time>
      </trkpt>
      <trkpt lat="41.922131" lon="2.778517">
        <ele>129.613</ele>
        <time>2020-11-03T17:51:04Z</time>
      </trkpt>
      <trkpt lat="41.922082" lon="2.778481">
        <ele>129.808</ele>
        <time>2020-11-03T17:51:05Z</time>
      </trkpt>
      <trkpt lat="41.922031" lon="2.778444">
        <ele>130.023</ele>
        <time>2020-11-03T17:51:06Z</time>
      </trkpt>
      <trkpt lat="41.921980" lon="2.778410">
        <ele>130.037</ele>
        <time>2020-11-03T17:51:07Z</time>
      </trkpt>
      <trkpt lat="41.921934" lon="2.778371">
        <ele>130.095</ele>
        <time>2020-11-03T17:51:08Z</time>
      </trkpt>
      <trkpt lat="41.921890" lon="2.778328">
        <ele>130.077</ele>
        <time>2020-11-03T17:51:09Z</time>
      </trkpt>
      <trkpt lat="41.921840" lon="2.778284">
        <ele>129.823</ele>
        <time>2020-11-03T17:51:10Z</time>
      </trkpt>
      <trkpt lat="41.921787" lon="2.778238">
        <ele>129.878</ele>
        <time>2020-11-03T17:51:11Z</time>
      </trkpt>
      <trkpt lat="41.921737" lon="2.778189">
        <ele>129.883</ele>
        <time>2020-11-03T17:51:12Z</time>
      </trkpt>
      <trkpt lat="41.921690" lon="2.778140">
        <ele>129.836</ele>
        <time>2020-11-03T17:51:13Z</time>
      </trkpt>
      <trkpt lat="41.921649" lon="2.778089">
        <ele>129.814</ele>
        <time>2020-11-03T17:51:14Z</time>
      </trkpt>
      <trkpt lat="41.921605" lon="2.778032">
        <ele>130.054</ele>
        <time>2020-11-03T17:51:15Z</time>
      </trkpt>
      <trkpt lat="41.921566" lon="2.777978">
        <ele>130.209</ele>
        <time>2020-11-03T17:51:16Z</time>
      </trkpt>
      <trkpt lat="41.921526" lon="2.777922">
        <ele>130.208</ele>
        <time>2020-11-03T17:51:17Z</time>
      </trkpt>
      <trkpt lat="41.921489" lon="2.777872">
        <ele>130.487</ele>
        <time>2020-11-03T17:51:18Z</time>
      </trkpt>
      <trkpt lat="41.921460" lon="2.777823">
        <ele>130.851</ele>
        <time>2020-11-03T17:51:19Z</time>
      </trkpt>
      <trkpt lat="41.921430" lon="2.777782">
        <ele>131.079</ele>
        <time>2020-11-03T17:51:20Z</time>
      </trkpt>
      <trkpt lat="41.921398" lon="2.777743">
        <ele>131.451</ele>
        <time>2020-11-03T17:51:21Z</time>
      </trkpt>
      <trkpt lat="41.921362" lon="2.777704">
        <ele>131.877</ele>
        <time>2020-11-03T17:51:22Z</time>
      </trkpt>
      <trkpt lat="41.921325" lon="2.777663">
        <ele>132.292</ele>
        <time>2020-11-03T17:51:23Z</time>
      </trkpt>
      <trkpt lat="41.921292" lon="2.777621">
        <ele>132.467</ele>
        <time>2020-11-03T17:51:24Z</time>
      </trkpt>
      <trkpt lat="41.921260" lon="2.777578">
        <ele>132.610</ele>
        <time>2020-11-03T17:51:25Z</time>
      </trkpt>
      <trkpt lat="41.921231" lon="2.777531">
        <ele>132.859</ele>
        <time>2020-11-03T17:51:26Z</time>
      </trkpt>
      <trkpt lat="41.921208" lon="2.777476">
        <ele>132.803</ele>
        <time>2020-11-03T17:51:27Z</time>
      </trkpt>
      <trkpt lat="41.921190" lon="2.777417">
        <ele>133.223</ele>
        <time>2020-11-03T17:51:28Z</time>
      </trkpt>
      <trkpt lat="41.921176" lon="2.777356">
        <ele>133.608</ele>
        <time>2020-11-03T17:51:29Z</time>
      </trkpt>
      <trkpt lat="41.921167" lon="2.777292">
        <ele>134.051</ele>
        <time>2020-11-03T17:51:30Z</time>
      </trkpt>
      <trkpt lat="41.921165" lon="2.777226">
        <ele>134.445</ele>
        <time>2020-11-03T17:51:31Z</time>
      </trkpt>
      <trkpt lat="41.921170" lon="2.777167">
        <ele>134.653</ele>
        <time>2020-11-03T17:51:32Z</time>
      </trkpt>
      <trkpt lat="41.921183" lon="2.777111">
        <ele>134.845</ele>
        <time>2020-11-03T17:51:33Z</time>
      </trkpt>
      <trkpt lat="41.921200" lon="2.777056">
        <ele>135.031</ele>
        <time>2020-11-03T17:51:34Z</time>
      </trkpt>
      <trkpt lat="41.921220" lon="2.777003">
        <ele>135.216</ele>
        <time>2020-11-03T17:51:35Z</time>
      </trkpt>
      <trkpt lat="41.921238" lon="2.776953">
        <ele>135.471</ele>
        <time>2020-11-03T17:51:36Z</time>
      </trkpt>
      <trkpt lat="41.921257" lon="2.776906">
        <ele>135.614</ele>
        <time>2020-11-03T17:51:37Z</time>
      </trkpt>
      <trkpt lat="41.921274" lon="2.776856">
        <ele>136.027</ele>
        <time>2020-11-03T17:51:38Z</time>
      </trkpt>
      <trkpt lat="41.921289" lon="2.776809">
        <ele>136.468</ele>
        <time>2020-11-03T17:51:39Z</time>
      </trkpt>
      <trkpt lat="41.921304" lon="2.776760">
        <ele>136.614</ele>
        <time>2020-11-03T17:51:40Z</time>
      </trkpt>
      <trkpt lat="41.921322" lon="2.776707">
        <ele>136.808</ele>
        <time>2020-11-03T17:51:41Z</time>
      </trkpt>
      <trkpt lat="41.921342" lon="2.776656">
        <ele>137.018</ele>
        <time>2020-11-03T17:51:42Z</time>
      </trkpt>
      <trkpt lat="41.921363" lon="2.776605">
        <ele>137.242</ele>
        <time>2020-11-03T17:51:43Z</time>
      </trkpt>
      <trkpt lat="41.921385" lon="2.776552">
        <ele>137.430</ele>
        <time>2020-11-03T17:51:44Z</time>
      </trkpt>
      <trkpt lat="41.921407" lon="2.776498">
        <ele>137.452</ele>
        <time>2020-11-03T17:51:45Z</time>
      </trkpt>
      <trkpt lat="41.921427" lon="2.776441">
        <ele>137.688</ele>
        <time>2020-11-03T17:51:46Z</time>
      </trkpt>
      <trkpt lat="41.921447" lon="2.776384">
        <ele>137.633</ele>
        <time>2020-11-03T17:51:47Z</time>
      </trkpt>
      <trkpt lat="41.921469" lon="2.776327">
        <ele>137.828</ele>
        <time>2020-11-03T17:51:48Z</time>
      </trkpt>
      <trkpt lat="41.921490" lon="2.776272">
        <ele>138.081</ele>
        <time>2020-11-03T17:51:49Z</time>
      </trkpt>
      <trkpt lat="41.921505" lon="2.776221">
        <ele>138.055</ele>
        <time>2020-11-03T17:51:50Z</time>
      </trkpt>
      <trkpt lat="41.921506" lon="2.776173">
        <ele>138.007</ele>
        <time>2020-11-03T17:51:51Z</time>
      </trkpt>
      <trkpt lat="41.921497" lon="2.776124">
        <ele>138.017</ele>
        <time>2020-11-03T17:51:52Z</time>
      </trkpt>
      <trkpt lat="41.921474" lon="2.776078">
        <ele>138.008</ele>
        <time>2020-11-03T17:51:53Z</time>
      </trkpt>
      <trkpt lat="41.921435" lon="2.776038">
        <ele>137.821</ele>
        <time>2020-11-03T17:51:54Z</time>
      </trkpt>
      <trkpt lat="41.921390" lon="2.776005">
        <ele>137.685</ele>
        <time>2020-11-03T17:51:55Z</time>
      </trkpt>
      <trkpt lat="41.921342" lon="2.775970">
        <ele>137.413</ele>
        <time>2020-11-03T17:51:56Z</time>
      </trkpt>
      <trkpt lat="41.921294" lon="2.775934">
        <ele>137.485</ele>
        <time>2020-11-03T17:51:57Z</time>
      </trkpt>
      <trkpt lat="41.921246" lon="2.775898">
        <ele>137.261</ele>
        <time>2020-11-03T17:51:58Z</time>
      </trkpt>
      <trkpt lat="41.921201" lon="2.775863">
        <ele>137.096</ele>
        <time>2020-11-03T17:51:59Z</time>
      </trkpt>
      <trkpt lat="41.921156" lon="2.775829">
        <ele>137.091</ele>
        <time>2020-11-03T17:52:00Z</time>
      </trkpt>
      <trkpt lat="41.921112" lon="2.775795">
        <ele>137.044</ele>
        <time>2020-11-03T17:52:01Z</time>
      </trkpt>
      <trkpt lat="41.921071" lon="2.775760">
        <ele>137.098</ele>
        <time>2020-11-03T17:52:02Z</time>
      </trkpt>
      <trkpt lat="41.921030" lon="2.775726">
        <ele>137.215</ele>
        <time>2020-11-03T17:52:03Z</time>
      </trkpt>
      <trkpt lat="41.920988" lon="2.775693">
        <ele>137.226</ele>
        <time>2020-11-03T17:52:04Z</time>
      </trkpt>
      <trkpt lat="41.920944" lon="2.775659">
        <ele>137.408</ele>
        <time>2020-11-03T17:52:05Z</time>
      </trkpt>
      <trkpt lat="41.920899" lon="2.775625">
        <ele>137.655</ele>
        <time>2020-11-03T17:52:06Z</time>
      </trkpt>
      <trkpt lat="41.920852" lon="2.775591">
        <ele>137.859</ele>
        <time>2020-11-03T17:52:07Z</time>
      </trkpt>
      <trkpt lat="41.920803" lon="2.775555">
        <ele>137.827</ele>
        <time>2020-11-03T17:52:08Z</time>
      </trkpt>
      <trkpt lat="41.920752" lon="2.775520">
        <ele>137.829</ele>
        <time>2020-11-03T17:52:09Z</time>
      </trkpt>
      <trkpt lat="41.920697" lon="2.775487">
        <ele>137.815</ele>
        <time>2020-11-03T17:52:10Z</time>
      </trkpt>
      <trkpt lat="41.920640" lon="2.775452">
        <ele>137.690</ele>
        <time>2020-11-03T17:52:11Z</time>
      </trkpt>
      <trkpt lat="41.920580" lon="2.775419">
        <ele>137.645</ele>
        <time>2020-11-03T17:52:12Z</time>
      </trkpt>
      <trkpt lat="41.920516" lon="2.775388">
        <ele>137.478</ele>
        <time>2020-11-03T17:52:13Z</time>
      </trkpt>
      <trkpt lat="41.920449" lon="2.775359">
        <ele>137.226</ele>
        <time>2020-11-03T17:52:14Z</time>
      </trkpt>
      <trkpt lat="41.920379" lon="2.775328">
        <ele>137.047</ele>
        <time>2020-11-03T17:52:15Z</time>
      </trkpt>
      <trkpt lat="41.920304" lon="2.775294">
        <ele>136.611</ele>
        <time>2020-11-03T17:52:16Z</time>
      </trkpt>
      <trkpt lat="41.920225" lon="2.775259">
        <ele>136.408</ele>
        <time>2020-11-03T17:52:17Z</time>
      </trkpt>
      <trkpt lat="41.920143" lon="2.775222">
        <ele>136.048</ele>
        <time>2020-11-03T17:52:18Z</time>
      </trkpt>
      <trkpt lat="41.920058" lon="2.775186">
        <ele>135.682</ele>
        <time>2020-11-03T17:52:19Z</time>
      </trkpt>
      <trkpt lat="41.919972" lon="2.775152">
        <ele>135.080</ele>
        <time>2020-11-03T17:52:20Z</time>
      </trkpt>
      <trkpt lat="41.919884" lon="2.775118">
        <ele>134.632</ele>
        <time>2020-11-03T17:52:21Z</time>
      </trkpt>
      <trkpt lat="41.919796" lon="2.775084">
        <ele>134.018</ele>
        <time>2020-11-03T17:52:22Z</time>
      </trkpt>
      <trkpt lat="41.919708" lon="2.775049">
        <ele>133.693</ele>
        <time>2020-11-03T17:52:23Z</time>
      </trkpt>
      <trkpt lat="41.919619" lon="2.775013">
        <ele>133.248</ele>
        <time>2020-11-03T17:52:24Z</time>
      </trkpt>
      <trkpt lat="41.919530" lon="2.774975">
        <ele>133.071</ele>
        <time>2020-11-03T17:52:25Z</time>
      </trkpt>
      <trkpt lat="41.919440" lon="2.774934">
        <ele>132.625</ele>
        <time>2020-11-03T17:52:26Z</time>
      </trkpt>
      <trkpt lat="41.919349" lon="2.774893">
        <ele>132.426</ele>
        <time>2020-11-03T17:52:27Z</time>
      </trkpt>
      <trkpt lat="41.919259" lon="2.774850">
        <ele>132.208</ele>
        <time>2020-11-03T17:52:28Z</time>
      </trkpt>
      <trkpt lat="41.919169" lon="2.774806">
        <ele>132.008</ele>
        <time>2020-11-03T17:52:29Z</time>
      </trkpt>
      <trkpt lat="41.919077" lon="2.774764">
        <ele>131.698</ele>
        <time>2020-11-03T17:52:30Z</time>
      </trkpt>
      <trkpt lat="41.918985" lon="2.774726">
        <ele>131.422</ele>
        <time>2020-11-03T17:52:31Z</time>
      </trkpt>
      <trkpt lat="41.918890" lon="2.774691">
        <ele>131.290</ele>
        <time>2020-11-03T17:52:32Z</time>
      </trkpt>
      <trkpt lat="41.918795" lon="2.774657">
        <ele>130.872</ele>
        <time>2020-11-03T17:52:33Z</time>
      </trkpt>
      <trkpt lat="41.918700" lon="2.774626">
        <ele>130.478</ele>
        <time>2020-11-03T17:52:34Z</time>
      </trkpt>
      <trkpt lat="41.918606" lon="2.774595">
        <ele>130.063</ele>
        <time>2020-11-03T17:52:35Z</time>
      </trkpt>
      <trkpt lat="41.918515" lon="2.774562">
        <ele>129.658</ele>
        <time>2020-11-03T17:52:36Z</time>
      </trkpt>
      <trkpt lat="41.918424" lon="2.774526">
        <ele>129.291</ele>
        <time>2020-11-03T17:52:37Z</time>
      </trkpt>
      <trkpt lat="41.918333" lon="2.774489">
        <ele>129.022</ele>
        <time>2020-11-03T17:52:38Z</time>
      </trkpt>
      <trkpt lat="41.918243" lon="2.774450">
        <ele>128.862</ele>
        <time>2020-11-03T17:52:39Z</time>
      </trkpt>
      <trkpt lat="41.918153" lon="2.774413">
        <ele>128.408</ele>
        <time>2020-11-03T17:52:40Z</time>
      </trkpt>
      <trkpt lat="41.918071" lon="2.774379">
        <ele>128.008</ele>
        <time>2020-11-03T17:52:41Z</time>
      </trkpt>
      <trkpt lat="41.917996" lon="2.774348">
        <ele>127.448</ele>
        <time>2020-11-03T17:52:42Z</time>
      </trkpt>
      <trkpt lat="41.917927" lon="2.774320">
        <ele>127.042</ele>
        <time>2020-11-03T17:52:43Z</time>
      </trkpt>
      <trkpt lat="41.917864" lon="2.774294">
        <ele>126.630</ele>
        <time>2020-11-03T17:52:44Z</time>
      </trkpt>
      <trkpt lat="41.917808" lon="2.774271">
        <ele>126.232</ele>
        <time>2020-11-03T17:52:45Z</time>
      </trkpt>
      <trkpt lat="41.917759" lon="2.774247">
        <ele>125.898</ele>
        <time>2020-11-03T17:52:46Z</time>
      </trkpt>
      <trkpt lat="41.917716" lon="2.774221">
        <ele>125.673</ele>
        <time>2020-11-03T17:52:47Z</time>
      </trkpt>
      <trkpt lat="41.917682" lon="2.774190">
        <ele>125.468</ele>
        <time>2020-11-03T17:52:48Z</time>
      </trkpt>
      <trkpt lat="41.917662" lon="2.774148">
        <ele>125.061</ele>
        <time>2020-11-03T17:52:49Z</time>
      </trkpt>
      <trkpt lat="41.917660" lon="2.774105">
        <ele>124.417</ele>
        <time>2020-11-03T17:52:50Z</time>
      </trkpt>
      <trkpt lat="41.917675" lon="2.774069">
        <ele>124.287</ele>
        <time>2020-11-03T17:52:51Z</time>
      </trkpt>
      <trkpt lat="41.917693" lon="2.774037">
        <ele>123.815</ele>
        <time>2020-11-03T17:52:52Z</time>
      </trkpt>
      <trkpt lat="41.917708" lon="2.774008">
        <ele>123.808</ele>
        <time>2020-11-03T17:52:53Z</time>
      </trkpt>
      <trkpt lat="41.917727" lon="2.773986">
        <ele>123.677</ele>
        <time>2020-11-03T17:52:54Z</time>
      </trkpt>
      <trkpt lat="41.917753" lon="2.773973">
        <ele>123.621</ele>
        <time>2020-11-03T17:52:55Z</time>
      </trkpt>
      <trkpt lat="41.917785" lon="2.773962">
        <ele>123.619</ele>
        <time>2020-11-03T17:52:56Z</time>
      </trkpt>
      <trkpt lat="41.917823" lon="2.773950">
        <ele>123.621</ele>
        <time>2020-11-03T17:52:57Z</time>
      </trkpt>
      <trkpt lat="41.917862" lon="2.773938">
        <ele>123.617</ele>
        <time>2020-11-03T17:52:58Z</time>
      </trkpt>
      <trkpt lat="41.917905" lon="2.773920">
        <ele>123.652</ele>
        <time>2020-11-03T17:52:59Z</time>
      </trkpt>
      <trkpt lat="41.917947" lon="2.773895">
        <ele>123.837</ele>
        <time>2020-11-03T17:53:00Z</time>
      </trkpt>
      <trkpt lat="41.917990" lon="2.773865">
        <ele>123.880</ele>
        <time>2020-11-03T17:53:01Z</time>
      </trkpt>
      <trkpt lat="41.918033" lon="2.773829">
        <ele>124.093</ele>
        <time>2020-11-03T17:53:02Z</time>
      </trkpt>
      <trkpt lat="41.918072" lon="2.773785">
        <ele>124.065</ele>
        <time>2020-11-03T17:53:03Z</time>
      </trkpt>
      <trkpt lat="41.918107" lon="2.773736">
        <ele>124.421</ele>
        <time>2020-11-03T17:53:04Z</time>
      </trkpt>
      <trkpt lat="41.918139" lon="2.773681">
        <ele>124.808</ele>
        <time>2020-11-03T17:53:05Z</time>
      </trkpt>
      <trkpt lat="41.918166" lon="2.773620">
        <ele>125.035</ele>
        <time>2020-11-03T17:53:06Z</time>
      </trkpt>
      <trkpt lat="41.918187" lon="2.773554">
        <ele>125.239</ele>
        <time>2020-11-03T17:53:07Z</time>
      </trkpt>
      <trkpt lat="41.918202" lon="2.773485">
        <ele>125.437</ele>
        <time>2020-11-03T17:53:08Z</time>
      </trkpt>
      <trkpt lat="41.918212" lon="2.773411">
        <ele>125.649</ele>
        <time>2020-11-03T17:53:09Z</time>
      </trkpt>
      <trkpt lat="41.918218" lon="2.773336">
        <ele>125.835</ele>
        <time>2020-11-03T17:53:10Z</time>
      </trkpt>
      <trkpt lat="41.918222" lon="2.773262">
        <ele>125.880</ele>
        <time>2020-11-03T17:53:11Z</time>
      </trkpt>
      <trkpt lat="41.918222" lon="2.773187">
        <ele>126.035</ele>
        <time>2020-11-03T17:53:12Z</time>
      </trkpt>
      <trkpt lat="41.918222" lon="2.773112">
        <ele>126.248</ele>
        <time>2020-11-03T17:53:13Z</time>
      </trkpt>
      <trkpt lat="41.918221" lon="2.773039">
        <ele>126.295</ele>
        <time>2020-11-03T17:53:14Z</time>
      </trkpt>
      <trkpt lat="41.918223" lon="2.772967">
        <ele>126.649</ele>
        <time>2020-11-03T17:53:15Z</time>
      </trkpt>
      <trkpt lat="41.918226" lon="2.772896">
        <ele>126.623</ele>
        <time>2020-11-03T17:53:16Z</time>
      </trkpt>
      <trkpt lat="41.918229" lon="2.772826">
        <ele>126.808</ele>
        <time>2020-11-03T17:53:17Z</time>
      </trkpt>
      <trkpt lat="41.918231" lon="2.772756">
        <ele>127.095</ele>
        <time>2020-11-03T17:53:18Z</time>
      </trkpt>
      <trkpt lat="41.918235" lon="2.772687">
        <ele>127.279</ele>
        <time>2020-11-03T17:53:19Z</time>
      </trkpt>
      <trkpt lat="41.918242" lon="2.772618">
        <ele>127.447</ele>
        <time>2020-11-03T17:53:20Z</time>
      </trkpt>
      <trkpt lat="41.918251" lon="2.772551">
        <ele>127.899</ele>
        <time>2020-11-03T17:53:21Z</time>
      </trkpt>
      <trkpt lat="41.918260" lon="2.772483">
        <ele>128.095</ele>
        <time>2020-11-03T17:53:22Z</time>
      </trkpt>
      <trkpt lat="41.918268" lon="2.772416">
        <ele>128.240</ele>
        <time>2020-11-03T17:53:23Z</time>
      </trkpt>
      <trkpt lat="41.918276" lon="2.772347">
        <ele>128.645</ele>
        <time>2020-11-03T17:53:24Z</time>
      </trkpt>
      <trkpt lat="41.918283" lon="2.772277">
        <ele>128.868</ele>
        <time>2020-11-03T17:53:25Z</time>
      </trkpt>
      <trkpt lat="41.918290" lon="2.772206">
        <ele>129.063</ele>
        <time>2020-11-03T17:53:26Z</time>
      </trkpt>
      <trkpt lat="41.918294" lon="2.772134">
        <ele>129.244</ele>
        <time>2020-11-03T17:53:27Z</time>
      </trkpt>
      <trkpt lat="41.918288" lon="2.772059">
        <ele>129.218</ele>
        <time>2020-11-03T17:53:28Z</time>
      </trkpt>
      <trkpt lat="41.918269" lon="2.771983">
        <ele>129.208</ele>
        <time>2020-11-03T17:53:29Z</time>
      </trkpt>
      <trkpt lat="41.918235" lon="2.771912">
        <ele>129.282</ele>
        <time>2020-11-03T17:53:30Z</time>
      </trkpt>
      <trkpt lat="41.918187" lon="2.771849">
        <ele>128.866</ele>
        <time>2020-11-03T17:53:31Z</time>
      </trkpt>
      <trkpt lat="41.918127" lon="2.771794">
        <ele>128.454</ele>
        <time>2020-11-03T17:53:32Z</time>
      </trkpt>
      <trkpt lat="41.918057" lon="2.771742">
        <ele>128.066</ele>
        <time>2020-11-03T17:53:33Z</time>
      </trkpt>
      <trkpt lat="41.917982" lon="2.771695">
        <ele>127.632</ele>
        <time>2020-11-03T17:53:34Z</time>
      </trkpt>
      <trkpt lat="41.917904" lon="2.771642">
        <ele>127.047</ele>
        <time>2020-11-03T17:53:35Z</time>
      </trkpt>
      <trkpt lat="41.917823" lon="2.771583">
        <ele>126.242</ele>
        <time>2020-11-03T17:53:36Z</time>
      </trkpt>
      <trkpt lat="41.917739" lon="2.771516">
        <ele>125.495</ele>
        <time>2020-11-03T17:53:37Z</time>
      </trkpt>
      <trkpt lat="41.917653" lon="2.771442">
        <ele>124.852</ele>
        <time>2020-11-03T17:53:38Z</time>
      </trkpt>
      <trkpt lat="41.917568" lon="2.771361">
        <ele>124.253</ele>
        <time>2020-11-03T17:53:39Z</time>
      </trkpt>
      <trkpt lat="41.917483" lon="2.771277">
        <ele>124.008</ele>
        <time>2020-11-03T17:53:40Z</time>
      </trkpt>
      <trkpt lat="41.917396" lon="2.771189">
        <ele>123.608</ele>
        <time>2020-11-03T17:53:41Z</time>
      </trkpt>
      <trkpt lat="41.917310" lon="2.771101">
        <ele>123.291</ele>
        <time>2020-11-03T17:53:42Z</time>
      </trkpt>
      <trkpt lat="41.917223" lon="2.771015">
        <ele>122.865</ele>
        <time>2020-11-03T17:53:43Z</time>
      </trkpt>
      <trkpt lat="41.917133" lon="2.770928">
        <ele>122.293</ele>
        <time>2020-11-03T17:53:44Z</time>
      </trkpt>
      <trkpt lat="41.917045" lon="2.770843">
        <ele>121.625</ele>
        <time>2020-11-03T17:53:45Z</time>
      </trkpt>
      <trkpt lat="41.916960" lon="2.770758">
        <ele>120.871</ele>
        <time>2020-11-03T17:53:46Z</time>
      </trkpt>
      <trkpt lat="41.916876" lon="2.770672">
        <ele>120.256</ele>
        <time>2020-11-03T17:53:47Z</time>
      </trkpt>
      <trkpt lat="41.916793" lon="2.770589">
        <ele>119.841</ele>
        <time>2020-11-03T17:53:48Z</time>
      </trkpt>
      <trkpt lat="41.916711" lon="2.770509">
        <ele>119.644</ele>
        <time>2020-11-03T17:53:49Z</time>
      </trkpt>
      <trkpt lat="41.916631" lon="2.770431">
        <ele>119.434</ele>
        <time>2020-11-03T17:53:50Z</time>
      </trkpt>
      <trkpt lat="41.916554" lon="2.770354">
        <ele>119.455</ele>
        <time>2020-11-03T17:53:51Z</time>
      </trkpt>
      <trkpt lat="41.916479" lon="2.770279">
        <ele>119.410</ele>
        <time>2020-11-03T17:53:52Z</time>
      </trkpt>
      <trkpt lat="41.916404" lon="2.770206">
        <ele>119.408</ele>
        <time>2020-11-03T17:53:53Z</time>
      </trkpt>
      <trkpt lat="41.916333" lon="2.770137">
        <ele>119.459</ele>
        <time>2020-11-03T17:53:54Z</time>
      </trkpt>
      <trkpt lat="41.916264" lon="2.770070">
        <ele>119.623</ele>
        <time>2020-11-03T17:53:55Z</time>
      </trkpt>
      <trkpt lat="41.916198" lon="2.770007">
        <ele>119.871</ele>
        <time>2020-11-03T17:53:56Z</time>
      </trkpt>
      <trkpt lat="41.916135" lon="2.769947">
        <ele>119.813</ele>
        <time>2020-11-03T17:53:57Z</time>
      </trkpt>
      <trkpt lat="41.916076" lon="2.769892">
        <ele>120.049</ele>
        <time>2020-11-03T17:53:58Z</time>
      </trkpt>
      <trkpt lat="41.916023" lon="2.769844">
        <ele>120.244</ele>
        <time>2020-11-03T17:53:59Z</time>
      </trkpt>
      <trkpt lat="41.915985" lon="2.769801">
        <ele>120.659</ele>
        <time>2020-11-03T17:54:00Z</time>
      </trkpt>
      <trkpt lat="41.915974" lon="2.769759">
        <ele>121.012</ele>
        <time>2020-11-03T17:54:01Z</time>
      </trkpt>
      <trkpt lat="41.915989" lon="2.769721">
        <ele>121.427</ele>
        <time>2020-11-03T17:54:02Z</time>
      </trkpt>
      <trkpt lat="41.916018" lon="2.769688">
        <ele>121.668</ele>
        <time>2020-11-03T17:54:03Z</time>
      </trkpt>
      <trkpt lat="41.916060" lon="2.769663">
        <ele>121.614</ele>
        <time>2020-11-03T17:54:04Z</time>
      </trkpt>
      <trkpt lat="41.916114" lon="2.769641">
        <ele>121.808</ele>
        <time>2020-11-03T17:54:05Z</time>
      </trkpt>
      <trkpt lat="41.916174" lon="2.769618">
        <ele>121.658</ele>
        <time>2020-11-03T17:54:06Z</time>
      </trkpt>
      <trkpt lat="41.916236" lon="2.769594">
        <ele>121.652</ele>
        <time>2020-11-03T17:54:07Z</time>
      </trkpt>
      <trkpt lat="41.916301" lon="2.769567">
        <ele>121.470</ele>
        <time>2020-11-03T17:54:08Z</time>
      </trkpt>
      <trkpt lat="41.916368" lon="2.769539">
        <ele>121.012</ele>
        <time>2020-11-03T17:54:09Z</time>
      </trkpt>
      <trkpt lat="41.916435" lon="2.769514">
        <ele>120.668</ele>
        <time>2020-11-03T17:54:10Z</time>
      </trkpt>
      <trkpt lat="41.916503" lon="2.769491">
        <ele>120.413</ele>
        <time>2020-11-03T17:54:11Z</time>
      </trkpt>
      <trkpt lat="41.916568" lon="2.769464">
        <ele>120.028</ele>
        <time>2020-11-03T17:54:12Z</time>
      </trkpt>
      <trkpt lat="41.916631" lon="2.769432">
        <ele>120.061</ele>
        <time>2020-11-03T17:54:13Z</time>
      </trkpt>
      <trkpt lat="41.916692" lon="2.769394">
        <ele>120.083</ele>
        <time>2020-11-03T17:54:14Z</time>
      </trkpt>
      <trkpt lat="41.916747" lon="2.769350">
        <ele>120.025</ele>
        <time>2020-11-03T17:54:15Z</time>
      </trkpt>
      <trkpt lat="41.916797" lon="2.769298">
        <ele>120.017</ele>
        <time>2020-11-03T17:54:16Z</time>
      </trkpt>
      <trkpt lat="41.916841" lon="2.769238">
        <ele>120.008</ele>
        <time>2020-11-03T17:54:17Z</time>
      </trkpt>
      <trkpt lat="41.916879" lon="2.769170">
        <ele>120.014</ele>
        <time>2020-11-03T17:54:18Z</time>
      </trkpt>
      <trkpt lat="41.916912" lon="2.769100">
        <ele>120.258</ele>
        <time>2020-11-03T17:54:19Z</time>
      </trkpt>
      <trkpt lat="41.916940" lon="2.769026">
        <ele>120.276</ele>
        <time>2020-11-03T17:54:20Z</time>
      </trkpt>
      <trkpt lat="41.916967" lon="2.768951">
        <ele>120.238</ele>
        <time>2020-11-03T17:54:21Z</time>
      </trkpt>
      <trkpt lat="41.916993" lon="2.768876">
        <ele>120.284</ele>
        <time>2020-11-03T17:54:22Z</time>
      </trkpt>
      <trkpt lat="41.917021" lon="2.768804">
        <ele>120.299</ele>
        <time>2020-11-03T17:54:23Z</time>
      </trkpt>
      <trkpt lat="41.917049" lon="2.768733">
        <ele>120.494</ele>
        <time>2020-11-03T17:54:24Z</time>
      </trkpt>
      <trkpt lat="41.917078" lon="2.768663">
        <ele>120.427</ele>
        <time>2020-11-03T17:54:25Z</time>
      </trkpt>
      <trkpt lat="41.917105" lon="2.768595">
        <ele>120.621</ele>
        <time>2020-11-03T17:54:26Z</time>
      </trkpt>
      <trkpt lat="41.917132" lon="2.768530">
        <ele>121.041</ele>
        <time>2020-11-03T17:54:27Z</time>
      </trkpt>
      <trkpt lat="41.917160" lon="2.768469">
        <ele>121.205</ele>
        <time>2020-11-03T17:54:28Z</time>
      </trkpt>
      <trkpt lat="41.917188" lon="2.768411">
        <ele>121.608</ele>
        <time>2020-11-03T17:54:29Z</time>
      </trkpt>
      <trkpt lat="41.917218" lon="2.768355">
        <ele>121.848</ele>
        <time>2020-11-03T17:54:30Z</time>
      </trkpt>
      <trkpt lat="41.917246" lon="2.768303">
        <ele>122.282</ele>
        <time>2020-11-03T17:54:31Z</time>
      </trkpt>
      <trkpt lat="41.917277" lon="2.768251">
        <ele>122.450</ele>
        <time>2020-11-03T17:54:32Z</time>
      </trkpt>
      <trkpt lat="41.917305" lon="2.768199">
        <ele>122.682</ele>
        <time>2020-11-03T17:54:33Z</time>
      </trkpt>
      <trkpt lat="41.917337" lon="2.768147">
        <ele>122.888</ele>
        <time>2020-11-03T17:54:34Z</time>
      </trkpt>
      <trkpt lat="41.917370" lon="2.768097">
        <ele>123.093</ele>
        <time>2020-11-03T17:54:35Z</time>
      </trkpt>
      <trkpt lat="41.917404" lon="2.768042">
        <ele>123.248</ele>
        <time>2020-11-03T17:54:36Z</time>
      </trkpt>
      <trkpt lat="41.917442" lon="2.767986">
        <ele>123.461</ele>
        <time>2020-11-03T17:54:37Z</time>
      </trkpt>
      <trkpt lat="41.917481" lon="2.767934">
        <ele>123.466</ele>
        <time>2020-11-03T17:54:38Z</time>
      </trkpt>
      <trkpt lat="41.917520" lon="2.767885">
        <ele>123.629</ele>
        <time>2020-11-03T17:54:39Z</time>
      </trkpt>
      <trkpt lat="41.917561" lon="2.767835">
        <ele>123.621</ele>
        <time>2020-11-03T17:54:40Z</time>
      </trkpt>
      <trkpt lat="41.917604" lon="2.767786">
        <ele>123.608</ele>
        <time>2020-11-03T17:54:41Z</time>
      </trkpt>
      <trkpt lat="41.917645" lon="2.767735">
        <ele>123.852</ele>
        <time>2020-11-03T17:54:42Z</time>
      </trkpt>
      <trkpt lat="41.917684" lon="2.767683">
        <ele>123.896</ele>
        <time>2020-11-03T17:54:43Z</time>
      </trkpt>
      <trkpt lat="41.917721" lon="2.767627">
        <ele>124.084</ele>
        <time>2020-11-03T17:54:44Z</time>
      </trkpt>
      <trkpt lat="41.917754" lon="2.767570">
        <ele>124.096</ele>
        <time>2020-11-03T17:54:45Z</time>
      </trkpt>
      <trkpt lat="41.917782" lon="2.767512">
        <ele>124.242</ele>
        <time>2020-11-03T17:54:46Z</time>
      </trkpt>
      <trkpt lat="41.917809" lon="2.767452">
        <ele>124.477</ele>
        <time>2020-11-03T17:54:47Z</time>
      </trkpt>
      <trkpt lat="41.917836" lon="2.767390">
        <ele>124.462</ele>
        <time>2020-11-03T17:54:48Z</time>
      </trkpt>
      <trkpt lat="41.917864" lon="2.767325">
        <ele>124.685</ele>
        <time>2020-11-03T17:54:49Z</time>
      </trkpt>
      <trkpt lat="41.917894" lon="2.767258">
        <ele>124.659</ele>
        <time>2020-11-03T17:54:50Z</time>
      </trkpt>
      <trkpt lat="41.917922" lon="2.767187">
        <ele>124.803</ele>
        <time>2020-11-03T17:54:51Z</time>
      </trkpt>
      <trkpt lat="41.917949" lon="2.767110">
        <ele>124.823</ele>
        <time>2020-11-03T17:54:52Z</time>
      </trkpt>
      <trkpt lat="41.917972" lon="2.767033">
        <ele>124.808</ele>
        <time>2020-11-03T17:54:53Z</time>
      </trkpt>
      <trkpt lat="41.917991" lon="2.766955">
        <ele>124.891</ele>
        <time>2020-11-03T17:54:54Z</time>
      </trkpt>
      <trkpt lat="41.918005" lon="2.766877">
        <ele>124.825</ele>
        <time>2020-11-03T17:54:55Z</time>
      </trkpt>
      <trkpt lat="41.918012" lon="2.766798">
        <ele>124.873</ele>
        <time>2020-11-03T17:54:56Z</time>
      </trkpt>
      <trkpt lat="41.918010" lon="2.766726">
        <ele>124.865</ele>
        <time>2020-11-03T17:54:57Z</time>
      </trkpt>
      <trkpt lat="41.918000" lon="2.766653">
        <ele>124.811</ele>
        <time>2020-11-03T17:54:58Z</time>
      </trkpt>
      <trkpt lat="41.917982" lon="2.766582">
        <ele>124.866</ele>
        <time>2020-11-03T17:54:59Z</time>
      </trkpt>
      <trkpt lat="41.917963" lon="2.766515">
        <ele>124.821</ele>
        <time>2020-11-03T17:55:00Z</time>
      </trkpt>
      <trkpt lat="41.917943" lon="2.766448">
        <ele>124.884</ele>
        <time>2020-11-03T17:55:01Z</time>
      </trkpt>
      <trkpt lat="41.917926" lon="2.766384">
        <ele>124.817</ele>
        <time>2020-11-03T17:55:02Z</time>
      </trkpt>
      <trkpt lat="41.917905" lon="2.766319">
        <ele>124.887</ele>
        <time>2020-11-03T17:55:03Z</time>
      </trkpt>
      <trkpt lat="41.917882" lon="2.766256">
        <ele>125.015</ele>
        <time>2020-11-03T17:55:04Z</time>
      </trkpt>
      <trkpt lat="41.917858" lon="2.766193">
        <ele>125.208</ele>
        <time>2020-11-03T17:55:05Z</time>
      </trkpt>
      <trkpt lat="41.917835" lon="2.766134">
        <ele>125.217</ele>
        <time>2020-11-03T17:55:06Z</time>
      </trkpt>
      <trkpt lat="41.917814" lon="2.766074">
        <ele>125.491</ele>
        <time>2020-11-03T17:55:07Z</time>
      </trkpt>
      <trkpt lat="41.917796" lon="2.766013">
        <ele>125.649</ele>
        <time>2020-11-03T17:55:08Z</time>
      </trkpt>
      <trkpt lat="41.917784" lon="2.765950">
        <ele>125.861</ele>
        <time>2020-11-03T17:55:09Z</time>
      </trkpt>
      <trkpt lat="41.917779" lon="2.765887">
        <ele>126.227</ele>
        <time>2020-11-03T17:55:10Z</time>
      </trkpt>
      <trkpt lat="41.917782" lon="2.765825">
        <ele>126.652</ele>
        <time>2020-11-03T17:55:11Z</time>
      </trkpt>
      <trkpt lat="41.917786" lon="2.765764">
        <ele>126.887</ele>
        <time>2020-11-03T17:55:12Z</time>
      </trkpt>
      <trkpt lat="41.917795" lon="2.765705">
        <ele>127.090</ele>
        <time>2020-11-03T17:55:13Z</time>
      </trkpt>
      <trkpt lat="41.917811" lon="2.765653">
        <ele>127.276</ele>
        <time>2020-11-03T17:55:14Z</time>
      </trkpt>
      <trkpt lat="41.917836" lon="2.765608">
        <ele>127.490</ele>
        <time>2020-11-03T17:55:15Z</time>
      </trkpt>
      <trkpt lat="41.917861" lon="2.765564">
        <ele>127.819</ele>
        <time>2020-11-03T17:55:16Z</time>
      </trkpt>
      <trkpt lat="41.917888" lon="2.765524">
        <ele>128.208</ele>
        <time>2020-11-03T17:55:17Z</time>
      </trkpt>
      <trkpt lat="41.917914" lon="2.765490">
        <ele>128.623</ele>
        <time>2020-11-03T17:55:18Z</time>
      </trkpt>
      <trkpt lat="41.917949" lon="2.765462">
        <ele>129.057</ele>
        <time>2020-11-03T17:55:19Z</time>
      </trkpt>
      <trkpt lat="41.917986" lon="2.765439">
        <ele>129.485</ele>
        <time>2020-11-03T17:55:20Z</time>
      </trkpt>
      <trkpt lat="41.918025" lon="2.765417">
        <ele>129.857</ele>
        <time>2020-11-03T17:55:21Z</time>
      </trkpt>
      <trkpt lat="41.918066" lon="2.765395">
        <ele>130.233</ele>
        <time>2020-11-03T17:55:22Z</time>
      </trkpt>
      <trkpt lat="41.918104" lon="2.765373">
        <ele>130.698</ele>
        <time>2020-11-03T17:55:23Z</time>
      </trkpt>
      <trkpt lat="41.918139" lon="2.765346">
        <ele>130.873</ele>
        <time>2020-11-03T17:55:24Z</time>
      </trkpt>
      <trkpt lat="41.918172" lon="2.765313">
        <ele>131.066</ele>
        <time>2020-11-03T17:55:25Z</time>
      </trkpt>
      <trkpt lat="41.918204" lon="2.765277">
        <ele>131.252</ele>
        <time>2020-11-03T17:55:26Z</time>
      </trkpt>
      <trkpt lat="41.918234" lon="2.765240">
        <ele>131.253</ele>
        <time>2020-11-03T17:55:27Z</time>
      </trkpt>
      <trkpt lat="41.918262" lon="2.765201">
        <ele>131.408</ele>
        <time>2020-11-03T17:55:28Z</time>
      </trkpt>
      <trkpt lat="41.918287" lon="2.765159">
        <ele>131.408</ele>
        <time>2020-11-03T17:55:29Z</time>
      </trkpt>
      <trkpt lat="41.918308" lon="2.765113">
        <ele>131.671</ele>
        <time>2020-11-03T17:55:30Z</time>
      </trkpt>
      <trkpt lat="41.918326" lon="2.765062">
        <ele>131.835</ele>
        <time>2020-11-03T17:55:31Z</time>
      </trkpt>
      <trkpt lat="41.918342" lon="2.765008">
        <ele>132.223</ele>
        <time>2020-11-03T17:55:32Z</time>
      </trkpt>
      <trkpt lat="41.918357" lon="2.764951">
        <ele>132.445</ele>
        <time>2020-11-03T17:55:33Z</time>
      </trkpt>
      <trkpt lat="41.918369" lon="2.764895">
        <ele>132.871</ele>
        <time>2020-11-03T17:55:34Z</time>
      </trkpt>
      <trkpt lat="41.918381" lon="2.764840">
        <ele>132.896</ele>
        <time>2020-11-03T17:55:35Z</time>
      </trkpt>
      <trkpt lat="41.918392" lon="2.764786">
        <ele>133.031</ele>
        <time>2020-11-03T17:55:36Z</time>
      </trkpt>
      <trkpt lat="41.918404" lon="2.764733">
        <ele>133.034</ele>
        <time>2020-11-03T17:55:37Z</time>
      </trkpt>
      <trkpt lat="41.918416" lon="2.764683">
        <ele>133.077</ele>
        <time>2020-11-03T17:55:38Z</time>
      </trkpt>
      <trkpt lat="41.918425" lon="2.764630">
        <ele>133.261</ele>
        <time>2020-11-03T17:55:39Z</time>
      </trkpt>
      <trkpt lat="41.918434" lon="2.764576">
        <ele>133.427</ele>
        <time>2020-11-03T17:55:40Z</time>
      </trkpt>
      <trkpt lat="41.918444" lon="2.764523">
        <ele>133.608</ele>
        <time>2020-11-03T17:55:41Z</time>
      </trkpt>
      <trkpt lat="41.918455" lon="2.764470">
        <ele>133.823</ele>
        <time>2020-11-03T17:55:42Z</time>
      </trkpt>
      <trkpt lat="41.918465" lon="2.764416">
        <ele>134.047</ele>
        <time>2020-11-03T17:55:43Z</time>
      </trkpt>
      <trkpt lat="41.918475" lon="2.764362">
        <ele>134.225</ele>
        <time>2020-11-03T17:55:44Z</time>
      </trkpt>
      <trkpt lat="41.918485" lon="2.764309">
        <ele>134.217</ele>
        <time>2020-11-03T17:55:45Z</time>
      </trkpt>
      <trkpt lat="41.918494" lon="2.764254">
        <ele>134.483</ele>
        <time>2020-11-03T17:55:46Z</time>
      </trkpt>
      <trkpt lat="41.918504" lon="2.764202">
        <ele>134.678</ele>
        <time>2020-11-03T17:55:47Z</time>
      </trkpt>
      <trkpt lat="41.918515" lon="2.764149">
        <ele>134.873</ele>
        <time>2020-11-03T17:55:48Z</time>
      </trkpt>
      <trkpt lat="41.918527" lon="2.764099">
        <ele>134.886</ele>
        <time>2020-11-03T17:55:49Z</time>
      </trkpt>
      <trkpt lat="41.918538" lon="2.764048">
        <ele>135.054</ele>
        <time>2020-11-03T17:55:50Z</time>
      </trkpt>
      <trkpt lat="41.918550" lon="2.763996">
        <ele>135.056</ele>
        <time>2020-11-03T17:55:51Z</time>
      </trkpt>
      <trkpt lat="41.918560" lon="2.763945">
        <ele>135.211</ele>
        <time>2020-11-03T17:55:52Z</time>
      </trkpt>
      <trkpt lat="41.918568" lon="2.763895">
        <ele>135.208</ele>
        <time>2020-11-03T17:55:53Z</time>
      </trkpt>
      <trkpt lat="41.918577" lon="2.763848">
        <ele>135.271</ele>
        <time>2020-11-03T17:55:54Z</time>
      </trkpt>
      <trkpt lat="41.918585" lon="2.763802">
        <ele>135.435</ele>
        <time>2020-11-03T17:55:55Z</time>
      </trkpt>
      <trkpt lat="41.918592" lon="2.763755">
        <ele>135.633</ele>
        <time>2020-11-03T17:55:56Z</time>
      </trkpt>
      <trkpt lat="41.918595" lon="2.763709">
        <ele>135.845</ele>
        <time>2020-11-03T17:55:57Z</time>
      </trkpt>
      <trkpt lat="41.918598" lon="2.763662">
        <ele>136.011</ele>
        <time>2020-11-03T17:55:58Z</time>
      </trkpt>
      <trkpt lat="41.918599" lon="2.763617">
        <ele>136.256</ele>
        <time>2020-11-03T17:55:59Z</time>
      </trkpt>
      <trkpt lat="41.918598" lon="2.763573">
        <ele>136.411</ele>
        <time>2020-11-03T17:56:00Z</time>
      </trkpt>
      <trkpt lat="41.918595" lon="2.763530">
        <ele>136.624</ele>
        <time>2020-11-03T17:56:01Z</time>
      </trkpt>
      <trkpt lat="41.918590" lon="2.763489">
        <ele>136.816</ele>
        <time>2020-11-03T17:56:02Z</time>
      </trkpt>
      <trkpt lat="41.918587" lon="2.763448">
        <ele>137.076</ele>
        <time>2020-11-03T17:56:03Z</time>
      </trkpt>
      <trkpt lat="41.918585" lon="2.763410">
        <ele>137.213</ele>
        <time>2020-11-03T17:56:04Z</time>
      </trkpt>
      <trkpt lat="41.918581" lon="2.763376">
        <ele>137.408</ele>
        <time>2020-11-03T17:56:05Z</time>
      </trkpt>
      <trkpt lat="41.918575" lon="2.763342">
        <ele>137.837</ele>
        <time>2020-11-03T17:56:06Z</time>
      </trkpt>
      <trkpt lat="41.918567" lon="2.763305">
        <ele>138.091</ele>
        <time>2020-11-03T17:56:07Z</time>
      </trkpt>
      <trkpt lat="41.918557" lon="2.763271">
        <ele>138.449</ele>
        <time>2020-11-03T17:56:08Z</time>
      </trkpt>
      <trkpt lat="41.918545" lon="2.763239">
        <ele>138.881</ele>
        <time>2020-11-03T17:56:09Z</time>
      </trkpt>
      <trkpt lat="41.918533" lon="2.763207">
        <ele>139.217</ele>
        <time>2020-11-03T17:56:10Z</time>
      </trkpt>
      <trkpt lat="41.918523" lon="2.763178">
        <ele>139.442</ele>
        <time>2020-11-03T17:56:11Z</time>
      </trkpt>
      <trkpt lat="41.918512" lon="2.763147">
        <ele>139.677</ele>
        <time>2020-11-03T17:56:12Z</time>
      </trkpt>
      <trkpt lat="41.918502" lon="2.763114">
        <ele>140.090</ele>
        <time>2020-11-03T17:56:13Z</time>
      </trkpt>
      <trkpt lat="41.918490" lon="2.763078">
        <ele>140.213</ele>
        <time>2020-11-03T17:56:14Z</time>
      </trkpt>
      <trkpt lat="41.918477" lon="2.763042">
        <ele>140.443</ele>
        <time>2020-11-03T17:56:15Z</time>
      </trkpt>
      <trkpt lat="41.918466" lon="2.763008">
        <ele>140.807</ele>
        <time>2020-11-03T17:56:16Z</time>
      </trkpt>
      <trkpt lat="41.918455" lon="2.762975">
        <ele>141.008</ele>
        <time>2020-11-03T17:56:17Z</time>
      </trkpt>
      <trkpt lat="41.918442" lon="2.762940">
        <ele>141.277</ele>
        <time>2020-11-03T17:56:18Z</time>
      </trkpt>
      <trkpt lat="41.918431" lon="2.762907">
        <ele>141.611</ele>
        <time>2020-11-03T17:56:19Z</time>
      </trkpt>
      <trkpt lat="41.918420" lon="2.762873">
        <ele>141.859</ele>
        <time>2020-11-03T17:56:20Z</time>
      </trkpt>
      <trkpt lat="41.918408" lon="2.762839">
        <ele>142.411</ele>
        <time>2020-11-03T17:56:21Z</time>
      </trkpt>
      <trkpt lat="41.918397" lon="2.762805">
        <ele>142.677</ele>
        <time>2020-11-03T17:56:22Z</time>
      </trkpt>
      <trkpt lat="41.918388" lon="2.762769">
        <ele>143.082</ele>
        <time>2020-11-03T17:56:23Z</time>
      </trkpt>
      <trkpt lat="41.918378" lon="2.762735">
        <ele>143.227</ele>
        <time>2020-11-03T17:56:24Z</time>
      </trkpt>
      <trkpt lat="41.918368" lon="2.762699">
        <ele>143.450</ele>
        <time>2020-11-03T17:56:25Z</time>
      </trkpt>
      <trkpt lat="41.918358" lon="2.762662">
        <ele>143.493</ele>
        <time>2020-11-03T17:56:26Z</time>
      </trkpt>
      <trkpt lat="41.918346" lon="2.762624">
        <ele>143.665</ele>
        <time>2020-11-03T17:56:27Z</time>
      </trkpt>
      <trkpt lat="41.918333" lon="2.762589">
        <ele>143.821</ele>
        <time>2020-11-03T17:56:28Z</time>
      </trkpt>
      <trkpt lat="41.918319" lon="2.762550">
        <ele>144.008</ele>
        <time>2020-11-03T17:56:29Z</time>
      </trkpt>
      <trkpt lat="41.918305" lon="2.762514">
        <ele>144.435</ele>
        <time>2020-11-03T17:56:30Z</time>
      </trkpt>
      <trkpt lat="41.918287" lon="2.762480">
        <ele>144.649</ele>
        <time>2020-11-03T17:56:31Z</time>
      </trkpt>
      <trkpt lat="41.918266" lon="2.762446">
        <ele>144.897</ele>
        <time>2020-11-03T17:56:32Z</time>
      </trkpt>
      <trkpt lat="41.918244" lon="2.762417">
        <ele>144.899</ele>
        <time>2020-11-03T17:56:33Z</time>
      </trkpt>
      <trkpt lat="41.918218" lon="2.762392">
        <ele>145.055</ele>
        <time>2020-11-03T17:56:34Z</time>
      </trkpt>
      <trkpt lat="41.918189" lon="2.762372">
        <ele>145.230</ele>
        <time>2020-11-03T17:56:35Z</time>
      </trkpt>
      <trkpt lat="41.918159" lon="2.762358">
        <ele>145.485</ele>
        <time>2020-11-03T17:56:36Z</time>
      </trkpt>
      <trkpt lat="41.918130" lon="2.762349">
        <ele>145.418</ele>
        <time>2020-11-03T17:56:37Z</time>
      </trkpt>
      <trkpt lat="41.918100" lon="2.762348">
        <ele>145.671</ele>
        <time>2020-11-03T17:56:38Z</time>
      </trkpt>
      <trkpt lat="41.918070" lon="2.762353">
        <ele>145.641</ele>
        <time>2020-11-03T17:56:39Z</time>
      </trkpt>
      <trkpt lat="41.918041" lon="2.762362">
        <ele>145.815</ele>
        <time>2020-11-03T17:56:40Z</time>
      </trkpt>
      <trkpt lat="41.918011" lon="2.762372">
        <ele>146.208</ele>
        <time>2020-11-03T17:56:41Z</time>
      </trkpt>
      <trkpt lat="41.917983" lon="2.762384">
        <ele>146.473</ele>
        <time>2020-11-03T17:56:42Z</time>
      </trkpt>
      <trkpt lat="41.917954" lon="2.762396">
        <ele>146.687</ele>
        <time>2020-11-03T17:56:43Z</time>
      </trkpt>
      <trkpt lat="41.917926" lon="2.762411">
        <ele>146.895</ele>
        <time>2020-11-03T17:56:44Z</time>
      </trkpt>
      <trkpt lat="41.917897" lon="2.762426">
        <ele>146.867</ele>
        <time>2020-11-03T17:56:45Z</time>
      </trkpt>
      <trkpt lat="41.917873" lon="2.762440">
        <ele>147.083</ele>
        <time>2020-11-03T17:56:46Z</time>
      </trkpt>
      <trkpt lat="41.917848" lon="2.762452">
        <ele>147.238</ele>
        <time>2020-11-03T17:56:47Z</time>
      </trkpt>
      <trkpt lat="41.917824" lon="2.762465">
        <ele>147.283</ele>
        <time>2020-11-03T17:56:48Z</time>
      </trkpt>
      <trkpt lat="41.917798" lon="2.762478">
        <ele>147.416</ele>
        <time>2020-11-03T17:56:49Z</time>
      </trkpt>
      <trkpt lat="41.917773" lon="2.762489">
        <ele>147.664</ele>
        <time>2020-11-03T17:56:50Z</time>
      </trkpt>
      <trkpt lat="41.917751" lon="2.762498">
        <ele>147.806</ele>
        <time>2020-11-03T17:56:51Z</time>
      </trkpt>
      <trkpt lat="41.917728" lon="2.762505">
        <ele>148.016</ele>
        <time>2020-11-03T17:56:52Z</time>
      </trkpt>
      <trkpt lat="41.917701" lon="2.762510">
        <ele>148.208</ele>
        <time>2020-11-03T17:56:53Z</time>
      </trkpt>
      <trkpt lat="41.917674" lon="2.762512">
        <ele>148.462</ele>
        <time>2020-11-03T17:56:54Z</time>
      </trkpt>
      <trkpt lat="41.917646" lon="2.762510">
        <ele>148.676</ele>
        <time>2020-11-03T17:56:55Z</time>
      </trkpt>
      <trkpt lat="41.917619" lon="2.762503">
        <ele>148.854</ele>
        <time>2020-11-03T17:56:56Z</time>
      </trkpt>
      <trkpt lat="41.917593" lon="2.762498">
        <ele>149.016</ele>
        <time>2020-11-03T17:56:57Z</time>
      </trkpt>
      <trkpt lat="41.917569" lon="2.762492">
        <ele>149.252</ele>
        <time>2020-11-03T17:56:58Z</time>
      </trkpt>
      <trkpt lat="41.917539" lon="2.762484">
        <ele>149.427</ele>
        <time>2020-11-03T17:56:59Z</time>
      </trkpt>
      <trkpt lat="41.917511" lon="2.762472">
        <ele>149.852</ele>
        <time>2020-11-03T17:57:00Z</time>
      </trkpt>
      <trkpt lat="41.917481" lon="2.762461">
        <ele>150.255</ele>
        <time>2020-11-03T17:57:01Z</time>
      </trkpt>
      <trkpt lat="41.917454" lon="2.762450">
        <ele>150.498</ele>
        <time>2020-11-03T17:57:02Z</time>
      </trkpt>
      <trkpt lat="41.917425" lon="2.762438">
        <ele>150.615</ele>
        <time>2020-11-03T17:57:03Z</time>
      </trkpt>
      <trkpt lat="41.917395" lon="2.762429">
        <ele>150.826</ele>
        <time>2020-11-03T17:57:04Z</time>
      </trkpt>
      <trkpt lat="41.917364" lon="2.762415">
        <ele>151.208</ele>
        <time>2020-11-03T17:57:05Z</time>
      </trkpt>
      <trkpt lat="41.917333" lon="2.762399">
        <ele>151.485</ele>
        <time>2020-11-03T17:57:06Z</time>
      </trkpt>
      <trkpt lat="41.917303" lon="2.762382">
        <ele>151.499</ele>
        <time>2020-11-03T17:57:07Z</time>
      </trkpt>
      <trkpt lat="41.917270" lon="2.762365">
        <ele>151.667</ele>
        <time>2020-11-03T17:57:08Z</time>
      </trkpt>
      <trkpt lat="41.917239" lon="2.762349">
        <ele>151.649</ele>
        <time>2020-11-03T17:57:09Z</time>
      </trkpt>
      <trkpt lat="41.917209" lon="2.762335">
        <ele>151.695</ele>
        <time>2020-11-03T17:57:10Z</time>
      </trkpt>
      <trkpt lat="41.917180" lon="2.762323">
        <ele>151.830</ele>
        <time>2020-11-03T17:57:11Z</time>
      </trkpt>
      <trkpt lat="41.917147" lon="2.762309">
        <ele>151.885</ele>
        <time>2020-11-03T17:57:12Z</time>
      </trkpt>
      <trkpt lat="41.917112" lon="2.762296">
        <ele>151.828</ele>
        <time>2020-11-03T17:57:13Z</time>
      </trkpt>
      <trkpt lat="41.917076" lon="2.762286">
        <ele>151.829</ele>
        <time>2020-11-03T17:57:14Z</time>
      </trkpt>
      <trkpt lat="41.917036" lon="2.762274">
        <ele>151.800</ele>
        <time>2020-11-03T17:57:15Z</time>
      </trkpt>
      <trkpt lat="41.916995" lon="2.762261">
        <ele>152.020</ele>
        <time>2020-11-03T17:57:16Z</time>
      </trkpt>
      <trkpt lat="41.916955" lon="2.762247">
        <ele>152.208</ele>
        <time>2020-11-03T17:57:17Z</time>
      </trkpt>
      <trkpt lat="41.916915" lon="2.762233">
        <ele>152.238</ele>
        <time>2020-11-03T17:57:18Z</time>
      </trkpt>
      <trkpt lat="41.916874" lon="2.762216">
        <ele>152.462</ele>
        <time>2020-11-03T17:57:19Z</time>
      </trkpt>
      <trkpt lat="41.916833" lon="2.762195">
        <ele>152.450</ele>
        <time>2020-11-03T17:57:20Z</time>
      </trkpt>
      <trkpt lat="41.916793" lon="2.762170">
        <ele>152.492</ele>
        <time>2020-11-03T17:57:21Z</time>
      </trkpt>
      <trkpt lat="41.916751" lon="2.762141">
        <ele>152.468</ele>
        <time>2020-11-03T17:57:22Z</time>
      </trkpt>
      <trkpt lat="41.916712" lon="2.762109">
        <ele>152.443</ele>
        <time>2020-11-03T17:57:23Z</time>
      </trkpt>
      <trkpt lat="41.916673" lon="2.762075">
        <ele>152.458</ele>
        <time>2020-11-03T17:57:24Z</time>
      </trkpt>
      <trkpt lat="41.916633" lon="2.762042">
        <ele>152.641</ele>
        <time>2020-11-03T17:57:25Z</time>
      </trkpt>
      <trkpt lat="41.916591" lon="2.762013">
        <ele>152.647</ele>
        <time>2020-11-03T17:57:26Z</time>
      </trkpt>
      <trkpt lat="41.916547" lon="2.761989">
        <ele>152.629</ele>
        <time>2020-11-03T17:57:27Z</time>
      </trkpt>
      <trkpt lat="41.916503" lon="2.761967">
        <ele>152.621</ele>
        <time>2020-11-03T17:57:28Z</time>
      </trkpt>
      <trkpt lat="41.916458" lon="2.761953">
        <ele>152.608</ele>
        <time>2020-11-03T17:57:29Z</time>
      </trkpt>
      <trkpt lat="41.916413" lon="2.761942">
        <ele>152.610</ele>
        <time>2020-11-03T17:57:30Z</time>
      </trkpt>
      <trkpt lat="41.916375" lon="2.761934">
        <ele>152.614</ele>
        <time>2020-11-03T17:57:31Z</time>
      </trkpt>
      <trkpt lat="41.916333" lon="2.761930">
        <ele>152.612</ele>
        <time>2020-11-03T17:57:32Z</time>
      </trkpt>
      <trkpt lat="41.916290" lon="2.761929">
        <ele>152.644</ele>
        <time>2020-11-03T17:57:33Z</time>
      </trkpt>
      <trkpt lat="41.916245" lon="2.761930">
        <ele>152.680</ele>
        <time>2020-11-03T17:57:34Z</time>
      </trkpt>
      <trkpt lat="41.916202" lon="2.761932">
        <ele>152.685</ele>
        <time>2020-11-03T17:57:35Z</time>
      </trkpt>
      <trkpt lat="41.916159" lon="2.761935">
        <ele>152.670</ele>
        <time>2020-11-03T17:57:36Z</time>
      </trkpt>
      <trkpt lat="41.916117" lon="2.761939">
        <ele>152.863</ele>
        <time>2020-11-03T17:57:37Z</time>
      </trkpt>
      <trkpt lat="41.916077" lon="2.761942">
        <ele>152.824</ele>
        <time>2020-11-03T17:57:38Z</time>
      </trkpt>
      <trkpt lat="41.916037" lon="2.761950">
        <ele>153.004</ele>
        <time>2020-11-03T17:57:39Z</time>
      </trkpt>
      <trkpt lat="41.915998" lon="2.761958">
        <ele>153.014</ele>
        <time>2020-11-03T17:57:40Z</time>
      </trkpt>
      <trkpt lat="41.915958" lon="2.761962">
        <ele>153.208</ele>
        <time>2020-11-03T17:57:41Z</time>
      </trkpt>
      <trkpt lat="41.915920" lon="2.761963">
        <ele>153.448</ele>
        <time>2020-11-03T17:57:42Z</time>
      </trkpt>
      <trkpt lat="41.915880" lon="2.761964">
        <ele>153.662</ele>
        <time>2020-11-03T17:57:43Z</time>
      </trkpt>
      <trkpt lat="41.915839" lon="2.761965">
        <ele>154.060</ele>
        <time>2020-11-03T17:57:44Z</time>
      </trkpt>
      <trkpt lat="41.915798" lon="2.761969">
        <ele>154.262</ele>
        <time>2020-11-03T17:57:45Z</time>
      </trkpt>
      <trkpt lat="41.915758" lon="2.761972">
        <ele>154.618</ele>
        <time>2020-11-03T17:57:46Z</time>
      </trkpt>
      <trkpt lat="41.915716" lon="2.761974">
        <ele>154.813</ele>
        <time>2020-11-03T17:57:47Z</time>
      </trkpt>
      <trkpt lat="41.915675" lon="2.761974">
        <ele>155.238</ele>
        <time>2020-11-03T17:57:48Z</time>
      </trkpt>
      <trkpt lat="41.915633" lon="2.761971">
        <ele>155.431</ele>
        <time>2020-11-03T17:57:49Z</time>
      </trkpt>
      <trkpt lat="41.915591" lon="2.761960">
        <ele>155.426</ele>
        <time>2020-11-03T17:57:50Z</time>
      </trkpt>
      <trkpt lat="41.915554" lon="2.761938">
        <ele>155.647</ele>
        <time>2020-11-03T17:57:51Z</time>
      </trkpt>
      <trkpt lat="41.915526" lon="2.761905">
        <ele>155.611</ele>
        <time>2020-11-03T17:57:52Z</time>
      </trkpt>
      <trkpt lat="41.915505" lon="2.761864">
        <ele>155.808</ele>
        <time>2020-11-03T17:57:53Z</time>
      </trkpt>
      <trkpt lat="41.915492" lon="2.761817">
        <ele>156.098</ele>
        <time>2020-11-03T17:57:54Z</time>
      </trkpt>
      <trkpt lat="41.915485" lon="2.761767">
        <ele>156.422</ele>
        <time>2020-11-03T17:57:55Z</time>
      </trkpt>
      <trkpt lat="41.915479" lon="2.761715">
        <ele>156.860</ele>
        <time>2020-11-03T17:57:56Z</time>
      </trkpt>
      <trkpt lat="41.915477" lon="2.761660">
        <ele>157.212</ele>
        <time>2020-11-03T17:57:57Z</time>
      </trkpt>
      <trkpt lat="41.915475" lon="2.761604">
        <ele>157.438</ele>
        <time>2020-11-03T17:57:58Z</time>
      </trkpt>
      <trkpt lat="41.915473" lon="2.761550">
        <ele>157.673</ele>
        <time>2020-11-03T17:57:59Z</time>
      </trkpt>
      <trkpt lat="41.915472" lon="2.761494">
        <ele>157.638</ele>
        <time>2020-11-03T17:58:00Z</time>
      </trkpt>
      <trkpt lat="41.915471" lon="2.761437">
        <ele>157.851</ele>
        <time>2020-11-03T17:58:01Z</time>
      </trkpt>
      <trkpt lat="41.915469" lon="2.761380">
        <ele>158.056</ele>
        <time>2020-11-03T17:58:02Z</time>
      </trkpt>
      <trkpt lat="41.915466" lon="2.761321">
        <ele>158.059</ele>
        <time>2020-11-03T17:58:03Z</time>
      </trkpt>
      <trkpt lat="41.915463" lon="2.761262">
        <ele>158.214</ele>
        <time>2020-11-03T17:58:04Z</time>
      </trkpt>
      <trkpt lat="41.915461" lon="2.761201">
        <ele>158.208</ele>
        <time>2020-11-03T17:58:05Z</time>
      </trkpt>
      <trkpt lat="41.915459" lon="2.761140">
        <ele>158.261</ele>
        <time>2020-11-03T17:58:06Z</time>
      </trkpt>
      <trkpt lat="41.915457" lon="2.761077">
        <ele>158.255</ele>
        <time>2020-11-03T17:58:07Z</time>
      </trkpt>
      <trkpt lat="41.915456" lon="2.761013">
        <ele>158.223</ele>
        <time>2020-11-03T17:58:08Z</time>
      </trkpt>
      <trkpt lat="41.915455" lon="2.760948">
        <ele>158.255</ele>
        <time>2020-11-03T17:58:09Z</time>
      </trkpt>
      <trkpt lat="41.915455" lon="2.760878">
        <ele>158.261</ele>
        <time>2020-11-03T17:58:10Z</time>
      </trkpt>
      <trkpt lat="41.915456" lon="2.760806">
        <ele>158.276</ele>
        <time>2020-11-03T17:58:11Z</time>
      </trkpt>
      <trkpt lat="41.915457" lon="2.760729">
        <ele>158.271</ele>
        <time>2020-11-03T17:58:12Z</time>
      </trkpt>
      <trkpt lat="41.915461" lon="2.760650">
        <ele>158.294</ele>
        <time>2020-11-03T17:58:13Z</time>
      </trkpt>
      <trkpt lat="41.915468" lon="2.760570">
        <ele>158.223</ele>
        <time>2020-11-03T17:58:14Z</time>
      </trkpt>
      <trkpt lat="41.915479" lon="2.760487">
        <ele>158.083</ele>
        <time>2020-11-03T17:58:15Z</time>
      </trkpt>
      <trkpt lat="41.915494" lon="2.760400">
        <ele>157.811</ele>
        <time>2020-11-03T17:58:16Z</time>
      </trkpt>
      <trkpt lat="41.915512" lon="2.760309">
        <ele>157.608</ele>
        <time>2020-11-03T17:58:17Z</time>
      </trkpt>
      <trkpt lat="41.915529" lon="2.760212">
        <ele>157.018</ele>
        <time>2020-11-03T17:58:18Z</time>
      </trkpt>
      <trkpt lat="41.915545" lon="2.760109">
        <ele>156.692</ele>
        <time>2020-11-03T17:58:19Z</time>
      </trkpt>
      <trkpt lat="41.915562" lon="2.760001">
        <ele>156.230</ele>
        <time>2020-11-03T17:58:20Z</time>
      </trkpt>
      <trkpt lat="41.915580" lon="2.759887">
        <ele>155.662</ele>
        <time>2020-11-03T17:58:21Z</time>
      </trkpt>
      <trkpt lat="41.915597" lon="2.759769">
        <ele>155.248</ele>
        <time>2020-11-03T17:58:22Z</time>
      </trkpt>
      <trkpt lat="41.915615" lon="2.759647">
        <ele>154.673</ele>
        <time>2020-11-03T17:58:23Z</time>
      </trkpt>
      <trkpt lat="41.915632" lon="2.759524">
        <ele>154.028</ele>
        <time>2020-11-03T17:58:24Z</time>
      </trkpt>
      <trkpt lat="41.915649" lon="2.759398">
        <ele>153.421</ele>
        <time>2020-11-03T17:58:25Z</time>
      </trkpt>
      <trkpt lat="41.915666" lon="2.759270">
        <ele>152.827</ele>
        <time>2020-11-03T17:58:26Z</time>
      </trkpt>
      <trkpt lat="41.915682" lon="2.759142">
        <ele>152.468</ele>
        <time>2020-11-03T17:58:27Z</time>
      </trkpt>
      <trkpt lat="41.915697" lon="2.759013">
        <ele>151.814</ele>
        <time>2020-11-03T17:58:28Z</time>
      </trkpt>
      <trkpt lat="41.915711" lon="2.758885">
        <ele>151.208</ele>
        <time>2020-11-03T17:58:29Z</time>
      </trkpt>
      <trkpt lat="41.915722" lon="2.758758">
        <ele>150.898</ele>
        <time>2020-11-03T17:58:30Z</time>
      </trkpt>
      <trkpt lat="41.915734" lon="2.758632">
        <ele>150.452</ele>
        <time>2020-11-03T17:58:31Z</time>
      </trkpt>
      <trkpt lat="41.915744" lon="2.758505">
        <ele>150.030</ele>
        <time>2020-11-03T17:58:32Z</time>
      </trkpt>
      <trkpt lat="41.915754" lon="2.758382">
        <ele>149.452</ele>
        <time>2020-11-03T17:58:33Z</time>
      </trkpt>
      <trkpt lat="41.915762" lon="2.758263">
        <ele>149.248</ele>
        <time>2020-11-03T17:58:34Z</time>
      </trkpt>
      <trkpt lat="41.915768" lon="2.758148">
        <ele>149.033</ele>
        <time>2020-11-03T17:58:35Z</time>
      </trkpt>
      <trkpt lat="41.915767" lon="2.758036">
        <ele>148.898</ele>
        <time>2020-11-03T17:58:36Z</time>
      </trkpt>
      <trkpt lat="41.915758" lon="2.757929">
        <ele>148.861</ele>
        <time>2020-11-03T17:58:37Z</time>
      </trkpt>
      <trkpt lat="41.915740" lon="2.757825">
        <ele>148.649</ele>
        <time>2020-11-03T17:58:38Z</time>
      </trkpt>
      <trkpt lat="41.915713" lon="2.757724">
        <ele>148.602</ele>
        <time>2020-11-03T17:58:39Z</time>
      </trkpt>
      <trkpt lat="41.915678" lon="2.757628">
        <ele>148.622</ele>
        <time>2020-11-03T17:58:40Z</time>
      </trkpt>
      <trkpt lat="41.915636" lon="2.757542">
        <ele>148.808</ele>
        <time>2020-11-03T17:58:41Z</time>
      </trkpt>
      <trkpt lat="41.915589" lon="2.757462">
        <ele>148.810</ele>
        <time>2020-11-03T17:58:42Z</time>
      </trkpt>
      <trkpt lat="41.915538" lon="2.757386">
        <ele>149.024</ele>
        <time>2020-11-03T17:58:43Z</time>
      </trkpt>
      <trkpt lat="41.915488" lon="2.757314">
        <ele>149.042</ele>
        <time>2020-11-03T17:58:44Z</time>
      </trkpt>
      <trkpt lat="41.915441" lon="2.757244">
        <ele>149.094</ele>
        <time>2020-11-03T17:58:45Z</time>
      </trkpt>
      <trkpt lat="41.915397" lon="2.757176">
        <ele>149.020</ele>
        <time>2020-11-03T17:58:46Z</time>
      </trkpt>
      <trkpt lat="41.915353" lon="2.757109">
        <ele>149.225</ele>
        <time>2020-11-03T17:58:47Z</time>
      </trkpt>
      <trkpt lat="41.915312" lon="2.757045">
        <ele>149.290</ele>
        <time>2020-11-03T17:58:48Z</time>
      </trkpt>
      <trkpt lat="41.915269" lon="2.756982">
        <ele>149.223</ele>
        <time>2020-11-03T17:58:49Z</time>
      </trkpt>
      <trkpt lat="41.915219" lon="2.756926">
        <ele>149.274</ele>
        <time>2020-11-03T17:58:50Z</time>
      </trkpt>
      <trkpt lat="41.915158" lon="2.756877">
        <ele>149.256</ele>
        <time>2020-11-03T17:58:51Z</time>
      </trkpt>
      <trkpt lat="41.915089" lon="2.756835">
        <ele>149.221</ele>
        <time>2020-11-03T17:58:52Z</time>
      </trkpt>
      <trkpt lat="41.915021" lon="2.756807">
        <ele>149.208</ele>
        <time>2020-11-03T17:58:53Z</time>
      </trkpt>
      <trkpt lat="41.914952" lon="2.756790">
        <ele>149.263</ele>
        <time>2020-11-03T17:58:54Z</time>
      </trkpt>
      <trkpt lat="41.914877" lon="2.756778">
        <ele>149.057</ele>
        <time>2020-11-03T17:58:55Z</time>
      </trkpt>
      <trkpt lat="41.914799" lon="2.756769">
        <ele>148.885</ele>
        <time>2020-11-03T17:58:56Z</time>
      </trkpt>
      <trkpt lat="41.914720" lon="2.756762">
        <ele>148.477</ele>
        <time>2020-11-03T17:58:57Z</time>
      </trkpt>
      <trkpt lat="41.914635" lon="2.756752">
        <ele>148.093</ele>
        <time>2020-11-03T17:58:58Z</time>
      </trkpt>
      <trkpt lat="41.914551" lon="2.756740">
        <ele>147.648</ele>
        <time>2020-11-03T17:58:59Z</time>
      </trkpt>
      <trkpt lat="41.914467" lon="2.756725">
        <ele>147.263</ele>
        <time>2020-11-03T17:59:00Z</time>
      </trkpt>
      <trkpt lat="41.914381" lon="2.756710">
        <ele>147.236</ele>
        <time>2020-11-03T17:59:01Z</time>
      </trkpt>
      <trkpt lat="41.914295" lon="2.756694">
        <ele>147.083</ele>
        <time>2020-11-03T17:59:02Z</time>
      </trkpt>
      <trkpt lat="41.914209" lon="2.756670">
        <ele>147.225</ele>
        <time>2020-11-03T17:59:03Z</time>
      </trkpt>
      <trkpt lat="41.914125" lon="2.756635">
        <ele>147.217</ele>
        <time>2020-11-03T17:59:04Z</time>
      </trkpt>
      <trkpt lat="41.914044" lon="2.756585">
        <ele>147.008</ele>
        <time>2020-11-03T17:59:05Z</time>
      </trkpt>
      <trkpt lat="41.913968" lon="2.756526">
        <ele>147.024</ele>
        <time>2020-11-03T17:59:06Z</time>
      </trkpt>
      <trkpt lat="41.913902" lon="2.756458">
        <ele>146.688</ele>
        <time>2020-11-03T17:59:07Z</time>
      </trkpt>
      <trkpt lat="41.913845" lon="2.756377">
        <ele>146.246</ele>
        <time>2020-11-03T17:59:08Z</time>
      </trkpt>
      <trkpt lat="41.913791" lon="2.756277">
        <ele>145.828</ele>
        <time>2020-11-03T17:59:09Z</time>
      </trkpt>
      <trkpt lat="41.913736" lon="2.756168">
        <ele>145.684</ele>
        <time>2020-11-03T17:59:10Z</time>
      </trkpt>
      <trkpt lat="41.913681" lon="2.756058">
        <ele>145.249</ele>
        <time>2020-11-03T17:59:11Z</time>
      </trkpt>
      <trkpt lat="41.913623" lon="2.755951">
        <ele>144.644</ele>
        <time>2020-11-03T17:59:12Z</time>
      </trkpt>
      <trkpt lat="41.913564" lon="2.755847">
        <ele>143.887</ele>
        <time>2020-11-03T17:59:13Z</time>
      </trkpt>
      <trkpt lat="41.913503" lon="2.755744">
        <ele>143.432</ele>
        <time>2020-11-03T17:59:14Z</time>
      </trkpt>
      <trkpt lat="41.913441" lon="2.755641">
        <ele>143.092</ele>
        <time>2020-11-03T17:59:15Z</time>
      </trkpt>
      <trkpt lat="41.913378" lon="2.755537">
        <ele>142.811</ele>
        <time>2020-11-03T17:59:16Z</time>
      </trkpt>
      <trkpt lat="41.913315" lon="2.755431">
        <ele>142.808</ele>
        <time>2020-11-03T17:59:17Z</time>
      </trkpt>
      <trkpt lat="41.913254" lon="2.755326">
        <ele>142.639</ele>
        <time>2020-11-03T17:59:18Z</time>
      </trkpt>
      <trkpt lat="41.913190" lon="2.755220">
        <ele>142.693</ele>
        <time>2020-11-03T17:59:19Z</time>
      </trkpt>
      <trkpt lat="41.913126" lon="2.755115">
        <ele>142.661</ele>
        <time>2020-11-03T17:59:20Z</time>
      </trkpt>
      <trkpt lat="41.913060" lon="2.755011">
        <ele>142.413</ele>
        <time>2020-11-03T17:59:21Z</time>
      </trkpt>
      <trkpt lat="41.912991" lon="2.754913">
        <ele>142.219</ele>
        <time>2020-11-03T17:59:22Z</time>
      </trkpt>
      <trkpt lat="41.912922" lon="2.754818">
        <ele>142.084</ele>
        <time>2020-11-03T17:59:23Z</time>
      </trkpt>
      <trkpt lat="41.912851" lon="2.754727">
        <ele>141.869</ele>
        <time>2020-11-03T17:59:24Z</time>
      </trkpt>
      <trkpt lat="41.912781" lon="2.754638">
        <ele>141.662</ele>
        <time>2020-11-03T17:59:25Z</time>
      </trkpt>
      <trkpt lat="41.912713" lon="2.754551">
        <ele>141.478</ele>
        <time>2020-11-03T17:59:26Z</time>
      </trkpt>
      <trkpt lat="41.912645" lon="2.754464">
        <ele>141.433</ele>
        <time>2020-11-03T17:59:27Z</time>
      </trkpt>
      <trkpt lat="41.912579" lon="2.754378">
        <ele>141.226</ele>
        <time>2020-11-03T17:59:28Z</time>
      </trkpt>
      <trkpt lat="41.912514" lon="2.754293">
        <ele>141.208</ele>
        <time>2020-11-03T17:59:29Z</time>
      </trkpt>
      <trkpt lat="41.912454" lon="2.754210">
        <ele>141.233</ele>
        <time>2020-11-03T17:59:30Z</time>
      </trkpt>
      <trkpt lat="41.912397" lon="2.754127">
        <ele>141.487</ele>
        <time>2020-11-03T17:59:31Z</time>
      </trkpt>
      <trkpt lat="41.912341" lon="2.754044">
        <ele>141.645</ele>
        <time>2020-11-03T17:59:32Z</time>
      </trkpt>
      <trkpt lat="41.912288" lon="2.753962">
        <ele>141.827</ele>
        <time>2020-11-03T17:59:33Z</time>
      </trkpt>
      <trkpt lat="41.912238" lon="2.753883">
        <ele>142.093</ele>
        <time>2020-11-03T17:59:34Z</time>
      </trkpt>
      <trkpt lat="41.912192" lon="2.753809">
        <ele>142.238</ele>
        <time>2020-11-03T17:59:35Z</time>
      </trkpt>
      <trkpt lat="41.912154" lon="2.753744">
        <ele>142.433</ele>
        <time>2020-11-03T17:59:36Z</time>
      </trkpt>
      <trkpt lat="41.912125" lon="2.753692">
        <ele>142.656</ele>
        <time>2020-11-03T17:59:37Z</time>
      </trkpt>
      <trkpt lat="41.912104" lon="2.753654">
        <ele>143.027</ele>
        <time>2020-11-03T17:59:38Z</time>
      </trkpt>
      <trkpt lat="41.912089" lon="2.753628">
        <ele>143.668</ele>
        <time>2020-11-03T17:59:39Z</time>
      </trkpt>
      <trkpt lat="41.912080" lon="2.753618">
        <ele>144.014</ele>
        <time>2020-11-03T17:59:40Z</time>
      </trkpt>
      <trkpt lat="41.912080" lon="2.753616">
        <ele>144.208</ele>
        <time>2020-11-03T17:59:41Z</time>
      </trkpt>
      <trkpt lat="41.912079" lon="2.753612">
        <ele>144.268</ele>
        <time>2020-11-03T18:00:15Z</time>
      </trkpt>
      <trkpt lat="41.912056" lon="2.753586">
        <ele>144.292</ele>
        <time>2020-11-03T18:00:16Z</time>
      </trkpt>
      <trkpt lat="41.912026" lon="2.753555">
        <ele>144.070</ele>
        <time>2020-11-03T18:00:17Z</time>
      </trkpt>
      <trkpt lat="41.911984" lon="2.753505">
        <ele>143.842</ele>
        <time>2020-11-03T18:00:18Z</time>
      </trkpt>
      <trkpt lat="41.911938" lon="2.753455">
        <ele>143.648</ele>
        <time>2020-11-03T18:00:19Z</time>
      </trkpt>
      <trkpt lat="41.911887" lon="2.753403">
        <ele>143.293</ele>
        <time>2020-11-03T18:00:20Z</time>
      </trkpt>
      <trkpt lat="41.911833" lon="2.753347">
        <ele>142.888</ele>
        <time>2020-11-03T18:00:21Z</time>
      </trkpt>
      <trkpt lat="41.911782" lon="2.753290">
        <ele>142.481</ele>
        <time>2020-11-03T18:00:22Z</time>
      </trkpt>
      <trkpt lat="41.911726" lon="2.753221">
        <ele>142.068</ele>
        <time>2020-11-03T18:00:23Z</time>
      </trkpt>
      <trkpt lat="41.911671" lon="2.753149">
        <ele>141.842</ele>
        <time>2020-11-03T18:00:24Z</time>
      </trkpt>
      <trkpt lat="41.911618" lon="2.753077">
        <ele>141.426</ele>
        <time>2020-11-03T18:00:25Z</time>
      </trkpt>
      <trkpt lat="41.911567" lon="2.753011">
        <ele>141.008</ele>
        <time>2020-11-03T18:00:26Z</time>
      </trkpt>
      <trkpt lat="41.911518" lon="2.752948">
        <ele>140.412</ele>
        <time>2020-11-03T18:00:27Z</time>
      </trkpt>
      <trkpt lat="41.911470" lon="2.752885">
        <ele>139.856</ele>
        <time>2020-11-03T18:00:28Z</time>
      </trkpt>
      <trkpt lat="41.911427" lon="2.752815">
        <ele>139.054</ele>
        <time>2020-11-03T18:00:29Z</time>
      </trkpt>
      <trkpt lat="41.911391" lon="2.752732">
        <ele>138.256</ele>
        <time>2020-11-03T18:00:30Z</time>
      </trkpt>
      <trkpt lat="41.911358" lon="2.752641">
        <ele>137.612</ele>
        <time>2020-11-03T18:00:31Z</time>
      </trkpt>
      <trkpt lat="41.911324" lon="2.752544">
        <ele>136.847</ele>
        <time>2020-11-03T18:00:32Z</time>
      </trkpt>
      <trkpt lat="41.911284" lon="2.752446">
        <ele>136.282</ele>
        <time>2020-11-03T18:00:33Z</time>
      </trkpt>
      <trkpt lat="41.911237" lon="2.752351">
        <ele>135.245</ele>
        <time>2020-11-03T18:00:34Z</time>
      </trkpt>
      <trkpt lat="41.911187" lon="2.752260">
        <ele>134.668</ele>
        <time>2020-11-03T18:00:35Z</time>
      </trkpt>
      <trkpt lat="41.911132" lon="2.752169">
        <ele>133.842</ele>
        <time>2020-11-03T18:00:36Z</time>
      </trkpt>
      <trkpt lat="41.911079" lon="2.752082">
        <ele>133.426</ele>
        <time>2020-11-03T18:00:37Z</time>
      </trkpt>
      <trkpt lat="41.911033" lon="2.752001">
        <ele>133.008</ele>
        <time>2020-11-03T18:00:38Z</time>
      </trkpt>
      <trkpt lat="41.910991" lon="2.751926">
        <ele>132.672</ele>
        <time>2020-11-03T18:00:39Z</time>
      </trkpt>
      <trkpt lat="41.910951" lon="2.751864">
        <ele>132.296</ele>
        <time>2020-11-03T18:00:40Z</time>
      </trkpt>
      <trkpt lat="41.910906" lon="2.751820">
        <ele>131.814</ele>
        <time>2020-11-03T18:00:41Z</time>
      </trkpt>
      <trkpt lat="41.910853" lon="2.751801">
        <ele>131.626</ele>
        <time>2020-11-03T18:00:42Z</time>
      </trkpt>
      <trkpt lat="41.910795" lon="2.751798">
        <ele>131.452</ele>
        <time>2020-11-03T18:00:43Z</time>
      </trkpt>
      <trkpt lat="41.910732" lon="2.751807">
        <ele>131.227</ele>
        <time>2020-11-03T18:00:44Z</time>
      </trkpt>
      <trkpt lat="41.910665" lon="2.751825">
        <ele>131.072</ele>
        <time>2020-11-03T18:00:45Z</time>
      </trkpt>
      <trkpt lat="41.910595" lon="2.751847">
        <ele>130.895</ele>
        <time>2020-11-03T18:00:46Z</time>
      </trkpt>
      <trkpt lat="41.910523" lon="2.751866">
        <ele>130.249</ele>
        <time>2020-11-03T18:00:47Z</time>
      </trkpt>
      <trkpt lat="41.910449" lon="2.751878">
        <ele>129.802</ele>
        <time>2020-11-03T18:00:48Z</time>
      </trkpt>
      <trkpt lat="41.910375" lon="2.751883">
        <ele>129.422</ele>
        <time>2020-11-03T18:00:49Z</time>
      </trkpt>
      <trkpt lat="41.910297" lon="2.751882">
        <ele>129.008</ele>
        <time>2020-11-03T18:00:50Z</time>
      </trkpt>
      <trkpt lat="41.910219" lon="2.751874">
        <ele>128.840</ele>
        <time>2020-11-03T18:00:51Z</time>
      </trkpt>
      <trkpt lat="41.910143" lon="2.751858">
        <ele>128.634</ele>
        <time>2020-11-03T18:00:52Z</time>
      </trkpt>
      <trkpt lat="41.910066" lon="2.751834">
        <ele>128.462</ele>
        <time>2020-11-03T18:00:53Z</time>
      </trkpt>
      <trkpt lat="41.909989" lon="2.751802">
        <ele>128.624</ele>
        <time>2020-11-03T18:00:54Z</time>
      </trkpt>
      <trkpt lat="41.909913" lon="2.751763">
        <ele>128.690</ele>
        <time>2020-11-03T18:00:55Z</time>
      </trkpt>
      <trkpt lat="41.909840" lon="2.751715">
        <ele>128.615</ele>
        <time>2020-11-03T18:00:56Z</time>
      </trkpt>
      <trkpt lat="41.909769" lon="2.751660">
        <ele>128.680</ele>
        <time>2020-11-03T18:00:57Z</time>
      </trkpt>
      <trkpt lat="41.909702" lon="2.751600">
        <ele>128.883</ele>
        <time>2020-11-03T18:00:58Z</time>
      </trkpt>
      <trkpt lat="41.909639" lon="2.751532">
        <ele>128.817</ele>
        <time>2020-11-03T18:00:59Z</time>
      </trkpt>
      <trkpt lat="41.909578" lon="2.751458">
        <ele>128.887</ele>
        <time>2020-11-03T18:01:00Z</time>
      </trkpt>
      <trkpt lat="41.909521" lon="2.751378">
        <ele>128.815</ele>
        <time>2020-11-03T18:01:01Z</time>
      </trkpt>
      <trkpt lat="41.909470" lon="2.751292">
        <ele>129.008</ele>
        <time>2020-11-03T18:01:02Z</time>
      </trkpt>
      <trkpt lat="41.909425" lon="2.751201">
        <ele>129.257</ele>
        <time>2020-11-03T18:01:03Z</time>
      </trkpt>
      <trkpt lat="41.909384" lon="2.751105">
        <ele>129.291</ele>
        <time>2020-11-03T18:01:04Z</time>
      </trkpt>
      <trkpt lat="41.909345" lon="2.751008">
        <ele>129.419</ele>
        <time>2020-11-03T18:01:05Z</time>
      </trkpt>
      <trkpt lat="41.909310" lon="2.750908">
        <ele>129.621</ele>
        <time>2020-11-03T18:01:06Z</time>
      </trkpt>
      <trkpt lat="41.909279" lon="2.750806">
        <ele>129.827</ele>
        <time>2020-11-03T18:01:07Z</time>
      </trkpt>
      <trkpt lat="41.909251" lon="2.750703">
        <ele>129.832</ele>
        <time>2020-11-03T18:01:08Z</time>
      </trkpt>
      <trkpt lat="41.909222" lon="2.750600">
        <ele>129.887</ele>
        <time>2020-11-03T18:01:09Z</time>
      </trkpt>
      <trkpt lat="41.909195" lon="2.750498">
        <ele>130.070</ele>
        <time>2020-11-03T18:01:10Z</time>
      </trkpt>
      <trkpt lat="41.909168" lon="2.750396">
        <ele>130.079</ele>
        <time>2020-11-03T18:01:11Z</time>
      </trkpt>
      <trkpt lat="41.909139" lon="2.750294">
        <ele>130.005</ele>
        <time>2020-11-03T18:01:12Z</time>
      </trkpt>
      <trkpt lat="41.909110" lon="2.750194">
        <ele>130.025</ele>
        <time>2020-11-03T18:01:13Z</time>
      </trkpt>
      <trkpt lat="41.909083" lon="2.750093">
        <ele>130.208</ele>
        <time>2020-11-03T18:01:14Z</time>
      </trkpt>
      <trkpt lat="41.909059" lon="2.749992">
        <ele>130.213</ele>
        <time>2020-11-03T18:01:15Z</time>
      </trkpt>
      <trkpt lat="41.909039" lon="2.749891">
        <ele>130.487</ele>
        <time>2020-11-03T18:01:16Z</time>
      </trkpt>
      <trkpt lat="41.909026" lon="2.749788">
        <ele>130.455</ele>
        <time>2020-11-03T18:01:17Z</time>
      </trkpt>
      <trkpt lat="41.909016" lon="2.749685">
        <ele>130.437</ele>
        <time>2020-11-03T18:01:18Z</time>
      </trkpt>
      <trkpt lat="41.909008" lon="2.749581">
        <ele>130.483</ele>
        <time>2020-11-03T18:01:19Z</time>
      </trkpt>
      <trkpt lat="41.908999" lon="2.749477">
        <ele>130.498</ele>
        <time>2020-11-03T18:01:20Z</time>
      </trkpt>
      <trkpt lat="41.908989" lon="2.749376">
        <ele>130.643</ele>
        <time>2020-11-03T18:01:21Z</time>
      </trkpt>
      <trkpt lat="41.908979" lon="2.749277">
        <ele>130.646</ele>
        <time>2020-11-03T18:01:22Z</time>
      </trkpt>
      <trkpt lat="41.908970" lon="2.749180">
        <ele>130.657</ele>
        <time>2020-11-03T18:01:23Z</time>
      </trkpt>
      <trkpt lat="41.908960" lon="2.749082">
        <ele>130.800</ele>
        <time>2020-11-03T18:01:24Z</time>
      </trkpt>
      <trkpt lat="41.908948" lon="2.748984">
        <ele>130.820</ele>
        <time>2020-11-03T18:01:25Z</time>
      </trkpt>
      <trkpt lat="41.908937" lon="2.748885">
        <ele>131.008</ele>
        <time>2020-11-03T18:01:26Z</time>
      </trkpt>
      <trkpt lat="41.908927" lon="2.748786">
        <ele>131.251</ele>
        <time>2020-11-03T18:01:27Z</time>
      </trkpt>
      <trkpt lat="41.908916" lon="2.748687">
        <ele>131.465</ele>
        <time>2020-11-03T18:01:28Z</time>
      </trkpt>
      <trkpt lat="41.908902" lon="2.748590">
        <ele>131.463</ele>
        <time>2020-11-03T18:01:29Z</time>
      </trkpt>
      <trkpt lat="41.908885" lon="2.748495">
        <ele>131.635</ele>
        <time>2020-11-03T18:01:30Z</time>
      </trkpt>
      <trkpt lat="41.908866" lon="2.748402">
        <ele>131.661</ele>
        <time>2020-11-03T18:01:31Z</time>
      </trkpt>
      <trkpt lat="41.908851" lon="2.748313">
        <ele>131.886</ele>
        <time>2020-11-03T18:01:32Z</time>
      </trkpt>
      <trkpt lat="41.908835" lon="2.748226">
        <ele>132.011</ele>
        <time>2020-11-03T18:01:33Z</time>
      </trkpt>
      <trkpt lat="41.908816" lon="2.748142">
        <ele>132.454</ele>
        <time>2020-11-03T18:01:34Z</time>
      </trkpt>
      <trkpt lat="41.908794" lon="2.748062">
        <ele>132.683</ele>
        <time>2020-11-03T18:01:35Z</time>
      </trkpt>
      <trkpt lat="41.908772" lon="2.747987">
        <ele>132.625</ele>
        <time>2020-11-03T18:01:36Z</time>
      </trkpt>
      <trkpt lat="41.908751" lon="2.747913">
        <ele>133.017</ele>
        <time>2020-11-03T18:01:37Z</time>
      </trkpt>
      <trkpt lat="41.908727" lon="2.747843">
        <ele>133.208</ele>
        <time>2020-11-03T18:01:38Z</time>
      </trkpt>
      <trkpt lat="41.908704" lon="2.747777">
        <ele>133.824</ele>
        <time>2020-11-03T18:01:39Z</time>
      </trkpt>
      <trkpt lat="41.908683" lon="2.747715">
        <ele>134.228</ele>
        <time>2020-11-03T18:01:40Z</time>
      </trkpt>
      <trkpt lat="41.908663" lon="2.747653">
        <ele>134.646</ele>
        <time>2020-11-03T18:01:41Z</time>
      </trkpt>
      <trkpt lat="41.908639" lon="2.747597">
        <ele>135.068</ele>
        <time>2020-11-03T18:01:42Z</time>
      </trkpt>
      <trkpt lat="41.908608" lon="2.747548">
        <ele>135.474</ele>
        <time>2020-11-03T18:01:43Z</time>
      </trkpt>
      <trkpt lat="41.908572" lon="2.747502">
        <ele>135.689</ele>
        <time>2020-11-03T18:01:44Z</time>
      </trkpt>
      <trkpt lat="41.908533" lon="2.747462">
        <ele>136.294</ele>
        <time>2020-11-03T18:01:45Z</time>
      </trkpt>
      <trkpt lat="41.908493" lon="2.747432">
        <ele>136.887</ele>
        <time>2020-11-03T18:01:46Z</time>
      </trkpt>
      <trkpt lat="41.908450" lon="2.747406">
        <ele>137.483</ele>
        <time>2020-11-03T18:01:47Z</time>
      </trkpt>
      <trkpt lat="41.908409" lon="2.747385">
        <ele>137.825</ele>
        <time>2020-11-03T18:01:48Z</time>
      </trkpt>
      <trkpt lat="41.908369" lon="2.747364">
        <ele>138.217</ele>
        <time>2020-11-03T18:01:49Z</time>
      </trkpt>
      <trkpt lat="41.908332" lon="2.747340">
        <ele>138.408</ele>
        <time>2020-11-03T18:01:50Z</time>
      </trkpt>
      <trkpt lat="41.908300" lon="2.747308">
        <ele>138.484</ele>
        <time>2020-11-03T18:01:51Z</time>
      </trkpt>
      <trkpt lat="41.908275" lon="2.747267">
        <ele>138.828</ele>
        <time>2020-11-03T18:01:52Z</time>
      </trkpt>
      <trkpt lat="41.908258" lon="2.747222">
        <ele>139.076</ele>
        <time>2020-11-03T18:01:53Z</time>
      </trkpt>
      <trkpt lat="41.908247" lon="2.747172">
        <ele>139.418</ele>
        <time>2020-11-03T18:01:54Z</time>
      </trkpt>
      <trkpt lat="41.908237" lon="2.747122">
        <ele>139.834</ele>
        <time>2020-11-03T18:01:55Z</time>
      </trkpt>
      <trkpt lat="41.908225" lon="2.747075">
        <ele>140.289</ele>
        <time>2020-11-03T18:01:56Z</time>
      </trkpt>
      <trkpt lat="41.908205" lon="2.747039">
        <ele>140.494</ele>
        <time>2020-11-03T18:01:57Z</time>
      </trkpt>
      <trkpt lat="41.908178" lon="2.747012">
        <ele>140.867</ele>
        <time>2020-11-03T18:01:58Z</time>
      </trkpt>
      <trkpt lat="41.908147" lon="2.746989">
        <ele>141.075</ele>
        <time>2020-11-03T18:01:59Z</time>
      </trkpt>
      <trkpt lat="41.908111" lon="2.746965">
        <ele>141.228</ele>
        <time>2020-11-03T18:02:00Z</time>
      </trkpt>
      <trkpt lat="41.908077" lon="2.746942">
        <ele>141.420</ele>
        <time>2020-11-03T18:02:01Z</time>
      </trkpt>
      <trkpt lat="41.908044" lon="2.746914">
        <ele>141.408</ele>
        <time>2020-11-03T18:02:02Z</time>
      </trkpt>
      <trkpt lat="41.908005" lon="2.746889">
        <ele>141.693</ele>
        <time>2020-11-03T18:02:03Z</time>
      </trkpt>
      <trkpt lat="41.907958" lon="2.746859">
        <ele>141.677</ele>
        <time>2020-11-03T18:02:04Z</time>
      </trkpt>
      <trkpt lat="41.907907" lon="2.746828">
        <ele>141.425</ele>
        <time>2020-11-03T18:02:05Z</time>
      </trkpt>
      <trkpt lat="41.907857" lon="2.746797">
        <ele>141.497</ele>
        <time>2020-11-03T18:02:06Z</time>
      </trkpt>
      <trkpt lat="41.907809" lon="2.746763">
        <ele>141.263</ele>
        <time>2020-11-03T18:02:07Z</time>
      </trkpt>
      <trkpt lat="41.907759" lon="2.746727">
        <ele>141.268</ele>
        <time>2020-11-03T18:02:08Z</time>
      </trkpt>
      <trkpt lat="41.907710" lon="2.746689">
        <ele>141.023</ele>
        <time>2020-11-03T18:02:09Z</time>
      </trkpt>
      <trkpt lat="41.907662" lon="2.746651">
        <ele>140.846</ele>
        <time>2020-11-03T18:02:10Z</time>
      </trkpt>
      <trkpt lat="41.907612" lon="2.746611">
        <ele>140.837</ele>
        <time>2020-11-03T18:02:11Z</time>
      </trkpt>
      <trkpt lat="41.907560" lon="2.746569">
        <ele>140.649</ele>
        <time>2020-11-03T18:02:12Z</time>
      </trkpt>
      <trkpt lat="41.907505" lon="2.746526">
        <ele>140.413</ele>
        <time>2020-11-03T18:02:13Z</time>
      </trkpt>
      <trkpt lat="41.907444" lon="2.746484">
        <ele>140.208</ele>
        <time>2020-11-03T18:02:14Z</time>
      </trkpt>
      <trkpt lat="41.907379" lon="2.746447">
        <ele>139.879</ele>
        <time>2020-11-03T18:02:15Z</time>
      </trkpt>
      <trkpt lat="41.907315" lon="2.746401">
        <ele>139.483</ele>
        <time>2020-11-03T18:02:16Z</time>
      </trkpt>
      <trkpt lat="41.907249" lon="2.746355">
        <ele>139.081</ele>
        <time>2020-11-03T18:02:17Z</time>
      </trkpt>
      <trkpt lat="41.907177" lon="2.746308">
        <ele>138.633</ele>
        <time>2020-11-03T18:02:18Z</time>
      </trkpt>
      <trkpt lat="41.907110" lon="2.746262">
        <ele>138.079</ele>
        <time>2020-11-03T18:02:19Z</time>
      </trkpt>
      <trkpt lat="41.907041" lon="2.746217">
        <ele>137.854</ele>
        <time>2020-11-03T18:02:20Z</time>
      </trkpt>
      <trkpt lat="41.906977" lon="2.746171">
        <ele>137.659</ele>
        <time>2020-11-03T18:02:21Z</time>
      </trkpt>
      <trkpt lat="41.906923" lon="2.746129">
        <ele>137.432</ele>
        <time>2020-11-03T18:02:22Z</time>
      </trkpt>
      <trkpt lat="41.906875" lon="2.746090">
        <ele>137.276</ele>
        <time>2020-11-03T18:02:23Z</time>
      </trkpt>
      <trkpt lat="41.906829" lon="2.746055">
        <ele>137.290</ele>
        <time>2020-11-03T18:02:24Z</time>
      </trkpt>
      <trkpt lat="41.906783" lon="2.746024">
        <ele>137.219</ele>
        <time>2020-11-03T18:02:25Z</time>
      </trkpt>
      <trkpt lat="41.906745" lon="2.745990">
        <ele>137.408</ele>
        <time>2020-11-03T18:02:26Z</time>
      </trkpt>
      <trkpt lat="41.906722" lon="2.745967">
        <ele>137.613</ele>
        <time>2020-11-03T18:02:27Z</time>
      </trkpt>
      <trkpt lat="41.906703" lon="2.745952">
        <ele>138.037</ele>
        <time>2020-11-03T18:02:28Z</time>
      </trkpt>
      <trkpt lat="41.906688" lon="2.745912">
        <ele>138.275</ele>
        <time>2020-11-03T18:02:29Z</time>
      </trkpt>
      <trkpt lat="41.906662" lon="2.745873">
        <ele>138.657</ele>
        <time>2020-11-03T18:02:30Z</time>
      </trkpt>
      <trkpt lat="41.906641" lon="2.745825">
        <ele>138.893</ele>
        <time>2020-11-03T18:02:31Z</time>
      </trkpt>
      <trkpt lat="41.906621" lon="2.745770">
        <ele>139.248</ele>
        <time>2020-11-03T18:02:32Z</time>
      </trkpt>
      <trkpt lat="41.906598" lon="2.745715">
        <ele>139.423</ele>
        <time>2020-11-03T18:02:33Z</time>
      </trkpt>
      <trkpt lat="41.906576" lon="2.745656">
        <ele>139.816</ele>
        <time>2020-11-03T18:02:34Z</time>
      </trkpt>
      <trkpt lat="41.906548" lon="2.745599">
        <ele>140.293</ele>
        <time>2020-11-03T18:02:35Z</time>
      </trkpt>
      <trkpt lat="41.906523" lon="2.745540">
        <ele>140.865</ele>
        <time>2020-11-03T18:02:36Z</time>
      </trkpt>
      <trkpt lat="41.906500" lon="2.745481">
        <ele>141.221</ele>
        <time>2020-11-03T18:02:37Z</time>
      </trkpt>
      <trkpt lat="41.906480" lon="2.745430">
        <ele>141.608</ele>
        <time>2020-11-03T18:02:38Z</time>
      </trkpt>
      <trkpt lat="41.906464" lon="2.745382">
        <ele>142.045</ele>
        <time>2020-11-03T18:02:39Z</time>
      </trkpt>
      <trkpt lat="41.906446" lon="2.745330">
        <ele>142.239</ele>
        <time>2020-11-03T18:02:40Z</time>
      </trkpt>
      <trkpt lat="41.906427" lon="2.745274">
        <ele>142.487</ele>
        <time>2020-11-03T18:02:41Z</time>
      </trkpt>
      <trkpt lat="41.906397" lon="2.745214">
        <ele>142.679</ele>
        <time>2020-11-03T18:02:42Z</time>
      </trkpt>
      <trkpt lat="41.906361" lon="2.745158">
        <ele>142.875</ele>
        <time>2020-11-03T18:02:43Z</time>
      </trkpt>
      <trkpt lat="41.906321" lon="2.745105">
        <ele>142.870</ele>
        <time>2020-11-03T18:02:44Z</time>
      </trkpt>
      <trkpt lat="41.906279" lon="2.745050">
        <ele>143.085</ele>
        <time>2020-11-03T18:02:45Z</time>
      </trkpt>
      <trkpt lat="41.906238" lon="2.744993">
        <ele>143.088</ele>
        <time>2020-11-03T18:02:46Z</time>
      </trkpt>
      <trkpt lat="41.906195" lon="2.744936">
        <ele>142.855</ele>
        <time>2020-11-03T18:02:47Z</time>
      </trkpt>
      <trkpt lat="41.906148" lon="2.744878">
        <ele>142.807</ele>
        <time>2020-11-03T18:02:48Z</time>
      </trkpt>
      <trkpt lat="41.906101" lon="2.744819">
        <ele>142.617</ele>
        <time>2020-11-03T18:02:49Z</time>
      </trkpt>
      <trkpt lat="41.906054" lon="2.744757">
        <ele>142.408</ele>
        <time>2020-11-03T18:02:50Z</time>
      </trkpt>
      <trkpt lat="41.906007" lon="2.744691">
        <ele>142.211</ele>
        <time>2020-11-03T18:02:51Z</time>
      </trkpt>
      <trkpt lat="41.905958" lon="2.744623">
        <ele>142.025</ele>
        <time>2020-11-03T18:02:52Z</time>
      </trkpt>
      <trkpt lat="41.905908" lon="2.744554">
        <ele>141.883</ele>
        <time>2020-11-03T18:02:53Z</time>
      </trkpt>
      <trkpt lat="41.905857" lon="2.744485">
        <ele>141.695</ele>
        <time>2020-11-03T18:02:54Z</time>
      </trkpt>
      <trkpt lat="41.905803" lon="2.744419">
        <ele>141.281</ele>
        <time>2020-11-03T18:02:55Z</time>
      </trkpt>
      <trkpt lat="41.905746" lon="2.744357">
        <ele>141.046</ele>
        <time>2020-11-03T18:02:56Z</time>
      </trkpt>
      <trkpt lat="41.905686" lon="2.744299">
        <ele>140.891</ele>
        <time>2020-11-03T18:02:57Z</time>
      </trkpt>
      <trkpt lat="41.905622" lon="2.744243">
        <ele>140.614</ele>
        <time>2020-11-03T18:02:58Z</time>
      </trkpt>
      <trkpt lat="41.905556" lon="2.744192">
        <ele>140.496</ele>
        <time>2020-11-03T18:02:59Z</time>
      </trkpt>
      <trkpt lat="41.905486" lon="2.744145">
        <ele>140.231</ele>
        <time>2020-11-03T18:03:00Z</time>
      </trkpt>
      <trkpt lat="41.905414" lon="2.744101">
        <ele>140.024</ele>
        <time>2020-11-03T18:03:01Z</time>
      </trkpt>
      <trkpt lat="41.905339" lon="2.744063">
        <ele>139.808</ele>
        <time>2020-11-03T18:03:02Z</time>
      </trkpt>
      <trkpt lat="41.905260" lon="2.744031">
        <ele>139.455</ele>
        <time>2020-11-03T18:03:03Z</time>
      </trkpt>
      <trkpt lat="41.905181" lon="2.744001">
        <ele>139.099</ele>
        <time>2020-11-03T18:03:04Z</time>
      </trkpt>
      <trkpt lat="41.905100" lon="2.743973">
        <ele>138.827</ele>
        <time>2020-11-03T18:03:05Z</time>
      </trkpt>
      <trkpt lat="41.905018" lon="2.743946">
        <ele>138.449</ele>
        <time>2020-11-03T18:03:06Z</time>
      </trkpt>
      <trkpt lat="41.904936" lon="2.743920">
        <ele>138.275</ele>
        <time>2020-11-03T18:03:07Z</time>
      </trkpt>
      <trkpt lat="41.904854" lon="2.743892">
        <ele>138.050</ele>
        <time>2020-11-03T18:03:08Z</time>
      </trkpt>
      <trkpt lat="41.904771" lon="2.743859">
        <ele>137.825</ele>
        <time>2020-11-03T18:03:09Z</time>
      </trkpt>
      <trkpt lat="41.904688" lon="2.743823">
        <ele>137.688</ele>
        <time>2020-11-03T18:03:10Z</time>
      </trkpt>
      <trkpt lat="41.904606" lon="2.743785">
        <ele>137.624</ele>
        <time>2020-11-03T18:03:11Z</time>
      </trkpt>
      <trkpt lat="41.904525" lon="2.743744">
        <ele>137.404</ele>
        <time>2020-11-03T18:03:12Z</time>
      </trkpt>
      <trkpt lat="41.904444" lon="2.743700">
        <ele>137.214</ele>
        <time>2020-11-03T18:03:13Z</time>
      </trkpt>
      <trkpt lat="41.904366" lon="2.743654">
        <ele>137.008</ele>
        <time>2020-11-03T18:03:14Z</time>
      </trkpt>
      <trkpt lat="41.904289" lon="2.743608">
        <ele>137.058</ele>
        <time>2020-11-03T18:03:15Z</time>
      </trkpt>
      <trkpt lat="41.904213" lon="2.743563">
        <ele>137.082</ele>
        <time>2020-11-03T18:03:16Z</time>
      </trkpt>
      <trkpt lat="41.904140" lon="2.743518">
        <ele>137.030</ele>
        <time>2020-11-03T18:03:17Z</time>
      </trkpt>
      <trkpt lat="41.904067" lon="2.743473">
        <ele>137.022</ele>
        <time>2020-11-03T18:03:18Z</time>
      </trkpt>
      <trkpt lat="41.903994" lon="2.743427">
        <ele>137.058</ele>
        <time>2020-11-03T18:03:19Z</time>
      </trkpt>
      <trkpt lat="41.903922" lon="2.743381">
        <ele>137.253</ele>
        <time>2020-11-03T18:03:20Z</time>
      </trkpt>
      <trkpt lat="41.903849" lon="2.743337">
        <ele>137.228</ele>
        <time>2020-11-03T18:03:21Z</time>
      </trkpt>
      <trkpt lat="41.903775" lon="2.743294">
        <ele>137.491</ele>
        <time>2020-11-03T18:03:22Z</time>
      </trkpt>
      <trkpt lat="41.903701" lon="2.743251">
        <ele>137.441</ele>
        <time>2020-11-03T18:03:23Z</time>
      </trkpt>
      <trkpt lat="41.903626" lon="2.743209">
        <ele>137.281</ele>
        <time>2020-11-03T18:03:24Z</time>
      </trkpt>
      <trkpt lat="41.903551" lon="2.743173">
        <ele>137.009</ele>
        <time>2020-11-03T18:03:25Z</time>
      </trkpt>
      <trkpt lat="41.903476" lon="2.743140">
        <ele>136.808</ele>
        <time>2020-11-03T18:03:26Z</time>
      </trkpt>
      <trkpt lat="41.903400" lon="2.743110">
        <ele>136.670</ele>
        <time>2020-11-03T18:03:27Z</time>
      </trkpt>
      <trkpt lat="41.903326" lon="2.743076">
        <ele>136.294</ele>
        <time>2020-11-03T18:03:28Z</time>
      </trkpt>
      <trkpt lat="41.903256" lon="2.743036">
        <ele>136.012</ele>
        <time>2020-11-03T18:03:29Z</time>
      </trkpt>
      <trkpt lat="41.903192" lon="2.742994">
        <ele>136.024</ele>
        <time>2020-11-03T18:03:30Z</time>
      </trkpt>
      <trkpt lat="41.903131" lon="2.742952">
        <ele>135.880</ele>
        <time>2020-11-03T18:03:31Z</time>
      </trkpt>
      <trkpt lat="41.903069" lon="2.742909">
        <ele>135.865</ele>
        <time>2020-11-03T18:03:32Z</time>
      </trkpt>
      <trkpt lat="41.903008" lon="2.742865">
        <ele>135.650</ele>
        <time>2020-11-03T18:03:33Z</time>
      </trkpt>
      <trkpt lat="41.902945" lon="2.742826">
        <ele>135.643</ele>
        <time>2020-11-03T18:03:34Z</time>
      </trkpt>
      <trkpt lat="41.902878" lon="2.742793">
        <ele>135.454</ele>
        <time>2020-11-03T18:03:35Z</time>
      </trkpt>
      <trkpt lat="41.902810" lon="2.742770">
        <ele>135.256</ele>
        <time>2020-11-03T18:03:36Z</time>
      </trkpt>
      <trkpt lat="41.902743" lon="2.742754">
        <ele>135.211</ele>
        <time>2020-11-03T18:03:37Z</time>
      </trkpt>
      <trkpt lat="41.902676" lon="2.742743">
        <ele>135.008</ele>
        <time>2020-11-03T18:03:38Z</time>
      </trkpt>
      <trkpt lat="41.902608" lon="2.742733">
        <ele>134.851</ele>
        <time>2020-11-03T18:03:39Z</time>
      </trkpt>
      <trkpt lat="41.902541" lon="2.742723">
        <ele>134.435</ele>
        <time>2020-11-03T18:03:40Z</time>
      </trkpt>
      <trkpt lat="41.902473" lon="2.742713">
        <ele>134.243</ele>
        <time>2020-11-03T18:03:41Z</time>
      </trkpt>
      <trkpt lat="41.902404" lon="2.742703">
        <ele>134.085</ele>
        <time>2020-11-03T18:03:42Z</time>
      </trkpt>
      <trkpt lat="41.902334" lon="2.742695">
        <ele>133.851</ele>
        <time>2020-11-03T18:03:43Z</time>
      </trkpt>
      <trkpt lat="41.902261" lon="2.742688">
        <ele>133.886</ele>
        <time>2020-11-03T18:03:44Z</time>
      </trkpt>
      <trkpt lat="41.902185" lon="2.742677">
        <ele>133.811</ele>
        <time>2020-11-03T18:03:45Z</time>
      </trkpt>
      <trkpt lat="41.902110" lon="2.742655">
        <ele>133.634</ele>
        <time>2020-11-03T18:03:46Z</time>
      </trkpt>
      <trkpt lat="41.902037" lon="2.742616">
        <ele>133.272</ele>
        <time>2020-11-03T18:03:47Z</time>
      </trkpt>
      <trkpt lat="41.901969" lon="2.742562">
        <ele>133.013</ele>
        <time>2020-11-03T18:03:48Z</time>
      </trkpt>
      <trkpt lat="41.901907" lon="2.742497">
        <ele>132.814</ele>
        <time>2020-11-03T18:03:49Z</time>
      </trkpt>
      <trkpt lat="41.901850" lon="2.742422">
        <ele>132.808</ele>
        <time>2020-11-03T18:03:50Z</time>
      </trkpt>
      <trkpt lat="41.901793" lon="2.742346">
        <ele>132.673</ele>
        <time>2020-11-03T18:03:51Z</time>
      </trkpt>
      <trkpt lat="41.901738" lon="2.742273">
        <ele>132.487</ele>
        <time>2020-11-03T18:03:52Z</time>
      </trkpt>
      <trkpt lat="41.901684" lon="2.742206">
        <ele>132.225</ele>
        <time>2020-11-03T18:03:53Z</time>
      </trkpt>
      <trkpt lat="41.901632" lon="2.742148">
        <ele>131.837</ele>
        <time>2020-11-03T18:03:54Z</time>
      </trkpt>
      <trkpt lat="41.901579" lon="2.742096">
        <ele>131.623</ele>
        <time>2020-11-03T18:03:55Z</time>
      </trkpt>
      <trkpt lat="41.901526" lon="2.742046">
        <ele>131.418</ele>
        <time>2020-11-03T18:03:56Z</time>
      </trkpt>
      <trkpt lat="41.901478" lon="2.741994">
        <ele>131.223</ele>
        <time>2020-11-03T18:03:57Z</time>
      </trkpt>
      <trkpt lat="41.901431" lon="2.741940">
        <ele>131.066</ele>
        <time>2020-11-03T18:03:58Z</time>
      </trkpt>
      <trkpt lat="41.901385" lon="2.741885">
        <ele>131.028</ele>
        <time>2020-11-03T18:03:59Z</time>
      </trkpt>
      <trkpt lat="41.901338" lon="2.741830">
        <ele>130.889</ele>
        <time>2020-11-03T18:04:00Z</time>
      </trkpt>
      <trkpt lat="41.901290" lon="2.741773">
        <ele>130.817</ele>
        <time>2020-11-03T18:04:01Z</time>
      </trkpt>
      <trkpt lat="41.901243" lon="2.741711">
        <ele>130.608</ele>
        <time>2020-11-03T18:04:02Z</time>
      </trkpt>
      <trkpt lat="41.901190" lon="2.741649">
        <ele>130.268</ele>
        <time>2020-11-03T18:04:03Z</time>
      </trkpt>
      <trkpt lat="41.901129" lon="2.741593">
        <ele>130.022</ele>
        <time>2020-11-03T18:04:04Z</time>
      </trkpt>
      <trkpt lat="41.901062" lon="2.741543">
        <ele>129.680</ele>
        <time>2020-11-03T18:04:05Z</time>
      </trkpt>
      <trkpt lat="41.900991" lon="2.741495">
        <ele>129.232</ele>
        <time>2020-11-03T18:04:06Z</time>
      </trkpt>
      <trkpt lat="41.900916" lon="2.741447">
        <ele>129.068</ele>
        <time>2020-11-03T18:04:07Z</time>
      </trkpt>
      <trkpt lat="41.900841" lon="2.741397">
        <ele>128.653</ele>
        <time>2020-11-03T18:04:08Z</time>
      </trkpt>
      <trkpt lat="41.900765" lon="2.741348">
        <ele>128.498</ele>
        <time>2020-11-03T18:04:09Z</time>
      </trkpt>
      <trkpt lat="41.900692" lon="2.741298">
        <ele>128.281</ele>
        <time>2020-11-03T18:04:10Z</time>
      </trkpt>
      <trkpt lat="41.900620" lon="2.741247">
        <ele>127.858</ele>
        <time>2020-11-03T18:04:11Z</time>
      </trkpt>
      <trkpt lat="41.900548" lon="2.741197">
        <ele>127.652</ele>
        <time>2020-11-03T18:04:12Z</time>
      </trkpt>
      <trkpt lat="41.900474" lon="2.741148">
        <ele>127.617</ele>
        <time>2020-11-03T18:04:13Z</time>
      </trkpt>
      <trkpt lat="41.900399" lon="2.741098">
        <ele>127.208</ele>
        <time>2020-11-03T18:04:14Z</time>
      </trkpt>
      <trkpt lat="41.900323" lon="2.741050">
        <ele>127.061</ele>
        <time>2020-11-03T18:04:15Z</time>
      </trkpt>
      <trkpt lat="41.900245" lon="2.741000">
        <ele>126.885</ele>
        <time>2020-11-03T18:04:16Z</time>
      </trkpt>
      <trkpt lat="41.900165" lon="2.740950">
        <ele>126.693</ele>
        <time>2020-11-03T18:04:17Z</time>
      </trkpt>
      <trkpt lat="41.900084" lon="2.740900">
        <ele>126.235</ele>
        <time>2020-11-03T18:04:18Z</time>
      </trkpt>
      <trkpt lat="41.900004" lon="2.740849">
        <ele>126.021</ele>
        <time>2020-11-03T18:04:19Z</time>
      </trkpt>
      <trkpt lat="41.899925" lon="2.740797">
        <ele>125.666</ele>
        <time>2020-11-03T18:04:20Z</time>
      </trkpt>
      <trkpt lat="41.899844" lon="2.740748">
        <ele>124.841</ele>
        <time>2020-11-03T18:04:21Z</time>
      </trkpt>
      <trkpt lat="41.899763" lon="2.740701">
        <ele>124.284</ele>
        <time>2020-11-03T18:04:22Z</time>
      </trkpt>
      <trkpt lat="41.899683" lon="2.740655">
        <ele>123.824</ele>
        <time>2020-11-03T18:04:23Z</time>
      </trkpt>
      <trkpt lat="41.899603" lon="2.740609">
        <ele>123.604</ele>
        <time>2020-11-03T18:04:24Z</time>
      </trkpt>
      <trkpt lat="41.899524" lon="2.740561">
        <ele>123.414</ele>
        <time>2020-11-03T18:04:25Z</time>
      </trkpt>
      <trkpt lat="41.899444" lon="2.740511">
        <ele>123.408</ele>
        <time>2020-11-03T18:04:26Z</time>
      </trkpt>
      <trkpt lat="41.899365" lon="2.740459">
        <ele>123.628</ele>
        <time>2020-11-03T18:04:27Z</time>
      </trkpt>
      <trkpt lat="41.899288" lon="2.740406">
        <ele>123.822</ele>
        <time>2020-11-03T18:04:28Z</time>
      </trkpt>
      <trkpt lat="41.899209" lon="2.740351">
        <ele>123.850</ele>
        <time>2020-11-03T18:04:29Z</time>
      </trkpt>
      <trkpt lat="41.899131" lon="2.740295">
        <ele>124.012</ele>
        <time>2020-11-03T18:04:30Z</time>
      </trkpt>
      <trkpt lat="41.899054" lon="2.740238">
        <ele>124.078</ele>
        <time>2020-11-03T18:04:31Z</time>
      </trkpt>
      <trkpt lat="41.898978" lon="2.740184">
        <ele>124.013</ele>
        <time>2020-11-03T18:04:32Z</time>
      </trkpt>
      <trkpt lat="41.898902" lon="2.740131">
        <ele>123.828</ele>
        <time>2020-11-03T18:04:33Z</time>
      </trkpt>
      <trkpt lat="41.898827" lon="2.740081">
        <ele>123.821</ele>
        <time>2020-11-03T18:04:34Z</time>
      </trkpt>
      <trkpt lat="41.898752" lon="2.740032">
        <ele>123.882</ele>
        <time>2020-11-03T18:04:35Z</time>
      </trkpt>
      <trkpt lat="41.898678" lon="2.739985">
        <ele>123.843</ele>
        <time>2020-11-03T18:04:36Z</time>
      </trkpt>
      <trkpt lat="41.898605" lon="2.739938">
        <ele>123.817</ele>
        <time>2020-11-03T18:04:37Z</time>
      </trkpt>
      <trkpt lat="41.898532" lon="2.739892">
        <ele>123.808</ele>
        <time>2020-11-03T18:04:38Z</time>
      </trkpt>
      <trkpt lat="41.898459" lon="2.739845">
        <ele>124.054</ele>
        <time>2020-11-03T18:04:39Z</time>
      </trkpt>
      <trkpt lat="41.898386" lon="2.739800">
        <ele>124.088</ele>
        <time>2020-11-03T18:04:40Z</time>
      </trkpt>
      <trkpt lat="41.898315" lon="2.739756">
        <ele>124.256</ele>
        <time>2020-11-03T18:04:41Z</time>
      </trkpt>
      <trkpt lat="41.898244" lon="2.739711">
        <ele>124.428</ele>
        <time>2020-11-03T18:04:42Z</time>
      </trkpt>
      <trkpt lat="41.898175" lon="2.739667">
        <ele>124.444</ele>
        <time>2020-11-03T18:04:43Z</time>
      </trkpt>
      <trkpt lat="41.898106" lon="2.739624">
        <ele>124.439</ele>
        <time>2020-11-03T18:04:44Z</time>
      </trkpt>
      <trkpt lat="41.898036" lon="2.739582">
        <ele>124.674</ele>
        <time>2020-11-03T18:04:45Z</time>
      </trkpt>
      <trkpt lat="41.897965" lon="2.739541">
        <ele>124.667</ele>
        <time>2020-11-03T18:04:46Z</time>
      </trkpt>
      <trkpt lat="41.897894" lon="2.739506">
        <ele>124.623</ele>
        <time>2020-11-03T18:04:47Z</time>
      </trkpt>
      <trkpt lat="41.897823" lon="2.739476">
        <ele>124.683</ele>
        <time>2020-11-03T18:04:48Z</time>
      </trkpt>
      <trkpt lat="41.897751" lon="2.739450">
        <ele>124.611</ele>
        <time>2020-11-03T18:04:49Z</time>
      </trkpt>
      <trkpt lat="41.897680" lon="2.739427">
        <ele>124.608</ele>
        <time>2020-11-03T18:04:50Z</time>
      </trkpt>
      <trkpt lat="41.897609" lon="2.739404">
        <ele>124.628</ele>
        <time>2020-11-03T18:04:51Z</time>
      </trkpt>
      <trkpt lat="41.897539" lon="2.739381">
        <ele>124.692</ele>
        <time>2020-11-03T18:04:52Z</time>
      </trkpt>
      <trkpt lat="41.897468" lon="2.739356">
        <ele>124.670</ele>
        <time>2020-11-03T18:04:53Z</time>
      </trkpt>
      <trkpt lat="41.897397" lon="2.739329">
        <ele>124.682</ele>
        <time>2020-11-03T18:04:54Z</time>
      </trkpt>
      <trkpt lat="41.897327" lon="2.739303">
        <ele>124.478</ele>
        <time>2020-11-03T18:04:55Z</time>
      </trkpt>
      <trkpt lat="41.897256" lon="2.739278">
        <ele>124.433</ele>
        <time>2020-11-03T18:04:56Z</time>
      </trkpt>
      <trkpt lat="41.897186" lon="2.739258">
        <ele>124.498</ele>
        <time>2020-11-03T18:04:57Z</time>
      </trkpt>
      <trkpt lat="41.897115" lon="2.739244">
        <ele>124.231</ele>
        <time>2020-11-03T18:04:58Z</time>
      </trkpt>
      <trkpt lat="41.897042" lon="2.739237">
        <ele>124.067</ele>
        <time>2020-11-03T18:04:59Z</time>
      </trkpt>
      <trkpt lat="41.896968" lon="2.739232">
        <ele>123.681</ele>
        <time>2020-11-03T18:05:00Z</time>
      </trkpt>
      <trkpt lat="41.896893" lon="2.739229">
        <ele>123.219</ele>
        <time>2020-11-03T18:05:01Z</time>
      </trkpt>
      <trkpt lat="41.896816" lon="2.739230">
        <ele>122.808</ele>
        <time>2020-11-03T18:05:02Z</time>
      </trkpt>
      <trkpt lat="41.896740" lon="2.739235">
        <ele>122.482</ele>
        <time>2020-11-03T18:05:03Z</time>
      </trkpt>
      <trkpt lat="41.896664" lon="2.739242">
        <ele>122.076</ele>
        <time>2020-11-03T18:05:04Z</time>
      </trkpt>
      <trkpt lat="41.896590" lon="2.739246">
        <ele>121.894</ele>
        <time>2020-11-03T18:05:05Z</time>
      </trkpt>
      <trkpt lat="41.896516" lon="2.739245">
        <ele>121.886</ele>
        <time>2020-11-03T18:05:06Z</time>
      </trkpt>
      <trkpt lat="41.896439" lon="2.739243">
        <ele>121.612</ele>
        <time>2020-11-03T18:05:07Z</time>
      </trkpt>
      <trkpt lat="41.896362" lon="2.739244">
        <ele>121.427</ele>
        <time>2020-11-03T18:05:08Z</time>
      </trkpt>
      <trkpt lat="41.896285" lon="2.739253">
        <ele>121.272</ele>
        <time>2020-11-03T18:05:09Z</time>
      </trkpt>
      <trkpt lat="41.896209" lon="2.739268">
        <ele>121.055</ele>
        <time>2020-11-03T18:05:10Z</time>
      </trkpt>
      <trkpt lat="41.896131" lon="2.739284">
        <ele>120.859</ele>
        <time>2020-11-03T18:05:11Z</time>
      </trkpt>
      <trkpt lat="41.896054" lon="2.739303">
        <ele>120.803</ele>
        <time>2020-11-03T18:05:12Z</time>
      </trkpt>
      <trkpt lat="41.895977" lon="2.739325">
        <ele>120.823</ele>
        <time>2020-11-03T18:05:13Z</time>
      </trkpt>
      <trkpt lat="41.895899" lon="2.739347">
        <ele>120.608</ele>
        <time>2020-11-03T18:05:14Z</time>
      </trkpt>
      <trkpt lat="41.895823" lon="2.739369">
        <ele>120.611</ele>
        <time>2020-11-03T18:05:15Z</time>
      </trkpt>
      <trkpt lat="41.895748" lon="2.739392">
        <ele>120.435</ele>
        <time>2020-11-03T18:05:16Z</time>
      </trkpt>
      <trkpt lat="41.895675" lon="2.739415">
        <ele>120.253</ele>
        <time>2020-11-03T18:05:17Z</time>
      </trkpt>
      <trkpt lat="41.895603" lon="2.739441">
        <ele>120.275</ele>
        <time>2020-11-03T18:05:18Z</time>
      </trkpt>
      <trkpt lat="41.895535" lon="2.739470">
        <ele>120.261</ele>
        <time>2020-11-03T18:05:19Z</time>
      </trkpt>
      <trkpt lat="41.895468" lon="2.739500">
        <ele>120.266</ele>
        <time>2020-11-03T18:05:20Z</time>
      </trkpt>
      <trkpt lat="41.895402" lon="2.739534">
        <ele>120.221</ele>
        <time>2020-11-03T18:05:21Z</time>
      </trkpt>
      <trkpt lat="41.895338" lon="2.739570">
        <ele>120.014</ele>
        <time>2020-11-03T18:05:22Z</time>
      </trkpt>
      <trkpt lat="41.895274" lon="2.739606">
        <ele>120.017</ele>
        <time>2020-11-03T18:05:23Z</time>
      </trkpt>
      <trkpt lat="41.895212" lon="2.739642">
        <ele>120.087</ele>
        <time>2020-11-03T18:05:24Z</time>
      </trkpt>
      <trkpt lat="41.895151" lon="2.739677">
        <ele>120.015</ele>
        <time>2020-11-03T18:05:25Z</time>
      </trkpt>
      <trkpt lat="41.895093" lon="2.739705">
        <ele>120.008</ele>
        <time>2020-11-03T18:05:26Z</time>
      </trkpt>
      <trkpt lat="41.895036" lon="2.739721">
        <ele>119.887</ele>
        <time>2020-11-03T18:05:27Z</time>
      </trkpt>
      <trkpt lat="41.894982" lon="2.739716">
        <ele>119.871</ele>
        <time>2020-11-03T18:05:28Z</time>
      </trkpt>
      <trkpt lat="41.894932" lon="2.739687">
        <ele>119.829</ele>
        <time>2020-11-03T18:05:29Z</time>
      </trkpt>
      <trkpt lat="41.894893" lon="2.739637">
        <ele>120.061</ele>
        <time>2020-11-03T18:05:30Z</time>
      </trkpt>
      <trkpt lat="41.894861" lon="2.739572">
        <ele>120.047</ele>
        <time>2020-11-03T18:05:31Z</time>
      </trkpt>
      <trkpt lat="41.894833" lon="2.739501">
        <ele>120.272</ele>
        <time>2020-11-03T18:05:32Z</time>
      </trkpt>
      <trkpt lat="41.894806" lon="2.739428">
        <ele>120.237</ele>
        <time>2020-11-03T18:05:33Z</time>
      </trkpt>
      <trkpt lat="41.894781" lon="2.739353">
        <ele>120.220</ele>
        <time>2020-11-03T18:05:34Z</time>
      </trkpt>
      <trkpt lat="41.894757" lon="2.739276">
        <ele>120.225</ele>
        <time>2020-11-03T18:05:35Z</time>
      </trkpt>
      <trkpt lat="41.894734" lon="2.739198">
        <ele>120.426</ele>
        <time>2020-11-03T18:05:36Z</time>
      </trkpt>
      <trkpt lat="41.894711" lon="2.739120">
        <ele>120.408</ele>
        <time>2020-11-03T18:05:37Z</time>
      </trkpt>
      <trkpt lat="41.894691" lon="2.739041">
        <ele>120.408</ele>
        <time>2020-11-03T18:05:38Z</time>
      </trkpt>
      <trkpt lat="41.894675" lon="2.738962">
        <ele>120.468</ele>
        <time>2020-11-03T18:05:39Z</time>
      </trkpt>
      <trkpt lat="41.894662" lon="2.738883">
        <ele>120.472</ele>
        <time>2020-11-03T18:05:40Z</time>
      </trkpt>
      <trkpt lat="41.894654" lon="2.738808">
        <ele>120.460</ele>
        <time>2020-11-03T18:05:41Z</time>
      </trkpt>
      <trkpt lat="41.894647" lon="2.738740">
        <ele>120.462</ele>
        <time>2020-11-03T18:05:42Z</time>
      </trkpt>
      <trkpt lat="41.894634" lon="2.738687">
        <ele>120.468</ele>
        <time>2020-11-03T18:05:43Z</time>
      </trkpt>
      <trkpt lat="41.894610" lon="2.738651">
        <ele>120.493</ele>
        <time>2020-11-03T18:05:44Z</time>
      </trkpt>
      <trkpt lat="41.894578" lon="2.738632">
        <ele>120.628</ele>
        <time>2020-11-03T18:05:45Z</time>
      </trkpt>
      <trkpt lat="41.894538" lon="2.738627">
        <ele>120.681</ele>
        <time>2020-11-03T18:05:46Z</time>
      </trkpt>
      <trkpt lat="41.894496" lon="2.738629">
        <ele>120.691</ele>
        <time>2020-11-03T18:05:47Z</time>
      </trkpt>
      <trkpt lat="41.894449" lon="2.738632">
        <ele>120.681</ele>
        <time>2020-11-03T18:05:48Z</time>
      </trkpt>
      <trkpt lat="41.894400" lon="2.738633">
        <ele>120.619</ele>
        <time>2020-11-03T18:05:49Z</time>
      </trkpt>
      <trkpt lat="41.894347" lon="2.738636">
        <ele>120.408</ele>
        <time>2020-11-03T18:05:50Z</time>
      </trkpt>
      <trkpt lat="41.894293" lon="2.738641">
        <ele>120.295</ele>
        <time>2020-11-03T18:05:51Z</time>
      </trkpt>
      <trkpt lat="41.894238" lon="2.738644">
        <ele>120.029</ele>
        <time>2020-11-03T18:05:52Z</time>
      </trkpt>
      <trkpt lat="41.894182" lon="2.738646">
        <ele>120.047</ele>
        <time>2020-11-03T18:05:53Z</time>
      </trkpt>
      <trkpt lat="41.894127" lon="2.738647">
        <ele>119.829</ele>
        <time>2020-11-03T18:05:54Z</time>
      </trkpt>
      <trkpt lat="41.894070" lon="2.738648">
        <ele>119.615</ele>
        <time>2020-11-03T18:05:55Z</time>
      </trkpt>
      <trkpt lat="41.894013" lon="2.738646">
        <ele>119.670</ele>
        <time>2020-11-03T18:05:56Z</time>
      </trkpt>
      <trkpt lat="41.893956" lon="2.738645">
        <ele>119.655</ele>
        <time>2020-11-03T18:05:57Z</time>
      </trkpt>
      <trkpt lat="41.893898" lon="2.738648">
        <ele>119.618</ele>
        <time>2020-11-03T18:05:58Z</time>
      </trkpt>
      <trkpt lat="41.893841" lon="2.738651">
        <ele>119.658</ele>
        <time>2020-11-03T18:05:59Z</time>
      </trkpt>
      <trkpt lat="41.893784" lon="2.738657">
        <ele>119.652</ele>
        <time>2020-11-03T18:06:00Z</time>
      </trkpt>
      <trkpt lat="41.893729" lon="2.738665">
        <ele>119.617</ele>
        <time>2020-11-03T18:06:01Z</time>
      </trkpt>
      <trkpt lat="41.893673" lon="2.738672">
        <ele>119.608</ele>
        <time>2020-11-03T18:06:02Z</time>
      </trkpt>
      <trkpt lat="41.893617" lon="2.738674">
        <ele>119.621</ele>
        <time>2020-11-03T18:06:03Z</time>
      </trkpt>
      <trkpt lat="41.893561" lon="2.738674">
        <ele>119.655</ele>
        <time>2020-11-03T18:06:04Z</time>
      </trkpt>
      <trkpt lat="41.893505" lon="2.738673">
        <ele>119.693</ele>
        <time>2020-11-03T18:06:05Z</time>
      </trkpt>
      <trkpt lat="41.893449" lon="2.738675">
        <ele>119.625</ele>
        <time>2020-11-03T18:06:06Z</time>
      </trkpt>
      <trkpt lat="41.893393" lon="2.738679">
        <ele>119.851</ele>
        <time>2020-11-03T18:06:07Z</time>
      </trkpt>
      <trkpt lat="41.893336" lon="2.738685">
        <ele>119.826</ele>
        <time>2020-11-03T18:06:08Z</time>
      </trkpt>
      <trkpt lat="41.893282" lon="2.738691">
        <ele>120.051</ele>
        <time>2020-11-03T18:06:09Z</time>
      </trkpt>
      <trkpt lat="41.893230" lon="2.738699">
        <ele>120.044</ele>
        <time>2020-11-03T18:06:10Z</time>
      </trkpt>
      <trkpt lat="41.893179" lon="2.738710">
        <ele>120.015</ele>
        <time>2020-11-03T18:06:11Z</time>
      </trkpt>
      <trkpt lat="41.893132" lon="2.738719">
        <ele>120.065</ele>
        <time>2020-11-03T18:06:12Z</time>
      </trkpt>
      <trkpt lat="41.893088" lon="2.738729">
        <ele>120.011</ele>
        <time>2020-11-03T18:06:13Z</time>
      </trkpt>
      <trkpt lat="41.893049" lon="2.738744">
        <ele>120.008</ele>
        <time>2020-11-03T18:06:14Z</time>
      </trkpt>
      <trkpt lat="41.893013" lon="2.738765">
        <ele>120.077</ele>
        <time>2020-11-03T18:06:15Z</time>
      </trkpt>
      <trkpt lat="41.892981" lon="2.738794">
        <ele>120.281</ele>
        <time>2020-11-03T18:06:16Z</time>
      </trkpt>
      <trkpt lat="41.892952" lon="2.738828">
        <ele>120.449</ele>
        <time>2020-11-03T18:06:17Z</time>
      </trkpt>
      <trkpt lat="41.892925" lon="2.738872">
        <ele>120.691</ele>
        <time>2020-11-03T18:06:18Z</time>
      </trkpt>
      <trkpt lat="41.892899" lon="2.738927">
        <ele>120.647</ele>
        <time>2020-11-03T18:06:19Z</time>
      </trkpt>
      <trkpt lat="41.892872" lon="2.738995">
        <ele>120.612</ele>
        <time>2020-11-03T18:06:20Z</time>
      </trkpt>
      <trkpt lat="41.892845" lon="2.739067">
        <ele>120.437</ele>
        <time>2020-11-03T18:06:21Z</time>
      </trkpt>
      <trkpt lat="41.892816" lon="2.739139">
        <ele>120.450</ele>
        <time>2020-11-03T18:06:22Z</time>
      </trkpt>
      <trkpt lat="41.892787" lon="2.739211">
        <ele>120.425</ele>
        <time>2020-11-03T18:06:23Z</time>
      </trkpt>
      <trkpt lat="41.892757" lon="2.739284">
        <ele>120.226</ele>
        <time>2020-11-03T18:06:24Z</time>
      </trkpt>
      <trkpt lat="41.892726" lon="2.739357">
        <ele>120.208</ele>
        <time>2020-11-03T18:06:25Z</time>
      </trkpt>
      <trkpt lat="41.892696" lon="2.739431">
        <ele>120.008</ele>
        <time>2020-11-03T18:06:26Z</time>
      </trkpt>
      <trkpt lat="41.892666" lon="2.739505">
        <ele>120.038</ele>
        <time>2020-11-03T18:06:27Z</time>
      </trkpt>
      <trkpt lat="41.892636" lon="2.739581">
        <ele>120.062</ele>
        <time>2020-11-03T18:06:28Z</time>
      </trkpt>
      <trkpt lat="41.892606" lon="2.739658">
        <ele>120.010</ele>
        <time>2020-11-03T18:06:29Z</time>
      </trkpt>
      <trkpt lat="41.892575" lon="2.739735">
        <ele>119.852</ele>
        <time>2020-11-03T18:06:30Z</time>
      </trkpt>
      <trkpt lat="41.892544" lon="2.739813">
        <ele>119.878</ele>
        <time>2020-11-03T18:06:31Z</time>
      </trkpt>
      <trkpt lat="41.892514" lon="2.739890">
        <ele>119.893</ele>
        <time>2020-11-03T18:06:32Z</time>
      </trkpt>
      <trkpt lat="41.892484" lon="2.739967">
        <ele>119.618</ele>
        <time>2020-11-03T18:06:33Z</time>
      </trkpt>
      <trkpt lat="41.892453" lon="2.740044">
        <ele>119.681</ele>
        <time>2020-11-03T18:06:34Z</time>
      </trkpt>
      <trkpt lat="41.892421" lon="2.740122">
        <ele>119.876</ele>
        <time>2020-11-03T18:06:35Z</time>
      </trkpt>
      <trkpt lat="41.892390" lon="2.740199">
        <ele>119.890</ele>
        <time>2020-11-03T18:06:36Z</time>
      </trkpt>
      <trkpt lat="41.892359" lon="2.740274">
        <ele>119.819</ele>
        <time>2020-11-03T18:06:37Z</time>
      </trkpt>
      <trkpt lat="41.892327" lon="2.740349">
        <ele>119.808</ele>
        <time>2020-11-03T18:06:38Z</time>
      </trkpt>
      <trkpt lat="41.892295" lon="2.740425">
        <ele>119.853</ele>
        <time>2020-11-03T18:06:39Z</time>
      </trkpt>
      <trkpt lat="41.892262" lon="2.740501">
        <ele>120.027</ele>
        <time>2020-11-03T18:06:40Z</time>
      </trkpt>
      <trkpt lat="41.892229" lon="2.740576">
        <ele>120.065</ele>
        <time>2020-11-03T18:06:41Z</time>
      </trkpt>
      <trkpt lat="41.892196" lon="2.740652">
        <ele>120.047</ele>
        <time>2020-11-03T18:06:42Z</time>
      </trkpt>
      <trkpt lat="41.892162" lon="2.740732">
        <ele>120.013</ele>
        <time>2020-11-03T18:06:43Z</time>
      </trkpt>
      <trkpt lat="41.892129" lon="2.740812">
        <ele>120.018</ele>
        <time>2020-11-03T18:06:44Z</time>
      </trkpt>
      <trkpt lat="41.892096" lon="2.740895">
        <ele>120.053</ele>
        <time>2020-11-03T18:06:45Z</time>
      </trkpt>
      <trkpt lat="41.892062" lon="2.740977">
        <ele>119.816</ele>
        <time>2020-11-03T18:06:46Z</time>
      </trkpt>
      <trkpt lat="41.892025" lon="2.741058">
        <ele>119.885</ele>
        <time>2020-11-03T18:06:47Z</time>
      </trkpt>
      <trkpt lat="41.891988" lon="2.741142">
        <ele>119.889</ele>
        <time>2020-11-03T18:06:48Z</time>
      </trkpt>
      <trkpt lat="41.891948" lon="2.741228">
        <ele>119.617</ele>
        <time>2020-11-03T18:06:49Z</time>
      </trkpt>
      <trkpt lat="41.891905" lon="2.741316">
        <ele>119.608</ele>
        <time>2020-11-03T18:06:50Z</time>
      </trkpt>
      <trkpt lat="41.891864" lon="2.741405">
        <ele>119.234</ele>
        <time>2020-11-03T18:06:51Z</time>
      </trkpt>
      <trkpt lat="41.891824" lon="2.741493">
        <ele>119.038</ele>
        <time>2020-11-03T18:06:52Z</time>
      </trkpt>
      <trkpt lat="41.891786" lon="2.741581">
        <ele>118.626</ele>
        <time>2020-11-03T18:06:53Z</time>
      </trkpt>
      <trkpt lat="41.891750" lon="2.741668">
        <ele>118.468</ele>
        <time>2020-11-03T18:06:54Z</time>
      </trkpt>
      <trkpt lat="41.891714" lon="2.741755">
        <ele>118.284</ele>
        <time>2020-11-03T18:06:55Z</time>
      </trkpt>
      <trkpt lat="41.891677" lon="2.741840">
        <ele>118.069</ele>
        <time>2020-11-03T18:06:56Z</time>
      </trkpt>
      <trkpt lat="41.891640" lon="2.741925">
        <ele>117.864</ele>
        <time>2020-11-03T18:06:57Z</time>
      </trkpt>
      <trkpt lat="41.891605" lon="2.742013">
        <ele>117.687</ele>
        <time>2020-11-03T18:06:58Z</time>
      </trkpt>
      <trkpt lat="41.891577" lon="2.742100">
        <ele>117.256</ele>
        <time>2020-11-03T18:06:59Z</time>
      </trkpt>
      <trkpt lat="41.891547" lon="2.742187">
        <ele>117.059</ele>
        <time>2020-11-03T18:07:00Z</time>
      </trkpt>
      <trkpt lat="41.891513" lon="2.742270">
        <ele>116.814</ele>
        <time>2020-11-03T18:07:01Z</time>
      </trkpt>
      <trkpt lat="41.891475" lon="2.742354">
        <ele>116.608</ele>
        <time>2020-11-03T18:07:02Z</time>
      </trkpt>
      <trkpt lat="41.891438" lon="2.742437">
        <ele>116.631</ele>
        <time>2020-11-03T18:07:03Z</time>
      </trkpt>
      <trkpt lat="41.891400" lon="2.742518">
        <ele>116.635</ele>
        <time>2020-11-03T18:07:04Z</time>
      </trkpt>
      <trkpt lat="41.891362" lon="2.742599">
        <ele>116.873</ele>
        <time>2020-11-03T18:07:05Z</time>
      </trkpt>
      <trkpt lat="41.891325" lon="2.742678">
        <ele>116.845</ele>
        <time>2020-11-03T18:07:06Z</time>
      </trkpt>
      <trkpt lat="41.891289" lon="2.742757">
        <ele>116.811</ele>
        <time>2020-11-03T18:07:07Z</time>
      </trkpt>
      <trkpt lat="41.891250" lon="2.742838">
        <ele>116.666</ele>
        <time>2020-11-03T18:07:08Z</time>
      </trkpt>
      <trkpt lat="41.891211" lon="2.742919">
        <ele>116.611</ele>
        <time>2020-11-03T18:07:09Z</time>
      </trkpt>
      <trkpt lat="41.891172" lon="2.743000">
        <ele>116.454</ele>
        <time>2020-11-03T18:07:10Z</time>
      </trkpt>
      <trkpt lat="41.891132" lon="2.743081">
        <ele>116.696</ele>
        <time>2020-11-03T18:07:11Z</time>
      </trkpt>
      <trkpt lat="41.891090" lon="2.743161">
        <ele>116.431</ele>
        <time>2020-11-03T18:07:12Z</time>
      </trkpt>
      <trkpt lat="41.891048" lon="2.743241">
        <ele>116.424</ele>
        <time>2020-11-03T18:07:13Z</time>
      </trkpt>
      <trkpt lat="41.891000" lon="2.743320">
        <ele>116.208</ele>
        <time>2020-11-03T18:07:14Z</time>
      </trkpt>
      <trkpt lat="41.890951" lon="2.743400">
        <ele>116.255</ele>
        <time>2020-11-03T18:07:15Z</time>
      </trkpt>
      <trkpt lat="41.890901" lon="2.743478">
        <ele>116.019</ele>
        <time>2020-11-03T18:07:16Z</time>
      </trkpt>
      <trkpt lat="41.890849" lon="2.743553">
        <ele>116.057</ele>
        <time>2020-11-03T18:07:17Z</time>
      </trkpt>
      <trkpt lat="41.890793" lon="2.743622">
        <ele>116.079</ele>
        <time>2020-11-03T18:07:18Z</time>
      </trkpt>
      <trkpt lat="41.890734" lon="2.743686">
        <ele>116.095</ele>
        <time>2020-11-03T18:07:19Z</time>
      </trkpt>
      <trkpt lat="41.890673" lon="2.743749">
        <ele>116.240</ele>
        <time>2020-11-03T18:07:20Z</time>
      </trkpt>
      <trkpt lat="41.890610" lon="2.743809">
        <ele>116.665</ele>
        <time>2020-11-03T18:07:21Z</time>
      </trkpt>
      <trkpt lat="41.890546" lon="2.743866">
        <ele>116.898</ele>
        <time>2020-11-03T18:07:22Z</time>
      </trkpt>
      <trkpt lat="41.890483" lon="2.743919">
        <ele>116.853</ele>
        <time>2020-11-03T18:07:23Z</time>
      </trkpt>
      <trkpt lat="41.890420" lon="2.743971">
        <ele>117.004</ele>
        <time>2020-11-03T18:07:24Z</time>
      </trkpt>
      <trkpt lat="41.890355" lon="2.744025">
        <ele>117.014</ele>
        <time>2020-11-03T18:07:25Z</time>
      </trkpt>
      <trkpt lat="41.890290" lon="2.744080">
        <ele>117.008</ele>
        <time>2020-11-03T18:07:26Z</time>
      </trkpt>
      <trkpt lat="41.890226" lon="2.744135">
        <ele>117.031</ele>
        <time>2020-11-03T18:07:27Z</time>
      </trkpt>
      <trkpt lat="41.890162" lon="2.744190">
        <ele>117.095</ele>
        <time>2020-11-03T18:07:28Z</time>
      </trkpt>
      <trkpt lat="41.890102" lon="2.744239">
        <ele>117.053</ele>
        <time>2020-11-03T18:07:29Z</time>
      </trkpt>
      <trkpt lat="41.890038" lon="2.744292">
        <ele>117.095</ele>
        <time>2020-11-03T18:07:30Z</time>
      </trkpt>
      <trkpt lat="41.889974" lon="2.744346">
        <ele>117.021</ele>
        <time>2020-11-03T18:07:31Z</time>
      </trkpt>
      <trkpt lat="41.889911" lon="2.744395">
        <ele>117.066</ele>
        <time>2020-11-03T18:07:32Z</time>
      </trkpt>
      <trkpt lat="41.889844" lon="2.744440">
        <ele>117.051</ele>
        <time>2020-11-03T18:07:33Z</time>
      </trkpt>
      <trkpt lat="41.889777" lon="2.744480">
        <ele>117.274</ele>
        <time>2020-11-03T18:07:34Z</time>
      </trkpt>
      <trkpt lat="41.889714" lon="2.744518">
        <ele>117.078</ele>
        <time>2020-11-03T18:07:35Z</time>
      </trkpt>
      <trkpt lat="41.889652" lon="2.744555">
        <ele>116.833</ele>
        <time>2020-11-03T18:07:36Z</time>
      </trkpt>
      <trkpt lat="41.889586" lon="2.744592">
        <ele>116.826</ele>
        <time>2020-11-03T18:07:37Z</time>
      </trkpt>
      <trkpt lat="41.889517" lon="2.744635">
        <ele>116.608</ele>
        <time>2020-11-03T18:07:38Z</time>
      </trkpt>
      <trkpt lat="41.889454" lon="2.744676">
        <ele>116.683</ele>
        <time>2020-11-03T18:07:39Z</time>
      </trkpt>
      <trkpt lat="41.889388" lon="2.744719">
        <ele>116.477</ele>
        <time>2020-11-03T18:07:40Z</time>
      </trkpt>
      <trkpt lat="41.889322" lon="2.744763">
        <ele>116.485</ele>
        <time>2020-11-03T18:07:41Z</time>
      </trkpt>
      <trkpt lat="41.889258" lon="2.744807">
        <ele>116.497</ele>
        <time>2020-11-03T18:07:42Z</time>
      </trkpt>
      <trkpt lat="41.889195" lon="2.744849">
        <ele>116.423</ele>
        <time>2020-11-03T18:07:43Z</time>
      </trkpt>
      <trkpt lat="41.889132" lon="2.744892">
        <ele>116.468</ele>
        <time>2020-11-03T18:07:44Z</time>
      </trkpt>
      <trkpt lat="41.889071" lon="2.744934">
        <ele>116.493</ele>
        <time>2020-11-03T18:07:45Z</time>
      </trkpt>
      <trkpt lat="41.889010" lon="2.744977">
        <ele>116.486</ele>
        <time>2020-11-03T18:07:46Z</time>
      </trkpt>
      <trkpt lat="41.888945" lon="2.745023">
        <ele>116.416</ele>
        <time>2020-11-03T18:07:47Z</time>
      </trkpt>
      <trkpt lat="41.888882" lon="2.745072">
        <ele>116.476</ele>
        <time>2020-11-03T18:07:48Z</time>
      </trkpt>
      <trkpt lat="41.888821" lon="2.745122">
        <ele>116.413</ele>
        <time>2020-11-03T18:07:49Z</time>
      </trkpt>
      <trkpt lat="41.888762" lon="2.745170">
        <ele>116.408</ele>
        <time>2020-11-03T18:07:50Z</time>
      </trkpt>
      <trkpt lat="41.888701" lon="2.745219">
        <ele>116.477</ele>
        <time>2020-11-03T18:07:51Z</time>
      </trkpt>
      <trkpt lat="41.888641" lon="2.745265">
        <ele>116.411</ele>
        <time>2020-11-03T18:07:52Z</time>
      </trkpt>
      <trkpt lat="41.888585" lon="2.745314">
        <ele>116.469</ele>
        <time>2020-11-03T18:07:53Z</time>
      </trkpt>
      <trkpt lat="41.888533" lon="2.745367">
        <ele>116.491</ele>
        <time>2020-11-03T18:07:54Z</time>
      </trkpt>
      <trkpt lat="41.888482" lon="2.745419">
        <ele>116.417</ele>
        <time>2020-11-03T18:07:55Z</time>
      </trkpt>
      <trkpt lat="41.888431" lon="2.745468">
        <ele>116.472</ele>
        <time>2020-11-03T18:07:56Z</time>
      </trkpt>
      <trkpt lat="41.888381" lon="2.745517">
        <ele>116.417</ele>
        <time>2020-11-03T18:07:57Z</time>
      </trkpt>
      <trkpt lat="41.888334" lon="2.745565">
        <ele>116.410</ele>
        <time>2020-11-03T18:07:58Z</time>
      </trkpt>
      <trkpt lat="41.888289" lon="2.745615">
        <ele>116.485</ele>
        <time>2020-11-03T18:07:59Z</time>
      </trkpt>
      <trkpt lat="41.888246" lon="2.745668">
        <ele>116.489</ele>
        <time>2020-11-03T18:08:00Z</time>
      </trkpt>
      <trkpt lat="41.888208" lon="2.745724">
        <ele>116.417</ele>
        <time>2020-11-03T18:08:01Z</time>
      </trkpt>
      <trkpt lat="41.888169" lon="2.745781">
        <ele>116.408</ele>
        <time>2020-11-03T18:08:02Z</time>
      </trkpt>
      <trkpt lat="41.888131" lon="2.745837">
        <ele>116.214</ele>
        <time>2020-11-03T18:08:03Z</time>
      </trkpt>
      <trkpt lat="41.888094" lon="2.745894">
        <ele>116.288</ele>
        <time>2020-11-03T18:08:04Z</time>
      </trkpt>
      <trkpt lat="41.888058" lon="2.745954">
        <ele>116.266</ele>
        <time>2020-11-03T18:08:05Z</time>
      </trkpt>
      <trkpt lat="41.888024" lon="2.746016">
        <ele>116.248</ele>
        <time>2020-11-03T18:08:06Z</time>
      </trkpt>
      <trkpt lat="41.887991" lon="2.746080">
        <ele>116.254</ele>
        <time>2020-11-03T18:08:07Z</time>
      </trkpt>
      <trkpt lat="41.887959" lon="2.746145">
        <ele>116.259</ele>
        <time>2020-11-03T18:08:08Z</time>
      </trkpt>
      <trkpt lat="41.887927" lon="2.746207">
        <ele>116.234</ele>
        <time>2020-11-03T18:08:09Z</time>
      </trkpt>
      <trkpt lat="41.887895" lon="2.746265">
        <ele>116.247</ele>
        <time>2020-11-03T18:08:10Z</time>
      </trkpt>
      <trkpt lat="41.887866" lon="2.746323">
        <ele>116.297</ele>
        <time>2020-11-03T18:08:11Z</time>
      </trkpt>
      <trkpt lat="41.887841" lon="2.746384">
        <ele>116.223</ele>
        <time>2020-11-03T18:08:12Z</time>
      </trkpt>
      <trkpt lat="41.887820" lon="2.746439">
        <ele>116.225</ele>
        <time>2020-11-03T18:08:13Z</time>
      </trkpt>
      <trkpt lat="41.887800" lon="2.746489">
        <ele>116.208</ele>
        <time>2020-11-03T18:08:14Z</time>
      </trkpt>
      <trkpt lat="41.887775" lon="2.746527">
        <ele>116.445</ele>
        <time>2020-11-03T18:08:15Z</time>
      </trkpt>
      <trkpt lat="41.887747" lon="2.746551">
        <ele>116.629</ele>
        <time>2020-11-03T18:08:16Z</time>
      </trkpt>
      <trkpt lat="41.887718" lon="2.746556">
        <ele>116.617</ele>
        <time>2020-11-03T18:08:17Z</time>
      </trkpt>
      <trkpt lat="41.887686" lon="2.746542">
        <ele>116.879</ele>
        <time>2020-11-03T18:08:18Z</time>
      </trkpt>
      <trkpt lat="41.887655" lon="2.746516">
        <ele>116.815</ele>
        <time>2020-11-03T18:08:19Z</time>
      </trkpt>
      <trkpt lat="41.887626" lon="2.746481">
        <ele>117.080</ele>
        <time>2020-11-03T18:08:20Z</time>
      </trkpt>
      <trkpt lat="41.887593" lon="2.746442">
        <ele>117.065</ele>
        <time>2020-11-03T18:08:21Z</time>
      </trkpt>
      <trkpt lat="41.887556" lon="2.746400">
        <ele>117.078</ele>
        <time>2020-11-03T18:08:22Z</time>
      </trkpt>
      <trkpt lat="41.887517" lon="2.746352">
        <ele>117.054</ele>
        <time>2020-11-03T18:08:23Z</time>
      </trkpt>
      <trkpt lat="41.887478" lon="2.746296">
        <ele>117.256</ele>
        <time>2020-11-03T18:08:24Z</time>
      </trkpt>
      <trkpt lat="41.887442" lon="2.746234">
        <ele>117.211</ele>
        <time>2020-11-03T18:08:25Z</time>
      </trkpt>
      <trkpt lat="41.887406" lon="2.746167">
        <ele>117.408</ele>
        <time>2020-11-03T18:08:26Z</time>
      </trkpt>
      <trkpt lat="41.887373" lon="2.746091">
        <ele>117.411</ele>
        <time>2020-11-03T18:08:27Z</time>
      </trkpt>
      <trkpt lat="41.887340" lon="2.746010">
        <ele>117.485</ele>
        <time>2020-11-03T18:08:28Z</time>
      </trkpt>
      <trkpt lat="41.887310" lon="2.745923">
        <ele>117.443</ele>
        <time>2020-11-03T18:08:29Z</time>
      </trkpt>
      <trkpt lat="41.887279" lon="2.745830">
        <ele>117.295</ele>
        <time>2020-11-03T18:08:30Z</time>
      </trkpt>
      <trkpt lat="41.887249" lon="2.745735">
        <ele>117.221</ele>
        <time>2020-11-03T18:08:31Z</time>
      </trkpt>
      <trkpt lat="41.887222" lon="2.745638">
        <ele>117.066</ele>
        <time>2020-11-03T18:08:32Z</time>
      </trkpt>
      <trkpt lat="41.887196" lon="2.745539">
        <ele>116.831</ele>
        <time>2020-11-03T18:08:33Z</time>
      </trkpt>
      <trkpt lat="41.887171" lon="2.745439">
        <ele>116.654</ele>
        <time>2020-11-03T18:08:34Z</time>
      </trkpt>
      <trkpt lat="41.887147" lon="2.745340">
        <ele>116.652</ele>
        <time>2020-11-03T18:08:35Z</time>
      </trkpt>
      <trkpt lat="41.887123" lon="2.745239">
        <ele>116.653</ele>
        <time>2020-11-03T18:08:36Z</time>
      </trkpt>
      <trkpt lat="41.887099" lon="2.745136">
        <ele>116.608</ele>
        <time>2020-11-03T18:08:37Z</time>
      </trkpt>
      <trkpt lat="41.887074" lon="2.745031">
        <ele>116.608</ele>
        <time>2020-11-03T18:08:38Z</time>
      </trkpt>
      <trkpt lat="41.887050" lon="2.744924">
        <ele>116.621</ele>
        <time>2020-11-03T18:08:39Z</time>
      </trkpt>
      <trkpt lat="41.887022" lon="2.744815">
        <ele>116.655</ele>
        <time>2020-11-03T18:08:40Z</time>
      </trkpt>
      <trkpt lat="41.886995" lon="2.744706">
        <ele>116.683</ele>
        <time>2020-11-03T18:08:41Z</time>
      </trkpt>
      <trkpt lat="41.886970" lon="2.744594">
        <ele>116.625</ele>
        <time>2020-11-03T18:08:42Z</time>
      </trkpt>
      <trkpt lat="41.886947" lon="2.744480">
        <ele>116.681</ele>
        <time>2020-11-03T18:08:43Z</time>
      </trkpt>
      <trkpt lat="41.886923" lon="2.744366">
        <ele>116.636</ele>
        <time>2020-11-03T18:08:44Z</time>
      </trkpt>
      <trkpt lat="41.886899" lon="2.744251">
        <ele>116.491</ele>
        <time>2020-11-03T18:08:45Z</time>
      </trkpt>
      <trkpt lat="41.886873" lon="2.744137">
        <ele>116.454</ele>
        <time>2020-11-03T18:08:46Z</time>
      </trkpt>
      <trkpt lat="41.886848" lon="2.744023">
        <ele>116.213</ele>
        <time>2020-11-03T18:08:47Z</time>
      </trkpt>
      <trkpt lat="41.886823" lon="2.743908">
        <ele>116.043</ele>
        <time>2020-11-03T18:08:48Z</time>
      </trkpt>
      <trkpt lat="41.886796" lon="2.743792">
        <ele>116.007</ele>
        <time>2020-11-03T18:08:49Z</time>
      </trkpt>
      <trkpt lat="41.886769" lon="2.743675">
        <ele>116.008</ele>
        <time>2020-11-03T18:08:50Z</time>
      </trkpt>
      <trkpt lat="41.886741" lon="2.743559">
        <ele>115.857</ele>
        <time>2020-11-03T18:08:51Z</time>
      </trkpt>
      <trkpt lat="41.886713" lon="2.743444">
        <ele>115.811</ele>
        <time>2020-11-03T18:08:52Z</time>
      </trkpt>
      <trkpt lat="41.886687" lon="2.743329">
        <ele>115.889</ele>
        <time>2020-11-03T18:08:53Z</time>
      </trkpt>
      <trkpt lat="41.886660" lon="2.743216">
        <ele>115.861</ele>
        <time>2020-11-03T18:08:54Z</time>
      </trkpt>
      <trkpt lat="41.886632" lon="2.743105">
        <ele>115.857</ele>
        <time>2020-11-03T18:08:55Z</time>
      </trkpt>
      <trkpt lat="41.886607" lon="2.742996">
        <ele>115.842</ele>
        <time>2020-11-03T18:08:56Z</time>
      </trkpt>
      <trkpt lat="41.886581" lon="2.742893">
        <ele>115.877</ele>
        <time>2020-11-03T18:08:57Z</time>
      </trkpt>
      <trkpt lat="41.886555" lon="2.742792">
        <ele>116.010</ele>
        <time>2020-11-03T18:08:58Z</time>
      </trkpt>
      <trkpt lat="41.886529" lon="2.742691">
        <ele>116.037</ele>
        <time>2020-11-03T18:08:59Z</time>
      </trkpt>
      <trkpt lat="41.886502" lon="2.742589">
        <ele>116.249</ele>
        <time>2020-11-03T18:09:00Z</time>
      </trkpt>
      <trkpt lat="41.886477" lon="2.742487">
        <ele>116.413</ele>
        <time>2020-11-03T18:09:01Z</time>
      </trkpt>
      <trkpt lat="41.886454" lon="2.742385">
        <ele>116.608</ele>
        <time>2020-11-03T18:09:02Z</time>
      </trkpt>
      <trkpt lat="41.886432" lon="2.742282">
        <ele>116.899</ele>
        <time>2020-11-03T18:09:03Z</time>
      </trkpt>
      <trkpt lat="41.886409" lon="2.742177">
        <ele>117.043</ele>
        <time>2020-11-03T18:09:04Z</time>
      </trkpt>
      <trkpt lat="41.886386" lon="2.742071">
        <ele>117.051</ele>
        <time>2020-11-03T18:09:05Z</time>
      </trkpt>
      <trkpt lat="41.886362" lon="2.741965">
        <ele>116.823</ele>
        <time>2020-11-03T18:09:06Z</time>
      </trkpt>
      <trkpt lat="41.886336" lon="2.741860">
        <ele>116.839</ele>
        <time>2020-11-03T18:09:07Z</time>
      </trkpt>
      <trkpt lat="41.886308" lon="2.741760">
        <ele>116.864</ele>
        <time>2020-11-03T18:09:08Z</time>
      </trkpt>
      <trkpt lat="41.886282" lon="2.741661">
        <ele>116.899</ele>
        <time>2020-11-03T18:09:09Z</time>
      </trkpt>
      <trkpt lat="41.886254" lon="2.741572">
        <ele>116.892</ele>
        <time>2020-11-03T18:09:10Z</time>
      </trkpt>
      <trkpt lat="41.886237" lon="2.741487">
        <ele>117.074</ele>
        <time>2020-11-03T18:09:11Z</time>
      </trkpt>
      <trkpt lat="41.886238" lon="2.741406">
        <ele>117.256</ele>
        <time>2020-11-03T18:09:12Z</time>
      </trkpt>
      <trkpt lat="41.886249" lon="2.741327">
        <ele>117.421</ele>
        <time>2020-11-03T18:09:13Z</time>
      </trkpt>
      <trkpt lat="41.886251" lon="2.741250">
        <ele>117.408</ele>
        <time>2020-11-03T18:09:14Z</time>
      </trkpt>
      <trkpt lat="41.886242" lon="2.741175">
        <ele>117.643</ele>
        <time>2020-11-03T18:09:15Z</time>
      </trkpt>
      <trkpt lat="41.886223" lon="2.741101">
        <ele>117.617</ele>
        <time>2020-11-03T18:09:16Z</time>
      </trkpt>
      <trkpt lat="41.886199" lon="2.741028">
        <ele>117.685</ele>
        <time>2020-11-03T18:09:17Z</time>
      </trkpt>
      <trkpt lat="41.886173" lon="2.740954">
        <ele>117.637</ele>
        <time>2020-11-03T18:09:18Z</time>
      </trkpt>
      <trkpt lat="41.886143" lon="2.740880">
        <ele>117.693</ele>
        <time>2020-11-03T18:09:19Z</time>
      </trkpt>
      <trkpt lat="41.886106" lon="2.740809">
        <ele>117.428</ele>
        <time>2020-11-03T18:09:20Z</time>
      </trkpt>
      <trkpt lat="41.886065" lon="2.740744">
        <ele>117.433</ele>
        <time>2020-11-03T18:09:21Z</time>
      </trkpt>
      <trkpt lat="41.886021" lon="2.740682">
        <ele>117.646</ele>
        <time>2020-11-03T18:09:22Z</time>
      </trkpt>
      <trkpt lat="41.885977" lon="2.740622">
        <ele>117.688</ele>
        <time>2020-11-03T18:09:23Z</time>
      </trkpt>
      <trkpt lat="41.885931" lon="2.740564">
        <ele>117.624</ele>
        <time>2020-11-03T18:09:24Z</time>
      </trkpt>
      <trkpt lat="41.885883" lon="2.740508">
        <ele>117.626</ele>
        <time>2020-11-03T18:09:25Z</time>
      </trkpt>
      <trkpt lat="41.885835" lon="2.740456">
        <ele>117.608</ele>
        <time>2020-11-03T18:09:26Z</time>
      </trkpt>
      <trkpt lat="41.885787" lon="2.740406">
        <ele>117.864</ele>
        <time>2020-11-03T18:09:27Z</time>
      </trkpt>
      <trkpt lat="41.885740" lon="2.740357">
        <ele>117.858</ele>
        <time>2020-11-03T18:09:28Z</time>
      </trkpt>
      <trkpt lat="41.885699" lon="2.740303">
        <ele>118.046</ele>
        <time>2020-11-03T18:09:29Z</time>
      </trkpt>
      <trkpt lat="41.885666" lon="2.740235">
        <ele>118.298</ele>
        <time>2020-11-03T18:09:30Z</time>
      </trkpt>
      <trkpt lat="41.885650" lon="2.740158">
        <ele>118.454</ele>
        <time>2020-11-03T18:09:31Z</time>
      </trkpt>
      <trkpt lat="41.885644" lon="2.740077">
        <ele>118.479</ele>
        <time>2020-11-03T18:09:32Z</time>
      </trkpt>
      <trkpt lat="41.885644" lon="2.739994">
        <ele>118.464</ele>
        <time>2020-11-03T18:09:33Z</time>
      </trkpt>
      <trkpt lat="41.885645" lon="2.739912">
        <ele>118.697</ele>
        <time>2020-11-03T18:09:34Z</time>
      </trkpt>
      <trkpt lat="41.885647" lon="2.739830">
        <ele>118.614</ele>
        <time>2020-11-03T18:09:35Z</time>
      </trkpt>
      <trkpt lat="41.885647" lon="2.739751">
        <ele>119.054</ele>
        <time>2020-11-03T18:09:36Z</time>
      </trkpt>
      <trkpt lat="41.885645" lon="2.739676">
        <ele>119.209</ele>
        <time>2020-11-03T18:09:37Z</time>
      </trkpt>
      <trkpt lat="41.885639" lon="2.739604">
        <ele>119.408</ele>
        <time>2020-11-03T18:09:38Z</time>
      </trkpt>
      <trkpt lat="41.885631" lon="2.739535">
        <ele>119.677</ele>
        <time>2020-11-03T18:09:39Z</time>
      </trkpt>
      <trkpt lat="41.885621" lon="2.739468">
        <ele>119.871</ele>
        <time>2020-11-03T18:09:40Z</time>
      </trkpt>
      <trkpt lat="41.885612" lon="2.739404">
        <ele>120.039</ele>
        <time>2020-11-03T18:09:41Z</time>
      </trkpt>
      <trkpt lat="41.885606" lon="2.739343">
        <ele>120.411</ele>
        <time>2020-11-03T18:09:42Z</time>
      </trkpt>
      <trkpt lat="41.885597" lon="2.739281">
        <ele>120.817</ele>
        <time>2020-11-03T18:09:43Z</time>
      </trkpt>
      <trkpt lat="41.885581" lon="2.739221">
        <ele>121.022</ele>
        <time>2020-11-03T18:09:44Z</time>
      </trkpt>
      <trkpt lat="41.885559" lon="2.739164">
        <ele>121.237</ele>
        <time>2020-11-03T18:09:45Z</time>
      </trkpt>
      <trkpt lat="41.885533" lon="2.739111">
        <ele>121.430</ele>
        <time>2020-11-03T18:09:46Z</time>
      </trkpt>
      <trkpt lat="41.885499" lon="2.739062">
        <ele>121.481</ele>
        <time>2020-11-03T18:09:47Z</time>
      </trkpt>
      <trkpt lat="41.885461" lon="2.739020">
        <ele>121.661</ele>
        <time>2020-11-03T18:09:48Z</time>
      </trkpt>
      <trkpt lat="41.885424" lon="2.738979">
        <ele>121.817</ele>
        <time>2020-11-03T18:09:49Z</time>
      </trkpt>
      <trkpt lat="41.885395" lon="2.738934">
        <ele>122.008</ele>
        <time>2020-11-03T18:09:50Z</time>
      </trkpt>
      <trkpt lat="41.885376" lon="2.738885">
        <ele>122.214</ele>
        <time>2020-11-03T18:09:51Z</time>
      </trkpt>
      <trkpt lat="41.885368" lon="2.738831">
        <ele>122.478</ele>
        <time>2020-11-03T18:09:52Z</time>
      </trkpt>
      <trkpt lat="41.885369" lon="2.738774">
        <ele>122.666</ele>
        <time>2020-11-03T18:09:53Z</time>
      </trkpt>
      <trkpt lat="41.885376" lon="2.738715">
        <ele>122.848</ele>
        <time>2020-11-03T18:09:54Z</time>
      </trkpt>
      <trkpt lat="41.885384" lon="2.738657">
        <ele>123.044</ele>
        <time>2020-11-03T18:09:55Z</time>
      </trkpt>
      <trkpt lat="41.885394" lon="2.738600">
        <ele>123.219</ele>
        <time>2020-11-03T18:09:56Z</time>
      </trkpt>
      <trkpt lat="41.885401" lon="2.738551">
        <ele>123.454</ele>
        <time>2020-11-03T18:09:57Z</time>
      </trkpt>
      <trkpt lat="41.885407" lon="2.738506">
        <ele>123.687</ele>
        <time>2020-11-03T18:09:58Z</time>
      </trkpt>
      <trkpt lat="41.885413" lon="2.738467">
        <ele>124.093</ele>
        <time>2020-11-03T18:09:59Z</time>
      </trkpt>
      <trkpt lat="41.885431" lon="2.738389">
        <ele>124.265</ele>
        <time>2020-11-03T18:10:00Z</time>
      </trkpt>
      <trkpt lat="41.885431" lon="2.738389">
        <ele>124.421</ele>
        <time>2020-11-03T18:10:01Z</time>
      </trkpt>
      <trkpt lat="41.885440" lon="2.738344">
        <ele>124.408</ele>
        <time>2020-11-03T18:10:02Z</time>
      </trkpt>
      <trkpt lat="41.885447" lon="2.738295">
        <ele>124.695</ele>
        <time>2020-11-03T18:10:03Z</time>
      </trkpt>
      <trkpt lat="41.885454" lon="2.738246">
        <ele>124.849</ele>
        <time>2020-11-03T18:10:04Z</time>
      </trkpt>
      <trkpt lat="41.885463" lon="2.738191">
        <ele>125.297</ele>
        <time>2020-11-03T18:10:05Z</time>
      </trkpt>
      <trkpt lat="41.885474" lon="2.738137">
        <ele>125.639</ele>
        <time>2020-11-03T18:10:06Z</time>
      </trkpt>
      <trkpt lat="41.885488" lon="2.738083">
        <ele>125.895</ele>
        <time>2020-11-03T18:10:07Z</time>
      </trkpt>
      <trkpt lat="41.885503" lon="2.738030">
        <ele>126.280</ele>
        <time>2020-11-03T18:10:08Z</time>
      </trkpt>
      <trkpt lat="41.885518" lon="2.737975">
        <ele>126.695</ele>
        <time>2020-11-03T18:10:09Z</time>
      </trkpt>
      <trkpt lat="41.885535" lon="2.737923">
        <ele>127.098</ele>
        <time>2020-11-03T18:10:10Z</time>
      </trkpt>
      <trkpt lat="41.885551" lon="2.737872">
        <ele>127.482</ele>
        <time>2020-11-03T18:10:11Z</time>
      </trkpt>
      <trkpt lat="41.885568" lon="2.737818">
        <ele>127.843</ele>
        <time>2020-11-03T18:10:12Z</time>
      </trkpt>
      <trkpt lat="41.885585" lon="2.737765">
        <ele>128.017</ele>
        <time>2020-11-03T18:10:13Z</time>
      </trkpt>
      <trkpt lat="41.885601" lon="2.737711">
        <ele>128.208</ele>
        <time>2020-11-03T18:10:14Z</time>
      </trkpt>
      <trkpt lat="41.885617" lon="2.737658">
        <ele>128.444</ele>
        <time>2020-11-03T18:10:15Z</time>
      </trkpt>
      <trkpt lat="41.885633" lon="2.737607">
        <ele>128.698</ele>
        <time>2020-11-03T18:10:16Z</time>
      </trkpt>
      <trkpt lat="41.885649" lon="2.737556">
        <ele>128.816</ele>
        <time>2020-11-03T18:10:17Z</time>
      </trkpt>
      <trkpt lat="41.885665" lon="2.737508">
        <ele>129.038</ele>
        <time>2020-11-03T18:10:18Z</time>
      </trkpt>
      <trkpt lat="41.885678" lon="2.737462">
        <ele>129.424</ele>
        <time>2020-11-03T18:10:19Z</time>
      </trkpt>
      <trkpt lat="41.885692" lon="2.737415">
        <ele>129.659</ele>
        <time>2020-11-03T18:10:20Z</time>
      </trkpt>
      <trkpt lat="41.885705" lon="2.737369">
        <ele>129.874</ele>
        <time>2020-11-03T18:10:21Z</time>
      </trkpt>
      <trkpt lat="41.885718" lon="2.737324">
        <ele>130.037</ele>
        <time>2020-11-03T18:10:22Z</time>
      </trkpt>
      <trkpt lat="41.885730" lon="2.737278">
        <ele>130.248</ele>
        <time>2020-11-03T18:10:23Z</time>
      </trkpt>
      <trkpt lat="41.885739" lon="2.737234">
        <ele>130.461</ele>
        <time>2020-11-03T18:10:24Z</time>
      </trkpt>
      <trkpt lat="41.885748" lon="2.737189">
        <ele>130.417</ele>
        <time>2020-11-03T18:10:25Z</time>
      </trkpt>
      <trkpt lat="41.885758" lon="2.737144">
        <ele>130.608</ele>
        <time>2020-11-03T18:10:26Z</time>
      </trkpt>
      <trkpt lat="41.885770" lon="2.737101">
        <ele>130.690</ele>
        <time>2020-11-03T18:10:27Z</time>
      </trkpt>
      <trkpt lat="41.885781" lon="2.737059">
        <ele>130.864</ele>
        <time>2020-11-03T18:10:28Z</time>
      </trkpt>
      <trkpt lat="41.885788" lon="2.737014">
        <ele>131.032</ele>
        <time>2020-11-03T18:10:29Z</time>
      </trkpt>
      <trkpt lat="41.885787" lon="2.736965">
        <ele>131.084</ele>
        <time>2020-11-03T18:10:30Z</time>
      </trkpt>
      <trkpt lat="41.885779" lon="2.736916">
        <ele>131.020</ele>
        <time>2020-11-03T18:10:31Z</time>
      </trkpt>
      <trkpt lat="41.885762" lon="2.736870">
        <ele>131.095</ele>
        <time>2020-11-03T18:10:32Z</time>
      </trkpt>
      <trkpt lat="41.885738" lon="2.736829">
        <ele>131.080</ele>
        <time>2020-11-03T18:10:33Z</time>
      </trkpt>
      <trkpt lat="41.885711" lon="2.736792">
        <ele>131.033</ele>
        <time>2020-11-03T18:10:34Z</time>
      </trkpt>
      <trkpt lat="41.885683" lon="2.736756">
        <ele>131.031</ele>
        <time>2020-11-03T18:10:35Z</time>
      </trkpt>
      <trkpt lat="41.885655" lon="2.736717">
        <ele>131.061</ele>
        <time>2020-11-03T18:10:36Z</time>
      </trkpt>
      <trkpt lat="41.885630" lon="2.736679">
        <ele>131.007</ele>
        <time>2020-11-03T18:10:37Z</time>
      </trkpt>
      <trkpt lat="41.885602" lon="2.736640">
        <ele>131.208</ele>
        <time>2020-11-03T18:10:38Z</time>
      </trkpt>
      <trkpt lat="41.885573" lon="2.736604">
        <ele>131.439</ele>
        <time>2020-11-03T18:10:39Z</time>
      </trkpt>
      <trkpt lat="41.885543" lon="2.736568">
        <ele>131.443</ele>
        <time>2020-11-03T18:10:40Z</time>
      </trkpt>
      <trkpt lat="41.885512" lon="2.736532">
        <ele>131.641</ele>
        <time>2020-11-03T18:10:41Z</time>
      </trkpt>
      <trkpt lat="41.885483" lon="2.736493">
        <ele>131.873</ele>
        <time>2020-11-03T18:10:42Z</time>
      </trkpt>
      <trkpt lat="41.885453" lon="2.736455">
        <ele>131.839</ele>
        <time>2020-11-03T18:10:43Z</time>
      </trkpt>
      <trkpt lat="41.885422" lon="2.736420">
        <ele>132.094</ele>
        <time>2020-11-03T18:10:44Z</time>
      </trkpt>
      <trkpt lat="41.885385" lon="2.736380">
        <ele>132.039</ele>
        <time>2020-11-03T18:10:45Z</time>
      </trkpt>
      <trkpt lat="41.885347" lon="2.736342">
        <ele>132.092</ele>
        <time>2020-11-03T18:10:46Z</time>
      </trkpt>
      <trkpt lat="41.885304" lon="2.736305">
        <ele>132.072</ele>
        <time>2020-11-03T18:10:47Z</time>
      </trkpt>
      <trkpt lat="41.885258" lon="2.736272">
        <ele>132.013</ele>
        <time>2020-11-03T18:10:48Z</time>
      </trkpt>
      <trkpt lat="41.885209" lon="2.736240">
        <ele>132.014</ele>
        <time>2020-11-03T18:10:49Z</time>
      </trkpt>
      <trkpt lat="41.885160" lon="2.736207">
        <ele>132.008</ele>
        <time>2020-11-03T18:10:50Z</time>
      </trkpt>
      <trkpt lat="41.885107" lon="2.736175">
        <ele>131.893</ele>
        <time>2020-11-03T18:10:51Z</time>
      </trkpt>
      <trkpt lat="41.885050" lon="2.736148">
        <ele>131.657</ele>
        <time>2020-11-03T18:10:52Z</time>
      </trkpt>
      <trkpt lat="41.884989" lon="2.736122">
        <ele>131.645</ele>
        <time>2020-11-03T18:10:53Z</time>
      </trkpt>
      <trkpt lat="41.884926" lon="2.736095">
        <ele>131.427</ele>
        <time>2020-11-03T18:10:54Z</time>
      </trkpt>
      <trkpt lat="41.884863" lon="2.736065">
        <ele>131.233</ele>
        <time>2020-11-03T18:10:55Z</time>
      </trkpt>
      <trkpt lat="41.884800" lon="2.736031">
        <ele>131.288</ele>
        <time>2020-11-03T18:10:56Z</time>
      </trkpt>
      <trkpt lat="41.884736" lon="2.735992">
        <ele>131.043</ele>
        <time>2020-11-03T18:10:57Z</time>
      </trkpt>
      <trkpt lat="41.884675" lon="2.735947">
        <ele>130.636</ele>
        <time>2020-11-03T18:10:58Z</time>
      </trkpt>
      <trkpt lat="41.884614" lon="2.735897">
        <ele>130.412</ele>
        <time>2020-11-03T18:10:59Z</time>
      </trkpt>
      <trkpt lat="41.884552" lon="2.735847">
        <ele>130.232</ele>
        <time>2020-11-03T18:11:00Z</time>
      </trkpt>
      <trkpt lat="41.884487" lon="2.735797">
        <ele>130.005</ele>
        <time>2020-11-03T18:11:01Z</time>
      </trkpt>
      <trkpt lat="41.884418" lon="2.735751">
        <ele>129.808</ele>
        <time>2020-11-03T18:11:02Z</time>
      </trkpt>
      <trkpt lat="41.884347" lon="2.735717">
        <ele>129.877</ele>
        <time>2020-11-03T18:11:03Z</time>
      </trkpt>
      <trkpt lat="41.884273" lon="2.735694">
        <ele>129.611</ele>
        <time>2020-11-03T18:11:04Z</time>
      </trkpt>
      <trkpt lat="41.884197" lon="2.735682">
        <ele>129.219</ele>
        <time>2020-11-03T18:11:05Z</time>
      </trkpt>
      <trkpt lat="41.884120" lon="2.735676">
        <ele>128.851</ele>
        <time>2020-11-03T18:11:06Z</time>
      </trkpt>
      <trkpt lat="41.884039" lon="2.735675">
        <ele>128.447</ele>
        <time>2020-11-03T18:11:07Z</time>
      </trkpt>
      <trkpt lat="41.883958" lon="2.735680">
        <ele>128.272</ele>
        <time>2020-11-03T18:11:08Z</time>
      </trkpt>
      <trkpt lat="41.883876" lon="2.735689">
        <ele>128.077</ele>
        <time>2020-11-03T18:11:09Z</time>
      </trkpt>
      <trkpt lat="41.883792" lon="2.735700">
        <ele>127.890</ele>
        <time>2020-11-03T18:11:10Z</time>
      </trkpt>
      <trkpt lat="41.883713" lon="2.735713">
        <ele>127.448</ele>
        <time>2020-11-03T18:11:11Z</time>
      </trkpt>
      <trkpt lat="41.883641" lon="2.735732">
        <ele>127.261</ele>
        <time>2020-11-03T18:11:12Z</time>
      </trkpt>
      <trkpt lat="41.883574" lon="2.735756">
        <ele>126.817</ele>
        <time>2020-11-03T18:11:13Z</time>
      </trkpt>
      <trkpt lat="41.883511" lon="2.735781">
        <ele>126.208</ele>
        <time>2020-11-03T18:11:14Z</time>
      </trkpt>
      <trkpt lat="41.883449" lon="2.735808">
        <ele>125.610</ele>
        <time>2020-11-03T18:11:15Z</time>
      </trkpt>
      <trkpt lat="41.883391" lon="2.735835">
        <ele>125.054</ele>
        <time>2020-11-03T18:11:16Z</time>
      </trkpt>
      <trkpt lat="41.883338" lon="2.735861">
        <ele>124.452</ele>
        <time>2020-11-03T18:11:17Z</time>
      </trkpt>
      <trkpt lat="41.883287" lon="2.735886">
        <ele>124.064</ele>
        <time>2020-11-03T18:11:18Z</time>
      </trkpt>
      <trkpt lat="41.883237" lon="2.735912">
        <ele>123.640</ele>
        <time>2020-11-03T18:11:19Z</time>
      </trkpt>
      <trkpt lat="41.883183" lon="2.735941">
        <ele>123.275</ele>
        <time>2020-11-03T18:11:20Z</time>
      </trkpt>
      <trkpt lat="41.883124" lon="2.735971">
        <ele>122.860</ele>
        <time>2020-11-03T18:11:21Z</time>
      </trkpt>
      <trkpt lat="41.883059" lon="2.736001">
        <ele>122.633</ele>
        <time>2020-11-03T18:11:22Z</time>
      </trkpt>
      <trkpt lat="41.882990" lon="2.736029">
        <ele>122.481</ele>
        <time>2020-11-03T18:11:23Z</time>
      </trkpt>
      <trkpt lat="41.882917" lon="2.736053">
        <ele>122.261</ele>
        <time>2020-11-03T18:11:24Z</time>
      </trkpt>
      <trkpt lat="41.882840" lon="2.736067">
        <ele>121.817</ele>
        <time>2020-11-03T18:11:25Z</time>
      </trkpt>
      <trkpt lat="41.882762" lon="2.736064">
        <ele>121.608</ele>
        <time>2020-11-03T18:11:26Z</time>
      </trkpt>
      <trkpt lat="41.882683" lon="2.736045">
        <ele>121.224</ele>
        <time>2020-11-03T18:11:27Z</time>
      </trkpt>
      <trkpt lat="41.882608" lon="2.736007">
        <ele>121.058</ele>
        <time>2020-11-03T18:11:28Z</time>
      </trkpt>
      <trkpt lat="41.882540" lon="2.735952">
        <ele>120.816</ele>
        <time>2020-11-03T18:11:29Z</time>
      </trkpt>
      <trkpt lat="41.882475" lon="2.735884">
        <ele>120.868</ele>
        <time>2020-11-03T18:11:30Z</time>
      </trkpt>
      <trkpt lat="41.882414" lon="2.735811">
        <ele>120.844</ele>
        <time>2020-11-03T18:11:31Z</time>
      </trkpt>
      <trkpt lat="41.882353" lon="2.735734">
        <ele>120.619</ele>
        <time>2020-11-03T18:11:32Z</time>
      </trkpt>
      <trkpt lat="41.882293" lon="2.735657">
        <ele>120.654</ele>
        <time>2020-11-03T18:11:33Z</time>
      </trkpt>
      <trkpt lat="41.882232" lon="2.735581">
        <ele>120.637</ele>
        <time>2020-11-03T18:11:34Z</time>
      </trkpt>
      <trkpt lat="41.882170" lon="2.735505">
        <ele>120.862</ele>
        <time>2020-11-03T18:11:35Z</time>
      </trkpt>
      <trkpt lat="41.882109" lon="2.735428">
        <ele>120.883</ele>
        <time>2020-11-03T18:11:36Z</time>
      </trkpt>
      <trkpt lat="41.882047" lon="2.735351">
        <ele>120.811</ele>
        <time>2020-11-03T18:11:37Z</time>
      </trkpt>
      <trkpt lat="41.881985" lon="2.735274">
        <ele>120.808</ele>
        <time>2020-11-03T18:11:38Z</time>
      </trkpt>
      <trkpt lat="41.881923" lon="2.735198">
        <ele>120.642</ele>
        <time>2020-11-03T18:11:39Z</time>
      </trkpt>
      <trkpt lat="41.881861" lon="2.735122">
        <ele>120.626</ele>
        <time>2020-11-03T18:11:40Z</time>
      </trkpt>
      <trkpt lat="41.881799" lon="2.735050">
        <ele>120.684</ele>
        <time>2020-11-03T18:11:41Z</time>
      </trkpt>
      <trkpt lat="41.881735" lon="2.734984">
        <ele>120.656</ele>
        <time>2020-11-03T18:11:42Z</time>
      </trkpt>
      <trkpt lat="41.881663" lon="2.734929">
        <ele>120.422</ele>
        <time>2020-11-03T18:11:43Z</time>
      </trkpt>
      <trkpt lat="41.881586" lon="2.734890">
        <ele>120.487</ele>
        <time>2020-11-03T18:11:44Z</time>
      </trkpt>
      <trkpt lat="41.881508" lon="2.734871">
        <ele>120.262</ele>
        <time>2020-11-03T18:11:45Z</time>
      </trkpt>
      <trkpt lat="41.881430" lon="2.734867">
        <ele>120.015</ele>
        <time>2020-11-03T18:11:46Z</time>
      </trkpt>
      <trkpt lat="41.881353" lon="2.734874">
        <ele>120.022</ele>
        <time>2020-11-03T18:11:47Z</time>
      </trkpt>
      <trkpt lat="41.881274" lon="2.734889">
        <ele>119.862</ele>
        <time>2020-11-03T18:11:48Z</time>
      </trkpt>
      <trkpt lat="41.881196" lon="2.734906">
        <ele>119.608</ele>
        <time>2020-11-03T18:11:49Z</time>
      </trkpt>
      <trkpt lat="41.881116" lon="2.734924">
        <ele>119.408</ele>
        <time>2020-11-03T18:11:50Z</time>
      </trkpt>
      <trkpt lat="41.881037" lon="2.734941">
        <ele>119.488</ele>
        <time>2020-11-03T18:11:51Z</time>
      </trkpt>
      <trkpt lat="41.880958" lon="2.734959">
        <ele>119.262</ele>
        <time>2020-11-03T18:11:52Z</time>
      </trkpt>
      <trkpt lat="41.880880" lon="2.734977">
        <ele>119.260</ele>
        <time>2020-11-03T18:11:53Z</time>
      </trkpt>
      <trkpt lat="41.880800" lon="2.734995">
        <ele>119.282</ele>
        <time>2020-11-03T18:11:54Z</time>
      </trkpt>
      <trkpt lat="41.880720" lon="2.735012">
        <ele>119.238</ele>
        <time>2020-11-03T18:11:55Z</time>
      </trkpt>
      <trkpt lat="41.880641" lon="2.735029">
        <ele>119.033</ele>
        <time>2020-11-03T18:11:56Z</time>
      </trkpt>
      <trkpt lat="41.880562" lon="2.735044">
        <ele>118.888</ele>
        <time>2020-11-03T18:11:57Z</time>
      </trkpt>
      <trkpt lat="41.880483" lon="2.735056">
        <ele>118.831</ele>
        <time>2020-11-03T18:11:58Z</time>
      </trkpt>
      <trkpt lat="41.880405" lon="2.735067">
        <ele>118.898</ele>
        <time>2020-11-03T18:11:59Z</time>
      </trkpt>
      <trkpt lat="41.880326" lon="2.735080">
        <ele>118.615</ele>
        <time>2020-11-03T18:12:00Z</time>
      </trkpt>
      <trkpt lat="41.880249" lon="2.735092">
        <ele>118.626</ele>
        <time>2020-11-03T18:12:01Z</time>
      </trkpt>
      <trkpt lat="41.880173" lon="2.735103">
        <ele>118.608</ele>
        <time>2020-11-03T18:12:02Z</time>
      </trkpt>
      <trkpt lat="41.880097" lon="2.735116">
        <ele>118.655</ele>
        <time>2020-11-03T18:12:03Z</time>
      </trkpt>
      <trkpt lat="41.880023" lon="2.735129">
        <ele>118.619</ele>
        <time>2020-11-03T18:12:04Z</time>
      </trkpt>
      <trkpt lat="41.879947" lon="2.735144">
        <ele>118.857</ele>
        <time>2020-11-03T18:12:05Z</time>
      </trkpt>
      <trkpt lat="41.879872" lon="2.735158">
        <ele>118.879</ele>
        <time>2020-11-03T18:12:06Z</time>
      </trkpt>
      <trkpt lat="41.879798" lon="2.735171">
        <ele>118.855</ele>
        <time>2020-11-03T18:12:07Z</time>
      </trkpt>
      <trkpt lat="41.879725" lon="2.735179">
        <ele>119.070</ele>
        <time>2020-11-03T18:12:08Z</time>
      </trkpt>
      <trkpt lat="41.879651" lon="2.735178">
        <ele>119.255</ele>
        <time>2020-11-03T18:12:09Z</time>
      </trkpt>
      <trkpt lat="41.879579" lon="2.735167">
        <ele>119.418</ele>
        <time>2020-11-03T18:12:10Z</time>
      </trkpt>
      <trkpt lat="41.879507" lon="2.735155">
        <ele>119.628</ele>
        <time>2020-11-03T18:12:11Z</time>
      </trkpt>
      <trkpt lat="41.879435" lon="2.735144">
        <ele>119.889</ele>
        <time>2020-11-03T18:12:12Z</time>
      </trkpt>
      <trkpt lat="41.879362" lon="2.735133">
        <ele>120.017</ele>
        <time>2020-11-03T18:12:13Z</time>
      </trkpt>
      <trkpt lat="41.879291" lon="2.735124">
        <ele>120.008</ele>
        <time>2020-11-03T18:12:14Z</time>
      </trkpt>
      <trkpt lat="41.879222" lon="2.735118">
        <ele>120.218</ele>
        <time>2020-11-03T18:12:15Z</time>
      </trkpt>
      <trkpt lat="41.879150" lon="2.735120">
        <ele>120.292</ele>
        <time>2020-11-03T18:12:16Z</time>
      </trkpt>
      <trkpt lat="41.879079" lon="2.735123">
        <ele>120.470</ele>
        <time>2020-11-03T18:12:17Z</time>
      </trkpt>
      <trkpt lat="41.879011" lon="2.735124">
        <ele>120.462</ele>
        <time>2020-11-03T18:12:18Z</time>
      </trkpt>
      <trkpt lat="41.878945" lon="2.735117">
        <ele>120.418</ele>
        <time>2020-11-03T18:12:19Z</time>
      </trkpt>
      <trkpt lat="41.878880" lon="2.735102">
        <ele>120.493</ele>
        <time>2020-11-03T18:12:20Z</time>
      </trkpt>
      <trkpt lat="41.878817" lon="2.735082">
        <ele>120.658</ele>
        <time>2020-11-03T18:12:21Z</time>
      </trkpt>
      <trkpt lat="41.878758" lon="2.735056">
        <ele>120.851</ele>
        <time>2020-11-03T18:12:22Z</time>
      </trkpt>
      <trkpt lat="41.878699" lon="2.735029">
        <ele>121.026</ele>
        <time>2020-11-03T18:12:23Z</time>
      </trkpt>
      <trkpt lat="41.878621" lon="2.735001">
        <ele>121.247</ele>
        <time>2020-11-03T18:12:24Z</time>
      </trkpt>
      <trkpt lat="41.878559" lon="2.735024">
        <ele>121.411</ele>
        <time>2020-11-03T18:12:25Z</time>
      </trkpt>
      <trkpt lat="41.878514" lon="2.735022">
        <ele>121.408</ele>
        <time>2020-11-03T18:12:26Z</time>
      </trkpt>
      <trkpt lat="41.878457" lon="2.735021">
        <ele>121.658</ele>
        <time>2020-11-03T18:12:27Z</time>
      </trkpt>
      <trkpt lat="41.878405" lon="2.735020">
        <ele>121.682</ele>
        <time>2020-11-03T18:12:28Z</time>
      </trkpt>
      <trkpt lat="41.878356" lon="2.735019">
        <ele>121.870</ele>
        <time>2020-11-03T18:12:29Z</time>
      </trkpt>
      <trkpt lat="41.878318" lon="2.735017">
        <ele>122.072</ele>
        <time>2020-11-03T18:12:30Z</time>
      </trkpt>
      <trkpt lat="41.878274" lon="2.735019">
        <ele>122.228</ele>
        <time>2020-11-03T18:12:31Z</time>
      </trkpt>
      <trkpt lat="41.878225" lon="2.735023">
        <ele>122.663</ele>
        <time>2020-11-03T18:12:32Z</time>
      </trkpt>
      <trkpt lat="41.878174" lon="2.735026">
        <ele>123.028</ele>
        <time>2020-11-03T18:12:33Z</time>
      </trkpt>
      <trkpt lat="41.878120" lon="2.735026">
        <ele>123.411</ele>
        <time>2020-11-03T18:12:34Z</time>
      </trkpt>
      <trkpt lat="41.878065" lon="2.735026">
        <ele>123.648</ele>
        <time>2020-11-03T18:12:35Z</time>
      </trkpt>
      <trkpt lat="41.878011" lon="2.735032">
        <ele>124.061</ele>
        <time>2020-11-03T18:12:36Z</time>
      </trkpt>
      <trkpt lat="41.877961" lon="2.735034">
        <ele>124.217</ele>
        <time>2020-11-03T18:12:37Z</time>
      </trkpt>
      <trkpt lat="41.877913" lon="2.735036">
        <ele>124.608</ele>
        <time>2020-11-03T18:12:38Z</time>
      </trkpt>
      <trkpt lat="41.877865" lon="2.735039">
        <ele>125.060</ele>
        <time>2020-11-03T18:12:39Z</time>
      </trkpt>
      <trkpt lat="41.877817" lon="2.735038">
        <ele>125.454</ele>
        <time>2020-11-03T18:12:40Z</time>
      </trkpt>
      <trkpt lat="41.877771" lon="2.735032">
        <ele>125.852</ele>
        <time>2020-11-03T18:12:41Z</time>
      </trkpt>
      <trkpt lat="41.877730" lon="2.735017">
        <ele>126.024</ele>
        <time>2020-11-03T18:12:42Z</time>
      </trkpt>
      <trkpt lat="41.877688" lon="2.735002">
        <ele>126.480</ele>
        <time>2020-11-03T18:12:43Z</time>
      </trkpt>
      <trkpt lat="41.877645" lon="2.734990">
        <ele>126.875</ele>
        <time>2020-11-03T18:12:44Z</time>
      </trkpt>
      <trkpt lat="41.877599" lon="2.734980">
        <ele>127.280</ele>
        <time>2020-11-03T18:12:45Z</time>
      </trkpt>
      <trkpt lat="41.877552" lon="2.734971">
        <ele>127.443</ele>
        <time>2020-11-03T18:12:46Z</time>
      </trkpt>
      <trkpt lat="41.877505" lon="2.734963">
        <ele>127.692</ele>
        <time>2020-11-03T18:12:47Z</time>
      </trkpt>
      <trkpt lat="41.877458" lon="2.734957">
        <ele>127.873</ele>
        <time>2020-11-03T18:12:48Z</time>
      </trkpt>
      <trkpt lat="41.877412" lon="2.734951">
        <ele>128.020</ele>
        <time>2020-11-03T18:12:49Z</time>
      </trkpt>
      <trkpt lat="41.877364" lon="2.734947">
        <ele>128.208</ele>
        <time>2020-11-03T18:12:50Z</time>
      </trkpt>
      <trkpt lat="41.877316" lon="2.734944">
        <ele>128.245</ele>
        <time>2020-11-03T18:12:51Z</time>
      </trkpt>
      <trkpt lat="41.877268" lon="2.734941">
        <ele>128.429</ele>
        <time>2020-11-03T18:12:52Z</time>
      </trkpt>
      <trkpt lat="41.877223" lon="2.734939">
        <ele>128.457</ele>
        <time>2020-11-03T18:12:53Z</time>
      </trkpt>
      <trkpt lat="41.877176" lon="2.734935">
        <ele>128.669</ele>
        <time>2020-11-03T18:12:54Z</time>
      </trkpt>
      <trkpt lat="41.877131" lon="2.734929">
        <ele>129.055</ele>
        <time>2020-11-03T18:12:55Z</time>
      </trkpt>
      <trkpt lat="41.877084" lon="2.734921">
        <ele>129.230</ele>
        <time>2020-11-03T18:12:56Z</time>
      </trkpt>
      <trkpt lat="41.877037" lon="2.734911">
        <ele>129.435</ele>
        <time>2020-11-03T18:12:57Z</time>
      </trkpt>
      <trkpt lat="41.876991" lon="2.734896">
        <ele>129.648</ele>
        <time>2020-11-03T18:12:58Z</time>
      </trkpt>
      <trkpt lat="41.876947" lon="2.734879">
        <ele>129.886</ele>
        <time>2020-11-03T18:12:59Z</time>
      </trkpt>
      <trkpt lat="41.876904" lon="2.734861">
        <ele>130.060</ele>
        <time>2020-11-03T18:13:00Z</time>
      </trkpt>
      <trkpt lat="41.876861" lon="2.734845">
        <ele>130.026</ele>
        <time>2020-11-03T18:13:01Z</time>
      </trkpt>
      <trkpt lat="41.876818" lon="2.734830">
        <ele>130.408</ele>
        <time>2020-11-03T18:13:02Z</time>
      </trkpt>
      <trkpt lat="41.876777" lon="2.734815">
        <ele>130.634</ele>
        <time>2020-11-03T18:13:03Z</time>
      </trkpt>
      <trkpt lat="41.876735" lon="2.734800">
        <ele>131.058</ele>
        <time>2020-11-03T18:13:04Z</time>
      </trkpt>
      <trkpt lat="41.876693" lon="2.734787">
        <ele>131.456</ele>
        <time>2020-11-03T18:13:05Z</time>
      </trkpt>
      <trkpt lat="41.876651" lon="2.734774">
        <ele>131.838</ele>
        <time>2020-11-03T18:13:06Z</time>
      </trkpt>
      <trkpt lat="41.876608" lon="2.734758">
        <ele>132.064</ele>
        <time>2020-11-03T18:13:07Z</time>
      </trkpt>
      <trkpt lat="41.876563" lon="2.734744">
        <ele>132.229</ele>
        <time>2020-11-03T18:13:08Z</time>
      </trkpt>
      <trkpt lat="41.876517" lon="2.734730">
        <ele>132.424</ele>
        <time>2020-11-03T18:13:09Z</time>
      </trkpt>
      <trkpt lat="41.876471" lon="2.734717">
        <ele>132.627</ele>
        <time>2020-11-03T18:13:10Z</time>
      </trkpt>
      <trkpt lat="41.876422" lon="2.734707">
        <ele>132.823</ele>
        <time>2020-11-03T18:13:11Z</time>
      </trkpt>
      <trkpt lat="41.876370" lon="2.734698">
        <ele>132.883</ele>
        <time>2020-11-03T18:13:12Z</time>
      </trkpt>
      <trkpt lat="41.876319" lon="2.734691">
        <ele>132.811</ele>
        <time>2020-11-03T18:13:13Z</time>
      </trkpt>
      <trkpt lat="41.876266" lon="2.734687">
        <ele>132.808</ele>
        <time>2020-11-03T18:13:14Z</time>
      </trkpt>
      <trkpt lat="41.876212" lon="2.734684">
        <ele>132.898</ele>
        <time>2020-11-03T18:13:15Z</time>
      </trkpt>
      <trkpt lat="41.876155" lon="2.734681">
        <ele>132.812</ele>
        <time>2020-11-03T18:13:16Z</time>
      </trkpt>
      <trkpt lat="41.876096" lon="2.734679">
        <ele>132.810</ele>
        <time>2020-11-03T18:13:17Z</time>
      </trkpt>
      <trkpt lat="41.876036" lon="2.734676">
        <ele>132.842</ele>
        <time>2020-11-03T18:13:18Z</time>
      </trkpt>
      <trkpt lat="41.875977" lon="2.734676">
        <ele>133.058</ele>
        <time>2020-11-03T18:13:19Z</time>
      </trkpt>
      <trkpt lat="41.875917" lon="2.734677">
        <ele>133.043</ele>
        <time>2020-11-03T18:13:20Z</time>
      </trkpt>
      <trkpt lat="41.875858" lon="2.734678">
        <ele>133.038</ele>
        <time>2020-11-03T18:13:21Z</time>
      </trkpt>
      <trkpt lat="41.875799" lon="2.734681">
        <ele>133.021</ele>
        <time>2020-11-03T18:13:22Z</time>
      </trkpt>
      <trkpt lat="41.875739" lon="2.734683">
        <ele>133.021</ele>
        <time>2020-11-03T18:13:23Z</time>
      </trkpt>
      <trkpt lat="41.875682" lon="2.734682">
        <ele>133.041</ele>
        <time>2020-11-03T18:13:24Z</time>
      </trkpt>
      <trkpt lat="41.875625" lon="2.734681">
        <ele>133.005</ele>
        <time>2020-11-03T18:13:25Z</time>
      </trkpt>
      <trkpt lat="41.875568" lon="2.734679">
        <ele>133.008</ele>
        <time>2020-11-03T18:13:26Z</time>
      </trkpt>
      <trkpt lat="41.875510" lon="2.734676">
        <ele>133.068</ele>
        <time>2020-11-03T18:13:27Z</time>
      </trkpt>
      <trkpt lat="41.875452" lon="2.734674">
        <ele>133.282</ele>
        <time>2020-11-03T18:13:28Z</time>
      </trkpt>
      <trkpt lat="41.875394" lon="2.734672">
        <ele>133.230</ele>
        <time>2020-11-03T18:13:29Z</time>
      </trkpt>
      <trkpt lat="41.875335" lon="2.734670">
        <ele>133.462</ele>
        <time>2020-11-03T18:13:30Z</time>
      </trkpt>
      <trkpt lat="41.875276" lon="2.734668">
        <ele>133.478</ele>
        <time>2020-11-03T18:13:31Z</time>
      </trkpt>
      <trkpt lat="41.875214" lon="2.734667">
        <ele>133.453</ele>
        <time>2020-11-03T18:13:32Z</time>
      </trkpt>
      <trkpt lat="41.875149" lon="2.734667">
        <ele>133.478</ele>
        <time>2020-11-03T18:13:33Z</time>
      </trkpt>
      <trkpt lat="41.875080" lon="2.734666">
        <ele>133.411</ele>
        <time>2020-11-03T18:13:34Z</time>
      </trkpt>
      <trkpt lat="41.875008" lon="2.734667">
        <ele>133.224</ele>
        <time>2020-11-03T18:13:35Z</time>
      </trkpt>
      <trkpt lat="41.874933" lon="2.734667">
        <ele>133.204</ele>
        <time>2020-11-03T18:13:36Z</time>
      </trkpt>
      <trkpt lat="41.874856" lon="2.734668">
        <ele>132.814</ele>
        <time>2020-11-03T18:13:37Z</time>
      </trkpt>
      <trkpt lat="41.874776" lon="2.734665">
        <ele>132.408</ele>
        <time>2020-11-03T18:13:38Z</time>
      </trkpt>
      <trkpt lat="41.874692" lon="2.734659">
        <ele>131.838</ele>
        <time>2020-11-03T18:13:39Z</time>
      </trkpt>
      <trkpt lat="41.874605" lon="2.734656">
        <ele>131.262</ele>
        <time>2020-11-03T18:13:40Z</time>
      </trkpt>
      <trkpt lat="41.874516" lon="2.734653">
        <ele>130.870</ele>
        <time>2020-11-03T18:13:41Z</time>
      </trkpt>
      <trkpt lat="41.874425" lon="2.734648">
        <ele>130.282</ele>
        <time>2020-11-03T18:13:42Z</time>
      </trkpt>
      <trkpt lat="41.874331" lon="2.734643">
        <ele>129.618</ele>
        <time>2020-11-03T18:13:43Z</time>
      </trkpt>
      <trkpt lat="41.874233" lon="2.734642">
        <ele>129.013</ele>
        <time>2020-11-03T18:13:44Z</time>
      </trkpt>
      <trkpt lat="41.874133" lon="2.734642">
        <ele>128.438</ele>
        <time>2020-11-03T18:13:45Z</time>
      </trkpt>
      <trkpt lat="41.874033" lon="2.734640">
        <ele>128.031</ele>
        <time>2020-11-03T18:13:46Z</time>
      </trkpt>
      <trkpt lat="41.873934" lon="2.734636">
        <ele>127.418</ele>
        <time>2020-11-03T18:13:47Z</time>
      </trkpt>
      <trkpt lat="41.873834" lon="2.734631">
        <ele>127.098</ele>
        <time>2020-11-03T18:13:48Z</time>
      </trkpt>
      <trkpt lat="41.873734" lon="2.734628">
        <ele>126.617</ele>
        <time>2020-11-03T18:13:49Z</time>
      </trkpt>
      <trkpt lat="41.873635" lon="2.734631">
        <ele>126.208</ele>
        <time>2020-11-03T18:13:50Z</time>
      </trkpt>
      <trkpt lat="41.873541" lon="2.734645">
        <ele>126.067</ele>
        <time>2020-11-03T18:13:51Z</time>
      </trkpt>
      <trkpt lat="41.873451" lon="2.734669">
        <ele>126.091</ele>
        <time>2020-11-03T18:13:52Z</time>
      </trkpt>
      <trkpt lat="41.873361" lon="2.734701">
        <ele>126.079</ele>
        <time>2020-11-03T18:13:53Z</time>
      </trkpt>
      <trkpt lat="41.873272" lon="2.734734">
        <ele>126.081</ele>
        <time>2020-11-03T18:13:54Z</time>
      </trkpt>
      <trkpt lat="41.873186" lon="2.734767">
        <ele>126.097</ele>
        <time>2020-11-03T18:13:55Z</time>
      </trkpt>
      <trkpt lat="41.873101" lon="2.734800">
        <ele>126.062</ele>
        <time>2020-11-03T18:13:56Z</time>
      </trkpt>
      <trkpt lat="41.873020" lon="2.734833">
        <ele>126.297</ele>
        <time>2020-11-03T18:13:57Z</time>
      </trkpt>
      <trkpt lat="41.872942" lon="2.734865">
        <ele>126.240</ele>
        <time>2020-11-03T18:13:58Z</time>
      </trkpt>
      <trkpt lat="41.872865" lon="2.734894">
        <ele>126.437</ele>
        <time>2020-11-03T18:13:59Z</time>
      </trkpt>
      <trkpt lat="41.872794" lon="2.734920">
        <ele>126.449</ele>
        <time>2020-11-03T18:14:00Z</time>
      </trkpt>
      <trkpt lat="41.872727" lon="2.734946">
        <ele>126.813</ele>
        <time>2020-11-03T18:14:01Z</time>
      </trkpt>
      <trkpt lat="41.872663" lon="2.734972">
        <ele>127.208</ele>
        <time>2020-11-03T18:14:02Z</time>
      </trkpt>
      <trkpt lat="41.872600" lon="2.734996">
        <ele>127.819</ele>
        <time>2020-11-03T18:14:03Z</time>
      </trkpt>
      <trkpt lat="41.872543" lon="2.735019">
        <ele>128.443</ele>
        <time>2020-11-03T18:14:04Z</time>
      </trkpt>
      <trkpt lat="41.872489" lon="2.735040">
        <ele>129.061</ele>
        <time>2020-11-03T18:14:05Z</time>
      </trkpt>
      <trkpt lat="41.872439" lon="2.735062">
        <ele>129.453</ele>
        <time>2020-11-03T18:14:06Z</time>
      </trkpt>
      <trkpt lat="41.872391" lon="2.735083">
        <ele>130.259</ele>
        <time>2020-11-03T18:14:07Z</time>
      </trkpt>
      <trkpt lat="41.872343" lon="2.735103">
        <ele>130.854</ele>
        <time>2020-11-03T18:14:08Z</time>
      </trkpt>
      <trkpt lat="41.872300" lon="2.735119">
        <ele>131.499</ele>
        <time>2020-11-03T18:14:09Z</time>
      </trkpt>
      <trkpt lat="41.872256" lon="2.735136">
        <ele>131.812</ele>
        <time>2020-11-03T18:14:10Z</time>
      </trkpt>
      <trkpt lat="41.872213" lon="2.735151">
        <ele>132.254</ele>
        <time>2020-11-03T18:14:11Z</time>
      </trkpt>
      <trkpt lat="41.872171" lon="2.735165">
        <ele>132.656</ele>
        <time>2020-11-03T18:14:12Z</time>
      </trkpt>
      <trkpt lat="41.872128" lon="2.735182">
        <ele>133.011</ele>
        <time>2020-11-03T18:14:13Z</time>
      </trkpt>
      <trkpt lat="41.872086" lon="2.735198">
        <ele>133.608</ele>
        <time>2020-11-03T18:14:14Z</time>
      </trkpt>
      <trkpt lat="41.872042" lon="2.735213">
        <ele>134.021</ele>
        <time>2020-11-03T18:14:15Z</time>
      </trkpt>
      <trkpt lat="41.871999" lon="2.735230">
        <ele>134.475</ele>
        <time>2020-11-03T18:14:16Z</time>
      </trkpt>
      <trkpt lat="41.871957" lon="2.735246">
        <ele>134.813</ele>
        <time>2020-11-03T18:14:17Z</time>
      </trkpt>
      <trkpt lat="41.871915" lon="2.735263">
        <ele>135.065</ele>
        <time>2020-11-03T18:14:18Z</time>
      </trkpt>
      <trkpt lat="41.871873" lon="2.735281">
        <ele>135.441</ele>
        <time>2020-11-03T18:14:19Z</time>
      </trkpt>
      <trkpt lat="41.871830" lon="2.735299">
        <ele>135.616</ele>
        <time>2020-11-03T18:14:20Z</time>
      </trkpt>
      <trkpt lat="41.871786" lon="2.735314">
        <ele>136.081</ele>
        <time>2020-11-03T18:14:21Z</time>
      </trkpt>
      <trkpt lat="41.871743" lon="2.735331">
        <ele>136.044</ele>
        <time>2020-11-03T18:14:22Z</time>
      </trkpt>
      <trkpt lat="41.871699" lon="2.735347">
        <ele>136.454</ele>
        <time>2020-11-03T18:14:23Z</time>
      </trkpt>
      <trkpt lat="41.871656" lon="2.735362">
        <ele>136.656</ele>
        <time>2020-11-03T18:14:24Z</time>
      </trkpt>
      <trkpt lat="41.871612" lon="2.735376">
        <ele>137.011</ele>
        <time>2020-11-03T18:14:25Z</time>
      </trkpt>
      <trkpt lat="41.871571" lon="2.735391">
        <ele>137.208</ele>
        <time>2020-11-03T18:14:26Z</time>
      </trkpt>
      <trkpt lat="41.871530" lon="2.735407">
        <ele>137.681</ele>
        <time>2020-11-03T18:14:27Z</time>
      </trkpt>
      <trkpt lat="41.871489" lon="2.735426">
        <ele>138.095</ele>
        <time>2020-11-03T18:14:28Z</time>
      </trkpt>
      <trkpt lat="41.871449" lon="2.735446">
        <ele>138.433</ele>
        <time>2020-11-03T18:14:29Z</time>
      </trkpt>
      <trkpt lat="41.871408" lon="2.735461">
        <ele>138.835</ele>
        <time>2020-11-03T18:14:30Z</time>
      </trkpt>
      <trkpt lat="41.871369" lon="2.735476">
        <ele>139.211</ele>
        <time>2020-11-03T18:14:31Z</time>
      </trkpt>
      <trkpt lat="41.871329" lon="2.735491">
        <ele>139.616</ele>
        <time>2020-11-03T18:14:32Z</time>
      </trkpt>
      <trkpt lat="41.871287" lon="2.735506">
        <ele>140.011</ele>
        <time>2020-11-03T18:14:33Z</time>
      </trkpt>
      <trkpt lat="41.871246" lon="2.735518">
        <ele>140.434</ele>
        <time>2020-11-03T18:14:34Z</time>
      </trkpt>
      <trkpt lat="41.871206" lon="2.735527">
        <ele>140.662</ele>
        <time>2020-11-03T18:14:35Z</time>
      </trkpt>
      <trkpt lat="41.871168" lon="2.735536">
        <ele>141.083</ele>
        <time>2020-11-03T18:14:36Z</time>
      </trkpt>
      <trkpt lat="41.871133" lon="2.735548">
        <ele>141.211</ele>
        <time>2020-11-03T18:14:37Z</time>
      </trkpt>
      <trkpt lat="41.871099" lon="2.735562">
        <ele>141.608</ele>
        <time>2020-11-03T18:14:38Z</time>
      </trkpt>
      <trkpt lat="41.871069" lon="2.735575">
        <ele>141.812</ele>
        <time>2020-11-03T18:14:39Z</time>
      </trkpt>
      <trkpt lat="41.871035" lon="2.735587">
        <ele>142.076</ele>
        <time>2020-11-03T18:14:40Z</time>
      </trkpt>
      <trkpt lat="41.870997" lon="2.735599">
        <ele>142.414</ele>
        <time>2020-11-03T18:14:41Z</time>
      </trkpt>
      <trkpt lat="41.870958" lon="2.735615">
        <ele>142.626</ele>
        <time>2020-11-03T18:14:42Z</time>
      </trkpt>
      <trkpt lat="41.870921" lon="2.735631">
        <ele>142.812</ele>
        <time>2020-11-03T18:14:43Z</time>
      </trkpt>
      <trkpt lat="41.870883" lon="2.735644">
        <ele>142.887</ele>
        <time>2020-11-03T18:14:44Z</time>
      </trkpt>
      <trkpt lat="41.870844" lon="2.735653">
        <ele>143.012</ele>
        <time>2020-11-03T18:14:45Z</time>
      </trkpt>
      <trkpt lat="41.870807" lon="2.735657">
        <ele>143.275</ele>
        <time>2020-11-03T18:14:46Z</time>
      </trkpt>
      <trkpt lat="41.870771" lon="2.735663">
        <ele>143.441</ele>
        <time>2020-11-03T18:14:47Z</time>
      </trkpt>
      <trkpt lat="41.870733" lon="2.735664">
        <ele>143.881</ele>
        <time>2020-11-03T18:14:48Z</time>
      </trkpt>
      <trkpt lat="41.870695" lon="2.735661">
        <ele>144.009</ele>
        <time>2020-11-03T18:14:49Z</time>
      </trkpt>
      <trkpt lat="41.870655" lon="2.735657">
        <ele>144.208</ele>
        <time>2020-11-03T18:14:50Z</time>
      </trkpt>
      <trkpt lat="41.870615" lon="2.735652">
        <ele>144.480</ele>
        <time>2020-11-03T18:14:51Z</time>
      </trkpt>
      <trkpt lat="41.870575" lon="2.735647">
        <ele>144.624</ele>
        <time>2020-11-03T18:14:52Z</time>
      </trkpt>
      <trkpt lat="41.870538" lon="2.735640">
        <ele>145.082</ele>
        <time>2020-11-03T18:14:53Z</time>
      </trkpt>
      <trkpt lat="41.870503" lon="2.735630">
        <ele>145.254</ele>
        <time>2020-11-03T18:14:54Z</time>
      </trkpt>
      <trkpt lat="41.870468" lon="2.735617">
        <ele>145.490</ele>
        <time>2020-11-03T18:14:55Z</time>
      </trkpt>
      <trkpt lat="41.870436" lon="2.735605">
        <ele>145.695</ele>
        <time>2020-11-03T18:14:56Z</time>
      </trkpt>
      <trkpt lat="41.870401" lon="2.735591">
        <ele>145.810</ele>
        <time>2020-11-03T18:14:57Z</time>
      </trkpt>
      <trkpt lat="41.870364" lon="2.735576">
        <ele>146.013</ele>
        <time>2020-11-03T18:14:58Z</time>
      </trkpt>
      <trkpt lat="41.870326" lon="2.735559">
        <ele>146.219</ele>
        <time>2020-11-03T18:14:59Z</time>
      </trkpt>
      <trkpt lat="41.870289" lon="2.735536">
        <ele>146.209</ele>
        <time>2020-11-03T18:15:00Z</time>
      </trkpt>
      <trkpt lat="41.870254" lon="2.735512">
        <ele>146.219</ele>
        <time>2020-11-03T18:15:01Z</time>
      </trkpt>
      <trkpt lat="41.870218" lon="2.735492">
        <ele>146.208</ele>
        <time>2020-11-03T18:15:02Z</time>
      </trkpt>
      <trkpt lat="41.870182" lon="2.735473">
        <ele>146.437</ele>
        <time>2020-11-03T18:15:03Z</time>
      </trkpt>
      <trkpt lat="41.870145" lon="2.735454">
        <ele>146.421</ele>
        <time>2020-11-03T18:15:04Z</time>
      </trkpt>
      <trkpt lat="41.870109" lon="2.735436">
        <ele>146.459</ele>
        <time>2020-11-03T18:15:05Z</time>
      </trkpt>
      <trkpt lat="41.870073" lon="2.735415">
        <ele>146.411</ele>
        <time>2020-11-03T18:15:06Z</time>
      </trkpt>
      <trkpt lat="41.870039" lon="2.735394">
        <ele>146.657</ele>
        <time>2020-11-03T18:15:07Z</time>
      </trkpt>
      <trkpt lat="41.870005" lon="2.735374">
        <ele>146.652</ele>
        <time>2020-11-03T18:15:08Z</time>
      </trkpt>
      <trkpt lat="41.869972" lon="2.735358">
        <ele>146.827</ele>
        <time>2020-11-03T18:15:09Z</time>
      </trkpt>
      <trkpt lat="41.869941" lon="2.735344">
        <ele>146.810</ele>
        <time>2020-11-03T18:15:10Z</time>
      </trkpt>
      <trkpt lat="41.869909" lon="2.735335">
        <ele>147.016</ele>
        <time>2020-11-03T18:15:11Z</time>
      </trkpt>
      <trkpt lat="41.869878" lon="2.735325">
        <ele>147.076</ele>
        <time>2020-11-03T18:15:12Z</time>
      </trkpt>
      <trkpt lat="41.869847" lon="2.735313">
        <ele>147.213</ele>
        <time>2020-11-03T18:15:13Z</time>
      </trkpt>
      <trkpt lat="41.869814" lon="2.735302">
        <ele>147.208</ele>
        <time>2020-11-03T18:15:14Z</time>
      </trkpt>
      <trkpt lat="41.869777" lon="2.735289">
        <ele>147.287</ele>
        <time>2020-11-03T18:15:15Z</time>
      </trkpt>
      <trkpt lat="41.869741" lon="2.735275">
        <ele>147.231</ele>
        <time>2020-11-03T18:15:16Z</time>
      </trkpt>
      <trkpt lat="41.869700" lon="2.735258">
        <ele>147.419</ele>
        <time>2020-11-03T18:15:17Z</time>
      </trkpt>
      <trkpt lat="41.869659" lon="2.735238">
        <ele>147.471</ele>
        <time>2020-11-03T18:15:18Z</time>
      </trkpt>
      <trkpt lat="41.869617" lon="2.735215">
        <ele>147.467</ele>
        <time>2020-11-03T18:15:19Z</time>
      </trkpt>
      <trkpt lat="41.869573" lon="2.735192">
        <ele>147.452</ele>
        <time>2020-11-03T18:15:20Z</time>
      </trkpt>
      <trkpt lat="41.869530" lon="2.735169">
        <ele>147.487</ele>
        <time>2020-11-03T18:15:21Z</time>
      </trkpt>
      <trkpt lat="41.869491" lon="2.735146">
        <ele>147.490</ele>
        <time>2020-11-03T18:15:22Z</time>
      </trkpt>
      <trkpt lat="41.869457" lon="2.735121">
        <ele>147.442</ele>
        <time>2020-11-03T18:15:23Z</time>
      </trkpt>
      <trkpt lat="41.869427" lon="2.735100">
        <ele>147.422</ele>
        <time>2020-11-03T18:15:24Z</time>
      </trkpt>
      <trkpt lat="41.869396" lon="2.735078">
        <ele>147.614</ele>
        <time>2020-11-03T18:15:25Z</time>
      </trkpt>
      <trkpt lat="41.869364" lon="2.735054">
        <ele>147.608</ele>
        <time>2020-11-03T18:15:26Z</time>
      </trkpt>
      <trkpt lat="41.869336" lon="2.735028">
        <ele>147.650</ele>
        <time>2020-11-03T18:15:27Z</time>
      </trkpt>
      <trkpt lat="41.869305" lon="2.735000">
        <ele>147.844</ele>
        <time>2020-11-03T18:15:28Z</time>
      </trkpt>
      <trkpt lat="41.869274" lon="2.734972">
        <ele>147.872</ele>
        <time>2020-11-03T18:15:29Z</time>
      </trkpt>
      <trkpt lat="41.869244" lon="2.734940">
        <ele>147.884</ele>
        <time>2020-11-03T18:15:30Z</time>
      </trkpt>
      <trkpt lat="41.869216" lon="2.734905">
        <ele>147.890</ele>
        <time>2020-11-03T18:15:31Z</time>
      </trkpt>
      <trkpt lat="41.869189" lon="2.734868">
        <ele>148.025</ele>
        <time>2020-11-03T18:15:32Z</time>
      </trkpt>
      <trkpt lat="41.869164" lon="2.734831">
        <ele>148.040</ele>
        <time>2020-11-03T18:15:33Z</time>
      </trkpt>
      <trkpt lat="41.869140" lon="2.734789">
        <ele>148.263</ele>
        <time>2020-11-03T18:15:34Z</time>
      </trkpt>
      <trkpt lat="41.869118" lon="2.734743">
        <ele>148.244</ele>
        <time>2020-11-03T18:15:35Z</time>
      </trkpt>
      <trkpt lat="41.869095" lon="2.734698">
        <ele>148.405</ele>
        <time>2020-11-03T18:15:36Z</time>
      </trkpt>
      <trkpt lat="41.869073" lon="2.734657">
        <ele>148.415</ele>
        <time>2020-11-03T18:15:37Z</time>
      </trkpt>
      <trkpt lat="41.869052" lon="2.734618">
        <ele>148.408</ele>
        <time>2020-11-03T18:15:38Z</time>
      </trkpt>
      <trkpt lat="41.869031" lon="2.734576">
        <ele>148.450</ele>
        <time>2020-11-03T18:15:39Z</time>
      </trkpt>
      <trkpt lat="41.869009" lon="2.734531">
        <ele>148.624</ele>
        <time>2020-11-03T18:15:40Z</time>
      </trkpt>
      <trkpt lat="41.868992" lon="2.734487">
        <ele>148.642</ele>
        <time>2020-11-03T18:15:41Z</time>
      </trkpt>
      <trkpt lat="41.868975" lon="2.734441">
        <ele>148.884</ele>
        <time>2020-11-03T18:15:42Z</time>
      </trkpt>
      <trkpt lat="41.868959" lon="2.734392">
        <ele>149.060</ele>
        <time>2020-11-03T18:15:43Z</time>
      </trkpt>
      <trkpt lat="41.868944" lon="2.734341">
        <ele>149.035</ele>
        <time>2020-11-03T18:15:44Z</time>
      </trkpt>
      <trkpt lat="41.868928" lon="2.734292">
        <ele>149.080</ele>
        <time>2020-11-03T18:15:45Z</time>
      </trkpt>
      <trkpt lat="41.868917" lon="2.734246">
        <ele>149.083</ele>
        <time>2020-11-03T18:15:46Z</time>
      </trkpt>
      <trkpt lat="41.868918" lon="2.734197">
        <ele>149.235</ele>
        <time>2020-11-03T18:15:47Z</time>
      </trkpt>
      <trkpt lat="41.868923" lon="2.734144">
        <ele>149.286</ele>
        <time>2020-11-03T18:15:48Z</time>
      </trkpt>
      <trkpt lat="41.868933" lon="2.734088">
        <ele>149.214</ele>
        <time>2020-11-03T18:15:49Z</time>
      </trkpt>
      <trkpt lat="41.868953" lon="2.734036">
        <ele>149.208</ele>
        <time>2020-11-03T18:15:50Z</time>
      </trkpt>
      <trkpt lat="41.868973" lon="2.733986">
        <ele>149.259</ele>
        <time>2020-11-03T18:15:51Z</time>
      </trkpt>
      <trkpt lat="41.868994" lon="2.733938">
        <ele>149.293</ele>
        <time>2020-11-03T18:15:52Z</time>
      </trkpt>
      <trkpt lat="41.869014" lon="2.733889">
        <ele>149.451</ele>
        <time>2020-11-03T18:15:53Z</time>
      </trkpt>
      <trkpt lat="41.869035" lon="2.733841">
        <ele>149.413</ele>
        <time>2020-11-03T18:15:54Z</time>
      </trkpt>
      <trkpt lat="41.869057" lon="2.733792">
        <ele>149.419</ele>
        <time>2020-11-03T18:15:55Z</time>
      </trkpt>
      <trkpt lat="41.869075" lon="2.733744">
        <ele>149.684</ele>
        <time>2020-11-03T18:15:56Z</time>
      </trkpt>
      <trkpt lat="41.869091" lon="2.733694">
        <ele>149.699</ele>
        <time>2020-11-03T18:15:57Z</time>
      </trkpt>
      <trkpt lat="41.869104" lon="2.733643">
        <ele>149.872</ele>
        <time>2020-11-03T18:15:58Z</time>
      </trkpt>
      <trkpt lat="41.869119" lon="2.733589">
        <ele>149.887</ele>
        <time>2020-11-03T18:15:59Z</time>
      </trkpt>
      <trkpt lat="41.869129" lon="2.733534">
        <ele>150.042</ele>
        <time>2020-11-03T18:16:00Z</time>
      </trkpt>
      <trkpt lat="41.869139" lon="2.733478">
        <ele>150.226</ele>
        <time>2020-11-03T18:16:01Z</time>
      </trkpt>
      <trkpt lat="41.869147" lon="2.733423">
        <ele>150.408</ele>
        <time>2020-11-03T18:16:02Z</time>
      </trkpt>
      <trkpt lat="41.869151" lon="2.733369">
        <ele>150.474</ele>
        <time>2020-11-03T18:16:03Z</time>
      </trkpt>
      <trkpt lat="41.869151" lon="2.733324">
        <ele>150.658</ele>
        <time>2020-11-03T18:16:04Z</time>
      </trkpt>
      <trkpt lat="41.869152" lon="2.733277">
        <ele>150.816</ele>
        <time>2020-11-03T18:16:05Z</time>
      </trkpt>
      <trkpt lat="41.869152" lon="2.733228">
        <ele>151.218</ele>
        <time>2020-11-03T18:16:06Z</time>
      </trkpt>
      <trkpt lat="41.869148" lon="2.733174">
        <ele>151.694</ele>
        <time>2020-11-03T18:16:07Z</time>
      </trkpt>
      <trkpt lat="41.869142" lon="2.733122">
        <ele>152.299</ele>
        <time>2020-11-03T18:16:08Z</time>
      </trkpt>
      <trkpt lat="41.869132" lon="2.733068">
        <ele>152.414</ele>
        <time>2020-11-03T18:16:09Z</time>
      </trkpt>
      <trkpt lat="41.869119" lon="2.733016">
        <ele>152.637</ele>
        <time>2020-11-03T18:16:10Z</time>
      </trkpt>
      <trkpt lat="41.869104" lon="2.732963">
        <ele>152.834</ele>
        <time>2020-11-03T18:16:11Z</time>
      </trkpt>
      <trkpt lat="41.869089" lon="2.732907">
        <ele>153.055</ele>
        <time>2020-11-03T18:16:12Z</time>
      </trkpt>
      <trkpt lat="41.869074" lon="2.732851">
        <ele>153.410</ele>
        <time>2020-11-03T18:16:13Z</time>
      </trkpt>
      <trkpt lat="41.869058" lon="2.732794">
        <ele>153.408</ele>
        <time>2020-11-03T18:16:14Z</time>
      </trkpt>
      <trkpt lat="41.869042" lon="2.732739">
        <ele>153.649</ele>
        <time>2020-11-03T18:16:15Z</time>
      </trkpt>
      <trkpt lat="41.869024" lon="2.732686">
        <ele>153.613</ele>
        <time>2020-11-03T18:16:16Z</time>
      </trkpt>
      <trkpt lat="41.869006" lon="2.732633">
        <ele>153.621</ele>
        <time>2020-11-03T18:16:17Z</time>
      </trkpt>
      <trkpt lat="41.868985" lon="2.732582">
        <ele>153.853</ele>
        <time>2020-11-03T18:16:18Z</time>
      </trkpt>
      <trkpt lat="41.868962" lon="2.732531">
        <ele>154.029</ele>
        <time>2020-11-03T18:16:19Z</time>
      </trkpt>
      <trkpt lat="41.868939" lon="2.732485">
        <ele>154.214</ele>
        <time>2020-11-03T18:16:20Z</time>
      </trkpt>
      <trkpt lat="41.868917" lon="2.732439">
        <ele>154.459</ele>
        <time>2020-11-03T18:16:21Z</time>
      </trkpt>
      <trkpt lat="41.868893" lon="2.732393">
        <ele>154.442</ele>
        <time>2020-11-03T18:16:22Z</time>
      </trkpt>
      <trkpt lat="41.868872" lon="2.732347">
        <ele>154.658</ele>
        <time>2020-11-03T18:16:23Z</time>
      </trkpt>
      <trkpt lat="41.868854" lon="2.732302">
        <ele>154.852</ele>
        <time>2020-11-03T18:16:24Z</time>
      </trkpt>
      <trkpt lat="41.868840" lon="2.732256">
        <ele>155.017</ele>
        <time>2020-11-03T18:16:25Z</time>
      </trkpt>
      <trkpt lat="41.868825" lon="2.732204">
        <ele>155.208</ele>
        <time>2020-11-03T18:16:26Z</time>
      </trkpt>
      <trkpt lat="41.868810" lon="2.732146">
        <ele>155.431</ele>
        <time>2020-11-03T18:16:27Z</time>
      </trkpt>
      <trkpt lat="41.868792" lon="2.732085">
        <ele>155.645</ele>
        <time>2020-11-03T18:16:28Z</time>
      </trkpt>
      <trkpt lat="41.868768" lon="2.732025">
        <ele>155.623</ele>
        <time>2020-11-03T18:16:29Z</time>
      </trkpt>
      <trkpt lat="41.868739" lon="2.731964">
        <ele>155.645</ele>
        <time>2020-11-03T18:16:30Z</time>
      </trkpt>
      <trkpt lat="41.868708" lon="2.731900">
        <ele>155.631</ele>
        <time>2020-11-03T18:16:31Z</time>
      </trkpt>
      <trkpt lat="41.868679" lon="2.731833">
        <ele>155.456</ele>
        <time>2020-11-03T18:16:32Z</time>
      </trkpt>
      <trkpt lat="41.868657" lon="2.731762">
        <ele>155.261</ele>
        <time>2020-11-03T18:16:33Z</time>
      </trkpt>
      <trkpt lat="41.868646" lon="2.731685">
        <ele>155.044</ele>
        <time>2020-11-03T18:16:34Z</time>
      </trkpt>
      <trkpt lat="41.868649" lon="2.731600">
        <ele>154.462</ele>
        <time>2020-11-03T18:16:35Z</time>
      </trkpt>
      <trkpt lat="41.868661" lon="2.731511">
        <ele>153.883</ele>
        <time>2020-11-03T18:16:36Z</time>
      </trkpt>
      <trkpt lat="41.868672" lon="2.731419">
        <ele>153.011</ele>
        <time>2020-11-03T18:16:37Z</time>
      </trkpt>
      <trkpt lat="41.868679" lon="2.731325">
        <ele>152.408</ele>
        <time>2020-11-03T18:16:38Z</time>
      </trkpt>
      <trkpt lat="41.868684" lon="2.731230">
        <ele>152.072</ele>
        <time>2020-11-03T18:16:39Z</time>
      </trkpt>
      <trkpt lat="41.868688" lon="2.731140">
        <ele>151.896</ele>
        <time>2020-11-03T18:16:40Z</time>
      </trkpt>
      <trkpt lat="41.868691" lon="2.731049">
        <ele>151.664</ele>
        <time>2020-11-03T18:16:41Z</time>
      </trkpt>
      <trkpt lat="41.868692" lon="2.730959">
        <ele>151.236</ele>
        <time>2020-11-03T18:16:42Z</time>
      </trkpt>
      <trkpt lat="41.868692" lon="2.730871">
        <ele>151.082</ele>
        <time>2020-11-03T18:16:43Z</time>
      </trkpt>
      <trkpt lat="41.868693" lon="2.730784">
        <ele>150.687</ele>
        <time>2020-11-03T18:16:44Z</time>
      </trkpt>
      <trkpt lat="41.868699" lon="2.730698">
        <ele>150.442</ele>
        <time>2020-11-03T18:16:45Z</time>
      </trkpt>
      <trkpt lat="41.868707" lon="2.730615">
        <ele>150.295</ele>
        <time>2020-11-03T18:16:46Z</time>
      </trkpt>
      <trkpt lat="41.868716" lon="2.730532">
        <ele>150.289</ele>
        <time>2020-11-03T18:16:47Z</time>
      </trkpt>
      <trkpt lat="41.868716" lon="2.730448">
        <ele>150.006</ele>
        <time>2020-11-03T18:16:48Z</time>
      </trkpt>
      <trkpt lat="41.868707" lon="2.730366">
        <ele>149.826</ele>
        <time>2020-11-03T18:16:49Z</time>
      </trkpt>
      <trkpt lat="41.868690" lon="2.730286">
        <ele>149.808</ele>
        <time>2020-11-03T18:16:50Z</time>
      </trkpt>
      <trkpt lat="41.868659" lon="2.730210">
        <ele>149.674</ele>
        <time>2020-11-03T18:16:51Z</time>
      </trkpt>
      <trkpt lat="41.868619" lon="2.730139">
        <ele>149.648</ele>
        <time>2020-11-03T18:16:52Z</time>
      </trkpt>
      <trkpt lat="41.868573" lon="2.730073">
        <ele>149.436</ele>
        <time>2020-11-03T18:16:53Z</time>
      </trkpt>
      <trkpt lat="41.868528" lon="2.730009">
        <ele>149.278</ele>
        <time>2020-11-03T18:16:54Z</time>
      </trkpt>
      <trkpt lat="41.868485" lon="2.729943">
        <ele>149.284</ele>
        <time>2020-11-03T18:16:55Z</time>
      </trkpt>
      <trkpt lat="41.868443" lon="2.729875">
        <ele>149.089</ele>
        <time>2020-11-03T18:16:56Z</time>
      </trkpt>
      <trkpt lat="41.868405" lon="2.729805">
        <ele>148.844</ele>
        <time>2020-11-03T18:16:57Z</time>
      </trkpt>
      <trkpt lat="41.868369" lon="2.729736">
        <ele>148.837</ele>
        <time>2020-11-03T18:16:58Z</time>
      </trkpt>
      <trkpt lat="41.868335" lon="2.729664">
        <ele>148.866</ele>
        <time>2020-11-03T18:16:59Z</time>
      </trkpt>
      <trkpt lat="41.868304" lon="2.729591">
        <ele>148.629</ele>
        <time>2020-11-03T18:17:00Z</time>
      </trkpt>
      <trkpt lat="41.868276" lon="2.729518">
        <ele>148.421</ele>
        <time>2020-11-03T18:17:01Z</time>
      </trkpt>
      <trkpt lat="41.868255" lon="2.729441">
        <ele>148.408</ele>
        <time>2020-11-03T18:17:02Z</time>
      </trkpt>
      <trkpt lat="41.868236" lon="2.729356">
        <ele>148.292</ele>
        <time>2020-11-03T18:17:03Z</time>
      </trkpt>
      <trkpt lat="41.868228" lon="2.729270">
        <ele>148.056</ele>
        <time>2020-11-03T18:17:04Z</time>
      </trkpt>
      <trkpt lat="41.868228" lon="2.729183">
        <ele>148.094</ele>
        <time>2020-11-03T18:17:05Z</time>
      </trkpt>
      <trkpt lat="41.868239" lon="2.729096">
        <ele>147.866</ele>
        <time>2020-11-03T18:17:06Z</time>
      </trkpt>
      <trkpt lat="41.868254" lon="2.729010">
        <ele>147.812</ele>
        <time>2020-11-03T18:17:07Z</time>
      </trkpt>
      <trkpt lat="41.868269" lon="2.728924">
        <ele>147.627</ele>
        <time>2020-11-03T18:17:08Z</time>
      </trkpt>
      <trkpt lat="41.868285" lon="2.728837">
        <ele>147.422</ele>
        <time>2020-11-03T18:17:09Z</time>
      </trkpt>
      <trkpt lat="41.868301" lon="2.728751">
        <ele>147.235</ele>
        <time>2020-11-03T18:17:10Z</time>
      </trkpt>
      <trkpt lat="41.868319" lon="2.728667">
        <ele>147.251</ele>
        <time>2020-11-03T18:17:11Z</time>
      </trkpt>
      <trkpt lat="41.868337" lon="2.728582">
        <ele>147.001</ele>
        <time>2020-11-03T18:17:12Z</time>
      </trkpt>
      <trkpt lat="41.868348" lon="2.728495">
        <ele>147.011</ele>
        <time>2020-11-03T18:17:13Z</time>
      </trkpt>
      <trkpt lat="41.868358" lon="2.728412">
        <ele>147.008</ele>
        <time>2020-11-03T18:17:14Z</time>
      </trkpt>
      <trkpt lat="41.868375" lon="2.728334">
        <ele>146.841</ele>
        <time>2020-11-03T18:17:15Z</time>
      </trkpt>
      <trkpt lat="41.868396" lon="2.728257">
        <ele>146.855</ele>
        <time>2020-11-03T18:17:16Z</time>
      </trkpt>
      <trkpt lat="41.868418" lon="2.728184">
        <ele>147.033</ele>
        <time>2020-11-03T18:17:17Z</time>
      </trkpt>
      <trkpt lat="41.868436" lon="2.728112">
        <ele>147.045</ele>
        <time>2020-11-03T18:17:18Z</time>
      </trkpt>
      <trkpt lat="41.868450" lon="2.728038">
        <ele>147.251</ele>
        <time>2020-11-03T18:17:19Z</time>
      </trkpt>
      <trkpt lat="41.868464" lon="2.727965">
        <ele>147.276</ele>
        <time>2020-11-03T18:17:20Z</time>
      </trkpt>
      <trkpt lat="41.868475" lon="2.727892">
        <ele>147.421</ele>
        <time>2020-11-03T18:17:21Z</time>
      </trkpt>
      <trkpt lat="41.868486" lon="2.727815">
        <ele>147.644</ele>
        <time>2020-11-03T18:17:22Z</time>
      </trkpt>
      <trkpt lat="41.868495" lon="2.727740">
        <ele>147.857</ele>
        <time>2020-11-03T18:17:23Z</time>
      </trkpt>
      <trkpt lat="41.868503" lon="2.727663">
        <ele>147.800</ele>
        <time>2020-11-03T18:17:24Z</time>
      </trkpt>
      <trkpt lat="41.868512" lon="2.727586">
        <ele>148.020</ele>
        <time>2020-11-03T18:17:25Z</time>
      </trkpt>
      <trkpt lat="41.868525" lon="2.727511">
        <ele>148.008</ele>
        <time>2020-11-03T18:17:26Z</time>
      </trkpt>
      <trkpt lat="41.868541" lon="2.727433">
        <ele>148.021</ele>
        <time>2020-11-03T18:17:27Z</time>
      </trkpt>
      <trkpt lat="41.868556" lon="2.727355">
        <ele>148.225</ele>
        <time>2020-11-03T18:17:28Z</time>
      </trkpt>
      <trkpt lat="41.868569" lon="2.727277">
        <ele>148.253</ele>
        <time>2020-11-03T18:17:29Z</time>
      </trkpt>
      <trkpt lat="41.868577" lon="2.727196">
        <ele>148.245</ele>
        <time>2020-11-03T18:17:30Z</time>
      </trkpt>
      <trkpt lat="41.868584" lon="2.727116">
        <ele>148.271</ele>
        <time>2020-11-03T18:17:31Z</time>
      </trkpt>
      <trkpt lat="41.868592" lon="2.727039">
        <ele>148.276</ele>
        <time>2020-11-03T18:17:32Z</time>
      </trkpt>
      <trkpt lat="41.868605" lon="2.726966">
        <ele>148.211</ele>
        <time>2020-11-03T18:17:33Z</time>
      </trkpt>
      <trkpt lat="41.868625" lon="2.726896">
        <ele>148.234</ele>
        <time>2020-11-03T18:17:34Z</time>
      </trkpt>
      <trkpt lat="41.868651" lon="2.726836">
        <ele>148.233</ele>
        <time>2020-11-03T18:17:35Z</time>
      </trkpt>
      <trkpt lat="41.868684" lon="2.726778">
        <ele>148.223</ele>
        <time>2020-11-03T18:17:36Z</time>
      </trkpt>
      <trkpt lat="41.868716" lon="2.726720">
        <ele>148.215</ele>
        <time>2020-11-03T18:17:37Z</time>
      </trkpt>
      <trkpt lat="41.868751" lon="2.726666">
        <ele>148.208</ele>
        <time>2020-11-03T18:17:38Z</time>
      </trkpt>
      <trkpt lat="41.868786" lon="2.726618">
        <ele>148.279</ele>
        <time>2020-11-03T18:17:39Z</time>
      </trkpt>
      <trkpt lat="41.868820" lon="2.726569">
        <ele>148.273</ele>
        <time>2020-11-03T18:17:40Z</time>
      </trkpt>
      <trkpt lat="41.868853" lon="2.726519">
        <ele>148.211</ele>
        <time>2020-11-03T18:17:41Z</time>
      </trkpt>
      <trkpt lat="41.868891" lon="2.726463">
        <ele>148.233</ele>
        <time>2020-11-03T18:17:42Z</time>
      </trkpt>
      <trkpt lat="41.868932" lon="2.726404">
        <ele>148.289</ele>
        <time>2020-11-03T18:17:43Z</time>
      </trkpt>
      <trkpt lat="41.868973" lon="2.726350">
        <ele>148.254</ele>
        <time>2020-11-03T18:17:44Z</time>
      </trkpt>
      <trkpt lat="41.869017" lon="2.726296">
        <ele>148.249</ele>
        <time>2020-11-03T18:17:45Z</time>
      </trkpt>
      <trkpt lat="41.869065" lon="2.726242">
        <ele>148.242</ele>
        <time>2020-11-03T18:17:46Z</time>
      </trkpt>
      <trkpt lat="41.869115" lon="2.726193">
        <ele>148.258</ele>
        <time>2020-11-03T18:17:47Z</time>
      </trkpt>
      <trkpt lat="41.869165" lon="2.726148">
        <ele>148.252</ele>
        <time>2020-11-03T18:17:48Z</time>
      </trkpt>
      <trkpt lat="41.869213" lon="2.726104">
        <ele>148.417</ele>
        <time>2020-11-03T18:17:49Z</time>
      </trkpt>
      <trkpt lat="41.869261" lon="2.726060">
        <ele>148.608</ele>
        <time>2020-11-03T18:17:50Z</time>
      </trkpt>
      <trkpt lat="41.869307" lon="2.726018">
        <ele>148.881</ele>
        <time>2020-11-03T18:17:51Z</time>
      </trkpt>
      <trkpt lat="41.869354" lon="2.725981">
        <ele>149.265</ele>
        <time>2020-11-03T18:17:52Z</time>
      </trkpt>
      <trkpt lat="41.869401" lon="2.725948">
        <ele>149.293</ele>
        <time>2020-11-03T18:17:53Z</time>
      </trkpt>
      <trkpt lat="41.869449" lon="2.725915">
        <ele>149.475</ele>
        <time>2020-11-03T18:17:54Z</time>
      </trkpt>
      <trkpt lat="41.869498" lon="2.725883">
        <ele>149.621</ele>
        <time>2020-11-03T18:17:55Z</time>
      </trkpt>
      <trkpt lat="41.869547" lon="2.725851">
        <ele>149.876</ele>
        <time>2020-11-03T18:17:56Z</time>
      </trkpt>
      <trkpt lat="41.869595" lon="2.725815">
        <ele>150.071</ele>
        <time>2020-11-03T18:17:57Z</time>
      </trkpt>
      <trkpt lat="41.869640" lon="2.725774">
        <ele>150.244</ele>
        <time>2020-11-03T18:17:58Z</time>
      </trkpt>
      <trkpt lat="41.869679" lon="2.725723">
        <ele>150.435</ele>
        <time>2020-11-03T18:17:59Z</time>
      </trkpt>
      <trkpt lat="41.869708" lon="2.725667">
        <ele>150.686</ele>
        <time>2020-11-03T18:18:00Z</time>
      </trkpt>
      <trkpt lat="41.869725" lon="2.725608">
        <ele>150.814</ele>
        <time>2020-11-03T18:18:01Z</time>
      </trkpt>
      <trkpt lat="41.869729" lon="2.725550">
        <ele>151.208</ele>
        <time>2020-11-03T18:18:02Z</time>
      </trkpt>
      <trkpt lat="41.869728" lon="2.725499">
        <ele>151.439</ele>
        <time>2020-11-03T18:18:03Z</time>
      </trkpt>
      <trkpt lat="41.869730" lon="2.725451">
        <ele>152.063</ele>
        <time>2020-11-03T18:18:04Z</time>
      </trkpt>
      <trkpt lat="41.869734" lon="2.725397">
        <ele>152.441</ele>
        <time>2020-11-03T18:18:05Z</time>
      </trkpt>
      <trkpt lat="41.869734" lon="2.725338">
        <ele>152.873</ele>
        <time>2020-11-03T18:18:06Z</time>
      </trkpt>
      <trkpt lat="41.869727" lon="2.725277">
        <ele>153.059</ele>
        <time>2020-11-03T18:18:07Z</time>
      </trkpt>
      <trkpt lat="41.869714" lon="2.725218">
        <ele>153.214</ele>
        <time>2020-11-03T18:18:08Z</time>
      </trkpt>
      <trkpt lat="41.869692" lon="2.725165">
        <ele>153.489</ele>
        <time>2020-11-03T18:18:09Z</time>
      </trkpt>
      <trkpt lat="41.869667" lon="2.725116">
        <ele>153.462</ele>
        <time>2020-11-03T18:18:10Z</time>
      </trkpt>
      <trkpt lat="41.869637" lon="2.725067">
        <ele>153.252</ele>
        <time>2020-11-03T18:18:11Z</time>
      </trkpt>
      <trkpt lat="41.869605" lon="2.725008">
        <ele>153.253</ele>
        <time>2020-11-03T18:18:12Z</time>
      </trkpt>
      <trkpt lat="41.869571" lon="2.724945">
        <ele>153.208</ele>
        <time>2020-11-03T18:18:13Z</time>
      </trkpt>
      <trkpt lat="41.869536" lon="2.724873">
        <ele>153.008</ele>
        <time>2020-11-03T18:18:14Z</time>
      </trkpt>
      <trkpt lat="41.869498" lon="2.724797">
        <ele>152.661</ele>
        <time>2020-11-03T18:18:15Z</time>
      </trkpt>
      <trkpt lat="41.869457" lon="2.724718">
        <ele>152.255</ele>
        <time>2020-11-03T18:18:16Z</time>
      </trkpt>
      <trkpt lat="41.869412" lon="2.724643">
        <ele>151.863</ele>
        <time>2020-11-03T18:18:17Z</time>
      </trkpt>
      <trkpt lat="41.869366" lon="2.724571">
        <ele>151.295</ele>
        <time>2020-11-03T18:18:18Z</time>
      </trkpt>
      <trkpt lat="41.869317" lon="2.724497">
        <ele>150.641</ele>
        <time>2020-11-03T18:18:19Z</time>
      </trkpt>
      <trkpt lat="41.869270" lon="2.724423">
        <ele>150.286</ele>
        <time>2020-11-03T18:18:20Z</time>
      </trkpt>
      <trkpt lat="41.869225" lon="2.724349">
        <ele>150.051</ele>
        <time>2020-11-03T18:18:21Z</time>
      </trkpt>
      <trkpt lat="41.869182" lon="2.724280">
        <ele>149.894</ele>
        <time>2020-11-03T18:18:22Z</time>
      </trkpt>
      <trkpt lat="41.869136" lon="2.724219">
        <ele>149.642</ele>
        <time>2020-11-03T18:18:23Z</time>
      </trkpt>
      <trkpt lat="41.869085" lon="2.724166">
        <ele>149.222</ele>
        <time>2020-11-03T18:18:24Z</time>
      </trkpt>
      <trkpt lat="41.869034" lon="2.724121">
        <ele>149.014</ele>
        <time>2020-11-03T18:18:25Z</time>
      </trkpt>
      <trkpt lat="41.868983" lon="2.724082">
        <ele>148.808</ele>
        <time>2020-11-03T18:18:26Z</time>
      </trkpt>
      <trkpt lat="41.868935" lon="2.724043">
        <ele>148.610</ele>
        <time>2020-11-03T18:18:27Z</time>
      </trkpt>
      <trkpt lat="41.868891" lon="2.724001">
        <ele>148.464</ele>
        <time>2020-11-03T18:18:28Z</time>
      </trkpt>
      <trkpt lat="41.868846" lon="2.723951">
        <ele>148.262</ele>
        <time>2020-11-03T18:18:29Z</time>
      </trkpt>
      <trkpt lat="41.868802" lon="2.723900">
        <ele>148.054</ele>
        <time>2020-11-03T18:18:30Z</time>
      </trkpt>
      <trkpt lat="41.868757" lon="2.723845">
        <ele>148.020</ele>
        <time>2020-11-03T18:18:31Z</time>
      </trkpt>
      <trkpt lat="41.868712" lon="2.723787">
        <ele>147.835</ele>
        <time>2020-11-03T18:18:32Z</time>
      </trkpt>
      <trkpt lat="41.868670" lon="2.723723">
        <ele>147.660</ele>
        <time>2020-11-03T18:18:33Z</time>
      </trkpt>
      <trkpt lat="41.868636" lon="2.723650">
        <ele>147.623</ele>
        <time>2020-11-03T18:18:34Z</time>
      </trkpt>
      <trkpt lat="41.868609" lon="2.723568">
        <ele>147.498</ele>
        <time>2020-11-03T18:18:35Z</time>
      </trkpt>
      <trkpt lat="41.868595" lon="2.723479">
        <ele>147.215</ele>
        <time>2020-11-03T18:18:36Z</time>
      </trkpt>
      <trkpt lat="41.868589" lon="2.723387">
        <ele>146.826</ele>
        <time>2020-11-03T18:18:37Z</time>
      </trkpt>
      <trkpt lat="41.868585" lon="2.723292">
        <ele>146.608</ele>
        <time>2020-11-03T18:18:38Z</time>
      </trkpt>
      <trkpt lat="41.868580" lon="2.723194">
        <ele>146.415</ele>
        <time>2020-11-03T18:18:39Z</time>
      </trkpt>
      <trkpt lat="41.868581" lon="2.723098">
        <ele>146.219</ele>
        <time>2020-11-03T18:18:40Z</time>
      </trkpt>
      <trkpt lat="41.868588" lon="2.723000">
        <ele>146.027</ele>
        <time>2020-11-03T18:18:41Z</time>
      </trkpt>
      <trkpt lat="41.868599" lon="2.722899">
        <ele>145.879</ele>
        <time>2020-11-03T18:18:42Z</time>
      </trkpt>
      <trkpt lat="41.868611" lon="2.722795">
        <ele>145.495</ele>
        <time>2020-11-03T18:18:43Z</time>
      </trkpt>
      <trkpt lat="41.868622" lon="2.722689">
        <ele>145.020</ele>
        <time>2020-11-03T18:18:44Z</time>
      </trkpt>
      <trkpt lat="41.868629" lon="2.722586">
        <ele>144.865</ele>
        <time>2020-11-03T18:18:45Z</time>
      </trkpt>
      <trkpt lat="41.868633" lon="2.722483">
        <ele>144.428</ele>
        <time>2020-11-03T18:18:46Z</time>
      </trkpt>
      <trkpt lat="41.868634" lon="2.722383">
        <ele>144.242</ele>
        <time>2020-11-03T18:18:47Z</time>
      </trkpt>
      <trkpt lat="41.868630" lon="2.722285">
        <ele>144.022</ele>
        <time>2020-11-03T18:18:48Z</time>
      </trkpt>
      <trkpt lat="41.868621" lon="2.722192">
        <ele>143.814</ele>
        <time>2020-11-03T18:18:49Z</time>
      </trkpt>
      <trkpt lat="41.868607" lon="2.722100">
        <ele>143.408</ele>
        <time>2020-11-03T18:18:50Z</time>
      </trkpt>
      <trkpt lat="41.868593" lon="2.722011">
        <ele>143.440</ele>
        <time>2020-11-03T18:18:51Z</time>
      </trkpt>
      <trkpt lat="41.868577" lon="2.721926">
        <ele>143.274</ele>
        <time>2020-11-03T18:18:52Z</time>
      </trkpt>
      <trkpt lat="41.868561" lon="2.721841">
        <ele>143.292</ele>
        <time>2020-11-03T18:18:53Z</time>
      </trkpt>
      <trkpt lat="41.868540" lon="2.721752">
        <ele>143.214</ele>
        <time>2020-11-03T18:18:54Z</time>
      </trkpt>
      <trkpt lat="41.868519" lon="2.721662">
        <ele>143.290</ele>
        <time>2020-11-03T18:18:55Z</time>
      </trkpt>
      <trkpt lat="41.868495" lon="2.721574">
        <ele>143.255</ele>
        <time>2020-11-03T18:18:56Z</time>
      </trkpt>
      <trkpt lat="41.868467" lon="2.721490">
        <ele>143.080</ele>
        <time>2020-11-03T18:18:57Z</time>
      </trkpt>
      <trkpt lat="41.868438" lon="2.721409">
        <ele>143.283</ele>
        <time>2020-11-03T18:18:58Z</time>
      </trkpt>
      <trkpt lat="41.868409" lon="2.721331">
        <ele>143.052</ele>
        <time>2020-11-03T18:18:59Z</time>
      </trkpt>
      <trkpt lat="41.868377" lon="2.721253">
        <ele>143.253</ele>
        <time>2020-11-03T18:19:00Z</time>
      </trkpt>
      <trkpt lat="41.868346" lon="2.721179">
        <ele>143.208</ele>
        <time>2020-11-03T18:19:01Z</time>
      </trkpt>
      <trkpt lat="41.868313" lon="2.721107">
        <ele>143.208</ele>
        <time>2020-11-03T18:19:02Z</time>
      </trkpt>
      <trkpt lat="41.868280" lon="2.721039">
        <ele>143.241</ele>
        <time>2020-11-03T18:19:03Z</time>
      </trkpt>
      <trkpt lat="41.868245" lon="2.720971">
        <ele>143.435</ele>
        <time>2020-11-03T18:19:04Z</time>
      </trkpt>
      <trkpt lat="41.868211" lon="2.720908">
        <ele>143.483</ele>
        <time>2020-11-03T18:19:05Z</time>
      </trkpt>
      <trkpt lat="41.868175" lon="2.720846">
        <ele>143.685</ele>
        <time>2020-11-03T18:19:06Z</time>
      </trkpt>
      <trkpt lat="41.868146" lon="2.720786">
        <ele>143.831</ele>
        <time>2020-11-03T18:19:07Z</time>
      </trkpt>
      <trkpt lat="41.868121" lon="2.720724">
        <ele>143.846</ele>
        <time>2020-11-03T18:19:08Z</time>
      </trkpt>
      <trkpt lat="41.868107" lon="2.720663">
        <ele>144.061</ele>
        <time>2020-11-03T18:19:09Z</time>
      </trkpt>
      <trkpt lat="41.868101" lon="2.720599">
        <ele>144.064</ele>
        <time>2020-11-03T18:19:10Z</time>
      </trkpt>
      <trkpt lat="41.868103" lon="2.720530">
        <ele>144.222</ele>
        <time>2020-11-03T18:19:11Z</time>
      </trkpt>
      <trkpt lat="41.868113" lon="2.720459">
        <ele>144.262</ele>
        <time>2020-11-03T18:19:12Z</time>
      </trkpt>
      <trkpt lat="41.868129" lon="2.720385">
        <ele>144.408</ele>
        <time>2020-11-03T18:19:13Z</time>
      </trkpt>
      <trkpt lat="41.868146" lon="2.720310">
        <ele>144.408</ele>
        <time>2020-11-03T18:19:14Z</time>
      </trkpt>
      <trkpt lat="41.868170" lon="2.720241">
        <ele>144.688</ele>
        <time>2020-11-03T18:19:15Z</time>
      </trkpt>
      <trkpt lat="41.868199" lon="2.720174">
        <ele>144.842</ele>
        <time>2020-11-03T18:19:16Z</time>
      </trkpt>
      <trkpt lat="41.868228" lon="2.720108">
        <ele>144.850</ele>
        <time>2020-11-03T18:19:17Z</time>
      </trkpt>
      <trkpt lat="41.868254" lon="2.720039">
        <ele>144.822</ele>
        <time>2020-11-03T18:19:18Z</time>
      </trkpt>
      <trkpt lat="41.868280" lon="2.719969">
        <ele>145.058</ele>
        <time>2020-11-03T18:19:19Z</time>
      </trkpt>
      <trkpt lat="41.868302" lon="2.719900">
        <ele>145.213</ele>
        <time>2020-11-03T18:19:20Z</time>
      </trkpt>
      <trkpt lat="41.868319" lon="2.719834">
        <ele>145.498</ele>
        <time>2020-11-03T18:19:21Z</time>
      </trkpt>
      <trkpt lat="41.868332" lon="2.719772">
        <ele>145.681</ele>
        <time>2020-11-03T18:19:22Z</time>
      </trkpt>
      <trkpt lat="41.868343" lon="2.719708">
        <ele>146.273</ele>
        <time>2020-11-03T18:19:23Z</time>
      </trkpt>
      <trkpt lat="41.868353" lon="2.719639">
        <ele>146.885</ele>
        <time>2020-11-03T18:19:24Z</time>
      </trkpt>
      <trkpt lat="41.868362" lon="2.719566">
        <ele>147.213</ele>
        <time>2020-11-03T18:19:25Z</time>
      </trkpt>
      <trkpt lat="41.868371" lon="2.719496">
        <ele>147.408</ele>
        <time>2020-11-03T18:19:26Z</time>
      </trkpt>
      <trkpt lat="41.868384" lon="2.719427">
        <ele>147.633</ele>
        <time>2020-11-03T18:19:27Z</time>
      </trkpt>
      <trkpt lat="41.868401" lon="2.719360">
        <ele>147.617</ele>
        <time>2020-11-03T18:19:28Z</time>
      </trkpt>
      <trkpt lat="41.868420" lon="2.719293">
        <ele>147.645</ele>
        <time>2020-11-03T18:19:29Z</time>
      </trkpt>
      <trkpt lat="41.868442" lon="2.719229">
        <ele>147.477</ele>
        <time>2020-11-03T18:19:30Z</time>
      </trkpt>
      <trkpt lat="41.868467" lon="2.719170">
        <ele>147.463</ele>
        <time>2020-11-03T18:19:31Z</time>
      </trkpt>
      <trkpt lat="41.868488" lon="2.719112">
        <ele>147.698</ele>
        <time>2020-11-03T18:19:32Z</time>
      </trkpt>
      <trkpt lat="41.868502" lon="2.719050">
        <ele>147.633</ele>
        <time>2020-11-03T18:19:33Z</time>
      </trkpt>
      <trkpt lat="41.868511" lon="2.718984">
        <ele>147.626</ele>
        <time>2020-11-03T18:19:34Z</time>
      </trkpt>
      <trkpt lat="41.868519" lon="2.718912">
        <ele>147.847</ele>
        <time>2020-11-03T18:19:35Z</time>
      </trkpt>
      <trkpt lat="41.868529" lon="2.718838">
        <ele>147.829</ele>
        <time>2020-11-03T18:19:36Z</time>
      </trkpt>
      <trkpt lat="41.868541" lon="2.718758">
        <ele>147.821</ele>
        <time>2020-11-03T18:19:37Z</time>
      </trkpt>
      <trkpt lat="41.868558" lon="2.718673">
        <ele>147.808</ele>
        <time>2020-11-03T18:19:38Z</time>
      </trkpt>
      <trkpt lat="41.868577" lon="2.718586">
        <ele>147.840</ele>
        <time>2020-11-03T18:19:39Z</time>
      </trkpt>
      <trkpt lat="41.868596" lon="2.718503">
        <ele>147.444</ele>
        <time>2020-11-03T18:19:40Z</time>
      </trkpt>
      <trkpt lat="41.868616" lon="2.718420">
        <ele>147.232</ele>
        <time>2020-11-03T18:19:41Z</time>
      </trkpt>
      <trkpt lat="41.868638" lon="2.718337">
        <ele>147.064</ele>
        <time>2020-11-03T18:19:42Z</time>
      </trkpt>
      <trkpt lat="41.868663" lon="2.718257">
        <ele>146.850</ele>
        <time>2020-11-03T18:19:43Z</time>
      </trkpt>
      <trkpt lat="41.868692" lon="2.718178">
        <ele>146.645</ele>
        <time>2020-11-03T18:19:44Z</time>
      </trkpt>
      <trkpt lat="41.868722" lon="2.718099">
        <ele>146.480</ele>
        <time>2020-11-03T18:19:45Z</time>
      </trkpt>
      <trkpt lat="41.868754" lon="2.718021">
        <ele>146.433</ele>
        <time>2020-11-03T18:19:46Z</time>
      </trkpt>
      <trkpt lat="41.868787" lon="2.717948">
        <ele>146.446</ele>
        <time>2020-11-03T18:19:47Z</time>
      </trkpt>
      <trkpt lat="41.868817" lon="2.717878">
        <ele>146.488</ele>
        <time>2020-11-03T18:19:48Z</time>
      </trkpt>
      <trkpt lat="41.868845" lon="2.717802">
        <ele>146.416</ele>
        <time>2020-11-03T18:19:49Z</time>
      </trkpt>
      <trkpt lat="41.868874" lon="2.717723">
        <ele>146.408</ele>
        <time>2020-11-03T18:19:50Z</time>
      </trkpt>
      <trkpt lat="41.868895" lon="2.717645">
        <ele>146.490</ele>
        <time>2020-11-03T18:19:51Z</time>
      </trkpt>
      <trkpt lat="41.868912" lon="2.717565">
        <ele>146.434</ele>
        <time>2020-11-03T18:19:52Z</time>
      </trkpt>
      <trkpt lat="41.868922" lon="2.717484">
        <ele>146.482</ele>
        <time>2020-11-03T18:19:53Z</time>
      </trkpt>
      <trkpt lat="41.868928" lon="2.717402">
        <ele>146.434</ele>
        <time>2020-11-03T18:19:54Z</time>
      </trkpt>
      <trkpt lat="41.868933" lon="2.717318">
        <ele>146.220</ele>
        <time>2020-11-03T18:19:55Z</time>
      </trkpt>
      <trkpt lat="41.868943" lon="2.717234">
        <ele>146.245</ele>
        <time>2020-11-03T18:19:56Z</time>
      </trkpt>
      <trkpt lat="41.868957" lon="2.717156">
        <ele>146.430</ele>
        <time>2020-11-03T18:19:57Z</time>
      </trkpt>
      <trkpt lat="41.868973" lon="2.717077">
        <ele>146.243</ele>
        <time>2020-11-03T18:19:58Z</time>
      </trkpt>
      <trkpt lat="41.868989" lon="2.716998">
        <ele>146.474</ele>
        <time>2020-11-03T18:19:59Z</time>
      </trkpt>
      <trkpt lat="41.869001" lon="2.716919">
        <ele>146.456</ele>
        <time>2020-11-03T18:20:00Z</time>
      </trkpt>
      <trkpt lat="41.869011" lon="2.716838">
        <ele>146.421</ele>
        <time>2020-11-03T18:20:01Z</time>
      </trkpt>
      <trkpt lat="41.869020" lon="2.716753">
        <ele>146.608</ele>
        <time>2020-11-03T18:20:02Z</time>
      </trkpt>
      <trkpt lat="41.869028" lon="2.716669">
        <ele>146.693</ele>
        <time>2020-11-03T18:20:03Z</time>
      </trkpt>
      <trkpt lat="41.869034" lon="2.716584">
        <ele>146.627</ele>
        <time>2020-11-03T18:20:04Z</time>
      </trkpt>
      <trkpt lat="41.869038" lon="2.716497">
        <ele>146.665</ele>
        <time>2020-11-03T18:20:05Z</time>
      </trkpt>
      <trkpt lat="41.869049" lon="2.716409">
        <ele>146.817</ele>
        <time>2020-11-03T18:20:06Z</time>
      </trkpt>
      <trkpt lat="41.869061" lon="2.716326">
        <ele>146.853</ele>
        <time>2020-11-03T18:20:07Z</time>
      </trkpt>
      <trkpt lat="41.869076" lon="2.716245">
        <ele>147.098</ele>
        <time>2020-11-03T18:20:08Z</time>
      </trkpt>
      <trkpt lat="41.869086" lon="2.716166">
        <ele>147.013</ele>
        <time>2020-11-03T18:20:09Z</time>
      </trkpt>
      <trkpt lat="41.869095" lon="2.716090">
        <ele>147.266</ele>
        <time>2020-11-03T18:20:10Z</time>
      </trkpt>
      <trkpt lat="41.869102" lon="2.716015">
        <ele>147.497</ele>
        <time>2020-11-03T18:20:11Z</time>
      </trkpt>
      <trkpt lat="41.869103" lon="2.715940">
        <ele>147.823</ele>
        <time>2020-11-03T18:20:12Z</time>
      </trkpt>
      <trkpt lat="41.869102" lon="2.715867">
        <ele>148.025</ele>
        <time>2020-11-03T18:20:13Z</time>
      </trkpt>
      <trkpt lat="41.869102" lon="2.715795">
        <ele>148.208</ele>
        <time>2020-11-03T18:20:14Z</time>
      </trkpt>
      <trkpt lat="41.869101" lon="2.715725">
        <ele>148.685</ele>
        <time>2020-11-03T18:20:15Z</time>
      </trkpt>
      <trkpt lat="41.869100" lon="2.715657">
        <ele>149.099</ele>
        <time>2020-11-03T18:20:16Z</time>
      </trkpt>
      <trkpt lat="41.869103" lon="2.715589">
        <ele>149.437</ele>
        <time>2020-11-03T18:20:17Z</time>
      </trkpt>
      <trkpt lat="41.869110" lon="2.715523">
        <ele>149.849</ele>
        <time>2020-11-03T18:20:18Z</time>
      </trkpt>
      <trkpt lat="41.869123" lon="2.715458">
        <ele>150.225</ele>
        <time>2020-11-03T18:20:19Z</time>
      </trkpt>
      <trkpt lat="41.869143" lon="2.715396">
        <ele>150.680</ele>
        <time>2020-11-03T18:20:20Z</time>
      </trkpt>
      <trkpt lat="41.869170" lon="2.715337">
        <ele>151.015</ele>
        <time>2020-11-03T18:20:21Z</time>
      </trkpt>
      <trkpt lat="41.869204" lon="2.715281">
        <ele>151.478</ele>
        <time>2020-11-03T18:20:22Z</time>
      </trkpt>
      <trkpt lat="41.869244" lon="2.715235">
        <ele>151.871</ele>
        <time>2020-11-03T18:20:23Z</time>
      </trkpt>
      <trkpt lat="41.869287" lon="2.715190">
        <ele>152.041</ele>
        <time>2020-11-03T18:20:24Z</time>
      </trkpt>
      <trkpt lat="41.869332" lon="2.715144">
        <ele>152.215</ele>
        <time>2020-11-03T18:20:25Z</time>
      </trkpt>
      <trkpt lat="41.869372" lon="2.715093">
        <ele>152.208</ele>
        <time>2020-11-03T18:20:26Z</time>
      </trkpt>
      <trkpt lat="41.869409" lon="2.715034">
        <ele>152.453</ele>
        <time>2020-11-03T18:20:27Z</time>
      </trkpt>
      <trkpt lat="41.869447" lon="2.714972">
        <ele>152.487</ele>
        <time>2020-11-03T18:20:28Z</time>
      </trkpt>
      <trkpt lat="41.869486" lon="2.714907">
        <ele>152.445</ele>
        <time>2020-11-03T18:20:29Z</time>
      </trkpt>
      <trkpt lat="41.869525" lon="2.714842">
        <ele>152.497</ele>
        <time>2020-11-03T18:20:30Z</time>
      </trkpt>
      <trkpt lat="41.869560" lon="2.714778">
        <ele>152.433</ele>
        <time>2020-11-03T18:20:31Z</time>
      </trkpt>
      <trkpt lat="41.869593" lon="2.714713">
        <ele>152.498</ele>
        <time>2020-11-03T18:20:32Z</time>
      </trkpt>
      <trkpt lat="41.869626" lon="2.714646">
        <ele>152.463</ele>
        <time>2020-11-03T18:20:33Z</time>
      </trkpt>
      <trkpt lat="41.869656" lon="2.714577">
        <ele>152.696</ele>
        <time>2020-11-03T18:20:34Z</time>
      </trkpt>
      <trkpt lat="41.869684" lon="2.714508">
        <ele>152.627</ele>
        <time>2020-11-03T18:20:35Z</time>
      </trkpt>
      <trkpt lat="41.869708" lon="2.714441">
        <ele>152.668</ele>
        <time>2020-11-03T18:20:36Z</time>
      </trkpt>
      <trkpt lat="41.869731" lon="2.714373">
        <ele>152.814</ele>
        <time>2020-11-03T18:20:37Z</time>
      </trkpt>
      <trkpt lat="41.869752" lon="2.714307">
        <ele>153.008</ele>
        <time>2020-11-03T18:20:38Z</time>
      </trkpt>
      <trkpt lat="41.869769" lon="2.714240">
        <ele>153.268</ele>
        <time>2020-11-03T18:20:39Z</time>
      </trkpt>
      <trkpt lat="41.869782" lon="2.714166">
        <ele>153.252</ele>
        <time>2020-11-03T18:20:40Z</time>
      </trkpt>
      <trkpt lat="41.869790" lon="2.714086">
        <ele>153.270</ele>
        <time>2020-11-03T18:20:41Z</time>
      </trkpt>
      <trkpt lat="41.869795" lon="2.714004">
        <ele>153.462</ele>
        <time>2020-11-03T18:20:42Z</time>
      </trkpt>
      <trkpt lat="41.869802" lon="2.713921">
        <ele>153.278</ele>
        <time>2020-11-03T18:20:43Z</time>
      </trkpt>
      <trkpt lat="41.869813" lon="2.713835">
        <ele>153.033</ele>
        <time>2020-11-03T18:20:44Z</time>
      </trkpt>
      <trkpt lat="41.869827" lon="2.713748">
        <ele>152.888</ele>
        <time>2020-11-03T18:20:45Z</time>
      </trkpt>
      <trkpt lat="41.869843" lon="2.713661">
        <ele>152.681</ele>
        <time>2020-11-03T18:20:46Z</time>
      </trkpt>
      <trkpt lat="41.869861" lon="2.713578">
        <ele>152.479</ele>
        <time>2020-11-03T18:20:47Z</time>
      </trkpt>
      <trkpt lat="41.869877" lon="2.713498">
        <ele>152.205</ele>
        <time>2020-11-03T18:20:48Z</time>
      </trkpt>
      <trkpt lat="41.869893" lon="2.713434">
        <ele>151.825</ele>
        <time>2020-11-03T18:20:49Z</time>
      </trkpt>
      <trkpt lat="41.869915" lon="2.713379">
        <ele>151.608</ele>
        <time>2020-11-03T18:20:50Z</time>
      </trkpt>
      <trkpt lat="41.869943" lon="2.713332">
        <ele>151.693</ele>
        <time>2020-11-03T18:20:51Z</time>
      </trkpt>
      <trkpt lat="41.869983" lon="2.713293">
        <ele>151.437</ele>
        <time>2020-11-03T18:20:52Z</time>
      </trkpt>
      <trkpt lat="41.870031" lon="2.713261">
        <ele>151.295</ele>
        <time>2020-11-03T18:20:53Z</time>
      </trkpt>
      <trkpt lat="41.870084" lon="2.713233">
        <ele>150.867</ele>
        <time>2020-11-03T18:20:54Z</time>
      </trkpt>
      <trkpt lat="41.870139" lon="2.713201">
        <ele>150.693</ele>
        <time>2020-11-03T18:20:55Z</time>
      </trkpt>
      <trkpt lat="41.870193" lon="2.713159">
        <ele>150.288</ele>
        <time>2020-11-03T18:20:56Z</time>
      </trkpt>
      <trkpt lat="41.870235" lon="2.713104">
        <ele>149.843</ele>
        <time>2020-11-03T18:20:57Z</time>
      </trkpt>
      <trkpt lat="41.870259" lon="2.713035">
        <ele>149.476</ele>
        <time>2020-11-03T18:20:58Z</time>
      </trkpt>
      <trkpt lat="41.870277" lon="2.712959">
        <ele>149.038</ele>
        <time>2020-11-03T18:20:59Z</time>
      </trkpt>
      <trkpt lat="41.870290" lon="2.712876">
        <ele>148.470</ele>
        <time>2020-11-03T18:21:00Z</time>
      </trkpt>
      <trkpt lat="41.870304" lon="2.712793">
        <ele>148.217</ele>
        <time>2020-11-03T18:21:01Z</time>
      </trkpt>
      <trkpt lat="41.870320" lon="2.712719">
        <ele>147.808</ele>
        <time>2020-11-03T18:21:02Z</time>
      </trkpt>
      <trkpt lat="41.870340" lon="2.712650">
        <ele>147.669</ele>
        <time>2020-11-03T18:21:03Z</time>
      </trkpt>
      <trkpt lat="41.870352" lon="2.712584">
        <ele>147.493</ele>
        <time>2020-11-03T18:21:04Z</time>
      </trkpt>
      <trkpt lat="41.870353" lon="2.712526">
        <ele>147.231</ele>
        <time>2020-11-03T18:21:05Z</time>
      </trkpt>
      <trkpt lat="41.870352" lon="2.712479">
        <ele>147.053</ele>
        <time>2020-11-03T18:21:06Z</time>
      </trkpt>
      <trkpt lat="41.870357" lon="2.712436">
        <ele>147.049</ele>
        <time>2020-11-03T18:21:07Z</time>
      </trkpt>
      <trkpt lat="41.870371" lon="2.712396">
        <ele>147.064</ele>
        <time>2020-11-03T18:21:08Z</time>
      </trkpt>
      <trkpt lat="41.870387" lon="2.712353">
        <ele>146.849</ele>
        <time>2020-11-03T18:21:09Z</time>
      </trkpt>
      <trkpt lat="41.870403" lon="2.712301">
        <ele>146.642</ele>
        <time>2020-11-03T18:21:10Z</time>
      </trkpt>
      <trkpt lat="41.870418" lon="2.712241">
        <ele>146.437</ele>
        <time>2020-11-03T18:21:11Z</time>
      </trkpt>
      <trkpt lat="41.870433" lon="2.712176">
        <ele>146.049</ele>
        <time>2020-11-03T18:21:12Z</time>
      </trkpt>
      <trkpt lat="41.870452" lon="2.712112">
        <ele>145.813</ele>
        <time>2020-11-03T18:21:13Z</time>
      </trkpt>
      <trkpt lat="41.870470" lon="2.712047">
        <ele>145.608</ele>
        <time>2020-11-03T18:21:14Z</time>
      </trkpt>
      <trkpt lat="41.870482" lon="2.711980">
        <ele>145.429</ele>
        <time>2020-11-03T18:21:15Z</time>
      </trkpt>
      <trkpt lat="41.870491" lon="2.711913">
        <ele>145.243</ele>
        <time>2020-11-03T18:21:16Z</time>
      </trkpt>
      <trkpt lat="41.870496" lon="2.711843">
        <ele>145.011</ele>
        <time>2020-11-03T18:21:17Z</time>
      </trkpt>
      <trkpt lat="41.870495" lon="2.711771">
        <ele>145.033</ele>
        <time>2020-11-03T18:21:18Z</time>
      </trkpt>
      <trkpt lat="41.870494" lon="2.711700">
        <ele>144.879</ele>
        <time>2020-11-03T18:21:19Z</time>
      </trkpt>
      <trkpt lat="41.870493" lon="2.711635">
        <ele>144.854</ele>
        <time>2020-11-03T18:21:20Z</time>
      </trkpt>
      <trkpt lat="41.870493" lon="2.711571">
        <ele>144.629</ele>
        <time>2020-11-03T18:21:21Z</time>
      </trkpt>
      <trkpt lat="41.870491" lon="2.711507">
        <ele>144.622</ele>
        <time>2020-11-03T18:21:22Z</time>
      </trkpt>
      <trkpt lat="41.870492" lon="2.711443">
        <ele>144.411</ele>
        <time>2020-11-03T18:21:23Z</time>
      </trkpt>
      <trkpt lat="41.870497" lon="2.711380">
        <ele>144.421</ele>
        <time>2020-11-03T18:21:24Z</time>
      </trkpt>
      <trkpt lat="41.870500" lon="2.711313">
        <ele>144.403</ele>
        <time>2020-11-03T18:21:25Z</time>
      </trkpt>
      <trkpt lat="41.870500" lon="2.711246">
        <ele>144.408</ele>
        <time>2020-11-03T18:21:26Z</time>
      </trkpt>
      <trkpt lat="41.870498" lon="2.711177">
        <ele>144.287</ele>
        <time>2020-11-03T18:21:27Z</time>
      </trkpt>
      <trkpt lat="41.870498" lon="2.711105">
        <ele>144.261</ele>
        <time>2020-11-03T18:21:28Z</time>
      </trkpt>
      <trkpt lat="41.870501" lon="2.711032">
        <ele>144.269</ele>
        <time>2020-11-03T18:21:29Z</time>
      </trkpt>
      <trkpt lat="41.870508" lon="2.710956">
        <ele>144.211</ele>
        <time>2020-11-03T18:21:30Z</time>
      </trkpt>
      <trkpt lat="41.870515" lon="2.710879">
        <ele>144.027</ele>
        <time>2020-11-03T18:21:31Z</time>
      </trkpt>
      <trkpt lat="41.870518" lon="2.710799">
        <ele>144.092</ele>
        <time>2020-11-03T18:21:32Z</time>
      </trkpt>
      <trkpt lat="41.870520" lon="2.710719">
        <ele>144.017</ele>
        <time>2020-11-03T18:21:33Z</time>
      </trkpt>
      <trkpt lat="41.870523" lon="2.710642">
        <ele>144.080</ele>
        <time>2020-11-03T18:21:34Z</time>
      </trkpt>
      <trkpt lat="41.870524" lon="2.710564">
        <ele>144.038</ele>
        <time>2020-11-03T18:21:35Z</time>
      </trkpt>
      <trkpt lat="41.870520" lon="2.710486">
        <ele>144.070</ele>
        <time>2020-11-03T18:21:36Z</time>
      </trkpt>
      <trkpt lat="41.870511" lon="2.710408">
        <ele>144.017</ele>
        <time>2020-11-03T18:21:37Z</time>
      </trkpt>
      <trkpt lat="41.870500" lon="2.710333">
        <ele>144.208</ele>
        <time>2020-11-03T18:21:38Z</time>
      </trkpt>
      <trkpt lat="41.870486" lon="2.710256">
        <ele>144.219</ele>
        <time>2020-11-03T18:21:39Z</time>
      </trkpt>
      <trkpt lat="41.870469" lon="2.710180">
        <ele>144.293</ele>
        <time>2020-11-03T18:21:40Z</time>
      </trkpt>
      <trkpt lat="41.870454" lon="2.710105">
        <ele>144.411</ele>
        <time>2020-11-03T18:21:41Z</time>
      </trkpt>
      <trkpt lat="41.870432" lon="2.710032">
        <ele>144.493</ele>
        <time>2020-11-03T18:21:42Z</time>
      </trkpt>
      <trkpt lat="41.870408" lon="2.709961">
        <ele>144.469</ele>
        <time>2020-11-03T18:21:43Z</time>
      </trkpt>
      <trkpt lat="41.870383" lon="2.709892">
        <ele>144.214</ele>
        <time>2020-11-03T18:21:44Z</time>
      </trkpt>
      <trkpt lat="41.870353" lon="2.709820">
        <ele>144.219</ele>
        <time>2020-11-03T18:21:45Z</time>
      </trkpt>
      <trkpt lat="41.870319" lon="2.709753">
        <ele>144.412</ele>
        <time>2020-11-03T18:21:46Z</time>
      </trkpt>
      <trkpt lat="41.870283" lon="2.709688">
        <ele>144.654</ele>
        <time>2020-11-03T18:21:47Z</time>
      </trkpt>
      <trkpt lat="41.870245" lon="2.709625">
        <ele>144.656</ele>
        <time>2020-11-03T18:21:48Z</time>
      </trkpt>
      <trkpt lat="41.870207" lon="2.709563">
        <ele>144.811</ele>
        <time>2020-11-03T18:21:49Z</time>
      </trkpt>
      <trkpt lat="41.870169" lon="2.709504">
        <ele>144.808</ele>
        <time>2020-11-03T18:21:50Z</time>
      </trkpt>
      <trkpt lat="41.870131" lon="2.709448">
        <ele>144.861</ele>
        <time>2020-11-03T18:21:51Z</time>
      </trkpt>
      <trkpt lat="41.870093" lon="2.709390">
        <ele>144.885</ele>
        <time>2020-11-03T18:21:52Z</time>
      </trkpt>
      <trkpt lat="41.870056" lon="2.709328">
        <ele>145.013</ele>
        <time>2020-11-03T18:21:53Z</time>
      </trkpt>
      <trkpt lat="41.870019" lon="2.709266">
        <ele>145.025</ele>
        <time>2020-11-03T18:21:54Z</time>
      </trkpt>
      <trkpt lat="41.869985" lon="2.709208">
        <ele>145.091</ele>
        <time>2020-11-03T18:21:55Z</time>
      </trkpt>
      <trkpt lat="41.869954" lon="2.709149">
        <ele>145.226</ele>
        <time>2020-11-03T18:21:56Z</time>
      </trkpt>
      <trkpt lat="41.869923" lon="2.709084">
        <ele>145.471</ele>
        <time>2020-11-03T18:21:57Z</time>
      </trkpt>
      <trkpt lat="41.869892" lon="2.709020">
        <ele>145.654</ele>
        <time>2020-11-03T18:21:58Z</time>
      </trkpt>
      <trkpt lat="41.869861" lon="2.708958">
        <ele>145.853</ele>
        <time>2020-11-03T18:21:59Z</time>
      </trkpt>
      <trkpt lat="41.869828" lon="2.708900">
        <ele>146.004</ele>
        <time>2020-11-03T18:22:00Z</time>
      </trkpt>
      <trkpt lat="41.869793" lon="2.708843">
        <ele>146.214</ele>
        <time>2020-11-03T18:22:01Z</time>
      </trkpt>
      <trkpt lat="41.869762" lon="2.708787">
        <ele>146.408</ele>
        <time>2020-11-03T18:22:02Z</time>
      </trkpt>
      <trkpt lat="41.869735" lon="2.708731">
        <ele>146.681</ele>
        <time>2020-11-03T18:22:03Z</time>
      </trkpt>
      <trkpt lat="41.869706" lon="2.708674">
        <ele>146.855</ele>
        <time>2020-11-03T18:22:04Z</time>
      </trkpt>
      <trkpt lat="41.869676" lon="2.708613">
        <ele>147.033</ele>
        <time>2020-11-03T18:22:05Z</time>
      </trkpt>
      <trkpt lat="41.869654" lon="2.708552">
        <ele>147.065</ele>
        <time>2020-11-03T18:22:06Z</time>
      </trkpt>
      <trkpt lat="41.869643" lon="2.708488">
        <ele>147.291</ele>
        <time>2020-11-03T18:22:07Z</time>
      </trkpt>
      <trkpt lat="41.869641" lon="2.708419">
        <ele>147.246</ele>
        <time>2020-11-03T18:22:08Z</time>
      </trkpt>
      <trkpt lat="41.869650" lon="2.708352">
        <ele>147.471</ele>
        <time>2020-11-03T18:22:09Z</time>
      </trkpt>
      <trkpt lat="41.869666" lon="2.708289">
        <ele>147.664</ele>
        <time>2020-11-03T18:22:10Z</time>
      </trkpt>
      <trkpt lat="41.869682" lon="2.708227">
        <ele>147.872</ele>
        <time>2020-11-03T18:22:11Z</time>
      </trkpt>
      <trkpt lat="41.869687" lon="2.708161">
        <ele>148.013</ele>
        <time>2020-11-03T18:22:12Z</time>
      </trkpt>
      <trkpt lat="41.869679" lon="2.708092">
        <ele>148.214</ele>
        <time>2020-11-03T18:22:13Z</time>
      </trkpt>
      <trkpt lat="41.869661" lon="2.708028">
        <ele>148.408</ele>
        <time>2020-11-03T18:22:14Z</time>
      </trkpt>
      <trkpt lat="41.869642" lon="2.707966">
        <ele>148.633</ele>
        <time>2020-11-03T18:22:15Z</time>
      </trkpt>
      <trkpt lat="41.869626" lon="2.707903">
        <ele>148.887</ele>
        <time>2020-11-03T18:22:16Z</time>
      </trkpt>
      <trkpt lat="41.869616" lon="2.707842">
        <ele>149.085</ele>
        <time>2020-11-03T18:22:17Z</time>
      </trkpt>
      <trkpt lat="41.869612" lon="2.707781">
        <ele>149.047</ele>
        <time>2020-11-03T18:22:18Z</time>
      </trkpt>
      <trkpt lat="41.869611" lon="2.707724">
        <ele>149.243</ele>
        <time>2020-11-03T18:22:19Z</time>
      </trkpt>
      <trkpt lat="41.869611" lon="2.707667">
        <ele>149.278</ele>
        <time>2020-11-03T18:22:20Z</time>
      </trkpt>
      <trkpt lat="41.869607" lon="2.707611">
        <ele>149.453</ele>
        <time>2020-11-03T18:22:21Z</time>
      </trkpt>
      <trkpt lat="41.869600" lon="2.707555">
        <ele>149.616</ele>
        <time>2020-11-03T18:22:22Z</time>
      </trkpt>
      <trkpt lat="41.869593" lon="2.707500">
        <ele>150.024</ele>
        <time>2020-11-03T18:22:23Z</time>
      </trkpt>
      <trkpt lat="41.869585" lon="2.707447">
        <ele>150.204</ele>
        <time>2020-11-03T18:22:24Z</time>
      </trkpt>
      <trkpt lat="41.869579" lon="2.707395">
        <ele>150.414</ele>
        <time>2020-11-03T18:22:25Z</time>
      </trkpt>
      <trkpt lat="41.869573" lon="2.707341">
        <ele>150.408</ele>
        <time>2020-11-03T18:22:26Z</time>
      </trkpt>
      <trkpt lat="41.869566" lon="2.707284">
        <ele>150.428</ele>
        <time>2020-11-03T18:22:27Z</time>
      </trkpt>
      <trkpt lat="41.869559" lon="2.707228">
        <ele>150.622</ele>
        <time>2020-11-03T18:22:28Z</time>
      </trkpt>
      <trkpt lat="41.869552" lon="2.707178">
        <ele>150.840</ele>
        <time>2020-11-03T18:22:29Z</time>
      </trkpt>
      <trkpt lat="41.869545" lon="2.707130">
        <ele>151.032</ele>
        <time>2020-11-03T18:22:30Z</time>
      </trkpt>
      <trkpt lat="41.869538" lon="2.707082">
        <ele>151.248</ele>
        <time>2020-11-03T18:22:31Z</time>
      </trkpt>
      <trkpt lat="41.869526" lon="2.707033">
        <ele>151.423</ele>
        <time>2020-11-03T18:22:32Z</time>
      </trkpt>
      <trkpt lat="41.869515" lon="2.706981">
        <ele>151.428</ele>
        <time>2020-11-03T18:22:33Z</time>
      </trkpt>
      <trkpt lat="41.869505" lon="2.706923">
        <ele>151.421</ele>
        <time>2020-11-03T18:22:34Z</time>
      </trkpt>
      <trkpt lat="41.869496" lon="2.706860">
        <ele>151.611</ele>
        <time>2020-11-03T18:22:35Z</time>
      </trkpt>
      <trkpt lat="41.869483" lon="2.706791">
        <ele>151.421</ele>
        <time>2020-11-03T18:22:36Z</time>
      </trkpt>
      <trkpt lat="41.869469" lon="2.706721">
        <ele>151.403</ele>
        <time>2020-11-03T18:22:37Z</time>
      </trkpt>
      <trkpt lat="41.869450" lon="2.706652">
        <ele>151.208</ele>
        <time>2020-11-03T18:22:38Z</time>
      </trkpt>
      <trkpt lat="41.869428" lon="2.706585">
        <ele>151.057</ele>
        <time>2020-11-03T18:22:39Z</time>
      </trkpt>
      <trkpt lat="41.869410" lon="2.706522">
        <ele>150.671</ele>
        <time>2020-11-03T18:22:40Z</time>
      </trkpt>
      <trkpt lat="41.869397" lon="2.706465">
        <ele>150.479</ele>
        <time>2020-11-03T18:22:41Z</time>
      </trkpt>
      <trkpt lat="41.869384" lon="2.706409">
        <ele>150.461</ele>
        <time>2020-11-03T18:22:42Z</time>
      </trkpt>
      <trkpt lat="41.869378" lon="2.706352">
        <ele>150.447</ele>
        <time>2020-11-03T18:22:43Z</time>
      </trkpt>
      <trkpt lat="41.869374" lon="2.706294">
        <ele>150.492</ele>
        <time>2020-11-03T18:22:44Z</time>
      </trkpt>
      <trkpt lat="41.869373" lon="2.706232">
        <ele>150.627</ele>
        <time>2020-11-03T18:22:45Z</time>
      </trkpt>
      <trkpt lat="41.869372" lon="2.706166">
        <ele>150.680</ele>
        <time>2020-11-03T18:22:46Z</time>
      </trkpt>
      <trkpt lat="41.869369" lon="2.706099">
        <ele>150.619</ele>
        <time>2020-11-03T18:22:47Z</time>
      </trkpt>
      <trkpt lat="41.869372" lon="2.706031">
        <ele>150.809</ele>
        <time>2020-11-03T18:22:48Z</time>
      </trkpt>
      <trkpt lat="41.869376" lon="2.705960">
        <ele>150.819</ele>
        <time>2020-11-03T18:22:49Z</time>
      </trkpt>
      <trkpt lat="41.869379" lon="2.705889">
        <ele>150.808</ele>
        <time>2020-11-03T18:22:50Z</time>
      </trkpt>
      <trkpt lat="41.869382" lon="2.705817">
        <ele>150.877</ele>
        <time>2020-11-03T18:22:51Z</time>
      </trkpt>
      <trkpt lat="41.869383" lon="2.705747">
        <ele>150.831</ele>
        <time>2020-11-03T18:22:52Z</time>
      </trkpt>
      <trkpt lat="41.869382" lon="2.705675">
        <ele>151.029</ele>
        <time>2020-11-03T18:22:53Z</time>
      </trkpt>
      <trkpt lat="41.869382" lon="2.705605">
        <ele>151.011</ele>
        <time>2020-11-03T18:22:54Z</time>
      </trkpt>
      <trkpt lat="41.869380" lon="2.705535">
        <ele>151.017</ele>
        <time>2020-11-03T18:22:55Z</time>
      </trkpt>
      <trkpt lat="41.869378" lon="2.705464">
        <ele>151.032</ele>
        <time>2020-11-03T18:22:56Z</time>
      </trkpt>
      <trkpt lat="41.869379" lon="2.705393">
        <ele>150.837</ele>
        <time>2020-11-03T18:22:57Z</time>
      </trkpt>
      <trkpt lat="41.869378" lon="2.705325">
        <ele>150.810</ele>
        <time>2020-11-03T18:22:58Z</time>
      </trkpt>
      <trkpt lat="41.869373" lon="2.705267">
        <ele>150.889</ele>
        <time>2020-11-03T18:22:59Z</time>
      </trkpt>
      <trkpt lat="41.869363" lon="2.705221">
        <ele>150.606</ele>
        <time>2020-11-03T18:23:00Z</time>
      </trkpt>
      <trkpt lat="41.869347" lon="2.705188">
        <ele>150.626</ele>
        <time>2020-11-03T18:23:01Z</time>
      </trkpt>
      <trkpt lat="41.869320" lon="2.705158">
        <ele>150.608</ele>
        <time>2020-11-03T18:23:02Z</time>
      </trkpt>
      <trkpt lat="41.869285" lon="2.705133">
        <ele>150.624</ele>
        <time>2020-11-03T18:23:03Z</time>
      </trkpt>
      <trkpt lat="41.869245" lon="2.705114">
        <ele>150.638</ele>
        <time>2020-11-03T18:23:04Z</time>
      </trkpt>
      <trkpt lat="41.869204" lon="2.705105">
        <ele>150.626</ele>
        <time>2020-11-03T18:23:05Z</time>
      </trkpt>
      <trkpt lat="41.869163" lon="2.705102">
        <ele>150.678</ele>
        <time>2020-11-03T18:23:06Z</time>
      </trkpt>
      <trkpt lat="41.869118" lon="2.705100">
        <ele>150.814</ele>
        <time>2020-11-03T18:23:07Z</time>
      </trkpt>
      <trkpt lat="41.869073" lon="2.705098">
        <ele>150.829</ele>
        <time>2020-11-03T18:23:08Z</time>
      </trkpt>
      <trkpt lat="41.869026" lon="2.705097">
        <ele>151.074</ele>
        <time>2020-11-03T18:23:09Z</time>
      </trkpt>
      <trkpt lat="41.868974" lon="2.705099">
        <ele>151.037</ele>
        <time>2020-11-03T18:23:10Z</time>
      </trkpt>
      <trkpt lat="41.868921" lon="2.705104">
        <ele>151.016</ele>
        <time>2020-11-03T18:23:11Z</time>
      </trkpt>
      <trkpt lat="41.868864" lon="2.705110">
        <ele>151.076</ele>
        <time>2020-11-03T18:23:12Z</time>
      </trkpt>
      <trkpt lat="41.868801" lon="2.705116">
        <ele>151.013</ele>
        <time>2020-11-03T18:23:13Z</time>
      </trkpt>
      <trkpt lat="41.868733" lon="2.705122">
        <ele>150.808</ele>
        <time>2020-11-03T18:23:14Z</time>
      </trkpt>
      <trkpt lat="41.868655" lon="2.705130">
        <ele>150.657</ele>
        <time>2020-11-03T18:23:15Z</time>
      </trkpt>
      <trkpt lat="41.868570" lon="2.705137">
        <ele>150.221</ele>
        <time>2020-11-03T18:23:16Z</time>
      </trkpt>
      <trkpt lat="41.868475" lon="2.705142">
        <ele>149.699</ele>
        <time>2020-11-03T18:23:17Z</time>
      </trkpt>
      <trkpt lat="41.868374" lon="2.705147">
        <ele>149.031</ele>
        <time>2020-11-03T18:23:18Z</time>
      </trkpt>
      <trkpt lat="41.868265" lon="2.705152">
        <ele>148.087</ele>
        <time>2020-11-03T18:23:19Z</time>
      </trkpt>
      <trkpt lat="41.868151" lon="2.705150">
        <ele>146.862</ele>
        <time>2020-11-03T18:23:20Z</time>
      </trkpt>
      <trkpt lat="41.868031" lon="2.705141">
        <ele>145.277</ele>
        <time>2020-11-03T18:23:21Z</time>
      </trkpt>
      <trkpt lat="41.867906" lon="2.705126">
        <ele>143.660</ele>
        <time>2020-11-03T18:23:22Z</time>
      </trkpt>
      <trkpt lat="41.867776" lon="2.705106">
        <ele>142.043</ele>
        <time>2020-11-03T18:23:23Z</time>
      </trkpt>
      <trkpt lat="41.867645" lon="2.705083">
        <ele>140.464</ele>
        <time>2020-11-03T18:23:24Z</time>
      </trkpt>
      <trkpt lat="41.867513" lon="2.705059">
        <ele>139.010</ele>
        <time>2020-11-03T18:23:25Z</time>
      </trkpt>
      <trkpt lat="41.867383" lon="2.705032">
        <ele>137.608</ele>
        <time>2020-11-03T18:23:26Z</time>
      </trkpt>
      <trkpt lat="41.867256" lon="2.705008">
        <ele>136.610</ele>
        <time>2020-11-03T18:23:27Z</time>
      </trkpt>
      <trkpt lat="41.867131" lon="2.704987">
        <ele>135.674</ele>
        <time>2020-11-03T18:23:28Z</time>
      </trkpt>
      <trkpt lat="41.867009" lon="2.704965">
        <ele>134.812</ele>
        <time>2020-11-03T18:23:29Z</time>
      </trkpt>
      <trkpt lat="41.866891" lon="2.704945">
        <ele>134.294</ele>
        <time>2020-11-03T18:23:30Z</time>
      </trkpt>
      <trkpt lat="41.866777" lon="2.704924">
        <ele>133.850</ele>
        <time>2020-11-03T18:23:31Z</time>
      </trkpt>
      <trkpt lat="41.866667" lon="2.704897">
        <ele>133.865</ele>
        <time>2020-11-03T18:23:32Z</time>
      </trkpt>
      <trkpt lat="41.866562" lon="2.704862">
        <ele>133.830</ele>
        <time>2020-11-03T18:23:33Z</time>
      </trkpt>
      <trkpt lat="41.866460" lon="2.704820">
        <ele>133.873</ele>
        <time>2020-11-03T18:23:34Z</time>
      </trkpt>
      <trkpt lat="41.866359" lon="2.704778">
        <ele>133.634</ele>
        <time>2020-11-03T18:23:35Z</time>
      </trkpt>
      <trkpt lat="41.866260" lon="2.704739">
        <ele>133.655</ele>
        <time>2020-11-03T18:23:36Z</time>
      </trkpt>
      <trkpt lat="41.866163" lon="2.704703">
        <ele>133.610</ele>
        <time>2020-11-03T18:23:37Z</time>
      </trkpt>
      <trkpt lat="41.866065" lon="2.704667">
        <ele>133.408</ele>
        <time>2020-11-03T18:23:38Z</time>
      </trkpt>
      <trkpt lat="41.865968" lon="2.704631">
        <ele>133.259</ele>
        <time>2020-11-03T18:23:39Z</time>
      </trkpt>
      <trkpt lat="41.865871" lon="2.704593">
        <ele>133.033</ele>
        <time>2020-11-03T18:23:40Z</time>
      </trkpt>
      <trkpt lat="41.865772" lon="2.704554">
        <ele>132.851</ele>
        <time>2020-11-03T18:23:41Z</time>
      </trkpt>
      <trkpt lat="41.865670" lon="2.704513">
        <ele>132.613</ele>
        <time>2020-11-03T18:23:42Z</time>
      </trkpt>
      <trkpt lat="41.865571" lon="2.704471">
        <ele>132.219</ele>
        <time>2020-11-03T18:23:43Z</time>
      </trkpt>
      <trkpt lat="41.865478" lon="2.704431">
        <ele>131.664</ele>
        <time>2020-11-03T18:23:44Z</time>
      </trkpt>
      <trkpt lat="41.865389" lon="2.704393">
        <ele>130.669</ele>
        <time>2020-11-03T18:23:45Z</time>
      </trkpt>
      <trkpt lat="41.865299" lon="2.704358">
        <ele>129.822</ele>
        <time>2020-11-03T18:23:46Z</time>
      </trkpt>
      <trkpt lat="41.865207" lon="2.704326">
        <ele>129.049</ele>
        <time>2020-11-03T18:23:47Z</time>
      </trkpt>
      <trkpt lat="41.865117" lon="2.704297">
        <ele>128.202</ele>
        <time>2020-11-03T18:23:48Z</time>
      </trkpt>
      <trkpt lat="41.865029" lon="2.704268">
        <ele>127.422</ele>
        <time>2020-11-03T18:23:49Z</time>
      </trkpt>
      <trkpt lat="41.864942" lon="2.704238">
        <ele>126.408</ele>
        <time>2020-11-03T18:23:50Z</time>
      </trkpt>
      <trkpt lat="41.864854" lon="2.704206">
        <ele>125.460</ele>
        <time>2020-11-03T18:23:51Z</time>
      </trkpt>
      <trkpt lat="41.864766" lon="2.704173">
        <ele>124.264</ele>
        <time>2020-11-03T18:23:52Z</time>
      </trkpt>
      <trkpt lat="41.864672" lon="2.704137">
        <ele>123.452</ele>
        <time>2020-11-03T18:23:53Z</time>
      </trkpt>
      <trkpt lat="41.864573" lon="2.704100">
        <ele>122.474</ele>
        <time>2020-11-03T18:23:54Z</time>
      </trkpt>
      <trkpt lat="41.864473" lon="2.704061">
        <ele>121.250</ele>
        <time>2020-11-03T18:23:55Z</time>
      </trkpt>
      <trkpt lat="41.864379" lon="2.704026">
        <ele>119.855</ele>
        <time>2020-11-03T18:23:56Z</time>
      </trkpt>
      <trkpt lat="41.864294" lon="2.703997">
        <ele>118.610</ele>
        <time>2020-11-03T18:23:57Z</time>
      </trkpt>
      <trkpt lat="41.864219" lon="2.703969">
        <ele>117.853</ele>
        <time>2020-11-03T18:23:58Z</time>
      </trkpt>
      <trkpt lat="41.864154" lon="2.703943">
        <ele>117.445</ele>
        <time>2020-11-03T18:23:59Z</time>
      </trkpt>
      <trkpt lat="41.864094" lon="2.703920">
        <ele>117.047</ele>
        <time>2020-11-03T18:24:00Z</time>
      </trkpt>
      <trkpt lat="41.864038" lon="2.703903">
        <ele>117.011</ele>
        <time>2020-11-03T18:24:01Z</time>
      </trkpt>
      <trkpt lat="41.863985" lon="2.703884">
        <ele>117.208</ele>
        <time>2020-11-03T18:24:02Z</time>
      </trkpt>
      <trkpt lat="41.863939" lon="2.703865">
        <ele>117.210</ele>
        <time>2020-11-03T18:24:03Z</time>
      </trkpt>
      <trkpt lat="41.863898" lon="2.703857">
        <ele>117.434</ele>
        <time>2020-11-03T18:24:04Z</time>
      </trkpt>
      <trkpt lat="41.863857" lon="2.703864">
        <ele>117.412</ele>
        <time>2020-11-03T18:24:05Z</time>
      </trkpt>
      <trkpt lat="41.863820" lon="2.703878">
        <ele>117.614</ele>
        <time>2020-11-03T18:24:06Z</time>
      </trkpt>
      <trkpt lat="41.863787" lon="2.703898">
        <ele>117.810</ele>
        <time>2020-11-03T18:24:07Z</time>
      </trkpt>
      <trkpt lat="41.863759" lon="2.703925">
        <ele>118.075</ele>
        <time>2020-11-03T18:24:08Z</time>
      </trkpt>
      <trkpt lat="41.863727" lon="2.703956">
        <ele>118.090</ele>
        <time>2020-11-03T18:24:09Z</time>
      </trkpt>
      <trkpt lat="41.863692" lon="2.703980">
        <ele>118.263</ele>
        <time>2020-11-03T18:24:10Z</time>
      </trkpt>
      <trkpt lat="41.863657" lon="2.703989">
        <ele>118.438</ele>
        <time>2020-11-03T18:24:11Z</time>
      </trkpt>
      <trkpt lat="41.863619" lon="2.703984">
        <ele>118.870</ele>
        <time>2020-11-03T18:24:12Z</time>
      </trkpt>
      <trkpt lat="41.863582" lon="2.703966">
        <ele>119.017</ele>
        <time>2020-11-03T18:24:13Z</time>
      </trkpt>
      <trkpt lat="41.863551" lon="2.703942">
        <ele>119.408</ele>
        <time>2020-11-03T18:24:14Z</time>
      </trkpt>
      <trkpt lat="41.863523" lon="2.703914">
        <ele>119.659</ele>
        <time>2020-11-03T18:24:15Z</time>
      </trkpt>
      <trkpt lat="41.863496" lon="2.703888">
        <ele>120.023</ele>
        <time>2020-11-03T18:24:16Z</time>
      </trkpt>
      <trkpt lat="41.863472" lon="2.703867">
        <ele>120.681</ele>
        <time>2020-11-03T18:24:17Z</time>
      </trkpt>
      <trkpt lat="41.863447" lon="2.703851">
        <ele>121.243</ele>
        <time>2020-11-03T18:24:18Z</time>
      </trkpt>
      <trkpt lat="41.863424" lon="2.703832">
        <ele>121.619</ele>
        <time>2020-11-03T18:24:19Z</time>
      </trkpt>
      <trkpt lat="41.863407" lon="2.703813">
        <ele>122.014</ele>
        <time>2020-11-03T18:24:20Z</time>
      </trkpt>
      <trkpt lat="41.863387" lon="2.703795">
        <ele>122.879</ele>
        <time>2020-11-03T18:24:21Z</time>
      </trkpt>
      <trkpt lat="41.863363" lon="2.703775">
        <ele>123.222</ele>
        <time>2020-11-03T18:24:22Z</time>
      </trkpt>
      <trkpt lat="41.863339" lon="2.703752">
        <ele>123.845</ele>
        <time>2020-11-03T18:24:23Z</time>
      </trkpt>
      <trkpt lat="41.863318" lon="2.703728">
        <ele>124.247</ele>
        <time>2020-11-03T18:24:24Z</time>
      </trkpt>
      <trkpt lat="41.863296" lon="2.703704">
        <ele>124.611</ele>
        <time>2020-11-03T18:24:25Z</time>
      </trkpt>
      <trkpt lat="41.863274" lon="2.703677">
        <ele>125.008</ele>
        <time>2020-11-03T18:24:26Z</time>
      </trkpt>
      <trkpt lat="41.863250" lon="2.703647">
        <ele>125.430</ele>
        <time>2020-11-03T18:24:27Z</time>
      </trkpt>
      <trkpt lat="41.863225" lon="2.703617">
        <ele>125.894</ele>
        <time>2020-11-03T18:24:28Z</time>
      </trkpt>
      <trkpt lat="41.863197" lon="2.703587">
        <ele>126.222</ele>
        <time>2020-11-03T18:24:29Z</time>
      </trkpt>
      <trkpt lat="41.863168" lon="2.703559">
        <ele>126.464</ele>
        <time>2020-11-03T18:24:30Z</time>
      </trkpt>
      <trkpt lat="41.863139" lon="2.703532">
        <ele>126.670</ele>
        <time>2020-11-03T18:24:31Z</time>
      </trkpt>
      <trkpt lat="41.863110" lon="2.703506">
        <ele>126.875</ele>
        <time>2020-11-03T18:24:32Z</time>
      </trkpt>
      <trkpt lat="41.863079" lon="2.703478">
        <ele>127.070</ele>
        <time>2020-11-03T18:24:33Z</time>
      </trkpt>
      <trkpt lat="41.863047" lon="2.703447">
        <ele>127.233</ele>
        <time>2020-11-03T18:24:34Z</time>
      </trkpt>
      <trkpt lat="41.863011" lon="2.703415">
        <ele>127.287</ele>
        <time>2020-11-03T18:24:35Z</time>
      </trkpt>
      <trkpt lat="41.862967" lon="2.703380">
        <ele>127.242</ele>
        <time>2020-11-03T18:24:36Z</time>
      </trkpt>
      <trkpt lat="41.862918" lon="2.703341">
        <ele>127.226</ele>
        <time>2020-11-03T18:24:37Z</time>
      </trkpt>
      <trkpt lat="41.862866" lon="2.703296">
        <ele>127.208</ele>
        <time>2020-11-03T18:24:38Z</time>
      </trkpt>
      <trkpt lat="41.862813" lon="2.703243">
        <ele>127.094</ele>
        <time>2020-11-03T18:24:39Z</time>
      </trkpt>
      <trkpt lat="41.862759" lon="2.703187">
        <ele>126.668</ele>
        <time>2020-11-03T18:24:40Z</time>
      </trkpt>
      <trkpt lat="41.862705" lon="2.703128">
        <ele>126.466</ele>
        <time>2020-11-03T18:24:41Z</time>
      </trkpt>
      <trkpt lat="41.862650" lon="2.703071">
        <ele>126.068</ele>
        <time>2020-11-03T18:24:42Z</time>
      </trkpt>
      <trkpt lat="41.862591" lon="2.703018">
        <ele>125.834</ele>
        <time>2020-11-03T18:24:43Z</time>
      </trkpt>
      <trkpt lat="41.862539" lon="2.702963">
        <ele>125.679</ele>
        <time>2020-11-03T18:24:44Z</time>
      </trkpt>
      <trkpt lat="41.862489" lon="2.702910">
        <ele>125.634</ele>
        <time>2020-11-03T18:24:45Z</time>
      </trkpt>
      <trkpt lat="41.862449" lon="2.702860">
        <ele>125.617</ele>
        <time>2020-11-03T18:24:46Z</time>
      </trkpt>
      <trkpt lat="41.862403" lon="2.702815">
        <ele>125.696</ele>
        <time>2020-11-03T18:24:47Z</time>
      </trkpt>
      <trkpt lat="41.862361" lon="2.702779">
        <ele>126.031</ele>
        <time>2020-11-03T18:24:48Z</time>
      </trkpt>
      <trkpt lat="41.862321" lon="2.702751">
        <ele>126.424</ele>
        <time>2020-11-03T18:24:49Z</time>
      </trkpt>
      <trkpt lat="41.862286" lon="2.702726">
        <ele>127.008</ele>
        <time>2020-11-03T18:24:50Z</time>
      </trkpt>
      <trkpt lat="41.862259" lon="2.702702">
        <ele>127.665</ele>
        <time>2020-11-03T18:24:51Z</time>
      </trkpt>
      <trkpt lat="41.862235" lon="2.702676">
        <ele>128.019</ele>
        <time>2020-11-03T18:24:52Z</time>
      </trkpt>
      <trkpt lat="41.862208" lon="2.702648">
        <ele>128.627</ele>
        <time>2020-11-03T18:24:53Z</time>
      </trkpt>
      <trkpt lat="41.862185" lon="2.702621">
        <ele>129.269</ele>
        <time>2020-11-03T18:24:54Z</time>
      </trkpt>
      <trkpt lat="41.862158" lon="2.702592">
        <ele>129.885</ele>
        <time>2020-11-03T18:24:55Z</time>
      </trkpt>
      <trkpt lat="41.862128" lon="2.702564">
        <ele>130.240</ele>
        <time>2020-11-03T18:24:56Z</time>
      </trkpt>
      <trkpt lat="41.862099" lon="2.702537">
        <ele>130.655</ele>
        <time>2020-11-03T18:24:57Z</time>
      </trkpt>
      <trkpt lat="41.862071" lon="2.702508">
        <ele>131.098</ele>
        <time>2020-11-03T18:24:58Z</time>
      </trkpt>
      <trkpt lat="41.862043" lon="2.702479">
        <ele>131.482</ele>
        <time>2020-11-03T18:24:59Z</time>
      </trkpt>
      <trkpt lat="41.862014" lon="2.702449">
        <ele>131.843</ele>
        <time>2020-11-03T18:25:00Z</time>
      </trkpt>
      <trkpt lat="41.861984" lon="2.702419">
        <ele>132.217</ele>
        <time>2020-11-03T18:25:01Z</time>
      </trkpt>
      <trkpt lat="41.861955" lon="2.702390">
        <ele>132.608</ele>
        <time>2020-11-03T18:25:02Z</time>
      </trkpt>
      <trkpt lat="41.861928" lon="2.702361">
        <ele>133.074</ele>
        <time>2020-11-03T18:25:03Z</time>
      </trkpt>
      <trkpt lat="41.861899" lon="2.702332">
        <ele>133.458</ele>
        <time>2020-11-03T18:25:04Z</time>
      </trkpt>
      <trkpt lat="41.861871" lon="2.702302">
        <ele>134.046</ele>
        <time>2020-11-03T18:25:05Z</time>
      </trkpt>
      <trkpt lat="41.861842" lon="2.702272">
        <ele>134.498</ele>
        <time>2020-11-03T18:25:06Z</time>
      </trkpt>
      <trkpt lat="41.861813" lon="2.702243">
        <ele>135.054</ele>
        <time>2020-11-03T18:25:07Z</time>
      </trkpt>
      <trkpt lat="41.861784" lon="2.702213">
        <ele>135.449</ele>
        <time>2020-11-03T18:25:08Z</time>
      </trkpt>
      <trkpt lat="41.861755" lon="2.702185">
        <ele>135.674</ele>
        <time>2020-11-03T18:25:09Z</time>
      </trkpt>
      <trkpt lat="41.861726" lon="2.702157">
        <ele>136.027</ele>
        <time>2020-11-03T18:25:10Z</time>
      </trkpt>
      <trkpt lat="41.861697" lon="2.702128">
        <ele>136.467</ele>
        <time>2020-11-03T18:25:11Z</time>
      </trkpt>
      <trkpt lat="41.861668" lon="2.702098">
        <ele>136.881</ele>
        <time>2020-11-03T18:25:12Z</time>
      </trkpt>
      <trkpt lat="41.861638" lon="2.702068">
        <ele>137.219</ele>
        <time>2020-11-03T18:25:13Z</time>
      </trkpt>
      <trkpt lat="41.861608" lon="2.702039">
        <ele>137.408</ele>
        <time>2020-11-03T18:25:14Z</time>
      </trkpt>
      <trkpt lat="41.861580" lon="2.702012">
        <ele>137.822</ele>
        <time>2020-11-03T18:25:15Z</time>
      </trkpt>
      <trkpt lat="41.861553" lon="2.701985">
        <ele>138.046</ele>
        <time>2020-11-03T18:25:16Z</time>
      </trkpt>
      <trkpt lat="41.861526" lon="2.701957">
        <ele>138.444</ele>
        <time>2020-11-03T18:25:17Z</time>
      </trkpt>
      <trkpt lat="41.861498" lon="2.701928">
        <ele>138.896</ele>
        <time>2020-11-03T18:25:18Z</time>
      </trkpt>
      <trkpt lat="41.861470" lon="2.701901">
        <ele>139.282</ele>
        <time>2020-11-03T18:25:19Z</time>
      </trkpt>
      <trkpt lat="41.861440" lon="2.701876">
        <ele>139.637</ele>
        <time>2020-11-03T18:25:20Z</time>
      </trkpt>
      <trkpt lat="41.861411" lon="2.701854">
        <ele>140.062</ele>
        <time>2020-11-03T18:25:21Z</time>
      </trkpt>
      <trkpt lat="41.861384" lon="2.701828">
        <ele>140.265</ele>
        <time>2020-11-03T18:25:22Z</time>
      </trkpt>
      <trkpt lat="41.861357" lon="2.701799">
        <ele>140.432</ele>
        <time>2020-11-03T18:25:23Z</time>
      </trkpt>
      <trkpt lat="41.861328" lon="2.701769">
        <ele>140.892</ele>
        <time>2020-11-03T18:25:24Z</time>
      </trkpt>
      <trkpt lat="41.861299" lon="2.701740">
        <ele>141.411</ele>
        <time>2020-11-03T18:25:25Z</time>
      </trkpt>
      <trkpt lat="41.861269" lon="2.701713">
        <ele>141.608</ele>
        <time>2020-11-03T18:25:26Z</time>
      </trkpt>
      <trkpt lat="41.861240" lon="2.701686">
        <ele>142.029</ele>
        <time>2020-11-03T18:25:27Z</time>
      </trkpt>
      <trkpt lat="41.861210" lon="2.701661">
        <ele>142.443</ele>
        <time>2020-11-03T18:25:28Z</time>
      </trkpt>
      <trkpt lat="41.861181" lon="2.701638">
        <ele>142.641</ele>
        <time>2020-11-03T18:25:29Z</time>
      </trkpt>
      <trkpt lat="41.861158" lon="2.701614">
        <ele>143.013</ele>
        <time>2020-11-03T18:25:30Z</time>
      </trkpt>
      <trkpt lat="41.861139" lon="2.701592">
        <ele>143.449</ele>
        <time>2020-11-03T18:25:31Z</time>
      </trkpt>
      <trkpt lat="41.861123" lon="2.701569">
        <ele>143.624</ele>
        <time>2020-11-03T18:25:32Z</time>
      </trkpt>
      <trkpt lat="41.861106" lon="2.701546">
        <ele>144.059</ele>
        <time>2020-11-03T18:25:33Z</time>
      </trkpt>
      <trkpt lat="41.861090" lon="2.701526">
        <ele>144.232</ele>
        <time>2020-11-03T18:25:34Z</time>
      </trkpt>
      <trkpt lat="41.861072" lon="2.701506">
        <ele>144.613</ele>
        <time>2020-11-03T18:25:35Z</time>
      </trkpt>
      <trkpt lat="41.861050" lon="2.701487">
        <ele>144.843</ele>
        <time>2020-11-03T18:25:36Z</time>
      </trkpt>
      <trkpt lat="41.861029" lon="2.701470">
        <ele>145.007</ele>
        <time>2020-11-03T18:25:37Z</time>
      </trkpt>
      <trkpt lat="41.861009" lon="2.701453">
        <ele>145.208</ele>
        <time>2020-11-03T18:25:38Z</time>
      </trkpt>
      <trkpt lat="41.860992" lon="2.701434">
        <ele>145.497</ele>
        <time>2020-11-03T18:25:39Z</time>
      </trkpt>
      <trkpt lat="41.860976" lon="2.701413">
        <ele>145.421</ele>
        <time>2020-11-03T18:25:40Z</time>
      </trkpt>
      <trkpt lat="41.860957" lon="2.701391">
        <ele>145.689</ele>
        <time>2020-11-03T18:25:41Z</time>
      </trkpt>
      <trkpt lat="41.860936" lon="2.701374">
        <ele>145.881</ele>
        <time>2020-11-03T18:25:42Z</time>
      </trkpt>
      <trkpt lat="41.860913" lon="2.701359">
        <ele>146.097</ele>
        <time>2020-11-03T18:25:43Z</time>
      </trkpt>
      <trkpt lat="41.860891" lon="2.701341">
        <ele>146.012</ele>
        <time>2020-11-03T18:25:44Z</time>
      </trkpt>
      <trkpt lat="41.860872" lon="2.701318">
        <ele>146.227</ele>
        <time>2020-11-03T18:25:45Z</time>
      </trkpt>
      <trkpt lat="41.860861" lon="2.701290">
        <ele>146.240</ele>
        <time>2020-11-03T18:25:46Z</time>
      </trkpt>
      <trkpt lat="41.860854" lon="2.701258">
        <ele>146.215</ele>
        <time>2020-11-03T18:25:47Z</time>
      </trkpt>
      <trkpt lat="41.860860" lon="2.701225">
        <ele>146.465</ele>
        <time>2020-11-03T18:25:48Z</time>
      </trkpt>
      <trkpt lat="41.860871" lon="2.701192">
        <ele>146.611</ele>
        <time>2020-11-03T18:25:49Z</time>
      </trkpt>
      <trkpt lat="41.860885" lon="2.701160">
        <ele>146.608</ele>
        <time>2020-11-03T18:25:50Z</time>
      </trkpt>
      <trkpt lat="41.860901" lon="2.701129">
        <ele>146.827</ele>
        <time>2020-11-03T18:25:51Z</time>
      </trkpt>
      <trkpt lat="41.860920" lon="2.701098">
        <ele>146.861</ele>
        <time>2020-11-03T18:25:52Z</time>
      </trkpt>
      <trkpt lat="41.860936" lon="2.701066">
        <ele>147.079</ele>
        <time>2020-11-03T18:25:53Z</time>
      </trkpt>
      <trkpt lat="41.860953" lon="2.701033">
        <ele>147.011</ele>
        <time>2020-11-03T18:25:54Z</time>
      </trkpt>
      <trkpt lat="41.860971" lon="2.701001">
        <ele>147.047</ele>
        <time>2020-11-03T18:25:55Z</time>
      </trkpt>
      <trkpt lat="41.860991" lon="2.700969">
        <ele>147.222</ele>
        <time>2020-11-03T18:25:56Z</time>
      </trkpt>
      <trkpt lat="41.861010" lon="2.700936">
        <ele>147.257</ele>
        <time>2020-11-03T18:25:57Z</time>
      </trkpt>
      <trkpt lat="41.861028" lon="2.700904">
        <ele>147.420</ele>
        <time>2020-11-03T18:25:58Z</time>
      </trkpt>
      <trkpt lat="41.861046" lon="2.700869">
        <ele>147.464</ele>
        <time>2020-11-03T18:25:59Z</time>
      </trkpt>
      <trkpt lat="41.861062" lon="2.700835">
        <ele>147.606</ele>
        <time>2020-11-03T18:26:00Z</time>
      </trkpt>
      <trkpt lat="41.861081" lon="2.700803">
        <ele>147.816</ele>
        <time>2020-11-03T18:26:01Z</time>
      </trkpt>
      <trkpt lat="41.861103" lon="2.700771">
        <ele>148.008</ele>
        <time>2020-11-03T18:26:02Z</time>
      </trkpt>
      <trkpt lat="41.861127" lon="2.700740">
        <ele>148.062</ele>
        <time>2020-11-03T18:26:03Z</time>
      </trkpt>
      <trkpt lat="41.861153" lon="2.700707">
        <ele>148.076</ele>
        <time>2020-11-03T18:26:04Z</time>
      </trkpt>
      <trkpt lat="41.861180" lon="2.700671">
        <ele>148.074</ele>
        <time>2020-11-03T18:26:05Z</time>
      </trkpt>
      <trkpt lat="41.861207" lon="2.700630">
        <ele>148.086</ele>
        <time>2020-11-03T18:26:06Z</time>
      </trkpt>
      <trkpt lat="41.861233" lon="2.700587">
        <ele>148.052</ele>
        <time>2020-11-03T18:26:07Z</time>
      </trkpt>
      <trkpt lat="41.861261" lon="2.700544">
        <ele>148.057</ele>
        <time>2020-11-03T18:26:08Z</time>
      </trkpt>
      <trkpt lat="41.861288" lon="2.700499">
        <ele>147.862</ele>
        <time>2020-11-03T18:26:09Z</time>
      </trkpt>
      <trkpt lat="41.861314" lon="2.700454">
        <ele>147.855</ele>
        <time>2020-11-03T18:26:10Z</time>
      </trkpt>
      <trkpt lat="41.861343" lon="2.700408">
        <ele>147.833</ele>
        <time>2020-11-03T18:26:11Z</time>
      </trkpt>
      <trkpt lat="41.861372" lon="2.700358">
        <ele>147.823</ele>
        <time>2020-11-03T18:26:12Z</time>
      </trkpt>
      <trkpt lat="41.861403" lon="2.700304">
        <ele>147.615</ele>
        <time>2020-11-03T18:26:13Z</time>
      </trkpt>
      <trkpt lat="41.861440" lon="2.700248">
        <ele>147.408</ele>
        <time>2020-11-03T18:26:14Z</time>
      </trkpt>
      <trkpt lat="41.861480" lon="2.700187">
        <ele>147.229</ele>
        <time>2020-11-03T18:26:15Z</time>
      </trkpt>
      <trkpt lat="41.861524" lon="2.700117">
        <ele>146.883</ele>
        <time>2020-11-03T18:26:16Z</time>
      </trkpt>
      <trkpt lat="41.861572" lon="2.700043">
        <ele>146.471</ele>
        <time>2020-11-03T18:26:17Z</time>
      </trkpt>
      <trkpt lat="41.861628" lon="2.699967">
        <ele>146.083</ele>
        <time>2020-11-03T18:26:18Z</time>
      </trkpt>
      <trkpt lat="41.861695" lon="2.699893">
        <ele>145.219</ele>
        <time>2020-11-03T18:26:19Z</time>
      </trkpt>
      <trkpt lat="41.861770" lon="2.699831">
        <ele>144.464</ele>
        <time>2020-11-03T18:26:20Z</time>
      </trkpt>
      <trkpt lat="41.861852" lon="2.699778">
        <ele>143.649</ele>
        <time>2020-11-03T18:26:21Z</time>
      </trkpt>
      <trkpt lat="41.861936" lon="2.699728">
        <ele>142.862</ele>
        <time>2020-11-03T18:26:22Z</time>
      </trkpt>
      <trkpt lat="41.862019" lon="2.699675">
        <ele>141.863</ele>
        <time>2020-11-03T18:26:23Z</time>
      </trkpt>
      <trkpt lat="41.862103" lon="2.699622">
        <ele>141.244</ele>
        <time>2020-11-03T18:26:24Z</time>
      </trkpt>
      <trkpt lat="41.862183" lon="2.699568">
        <ele>140.818</ele>
        <time>2020-11-03T18:26:25Z</time>
      </trkpt>
      <trkpt lat="41.862263" lon="2.699512">
        <ele>140.408</ele>
        <time>2020-11-03T18:26:26Z</time>
      </trkpt>
      <trkpt lat="41.862341" lon="2.699458">
        <ele>140.462</ele>
        <time>2020-11-03T18:26:27Z</time>
      </trkpt>
      <trkpt lat="41.862416" lon="2.699403">
        <ele>140.266</ele>
        <time>2020-11-03T18:26:28Z</time>
      </trkpt>
      <trkpt lat="41.862490" lon="2.699349">
        <ele>140.234</ele>
        <time>2020-11-03T18:26:29Z</time>
      </trkpt>
      <trkpt lat="41.862563" lon="2.699299">
        <ele>140.416</ele>
        <time>2020-11-03T18:26:30Z</time>
      </trkpt>
      <trkpt lat="41.862630" lon="2.699251">
        <ele>140.412</ele>
        <time>2020-11-03T18:26:31Z</time>
      </trkpt>
      <trkpt lat="41.862692" lon="2.699204">
        <ele>140.667</ele>
        <time>2020-11-03T18:26:32Z</time>
      </trkpt>
      <trkpt lat="41.862750" lon="2.699159">
        <ele>140.892</ele>
        <time>2020-11-03T18:26:33Z</time>
      </trkpt>
      <trkpt lat="41.862805" lon="2.699114">
        <ele>141.055</ele>
        <time>2020-11-03T18:26:34Z</time>
      </trkpt>
      <trkpt lat="41.862857" lon="2.699071">
        <ele>141.427</ele>
        <time>2020-11-03T18:26:35Z</time>
      </trkpt>
      <trkpt lat="41.862902" lon="2.699028">
        <ele>142.068</ele>
        <time>2020-11-03T18:26:36Z</time>
      </trkpt>
      <trkpt lat="41.862944" lon="2.698987">
        <ele>142.414</ele>
        <time>2020-11-03T18:26:37Z</time>
      </trkpt>
      <trkpt lat="41.862984" lon="2.698948">
        <ele>142.808</ele>
        <time>2020-11-03T18:26:38Z</time>
      </trkpt>
      <trkpt lat="41.863022" lon="2.698909">
        <ele>143.018</ele>
        <time>2020-11-03T18:26:39Z</time>
      </trkpt>
      <trkpt lat="41.863059" lon="2.698874">
        <ele>143.422</ele>
        <time>2020-11-03T18:26:40Z</time>
      </trkpt>
      <trkpt lat="41.863094" lon="2.698834">
        <ele>143.860</ele>
        <time>2020-11-03T18:26:41Z</time>
      </trkpt>
      <trkpt lat="41.863127" lon="2.698800">
        <ele>144.232</ele>
        <time>2020-11-03T18:26:42Z</time>
      </trkpt>
      <trkpt lat="41.863162" lon="2.698766">
        <ele>144.698</ele>
        <time>2020-11-03T18:26:43Z</time>
      </trkpt>
      <trkpt lat="41.863198" lon="2.698728">
        <ele>144.833</ele>
        <time>2020-11-03T18:26:44Z</time>
      </trkpt>
      <trkpt lat="41.863235" lon="2.698691">
        <ele>144.878</ele>
        <time>2020-11-03T18:26:45Z</time>
      </trkpt>
      <trkpt lat="41.863274" lon="2.698653">
        <ele>145.041</ele>
        <time>2020-11-03T18:26:46Z</time>
      </trkpt>
      <trkpt lat="41.863315" lon="2.698611">
        <ele>145.258</ele>
        <time>2020-11-03T18:26:47Z</time>
      </trkpt>
      <trkpt lat="41.863355" lon="2.698566">
        <ele>145.252</ele>
        <time>2020-11-03T18:26:48Z</time>
      </trkpt>
      <trkpt lat="41.863395" lon="2.698521">
        <ele>145.417</ele>
        <time>2020-11-03T18:26:49Z</time>
      </trkpt>
      <trkpt lat="41.863436" lon="2.698473">
        <ele>145.408</ele>
        <time>2020-11-03T18:26:50Z</time>
      </trkpt>
      <trkpt lat="41.863478" lon="2.698428">
        <ele>145.411</ele>
        <time>2020-11-03T18:26:51Z</time>
      </trkpt>
      <trkpt lat="41.863523" lon="2.698384">
        <ele>145.475</ele>
        <time>2020-11-03T18:26:52Z</time>
      </trkpt>
      <trkpt lat="41.863569" lon="2.698338">
        <ele>145.213</ele>
        <time>2020-11-03T18:26:53Z</time>
      </trkpt>
      <trkpt lat="41.863616" lon="2.698291">
        <ele>145.285</ele>
        <time>2020-11-03T18:26:54Z</time>
      </trkpt>
      <trkpt lat="41.863664" lon="2.698241">
        <ele>145.031</ele>
        <time>2020-11-03T18:26:55Z</time>
      </trkpt>
      <trkpt lat="41.863713" lon="2.698189">
        <ele>144.856</ele>
        <time>2020-11-03T18:26:56Z</time>
      </trkpt>
      <trkpt lat="41.863765" lon="2.698135">
        <ele>144.891</ele>
        <time>2020-11-03T18:26:57Z</time>
      </trkpt>
      <trkpt lat="41.863820" lon="2.698079">
        <ele>144.644</ele>
        <time>2020-11-03T18:26:58Z</time>
      </trkpt>
      <trkpt lat="41.863874" lon="2.698021">
        <ele>144.483</ele>
        <time>2020-11-03T18:26:59Z</time>
      </trkpt>
      <trkpt lat="41.863929" lon="2.697959">
        <ele>144.225</ele>
        <time>2020-11-03T18:27:00Z</time>
      </trkpt>
      <trkpt lat="41.863985" lon="2.697898">
        <ele>143.817</ele>
        <time>2020-11-03T18:27:01Z</time>
      </trkpt>
      <trkpt lat="41.864041" lon="2.697838">
        <ele>143.608</ele>
        <time>2020-11-03T18:27:02Z</time>
      </trkpt>
      <trkpt lat="41.864101" lon="2.697776">
        <ele>143.284</ele>
        <time>2020-11-03T18:27:03Z</time>
      </trkpt>
      <trkpt lat="41.864160" lon="2.697714">
        <ele>142.868</ele>
        <time>2020-11-03T18:27:04Z</time>
      </trkpt>
      <trkpt lat="41.864218" lon="2.697654">
        <ele>142.436</ele>
        <time>2020-11-03T18:27:05Z</time>
      </trkpt>
      <trkpt lat="41.864276" lon="2.697600">
        <ele>142.278</ele>
        <time>2020-11-03T18:27:06Z</time>
      </trkpt>
      <trkpt lat="41.864332" lon="2.697547">
        <ele>142.234</ele>
        <time>2020-11-03T18:27:07Z</time>
      </trkpt>
      <trkpt lat="41.864386" lon="2.697492">
        <ele>142.219</ele>
        <time>2020-11-03T18:27:08Z</time>
      </trkpt>
      <trkpt lat="41.864438" lon="2.697438">
        <ele>142.414</ele>
        <time>2020-11-03T18:27:09Z</time>
      </trkpt>
      <trkpt lat="41.864491" lon="2.697385">
        <ele>142.687</ele>
        <time>2020-11-03T18:27:10Z</time>
      </trkpt>
      <trkpt lat="41.864540" lon="2.697332">
        <ele>142.876</ele>
        <time>2020-11-03T18:27:11Z</time>
      </trkpt>
      <trkpt lat="41.864589" lon="2.697282">
        <ele>143.090</ele>
        <time>2020-11-03T18:27:12Z</time>
      </trkpt>
      <trkpt lat="41.864637" lon="2.697232">
        <ele>143.219</ele>
        <time>2020-11-03T18:27:13Z</time>
      </trkpt>
      <trkpt lat="41.864680" lon="2.697184">
        <ele>143.208</ele>
        <time>2020-11-03T18:27:14Z</time>
      </trkpt>
      <trkpt lat="41.864723" lon="2.697137">
        <ele>143.443</ele>
        <time>2020-11-03T18:27:15Z</time>
      </trkpt>
      <trkpt lat="41.864766" lon="2.697093">
        <ele>143.697</ele>
        <time>2020-11-03T18:27:16Z</time>
      </trkpt>
      <trkpt lat="41.864811" lon="2.697051">
        <ele>143.825</ele>
        <time>2020-11-03T18:27:17Z</time>
      </trkpt>
      <trkpt lat="41.864855" lon="2.697012">
        <ele>144.297</ele>
        <time>2020-11-03T18:27:18Z</time>
      </trkpt>
      <trkpt lat="41.864896" lon="2.696975">
        <ele>144.483</ele>
        <time>2020-11-03T18:27:19Z</time>
      </trkpt>
      <trkpt lat="41.864935" lon="2.696939">
        <ele>144.848</ele>
        <time>2020-11-03T18:27:20Z</time>
      </trkpt>
      <trkpt lat="41.864974" lon="2.696903">
        <ele>145.073</ele>
        <time>2020-11-03T18:27:21Z</time>
      </trkpt>
      <trkpt lat="41.865010" lon="2.696863">
        <ele>145.476</ele>
        <time>2020-11-03T18:27:22Z</time>
      </trkpt>
      <trkpt lat="41.865046" lon="2.696823">
        <ele>145.884</ele>
        <time>2020-11-03T18:27:23Z</time>
      </trkpt>
      <trkpt lat="41.865082" lon="2.696783">
        <ele>146.007</ele>
        <time>2020-11-03T18:27:24Z</time>
      </trkpt>
      <trkpt lat="41.865119" lon="2.696743">
        <ele>146.217</ele>
        <time>2020-11-03T18:27:25Z</time>
      </trkpt>
      <trkpt lat="41.865154" lon="2.696702">
        <ele>146.608</ele>
        <time>2020-11-03T18:27:26Z</time>
      </trkpt>
      <trkpt lat="41.865191" lon="2.696668">
        <ele>146.824</ele>
        <time>2020-11-03T18:27:27Z</time>
      </trkpt>
      <trkpt lat="41.865230" lon="2.696642">
        <ele>147.088</ele>
        <time>2020-11-03T18:27:28Z</time>
      </trkpt>
      <trkpt lat="41.865270" lon="2.696620">
        <ele>147.036</ele>
        <time>2020-11-03T18:27:29Z</time>
      </trkpt>
      <trkpt lat="41.865313" lon="2.696596">
        <ele>147.288</ele>
        <time>2020-11-03T18:27:30Z</time>
      </trkpt>
      <trkpt lat="41.865355" lon="2.696570">
        <ele>147.424</ele>
        <time>2020-11-03T18:27:31Z</time>
      </trkpt>
      <trkpt lat="41.865398" lon="2.696536">
        <ele>147.449</ele>
        <time>2020-11-03T18:27:32Z</time>
      </trkpt>
      <trkpt lat="41.865445" lon="2.696498">
        <ele>147.414</ele>
        <time>2020-11-03T18:27:33Z</time>
      </trkpt>
      <trkpt lat="41.865493" lon="2.696457">
        <ele>147.497</ele>
        <time>2020-11-03T18:27:34Z</time>
      </trkpt>
      <trkpt lat="41.865540" lon="2.696415">
        <ele>147.433</ele>
        <time>2020-11-03T18:27:35Z</time>
      </trkpt>
      <trkpt lat="41.865591" lon="2.696372">
        <ele>147.423</ele>
        <time>2020-11-03T18:27:36Z</time>
      </trkpt>
      <trkpt lat="41.865643" lon="2.696327">
        <ele>147.215</ele>
        <time>2020-11-03T18:27:37Z</time>
      </trkpt>
      <trkpt lat="41.865700" lon="2.696286">
        <ele>147.008</ele>
        <time>2020-11-03T18:27:38Z</time>
      </trkpt>
      <trkpt lat="41.865755" lon="2.696251">
        <ele>146.859</ele>
        <time>2020-11-03T18:27:39Z</time>
      </trkpt>
      <trkpt lat="41.865810" lon="2.696220">
        <ele>146.653</ele>
        <time>2020-11-03T18:27:40Z</time>
      </trkpt>
      <trkpt lat="41.865864" lon="2.696184">
        <ele>146.681</ele>
        <time>2020-11-03T18:27:41Z</time>
      </trkpt>
      <trkpt lat="41.865919" lon="2.696144">
        <ele>146.463</ele>
        <time>2020-11-03T18:27:42Z</time>
      </trkpt>
      <trkpt lat="41.865971" lon="2.696105">
        <ele>146.469</ele>
        <time>2020-11-03T18:27:43Z</time>
      </trkpt>
      <trkpt lat="41.866022" lon="2.696066">
        <ele>146.484</ele>
        <time>2020-11-03T18:27:44Z</time>
      </trkpt>
      <trkpt lat="41.866070" lon="2.696027">
        <ele>146.639</ele>
        <time>2020-11-03T18:27:45Z</time>
      </trkpt>
      <trkpt lat="41.866115" lon="2.695990">
        <ele>146.672</ele>
        <time>2020-11-03T18:27:46Z</time>
      </trkpt>
      <trkpt lat="41.866156" lon="2.695958">
        <ele>146.851</ele>
        <time>2020-11-03T18:27:47Z</time>
      </trkpt>
      <trkpt lat="41.866193" lon="2.695929">
        <ele>146.801</ele>
        <time>2020-11-03T18:27:48Z</time>
      </trkpt>
      <trkpt lat="41.866228" lon="2.695901">
        <ele>147.211</ele>
        <time>2020-11-03T18:27:49Z</time>
      </trkpt>
      <trkpt lat="41.866259" lon="2.695874">
        <ele>147.408</ele>
        <time>2020-11-03T18:27:50Z</time>
      </trkpt>
      <trkpt lat="41.866288" lon="2.695846">
        <ele>147.611</ele>
        <time>2020-11-03T18:27:51Z</time>
      </trkpt>
      <trkpt lat="41.866316" lon="2.695815">
        <ele>147.845</ele>
        <time>2020-11-03T18:27:52Z</time>
      </trkpt>
      <trkpt lat="41.866343" lon="2.695781">
        <ele>147.843</ele>
        <time>2020-11-03T18:27:53Z</time>
      </trkpt>
      <trkpt lat="41.866371" lon="2.695737">
        <ele>148.035</ele>
        <time>2020-11-03T18:27:54Z</time>
      </trkpt>
      <trkpt lat="41.866396" lon="2.695681">
        <ele>147.851</ele>
        <time>2020-11-03T18:27:55Z</time>
      </trkpt>
      <trkpt lat="41.866419" lon="2.695618">
        <ele>147.866</ele>
        <time>2020-11-03T18:27:56Z</time>
      </trkpt>
      <trkpt lat="41.866437" lon="2.695554">
        <ele>147.891</ele>
        <time>2020-11-03T18:27:57Z</time>
      </trkpt>
      <trkpt lat="41.866451" lon="2.695484">
        <ele>147.894</ele>
        <time>2020-11-03T18:27:58Z</time>
      </trkpt>
      <trkpt lat="41.866464" lon="2.695409">
        <ele>147.619</ele>
        <time>2020-11-03T18:27:59Z</time>
      </trkpt>
      <trkpt lat="41.866476" lon="2.695335">
        <ele>147.609</ele>
        <time>2020-11-03T18:28:00Z</time>
      </trkpt>
      <trkpt lat="41.866489" lon="2.695258">
        <ele>147.419</ele>
        <time>2020-11-03T18:28:01Z</time>
      </trkpt>
      <trkpt lat="41.866503" lon="2.695178">
        <ele>147.208</ele>
        <time>2020-11-03T18:28:02Z</time>
      </trkpt>
      <trkpt lat="41.866518" lon="2.695099">
        <ele>146.867</ele>
        <time>2020-11-03T18:28:03Z</time>
      </trkpt>
      <trkpt lat="41.866538" lon="2.695016">
        <ele>146.661</ele>
        <time>2020-11-03T18:28:04Z</time>
      </trkpt>
      <trkpt lat="41.866560" lon="2.694927">
        <ele>146.239</ele>
        <time>2020-11-03T18:28:05Z</time>
      </trkpt>
      <trkpt lat="41.866579" lon="2.694835">
        <ele>145.831</ele>
        <time>2020-11-03T18:28:06Z</time>
      </trkpt>
      <trkpt lat="41.866593" lon="2.694746">
        <ele>145.427</ele>
        <time>2020-11-03T18:28:07Z</time>
      </trkpt>
      <trkpt lat="41.866598" lon="2.694671">
        <ele>145.022</ele>
        <time>2020-11-03T18:28:08Z</time>
      </trkpt>
      <trkpt lat="41.866595" lon="2.694606">
        <ele>144.677</ele>
        <time>2020-11-03T18:28:09Z</time>
      </trkpt>
      <trkpt lat="41.866577" lon="2.694556">
        <ele>144.440</ele>
        <time>2020-11-03T18:28:10Z</time>
      </trkpt>
      <trkpt lat="41.866550" lon="2.694517">
        <ele>144.488</ele>
        <time>2020-11-03T18:28:11Z</time>
      </trkpt>
      <trkpt lat="41.866516" lon="2.694487">
        <ele>144.224</ele>
        <time>2020-11-03T18:28:12Z</time>
      </trkpt>
      <trkpt lat="41.866472" lon="2.694460">
        <ele>144.226</ele>
        <time>2020-11-03T18:28:13Z</time>
      </trkpt>
      <trkpt lat="41.866422" lon="2.694427">
        <ele>144.208</ele>
        <time>2020-11-03T18:28:14Z</time>
      </trkpt>
      <trkpt lat="41.866369" lon="2.694389">
        <ele>143.814</ele>
        <time>2020-11-03T18:28:15Z</time>
      </trkpt>
      <trkpt lat="41.866316" lon="2.694345">
        <ele>143.488</ele>
        <time>2020-11-03T18:28:16Z</time>
      </trkpt>
      <trkpt lat="41.866260" lon="2.694294">
        <ele>142.896</ele>
        <time>2020-11-03T18:28:17Z</time>
      </trkpt>
      <trkpt lat="41.866207" lon="2.694241">
        <ele>142.498</ele>
        <time>2020-11-03T18:28:18Z</time>
      </trkpt>
      <trkpt lat="41.866155" lon="2.694189">
        <ele>142.264</ele>
        <time>2020-11-03T18:28:19Z</time>
      </trkpt>
      <trkpt lat="41.866105" lon="2.694138">
        <ele>142.019</ele>
        <time>2020-11-03T18:28:20Z</time>
      </trkpt>
      <trkpt lat="41.866055" lon="2.694088">
        <ele>141.814</ele>
        <time>2020-11-03T18:28:21Z</time>
      </trkpt>
      <trkpt lat="41.866002" lon="2.694040">
        <ele>141.627</ele>
        <time>2020-11-03T18:28:22Z</time>
      </trkpt>
      <trkpt lat="41.865948" lon="2.694000">
        <ele>141.477</ele>
        <time>2020-11-03T18:28:23Z</time>
      </trkpt>
      <trkpt lat="41.865897" lon="2.693962">
        <ele>141.261</ele>
        <time>2020-11-03T18:28:24Z</time>
      </trkpt>
      <trkpt lat="41.865847" lon="2.693916">
        <ele>141.027</ele>
        <time>2020-11-03T18:28:25Z</time>
      </trkpt>
      <trkpt lat="41.865803" lon="2.693864">
        <ele>140.608</ele>
        <time>2020-11-03T18:28:26Z</time>
      </trkpt>
      <trkpt lat="41.865768" lon="2.693808">
        <ele>140.413</ele>
        <time>2020-11-03T18:28:27Z</time>
      </trkpt>
      <trkpt lat="41.865740" lon="2.693746">
        <ele>140.217</ele>
        <time>2020-11-03T18:28:28Z</time>
      </trkpt>
      <trkpt lat="41.865716" lon="2.693679">
        <ele>140.075</ele>
        <time>2020-11-03T18:28:29Z</time>
      </trkpt>
      <trkpt lat="41.865700" lon="2.693608">
        <ele>139.897</ele>
        <time>2020-11-03T18:28:30Z</time>
      </trkpt>
      <trkpt lat="41.865675" lon="2.693530">
        <ele>139.493</ele>
        <time>2020-11-03T18:28:31Z</time>
      </trkpt>
      <trkpt lat="41.865640" lon="2.693444">
        <ele>139.078</ele>
        <time>2020-11-03T18:28:32Z</time>
      </trkpt>
      <trkpt lat="41.865595" lon="2.693349">
        <ele>138.653</ele>
        <time>2020-11-03T18:28:33Z</time>
      </trkpt>
      <trkpt lat="41.865543" lon="2.693260">
        <ele>138.236</ele>
        <time>2020-11-03T18:28:34Z</time>
      </trkpt>
      <trkpt lat="41.865489" lon="2.693183">
        <ele>137.895</ele>
        <time>2020-11-03T18:28:35Z</time>
      </trkpt>
      <trkpt lat="41.865435" lon="2.693117">
        <ele>137.649</ele>
        <time>2020-11-03T18:28:36Z</time>
      </trkpt>
      <trkpt lat="41.865378" lon="2.693060">
        <ele>137.423</ele>
        <time>2020-11-03T18:28:37Z</time>
      </trkpt>
      <trkpt lat="41.865327" lon="2.693007">
        <ele>137.408</ele>
        <time>2020-11-03T18:28:38Z</time>
      </trkpt>
      <trkpt lat="41.865270" lon="2.692962">
        <ele>137.295</ele>
        <time>2020-11-03T18:28:39Z</time>
      </trkpt>
      <trkpt lat="41.865211" lon="2.692924">
        <ele>137.259</ele>
        <time>2020-11-03T18:28:40Z</time>
      </trkpt>
      <trkpt lat="41.865153" lon="2.692893">
        <ele>137.437</ele>
        <time>2020-11-03T18:28:41Z</time>
      </trkpt>
      <trkpt lat="41.865097" lon="2.692865">
        <ele>137.479</ele>
        <time>2020-11-03T18:28:42Z</time>
      </trkpt>
      <trkpt lat="41.865045" lon="2.692839">
        <ele>137.485</ele>
        <time>2020-11-03T18:28:43Z</time>
      </trkpt>
      <trkpt lat="41.864996" lon="2.692818">
        <ele>137.480</ele>
        <time>2020-11-03T18:28:44Z</time>
      </trkpt>
      <trkpt lat="41.864960" lon="2.692799">
        <ele>137.655</ele>
        <time>2020-11-03T18:28:45Z</time>
      </trkpt>
      <trkpt lat="41.864911" lon="2.692772">
        <ele>137.678</ele>
        <time>2020-11-03T18:28:46Z</time>
      </trkpt>
      <trkpt lat="41.864875" lon="2.692742">
        <ele>137.638</ele>
        <time>2020-11-03T18:28:47Z</time>
      </trkpt>
      <trkpt lat="41.864847" lon="2.692708">
        <ele>137.670</ele>
        <time>2020-11-03T18:28:48Z</time>
      </trkpt>
      <trkpt lat="41.864821" lon="2.692672">
        <ele>137.617</ele>
        <time>2020-11-03T18:28:49Z</time>
      </trkpt>
      <trkpt lat="41.864796" lon="2.692629">
        <ele>137.608</ele>
        <time>2020-11-03T18:28:50Z</time>
      </trkpt>
      <trkpt lat="41.864772" lon="2.692579">
        <ele>137.679</ele>
        <time>2020-11-03T18:28:51Z</time>
      </trkpt>
      <trkpt lat="41.864746" lon="2.692522">
        <ele>137.633</ele>
        <time>2020-11-03T18:28:52Z</time>
      </trkpt>
      <trkpt lat="41.864724" lon="2.692469">
        <ele>137.451</ele>
        <time>2020-11-03T18:28:53Z</time>
      </trkpt>
      <trkpt lat="41.864706" lon="2.692426">
        <ele>137.213</ele>
        <time>2020-11-03T18:28:54Z</time>
      </trkpt>
      <trkpt lat="41.864684" lon="2.692392">
        <ele>136.819</ele>
        <time>2020-11-03T18:28:55Z</time>
      </trkpt>
      <trkpt lat="41.864657" lon="2.692368">
        <ele>136.464</ele>
        <time>2020-11-03T18:28:56Z</time>
      </trkpt>
      <trkpt lat="41.864632" lon="2.692349">
        <ele>136.019</ele>
        <time>2020-11-03T18:28:57Z</time>
      </trkpt>
      <trkpt lat="41.864593" lon="2.692325">
        <ele>135.892</ele>
        <time>2020-11-03T18:28:58Z</time>
      </trkpt>
      <trkpt lat="41.864542" lon="2.692302">
        <ele>135.674</ele>
        <time>2020-11-03T18:28:59Z</time>
      </trkpt>
      <trkpt lat="41.864488" lon="2.692278">
        <ele>135.256</ele>
        <time>2020-11-03T18:29:00Z</time>
      </trkpt>
      <trkpt lat="41.864436" lon="2.692244">
        <ele>135.021</ele>
        <time>2020-11-03T18:29:01Z</time>
      </trkpt>
      <trkpt lat="41.864387" lon="2.692201">
        <ele>134.608</ele>
        <time>2020-11-03T18:29:02Z</time>
      </trkpt>
      <trkpt lat="41.864342" lon="2.692151">
        <ele>134.073</ele>
        <time>2020-11-03T18:29:03Z</time>
      </trkpt>
      <trkpt lat="41.864297" lon="2.692097">
        <ele>133.247</ele>
        <time>2020-11-03T18:29:04Z</time>
      </trkpt>
      <trkpt lat="41.864253" lon="2.692048">
        <ele>132.475</ele>
        <time>2020-11-03T18:29:05Z</time>
      </trkpt>
      <trkpt lat="41.864215" lon="2.692002">
        <ele>131.627</ele>
        <time>2020-11-03T18:29:06Z</time>
      </trkpt>
      <trkpt lat="41.864181" lon="2.691961">
        <ele>130.813</ele>
        <time>2020-11-03T18:29:07Z</time>
      </trkpt>
      <trkpt lat="41.864150" lon="2.691925">
        <ele>130.058</ele>
        <time>2020-11-03T18:29:08Z</time>
      </trkpt>
      <trkpt lat="41.864117" lon="2.691896">
        <ele>129.423</ele>
        <time>2020-11-03T18:29:09Z</time>
      </trkpt>
      <trkpt lat="41.864080" lon="2.691867">
        <ele>128.886</ele>
        <time>2020-11-03T18:29:10Z</time>
      </trkpt>
      <trkpt lat="41.864057" lon="2.691845">
        <ele>128.495</ele>
        <time>2020-11-03T18:29:11Z</time>
      </trkpt>
      <trkpt lat="41.864019" lon="2.691816">
        <ele>128.049</ele>
        <time>2020-11-03T18:29:12Z</time>
      </trkpt>
      <trkpt lat="41.863969" lon="2.691781">
        <ele>127.423</ele>
        <time>2020-11-03T18:29:13Z</time>
      </trkpt>
      <trkpt lat="41.863924" lon="2.691737">
        <ele>127.008</ele>
        <time>2020-11-03T18:29:14Z</time>
      </trkpt>
      <trkpt lat="41.863892" lon="2.691685">
        <ele>126.845</ele>
        <time>2020-11-03T18:29:15Z</time>
      </trkpt>
      <trkpt lat="41.863869" lon="2.691625">
        <ele>126.229</ele>
        <time>2020-11-03T18:29:16Z</time>
      </trkpt>
      <trkpt lat="41.863856" lon="2.691562">
        <ele>125.837</ele>
        <time>2020-11-03T18:29:17Z</time>
      </trkpt>
      <trkpt lat="41.863839" lon="2.691484">
        <ele>125.469</ele>
        <time>2020-11-03T18:29:18Z</time>
      </trkpt>
      <trkpt lat="41.863830" lon="2.691405">
        <ele>125.085</ele>
        <time>2020-11-03T18:29:19Z</time>
      </trkpt>
      <trkpt lat="41.863825" lon="2.691320">
        <ele>124.860</ele>
        <time>2020-11-03T18:29:20Z</time>
      </trkpt>
      <trkpt lat="41.863826" lon="2.691228">
        <ele>124.675</ele>
        <time>2020-11-03T18:29:21Z</time>
      </trkpt>
      <trkpt lat="41.863824" lon="2.691135">
        <ele>124.468</ele>
        <time>2020-11-03T18:29:22Z</time>
      </trkpt>
      <trkpt lat="41.863826" lon="2.691042">
        <ele>124.091</ele>
        <time>2020-11-03T18:29:23Z</time>
      </trkpt>
      <trkpt lat="41.863822" lon="2.690948">
        <ele>123.881</ele>
        <time>2020-11-03T18:29:24Z</time>
      </trkpt>
      <trkpt lat="41.863811" lon="2.690865">
        <ele>123.419</ele>
        <time>2020-11-03T18:29:25Z</time>
      </trkpt>
      <trkpt lat="41.863789" lon="2.690793">
        <ele>123.408</ele>
        <time>2020-11-03T18:29:26Z</time>
      </trkpt>
      <trkpt lat="41.863758" lon="2.690733">
        <ele>123.215</ele>
        <time>2020-11-03T18:29:27Z</time>
      </trkpt>
      <trkpt lat="41.863720" lon="2.690687">
        <ele>123.239</ele>
        <time>2020-11-03T18:29:28Z</time>
      </trkpt>
      <trkpt lat="41.863676" lon="2.690653">
        <ele>123.297</ele>
        <time>2020-11-03T18:29:29Z</time>
      </trkpt>
      <trkpt lat="41.863626" lon="2.690634">
        <ele>123.249</ele>
        <time>2020-11-03T18:29:30Z</time>
      </trkpt>
      <trkpt lat="41.863568" lon="2.690633">
        <ele>123.215</ele>
        <time>2020-11-03T18:29:31Z</time>
      </trkpt>
      <trkpt lat="41.863505" lon="2.690645">
        <ele>123.240</ele>
        <time>2020-11-03T18:29:32Z</time>
      </trkpt>
      <trkpt lat="41.863438" lon="2.690659">
        <ele>123.015</ele>
        <time>2020-11-03T18:29:33Z</time>
      </trkpt>
      <trkpt lat="41.863369" lon="2.690671">
        <ele>122.838</ele>
        <time>2020-11-03T18:29:34Z</time>
      </trkpt>
      <trkpt lat="41.863302" lon="2.690682">
        <ele>122.458</ele>
        <time>2020-11-03T18:29:35Z</time>
      </trkpt>
      <trkpt lat="41.863242" lon="2.690688">
        <ele>122.052</ele>
        <time>2020-11-03T18:29:36Z</time>
      </trkpt>
      <trkpt lat="41.863193" lon="2.690689">
        <ele>122.017</ele>
        <time>2020-11-03T18:29:37Z</time>
      </trkpt>
      <trkpt lat="41.863150" lon="2.690690">
        <ele>121.808</ele>
        <time>2020-11-03T18:29:38Z</time>
      </trkpt>
      <trkpt lat="41.863108" lon="2.690690">
        <ele>122.051</ele>
        <time>2020-11-03T18:29:39Z</time>
      </trkpt>
      <trkpt lat="41.863067" lon="2.690685">
        <ele>122.225</ele>
        <time>2020-11-03T18:29:40Z</time>
      </trkpt>
      <trkpt lat="41.863025" lon="2.690676">
        <ele>122.643</ele>
        <time>2020-11-03T18:29:41Z</time>
      </trkpt>
      <trkpt lat="41.862984" lon="2.690667">
        <ele>123.065</ele>
        <time>2020-11-03T18:29:42Z</time>
      </trkpt>
      <trkpt lat="41.862945" lon="2.690661">
        <ele>123.431</ele>
        <time>2020-11-03T18:29:43Z</time>
      </trkpt>
      <trkpt lat="41.862909" lon="2.690657">
        <ele>123.836</ele>
        <time>2020-11-03T18:29:44Z</time>
      </trkpt>
      <trkpt lat="41.862878" lon="2.690651">
        <ele>124.261</ele>
        <time>2020-11-03T18:29:45Z</time>
      </trkpt>
      <trkpt lat="41.862850" lon="2.690647">
        <ele>124.614</ele>
        <time>2020-11-03T18:29:46Z</time>
      </trkpt>
      <trkpt lat="41.862829" lon="2.690640">
        <ele>125.066</ele>
        <time>2020-11-03T18:29:47Z</time>
      </trkpt>
      <trkpt lat="41.862817" lon="2.690627">
        <ele>125.629</ele>
        <time>2020-11-03T18:29:48Z</time>
      </trkpt>
      <trkpt lat="41.862813" lon="2.690610">
        <ele>125.821</ele>
        <time>2020-11-03T18:29:49Z</time>
      </trkpt>
      <trkpt lat="41.862816" lon="2.690579">
        <ele>126.208</ele>
        <time>2020-11-03T18:29:50Z</time>
      </trkpt>
      <trkpt lat="41.862821" lon="2.690534">
        <ele>126.422</ele>
        <time>2020-11-03T18:29:51Z</time>
      </trkpt>
      <trkpt lat="41.862827" lon="2.690481">
        <ele>126.476</ele>
        <time>2020-11-03T18:29:52Z</time>
      </trkpt>
      <trkpt lat="41.862832" lon="2.690425">
        <ele>126.444</ele>
        <time>2020-11-03T18:29:53Z</time>
      </trkpt>
      <trkpt lat="41.862837" lon="2.690371">
        <ele>126.436</ele>
        <time>2020-11-03T18:29:54Z</time>
      </trkpt>
      <trkpt lat="41.862841" lon="2.690321">
        <ele>126.472</ele>
        <time>2020-11-03T18:29:55Z</time>
      </trkpt>
      <trkpt lat="41.862844" lon="2.690279">
        <ele>126.487</ele>
        <time>2020-11-03T18:29:56Z</time>
      </trkpt>
      <trkpt lat="41.862850" lon="2.690247">
        <ele>126.432</ele>
        <time>2020-11-03T18:29:57Z</time>
      </trkpt>
      <trkpt lat="41.862864" lon="2.690230">
        <ele>126.465</ele>
        <time>2020-11-03T18:29:58Z</time>
      </trkpt>
      <trkpt lat="41.862883" lon="2.690233">
        <ele>126.439</ele>
        <time>2020-11-03T18:29:59Z</time>
      </trkpt>
      <trkpt lat="41.862906" lon="2.690244">
        <ele>126.001</ele>
        <time>2020-11-03T18:30:00Z</time>
      </trkpt>
      <trkpt lat="41.862934" lon="2.690260">
        <ele>125.821</ele>
        <time>2020-11-03T18:30:01Z</time>
      </trkpt>
      <trkpt lat="41.862967" lon="2.690276">
        <ele>125.608</ele>
        <time>2020-11-03T18:30:02Z</time>
      </trkpt>
      <trkpt lat="41.862997" lon="2.690285">
        <ele>125.419</ele>
        <time>2020-11-03T18:30:03Z</time>
      </trkpt>
      <trkpt lat="41.863021" lon="2.690279">
        <ele>125.293</ele>
        <time>2020-11-03T18:30:04Z</time>
      </trkpt>
      <trkpt lat="41.863036" lon="2.690255">
        <ele>124.811</ele>
        <time>2020-11-03T18:30:05Z</time>
      </trkpt>
      <trkpt lat="41.863036" lon="2.690220">
        <ele>124.653</ele>
        <time>2020-11-03T18:30:06Z</time>
      </trkpt>
      <trkpt lat="41.863020" lon="2.690185">
        <ele>124.449</ele>
        <time>2020-11-03T18:30:07Z</time>
      </trkpt>
      <trkpt lat="41.862996" lon="2.690152">
        <ele>124.294</ele>
        <time>2020-11-03T18:30:08Z</time>
      </trkpt>
      <trkpt lat="41.862970" lon="2.690121">
        <ele>124.019</ele>
        <time>2020-11-03T18:30:09Z</time>
      </trkpt>
      <trkpt lat="41.862942" lon="2.690091">
        <ele>123.892</ele>
        <time>2020-11-03T18:30:10Z</time>
      </trkpt>
      <trkpt lat="41.862910" lon="2.690058">
        <ele>123.645</ele>
        <time>2020-11-03T18:30:11Z</time>
      </trkpt>
      <trkpt lat="41.862877" lon="2.690019">
        <ele>123.447</ele>
        <time>2020-11-03T18:30:12Z</time>
      </trkpt>
      <trkpt lat="41.862841" lon="2.689974">
        <ele>123.211</ele>
        <time>2020-11-03T18:30:13Z</time>
      </trkpt>
      <trkpt lat="41.862805" lon="2.689926">
        <ele>122.808</ele>
        <time>2020-11-03T18:30:14Z</time>
      </trkpt>
      <trkpt lat="41.862770" lon="2.689878">
        <ele>122.680</ele>
        <time>2020-11-03T18:30:15Z</time>
      </trkpt>
      <trkpt lat="41.862738" lon="2.689829">
        <ele>122.444</ele>
        <time>2020-11-03T18:30:16Z</time>
      </trkpt>
      <trkpt lat="41.862707" lon="2.689771">
        <ele>122.222</ele>
        <time>2020-11-03T18:30:17Z</time>
      </trkpt>
      <trkpt lat="41.862676" lon="2.689702">
        <ele>121.874</ele>
        <time>2020-11-03T18:30:18Z</time>
      </trkpt>
      <trkpt lat="41.862653" lon="2.689630">
        <ele>121.630</ele>
        <time>2020-11-03T18:30:19Z</time>
      </trkpt>
      <trkpt lat="41.862636" lon="2.689551">
        <ele>121.095</ele>
        <time>2020-11-03T18:30:20Z</time>
      </trkpt>
      <trkpt lat="41.862626" lon="2.689456">
        <ele>120.410</ele>
        <time>2020-11-03T18:30:21Z</time>
      </trkpt>
      <trkpt lat="41.862616" lon="2.689343">
        <ele>119.623</ele>
        <time>2020-11-03T18:30:22Z</time>
      </trkpt>
      <trkpt lat="41.862604" lon="2.689216">
        <ele>119.075</ele>
        <time>2020-11-03T18:30:23Z</time>
      </trkpt>
      <trkpt lat="41.862588" lon="2.689085">
        <ele>118.428</ele>
        <time>2020-11-03T18:30:24Z</time>
      </trkpt>
      <trkpt lat="41.862571" lon="2.688951">
        <ele>117.620</ele>
        <time>2020-11-03T18:30:25Z</time>
      </trkpt>
      <trkpt lat="41.862550" lon="2.688819">
        <ele>116.608</ele>
        <time>2020-11-03T18:30:26Z</time>
      </trkpt>
      <trkpt lat="41.862524" lon="2.688694">
        <ele>116.093</ele>
        <time>2020-11-03T18:30:27Z</time>
      </trkpt>
      <trkpt lat="41.862490" lon="2.688572">
        <ele>115.437</ele>
        <time>2020-11-03T18:30:28Z</time>
      </trkpt>
      <trkpt lat="41.862454" lon="2.688456">
        <ele>114.855</ele>
        <time>2020-11-03T18:30:29Z</time>
      </trkpt>
      <trkpt lat="41.862413" lon="2.688339">
        <ele>114.217</ele>
        <time>2020-11-03T18:30:30Z</time>
      </trkpt>
      <trkpt lat="41.862370" lon="2.688227">
        <ele>113.663</ele>
        <time>2020-11-03T18:30:31Z</time>
      </trkpt>
      <trkpt lat="41.862328" lon="2.688121">
        <ele>113.298</ele>
        <time>2020-11-03T18:30:32Z</time>
      </trkpt>
      <trkpt lat="41.862288" lon="2.688024">
        <ele>112.833</ele>
        <time>2020-11-03T18:30:33Z</time>
      </trkpt>
      <trkpt lat="41.862245" lon="2.687937">
        <ele>112.426</ele>
        <time>2020-11-03T18:30:34Z</time>
      </trkpt>
      <trkpt lat="41.862200" lon="2.687862">
        <ele>112.226</ele>
        <time>2020-11-03T18:30:35Z</time>
      </trkpt>
      <trkpt lat="41.862152" lon="2.687792">
        <ele>112.047</ele>
        <time>2020-11-03T18:30:36Z</time>
      </trkpt>
      <trkpt lat="41.862102" lon="2.687726">
        <ele>111.811</ele>
        <time>2020-11-03T18:30:37Z</time>
      </trkpt>
      <trkpt lat="41.862047" lon="2.687667">
        <ele>111.808</ele>
        <time>2020-11-03T18:30:38Z</time>
      </trkpt>
      <trkpt lat="41.861996" lon="2.687608">
        <ele>111.848</ele>
        <time>2020-11-03T18:30:39Z</time>
      </trkpt>
      <trkpt lat="41.861948" lon="2.687549">
        <ele>111.812</ele>
        <time>2020-11-03T18:30:40Z</time>
      </trkpt>
      <trkpt lat="41.861899" lon="2.687488">
        <ele>111.620</ele>
        <time>2020-11-03T18:30:41Z</time>
      </trkpt>
      <trkpt lat="41.861851" lon="2.687423">
        <ele>111.622</ele>
        <time>2020-11-03T18:30:42Z</time>
      </trkpt>
      <trkpt lat="41.861804" lon="2.687354">
        <ele>111.498</ele>
        <time>2020-11-03T18:30:43Z</time>
      </trkpt>
      <trkpt lat="41.861755" lon="2.687285">
        <ele>111.213</ele>
        <time>2020-11-03T18:30:44Z</time>
      </trkpt>
      <trkpt lat="41.861705" lon="2.687216">
        <ele>111.248</ele>
        <time>2020-11-03T18:30:45Z</time>
      </trkpt>
      <trkpt lat="41.861657" lon="2.687146">
        <ele>111.431</ele>
        <time>2020-11-03T18:30:46Z</time>
      </trkpt>
      <trkpt lat="41.861610" lon="2.687077">
        <ele>111.451</ele>
        <time>2020-11-03T18:30:47Z</time>
      </trkpt>
      <trkpt lat="41.861566" lon="2.687009">
        <ele>111.401</ele>
        <time>2020-11-03T18:30:48Z</time>
      </trkpt>
      <trkpt lat="41.861521" lon="2.686943">
        <ele>111.611</ele>
        <time>2020-11-03T18:30:49Z</time>
      </trkpt>
      <trkpt lat="41.861476" lon="2.686877">
        <ele>111.808</ele>
        <time>2020-11-03T18:30:50Z</time>
      </trkpt>
      <trkpt lat="41.861431" lon="2.686809">
        <ele>112.041</ele>
        <time>2020-11-03T18:30:51Z</time>
      </trkpt>
      <trkpt lat="41.861386" lon="2.686742">
        <ele>112.245</ele>
        <time>2020-11-03T18:30:52Z</time>
      </trkpt>
      <trkpt lat="41.861341" lon="2.686674">
        <ele>112.433</ele>
        <time>2020-11-03T18:30:53Z</time>
      </trkpt>
      <trkpt lat="41.861297" lon="2.686610">
        <ele>112.625</ele>
        <time>2020-11-03T18:30:54Z</time>
      </trkpt>
      <trkpt lat="41.861252" lon="2.686545">
        <ele>113.021</ele>
        <time>2020-11-03T18:30:55Z</time>
      </trkpt>
      <trkpt lat="41.861207" lon="2.686482">
        <ele>113.236</ele>
        <time>2020-11-03T18:30:56Z</time>
      </trkpt>
      <trkpt lat="41.861162" lon="2.686418">
        <ele>113.421</ele>
        <time>2020-11-03T18:30:57Z</time>
      </trkpt>
      <trkpt lat="41.861118" lon="2.686355">
        <ele>113.624</ele>
        <time>2020-11-03T18:30:58Z</time>
      </trkpt>
      <trkpt lat="41.861073" lon="2.686294">
        <ele>114.046</ele>
        <time>2020-11-03T18:30:59Z</time>
      </trkpt>
      <trkpt lat="41.861028" lon="2.686234">
        <ele>114.288</ele>
        <time>2020-11-03T18:31:00Z</time>
      </trkpt>
      <trkpt lat="41.860985" lon="2.686172">
        <ele>114.416</ele>
        <time>2020-11-03T18:31:01Z</time>
      </trkpt>
      <trkpt lat="41.860943" lon="2.686108">
        <ele>114.808</ele>
        <time>2020-11-03T18:31:02Z</time>
      </trkpt>
      <trkpt lat="41.860902" lon="2.686041">
        <ele>115.090</ele>
        <time>2020-11-03T18:31:03Z</time>
      </trkpt>
      <trkpt lat="41.860859" lon="2.685973">
        <ele>115.434</ele>
        <time>2020-11-03T18:31:04Z</time>
      </trkpt>
      <trkpt lat="41.860814" lon="2.685904">
        <ele>115.862</ele>
        <time>2020-11-03T18:31:05Z</time>
      </trkpt>
      <trkpt lat="41.860769" lon="2.685837">
        <ele>116.054</ele>
        <time>2020-11-03T18:31:06Z</time>
      </trkpt>
      <trkpt lat="41.860724" lon="2.685771">
        <ele>116.220</ele>
        <time>2020-11-03T18:31:07Z</time>
      </trkpt>
      <trkpt lat="41.860680" lon="2.685706">
        <ele>116.285</ele>
        <time>2020-11-03T18:31:08Z</time>
      </trkpt>
      <trkpt lat="41.860639" lon="2.685641">
        <ele>116.420</ele>
        <time>2020-11-03T18:31:09Z</time>
      </trkpt>
      <trkpt lat="41.860601" lon="2.685577">
        <ele>116.673</ele>
        <time>2020-11-03T18:31:10Z</time>
      </trkpt>
      <trkpt lat="41.860566" lon="2.685512">
        <ele>116.816</ele>
        <time>2020-11-03T18:31:11Z</time>
      </trkpt>
      <trkpt lat="41.860532" lon="2.685445">
        <ele>117.076</ele>
        <time>2020-11-03T18:31:12Z</time>
      </trkpt>
      <trkpt lat="41.860500" lon="2.685374">
        <ele>117.213</ele>
        <time>2020-11-03T18:31:13Z</time>
      </trkpt>
      <trkpt lat="41.860466" lon="2.685301">
        <ele>117.408</ele>
        <time>2020-11-03T18:31:14Z</time>
      </trkpt>
      <trkpt lat="41.860427" lon="2.685222">
        <ele>117.667</ele>
        <time>2020-11-03T18:31:15Z</time>
      </trkpt>
      <trkpt lat="41.860389" lon="2.685139">
        <ele>117.671</ele>
        <time>2020-11-03T18:31:16Z</time>
      </trkpt>
      <trkpt lat="41.860352" lon="2.685050">
        <ele>117.649</ele>
        <time>2020-11-03T18:31:17Z</time>
      </trkpt>
      <trkpt lat="41.860312" lon="2.684954">
        <ele>117.481</ele>
        <time>2020-11-03T18:31:18Z</time>
      </trkpt>
      <trkpt lat="41.860271" lon="2.684857">
        <ele>117.217</ele>
        <time>2020-11-03T18:31:19Z</time>
      </trkpt>
      <trkpt lat="41.860230" lon="2.684757">
        <ele>117.092</ele>
        <time>2020-11-03T18:31:20Z</time>
      </trkpt>
      <trkpt lat="41.860191" lon="2.684654">
        <ele>116.697</ele>
        <time>2020-11-03T18:31:21Z</time>
      </trkpt>
      <trkpt lat="41.860155" lon="2.684547">
        <ele>116.010</ele>
        <time>2020-11-03T18:31:22Z</time>
      </trkpt>
      <trkpt lat="41.860125" lon="2.684437">
        <ele>115.695</ele>
        <time>2020-11-03T18:31:23Z</time>
      </trkpt>
      <trkpt lat="41.860100" lon="2.684326">
        <ele>115.249</ele>
        <time>2020-11-03T18:31:24Z</time>
      </trkpt>
      <trkpt lat="41.860079" lon="2.684213">
        <ele>114.823</ele>
        <time>2020-11-03T18:31:25Z</time>
      </trkpt>
      <trkpt lat="41.860065" lon="2.684099">
        <ele>114.608</ele>
        <time>2020-11-03T18:31:26Z</time>
      </trkpt>
      <trkpt lat="41.860055" lon="2.683985">
        <ele>114.425</ele>
        <time>2020-11-03T18:31:27Z</time>
      </trkpt>
      <trkpt lat="41.860045" lon="2.683872">
        <ele>114.439</ele>
        <time>2020-11-03T18:31:28Z</time>
      </trkpt>
      <trkpt lat="41.860039" lon="2.683760">
        <ele>114.247</ele>
        <time>2020-11-03T18:31:29Z</time>
      </trkpt>
      <trkpt lat="41.860036" lon="2.683649">
        <ele>114.269</ele>
        <time>2020-11-03T18:31:30Z</time>
      </trkpt>
      <trkpt lat="41.860038" lon="2.683538">
        <ele>114.225</ele>
        <time>2020-11-03T18:31:31Z</time>
      </trkpt>
      <trkpt lat="41.860041" lon="2.683430">
        <ele>114.020</ele>
        <time>2020-11-03T18:31:32Z</time>
      </trkpt>
      <trkpt lat="41.860045" lon="2.683322">
        <ele>114.035</ele>
        <time>2020-11-03T18:31:33Z</time>
      </trkpt>
      <trkpt lat="41.860048" lon="2.683216">
        <ele>113.848</ele>
        <time>2020-11-03T18:31:34Z</time>
      </trkpt>
      <trkpt lat="41.860052" lon="2.683113">
        <ele>113.849</ele>
        <time>2020-11-03T18:31:35Z</time>
      </trkpt>
      <trkpt lat="41.860054" lon="2.683013">
        <ele>113.602</ele>
        <time>2020-11-03T18:31:36Z</time>
      </trkpt>
      <trkpt lat="41.860056" lon="2.682916">
        <ele>113.422</ele>
        <time>2020-11-03T18:31:37Z</time>
      </trkpt>
      <trkpt lat="41.860060" lon="2.682822">
        <ele>113.408</ele>
        <time>2020-11-03T18:31:38Z</time>
      </trkpt>
      <trkpt lat="41.860063" lon="2.682733">
        <ele>113.410</ele>
        <time>2020-11-03T18:31:39Z</time>
      </trkpt>
      <trkpt lat="41.860061" lon="2.682650">
        <ele>113.424</ele>
        <time>2020-11-03T18:31:40Z</time>
      </trkpt>
      <trkpt lat="41.860052" lon="2.682566">
        <ele>113.472</ele>
        <time>2020-11-03T18:31:41Z</time>
      </trkpt>
      <trkpt lat="41.860031" lon="2.682481">
        <ele>113.484</ele>
        <time>2020-11-03T18:31:42Z</time>
      </trkpt>
      <trkpt lat="41.860003" lon="2.682397">
        <ele>113.430</ele>
        <time>2020-11-03T18:31:43Z</time>
      </trkpt>
      <trkpt lat="41.859972" lon="2.682314">
        <ele>113.445</ele>
        <time>2020-11-03T18:31:44Z</time>
      </trkpt>
      <trkpt lat="41.859941" lon="2.682231">
        <ele>113.450</ele>
        <time>2020-11-03T18:31:45Z</time>
      </trkpt>
      <trkpt lat="41.859907" lon="2.682150">
        <ele>113.613</ele>
        <time>2020-11-03T18:31:46Z</time>
      </trkpt>
      <trkpt lat="41.859871" lon="2.682072">
        <ele>113.641</ele>
        <time>2020-11-03T18:31:47Z</time>
      </trkpt>
      <trkpt lat="41.859832" lon="2.681997">
        <ele>113.681</ele>
        <time>2020-11-03T18:31:48Z</time>
      </trkpt>
      <trkpt lat="41.859792" lon="2.681926">
        <ele>113.809</ele>
        <time>2020-11-03T18:31:49Z</time>
      </trkpt>
      <trkpt lat="41.859750" lon="2.681858">
        <ele>113.808</ele>
        <time>2020-11-03T18:31:50Z</time>
      </trkpt>
      <trkpt lat="41.859708" lon="2.681793">
        <ele>114.060</ele>
        <time>2020-11-03T18:31:51Z</time>
      </trkpt>
      <trkpt lat="41.859665" lon="2.681730">
        <ele>114.244</ele>
        <time>2020-11-03T18:31:52Z</time>
      </trkpt>
      <trkpt lat="41.859624" lon="2.681666">
        <ele>114.422</ele>
        <time>2020-11-03T18:31:53Z</time>
      </trkpt>
      <trkpt lat="41.859582" lon="2.681600">
        <ele>114.694</ele>
        <time>2020-11-03T18:31:54Z</time>
      </trkpt>
      <trkpt lat="41.859541" lon="2.681536">
        <ele>114.890</ele>
        <time>2020-11-03T18:31:55Z</time>
      </trkpt>
      <trkpt lat="41.859500" lon="2.681475">
        <ele>115.215</ele>
        <time>2020-11-03T18:31:56Z</time>
      </trkpt>
      <trkpt lat="41.859460" lon="2.681418">
        <ele>115.420</ele>
        <time>2020-11-03T18:31:57Z</time>
      </trkpt>
      <trkpt lat="41.859422" lon="2.681363">
        <ele>115.673</ele>
        <time>2020-11-03T18:31:58Z</time>
      </trkpt>
      <trkpt lat="41.859385" lon="2.681309">
        <ele>115.837</ele>
        <time>2020-11-03T18:31:59Z</time>
      </trkpt>
      <trkpt lat="41.859348" lon="2.681256">
        <ele>116.049</ele>
        <time>2020-11-03T18:32:00Z</time>
      </trkpt>
      <trkpt lat="41.859310" lon="2.681207">
        <ele>116.413</ele>
        <time>2020-11-03T18:32:01Z</time>
      </trkpt>
      <trkpt lat="41.859272" lon="2.681160">
        <ele>116.608</ele>
        <time>2020-11-03T18:32:02Z</time>
      </trkpt>
      <trkpt lat="41.859234" lon="2.681116">
        <ele>117.259</ele>
        <time>2020-11-03T18:32:03Z</time>
      </trkpt>
      <trkpt lat="41.859196" lon="2.681072">
        <ele>117.633</ele>
        <time>2020-11-03T18:32:04Z</time>
      </trkpt>
      <trkpt lat="41.859160" lon="2.681031">
        <ele>118.071</ele>
        <time>2020-11-03T18:32:05Z</time>
      </trkpt>
      <trkpt lat="41.859126" lon="2.680996">
        <ele>118.463</ele>
        <time>2020-11-03T18:32:06Z</time>
      </trkpt>
      <trkpt lat="41.859093" lon="2.680966">
        <ele>118.689</ele>
        <time>2020-11-03T18:32:07Z</time>
      </trkpt>
      <trkpt lat="41.859061" lon="2.680943">
        <ele>119.014</ele>
        <time>2020-11-03T18:32:08Z</time>
      </trkpt>
      <trkpt lat="41.859026" lon="2.680919">
        <ele>119.279</ele>
        <time>2020-11-03T18:32:09Z</time>
      </trkpt>
      <trkpt lat="41.858990" lon="2.680894">
        <ele>119.642</ele>
        <time>2020-11-03T18:32:10Z</time>
      </trkpt>
      <trkpt lat="41.858951" lon="2.680868">
        <ele>119.818</ele>
        <time>2020-11-03T18:32:11Z</time>
      </trkpt>
      <trkpt lat="41.858911" lon="2.680847">
        <ele>120.098</ele>
        <time>2020-11-03T18:32:12Z</time>
      </trkpt>
      <trkpt lat="41.858868" lon="2.680829">
        <ele>120.217</ele>
        <time>2020-11-03T18:32:13Z</time>
      </trkpt>
      <trkpt lat="41.858824" lon="2.680809">
        <ele>120.408</ele>
        <time>2020-11-03T18:32:14Z</time>
      </trkpt>
      <trkpt lat="41.858783" lon="2.680789">
        <ele>120.637</ele>
        <time>2020-11-03T18:32:15Z</time>
      </trkpt>
      <trkpt lat="41.858742" lon="2.680765">
        <ele>120.851</ele>
        <time>2020-11-03T18:32:16Z</time>
      </trkpt>
      <trkpt lat="41.858704" lon="2.680739">
        <ele>121.049</ele>
        <time>2020-11-03T18:32:17Z</time>
      </trkpt>
      <trkpt lat="41.858667" lon="2.680712">
        <ele>121.421</ele>
        <time>2020-11-03T18:32:18Z</time>
      </trkpt>
      <trkpt lat="41.858630" lon="2.680679">
        <ele>121.657</ele>
        <time>2020-11-03T18:32:19Z</time>
      </trkpt>
      <trkpt lat="41.858598" lon="2.680641">
        <ele>121.822</ele>
        <time>2020-11-03T18:32:20Z</time>
      </trkpt>
      <trkpt lat="41.858562" lon="2.680596">
        <ele>121.837</ele>
        <time>2020-11-03T18:32:21Z</time>
      </trkpt>
      <trkpt lat="41.858529" lon="2.680547">
        <ele>121.890</ele>
        <time>2020-11-03T18:32:22Z</time>
      </trkpt>
      <trkpt lat="41.858509" lon="2.680495">
        <ele>121.899</ele>
        <time>2020-11-03T18:32:23Z</time>
      </trkpt>
      <trkpt lat="41.858493" lon="2.680441">
        <ele>121.807</ele>
        <time>2020-11-03T18:32:24Z</time>
      </trkpt>
      <trkpt lat="41.858486" lon="2.680388">
        <ele>121.827</ele>
        <time>2020-11-03T18:32:25Z</time>
      </trkpt>
      <trkpt lat="41.858472" lon="2.680338">
        <ele>121.608</ele>
        <time>2020-11-03T18:32:26Z</time>
      </trkpt>
      <trkpt lat="41.858461" lon="2.680288">
        <ele>121.655</ele>
        <time>2020-11-03T18:32:27Z</time>
      </trkpt>
      <trkpt lat="41.858465" lon="2.680240">
        <ele>121.669</ele>
        <time>2020-11-03T18:32:28Z</time>
      </trkpt>
      <trkpt lat="41.858479" lon="2.680189">
        <ele>121.637</ele>
        <time>2020-11-03T18:32:29Z</time>
      </trkpt>
      <trkpt lat="41.858489" lon="2.680133">
        <ele>121.679</ele>
        <time>2020-11-03T18:32:30Z</time>
      </trkpt>
      <trkpt lat="41.858498" lon="2.680069">
        <ele>121.685</ele>
        <time>2020-11-03T18:32:31Z</time>
      </trkpt>
      <trkpt lat="41.858504" lon="2.680002">
        <ele>121.610</ele>
        <time>2020-11-03T18:32:32Z</time>
      </trkpt>
      <trkpt lat="41.858508" lon="2.679932">
        <ele>121.485</ele>
        <time>2020-11-03T18:32:33Z</time>
      </trkpt>
      <trkpt lat="41.858503" lon="2.679865">
        <ele>121.418</ele>
        <time>2020-11-03T18:32:34Z</time>
      </trkpt>
      <trkpt lat="41.858494" lon="2.679800">
        <ele>121.424</ele>
        <time>2020-11-03T18:32:35Z</time>
      </trkpt>
      <trkpt lat="41.858484" lon="2.679734">
        <ele>121.204</ele>
        <time>2020-11-03T18:32:36Z</time>
      </trkpt>
      <trkpt lat="41.858477" lon="2.679668">
        <ele>121.214</ele>
        <time>2020-11-03T18:32:37Z</time>
      </trkpt>
      <trkpt lat="41.858472" lon="2.679599">
        <ele>121.208</ele>
        <time>2020-11-03T18:32:38Z</time>
      </trkpt>
      <trkpt lat="41.858469" lon="2.679531">
        <ele>121.218</ele>
        <time>2020-11-03T18:32:39Z</time>
      </trkpt>
      <trkpt lat="41.858466" lon="2.679460">
        <ele>121.282</ele>
        <time>2020-11-03T18:32:40Z</time>
      </trkpt>
      <trkpt lat="41.858461" lon="2.679389">
        <ele>121.240</ele>
        <time>2020-11-03T18:32:41Z</time>
      </trkpt>
      <trkpt lat="41.858457" lon="2.679319">
        <ele>121.222</ele>
        <time>2020-11-03T18:32:42Z</time>
      </trkpt>
      <trkpt lat="41.858449" lon="2.679249">
        <ele>121.228</ele>
        <time>2020-11-03T18:32:43Z</time>
      </trkpt>
      <trkpt lat="41.858439" lon="2.679179">
        <ele>121.243</ele>
        <time>2020-11-03T18:32:44Z</time>
      </trkpt>
      <trkpt lat="41.858427" lon="2.679110">
        <ele>121.258</ele>
        <time>2020-11-03T18:32:45Z</time>
      </trkpt>
      <trkpt lat="41.858417" lon="2.679041">
        <ele>121.231</ele>
        <time>2020-11-03T18:32:46Z</time>
      </trkpt>
      <trkpt lat="41.858407" lon="2.678974">
        <ele>121.285</ele>
        <time>2020-11-03T18:32:47Z</time>
      </trkpt>
      <trkpt lat="41.858399" lon="2.678904">
        <ele>121.289</ele>
        <time>2020-11-03T18:32:48Z</time>
      </trkpt>
      <trkpt lat="41.858394" lon="2.678836">
        <ele>121.217</ele>
        <time>2020-11-03T18:32:49Z</time>
      </trkpt>
      <trkpt lat="41.858388" lon="2.678769">
        <ele>121.408</ele>
        <time>2020-11-03T18:32:50Z</time>
      </trkpt>
      <trkpt lat="41.858381" lon="2.678703">
        <ele>121.454</ele>
        <time>2020-11-03T18:32:51Z</time>
      </trkpt>
      <trkpt lat="41.858371" lon="2.678638">
        <ele>121.438</ele>
        <time>2020-11-03T18:32:52Z</time>
      </trkpt>
      <trkpt lat="41.858359" lon="2.678573">
        <ele>121.446</ele>
        <time>2020-11-03T18:32:53Z</time>
      </trkpt>
      <trkpt lat="41.858348" lon="2.678509">
        <ele>121.468</ele>
        <time>2020-11-03T18:32:54Z</time>
      </trkpt>
      <trkpt lat="41.858339" lon="2.678446">
        <ele>121.614</ele>
        <time>2020-11-03T18:32:55Z</time>
      </trkpt>
      <trkpt lat="41.858332" lon="2.678380">
        <ele>121.879</ele>
        <time>2020-11-03T18:32:56Z</time>
      </trkpt>
      <trkpt lat="41.858328" lon="2.678314">
        <ele>121.844</ele>
        <time>2020-11-03T18:32:57Z</time>
      </trkpt>
      <trkpt lat="41.858327" lon="2.678248">
        <ele>121.847</ele>
        <time>2020-11-03T18:32:58Z</time>
      </trkpt>
      <trkpt lat="41.858331" lon="2.678186">
        <ele>122.063</ele>
        <time>2020-11-03T18:32:59Z</time>
      </trkpt>
      <trkpt lat="41.858339" lon="2.678127">
        <ele>122.044</ele>
        <time>2020-11-03T18:33:00Z</time>
      </trkpt>
      <trkpt lat="41.858351" lon="2.678073">
        <ele>122.018</ele>
        <time>2020-11-03T18:33:01Z</time>
      </trkpt>
      <trkpt lat="41.858369" lon="2.678024">
        <ele>122.208</ele>
        <time>2020-11-03T18:33:02Z</time>
      </trkpt>
      <trkpt lat="41.858390" lon="2.677979">
        <ele>122.472</ele>
        <time>2020-11-03T18:33:03Z</time>
      </trkpt>
      <trkpt lat="41.858413" lon="2.677936">
        <ele>122.636</ele>
        <time>2020-11-03T18:33:04Z</time>
      </trkpt>
      <trkpt lat="41.858434" lon="2.677893">
        <ele>122.644</ele>
        <time>2020-11-03T18:33:05Z</time>
      </trkpt>
      <trkpt lat="41.858456" lon="2.677850">
        <ele>122.886</ele>
        <time>2020-11-03T18:33:06Z</time>
      </trkpt>
      <trkpt lat="41.858479" lon="2.677805">
        <ele>122.812</ele>
        <time>2020-11-03T18:33:07Z</time>
      </trkpt>
      <trkpt lat="41.858503" lon="2.677761">
        <ele>122.877</ele>
        <time>2020-11-03T18:33:08Z</time>
      </trkpt>
      <trkpt lat="41.858527" lon="2.677718">
        <ele>122.852</ele>
        <time>2020-11-03T18:33:09Z</time>
      </trkpt>
      <trkpt lat="41.858553" lon="2.677677">
        <ele>122.875</ele>
        <time>2020-11-03T18:33:10Z</time>
      </trkpt>
      <trkpt lat="41.858577" lon="2.677636">
        <ele>123.058</ele>
        <time>2020-11-03T18:33:11Z</time>
      </trkpt>
      <trkpt lat="41.858603" lon="2.677595">
        <ele>123.252</ele>
        <time>2020-11-03T18:33:12Z</time>
      </trkpt>
      <trkpt lat="41.858630" lon="2.677551">
        <ele>123.417</ele>
        <time>2020-11-03T18:33:13Z</time>
      </trkpt>
      <trkpt lat="41.858657" lon="2.677508">
        <ele>123.608</ele>
        <time>2020-11-03T18:33:14Z</time>
      </trkpt>
      <trkpt lat="41.858685" lon="2.677466">
        <ele>123.851</ele>
        <time>2020-11-03T18:33:15Z</time>
      </trkpt>
      <trkpt lat="41.858711" lon="2.677424">
        <ele>124.095</ele>
        <time>2020-11-03T18:33:16Z</time>
      </trkpt>
      <trkpt lat="41.858738" lon="2.677380">
        <ele>124.233</ele>
        <time>2020-11-03T18:33:17Z</time>
      </trkpt>
      <trkpt lat="41.858764" lon="2.677337">
        <ele>124.415</ele>
        <time>2020-11-03T18:33:18Z</time>
      </trkpt>
      <trkpt lat="41.858789" lon="2.677293">
        <ele>124.611</ele>
        <time>2020-11-03T18:33:19Z</time>
      </trkpt>
      <trkpt lat="41.858813" lon="2.677248">
        <ele>124.636</ele>
        <time>2020-11-03T18:33:20Z</time>
      </trkpt>
      <trkpt lat="41.858836" lon="2.677203">
        <ele>124.881</ele>
        <time>2020-11-03T18:33:21Z</time>
      </trkpt>
      <trkpt lat="41.858862" lon="2.677161">
        <ele>124.854</ele>
        <time>2020-11-03T18:33:22Z</time>
      </trkpt>
      <trkpt lat="41.858887" lon="2.677118">
        <ele>125.032</ele>
        <time>2020-11-03T18:33:23Z</time>
      </trkpt>
      <trkpt lat="41.858913" lon="2.677074">
        <ele>125.092</ele>
        <time>2020-11-03T18:33:24Z</time>
      </trkpt>
      <trkpt lat="41.858937" lon="2.677029">
        <ele>125.211</ele>
        <time>2020-11-03T18:33:25Z</time>
      </trkpt>
      <trkpt lat="41.858963" lon="2.676984">
        <ele>125.408</ele>
        <time>2020-11-03T18:33:26Z</time>
      </trkpt>
      <trkpt lat="41.858987" lon="2.676939">
        <ele>125.419</ele>
        <time>2020-11-03T18:33:27Z</time>
      </trkpt>
      <trkpt lat="41.859010" lon="2.676893">
        <ele>125.683</ele>
        <time>2020-11-03T18:33:28Z</time>
      </trkpt>
      <trkpt lat="41.859035" lon="2.676849">
        <ele>125.851</ele>
        <time>2020-11-03T18:33:29Z</time>
      </trkpt>
      <trkpt lat="41.859061" lon="2.676806">
        <ele>126.083</ele>
        <time>2020-11-03T18:33:30Z</time>
      </trkpt>
      <trkpt lat="41.859087" lon="2.676764">
        <ele>126.489</ele>
        <time>2020-11-03T18:33:31Z</time>
      </trkpt>
      <trkpt lat="41.859115" lon="2.676719">
        <ele>126.494</ele>
        <time>2020-11-03T18:33:32Z</time>
      </trkpt>
      <trkpt lat="41.859141" lon="2.676673">
        <ele>126.689</ele>
        <time>2020-11-03T18:33:33Z</time>
      </trkpt>
      <trkpt lat="41.859165" lon="2.676627">
        <ele>126.842</ele>
        <time>2020-11-03T18:33:34Z</time>
      </trkpt>
      <trkpt lat="41.859186" lon="2.676580">
        <ele>127.232</ele>
        <time>2020-11-03T18:33:35Z</time>
      </trkpt>
      <trkpt lat="41.859206" lon="2.676531">
        <ele>127.492</ele>
        <time>2020-11-03T18:33:36Z</time>
      </trkpt>
      <trkpt lat="41.859228" lon="2.676482">
        <ele>127.611</ele>
        <time>2020-11-03T18:33:37Z</time>
      </trkpt>
      <trkpt lat="41.859252" lon="2.676433">
        <ele>127.608</ele>
        <time>2020-11-03T18:33:38Z</time>
      </trkpt>
      <trkpt lat="41.859273" lon="2.676384">
        <ele>127.889</ele>
        <time>2020-11-03T18:33:39Z</time>
      </trkpt>
      <trkpt lat="41.859294" lon="2.676333">
        <ele>128.023</ele>
        <time>2020-11-03T18:33:40Z</time>
      </trkpt>
      <trkpt lat="41.859316" lon="2.676282">
        <ele>128.221</ele>
        <time>2020-11-03T18:33:41Z</time>
      </trkpt>
      <trkpt lat="41.859340" lon="2.676230">
        <ele>128.453</ele>
        <time>2020-11-03T18:33:42Z</time>
      </trkpt>
      <trkpt lat="41.859363" lon="2.676179">
        <ele>128.659</ele>
        <time>2020-11-03T18:33:43Z</time>
      </trkpt>
      <trkpt lat="41.859385" lon="2.676128">
        <ele>128.814</ele>
        <time>2020-11-03T18:33:44Z</time>
      </trkpt>
      <trkpt lat="41.859406" lon="2.676076">
        <ele>128.879</ele>
        <time>2020-11-03T18:33:45Z</time>
      </trkpt>
      <trkpt lat="41.859429" lon="2.676026">
        <ele>129.052</ele>
        <time>2020-11-03T18:33:46Z</time>
      </trkpt>
      <trkpt lat="41.859449" lon="2.675973">
        <ele>129.046</ele>
        <time>2020-11-03T18:33:47Z</time>
      </trkpt>
      <trkpt lat="41.859467" lon="2.675920">
        <ele>129.288</ele>
        <time>2020-11-03T18:33:48Z</time>
      </trkpt>
      <trkpt lat="41.859484" lon="2.675868">
        <ele>129.216</ele>
        <time>2020-11-03T18:33:49Z</time>
      </trkpt>
      <trkpt lat="41.859501" lon="2.675817">
        <ele>129.408</ele>
        <time>2020-11-03T18:33:50Z</time>
      </trkpt>
      <trkpt lat="41.859517" lon="2.675764">
        <ele>129.630</ele>
        <time>2020-11-03T18:33:51Z</time>
      </trkpt>
      <trkpt lat="41.859533" lon="2.675707">
        <ele>129.874</ele>
        <time>2020-11-03T18:33:52Z</time>
      </trkpt>
      <trkpt lat="41.859546" lon="2.675653">
        <ele>130.052</ele>
        <time>2020-11-03T18:33:53Z</time>
      </trkpt>
      <trkpt lat="41.859559" lon="2.675598">
        <ele>130.274</ele>
        <time>2020-11-03T18:33:54Z</time>
      </trkpt>
      <trkpt lat="41.859573" lon="2.675547">
        <ele>130.410</ele>
        <time>2020-11-03T18:33:55Z</time>
      </trkpt>
      <trkpt lat="41.859586" lon="2.675495">
        <ele>130.895</ele>
        <time>2020-11-03T18:33:56Z</time>
      </trkpt>
      <trkpt lat="41.859597" lon="2.675446">
        <ele>131.050</ele>
        <time>2020-11-03T18:33:57Z</time>
      </trkpt>
      <trkpt lat="41.859603" lon="2.675399">
        <ele>131.283</ele>
        <time>2020-11-03T18:33:58Z</time>
      </trkpt>
      <trkpt lat="41.859609" lon="2.675348">
        <ele>131.493</ele>
        <time>2020-11-03T18:33:59Z</time>
      </trkpt>
      <trkpt lat="41.859616" lon="2.675295">
        <ele>131.665</ele>
        <time>2020-11-03T18:34:00Z</time>
      </trkpt>
      <trkpt lat="41.859622" lon="2.675240">
        <ele>132.021</ele>
        <time>2020-11-03T18:34:01Z</time>
      </trkpt>
      <trkpt lat="41.859625" lon="2.675186">
        <ele>132.208</ele>
        <time>2020-11-03T18:34:02Z</time>
      </trkpt>
      <trkpt lat="41.859625" lon="2.675130">
        <ele>132.655</ele>
        <time>2020-11-03T18:34:03Z</time>
      </trkpt>
      <trkpt lat="41.859625" lon="2.675075">
        <ele>132.849</ele>
        <time>2020-11-03T18:34:04Z</time>
      </trkpt>
      <trkpt lat="41.859625" lon="2.675020">
        <ele>133.067</ele>
        <time>2020-11-03T18:34:05Z</time>
      </trkpt>
      <trkpt lat="41.859626" lon="2.674963">
        <ele>133.259</ele>
        <time>2020-11-03T18:34:06Z</time>
      </trkpt>
      <trkpt lat="41.859633" lon="2.674909">
        <ele>133.865</ele>
        <time>2020-11-03T18:34:07Z</time>
      </trkpt>
      <trkpt lat="41.859640" lon="2.674856">
        <ele>134.260</ele>
        <time>2020-11-03T18:34:08Z</time>
      </trkpt>
      <trkpt lat="41.859648" lon="2.674805">
        <ele>134.615</ele>
        <time>2020-11-03T18:34:09Z</time>
      </trkpt>
      <trkpt lat="41.859659" lon="2.674752">
        <ele>135.018</ele>
        <time>2020-11-03T18:34:10Z</time>
      </trkpt>
      <trkpt lat="41.859671" lon="2.674696">
        <ele>135.639</ele>
        <time>2020-11-03T18:34:11Z</time>
      </trkpt>
      <trkpt lat="41.859683" lon="2.674639">
        <ele>136.001</ele>
        <time>2020-11-03T18:34:12Z</time>
      </trkpt>
      <trkpt lat="41.859701" lon="2.674587">
        <ele>136.221</ele>
        <time>2020-11-03T18:34:13Z</time>
      </trkpt>
      <trkpt lat="41.859721" lon="2.674536">
        <ele>136.808</ele>
        <time>2020-11-03T18:34:14Z</time>
      </trkpt>
      <trkpt lat="41.859742" lon="2.674484">
        <ele>137.289</ele>
        <time>2020-11-03T18:34:15Z</time>
      </trkpt>
      <trkpt lat="41.859763" lon="2.674432">
        <ele>137.483</ele>
        <time>2020-11-03T18:34:16Z</time>
      </trkpt>
      <trkpt lat="41.859784" lon="2.674380">
        <ele>137.621</ele>
        <time>2020-11-03T18:34:17Z</time>
      </trkpt>
      <trkpt lat="41.859804" lon="2.674329">
        <ele>137.883</ele>
        <time>2020-11-03T18:34:18Z</time>
      </trkpt>
      <trkpt lat="41.859826" lon="2.674277">
        <ele>138.039</ele>
        <time>2020-11-03T18:34:19Z</time>
      </trkpt>
      <trkpt lat="41.859846" lon="2.674224">
        <ele>138.224</ele>
        <time>2020-11-03T18:34:20Z</time>
      </trkpt>
      <trkpt lat="41.859867" lon="2.674172">
        <ele>138.489</ele>
        <time>2020-11-03T18:34:21Z</time>
      </trkpt>
      <trkpt lat="41.859888" lon="2.674119">
        <ele>138.622</ele>
        <time>2020-11-03T18:34:22Z</time>
      </trkpt>
      <trkpt lat="41.859906" lon="2.674065">
        <ele>138.636</ele>
        <time>2020-11-03T18:34:23Z</time>
      </trkpt>
      <trkpt lat="41.859924" lon="2.674010">
        <ele>139.017</ele>
        <time>2020-11-03T18:34:24Z</time>
      </trkpt>
      <trkpt lat="41.859940" lon="2.673957">
        <ele>139.218</ele>
        <time>2020-11-03T18:34:25Z</time>
      </trkpt>
      <trkpt lat="41.859957" lon="2.673903">
        <ele>139.408</ele>
        <time>2020-11-03T18:34:26Z</time>
      </trkpt>
      <trkpt lat="41.859975" lon="2.673852">
        <ele>139.699</ele>
        <time>2020-11-03T18:34:27Z</time>
      </trkpt>
      <trkpt lat="41.859993" lon="2.673800">
        <ele>139.623</ele>
        <time>2020-11-03T18:34:28Z</time>
      </trkpt>
      <trkpt lat="41.860012" lon="2.673748">
        <ele>139.831</ele>
        <time>2020-11-03T18:34:29Z</time>
      </trkpt>
      <trkpt lat="41.860030" lon="2.673696">
        <ele>139.823</ele>
        <time>2020-11-03T18:34:30Z</time>
      </trkpt>
      <trkpt lat="41.860047" lon="2.673644">
        <ele>140.069</ele>
        <time>2020-11-03T18:34:31Z</time>
      </trkpt>
      <trkpt lat="41.860063" lon="2.673592">
        <ele>140.034</ele>
        <time>2020-11-03T18:34:32Z</time>
      </trkpt>
      <trkpt lat="41.860081" lon="2.673540">
        <ele>140.279</ele>
        <time>2020-11-03T18:34:33Z</time>
      </trkpt>
      <trkpt lat="41.860098" lon="2.673488">
        <ele>140.232</ele>
        <time>2020-11-03T18:34:34Z</time>
      </trkpt>
      <trkpt lat="41.860113" lon="2.673436">
        <ele>140.224</ele>
        <time>2020-11-03T18:34:35Z</time>
      </trkpt>
      <trkpt lat="41.860125" lon="2.673384">
        <ele>140.404</ele>
        <time>2020-11-03T18:34:36Z</time>
      </trkpt>
      <trkpt lat="41.860137" lon="2.673330">
        <ele>140.414</ele>
        <time>2020-11-03T18:34:37Z</time>
      </trkpt>
      <trkpt lat="41.860152" lon="2.673278">
        <ele>140.608</ele>
        <time>2020-11-03T18:34:38Z</time>
      </trkpt>
      <trkpt lat="41.860170" lon="2.673227">
        <ele>140.858</ele>
        <time>2020-11-03T18:34:39Z</time>
      </trkpt>
      <trkpt lat="41.860192" lon="2.673178">
        <ele>140.882</ele>
        <time>2020-11-03T18:34:40Z</time>
      </trkpt>
      <trkpt lat="41.860216" lon="2.673129">
        <ele>141.020</ele>
        <time>2020-11-03T18:34:41Z</time>
      </trkpt>
      <trkpt lat="41.860238" lon="2.673078">
        <ele>141.092</ele>
        <time>2020-11-03T18:34:42Z</time>
      </trkpt>
      <trkpt lat="41.860258" lon="2.673024">
        <ele>141.058</ele>
        <time>2020-11-03T18:34:43Z</time>
      </trkpt>
      <trkpt lat="41.860276" lon="2.672967">
        <ele>141.033</ele>
        <time>2020-11-03T18:34:44Z</time>
      </trkpt>
      <trkpt lat="41.860293" lon="2.672909">
        <ele>141.068</ele>
        <time>2020-11-03T18:34:45Z</time>
      </trkpt>
      <trkpt lat="41.860313" lon="2.672850">
        <ele>141.031</ele>
        <time>2020-11-03T18:34:46Z</time>
      </trkpt>
      <trkpt lat="41.860334" lon="2.672788">
        <ele>141.055</ele>
        <time>2020-11-03T18:34:47Z</time>
      </trkpt>
      <trkpt lat="41.860353" lon="2.672722">
        <ele>141.007</ele>
        <time>2020-11-03T18:34:48Z</time>
      </trkpt>
      <trkpt lat="41.860367" lon="2.672654">
        <ele>141.017</ele>
        <time>2020-11-03T18:34:49Z</time>
      </trkpt>
      <trkpt lat="41.860382" lon="2.672584">
        <ele>140.808</ele>
        <time>2020-11-03T18:34:50Z</time>
      </trkpt>
      <trkpt lat="41.860401" lon="2.672515">
        <ele>140.871</ele>
        <time>2020-11-03T18:34:51Z</time>
      </trkpt>
      <trkpt lat="41.860420" lon="2.672447">
        <ele>140.675</ele>
        <time>2020-11-03T18:34:52Z</time>
      </trkpt>
      <trkpt lat="41.860433" lon="2.672376">
        <ele>140.493</ele>
        <time>2020-11-03T18:34:53Z</time>
      </trkpt>
      <trkpt lat="41.860446" lon="2.672300">
        <ele>140.485</ele>
        <time>2020-11-03T18:34:54Z</time>
      </trkpt>
      <trkpt lat="41.860457" lon="2.672222">
        <ele>140.251</ele>
        <time>2020-11-03T18:34:55Z</time>
      </trkpt>
      <trkpt lat="41.860469" lon="2.672140">
        <ele>140.086</ele>
        <time>2020-11-03T18:34:56Z</time>
      </trkpt>
      <trkpt lat="41.860479" lon="2.672056">
        <ele>139.641</ele>
        <time>2020-11-03T18:34:57Z</time>
      </trkpt>
      <trkpt lat="41.860483" lon="2.671964">
        <ele>139.454</ele>
        <time>2020-11-03T18:34:58Z</time>
      </trkpt>
      <trkpt lat="41.860486" lon="2.671872">
        <ele>139.275</ele>
        <time>2020-11-03T18:34:59Z</time>
      </trkpt>
      <trkpt lat="41.860491" lon="2.671779">
        <ele>139.028</ele>
        <time>2020-11-03T18:35:00Z</time>
      </trkpt>
      <trkpt lat="41.860502" lon="2.671692">
        <ele>138.820</ele>
        <time>2020-11-03T18:35:01Z</time>
      </trkpt>
      <trkpt lat="41.860509" lon="2.671604">
        <ele>138.408</ele>
        <time>2020-11-03T18:35:02Z</time>
      </trkpt>
      <trkpt lat="41.860506" lon="2.671517">
        <ele>138.233</ele>
        <time>2020-11-03T18:35:03Z</time>
      </trkpt>
      <trkpt lat="41.860497" lon="2.671436">
        <ele>138.027</ele>
        <time>2020-11-03T18:35:04Z</time>
      </trkpt>
      <trkpt lat="41.860477" lon="2.671357">
        <ele>137.835</ele>
        <time>2020-11-03T18:35:05Z</time>
      </trkpt>
      <trkpt lat="41.860450" lon="2.671286">
        <ele>137.687</ele>
        <time>2020-11-03T18:35:06Z</time>
      </trkpt>
      <trkpt lat="41.860424" lon="2.671233">
        <ele>137.253</ele>
        <time>2020-11-03T18:35:07Z</time>
      </trkpt>
      <trkpt lat="41.860396" lon="2.671196">
        <ele>137.028</ele>
        <time>2020-11-03T18:35:08Z</time>
      </trkpt>
      <trkpt lat="41.860363" lon="2.671173">
        <ele>136.883</ele>
        <time>2020-11-03T18:35:09Z</time>
      </trkpt>
      <trkpt lat="41.860325" lon="2.671162">
        <ele>136.446</ele>
        <time>2020-11-03T18:35:10Z</time>
      </trkpt>
      <trkpt lat="41.860286" lon="2.671170">
        <ele>136.049</ele>
        <time>2020-11-03T18:35:11Z</time>
      </trkpt>
      <trkpt lat="41.860247" lon="2.671194">
        <ele>135.802</ele>
        <time>2020-11-03T18:35:12Z</time>
      </trkpt>
      <trkpt lat="41.860210" lon="2.671227">
        <ele>135.622</ele>
        <time>2020-11-03T18:35:13Z</time>
      </trkpt>
      <trkpt lat="41.860176" lon="2.671268">
        <ele>135.408</ele>
        <time>2020-11-03T18:35:14Z</time>
      </trkpt>
      <trkpt lat="41.860143" lon="2.671312">
        <ele>135.220</ele>
        <time>2020-11-03T18:35:15Z</time>
      </trkpt>
      <trkpt lat="41.860111" lon="2.671358">
        <ele>135.284</ele>
        <time>2020-11-03T18:35:16Z</time>
      </trkpt>
      <trkpt lat="41.860078" lon="2.671404">
        <ele>135.092</ele>
        <time>2020-11-03T18:35:17Z</time>
      </trkpt>
      <trkpt lat="41.860044" lon="2.671452">
        <ele>134.824</ele>
        <time>2020-11-03T18:35:18Z</time>
      </trkpt>
      <trkpt lat="41.860011" lon="2.671500">
        <ele>134.850</ele>
        <time>2020-11-03T18:35:19Z</time>
      </trkpt>
      <trkpt lat="41.859980" lon="2.671551">
        <ele>134.615</ele>
        <time>2020-11-03T18:35:20Z</time>
      </trkpt>
      <trkpt lat="41.859948" lon="2.671602">
        <ele>134.620</ele>
        <time>2020-11-03T18:35:21Z</time>
      </trkpt>
      <trkpt lat="41.859915" lon="2.671651">
        <ele>134.653</ele>
        <time>2020-11-03T18:35:22Z</time>
      </trkpt>
      <trkpt lat="41.859879" lon="2.671701">
        <ele>134.459</ele>
        <time>2020-11-03T18:35:23Z</time>
      </trkpt>
      <trkpt lat="41.859842" lon="2.671753">
        <ele>134.203</ele>
        <time>2020-11-03T18:35:24Z</time>
      </trkpt>
      <trkpt lat="41.859805" lon="2.671806">
        <ele>134.223</ele>
        <time>2020-11-03T18:35:25Z</time>
      </trkpt>
      <trkpt lat="41.859766" lon="2.671861">
        <ele>134.208</ele>
        <time>2020-11-03T18:35:26Z</time>
      </trkpt>
      <trkpt lat="41.859725" lon="2.671915">
        <ele>134.061</ele>
        <time>2020-11-03T18:35:27Z</time>
      </trkpt>
      <trkpt lat="41.859682" lon="2.671967">
        <ele>134.055</ele>
        <time>2020-11-03T18:35:28Z</time>
      </trkpt>
      <trkpt lat="41.859637" lon="2.672013">
        <ele>133.833</ele>
        <time>2020-11-03T18:35:29Z</time>
      </trkpt>
      <trkpt lat="41.859594" lon="2.672061">
        <ele>133.835</ele>
        <time>2020-11-03T18:35:30Z</time>
      </trkpt>
      <trkpt lat="41.859554" lon="2.672108">
        <ele>133.811</ele>
        <time>2020-11-03T18:35:31Z</time>
      </trkpt>
      <trkpt lat="41.859510" lon="2.672148">
        <ele>133.626</ele>
        <time>2020-11-03T18:35:32Z</time>
      </trkpt>
      <trkpt lat="41.859462" lon="2.672188">
        <ele>133.641</ele>
        <time>2020-11-03T18:35:33Z</time>
      </trkpt>
      <trkpt lat="41.859409" lon="2.672225">
        <ele>133.444</ele>
        <time>2020-11-03T18:35:34Z</time>
      </trkpt>
      <trkpt lat="41.859354" lon="2.672263">
        <ele>133.283</ele>
        <time>2020-11-03T18:35:35Z</time>
      </trkpt>
      <trkpt lat="41.859302" lon="2.672309">
        <ele>133.025</ele>
        <time>2020-11-03T18:35:36Z</time>
      </trkpt>
      <trkpt lat="41.859255" lon="2.672368">
        <ele>132.817</ele>
        <time>2020-11-03T18:35:37Z</time>
      </trkpt>
      <trkpt lat="41.859214" lon="2.672432">
        <ele>132.608</ele>
        <time>2020-11-03T18:35:38Z</time>
      </trkpt>
      <trkpt lat="41.859176" lon="2.672501">
        <ele>132.444</ele>
        <time>2020-11-03T18:35:39Z</time>
      </trkpt>
      <trkpt lat="41.859139" lon="2.672574">
        <ele>132.288</ele>
        <time>2020-11-03T18:35:40Z</time>
      </trkpt>
      <trkpt lat="41.859102" lon="2.672648">
        <ele>132.036</ele>
        <time>2020-11-03T18:35:41Z</time>
      </trkpt>
      <trkpt lat="41.859068" lon="2.672723">
        <ele>132.028</ele>
        <time>2020-11-03T18:35:42Z</time>
      </trkpt>
      <trkpt lat="41.859037" lon="2.672799">
        <ele>131.814</ele>
        <time>2020-11-03T18:35:43Z</time>
      </trkpt>
      <trkpt lat="41.859008" lon="2.672873">
        <ele>131.819</ele>
        <time>2020-11-03T18:35:44Z</time>
      </trkpt>
      <trkpt lat="41.858982" lon="2.672946">
        <ele>132.044</ele>
        <time>2020-11-03T18:35:45Z</time>
      </trkpt>
      <trkpt lat="41.858957" lon="2.673018">
        <ele>132.067</ele>
        <time>2020-11-03T18:35:46Z</time>
      </trkpt>
      <trkpt lat="41.858930" lon="2.673090">
        <ele>132.028</ele>
        <time>2020-11-03T18:35:47Z</time>
      </trkpt>
      <trkpt lat="41.858903" lon="2.673160">
        <ele>132.289</ele>
        <time>2020-11-03T18:35:48Z</time>
      </trkpt>
      <trkpt lat="41.858877" lon="2.673231">
        <ele>132.417</ele>
        <time>2020-11-03T18:35:49Z</time>
      </trkpt>
      <trkpt lat="41.858853" lon="2.673301">
        <ele>132.608</ele>
        <time>2020-11-03T18:35:50Z</time>
      </trkpt>
      <trkpt lat="41.858826" lon="2.673370">
        <ele>132.868</ele>
        <time>2020-11-03T18:35:51Z</time>
      </trkpt>
      <trkpt lat="41.858797" lon="2.673437">
        <ele>133.252</ele>
        <time>2020-11-03T18:35:52Z</time>
      </trkpt>
      <trkpt lat="41.858771" lon="2.673504">
        <ele>133.490</ele>
        <time>2020-11-03T18:35:53Z</time>
      </trkpt>
      <trkpt lat="41.858753" lon="2.673573">
        <ele>133.692</ele>
        <time>2020-11-03T18:35:54Z</time>
      </trkpt>
      <trkpt lat="41.858735" lon="2.673640">
        <ele>133.878</ele>
        <time>2020-11-03T18:35:55Z</time>
      </trkpt>
      <trkpt lat="41.858726" lon="2.673704">
        <ele>134.063</ele>
        <time>2020-11-03T18:35:56Z</time>
      </trkpt>
      <trkpt lat="41.858732" lon="2.673763">
        <ele>134.428</ele>
        <time>2020-11-03T18:35:57Z</time>
      </trkpt>
      <trkpt lat="41.858754" lon="2.673810">
        <ele>134.651</ele>
        <time>2020-11-03T18:35:58Z</time>
      </trkpt>
      <trkpt lat="41.858788" lon="2.673844">
        <ele>135.098</ele>
        <time>2020-11-03T18:35:59Z</time>
      </trkpt>
      <trkpt lat="41.858828" lon="2.673867">
        <ele>135.415</ele>
        <time>2020-11-03T18:36:00Z</time>
      </trkpt>
      <trkpt lat="41.858869" lon="2.673883">
        <ele>135.826</ele>
        <time>2020-11-03T18:36:01Z</time>
      </trkpt>
      <trkpt lat="41.858909" lon="2.673898">
        <ele>136.208</ele>
        <time>2020-11-03T18:36:02Z</time>
      </trkpt>
      <trkpt lat="41.858946" lon="2.673915">
        <ele>136.635</ele>
        <time>2020-11-03T18:36:03Z</time>
      </trkpt>
      <trkpt lat="41.858983" lon="2.673932">
        <ele>136.869</ele>
        <time>2020-11-03T18:36:04Z</time>
      </trkpt>
      <trkpt lat="41.859021" lon="2.673937">
        <ele>137.217</ele>
        <time>2020-11-03T18:36:05Z</time>
      </trkpt>
      <trkpt lat="41.859054" lon="2.673927">
        <ele>137.689</ele>
        <time>2020-11-03T18:36:06Z</time>
      </trkpt>
      <trkpt lat="41.859081" lon="2.673903">
        <ele>138.045</ele>
        <time>2020-11-03T18:36:07Z</time>
      </trkpt>
      <trkpt lat="41.859101" lon="2.673871">
        <ele>138.440</ele>
        <time>2020-11-03T18:36:08Z</time>
      </trkpt>
      <trkpt lat="41.859118" lon="2.673832">
        <ele>138.815</ele>
        <time>2020-11-03T18:36:09Z</time>
      </trkpt>
      <trkpt lat="41.859133" lon="2.673793">
        <ele>139.028</ele>
        <time>2020-11-03T18:36:10Z</time>
      </trkpt>
      <trkpt lat="41.859147" lon="2.673755">
        <ele>139.276</ele>
        <time>2020-11-03T18:36:11Z</time>
      </trkpt>
      <trkpt lat="41.859163" lon="2.673715">
        <ele>139.290</ele>
        <time>2020-11-03T18:36:12Z</time>
      </trkpt>
      <trkpt lat="41.859174" lon="2.673675">
        <ele>139.219</ele>
        <time>2020-11-03T18:36:13Z</time>
      </trkpt>
      <trkpt lat="41.859185" lon="2.673633">
        <ele>139.208</ele>
        <time>2020-11-03T18:36:14Z</time>
      </trkpt>
      <trkpt lat="41.859198" lon="2.673591">
        <ele>139.263</ele>
        <time>2020-11-03T18:36:15Z</time>
      </trkpt>
      <trkpt lat="41.859213" lon="2.673547">
        <ele>139.277</ele>
        <time>2020-11-03T18:36:16Z</time>
      </trkpt>
      <trkpt lat="41.859230" lon="2.673501">
        <ele>139.095</ele>
        <time>2020-11-03T18:36:17Z</time>
      </trkpt>
      <trkpt lat="41.859245" lon="2.673453">
        <ele>139.077</ele>
        <time>2020-11-03T18:36:18Z</time>
      </trkpt>
      <trkpt lat="41.859261" lon="2.673404">
        <ele>139.053</ele>
        <time>2020-11-03T18:36:19Z</time>
      </trkpt>
      <trkpt lat="41.859278" lon="2.673357">
        <ele>139.048</ele>
        <time>2020-11-03T18:36:20Z</time>
      </trkpt>
      <trkpt lat="41.859295" lon="2.673320">
        <ele>138.823</ele>
        <time>2020-11-03T18:36:21Z</time>
      </trkpt>
      <trkpt lat="41.859312" lon="2.673299">
        <ele>138.656</ele>
        <time>2020-11-03T18:36:22Z</time>
      </trkpt>
      <trkpt lat="41.859329" lon="2.673287">
        <ele>138.632</ele>
        <time>2020-11-03T18:36:23Z</time>
      </trkpt>
      <trkpt lat="41.859337" lon="2.673284">
        <ele>138.492</ele>
        <time>2020-11-03T18:36:24Z</time>
      </trkpt>
      <trkpt lat="41.858682" lon="2.661397">
        <ele>133.626</ele>
        <time>2020-07-26T05:11:30Z</time>
      </trkpt>
      <trkpt lat="41.858654" lon="2.661347">
        <ele>133.647</ele>
        <time>2020-07-26T05:11:31Z</time>
      </trkpt>
      <trkpt lat="41.858622" lon="2.661298">
        <ele>133.311</ele>
        <time>2020-07-26T05:11:32Z</time>
      </trkpt>
      <trkpt lat="41.858592" lon="2.661246">
        <ele>133.308</ele>
        <time>2020-07-26T05:11:33Z</time>
      </trkpt>
      <trkpt lat="41.858560" lon="2.661194">
        <ele>133.117</ele>
        <time>2020-07-26T05:11:34Z</time>
      </trkpt>
      <trkpt lat="41.858529" lon="2.661137">
        <ele>133.155</ele>
        <time>2020-07-26T05:11:35Z</time>
      </trkpt>
      <trkpt lat="41.858494" lon="2.661080">
        <ele>133.078</ele>
        <time>2020-07-26T05:11:36Z</time>
      </trkpt>
      <trkpt lat="41.858458" lon="2.661023">
        <ele>132.883</ele>
        <time>2020-07-26T05:11:37Z</time>
      </trkpt>
      <trkpt lat="41.858422" lon="2.660965">
        <ele>135.621</ele>
        <time>2020-07-26T05:11:38Z</time>
      </trkpt>
      <trkpt lat="41.858388" lon="2.660904">
        <ele>135.684</ele>
        <time>2020-07-26T05:11:39Z</time>
      </trkpt>
      <trkpt lat="41.858352" lon="2.660842">
        <ele>135.448</ele>
        <time>2020-07-26T05:11:40Z</time>
      </trkpt>
      <trkpt lat="41.858319" lon="2.660779">
        <ele>135.324</ele>
        <time>2020-07-26T05:11:41Z</time>
      </trkpt>
      <trkpt lat="41.858287" lon="2.660717">
        <ele>135.394</ele>
        <time>2020-07-26T05:11:42Z</time>
      </trkpt>
      <trkpt lat="41.858255" lon="2.660658">
        <ele>135.257</ele>
        <time>2020-07-26T05:11:43Z</time>
      </trkpt>
      <trkpt lat="41.858225" lon="2.660598">
        <ele>135.022</ele>
        <time>2020-07-26T05:11:44Z</time>
      </trkpt>
      <trkpt lat="41.858192" lon="2.660542">
        <ele>134.808</ele>
        <time>2020-07-26T05:11:45Z</time>
      </trkpt>
      <trkpt lat="41.858156" lon="2.660492">
        <ele>134.694</ele>
        <time>2020-07-26T05:11:46Z</time>
      </trkpt>
      <trkpt lat="41.858125" lon="2.660440">
        <ele>134.682</ele>
        <time>2020-07-26T05:11:47Z</time>
      </trkpt>
      <trkpt lat="41.858092" lon="2.660390">
        <ele>134.665</ele>
        <time>2020-07-26T05:11:48Z</time>
      </trkpt>
      <trkpt lat="41.858060" lon="2.660336">
        <ele>134.430</ele>
        <time>2020-07-26T05:11:49Z</time>
      </trkpt>
      <trkpt lat="41.858008" lon="2.660225">
        <ele>134.128</ele>
        <time>2020-07-26T05:11:51Z</time>
      </trkpt>
      <trkpt lat="41.857922" lon="2.660084">
        <ele>134.041</ele>
        <time>2020-07-26T05:11:54Z</time>
      </trkpt>
      <trkpt lat="41.857852" lon="2.659998">
        <ele>133.855</ele>
        <time>2020-07-26T05:11:56Z</time>
      </trkpt>
      <trkpt lat="41.857791" lon="2.659893">
        <ele>134.071</ele>
        <time>2020-07-26T05:11:58Z</time>
      </trkpt>
      <trkpt lat="41.857762" lon="2.659754">
        <ele>133.856</ele>
        <time>2020-07-26T05:12:00Z</time>
      </trkpt>
      <trkpt lat="41.857768" lon="2.659619">
        <ele>133.659</ele>
        <time>2020-07-26T05:12:02Z</time>
      </trkpt>
      <trkpt lat="41.857793" lon="2.659550">
        <ele>133.614</ele>
        <time>2020-07-26T05:12:03Z</time>
      </trkpt>
      <trkpt lat="41.857863" lon="2.659437">
        <ele>133.808</ele>
        <time>2020-07-26T05:12:05Z</time>
      </trkpt>
      <trkpt lat="41.857935" lon="2.659336">
        <ele>133.840</ele>
        <time>2020-07-26T05:12:07Z</time>
      </trkpt>
      <trkpt lat="41.857970" lon="2.659293">
        <ele>133.848</ele>
        <time>2020-07-26T05:12:08Z</time>
      </trkpt>
      <trkpt lat="41.858003" lon="2.659251">
        <ele>133.451</ele>
        <time>2020-07-26T05:12:09Z</time>
      </trkpt>
      <trkpt lat="41.858037" lon="2.659210">
        <ele>133.546</ele>
        <time>2020-07-26T05:12:10Z</time>
      </trkpt>
      <trkpt lat="41.858070" lon="2.659168">
        <ele>133.784</ele>
        <time>2020-07-26T05:12:11Z</time>
      </trkpt>
      <trkpt lat="41.858106" lon="2.659129">
        <ele>133.847</ele>
        <time>2020-07-26T05:12:12Z</time>
      </trkpt>
      <trkpt lat="41.858144" lon="2.659094">
        <ele>133.951</ele>
        <time>2020-07-26T05:12:13Z</time>
      </trkpt>
      <trkpt lat="41.858176" lon="2.659054">
        <ele>134.187</ele>
        <time>2020-07-26T05:12:14Z</time>
      </trkpt>
      <trkpt lat="41.858210" lon="2.659018">
        <ele>134.129</ele>
        <time>2020-07-26T05:12:15Z</time>
      </trkpt>
      <trkpt lat="41.858240" lon="2.658981">
        <ele>134.300</ele>
        <time>2020-07-26T05:12:16Z</time>
      </trkpt>
      <trkpt lat="41.858305" lon="2.658911">
        <ele>134.620</ele>
        <time>2020-07-26T05:12:18Z</time>
      </trkpt>
      <trkpt lat="41.858338" lon="2.658872">
        <ele>134.608</ele>
        <time>2020-07-26T05:12:19Z</time>
      </trkpt>
      <trkpt lat="41.858373" lon="2.658834">
        <ele>134.747</ele>
        <time>2020-07-26T05:12:20Z</time>
      </trkpt>
      <trkpt lat="41.858403" lon="2.658796">
        <ele>134.835</ele>
        <time>2020-07-26T05:12:21Z</time>
      </trkpt>
      <trkpt lat="41.858434" lon="2.658754">
        <ele>135.168</ele>
        <time>2020-07-26T05:12:22Z</time>
      </trkpt>
      <trkpt lat="41.858462" lon="2.658707">
        <ele>135.383</ele>
        <time>2020-07-26T05:12:23Z</time>
      </trkpt>
      <trkpt lat="41.858494" lon="2.658662">
        <ele>135.331</ele>
        <time>2020-07-26T05:12:24Z</time>
      </trkpt>
      <trkpt lat="41.858577" lon="2.658525">
        <ele>135.314</ele>
        <time>2020-07-26T05:12:27Z</time>
      </trkpt>
      <trkpt lat="41.858596" lon="2.658475">
        <ele>135.548</ele>
        <time>2020-07-26T05:12:28Z</time>
      </trkpt>
      <trkpt lat="41.858620" lon="2.658429">
        <ele>135.644</ele>
        <time>2020-07-26T05:12:29Z</time>
      </trkpt>
      <trkpt lat="41.858642" lon="2.658380">
        <ele>135.774</ele>
        <time>2020-07-26T05:12:30Z</time>
      </trkpt>
      <trkpt lat="41.858667" lon="2.658331">
        <ele>135.856</ele>
        <time>2020-07-26T05:12:31Z</time>
      </trkpt>
      <trkpt lat="41.858693" lon="2.658283">
        <ele>135.921</ele>
        <time>2020-07-26T05:12:32Z</time>
      </trkpt>
      <trkpt lat="41.858720" lon="2.658236">
        <ele>136.008</ele>
        <time>2020-07-26T05:12:33Z</time>
      </trkpt>
      <trkpt lat="41.858746" lon="2.658191">
        <ele>136.172</ele>
        <time>2020-07-26T05:12:34Z</time>
      </trkpt>
      <trkpt lat="41.858772" lon="2.658146">
        <ele>136.320</ele>
        <time>2020-07-26T05:12:35Z</time>
      </trkpt>
      <trkpt lat="41.858801" lon="2.658104">
        <ele>136.313</ele>
        <time>2020-07-26T05:12:36Z</time>
      </trkpt>
      <trkpt lat="41.858829" lon="2.658062">
        <ele>136.558</ele>
        <time>2020-07-26T05:12:37Z</time>
      </trkpt>
      <trkpt lat="41.858860" lon="2.658025">
        <ele>136.726</ele>
        <time>2020-07-26T05:12:38Z</time>
      </trkpt>
      <trkpt lat="41.858890" lon="2.657978">
        <ele>136.819</ele>
        <time>2020-07-26T05:12:39Z</time>
      </trkpt>
      <trkpt lat="41.858923" lon="2.657936">
        <ele>136.893</ele>
        <time>2020-07-26T05:12:40Z</time>
      </trkpt>
      <trkpt lat="41.858954" lon="2.657891">
        <ele>136.979</ele>
        <time>2020-07-26T05:12:41Z</time>
      </trkpt>
      <trkpt lat="41.858985" lon="2.657846">
        <ele>137.123</ele>
        <time>2020-07-26T05:12:42Z</time>
      </trkpt>
      <trkpt lat="41.859016" lon="2.657801">
        <ele>137.083</ele>
        <time>2020-07-26T05:12:43Z</time>
      </trkpt>
      <trkpt lat="41.859042" lon="2.657750">
        <ele>137.111</ele>
        <time>2020-07-26T05:12:44Z</time>
      </trkpt>
      <trkpt lat="41.859068" lon="2.657702">
        <ele>137.108</ele>
        <time>2020-07-26T05:12:45Z</time>
      </trkpt>
      <trkpt lat="41.859097" lon="2.657656">
        <ele>137.147</ele>
        <time>2020-07-26T05:12:46Z</time>
      </trkpt>
      <trkpt lat="41.859123" lon="2.657608">
        <ele>137.345</ele>
        <time>2020-07-26T05:12:47Z</time>
      </trkpt>
      <trkpt lat="41.859150" lon="2.657560">
        <ele>137.378</ele>
        <time>2020-07-26T05:12:48Z</time>
      </trkpt>
      <trkpt lat="41.859182" lon="2.657512">
        <ele>137.563</ele>
        <time>2020-07-26T05:12:49Z</time>
      </trkpt>
      <trkpt lat="41.859214" lon="2.657466">
        <ele>137.621</ele>
        <time>2020-07-26T05:12:50Z</time>
      </trkpt>
      <trkpt lat="41.859243" lon="2.657420">
        <ele>137.614</ele>
        <time>2020-07-26T05:12:51Z</time>
      </trkpt>
      <trkpt lat="41.859274" lon="2.657377">
        <ele>137.758</ele>
        <time>2020-07-26T05:12:52Z</time>
      </trkpt>
      <trkpt lat="41.859307" lon="2.657338">
        <ele>137.624</ele>
        <time>2020-07-26T05:12:53Z</time>
      </trkpt>
      <trkpt lat="41.859337" lon="2.657288">
        <ele>137.717</ele>
        <time>2020-07-26T05:12:54Z</time>
      </trkpt>
      <trkpt lat="41.859363" lon="2.657239">
        <ele>137.987</ele>
        <time>2020-07-26T05:12:55Z</time>
      </trkpt>
      <trkpt lat="41.859393" lon="2.657190">
        <ele>138.115</ele>
        <time>2020-07-26T05:12:56Z</time>
      </trkpt>
      <trkpt lat="41.859425" lon="2.657142">
        <ele>138.008</ele>
        <time>2020-07-26T05:12:57Z</time>
      </trkpt>
      <trkpt lat="41.859456" lon="2.657097">
        <ele>138.116</ele>
        <time>2020-07-26T05:12:58Z</time>
      </trkpt>
      <trkpt lat="41.859483" lon="2.657051">
        <ele>138.384</ele>
        <time>2020-07-26T05:12:59Z</time>
      </trkpt>
      <trkpt lat="41.859510" lon="2.657009">
        <ele>138.597</ele>
        <time>2020-07-26T05:13:00Z</time>
      </trkpt>
      <trkpt lat="41.859540" lon="2.656966">
        <ele>138.762</ele>
        <time>2020-07-26T05:13:01Z</time>
      </trkpt>
      <trkpt lat="41.859569" lon="2.656924">
        <ele>138.880</ele>
        <time>2020-07-26T05:13:02Z</time>
      </trkpt>
      <trkpt lat="41.859599" lon="2.656884">
        <ele>138.853</ele>
        <time>2020-07-26T05:13:03Z</time>
      </trkpt>
      <trkpt lat="41.859641" lon="2.656852">
        <ele>138.957</ele>
        <time>2020-07-26T05:13:04Z</time>
      </trkpt>
      <trkpt lat="41.859675" lon="2.656824">
        <ele>139.033</ele>
        <time>2020-07-26T05:13:05Z</time>
      </trkpt>
      <trkpt lat="41.859743" lon="2.656764">
        <ele>139.337</ele>
        <time>2020-07-26T05:13:07Z</time>
      </trkpt>
      <trkpt lat="41.859775" lon="2.656730">
        <ele>139.549</ele>
        <time>2020-07-26T05:13:08Z</time>
      </trkpt>
      <trkpt lat="41.859807" lon="2.656695">
        <ele>139.713</ele>
        <time>2020-07-26T05:13:09Z</time>
      </trkpt>
      <trkpt lat="41.859836" lon="2.656658">
        <ele>139.808</ele>
        <time>2020-07-26T05:13:10Z</time>
      </trkpt>
      <trkpt lat="41.859861" lon="2.656620">
        <ele>140.138</ele>
        <time>2020-07-26T05:13:11Z</time>
      </trkpt>
      <trkpt lat="41.859890" lon="2.656584">
        <ele>140.176</ele>
        <time>2020-07-26T05:13:12Z</time>
      </trkpt>
      <trkpt lat="41.859922" lon="2.656550">
        <ele>140.129</ele>
        <time>2020-07-26T05:13:13Z</time>
      </trkpt>
      <trkpt lat="41.859952" lon="2.656520">
        <ele>140.044</ele>
        <time>2020-07-26T05:13:14Z</time>
      </trkpt>
      <trkpt lat="41.859984" lon="2.656488">
        <ele>140.352</ele>
        <time>2020-07-26T05:13:15Z</time>
      </trkpt>
      <trkpt lat="41.860015" lon="2.656456">
        <ele>140.785</ele>
        <time>2020-07-26T05:13:16Z</time>
      </trkpt>
      <trkpt lat="41.860045" lon="2.656424">
        <ele>140.969</ele>
        <time>2020-07-26T05:13:17Z</time>
      </trkpt>
      <trkpt lat="41.860078" lon="2.656393">
        <ele>141.055</ele>
        <time>2020-07-26T05:13:18Z</time>
      </trkpt>
      <trkpt lat="41.860178" lon="2.656303">
        <ele>141.061</ele>
        <time>2020-07-26T05:13:21Z</time>
      </trkpt>
      <trkpt lat="41.860249" lon="2.656248">
        <ele>141.321</ele>
        <time>2020-07-26T05:13:23Z</time>
      </trkpt>
      <trkpt lat="41.860282" lon="2.656221">
        <ele>141.313</ele>
        <time>2020-07-26T05:13:24Z</time>
      </trkpt>
      <trkpt lat="41.860314" lon="2.656193">
        <ele>141.708</ele>
        <time>2020-07-26T05:13:25Z</time>
      </trkpt>
      <trkpt lat="41.860350" lon="2.656166">
        <ele>141.811</ele>
        <time>2020-07-26T05:13:26Z</time>
      </trkpt>
      <trkpt lat="41.860387" lon="2.656139">
        <ele>141.839</ele>
        <time>2020-07-26T05:13:27Z</time>
      </trkpt>
      <trkpt lat="41.860421" lon="2.656112">
        <ele>141.842</ele>
        <time>2020-07-26T05:13:28Z</time>
      </trkpt>
      <trkpt lat="41.860493" lon="2.656048">
        <ele>142.117</ele>
        <time>2020-07-26T05:13:30Z</time>
      </trkpt>
      <trkpt lat="41.860519" lon="2.656008">
        <ele>142.095</ele>
        <time>2020-07-26T05:13:31Z</time>
      </trkpt>
      <trkpt lat="41.860543" lon="2.655973">
        <ele>142.128</ele>
        <time>2020-07-26T05:13:32Z</time>
      </trkpt>
      <trkpt lat="41.860570" lon="2.655937">
        <ele>142.162</ele>
        <time>2020-07-26T05:13:33Z</time>
      </trkpt>
      <trkpt lat="41.860595" lon="2.655893">
        <ele>142.378</ele>
        <time>2020-07-26T05:13:34Z</time>
      </trkpt>
      <trkpt lat="41.860654" lon="2.655771">
        <ele>142.584</ele>
        <time>2020-07-26T05:13:37Z</time>
      </trkpt>
      <trkpt lat="41.860704" lon="2.655654">
        <ele>142.907</ele>
        <time>2020-07-26T05:13:40Z</time>
      </trkpt>
      <trkpt lat="41.860753" lon="2.655502">
        <ele>143.117</ele>
        <time>2020-07-26T05:13:43Z</time>
      </trkpt>
      <trkpt lat="41.860800" lon="2.655340">
        <ele>143.308</ele>
        <time>2020-07-26T05:13:46Z</time>
      </trkpt>
      <trkpt lat="41.860841" lon="2.655177">
        <ele>144.153</ele>
        <time>2020-07-26T05:13:49Z</time>
      </trkpt>
      <trkpt lat="41.860879" lon="2.655036">
        <ele>144.781</ele>
        <time>2020-07-26T05:13:52Z</time>
      </trkpt>
      <trkpt lat="41.860906" lon="2.654880">
        <ele>145.334</ele>
        <time>2020-07-26T05:13:55Z</time>
      </trkpt>
      <trkpt lat="41.860940" lon="2.654753">
        <ele>145.949</ele>
        <time>2020-07-26T05:13:58Z</time>
      </trkpt>
      <trkpt lat="41.860983" lon="2.654605">
        <ele>146.687</ele>
        <time>2020-07-26T05:14:02Z</time>
      </trkpt>
      <trkpt lat="41.861035" lon="2.654494">
        <ele>147.330</ele>
        <time>2020-07-26T05:14:05Z</time>
      </trkpt>
      <trkpt lat="41.861078" lon="2.654357">
        <ele>147.854</ele>
        <time>2020-07-26T05:14:09Z</time>
      </trkpt>
      <trkpt lat="41.861117" lon="2.654244">
        <ele>148.940</ele>
        <time>2020-07-26T05:14:13Z</time>
      </trkpt>
      <trkpt lat="41.861128" lon="2.654219">
        <ele>149.029</ele>
        <time>2020-07-26T05:14:14Z</time>
      </trkpt>
      <trkpt lat="41.861137" lon="2.654188">
        <ele>149.100</ele>
        <time>2020-07-26T05:14:15Z</time>
      </trkpt>
      <trkpt lat="41.861146" lon="2.654158">
        <ele>149.520</ele>
        <time>2020-07-26T05:14:16Z</time>
      </trkpt>
      <trkpt lat="41.861159" lon="2.654125">
        <ele>149.708</ele>
        <time>2020-07-26T05:14:17Z</time>
      </trkpt>
      <trkpt lat="41.861173" lon="2.654094">
        <ele>149.857</ele>
        <time>2020-07-26T05:14:18Z</time>
      </trkpt>
      <trkpt lat="41.861188" lon="2.654061">
        <ele>149.955</ele>
        <time>2020-07-26T05:14:19Z</time>
      </trkpt>
      <trkpt lat="41.861203" lon="2.654026">
        <ele>150.168</ele>
        <time>2020-07-26T05:14:20Z</time>
      </trkpt>
      <trkpt lat="41.861219" lon="2.653993">
        <ele>150.183</ele>
        <time>2020-07-26T05:14:21Z</time>
      </trkpt>
      <trkpt lat="41.861232" lon="2.653958">
        <ele>150.331</ele>
        <time>2020-07-26T05:14:22Z</time>
      </trkpt>
      <trkpt lat="41.861245" lon="2.653922">
        <ele>150.534</ele>
        <time>2020-07-26T05:14:23Z</time>
      </trkpt>
      <trkpt lat="41.861258" lon="2.653889">
        <ele>150.738</ele>
        <time>2020-07-26T05:14:24Z</time>
      </trkpt>
      <trkpt lat="41.861268" lon="2.653854">
        <ele>150.854</ele>
        <time>2020-07-26T05:14:25Z</time>
      </trkpt>
      <trkpt lat="41.861279" lon="2.653816">
        <ele>150.936</ele>
        <time>2020-07-26T05:14:26Z</time>
      </trkpt>
      <trkpt lat="41.861286" lon="2.653778">
        <ele>151.117</ele>
        <time>2020-07-26T05:14:27Z</time>
      </trkpt>
      <trkpt lat="41.861293" lon="2.653742">
        <ele>151.318</ele>
        <time>2020-07-26T05:14:28Z</time>
      </trkpt>
      <trkpt lat="41.861298" lon="2.653707">
        <ele>151.708</ele>
        <time>2020-07-26T05:14:29Z</time>
      </trkpt>
      <trkpt lat="41.861303" lon="2.653672">
        <ele>151.998</ele>
        <time>2020-07-26T05:14:30Z</time>
      </trkpt>
      <trkpt lat="41.861304" lon="2.653632">
        <ele>152.176</ele>
        <time>2020-07-26T05:14:31Z</time>
      </trkpt>
      <trkpt lat="41.861306" lon="2.653593">
        <ele>152.129</ele>
        <time>2020-07-26T05:14:32Z</time>
      </trkpt>
      <trkpt lat="41.861307" lon="2.653553">
        <ele>152.054</ele>
        <time>2020-07-26T05:14:33Z</time>
      </trkpt>
      <trkpt lat="41.861307" lon="2.653515">
        <ele>152.112</ele>
        <time>2020-07-26T05:14:34Z</time>
      </trkpt>
      <trkpt lat="41.861307" lon="2.653480">
        <ele>152.515</ele>
        <time>2020-07-26T05:14:35Z</time>
      </trkpt>
      <trkpt lat="41.861311" lon="2.653442">
        <ele>152.729</ele>
        <time>2020-07-26T05:14:36Z</time>
      </trkpt>
      <trkpt lat="41.861315" lon="2.653403">
        <ele>152.915</ele>
        <time>2020-07-26T05:14:37Z</time>
      </trkpt>
      <trkpt lat="41.861321" lon="2.653367">
        <ele>152.893</ele>
        <time>2020-07-26T05:14:38Z</time>
      </trkpt>
      <trkpt lat="41.861330" lon="2.653329">
        <ele>152.965</ele>
        <time>2020-07-26T05:14:39Z</time>
      </trkpt>
      <trkpt lat="41.861343" lon="2.653291">
        <ele>153.121</ele>
        <time>2020-07-26T05:14:40Z</time>
      </trkpt>
      <trkpt lat="41.861354" lon="2.653257">
        <ele>153.108</ele>
        <time>2020-07-26T05:14:41Z</time>
      </trkpt>
      <trkpt lat="41.861368" lon="2.653221">
        <ele>153.364</ele>
        <time>2020-07-26T05:14:42Z</time>
      </trkpt>
      <trkpt lat="41.861377" lon="2.653183">
        <ele>153.552</ele>
        <time>2020-07-26T05:14:43Z</time>
      </trkpt>
      <trkpt lat="41.861386" lon="2.653146">
        <ele>153.615</ele>
        <time>2020-07-26T05:14:44Z</time>
      </trkpt>
      <trkpt lat="41.861397" lon="2.653116">
        <ele>153.710</ele>
        <time>2020-07-26T05:14:45Z</time>
      </trkpt>
      <trkpt lat="41.861408" lon="2.653083">
        <ele>153.948</ele>
        <time>2020-07-26T05:14:46Z</time>
      </trkpt>
      <trkpt lat="41.861416" lon="2.653048">
        <ele>154.161</ele>
        <time>2020-07-26T05:14:47Z</time>
      </trkpt>
      <trkpt lat="41.861425" lon="2.653013">
        <ele>154.515</ele>
        <time>2020-07-26T05:14:48Z</time>
      </trkpt>
      <trkpt lat="41.861435" lon="2.652978">
        <ele>154.631</ele>
        <time>2020-07-26T05:14:49Z</time>
      </trkpt>
      <trkpt lat="41.861443" lon="2.652940">
        <ele>154.691</ele>
        <time>2020-07-26T05:14:50Z</time>
      </trkpt>
      <trkpt lat="41.861453" lon="2.652906">
        <ele>154.781</ele>
        <time>2020-07-26T05:14:51Z</time>
      </trkpt>
      <trkpt lat="41.861464" lon="2.652873">
        <ele>154.919</ele>
        <time>2020-07-26T05:14:52Z</time>
      </trkpt>
      <trkpt lat="41.861478" lon="2.652841">
        <ele>155.108</ele>
        <time>2020-07-26T05:14:53Z</time>
      </trkpt>
      <trkpt lat="41.861489" lon="2.652807">
        <ele>155.314</ele>
        <time>2020-07-26T05:14:54Z</time>
      </trkpt>
      <trkpt lat="41.861497" lon="2.652775">
        <ele>155.532</ele>
        <time>2020-07-26T05:14:55Z</time>
      </trkpt>
      <trkpt lat="41.861510" lon="2.652741">
        <ele>155.765</ele>
        <time>2020-07-26T05:14:56Z</time>
      </trkpt>
      <trkpt lat="41.861517" lon="2.652712">
        <ele>155.940</ele>
        <time>2020-07-26T05:14:57Z</time>
      </trkpt>
      <trkpt lat="41.861525" lon="2.652682">
        <ele>156.128</ele>
        <time>2020-07-26T05:14:58Z</time>
      </trkpt>
      <trkpt lat="41.861535" lon="2.652644">
        <ele>156.511</ele>
        <time>2020-07-26T05:14:59Z</time>
      </trkpt>
      <trkpt lat="41.861545" lon="2.652608">
        <ele>156.665</ele>
        <time>2020-07-26T05:15:00Z</time>
      </trkpt>
      <trkpt lat="41.861553" lon="2.652570">
        <ele>156.731</ele>
        <time>2020-07-26T05:15:01Z</time>
      </trkpt>
      <trkpt lat="41.861563" lon="2.652532">
        <ele>156.851</ele>
        <time>2020-07-26T05:15:02Z</time>
      </trkpt>
      <trkpt lat="41.861575" lon="2.652494">
        <ele>156.901</ele>
        <time>2020-07-26T05:15:03Z</time>
      </trkpt>
      <trkpt lat="41.861588" lon="2.652454">
        <ele>157.011</ele>
        <time>2020-07-26T05:15:04Z</time>
      </trkpt>
      <trkpt lat="41.861602" lon="2.652419">
        <ele>157.108</ele>
        <time>2020-07-26T05:15:05Z</time>
      </trkpt>
      <trkpt lat="41.861634" lon="2.652298">
        <ele>157.770</ele>
        <time>2020-07-26T05:15:08Z</time>
      </trkpt>
      <trkpt lat="41.861645" lon="2.652258">
        <ele>157.938</ele>
        <time>2020-07-26T05:15:09Z</time>
      </trkpt>
      <trkpt lat="41.861652" lon="2.652216">
        <ele>158.181</ele>
        <time>2020-07-26T05:15:10Z</time>
      </trkpt>
      <trkpt lat="41.861659" lon="2.652179">
        <ele>158.526</ele>
        <time>2020-07-26T05:15:11Z</time>
      </trkpt>
      <trkpt lat="41.861666" lon="2.652140">
        <ele>158.744</ele>
        <time>2020-07-26T05:15:12Z</time>
      </trkpt>
      <trkpt lat="41.861675" lon="2.652100">
        <ele>158.917</ele>
        <time>2020-07-26T05:15:13Z</time>
      </trkpt>
      <trkpt lat="41.861681" lon="2.652064">
        <ele>159.391</ele>
        <time>2020-07-26T05:15:14Z</time>
      </trkpt>
      <trkpt lat="41.861694" lon="2.651914">
        <ele>159.937</ele>
        <time>2020-07-26T05:15:18Z</time>
      </trkpt>
      <trkpt lat="41.861692" lon="2.651875">
        <ele>160.177</ele>
        <time>2020-07-26T05:15:19Z</time>
      </trkpt>
      <trkpt lat="41.861696" lon="2.651840">
        <ele>160.161</ele>
        <time>2020-07-26T05:15:20Z</time>
      </trkpt>
      <trkpt lat="41.861699" lon="2.651805">
        <ele>160.327</ele>
        <time>2020-07-26T05:15:21Z</time>
      </trkpt>
      <trkpt lat="41.861699" lon="2.651767">
        <ele>160.308</ele>
        <time>2020-07-26T05:15:22Z</time>
      </trkpt>
      <trkpt lat="41.861700" lon="2.651733">
        <ele>160.572</ele>
        <time>2020-07-26T05:15:23Z</time>
      </trkpt>
      <trkpt lat="41.861698" lon="2.651699">
        <ele>160.760</ele>
        <time>2020-07-26T05:15:24Z</time>
      </trkpt>
      <trkpt lat="41.861698" lon="2.651666">
        <ele>160.963</ele>
        <time>2020-07-26T05:15:25Z</time>
      </trkpt>
      <trkpt lat="41.861699" lon="2.651635">
        <ele>161.148</ele>
        <time>2020-07-26T05:15:26Z</time>
      </trkpt>
      <trkpt lat="41.861697" lon="2.651605">
        <ele>161.586</ele>
        <time>2020-07-26T05:15:27Z</time>
      </trkpt>
      <trkpt lat="41.861694" lon="2.651571">
        <ele>161.989</ele>
        <time>2020-07-26T05:15:28Z</time>
      </trkpt>
      <trkpt lat="41.861694" lon="2.651539">
        <ele>162.043</ele>
        <time>2020-07-26T05:15:29Z</time>
      </trkpt>
      <trkpt lat="41.861692" lon="2.651504">
        <ele>162.139</ele>
        <time>2020-07-26T05:15:30Z</time>
      </trkpt>
      <trkpt lat="41.861692" lon="2.651470">
        <ele>162.386</ele>
        <time>2020-07-26T05:15:31Z</time>
      </trkpt>
      <trkpt lat="41.861690" lon="2.651438">
        <ele>162.560</ele>
        <time>2020-07-26T05:15:32Z</time>
      </trkpt>
      <trkpt lat="41.861690" lon="2.651406">
        <ele>162.726</ele>
        <time>2020-07-26T05:15:33Z</time>
      </trkpt>
      <trkpt lat="41.861683" lon="2.651372">
        <ele>162.908</ele>
        <time>2020-07-26T05:15:34Z</time>
      </trkpt>
      <trkpt lat="41.861678" lon="2.651339">
        <ele>163.313</ele>
        <time>2020-07-26T05:15:35Z</time>
      </trkpt>
      <trkpt lat="41.861674" lon="2.651304">
        <ele>163.591</ele>
        <time>2020-07-26T05:15:36Z</time>
      </trkpt>
      <trkpt lat="41.861667" lon="2.651269">
        <ele>163.944</ele>
        <time>2020-07-26T05:15:37Z</time>
      </trkpt>
      <trkpt lat="41.861663" lon="2.651235">
        <ele>164.129</ele>
        <time>2020-07-26T05:15:38Z</time>
      </trkpt>
      <trkpt lat="41.861658" lon="2.651200">
        <ele>164.397</ele>
        <time>2020-07-26T05:15:39Z</time>
      </trkpt>
      <trkpt lat="41.861650" lon="2.651168">
        <ele>164.790</ele>
        <time>2020-07-26T05:15:40Z</time>
      </trkpt>
      <trkpt lat="41.861639" lon="2.651139">
        <ele>164.984</ele>
        <time>2020-07-26T05:15:41Z</time>
      </trkpt>
      <trkpt lat="41.861627" lon="2.651111">
        <ele>165.190</ele>
        <time>2020-07-26T05:15:42Z</time>
      </trkpt>
      <trkpt lat="41.861613" lon="2.651086">
        <ele>165.533</ele>
        <time>2020-07-26T05:15:43Z</time>
      </trkpt>
      <trkpt lat="41.861593" lon="2.651074">
        <ele>165.723</ele>
        <time>2020-07-26T05:15:44Z</time>
      </trkpt>
      <trkpt lat="41.861561" lon="2.651063">
        <ele>166.015</ele>
        <time>2020-07-26T05:15:46Z</time>
      </trkpt>
      <trkpt lat="41.861542" lon="2.651068">
        <ele>166.308</ele>
        <time>2020-07-26T05:15:47Z</time>
      </trkpt>
      <trkpt lat="41.861523" lon="2.651083">
        <ele>166.558</ele>
        <time>2020-07-26T05:15:48Z</time>
      </trkpt>
      <trkpt lat="41.861504" lon="2.651101">
        <ele>166.796</ele>
        <time>2020-07-26T05:15:49Z</time>
      </trkpt>
      <trkpt lat="41.861490" lon="2.651119">
        <ele>166.929</ele>
        <time>2020-07-26T05:15:50Z</time>
      </trkpt>
      <trkpt lat="41.861473" lon="2.651142">
        <ele>167.164</ele>
        <time>2020-07-26T05:15:51Z</time>
      </trkpt>
      <trkpt lat="41.861458" lon="2.651165">
        <ele>167.112</ele>
        <time>2020-07-26T05:15:52Z</time>
      </trkpt>
      <trkpt lat="41.861442" lon="2.651188">
        <ele>167.365</ele>
        <time>2020-07-26T05:15:53Z</time>
      </trkpt>
      <trkpt lat="41.861427" lon="2.651212">
        <ele>167.569</ele>
        <time>2020-07-26T05:15:54Z</time>
      </trkpt>
      <trkpt lat="41.861412" lon="2.651237">
        <ele>167.745</ele>
        <time>2020-07-26T05:15:55Z</time>
      </trkpt>
      <trkpt lat="41.861400" lon="2.651262">
        <ele>168.117</ele>
        <time>2020-07-26T05:15:56Z</time>
      </trkpt>
      <trkpt lat="41.861381" lon="2.651291">
        <ele>168.387</ele>
        <time>2020-07-26T05:15:57Z</time>
      </trkpt>
      <trkpt lat="41.861369" lon="2.651318">
        <ele>168.315</ele>
        <time>2020-07-26T05:15:58Z</time>
      </trkpt>
      <trkpt lat="41.861357" lon="2.651345">
        <ele>168.508</ele>
        <time>2020-07-26T05:15:59Z</time>
      </trkpt>
      <trkpt lat="41.861340" lon="2.651370">
        <ele>168.796</ele>
        <time>2020-07-26T05:16:00Z</time>
      </trkpt>
      <trkpt lat="41.861325" lon="2.651394">
        <ele>168.844</ele>
        <time>2020-07-26T05:16:01Z</time>
      </trkpt>
      <trkpt lat="41.861310" lon="2.651419">
        <ele>169.137</ele>
        <time>2020-07-26T05:16:02Z</time>
      </trkpt>
      <trkpt lat="41.861255" lon="2.651525">
        <ele>169.922</ele>
        <time>2020-07-26T05:16:06Z</time>
      </trkpt>
      <trkpt lat="41.861214" lon="2.651571">
        <ele>170.350</ele>
        <time>2020-07-26T05:16:08Z</time>
      </trkpt>
      <trkpt lat="41.861191" lon="2.651587">
        <ele>170.563</ele>
        <time>2020-07-26T05:16:09Z</time>
      </trkpt>
      <trkpt lat="41.861169" lon="2.651600">
        <ele>170.977</ele>
        <time>2020-07-26T05:16:10Z</time>
      </trkpt>
      <trkpt lat="41.861144" lon="2.651610">
        <ele>171.153</ele>
        <time>2020-07-26T05:16:11Z</time>
      </trkpt>
      <trkpt lat="41.861122" lon="2.651617">
        <ele>171.357</ele>
        <time>2020-07-26T05:16:12Z</time>
      </trkpt>
      <trkpt lat="41.861098" lon="2.651623">
        <ele>171.500</ele>
        <time>2020-07-26T05:16:13Z</time>
      </trkpt>
      <trkpt lat="41.861075" lon="2.651627">
        <ele>171.920</ele>
        <time>2020-07-26T05:16:14Z</time>
      </trkpt>
      <trkpt lat="41.861048" lon="2.651634">
        <ele>172.108</ele>
        <time>2020-07-26T05:16:15Z</time>
      </trkpt>
      <trkpt lat="41.861026" lon="2.651638">
        <ele>172.150</ele>
        <time>2020-07-26T05:16:16Z</time>
      </trkpt>
      <trkpt lat="41.860919" lon="2.651672">
        <ele>173.398</ele>
        <time>2020-07-26T05:16:21Z</time>
      </trkpt>
      <trkpt lat="41.860824" lon="2.651737">
        <ele>174.381</ele>
        <time>2020-07-26T05:16:26Z</time>
      </trkpt>
      <trkpt lat="41.860727" lon="2.651783">
        <ele>175.126</ele>
        <time>2020-07-26T05:16:31Z</time>
      </trkpt>
      <trkpt lat="41.860626" lon="2.651837">
        <ele>176.794</ele>
        <time>2020-07-26T05:16:36Z</time>
      </trkpt>
      <trkpt lat="41.860527" lon="2.651880">
        <ele>177.557</ele>
        <time>2020-07-26T05:16:40Z</time>
      </trkpt>
      <trkpt lat="41.860427" lon="2.651913">
        <ele>178.551</ele>
        <time>2020-07-26T05:16:44Z</time>
      </trkpt>
      <trkpt lat="41.860332" lon="2.651937">
        <ele>179.057</ele>
        <time>2020-07-26T05:16:48Z</time>
      </trkpt>
      <trkpt lat="41.860225" lon="2.651928">
        <ele>180.317</ele>
        <time>2020-07-26T05:16:54Z</time>
      </trkpt>
      <trkpt lat="41.860120" lon="2.651946">
        <ele>180.787</ele>
        <time>2020-07-26T05:16:58Z</time>
      </trkpt>
      <trkpt lat="41.860013" lon="2.652045">
        <ele>182.115</ele>
        <time>2020-07-26T05:17:02Z</time>
      </trkpt>
      <trkpt lat="41.860029" lon="2.652164">
        <ele>183.508</ele>
        <time>2020-07-26T05:17:06Z</time>
      </trkpt>
      <trkpt lat="41.860124" lon="2.652163">
        <ele>184.586</ele>
        <time>2020-07-26T05:17:10Z</time>
      </trkpt>
      <trkpt lat="41.860228" lon="2.652158">
        <ele>184.924</ele>
        <time>2020-07-26T05:17:14Z</time>
      </trkpt>
      <trkpt lat="41.860282" lon="2.652165">
        <ele>185.137</ele>
        <time>2020-07-26T05:17:16Z</time>
      </trkpt>
      <trkpt lat="41.860313" lon="2.652172">
        <ele>185.522</ele>
        <time>2020-07-26T05:17:17Z</time>
      </trkpt>
      <trkpt lat="41.860371" lon="2.652176">
        <ele>185.980</ele>
        <time>2020-07-26T05:17:19Z</time>
      </trkpt>
      <trkpt lat="41.860398" lon="2.652175">
        <ele>186.153</ele>
        <time>2020-07-26T05:17:20Z</time>
      </trkpt>
      <trkpt lat="41.860426" lon="2.652172">
        <ele>186.317</ele>
        <time>2020-07-26T05:17:21Z</time>
      </trkpt>
      <trkpt lat="41.860453" lon="2.652169">
        <ele>186.563</ele>
        <time>2020-07-26T05:17:22Z</time>
      </trkpt>
      <trkpt lat="41.860481" lon="2.652166">
        <ele>186.718</ele>
        <time>2020-07-26T05:17:23Z</time>
      </trkpt>
      <trkpt lat="41.860507" lon="2.652162">
        <ele>186.998</ele>
        <time>2020-07-26T05:17:24Z</time>
      </trkpt>
      <trkpt lat="41.860532" lon="2.652160">
        <ele>187.317</ele>
        <time>2020-07-26T05:17:25Z</time>
      </trkpt>
      <trkpt lat="41.860555" lon="2.652163">
        <ele>187.308</ele>
        <time>2020-07-26T05:17:26Z</time>
      </trkpt>
      <trkpt lat="41.860579" lon="2.652175">
        <ele>187.516</ele>
        <time>2020-07-26T05:17:27Z</time>
      </trkpt>
      <trkpt lat="41.860598" lon="2.652194">
        <ele>187.764</ele>
        <time>2020-07-26T05:17:28Z</time>
      </trkpt>
      <trkpt lat="41.860612" lon="2.652214">
        <ele>187.877</ele>
        <time>2020-07-26T05:17:29Z</time>
      </trkpt>
      <trkpt lat="41.860614" lon="2.652260">
        <ele>188.562</ele>
        <time>2020-07-26T05:17:31Z</time>
      </trkpt>
      <trkpt lat="41.860587" lon="2.652284">
        <ele>188.930</ele>
        <time>2020-07-26T05:17:33Z</time>
      </trkpt>
      <trkpt lat="41.860561" lon="2.652292">
        <ele>189.043</ele>
        <time>2020-07-26T05:17:34Z</time>
      </trkpt>
      <trkpt lat="41.860535" lon="2.652295">
        <ele>189.117</ele>
        <time>2020-07-26T05:17:35Z</time>
      </trkpt>
      <trkpt lat="41.860508" lon="2.652296">
        <ele>189.163</ele>
        <time>2020-07-26T05:17:36Z</time>
      </trkpt>
      <trkpt lat="41.860479" lon="2.652297">
        <ele>189.197</ele>
        <time>2020-07-26T05:17:37Z</time>
      </trkpt>
      <trkpt lat="41.860448" lon="2.652299">
        <ele>189.323</ele>
        <time>2020-07-26T05:17:38Z</time>
      </trkpt>
      <trkpt lat="41.860415" lon="2.652302">
        <ele>189.325</ele>
        <time>2020-07-26T05:17:39Z</time>
      </trkpt>
      <trkpt lat="41.860382" lon="2.652311">
        <ele>189.308</ele>
        <time>2020-07-26T05:17:40Z</time>
      </trkpt>
      <trkpt lat="41.860352" lon="2.652324">
        <ele>189.364</ele>
        <time>2020-07-26T05:17:41Z</time>
      </trkpt>
      <trkpt lat="41.860321" lon="2.652341">
        <ele>189.342</ele>
        <time>2020-07-26T05:17:42Z</time>
      </trkpt>
      <trkpt lat="41.860293" lon="2.652359">
        <ele>189.595</ele>
        <time>2020-07-26T05:17:43Z</time>
      </trkpt>
      <trkpt lat="41.860266" lon="2.652377">
        <ele>189.610</ele>
        <time>2020-07-26T05:17:44Z</time>
      </trkpt>
      <trkpt lat="41.860240" lon="2.652397">
        <ele>189.768</ele>
        <time>2020-07-26T05:17:45Z</time>
      </trkpt>
      <trkpt lat="41.860214" lon="2.652421">
        <ele>189.831</ele>
        <time>2020-07-26T05:17:46Z</time>
      </trkpt>
      <trkpt lat="41.860192" lon="2.652442">
        <ele>189.865</ele>
        <time>2020-07-26T05:17:47Z</time>
      </trkpt>
      <trkpt lat="41.860170" lon="2.652465">
        <ele>189.811</ele>
        <time>2020-07-26T05:17:48Z</time>
      </trkpt>
      <trkpt lat="41.860149" lon="2.652491">
        <ele>189.942</ele>
        <time>2020-07-26T05:17:49Z</time>
      </trkpt>
      <trkpt lat="41.860129" lon="2.652523">
        <ele>190.022</ele>
        <time>2020-07-26T05:17:50Z</time>
      </trkpt>
      <trkpt lat="41.860102" lon="2.652559">
        <ele>190.114</ele>
        <time>2020-07-26T05:17:51Z</time>
      </trkpt>
      <trkpt lat="41.860075" lon="2.652591">
        <ele>190.108</ele>
        <time>2020-07-26T05:17:52Z</time>
      </trkpt>
      <trkpt lat="41.860051" lon="2.652620">
        <ele>190.319</ele>
        <time>2020-07-26T05:17:53Z</time>
      </trkpt>
      <trkpt lat="41.860031" lon="2.652646">
        <ele>190.317</ele>
        <time>2020-07-26T05:17:54Z</time>
      </trkpt>
      <trkpt lat="41.860012" lon="2.652676">
        <ele>190.590</ele>
        <time>2020-07-26T05:17:55Z</time>
      </trkpt>
      <trkpt lat="41.859998" lon="2.652704">
        <ele>190.655</ele>
        <time>2020-07-26T05:17:56Z</time>
      </trkpt>
      <trkpt lat="41.859981" lon="2.652732">
        <ele>190.783</ele>
        <time>2020-07-26T05:17:57Z</time>
      </trkpt>
      <trkpt lat="41.859964" lon="2.652764">
        <ele>191.126</ele>
        <time>2020-07-26T05:17:58Z</time>
      </trkpt>
      <trkpt lat="41.859950" lon="2.652795">
        <ele>191.320</ele>
        <time>2020-07-26T05:17:59Z</time>
      </trkpt>
      <trkpt lat="41.859940" lon="2.652828">
        <ele>191.516</ele>
        <time>2020-07-26T05:18:00Z</time>
      </trkpt>
      <trkpt lat="41.859926" lon="2.652864">
        <ele>191.712</ele>
        <time>2020-07-26T05:18:01Z</time>
      </trkpt>
      <trkpt lat="41.859913" lon="2.652898">
        <ele>191.832</ele>
        <time>2020-07-26T05:18:02Z</time>
      </trkpt>
      <trkpt lat="41.859900" lon="2.652932">
        <ele>191.905</ele>
        <time>2020-07-26T05:18:03Z</time>
      </trkpt>
      <trkpt lat="41.859888" lon="2.652964">
        <ele>192.008</ele>
        <time>2020-07-26T05:18:04Z</time>
      </trkpt>
      <trkpt lat="41.859863" lon="2.653038">
        <ele>192.376</ele>
        <time>2020-07-26T05:18:06Z</time>
      </trkpt>
      <trkpt lat="41.859849" lon="2.653078">
        <ele>192.384</ele>
        <time>2020-07-26T05:18:07Z</time>
      </trkpt>
      <trkpt lat="41.859839" lon="2.653120">
        <ele>192.337</ele>
        <time>2020-07-26T05:18:08Z</time>
      </trkpt>
      <trkpt lat="41.859826" lon="2.653160">
        <ele>192.312</ele>
        <time>2020-07-26T05:18:09Z</time>
      </trkpt>
      <trkpt lat="41.859819" lon="2.653196">
        <ele>192.280</ele>
        <time>2020-07-26T05:18:10Z</time>
      </trkpt>
      <trkpt lat="41.859812" lon="2.653234">
        <ele>192.393</ele>
        <time>2020-07-26T05:18:11Z</time>
      </trkpt>
      <trkpt lat="41.859806" lon="2.653272">
        <ele>192.517</ele>
        <time>2020-07-26T05:18:12Z</time>
      </trkpt>
      <trkpt lat="41.859800" lon="2.653309">
        <ele>192.783</ele>
        <time>2020-07-26T05:18:13Z</time>
      </trkpt>
      <trkpt lat="41.859790" lon="2.653347">
        <ele>192.838</ele>
        <time>2020-07-26T05:18:14Z</time>
      </trkpt>
      <trkpt lat="41.859780" lon="2.653384">
        <ele>193.170</ele>
        <time>2020-07-26T05:18:15Z</time>
      </trkpt>
      <trkpt lat="41.859769" lon="2.653420">
        <ele>193.517</ele>
        <time>2020-07-26T05:18:16Z</time>
      </trkpt>
      <trkpt lat="41.859755" lon="2.653454">
        <ele>193.708</ele>
        <time>2020-07-26T05:18:17Z</time>
      </trkpt>
      <trkpt lat="41.859743" lon="2.653487">
        <ele>193.848</ele>
        <time>2020-07-26T05:18:18Z</time>
      </trkpt>
      <trkpt lat="41.859730" lon="2.653518">
        <ele>193.966</ele>
        <time>2020-07-26T05:18:19Z</time>
      </trkpt>
      <trkpt lat="41.859718" lon="2.653547">
        <ele>194.179</ele>
        <time>2020-07-26T05:18:20Z</time>
      </trkpt>
      <trkpt lat="41.859700" lon="2.653573">
        <ele>194.314</ele>
        <time>2020-07-26T05:18:21Z</time>
      </trkpt>
      <trkpt lat="41.859680" lon="2.653592">
        <ele>194.542</ele>
        <time>2020-07-26T05:18:22Z</time>
      </trkpt>
      <trkpt lat="41.859660" lon="2.653607">
        <ele>194.615</ele>
        <time>2020-07-26T05:18:23Z</time>
      </trkpt>
      <trkpt lat="41.859639" lon="2.653618">
        <ele>194.929</ele>
        <time>2020-07-26T05:18:24Z</time>
      </trkpt>
      <trkpt lat="41.859616" lon="2.653622">
        <ele>195.115</ele>
        <time>2020-07-26T05:18:25Z</time>
      </trkpt>
      <trkpt lat="41.859593" lon="2.653622">
        <ele>195.523</ele>
        <time>2020-07-26T05:18:26Z</time>
      </trkpt>
      <trkpt lat="41.859571" lon="2.653616">
        <ele>195.783</ele>
        <time>2020-07-26T05:18:27Z</time>
      </trkpt>
      <trkpt lat="41.859548" lon="2.653609">
        <ele>195.911</ele>
        <time>2020-07-26T05:18:28Z</time>
      </trkpt>
      <trkpt lat="41.859525" lon="2.653601">
        <ele>196.308</ele>
        <time>2020-07-26T05:18:29Z</time>
      </trkpt>
      <trkpt lat="41.859503" lon="2.653588">
        <ele>196.527</ele>
        <time>2020-07-26T05:18:30Z</time>
      </trkpt>
      <trkpt lat="41.859481" lon="2.653574">
        <ele>196.775</ele>
        <time>2020-07-26T05:18:31Z</time>
      </trkpt>
      <trkpt lat="41.859459" lon="2.653559">
        <ele>196.988</ele>
        <time>2020-07-26T05:18:32Z</time>
      </trkpt>
      <trkpt lat="41.859439" lon="2.653539">
        <ele>197.023</ele>
        <time>2020-07-26T05:18:33Z</time>
      </trkpt>
      <trkpt lat="41.859419" lon="2.653519">
        <ele>197.191</ele>
        <time>2020-07-26T05:18:34Z</time>
      </trkpt>
      <trkpt lat="41.859400" lon="2.653496">
        <ele>197.384</ele>
        <time>2020-07-26T05:18:35Z</time>
      </trkpt>
      <trkpt lat="41.859383" lon="2.653470">
        <ele>197.588</ele>
        <time>2020-07-26T05:18:36Z</time>
      </trkpt>
      <trkpt lat="41.859369" lon="2.653443">
        <ele>197.754</ele>
        <time>2020-07-26T05:18:37Z</time>
      </trkpt>
      <trkpt lat="41.859355" lon="2.653414">
        <ele>197.818</ele>
        <time>2020-07-26T05:18:38Z</time>
      </trkpt>
      <trkpt lat="41.859340" lon="2.653385">
        <ele>197.898</ele>
        <time>2020-07-26T05:18:39Z</time>
      </trkpt>
      <trkpt lat="41.859326" lon="2.653355">
        <ele>198.117</ele>
        <time>2020-07-26T05:18:40Z</time>
      </trkpt>
      <trkpt lat="41.859314" lon="2.653322">
        <ele>198.308</ele>
        <time>2020-07-26T05:18:41Z</time>
      </trkpt>
      <trkpt lat="41.859305" lon="2.653289">
        <ele>198.516</ele>
        <time>2020-07-26T05:18:42Z</time>
      </trkpt>
      <trkpt lat="41.859297" lon="2.653254">
        <ele>198.784</ele>
        <time>2020-07-26T05:18:43Z</time>
      </trkpt>
      <trkpt lat="41.859289" lon="2.653220">
        <ele>198.957</ele>
        <time>2020-07-26T05:18:44Z</time>
      </trkpt>
      <trkpt lat="41.859282" lon="2.653185">
        <ele>199.192</ele>
        <time>2020-07-26T05:18:45Z</time>
      </trkpt>
      <trkpt lat="41.859273" lon="2.653150">
        <ele>199.370</ele>
        <time>2020-07-26T05:18:46Z</time>
      </trkpt>
      <trkpt lat="41.859264" lon="2.653113">
        <ele>199.383</ele>
        <time>2020-07-26T05:18:47Z</time>
      </trkpt>
      <trkpt lat="41.859255" lon="2.653076">
        <ele>199.547</ele>
        <time>2020-07-26T05:18:48Z</time>
      </trkpt>
      <trkpt lat="41.859246" lon="2.653040">
        <ele>199.723</ele>
        <time>2020-07-26T05:18:49Z</time>
      </trkpt>
      <trkpt lat="41.859236" lon="2.653006">
        <ele>199.955</ele>
        <time>2020-07-26T05:18:50Z</time>
      </trkpt>
      <trkpt lat="41.859226" lon="2.652972">
        <ele>200.007</ele>
        <time>2020-07-26T05:18:51Z</time>
      </trkpt>
      <trkpt lat="41.859215" lon="2.652938">
        <ele>200.117</ele>
        <time>2020-07-26T05:18:52Z</time>
      </trkpt>
      <trkpt lat="41.859202" lon="2.652906">
        <ele>200.308</ele>
        <time>2020-07-26T05:18:53Z</time>
      </trkpt>
      <trkpt lat="41.859189" lon="2.652876">
        <ele>200.570</ele>
        <time>2020-07-26T05:18:54Z</time>
      </trkpt>
      <trkpt lat="41.859175" lon="2.652845">
        <ele>200.788</ele>
        <time>2020-07-26T05:18:55Z</time>
      </trkpt>
      <trkpt lat="41.859158" lon="2.652815">
        <ele>200.861</ele>
        <time>2020-07-26T05:18:56Z</time>
      </trkpt>
      <trkpt lat="41.859140" lon="2.652785">
        <ele>200.956</ele>
        <time>2020-07-26T05:18:57Z</time>
      </trkpt>
      <trkpt lat="41.859123" lon="2.652755">
        <ele>201.164</ele>
        <time>2020-07-26T05:18:58Z</time>
      </trkpt>
      <trkpt lat="41.859105" lon="2.652725">
        <ele>201.587</ele>
        <time>2020-07-26T05:18:59Z</time>
      </trkpt>
      <trkpt lat="41.859089" lon="2.652694">
        <ele>201.661</ele>
        <time>2020-07-26T05:19:00Z</time>
      </trkpt>
      <trkpt lat="41.859075" lon="2.652663">
        <ele>201.667</ele>
        <time>2020-07-26T05:19:01Z</time>
      </trkpt>
      <trkpt lat="41.859061" lon="2.652632">
        <ele>201.938</ele>
        <time>2020-07-26T05:19:02Z</time>
      </trkpt>
      <trkpt lat="41.859046" lon="2.652602">
        <ele>202.170</ele>
        <time>2020-07-26T05:19:03Z</time>
      </trkpt>
      <trkpt lat="41.859031" lon="2.652573">
        <ele>202.317</ele>
        <time>2020-07-26T05:19:04Z</time>
      </trkpt>
      <trkpt lat="41.859015" lon="2.652544">
        <ele>202.508</ele>
        <time>2020-07-26T05:19:05Z</time>
      </trkpt>
      <trkpt lat="41.858997" lon="2.652517">
        <ele>202.758</ele>
        <time>2020-07-26T05:19:06Z</time>
      </trkpt>
      <trkpt lat="41.858979" lon="2.652489">
        <ele>203.166</ele>
        <time>2020-07-26T05:19:07Z</time>
      </trkpt>
      <trkpt lat="41.858961" lon="2.652462">
        <ele>203.199</ele>
        <time>2020-07-26T05:19:08Z</time>
      </trkpt>
      <trkpt lat="41.858945" lon="2.652434">
        <ele>203.324</ele>
        <time>2020-07-26T05:19:09Z</time>
      </trkpt>
      <trkpt lat="41.858928" lon="2.652407">
        <ele>203.542</ele>
        <time>2020-07-26T05:19:10Z</time>
      </trkpt>
      <trkpt lat="41.858910" lon="2.652380">
        <ele>203.995</ele>
        <time>2020-07-26T05:19:11Z</time>
      </trkpt>
      <trkpt lat="41.858892" lon="2.652354">
        <ele>204.069</ele>
        <time>2020-07-26T05:19:12Z</time>
      </trkpt>
      <trkpt lat="41.858874" lon="2.652326">
        <ele>204.115</ele>
        <time>2020-07-26T05:19:13Z</time>
      </trkpt>
      <trkpt lat="41.858856" lon="2.652298">
        <ele>204.356</ele>
        <time>2020-07-26T05:19:14Z</time>
      </trkpt>
      <trkpt lat="41.858839" lon="2.652270">
        <ele>204.559</ele>
        <time>2020-07-26T05:19:15Z</time>
      </trkpt>
      <trkpt lat="41.858822" lon="2.652240">
        <ele>204.714</ele>
        <time>2020-07-26T05:19:16Z</time>
      </trkpt>
      <trkpt lat="41.858806" lon="2.652212">
        <ele>204.908</ele>
        <time>2020-07-26T05:19:17Z</time>
      </trkpt>
      <trkpt lat="41.858789" lon="2.652184">
        <ele>205.150</ele>
        <time>2020-07-26T05:19:18Z</time>
      </trkpt>
      <trkpt lat="41.858773" lon="2.652158">
        <ele>205.328</ele>
        <time>2020-07-26T05:19:19Z</time>
      </trkpt>
      <trkpt lat="41.858759" lon="2.652129">
        <ele>205.341</ele>
        <time>2020-07-26T05:19:20Z</time>
      </trkpt>
      <trkpt lat="41.858745" lon="2.652100">
        <ele>205.546</ele>
        <time>2020-07-26T05:19:21Z</time>
      </trkpt>
      <trkpt lat="41.858730" lon="2.652071">
        <ele>205.714</ele>
        <time>2020-07-26T05:19:22Z</time>
      </trkpt>
      <trkpt lat="41.858712" lon="2.652043">
        <ele>206.127</ele>
        <time>2020-07-26T05:19:23Z</time>
      </trkpt>
      <trkpt lat="41.858693" lon="2.652016">
        <ele>206.361</ele>
        <time>2020-07-26T05:19:24Z</time>
      </trkpt>
      <trkpt lat="41.858675" lon="2.651989">
        <ele>206.797</ele>
        <time>2020-07-26T05:19:25Z</time>
      </trkpt>
      <trkpt lat="41.858660" lon="2.651961">
        <ele>206.978</ele>
        <time>2020-07-26T05:19:26Z</time>
      </trkpt>
      <trkpt lat="41.858647" lon="2.651933">
        <ele>207.133</ele>
        <time>2020-07-26T05:19:27Z</time>
      </trkpt>
      <trkpt lat="41.858634" lon="2.651906">
        <ele>207.126</ele>
        <time>2020-07-26T05:19:28Z</time>
      </trkpt>
      <trkpt lat="41.858620" lon="2.651879">
        <ele>207.308</ele>
        <time>2020-07-26T05:19:29Z</time>
      </trkpt>
      <trkpt lat="41.858605" lon="2.651852">
        <ele>207.762</ele>
        <time>2020-07-26T05:19:30Z</time>
      </trkpt>
      <trkpt lat="41.858590" lon="2.651826">
        <ele>207.990</ele>
        <time>2020-07-26T05:19:31Z</time>
      </trkpt>
      <trkpt lat="41.858576" lon="2.651799">
        <ele>208.173</ele>
        <time>2020-07-26T05:19:32Z</time>
      </trkpt>
      <trkpt lat="41.858564" lon="2.651771">
        <ele>208.328</ele>
        <time>2020-07-26T05:19:33Z</time>
      </trkpt>
      <trkpt lat="41.858552" lon="2.651742">
        <ele>208.586</ele>
        <time>2020-07-26T05:19:34Z</time>
      </trkpt>
      <trkpt lat="41.858540" lon="2.651711">
        <ele>208.739</ele>
        <time>2020-07-26T05:19:35Z</time>
      </trkpt>
      <trkpt lat="41.858526" lon="2.651681">
        <ele>208.923</ele>
        <time>2020-07-26T05:19:36Z</time>
      </trkpt>
      <trkpt lat="41.858514" lon="2.651649">
        <ele>209.119</ele>
        <time>2020-07-26T05:19:37Z</time>
      </trkpt>
      <trkpt lat="41.858500" lon="2.651618">
        <ele>209.313</ele>
        <time>2020-07-26T05:19:38Z</time>
      </trkpt>
      <trkpt lat="41.858488" lon="2.651586">
        <ele>209.743</ele>
        <time>2020-07-26T05:19:39Z</time>
      </trkpt>
      <trkpt lat="41.858475" lon="2.651556">
        <ele>209.907</ele>
        <time>2020-07-26T05:19:40Z</time>
      </trkpt>
      <trkpt lat="41.858462" lon="2.651526">
        <ele>210.108</ele>
        <time>2020-07-26T05:19:41Z</time>
      </trkpt>
      <trkpt lat="41.858449" lon="2.651496">
        <ele>210.316</ele>
        <time>2020-07-26T05:19:42Z</time>
      </trkpt>
      <trkpt lat="41.858434" lon="2.651466">
        <ele>210.334</ele>
        <time>2020-07-26T05:19:43Z</time>
      </trkpt>
      <trkpt lat="41.858418" lon="2.651436">
        <ele>210.567</ele>
        <time>2020-07-26T05:19:44Z</time>
      </trkpt>
      <trkpt lat="41.858403" lon="2.651407">
        <ele>210.992</ele>
        <time>2020-07-26T05:19:45Z</time>
      </trkpt>
      <trkpt lat="41.858386" lon="2.651378">
        <ele>211.120</ele>
        <time>2020-07-26T05:19:46Z</time>
      </trkpt>
      <trkpt lat="41.858369" lon="2.651350">
        <ele>211.343</ele>
        <time>2020-07-26T05:19:47Z</time>
      </trkpt>
      <trkpt lat="41.858353" lon="2.651322">
        <ele>211.587</ele>
        <time>2020-07-26T05:19:48Z</time>
      </trkpt>
      <trkpt lat="41.858335" lon="2.651295">
        <ele>211.913</ele>
        <time>2020-07-26T05:19:49Z</time>
      </trkpt>
      <trkpt lat="41.858317" lon="2.651269">
        <ele>212.194</ele>
        <time>2020-07-26T05:19:50Z</time>
      </trkpt>
      <trkpt lat="41.858297" lon="2.651244">
        <ele>212.357</ele>
        <time>2020-07-26T05:19:51Z</time>
      </trkpt>
      <trkpt lat="41.858277" lon="2.651221">
        <ele>212.722</ele>
        <time>2020-07-26T05:19:52Z</time>
      </trkpt>
      <trkpt lat="41.858256" lon="2.651199">
        <ele>212.808</ele>
        <time>2020-07-26T05:19:53Z</time>
      </trkpt>
      <trkpt lat="41.858236" lon="2.651178">
        <ele>212.954</ele>
        <time>2020-07-26T05:19:54Z</time>
      </trkpt>
      <trkpt lat="41.858215" lon="2.651157">
        <ele>213.332</ele>
        <time>2020-07-26T05:19:55Z</time>
      </trkpt>
      <trkpt lat="41.858195" lon="2.651136">
        <ele>213.545</ele>
        <time>2020-07-26T05:19:56Z</time>
      </trkpt>
      <trkpt lat="41.858176" lon="2.651116">
        <ele>213.980</ele>
        <time>2020-07-26T05:19:57Z</time>
      </trkpt>
      <trkpt lat="41.858155" lon="2.651097">
        <ele>214.178</ele>
        <time>2020-07-26T05:19:58Z</time>
      </trkpt>
      <trkpt lat="41.858134" lon="2.651078">
        <ele>214.511</ele>
        <time>2020-07-26T05:19:59Z</time>
      </trkpt>
      <trkpt lat="41.858113" lon="2.651058">
        <ele>214.715</ele>
        <time>2020-07-26T05:20:00Z</time>
      </trkpt>
      <trkpt lat="41.858093" lon="2.651038">
        <ele>214.861</ele>
        <time>2020-07-26T05:20:01Z</time>
      </trkpt>
      <trkpt lat="41.858071" lon="2.651020">
        <ele>215.132</ele>
        <time>2020-07-26T05:20:02Z</time>
      </trkpt>
      <trkpt lat="41.858050" lon="2.651002">
        <ele>215.392</ele>
        <time>2020-07-26T05:20:03Z</time>
      </trkpt>
      <trkpt lat="41.858029" lon="2.650988">
        <ele>215.511</ele>
        <time>2020-07-26T05:20:04Z</time>
      </trkpt>
      <trkpt lat="41.858011" lon="2.650973">
        <ele>215.708</ele>
        <time>2020-07-26T05:20:05Z</time>
      </trkpt>
      <trkpt lat="41.857992" lon="2.650958">
        <ele>215.948</ele>
        <time>2020-07-26T05:20:06Z</time>
      </trkpt>
      <trkpt lat="41.857973" lon="2.650943">
        <ele>216.156</ele>
        <time>2020-07-26T05:20:07Z</time>
      </trkpt>
      <trkpt lat="41.857951" lon="2.650928">
        <ele>216.129</ele>
        <time>2020-07-26T05:20:08Z</time>
      </trkpt>
      <trkpt lat="41.857931" lon="2.650914">
        <ele>216.564</ele>
        <time>2020-07-26T05:20:09Z</time>
      </trkpt>
      <trkpt lat="41.857909" lon="2.650897">
        <ele>216.982</ele>
        <time>2020-07-26T05:20:10Z</time>
      </trkpt>
      <trkpt lat="41.857887" lon="2.650882">
        <ele>217.365</ele>
        <time>2020-07-26T05:20:11Z</time>
      </trkpt>
      <trkpt lat="41.857866" lon="2.650867">
        <ele>217.569</ele>
        <time>2020-07-26T05:20:12Z</time>
      </trkpt>
      <trkpt lat="41.857846" lon="2.650849">
        <ele>218.195</ele>
        <time>2020-07-26T05:20:13Z</time>
      </trkpt>
      <trkpt lat="41.857828" lon="2.650832">
        <ele>218.518</ele>
        <time>2020-07-26T05:20:14Z</time>
      </trkpt>
      <trkpt lat="41.857808" lon="2.650815">
        <ele>218.798</ele>
        <time>2020-07-26T05:20:15Z</time>
      </trkpt>
      <trkpt lat="41.857782" lon="2.650806">
        <ele>218.917</ele>
        <time>2020-07-26T05:20:16Z</time>
      </trkpt>
      <trkpt lat="41.857762" lon="2.650793">
        <ele>219.108</ele>
        <time>2020-07-26T05:20:17Z</time>
      </trkpt>
      <trkpt lat="41.857743" lon="2.650777">
        <ele>219.716</ele>
        <time>2020-07-26T05:20:18Z</time>
      </trkpt>
      <trkpt lat="41.857722" lon="2.650762">
        <ele>219.994</ele>
        <time>2020-07-26T05:20:19Z</time>
      </trkpt>
      <trkpt lat="41.857703" lon="2.650746">
        <ele>220.137</ele>
        <time>2020-07-26T05:20:20Z</time>
      </trkpt>
      <trkpt lat="41.857682" lon="2.650730">
        <ele>220.552</ele>
        <time>2020-07-26T05:20:21Z</time>
      </trkpt>
      <trkpt lat="41.857662" lon="2.650713">
        <ele>220.750</ele>
        <time>2020-07-26T05:20:22Z</time>
      </trkpt>
      <trkpt lat="41.857643" lon="2.650696">
        <ele>220.963</ele>
        <time>2020-07-26T05:20:23Z</time>
      </trkpt>
      <trkpt lat="41.857622" lon="2.650678">
        <ele>221.187</ele>
        <time>2020-07-26T05:20:24Z</time>
      </trkpt>
      <trkpt lat="41.857601" lon="2.650660">
        <ele>221.543</ele>
        <time>2020-07-26T05:20:25Z</time>
      </trkpt>
      <trkpt lat="41.857578" lon="2.650644">
        <ele>221.725</ele>
        <time>2020-07-26T05:20:26Z</time>
      </trkpt>
      <trkpt lat="41.857557" lon="2.650627">
        <ele>221.926</ele>
        <time>2020-07-26T05:20:27Z</time>
      </trkpt>
      <trkpt lat="41.857535" lon="2.650608">
        <ele>222.108</ele>
        <time>2020-07-26T05:20:28Z</time>
      </trkpt>
      <trkpt lat="41.857515" lon="2.650589">
        <ele>222.308</ele>
        <time>2020-07-26T05:20:29Z</time>
      </trkpt>
      <trkpt lat="41.857496" lon="2.650569">
        <ele>222.547</ele>
        <time>2020-07-26T05:20:30Z</time>
      </trkpt>
      <trkpt lat="41.857478" lon="2.650548">
        <ele>222.845</ele>
        <time>2020-07-26T05:20:31Z</time>
      </trkpt>
      <trkpt lat="41.857460" lon="2.650528">
        <ele>223.018</ele>
        <time>2020-07-26T05:20:32Z</time>
      </trkpt>
      <trkpt lat="41.857442" lon="2.650508">
        <ele>223.173</ele>
        <time>2020-07-26T05:20:33Z</time>
      </trkpt>
      <trkpt lat="41.857422" lon="2.650488">
        <ele>223.391</ele>
        <time>2020-07-26T05:20:34Z</time>
      </trkpt>
      <trkpt lat="41.857401" lon="2.650467">
        <ele>223.774</ele>
        <time>2020-07-26T05:20:35Z</time>
      </trkpt>
      <trkpt lat="41.857380" lon="2.650444">
        <ele>223.938</ele>
        <time>2020-07-26T05:20:36Z</time>
      </trkpt>
      <trkpt lat="41.857356" lon="2.650423">
        <ele>224.194</ele>
        <time>2020-07-26T05:20:37Z</time>
      </trkpt>
      <trkpt lat="41.857334" lon="2.650401">
        <ele>224.512</ele>
        <time>2020-07-26T05:20:38Z</time>
      </trkpt>
      <trkpt lat="41.857312" lon="2.650377">
        <ele>224.732</ele>
        <time>2020-07-26T05:20:39Z</time>
      </trkpt>
      <trkpt lat="41.857291" lon="2.650351">
        <ele>225.105</ele>
        <time>2020-07-26T05:20:40Z</time>
      </trkpt>
      <trkpt lat="41.857272" lon="2.650324">
        <ele>225.108</ele>
        <time>2020-07-26T05:20:41Z</time>
      </trkpt>
      <trkpt lat="41.857254" lon="2.650294">
        <ele>225.786</ele>
        <time>2020-07-26T05:20:42Z</time>
      </trkpt>
      <trkpt lat="41.857238" lon="2.650266">
        <ele>225.924</ele>
        <time>2020-07-26T05:20:43Z</time>
      </trkpt>
      <trkpt lat="41.857225" lon="2.650236">
        <ele>226.347</ele>
        <time>2020-07-26T05:20:44Z</time>
      </trkpt>
      <trkpt lat="41.857215" lon="2.650206">
        <ele>226.772</ele>
        <time>2020-07-26T05:20:45Z</time>
      </trkpt>
      <trkpt lat="41.857210" lon="2.650176">
        <ele>226.940</ele>
        <time>2020-07-26T05:20:46Z</time>
      </trkpt>
      <trkpt lat="41.857209" lon="2.650146">
        <ele>227.313</ele>
        <time>2020-07-26T05:20:47Z</time>
      </trkpt>
      <trkpt lat="41.857210" lon="2.650115">
        <ele>227.747</ele>
        <time>2020-07-26T05:20:48Z</time>
      </trkpt>
      <trkpt lat="41.857212" lon="2.650084">
        <ele>227.913</ele>
        <time>2020-07-26T05:20:49Z</time>
      </trkpt>
      <trkpt lat="41.857214" lon="2.650052">
        <ele>228.128</ele>
        <time>2020-07-26T05:20:50Z</time>
      </trkpt>
      <trkpt lat="41.857216" lon="2.650019">
        <ele>228.389</ele>
        <time>2020-07-26T05:20:51Z</time>
      </trkpt>
      <trkpt lat="41.857219" lon="2.649985">
        <ele>228.717</ele>
        <time>2020-07-26T05:20:52Z</time>
      </trkpt>
      <trkpt lat="41.857220" lon="2.649951">
        <ele>229.108</ele>
        <time>2020-07-26T05:20:53Z</time>
      </trkpt>
      <trkpt lat="41.857221" lon="2.649916">
        <ele>229.317</ele>
        <time>2020-07-26T05:20:54Z</time>
      </trkpt>
      <trkpt lat="41.857221" lon="2.649880">
        <ele>229.355</ele>
        <time>2020-07-26T05:20:55Z</time>
      </trkpt>
      <trkpt lat="41.857221" lon="2.649843">
        <ele>229.598</ele>
        <time>2020-07-26T05:20:56Z</time>
      </trkpt>
      <trkpt lat="41.857222" lon="2.649808">
        <ele>229.983</ele>
        <time>2020-07-26T05:20:57Z</time>
      </trkpt>
      <trkpt lat="41.857222" lon="2.649773">
        <ele>230.111</ele>
        <time>2020-07-26T05:20:58Z</time>
      </trkpt>
      <trkpt lat="41.857218" lon="2.649738">
        <ele>230.394</ele>
        <time>2020-07-26T05:20:59Z</time>
      </trkpt>
      <trkpt lat="41.857214" lon="2.649702">
        <ele>230.378</ele>
        <time>2020-07-26T05:21:00Z</time>
      </trkpt>
      <trkpt lat="41.857209" lon="2.649667">
        <ele>230.794</ele>
        <time>2020-07-26T05:21:01Z</time>
      </trkpt>
      <trkpt lat="41.857204" lon="2.649632">
        <ele>231.162</ele>
        <time>2020-07-26T05:21:02Z</time>
      </trkpt>
      <trkpt lat="41.857200" lon="2.649598">
        <ele>231.383</ele>
        <time>2020-07-26T05:21:03Z</time>
      </trkpt>
      <trkpt lat="41.857195" lon="2.649565">
        <ele>231.711</ele>
        <time>2020-07-26T05:21:04Z</time>
      </trkpt>
      <trkpt lat="41.857188" lon="2.649536">
        <ele>232.108</ele>
        <time>2020-07-26T05:21:05Z</time>
      </trkpt>
      <trkpt lat="41.857178" lon="2.649506">
        <ele>232.181</ele>
        <time>2020-07-26T05:21:06Z</time>
      </trkpt>
      <trkpt lat="41.857167" lon="2.649475">
        <ele>232.519</ele>
        <time>2020-07-26T05:21:07Z</time>
      </trkpt>
      <trkpt lat="41.857153" lon="2.649444">
        <ele>232.992</ele>
        <time>2020-07-26T05:21:08Z</time>
      </trkpt>
      <trkpt lat="41.857138" lon="2.649416">
        <ele>233.187</ele>
        <time>2020-07-26T05:21:09Z</time>
      </trkpt>
      <trkpt lat="41.857121" lon="2.649390">
        <ele>233.555</ele>
        <time>2020-07-26T05:21:10Z</time>
      </trkpt>
      <trkpt lat="41.857104" lon="2.649364">
        <ele>233.928</ele>
        <time>2020-07-26T05:21:11Z</time>
      </trkpt>
      <trkpt lat="41.857089" lon="2.649338">
        <ele>234.172</ele>
        <time>2020-07-26T05:21:12Z</time>
      </trkpt>
      <trkpt lat="41.857074" lon="2.649312">
        <ele>234.378</ele>
        <time>2020-07-26T05:21:13Z</time>
      </trkpt>
      <trkpt lat="41.857062" lon="2.649283">
        <ele>234.744</ele>
        <time>2020-07-26T05:21:14Z</time>
      </trkpt>
      <trkpt lat="41.857051" lon="2.649253">
        <ele>235.105</ele>
        <time>2020-07-26T05:21:15Z</time>
      </trkpt>
      <trkpt lat="41.857040" lon="2.649222">
        <ele>235.315</ele>
        <time>2020-07-26T05:21:16Z</time>
      </trkpt>
      <trkpt lat="41.857032" lon="2.649190">
        <ele>235.208</ele>
        <time>2020-07-26T05:21:17Z</time>
      </trkpt>
      <trkpt lat="41.857028" lon="2.649160">
        <ele>235.579</ele>
        <time>2020-07-26T05:21:18Z</time>
      </trkpt>
      <trkpt lat="41.857025" lon="2.649130">
        <ele>235.797</ele>
        <time>2020-07-26T05:21:19Z</time>
      </trkpt>
      <trkpt lat="41.857023" lon="2.649100">
        <ele>236.340</ele>
        <time>2020-07-26T05:21:20Z</time>
      </trkpt>
      <trkpt lat="41.857023" lon="2.649075">
        <ele>236.585</ele>
        <time>2020-07-26T05:21:21Z</time>
      </trkpt>
      <trkpt lat="41.857030" lon="2.649050">
        <ele>236.783</ele>
        <time>2020-07-26T05:21:22Z</time>
      </trkpt>
      <trkpt lat="41.857041" lon="2.649026">
        <ele>236.996</ele>
        <time>2020-07-26T05:21:23Z</time>
      </trkpt>
      <trkpt lat="41.857057" lon="2.649002">
        <ele>237.390</ele>
        <time>2020-07-26T05:21:24Z</time>
      </trkpt>
      <trkpt lat="41.857075" lon="2.648982">
        <ele>237.566</ele>
        <time>2020-07-26T05:21:25Z</time>
      </trkpt>
      <trkpt lat="41.857095" lon="2.648969">
        <ele>237.985</ele>
        <time>2020-07-26T05:21:26Z</time>
      </trkpt>
      <trkpt lat="41.857116" lon="2.648962">
        <ele>238.389</ele>
        <time>2020-07-26T05:21:27Z</time>
      </trkpt>
      <trkpt lat="41.857138" lon="2.648960">
        <ele>238.217</ele>
        <time>2020-07-26T05:21:28Z</time>
      </trkpt>
      <trkpt lat="41.857161" lon="2.648964">
        <ele>238.508</ele>
        <time>2020-07-26T05:21:29Z</time>
      </trkpt>
      <trkpt lat="41.857183" lon="2.648967">
        <ele>238.993</ele>
        <time>2020-07-26T05:21:30Z</time>
      </trkpt>
      <trkpt lat="41.857205" lon="2.648970">
        <ele>239.031</ele>
        <time>2020-07-26T05:21:31Z</time>
      </trkpt>
      <trkpt lat="41.857231" lon="2.648975">
        <ele>239.174</ele>
        <time>2020-07-26T05:21:32Z</time>
      </trkpt>
      <trkpt lat="41.857255" lon="2.648979">
        <ele>239.359</ele>
        <time>2020-07-26T05:21:33Z</time>
      </trkpt>
      <trkpt lat="41.857279" lon="2.648984">
        <ele>239.547</ele>
        <time>2020-07-26T05:21:34Z</time>
      </trkpt>
      <trkpt lat="41.857306" lon="2.648988">
        <ele>239.630</ele>
        <time>2020-07-26T05:21:35Z</time>
      </trkpt>
      <trkpt lat="41.857331" lon="2.648992">
        <ele>239.764</ele>
        <time>2020-07-26T05:21:36Z</time>
      </trkpt>
      <trkpt lat="41.857358" lon="2.648995">
        <ele>239.960</ele>
        <time>2020-07-26T05:21:37Z</time>
      </trkpt>
      <trkpt lat="41.857384" lon="2.649000">
        <ele>240.389</ele>
        <time>2020-07-26T05:21:38Z</time>
      </trkpt>
      <trkpt lat="41.857408" lon="2.649005">
        <ele>240.306</ele>
        <time>2020-07-26T05:21:39Z</time>
      </trkpt>
      <trkpt lat="41.857435" lon="2.649011">
        <ele>240.526</ele>
        <time>2020-07-26T05:21:40Z</time>
      </trkpt>
      <trkpt lat="41.857460" lon="2.649020">
        <ele>240.708</ele>
        <time>2020-07-26T05:21:41Z</time>
      </trkpt>
      <trkpt lat="41.857485" lon="2.649029">
        <ele>240.983</ele>
        <time>2020-07-26T05:21:42Z</time>
      </trkpt>
      <trkpt lat="41.857512" lon="2.649037">
        <ele>241.151</ele>
        <time>2020-07-26T05:21:43Z</time>
      </trkpt>
      <trkpt lat="41.857537" lon="2.649048">
        <ele>241.564</ele>
        <time>2020-07-26T05:21:44Z</time>
      </trkpt>
      <trkpt lat="41.857563" lon="2.649058">
        <ele>241.769</ele>
        <time>2020-07-26T05:21:45Z</time>
      </trkpt>
      <trkpt lat="41.857591" lon="2.649065">
        <ele>241.617</ele>
        <time>2020-07-26T05:21:46Z</time>
      </trkpt>
      <trkpt lat="41.857618" lon="2.649071">
        <ele>241.740</ele>
        <time>2020-07-26T05:21:47Z</time>
      </trkpt>
      <trkpt lat="41.857645" lon="2.649075">
        <ele>241.964</ele>
        <time>2020-07-26T05:21:48Z</time>
      </trkpt>
      <trkpt lat="41.857673" lon="2.649077">
        <ele>242.130</ele>
        <time>2020-07-26T05:21:49Z</time>
      </trkpt>
      <trkpt lat="41.857700" lon="2.649077">
        <ele>242.181</ele>
        <time>2020-07-26T05:21:50Z</time>
      </trkpt>
      <trkpt lat="41.857726" lon="2.649072">
        <ele>242.361</ele>
        <time>2020-07-26T05:21:51Z</time>
      </trkpt>
      <trkpt lat="41.857751" lon="2.649062">
        <ele>242.717</ele>
        <time>2020-07-26T05:21:52Z</time>
      </trkpt>
      <trkpt lat="41.857776" lon="2.649047">
        <ele>243.108</ele>
        <time>2020-07-26T05:21:53Z</time>
      </trkpt>
      <trkpt lat="41.857799" lon="2.649026">
        <ele>243.313</ele>
        <time>2020-07-26T05:21:54Z</time>
      </trkpt>
      <trkpt lat="41.857818" lon="2.648999">
        <ele>243.521</ele>
        <time>2020-07-26T05:21:55Z</time>
      </trkpt>
      <trkpt lat="41.857837" lon="2.648968">
        <ele>243.624</ele>
        <time>2020-07-26T05:21:56Z</time>
      </trkpt>
      <trkpt lat="41.857857" lon="2.648931">
        <ele>243.699</ele>
        <time>2020-07-26T05:21:57Z</time>
      </trkpt>
      <trkpt lat="41.857873" lon="2.648893">
        <ele>243.617</ele>
        <time>2020-07-26T05:21:58Z</time>
      </trkpt>
      <trkpt lat="41.857885" lon="2.648853">
        <ele>243.780</ele>
        <time>2020-07-26T05:21:59Z</time>
      </trkpt>
      <trkpt lat="41.857891" lon="2.648815">
        <ele>243.914</ele>
        <time>2020-07-26T05:22:00Z</time>
      </trkpt>
      <trkpt lat="41.857893" lon="2.648776">
        <ele>244.060</ele>
        <time>2020-07-26T05:22:01Z</time>
      </trkpt>
      <trkpt lat="41.857890" lon="2.648737">
        <ele>244.062</ele>
        <time>2020-07-26T05:22:02Z</time>
      </trkpt>
      <trkpt lat="41.857884" lon="2.648700">
        <ele>244.183</ele>
        <time>2020-07-26T05:22:03Z</time>
      </trkpt>
      <trkpt lat="41.857875" lon="2.648666">
        <ele>244.511</ele>
        <time>2020-07-26T05:22:04Z</time>
      </trkpt>
      <trkpt lat="41.857863" lon="2.648629">
        <ele>244.708</ele>
        <time>2020-07-26T05:22:05Z</time>
      </trkpt>
      <trkpt lat="41.857850" lon="2.648596">
        <ele>244.921</ele>
        <time>2020-07-26T05:22:06Z</time>
      </trkpt>
      <trkpt lat="41.857834" lon="2.648564">
        <ele>245.189</ele>
        <time>2020-07-26T05:22:07Z</time>
      </trkpt>
      <trkpt lat="41.857819" lon="2.648533">
        <ele>245.322</ele>
        <time>2020-07-26T05:22:08Z</time>
      </trkpt>
      <trkpt lat="41.857804" lon="2.648500">
        <ele>245.537</ele>
        <time>2020-07-26T05:22:09Z</time>
      </trkpt>
      <trkpt lat="41.857790" lon="2.648465">
        <ele>245.735</ele>
        <time>2020-07-26T05:22:10Z</time>
      </trkpt>
      <trkpt lat="41.857778" lon="2.648428">
        <ele>245.998</ele>
        <time>2020-07-26T05:22:11Z</time>
      </trkpt>
      <trkpt lat="41.857767" lon="2.648392">
        <ele>246.192</ele>
        <time>2020-07-26T05:22:12Z</time>
      </trkpt>
      <trkpt lat="41.857756" lon="2.648356">
        <ele>246.378</ele>
        <time>2020-07-26T05:22:13Z</time>
      </trkpt>
      <trkpt lat="41.857745" lon="2.648321">
        <ele>246.516</ele>
        <time>2020-07-26T05:22:14Z</time>
      </trkpt>
      <trkpt lat="41.857732" lon="2.648287">
        <ele>246.676</ele>
        <time>2020-07-26T05:22:15Z</time>
      </trkpt>
      <trkpt lat="41.857719" lon="2.648253">
        <ele>246.713</ele>
        <time>2020-07-26T05:22:16Z</time>
      </trkpt>
      <trkpt lat="41.857706" lon="2.648221">
        <ele>246.908</ele>
        <time>2020-07-26T05:22:17Z</time>
      </trkpt>
      <trkpt lat="41.857692" lon="2.648189">
        <ele>247.356</ele>
        <time>2020-07-26T05:22:18Z</time>
      </trkpt>
      <trkpt lat="41.857678" lon="2.648158">
        <ele>247.544</ele>
        <time>2020-07-26T05:22:19Z</time>
      </trkpt>
      <trkpt lat="41.857663" lon="2.648128">
        <ele>247.757</ele>
        <time>2020-07-26T05:22:20Z</time>
      </trkpt>
      <trkpt lat="41.857648" lon="2.648098">
        <ele>247.952</ele>
        <time>2020-07-26T05:22:21Z</time>
      </trkpt>
      <trkpt lat="41.857631" lon="2.648069">
        <ele>248.160</ele>
        <time>2020-07-26T05:22:22Z</time>
      </trkpt>
      <trkpt lat="41.857614" lon="2.648041">
        <ele>248.383</ele>
        <time>2020-07-26T05:22:23Z</time>
      </trkpt>
      <trkpt lat="41.857598" lon="2.648010">
        <ele>248.557</ele>
        <time>2020-07-26T05:22:24Z</time>
      </trkpt>
      <trkpt lat="41.857582" lon="2.647979">
        <ele>248.773</ele>
        <time>2020-07-26T05:22:25Z</time>
      </trkpt>
      <trkpt lat="41.857566" lon="2.647947">
        <ele>248.987</ele>
        <time>2020-07-26T05:22:26Z</time>
      </trkpt>
      <trkpt lat="41.857550" lon="2.647915">
        <ele>249.142</ele>
        <time>2020-07-26T05:22:27Z</time>
      </trkpt>
      <trkpt lat="41.857536" lon="2.647884">
        <ele>249.526</ele>
        <time>2020-07-26T05:22:28Z</time>
      </trkpt>
      <trkpt lat="41.857519" lon="2.647858">
        <ele>249.708</ele>
        <time>2020-07-26T05:22:29Z</time>
      </trkpt>
      <trkpt lat="41.857506" lon="2.647829">
        <ele>249.913</ele>
        <time>2020-07-26T05:22:30Z</time>
      </trkpt>
      <trkpt lat="41.857492" lon="2.647800">
        <ele>250.031</ele>
        <time>2020-07-26T05:22:31Z</time>
      </trkpt>
      <trkpt lat="41.857478" lon="2.647769">
        <ele>250.114</ele>
        <time>2020-07-26T05:22:32Z</time>
      </trkpt>
      <trkpt lat="41.857465" lon="2.647738">
        <ele>250.529</ele>
        <time>2020-07-26T05:22:33Z</time>
      </trkpt>
      <trkpt lat="41.857451" lon="2.647706">
        <ele>250.987</ele>
        <time>2020-07-26T05:22:34Z</time>
      </trkpt>
      <trkpt lat="41.857439" lon="2.647676">
        <ele>251.120</ele>
        <time>2020-07-26T05:22:35Z</time>
      </trkpt>
      <trkpt lat="41.857426" lon="2.647645">
        <ele>251.334</ele>
        <time>2020-07-26T05:22:36Z</time>
      </trkpt>
      <trkpt lat="41.857414" lon="2.647615">
        <ele>251.570</ele>
        <time>2020-07-26T05:22:37Z</time>
      </trkpt>
      <trkpt lat="41.857402" lon="2.647586">
        <ele>251.712</ele>
        <time>2020-07-26T05:22:38Z</time>
      </trkpt>
      <trkpt lat="41.857391" lon="2.647557">
        <ele>251.932</ele>
        <time>2020-07-26T05:22:39Z</time>
      </trkpt>
      <trkpt lat="41.857380" lon="2.647528">
        <ele>252.005</ele>
        <time>2020-07-26T05:22:40Z</time>
      </trkpt>
      <trkpt lat="41.857369" lon="2.647495">
        <ele>252.008</ele>
        <time>2020-07-26T05:22:41Z</time>
      </trkpt>
      <trkpt lat="41.857356" lon="2.647462">
        <ele>252.396</ele>
        <time>2020-07-26T05:22:42Z</time>
      </trkpt>
      <trkpt lat="41.857342" lon="2.647430">
        <ele>252.584</ele>
        <time>2020-07-26T05:22:43Z</time>
      </trkpt>
      <trkpt lat="41.857329" lon="2.647400">
        <ele>252.747</ele>
        <time>2020-07-26T05:22:44Z</time>
      </trkpt>
      <trkpt lat="41.857312" lon="2.647372">
        <ele>252.912</ele>
        <time>2020-07-26T05:22:45Z</time>
      </trkpt>
      <trkpt lat="41.857294" lon="2.647347">
        <ele>252.840</ele>
        <time>2020-07-26T05:22:46Z</time>
      </trkpt>
      <trkpt lat="41.857274" lon="2.647329">
        <ele>253.123</ele>
        <time>2020-07-26T05:22:47Z</time>
      </trkpt>
      <trkpt lat="41.857250" lon="2.647316">
        <ele>253.357</ele>
        <time>2020-07-26T05:22:48Z</time>
      </trkpt>
      <trkpt lat="41.857225" lon="2.647310">
        <ele>253.523</ele>
        <time>2020-07-26T05:22:49Z</time>
      </trkpt>
      <trkpt lat="41.857201" lon="2.647315">
        <ele>253.757</ele>
        <time>2020-07-26T05:22:50Z</time>
      </trkpt>
      <trkpt lat="41.857180" lon="2.647329">
        <ele>254.300</ele>
        <time>2020-07-26T05:22:51Z</time>
      </trkpt>
      <trkpt lat="41.857161" lon="2.647354">
        <ele>254.520</ele>
        <time>2020-07-26T05:22:52Z</time>
      </trkpt>
      <trkpt lat="41.857146" lon="2.647384">
        <ele>254.708</ele>
        <time>2020-07-26T05:22:53Z</time>
      </trkpt>
      <trkpt lat="41.857136" lon="2.647416">
        <ele>254.870</ele>
        <time>2020-07-26T05:22:54Z</time>
      </trkpt>
      <trkpt lat="41.857133" lon="2.647451">
        <ele>255.128</ele>
        <time>2020-07-26T05:22:55Z</time>
      </trkpt>
      <trkpt lat="41.857136" lon="2.647487">
        <ele>255.121</ele>
        <time>2020-07-26T05:22:56Z</time>
      </trkpt>
      <trkpt lat="41.857145" lon="2.647524">
        <ele>255.016</ele>
        <time>2020-07-26T05:22:57Z</time>
      </trkpt>
      <trkpt lat="41.857160" lon="2.647558">
        <ele>255.364</ele>
        <time>2020-07-26T05:22:58Z</time>
      </trkpt>
      <trkpt lat="41.857177" lon="2.647589">
        <ele>255.567</ele>
        <time>2020-07-26T05:22:59Z</time>
      </trkpt>
      <trkpt lat="41.857196" lon="2.647619">
        <ele>255.921</ele>
        <time>2020-07-26T05:23:00Z</time>
      </trkpt>
      <trkpt lat="41.857212" lon="2.647654">
        <ele>256.367</ele>
        <time>2020-07-26T05:23:01Z</time>
      </trkpt>
      <trkpt lat="41.857226" lon="2.647689">
        <ele>256.581</ele>
        <time>2020-07-26T05:23:02Z</time>
      </trkpt>
      <trkpt lat="41.857233" lon="2.647721">
        <ele>256.961</ele>
        <time>2020-07-26T05:23:03Z</time>
      </trkpt>
      <trkpt lat="41.857229" lon="2.647751">
        <ele>257.117</ele>
        <time>2020-07-26T05:23:04Z</time>
      </trkpt>
      <trkpt lat="41.857216" lon="2.647772">
        <ele>257.308</ele>
        <time>2020-07-26T05:23:05Z</time>
      </trkpt>
      <trkpt lat="41.857199" lon="2.647782">
        <ele>257.533</ele>
        <time>2020-07-26T05:23:06Z</time>
      </trkpt>
      <trkpt lat="41.857180" lon="2.647784">
        <ele>257.981</ele>
        <time>2020-07-26T05:23:07Z</time>
      </trkpt>
      <trkpt lat="41.857160" lon="2.647777">
        <ele>258.024</ele>
        <time>2020-07-26T05:23:08Z</time>
      </trkpt>
      <trkpt lat="41.857141" lon="2.647764">
        <ele>258.149</ele>
        <time>2020-07-26T05:23:09Z</time>
      </trkpt>
      <trkpt lat="41.857121" lon="2.647746">
        <ele>258.347</ele>
        <time>2020-07-26T05:23:10Z</time>
      </trkpt>
      <trkpt lat="41.857101" lon="2.647728">
        <ele>258.760</ele>
        <time>2020-07-26T05:23:11Z</time>
      </trkpt>
      <trkpt lat="41.857082" lon="2.647710">
        <ele>259.114</ele>
        <time>2020-07-26T05:23:12Z</time>
      </trkpt>
      <trkpt lat="41.857063" lon="2.647691">
        <ele>259.530</ele>
        <time>2020-07-26T05:23:13Z</time>
      </trkpt>
      <trkpt lat="41.857042" lon="2.647671">
        <ele>259.751</ele>
        <time>2020-07-26T05:23:14Z</time>
      </trkpt>
      <trkpt lat="41.857022" lon="2.647651">
        <ele>259.901</ele>
        <time>2020-07-26T05:23:15Z</time>
      </trkpt>
      <trkpt lat="41.857002" lon="2.647630">
        <ele>260.111</ele>
        <time>2020-07-26T05:23:16Z</time>
      </trkpt>
      <trkpt lat="41.856980" lon="2.647610">
        <ele>260.308</ele>
        <time>2020-07-26T05:23:17Z</time>
      </trkpt>
      <trkpt lat="41.856960" lon="2.647591">
        <ele>260.320</ele>
        <time>2020-07-26T05:23:18Z</time>
      </trkpt>
      <trkpt lat="41.856937" lon="2.647573">
        <ele>260.588</ele>
        <time>2020-07-26T05:23:19Z</time>
      </trkpt>
      <trkpt lat="41.856910" lon="2.647558">
        <ele>260.721</ele>
        <time>2020-07-26T05:23:20Z</time>
      </trkpt>
      <trkpt lat="41.856884" lon="2.647543">
        <ele>260.996</ele>
        <time>2020-07-26T05:23:21Z</time>
      </trkpt>
      <trkpt lat="41.856857" lon="2.647527">
        <ele>261.124</ele>
        <time>2020-07-26T05:23:22Z</time>
      </trkpt>
      <trkpt lat="41.856830" lon="2.647511">
        <ele>261.357</ele>
        <time>2020-07-26T05:23:23Z</time>
      </trkpt>
      <trkpt lat="41.856804" lon="2.647494">
        <ele>261.321</ele>
        <time>2020-07-26T05:23:24Z</time>
      </trkpt>
      <trkpt lat="41.856778" lon="2.647478">
        <ele>261.717</ele>
        <time>2020-07-26T05:23:25Z</time>
      </trkpt>
      <trkpt lat="41.856753" lon="2.647462">
        <ele>261.993</ele>
        <time>2020-07-26T05:23:26Z</time>
      </trkpt>
      <trkpt lat="41.856729" lon="2.647444">
        <ele>262.165</ele>
        <time>2020-07-26T05:23:27Z</time>
      </trkpt>
      <trkpt lat="41.856704" lon="2.647430">
        <ele>262.321</ele>
        <time>2020-07-26T05:23:28Z</time>
      </trkpt>
      <trkpt lat="41.856682" lon="2.647413">
        <ele>262.308</ele>
        <time>2020-07-26T05:23:29Z</time>
      </trkpt>
      <trkpt lat="41.856660" lon="2.647395">
        <ele>262.544</ele>
        <time>2020-07-26T05:23:30Z</time>
      </trkpt>
      <trkpt lat="41.856636" lon="2.647378">
        <ele>262.722</ele>
        <time>2020-07-26T05:23:31Z</time>
      </trkpt>
      <trkpt lat="41.856611" lon="2.647360">
        <ele>262.665</ele>
        <time>2020-07-26T05:23:32Z</time>
      </trkpt>
      <trkpt lat="41.856583" lon="2.647347">
        <ele>262.930</ele>
        <time>2020-07-26T05:23:33Z</time>
      </trkpt>
      <trkpt lat="41.856558" lon="2.647332">
        <ele>263.368</ele>
        <time>2020-07-26T05:23:34Z</time>
      </trkpt>
      <trkpt lat="41.856533" lon="2.647320">
        <ele>263.511</ele>
        <time>2020-07-26T05:23:35Z</time>
      </trkpt>
      <trkpt lat="41.856509" lon="2.647305">
        <ele>263.975</ele>
        <time>2020-07-26T05:23:36Z</time>
      </trkpt>
      <trkpt lat="41.856481" lon="2.647296">
        <ele>264.361</ele>
        <time>2020-07-26T05:23:37Z</time>
      </trkpt>
      <trkpt lat="41.856455" lon="2.647288">
        <ele>264.535</ele>
        <time>2020-07-26T05:23:38Z</time>
      </trkpt>
      <trkpt lat="41.856428" lon="2.647280">
        <ele>264.686</ele>
        <time>2020-07-26T05:23:39Z</time>
      </trkpt>
      <trkpt lat="41.856408" lon="2.647268">
        <ele>264.914</ele>
        <time>2020-07-26T05:23:40Z</time>
      </trkpt>
      <trkpt lat="41.856385" lon="2.647257">
        <ele>265.108</ele>
        <time>2020-07-26T05:23:41Z</time>
      </trkpt>
      <trkpt lat="41.856360" lon="2.647247">
        <ele>265.288</ele>
        <time>2020-07-26T05:23:42Z</time>
      </trkpt>
      <trkpt lat="41.856337" lon="2.647238">
        <ele>265.766</ele>
        <time>2020-07-26T05:23:43Z</time>
      </trkpt>
      <trkpt lat="41.856311" lon="2.647230">
        <ele>265.979</ele>
        <time>2020-07-26T05:23:44Z</time>
      </trkpt>
      <trkpt lat="41.856207" lon="2.647191">
        <ele>266.754</ele>
        <time>2020-07-26T05:23:48Z</time>
      </trkpt>
      <trkpt lat="41.856116" lon="2.647141">
        <ele>267.632</ele>
        <time>2020-07-26T05:23:52Z</time>
      </trkpt>
      <trkpt lat="41.856079" lon="2.647095">
        <ele>267.925</ele>
        <time>2020-07-26T05:23:54Z</time>
      </trkpt>
      <trkpt lat="41.856060" lon="2.647070">
        <ele>268.169</ele>
        <time>2020-07-26T05:23:55Z</time>
      </trkpt>
      <trkpt lat="41.856043" lon="2.647043">
        <ele>268.335</ele>
        <time>2020-07-26T05:23:56Z</time>
      </trkpt>
      <trkpt lat="41.856034" lon="2.647010">
        <ele>268.551</ele>
        <time>2020-07-26T05:23:57Z</time>
      </trkpt>
      <trkpt lat="41.856027" lon="2.646974">
        <ele>268.601</ele>
        <time>2020-07-26T05:23:58Z</time>
      </trkpt>
      <trkpt lat="41.856021" lon="2.646937">
        <ele>268.711</ele>
        <time>2020-07-26T05:23:59Z</time>
      </trkpt>
      <trkpt lat="41.856017" lon="2.646898">
        <ele>269.108</ele>
        <time>2020-07-26T05:24:00Z</time>
      </trkpt>
      <trkpt lat="41.856015" lon="2.646858">
        <ele>269.350</ele>
        <time>2020-07-26T05:24:01Z</time>
      </trkpt>
      <trkpt lat="41.856013" lon="2.646820">
        <ele>269.558</ele>
        <time>2020-07-26T05:24:02Z</time>
      </trkpt>
      <trkpt lat="41.856009" lon="2.646787">
        <ele>269.251</ele>
        <time>2020-07-26T05:24:03Z</time>
      </trkpt>
      <trkpt lat="41.856001" lon="2.646757">
        <ele>269.776</ele>
        <time>2020-07-26T05:24:04Z</time>
      </trkpt>
      <trkpt lat="41.855993" lon="2.646727">
        <ele>270.174</ele>
        <time>2020-07-26T05:24:05Z</time>
      </trkpt>
      <trkpt lat="41.855985" lon="2.646695">
        <ele>270.387</ele>
        <time>2020-07-26T05:24:06Z</time>
      </trkpt>
      <trkpt lat="41.855973" lon="2.646664">
        <ele>270.571</ele>
        <time>2020-07-26T05:24:07Z</time>
      </trkpt>
      <trkpt lat="41.855960" lon="2.646632">
        <ele>270.917</ele>
        <time>2020-07-26T05:24:08Z</time>
      </trkpt>
      <trkpt lat="41.855945" lon="2.646600">
        <ele>271.116</ele>
        <time>2020-07-26T05:24:09Z</time>
      </trkpt>
      <trkpt lat="41.855929" lon="2.646571">
        <ele>271.376</ele>
        <time>2020-07-26T05:24:10Z</time>
      </trkpt>
      <trkpt lat="41.855907" lon="2.646546">
        <ele>271.313</ele>
        <time>2020-07-26T05:24:11Z</time>
      </trkpt>
      <trkpt lat="41.855884" lon="2.646520">
        <ele>271.308</ele>
        <time>2020-07-26T05:24:12Z</time>
      </trkpt>
      <trkpt lat="41.855861" lon="2.646496">
        <ele>271.526</ele>
        <time>2020-07-26T05:24:13Z</time>
      </trkpt>
      <trkpt lat="41.855832" lon="2.646477">
        <ele>271.614</ele>
        <time>2020-07-26T05:24:14Z</time>
      </trkpt>
      <trkpt lat="41.855802" lon="2.646459">
        <ele>271.797</ele>
        <time>2020-07-26T05:24:15Z</time>
      </trkpt>
      <trkpt lat="41.855773" lon="2.646441">
        <ele>271.922</ele>
        <time>2020-07-26T05:24:16Z</time>
      </trkpt>
      <trkpt lat="41.855715" lon="2.646402">
        <ele>271.950</ele>
        <time>2020-07-26T05:24:18Z</time>
      </trkpt>
      <trkpt lat="41.855688" lon="2.646379">
        <ele>272.083</ele>
        <time>2020-07-26T05:24:19Z</time>
      </trkpt>
      <trkpt lat="41.855667" lon="2.646351">
        <ele>272.317</ele>
        <time>2020-07-26T05:24:20Z</time>
      </trkpt>
      <trkpt lat="41.855646" lon="2.646323">
        <ele>272.523</ele>
        <time>2020-07-26T05:24:21Z</time>
      </trkpt>
      <trkpt lat="41.855626" lon="2.646295">
        <ele>272.798</ele>
        <time>2020-07-26T05:24:22Z</time>
      </trkpt>
      <trkpt lat="41.855605" lon="2.646266">
        <ele>273.115</ele>
        <time>2020-07-26T05:24:23Z</time>
      </trkpt>
      <trkpt lat="41.855588" lon="2.646237">
        <ele>273.526</ele>
        <time>2020-07-26T05:24:24Z</time>
      </trkpt>
      <trkpt lat="41.855570" lon="2.646211">
        <ele>273.708</ele>
        <time>2020-07-26T05:24:25Z</time>
      </trkpt>
      <trkpt lat="41.855552" lon="2.646186">
        <ele>273.714</ele>
        <time>2020-07-26T05:24:26Z</time>
      </trkpt>
      <trkpt lat="41.855534" lon="2.646160">
        <ele>273.982</ele>
        <time>2020-07-26T05:24:27Z</time>
      </trkpt>
      <trkpt lat="41.855516" lon="2.646133">
        <ele>274.135</ele>
        <time>2020-07-26T05:24:28Z</time>
      </trkpt>
      <trkpt lat="41.855497" lon="2.646105">
        <ele>274.320</ele>
        <time>2020-07-26T05:24:29Z</time>
      </trkpt>
      <trkpt lat="41.855478" lon="2.646078">
        <ele>274.758</ele>
        <time>2020-07-26T05:24:30Z</time>
      </trkpt>
      <trkpt lat="41.855459" lon="2.646051">
        <ele>275.171</ele>
        <time>2020-07-26T05:24:31Z</time>
      </trkpt>
      <trkpt lat="41.855440" lon="2.646023">
        <ele>275.385</ele>
        <time>2020-07-26T05:24:32Z</time>
      </trkpt>
      <trkpt lat="41.855421" lon="2.645994">
        <ele>275.341</ele>
        <time>2020-07-26T05:24:33Z</time>
      </trkpt>
      <trkpt lat="41.855403" lon="2.645964">
        <ele>275.567</ele>
        <time>2020-07-26T05:24:34Z</time>
      </trkpt>
      <trkpt lat="41.855392" lon="2.645934">
        <ele>275.981</ele>
        <time>2020-07-26T05:24:35Z</time>
      </trkpt>
      <trkpt lat="41.855381" lon="2.645903">
        <ele>276.319</ele>
        <time>2020-07-26T05:24:36Z</time>
      </trkpt>
      <trkpt lat="41.855370" lon="2.645873">
        <ele>276.508</ele>
        <time>2020-07-26T05:24:37Z</time>
      </trkpt>
      <trkpt lat="41.855358" lon="2.645846">
        <ele>276.931</ele>
        <time>2020-07-26T05:24:38Z</time>
      </trkpt>
      <trkpt lat="41.855344" lon="2.645817">
        <ele>277.589</ele>
        <time>2020-07-26T05:24:39Z</time>
      </trkpt>
      <trkpt lat="41.855330" lon="2.645789">
        <ele>277.792</ele>
        <time>2020-07-26T05:24:40Z</time>
      </trkpt>
      <trkpt lat="41.855269" lon="2.645666">
        <ele>278.557</ele>
        <time>2020-07-26T05:24:44Z</time>
      </trkpt>
      <trkpt lat="41.855218" lon="2.645529">
        <ele>279.185</ele>
        <time>2020-07-26T05:24:48Z</time>
      </trkpt>
      <trkpt lat="41.855193" lon="2.645464">
        <ele>279.748</ele>
        <time>2020-07-26T05:24:50Z</time>
      </trkpt>
      <trkpt lat="41.855158" lon="2.645327">
        <ele>280.372</ele>
        <time>2020-07-26T05:24:54Z</time>
      </trkpt>
      <trkpt lat="41.855163" lon="2.645294">
        <ele>280.738</ele>
        <time>2020-07-26T05:24:55Z</time>
      </trkpt>
      <trkpt lat="41.855177" lon="2.645265">
        <ele>280.756</ele>
        <time>2020-07-26T05:24:56Z</time>
      </trkpt>
      <trkpt lat="41.855190" lon="2.645233">
        <ele>280.959</ele>
        <time>2020-07-26T05:24:57Z</time>
      </trkpt>
      <trkpt lat="41.855219" lon="2.645118">
        <ele>281.714</ele>
        <time>2020-07-26T05:25:00Z</time>
      </trkpt>
      <trkpt lat="41.855216" lon="2.644960">
        <ele>282.008</ele>
        <time>2020-07-26T05:25:04Z</time>
      </trkpt>
      <trkpt lat="41.855176" lon="2.644802">
        <ele>282.760</ele>
        <time>2020-07-26T05:25:08Z</time>
      </trkpt>
      <trkpt lat="41.855162" lon="2.644721">
        <ele>283.028</ele>
        <time>2020-07-26T05:25:10Z</time>
      </trkpt>
      <trkpt lat="41.855157" lon="2.644684">
        <ele>283.171</ele>
        <time>2020-07-26T05:25:11Z</time>
      </trkpt>
      <trkpt lat="41.855154" lon="2.644645">
        <ele>283.326</ele>
        <time>2020-07-26T05:25:12Z</time>
      </trkpt>
      <trkpt lat="41.855146" lon="2.644571">
        <ele>283.584</ele>
        <time>2020-07-26T05:25:14Z</time>
      </trkpt>
      <trkpt lat="41.855143" lon="2.644534">
        <ele>283.957</ele>
        <time>2020-07-26T05:25:15Z</time>
      </trkpt>
      <trkpt lat="41.855140" lon="2.644499">
        <ele>284.381</ele>
        <time>2020-07-26T05:25:16Z</time>
      </trkpt>
      <trkpt lat="41.855138" lon="2.644464">
        <ele>284.787</ele>
        <time>2020-07-26T05:25:17Z</time>
      </trkpt>
      <trkpt lat="41.855139" lon="2.644427">
        <ele>284.793</ele>
        <time>2020-07-26T05:25:18Z</time>
      </trkpt>
      <trkpt lat="41.855144" lon="2.644394">
        <ele>285.165</ele>
        <time>2020-07-26T05:25:19Z</time>
      </trkpt>
      <trkpt lat="41.855151" lon="2.644363">
        <ele>285.321</ele>
        <time>2020-07-26T05:25:20Z</time>
      </trkpt>
      <trkpt lat="41.855164" lon="2.644335">
        <ele>285.708</ele>
        <time>2020-07-26T05:25:21Z</time>
      </trkpt>
      <trkpt lat="41.855184" lon="2.644317">
        <ele>285.734</ele>
        <time>2020-07-26T05:25:22Z</time>
      </trkpt>
      <trkpt lat="41.855206" lon="2.644308">
        <ele>286.152</ele>
        <time>2020-07-26T05:25:23Z</time>
      </trkpt>
      <trkpt lat="41.855231" lon="2.644307">
        <ele>286.775</ele>
        <time>2020-07-26T05:25:24Z</time>
      </trkpt>
      <trkpt lat="41.855255" lon="2.644313">
        <ele>286.970</ele>
        <time>2020-07-26T05:25:25Z</time>
      </trkpt>
      <trkpt lat="41.855280" lon="2.644323">
        <ele>287.068</ele>
        <time>2020-07-26T05:25:26Z</time>
      </trkpt>
      <trkpt lat="41.855382" lon="2.644370">
        <ele>288.151</ele>
        <time>2020-07-26T05:25:30Z</time>
      </trkpt>
      <trkpt lat="41.855410" lon="2.644383">
        <ele>287.895</ele>
        <time>2020-07-26T05:25:31Z</time>
      </trkpt>
      <trkpt lat="41.855438" lon="2.644397">
        <ele>287.971</ele>
        <time>2020-07-26T05:25:32Z</time>
      </trkpt>
      <trkpt lat="41.855466" lon="2.644408">
        <ele>288.383</ele>
        <time>2020-07-26T05:25:33Z</time>
      </trkpt>
      <trkpt lat="41.855521" lon="2.644426">
        <ele>288.625</ele>
        <time>2020-07-26T05:25:35Z</time>
      </trkpt>
      <trkpt lat="41.855546" lon="2.644436">
        <ele>288.717</ele>
        <time>2020-07-26T05:25:36Z</time>
      </trkpt>
      <trkpt lat="41.855573" lon="2.644446">
        <ele>288.908</ele>
        <time>2020-07-26T05:25:37Z</time>
      </trkpt>
      <trkpt lat="41.855601" lon="2.644453">
        <ele>289.133</ele>
        <time>2020-07-26T05:25:38Z</time>
      </trkpt>
      <trkpt lat="41.855658" lon="2.644457">
        <ele>289.521</ele>
        <time>2020-07-26T05:25:40Z</time>
      </trkpt>
      <trkpt lat="41.855687" lon="2.644449">
        <ele>289.964</ele>
        <time>2020-07-26T05:25:41Z</time>
      </trkpt>
      <trkpt lat="41.855716" lon="2.644437">
        <ele>290.079</ele>
        <time>2020-07-26T05:25:42Z</time>
      </trkpt>
      <trkpt lat="41.855743" lon="2.644423">
        <ele>290.137</ele>
        <time>2020-07-26T05:25:43Z</time>
      </trkpt>
      <trkpt lat="41.855771" lon="2.644409">
        <ele>290.350</ele>
        <time>2020-07-26T05:25:44Z</time>
      </trkpt>
      <trkpt lat="41.855798" lon="2.644392">
        <ele>290.534</ele>
        <time>2020-07-26T05:25:45Z</time>
      </trkpt>
      <trkpt lat="41.855827" lon="2.644374">
        <ele>290.770</ele>
        <time>2020-07-26T05:25:46Z</time>
      </trkpt>
      <trkpt lat="41.855855" lon="2.644355">
        <ele>290.946</ele>
        <time>2020-07-26T05:25:47Z</time>
      </trkpt>
      <trkpt lat="41.855881" lon="2.644334">
        <ele>290.888</ele>
        <time>2020-07-26T05:25:48Z</time>
      </trkpt>
      <trkpt lat="41.855906" lon="2.644310">
        <ele>290.916</ele>
        <time>2020-07-26T05:25:49Z</time>
      </trkpt>
      <trkpt lat="41.855929" lon="2.644283">
        <ele>291.308</ele>
        <time>2020-07-26T05:25:50Z</time>
      </trkpt>
      <trkpt lat="41.855946" lon="2.644251">
        <ele>291.979</ele>
        <time>2020-07-26T05:25:51Z</time>
      </trkpt>
      <trkpt lat="41.855961" lon="2.644214">
        <ele>292.097</ele>
        <time>2020-07-26T05:25:52Z</time>
      </trkpt>
      <trkpt lat="41.855965" lon="2.644174">
        <ele>292.160</ele>
        <time>2020-07-26T05:25:53Z</time>
      </trkpt>
      <trkpt lat="41.855963" lon="2.644132">
        <ele>292.395</ele>
        <time>2020-07-26T05:25:54Z</time>
      </trkpt>
      <trkpt lat="41.855958" lon="2.644090">
        <ele>292.313</ele>
        <time>2020-07-26T05:25:55Z</time>
      </trkpt>
      <trkpt lat="41.855950" lon="2.644050">
        <ele>292.526</ele>
        <time>2020-07-26T05:25:56Z</time>
      </trkpt>
      <trkpt lat="41.855938" lon="2.644014">
        <ele>292.750</ele>
        <time>2020-07-26T05:25:57Z</time>
      </trkpt>
      <trkpt lat="41.855927" lon="2.643977">
        <ele>292.946</ele>
        <time>2020-07-26T05:25:58Z</time>
      </trkpt>
      <trkpt lat="41.855914" lon="2.643942">
        <ele>293.119</ele>
        <time>2020-07-26T05:25:59Z</time>
      </trkpt>
      <trkpt lat="41.855896" lon="2.643911">
        <ele>293.309</ele>
        <time>2020-07-26T05:26:00Z</time>
      </trkpt>
      <trkpt lat="41.855876" lon="2.643877">
        <ele>293.319</ele>
        <time>2020-07-26T05:26:01Z</time>
      </trkpt>
      <trkpt lat="41.855857" lon="2.643839">
        <ele>293.508</ele>
        <time>2020-07-26T05:26:02Z</time>
      </trkpt>
      <trkpt lat="41.855839" lon="2.643802">
        <ele>293.716</ele>
        <time>2020-07-26T05:26:03Z</time>
      </trkpt>
      <trkpt lat="41.855821" lon="2.643765">
        <ele>293.774</ele>
        <time>2020-07-26T05:26:04Z</time>
      </trkpt>
      <trkpt lat="41.855804" lon="2.643727">
        <ele>293.977</ele>
        <time>2020-07-26T05:26:05Z</time>
      </trkpt>
      <trkpt lat="41.855789" lon="2.643686">
        <ele>294.122</ele>
        <time>2020-07-26T05:26:06Z</time>
      </trkpt>
      <trkpt lat="41.855774" lon="2.643646">
        <ele>294.380</ele>
        <time>2020-07-26T05:26:07Z</time>
      </trkpt>
      <trkpt lat="41.855762" lon="2.643602">
        <ele>294.373</ele>
        <time>2020-07-26T05:26:08Z</time>
      </trkpt>
      <trkpt lat="41.855750" lon="2.643560">
        <ele>294.567</ele>
        <time>2020-07-26T05:26:09Z</time>
      </trkpt>
      <trkpt lat="41.855740" lon="2.643516">
        <ele>294.713</ele>
        <time>2020-07-26T05:26:10Z</time>
      </trkpt>
      <trkpt lat="41.855729" lon="2.643472">
        <ele>294.997</ele>
        <time>2020-07-26T05:26:11Z</time>
      </trkpt>
      <trkpt lat="41.855712" lon="2.643430">
        <ele>295.023</ele>
        <time>2020-07-26T05:26:12Z</time>
      </trkpt>
      <trkpt lat="41.855697" lon="2.643388">
        <ele>295.025</ele>
        <time>2020-07-26T05:26:13Z</time>
      </trkpt>
      <trkpt lat="41.855683" lon="2.643346">
        <ele>295.108</ele>
        <time>2020-07-26T05:26:14Z</time>
      </trkpt>
      <trkpt lat="41.855668" lon="2.643304">
        <ele>295.284</ele>
        <time>2020-07-26T05:26:15Z</time>
      </trkpt>
      <trkpt lat="41.855654" lon="2.643261">
        <ele>295.362</ele>
        <time>2020-07-26T05:26:16Z</time>
      </trkpt>
      <trkpt lat="41.855641" lon="2.643218">
        <ele>295.555</ele>
        <time>2020-07-26T05:26:17Z</time>
      </trkpt>
      <trkpt lat="41.855628" lon="2.643177">
        <ele>295.720</ele>
        <time>2020-07-26T05:26:18Z</time>
      </trkpt>
      <trkpt lat="41.855616" lon="2.643136">
        <ele>295.778</ele>
        <time>2020-07-26T05:26:19Z</time>
      </trkpt>
      <trkpt lat="41.855604" lon="2.643095">
        <ele>295.911</ele>
        <time>2020-07-26T05:26:20Z</time>
      </trkpt>
      <trkpt lat="41.855580" lon="2.643016">
        <ele>296.345</ele>
        <time>2020-07-26T05:26:22Z</time>
      </trkpt>
      <trkpt lat="41.855567" lon="2.642976">
        <ele>296.331</ele>
        <time>2020-07-26T05:26:23Z</time>
      </trkpt>
      <trkpt lat="41.855557" lon="2.642934">
        <ele>296.527</ele>
        <time>2020-07-26T05:26:24Z</time>
      </trkpt>
      <trkpt lat="41.855553" lon="2.642888">
        <ele>296.668</ele>
        <time>2020-07-26T05:26:25Z</time>
      </trkpt>
      <trkpt lat="41.855542" lon="2.642842">
        <ele>296.714</ele>
        <time>2020-07-26T05:26:26Z</time>
      </trkpt>
      <trkpt lat="41.855537" lon="2.642798">
        <ele>296.708</ele>
        <time>2020-07-26T05:26:27Z</time>
      </trkpt>
      <trkpt lat="41.855544" lon="2.642754">
        <ele>296.927</ele>
        <time>2020-07-26T05:26:28Z</time>
      </trkpt>
      <trkpt lat="41.855555" lon="2.642709">
        <ele>297.135</ele>
        <time>2020-07-26T05:26:29Z</time>
      </trkpt>
      <trkpt lat="41.855577" lon="2.642677">
        <ele>297.338</ele>
        <time>2020-07-26T05:26:30Z</time>
      </trkpt>
      <trkpt lat="41.855599" lon="2.642648">
        <ele>297.513</ele>
        <time>2020-07-26T05:26:31Z</time>
      </trkpt>
      <trkpt lat="41.855626" lon="2.642618">
        <ele>297.621</ele>
        <time>2020-07-26T05:26:32Z</time>
      </trkpt>
      <trkpt lat="41.855656" lon="2.642595">
        <ele>298.514</ele>
        <time>2020-07-26T05:26:33Z</time>
      </trkpt>
      <trkpt lat="41.855686" lon="2.642577">
        <ele>298.778</ele>
        <time>2020-07-26T05:26:34Z</time>
      </trkpt>
      <trkpt lat="41.855716" lon="2.642569">
        <ele>298.674</ele>
        <time>2020-07-26T05:26:35Z</time>
      </trkpt>
      <trkpt lat="41.855774" lon="2.642583">
        <ele>299.271</ele>
        <time>2020-07-26T05:26:37Z</time>
      </trkpt>
      <trkpt lat="41.855802" lon="2.642600">
        <ele>299.041</ele>
        <time>2020-07-26T05:26:38Z</time>
      </trkpt>
      <trkpt lat="41.855830" lon="2.642620">
        <ele>299.115</ele>
        <time>2020-07-26T05:26:39Z</time>
      </trkpt>
      <trkpt lat="41.855860" lon="2.642643">
        <ele>299.308</ele>
        <time>2020-07-26T05:26:40Z</time>
      </trkpt>
      <trkpt lat="41.855890" lon="2.642666">
        <ele>299.542</ele>
        <time>2020-07-26T05:26:41Z</time>
      </trkpt>
      <trkpt lat="41.855919" lon="2.642692">
        <ele>299.690</ele>
        <time>2020-07-26T05:26:42Z</time>
      </trkpt>
      <trkpt lat="41.855949" lon="2.642722">
        <ele>299.443</ele>
        <time>2020-07-26T05:26:43Z</time>
      </trkpt>
      <trkpt lat="41.855977" lon="2.642748">
        <ele>299.548</ele>
        <time>2020-07-26T05:26:44Z</time>
      </trkpt>
      <trkpt lat="41.856004" lon="2.642771">
        <ele>299.766</ele>
        <time>2020-07-26T05:26:45Z</time>
      </trkpt>
      <trkpt lat="41.856028" lon="2.642797">
        <ele>299.959</ele>
        <time>2020-07-26T05:26:46Z</time>
      </trkpt>
      <trkpt lat="41.856053" lon="2.642823">
        <ele>300.153</ele>
        <time>2020-07-26T05:26:47Z</time>
      </trkpt>
      <trkpt lat="41.856075" lon="2.642851">
        <ele>300.269</ele>
        <time>2020-07-26T05:26:48Z</time>
      </trkpt>
      <trkpt lat="41.856097" lon="2.642880">
        <ele>300.383</ele>
        <time>2020-07-26T05:26:49Z</time>
      </trkpt>
      <trkpt lat="41.856122" lon="2.642908">
        <ele>300.725</ele>
        <time>2020-07-26T05:26:50Z</time>
      </trkpt>
      <trkpt lat="41.856147" lon="2.642935">
        <ele>300.717</ele>
        <time>2020-07-26T05:26:51Z</time>
      </trkpt>
      <trkpt lat="41.856171" lon="2.642964">
        <ele>300.908</ele>
        <time>2020-07-26T05:26:52Z</time>
      </trkpt>
      <trkpt lat="41.856194" lon="2.642996">
        <ele>301.013</ele>
        <time>2020-07-26T05:26:53Z</time>
      </trkpt>
      <trkpt lat="41.856216" lon="2.643027">
        <ele>301.371</ele>
        <time>2020-07-26T05:26:54Z</time>
      </trkpt>
      <trkpt lat="41.856238" lon="2.643059">
        <ele>301.374</ele>
        <time>2020-07-26T05:26:55Z</time>
      </trkpt>
      <trkpt lat="41.856260" lon="2.643089">
        <ele>301.569</ele>
        <time>2020-07-26T05:26:56Z</time>
      </trkpt>
      <trkpt lat="41.856284" lon="2.643118">
        <ele>301.747</ele>
        <time>2020-07-26T05:26:57Z</time>
      </trkpt>
      <trkpt lat="41.856311" lon="2.643147">
        <ele>301.710</ele>
        <time>2020-07-26T05:26:58Z</time>
      </trkpt>
      <trkpt lat="41.856338" lon="2.643176">
        <ele>301.914</ele>
        <time>2020-07-26T05:26:59Z</time>
      </trkpt>
      <trkpt lat="41.856366" lon="2.643205">
        <ele>302.070</ele>
        <time>2020-07-26T05:27:00Z</time>
      </trkpt>
      <trkpt lat="41.856394" lon="2.643233">
        <ele>302.147</ele>
        <time>2020-07-26T05:27:01Z</time>
      </trkpt>
      <trkpt lat="41.856422" lon="2.643261">
        <ele>302.229</ele>
        <time>2020-07-26T05:27:02Z</time>
      </trkpt>
      <trkpt lat="41.856447" lon="2.643292">
        <ele>302.321</ele>
        <time>2020-07-26T05:27:03Z</time>
      </trkpt>
      <trkpt lat="41.856473" lon="2.643321">
        <ele>302.308</ele>
        <time>2020-07-26T05:27:04Z</time>
      </trkpt>
      <trkpt lat="41.856500" lon="2.643349">
        <ele>302.569</ele>
        <time>2020-07-26T05:27:05Z</time>
      </trkpt>
      <trkpt lat="41.856527" lon="2.643378">
        <ele>302.687</ele>
        <time>2020-07-26T05:27:06Z</time>
      </trkpt>
      <trkpt lat="41.856554" lon="2.643407">
        <ele>302.750</ele>
        <time>2020-07-26T05:27:07Z</time>
      </trkpt>
      <trkpt lat="41.856579" lon="2.643436">
        <ele>302.745</ele>
        <time>2020-07-26T05:27:08Z</time>
      </trkpt>
      <trkpt lat="41.856607" lon="2.643464">
        <ele>302.773</ele>
        <time>2020-07-26T05:27:09Z</time>
      </trkpt>
      <trkpt lat="41.856633" lon="2.643493">
        <ele>302.726</ele>
        <time>2020-07-26T05:27:10Z</time>
      </trkpt>
      <trkpt lat="41.856685" lon="2.643555">
        <ele>302.980</ele>
        <time>2020-07-26T05:27:12Z</time>
      </trkpt>
      <trkpt lat="41.856709" lon="2.643584">
        <ele>303.156</ele>
        <time>2020-07-26T05:27:13Z</time>
      </trkpt>
      <trkpt lat="41.856784" lon="2.643664">
        <ele>303.341</ele>
        <time>2020-07-26T05:27:16Z</time>
      </trkpt>
      <trkpt lat="41.856844" lon="2.643688">
        <ele>304.181</ele>
        <time>2020-07-26T05:27:18Z</time>
      </trkpt>
      <trkpt lat="41.856879" lon="2.643682">
        <ele>304.209</ele>
        <time>2020-07-26T05:27:19Z</time>
      </trkpt>
      <trkpt lat="41.856910" lon="2.643665">
        <ele>304.308</ele>
        <time>2020-07-26T05:27:20Z</time>
      </trkpt>
      <trkpt lat="41.856932" lon="2.643638">
        <ele>304.559</ele>
        <time>2020-07-26T05:27:21Z</time>
      </trkpt>
      <trkpt lat="41.856940" lon="2.643604">
        <ele>304.737</ele>
        <time>2020-07-26T05:27:22Z</time>
      </trkpt>
      <trkpt lat="41.856946" lon="2.643564">
        <ele>304.920</ele>
        <time>2020-07-26T05:27:23Z</time>
      </trkpt>
      <trkpt lat="41.856941" lon="2.643525">
        <ele>305.135</ele>
        <time>2020-07-26T05:27:24Z</time>
      </trkpt>
      <trkpt lat="41.856933" lon="2.643485">
        <ele>305.563</ele>
        <time>2020-07-26T05:27:25Z</time>
      </trkpt>
      <trkpt lat="41.856915" lon="2.643451">
        <ele>305.946</ele>
        <time>2020-07-26T05:27:26Z</time>
      </trkpt>
      <trkpt lat="41.856897" lon="2.643417">
        <ele>306.130</ele>
        <time>2020-07-26T05:27:27Z</time>
      </trkpt>
      <trkpt lat="41.856877" lon="2.643383">
        <ele>306.276</ele>
        <time>2020-07-26T05:27:28Z</time>
      </trkpt>
      <trkpt lat="41.856862" lon="2.643347">
        <ele>306.214</ele>
        <time>2020-07-26T05:27:29Z</time>
      </trkpt>
      <trkpt lat="41.856849" lon="2.643309">
        <ele>306.354</ele>
        <time>2020-07-26T05:27:30Z</time>
      </trkpt>
      <trkpt lat="41.856834" lon="2.643272">
        <ele>306.309</ele>
        <time>2020-07-26T05:27:31Z</time>
      </trkpt>
      <trkpt lat="41.856822" lon="2.643234">
        <ele>306.508</ele>
        <time>2020-07-26T05:27:32Z</time>
      </trkpt>
      <trkpt lat="41.856810" lon="2.643197">
        <ele>306.946</ele>
        <time>2020-07-26T05:27:33Z</time>
      </trkpt>
      <trkpt lat="41.856798" lon="2.643162">
        <ele>307.174</ele>
        <time>2020-07-26T05:27:34Z</time>
      </trkpt>
      <trkpt lat="41.856787" lon="2.643125">
        <ele>307.377</ele>
        <time>2020-07-26T05:27:35Z</time>
      </trkpt>
      <trkpt lat="41.856781" lon="2.643086">
        <ele>307.532</ele>
        <time>2020-07-26T05:27:36Z</time>
      </trkpt>
      <trkpt lat="41.856776" lon="2.643046">
        <ele>308.110</ele>
        <time>2020-07-26T05:27:37Z</time>
      </trkpt>
      <trkpt lat="41.856768" lon="2.643009">
        <ele>308.543</ele>
        <time>2020-07-26T05:27:38Z</time>
      </trkpt>
      <trkpt lat="41.856757" lon="2.642975">
        <ele>308.627</ele>
        <time>2020-07-26T05:27:39Z</time>
      </trkpt>
      <trkpt lat="41.856750" lon="2.642940">
        <ele>308.773</ele>
        <time>2020-07-26T05:27:40Z</time>
      </trkpt>
      <trkpt lat="41.856743" lon="2.642903">
        <ele>308.759</ele>
        <time>2020-07-26T05:27:41Z</time>
      </trkpt>
      <trkpt lat="41.856738" lon="2.642864">
        <ele>308.903</ele>
        <time>2020-07-26T05:27:42Z</time>
      </trkpt>
      <trkpt lat="41.856731" lon="2.642826">
        <ele>308.823</ele>
        <time>2020-07-26T05:27:43Z</time>
      </trkpt>
      <trkpt lat="41.856724" lon="2.642790">
        <ele>308.908</ele>
        <time>2020-07-26T05:27:44Z</time>
      </trkpt>
      <trkpt lat="41.856715" lon="2.642756">
        <ele>309.130</ele>
        <time>2020-07-26T05:27:45Z</time>
      </trkpt>
      <trkpt lat="41.856709" lon="2.642718">
        <ele>309.518</ele>
        <time>2020-07-26T05:27:46Z</time>
      </trkpt>
      <trkpt lat="41.856698" lon="2.642684">
        <ele>309.761</ele>
        <time>2020-07-26T05:27:47Z</time>
      </trkpt>
      <trkpt lat="41.856690" lon="2.642644">
        <ele>310.186</ele>
        <time>2020-07-26T05:27:48Z</time>
      </trkpt>
      <trkpt lat="41.856682" lon="2.642604">
        <ele>310.394</ele>
        <time>2020-07-26T05:27:49Z</time>
      </trkpt>
      <trkpt lat="41.856672" lon="2.642565">
        <ele>310.777</ele>
        <time>2020-07-26T05:27:50Z</time>
      </trkpt>
      <trkpt lat="41.856663" lon="2.642527">
        <ele>310.911</ele>
        <time>2020-07-26T05:27:51Z</time>
      </trkpt>
      <trkpt lat="41.856658" lon="2.642488">
        <ele>311.337</ele>
        <time>2020-07-26T05:27:52Z</time>
      </trkpt>
      <trkpt lat="41.856654" lon="2.642453">
        <ele>311.356</ele>
        <time>2020-07-26T05:27:53Z</time>
      </trkpt>
      <trkpt lat="41.856648" lon="2.642418">
        <ele>311.559</ele>
        <time>2020-07-26T05:27:54Z</time>
      </trkpt>
      <trkpt lat="41.856645" lon="2.642376">
        <ele>311.714</ele>
        <time>2020-07-26T05:27:55Z</time>
      </trkpt>
      <trkpt lat="41.856644" lon="2.642338">
        <ele>311.908</ele>
        <time>2020-07-26T05:27:56Z</time>
      </trkpt>
      <trkpt lat="41.856642" lon="2.642300">
        <ele>312.180</ele>
        <time>2020-07-26T05:27:57Z</time>
      </trkpt>
      <trkpt lat="41.856645" lon="2.642263">
        <ele>312.518</ele>
        <time>2020-07-26T05:27:58Z</time>
      </trkpt>
      <trkpt lat="41.856651" lon="2.642228">
        <ele>312.731</ele>
        <time>2020-07-26T05:27:59Z</time>
      </trkpt>
      <trkpt lat="41.856659" lon="2.642196">
        <ele>312.956</ele>
        <time>2020-07-26T05:28:00Z</time>
      </trkpt>
      <trkpt lat="41.856671" lon="2.642168">
        <ele>313.554</ele>
        <time>2020-07-26T05:28:01Z</time>
      </trkpt>
      <trkpt lat="41.856685" lon="2.642147">
        <ele>313.937</ele>
        <time>2020-07-26T05:28:02Z</time>
      </trkpt>
      <trkpt lat="41.856702" lon="2.642132">
        <ele>314.091</ele>
        <time>2020-07-26T05:28:03Z</time>
      </trkpt>
      <trkpt lat="41.856724" lon="2.642122">
        <ele>314.397</ele>
        <time>2020-07-26T05:28:04Z</time>
      </trkpt>
      <trkpt lat="41.856747" lon="2.642111">
        <ele>314.714</ele>
        <time>2020-07-26T05:28:05Z</time>
      </trkpt>
      <trkpt lat="41.856771" lon="2.642109">
        <ele>314.754</ele>
        <time>2020-07-26T05:28:06Z</time>
      </trkpt>
      <trkpt lat="41.856793" lon="2.642118">
        <ele>314.909</ele>
        <time>2020-07-26T05:28:07Z</time>
      </trkpt>
      <trkpt lat="41.856814" lon="2.642137">
        <ele>315.308</ele>
        <time>2020-07-26T05:28:08Z</time>
      </trkpt>
      <trkpt lat="41.856837" lon="2.642156">
        <ele>315.546</ele>
        <time>2020-07-26T05:28:09Z</time>
      </trkpt>
      <trkpt lat="41.856862" lon="2.642173">
        <ele>315.634</ele>
        <time>2020-07-26T05:28:10Z</time>
      </trkpt>
      <trkpt lat="41.856887" lon="2.642192">
        <ele>315.727</ele>
        <time>2020-07-26T05:28:11Z</time>
      </trkpt>
      <trkpt lat="41.856917" lon="2.642206">
        <ele>315.952</ele>
        <time>2020-07-26T05:28:12Z</time>
      </trkpt>
      <trkpt lat="41.856943" lon="2.642227">
        <ele>316.050</ele>
        <time>2020-07-26T05:28:13Z</time>
      </trkpt>
      <trkpt lat="41.856966" lon="2.642251">
        <ele>316.183</ele>
        <time>2020-07-26T05:28:14Z</time>
      </trkpt>
      <trkpt lat="41.856987" lon="2.642279">
        <ele>316.277</ele>
        <time>2020-07-26T05:28:15Z</time>
      </trkpt>
      <trkpt lat="41.857068" lon="2.642389">
        <ele>316.783</ele>
        <time>2020-07-26T05:28:19Z</time>
      </trkpt>
      <trkpt lat="41.857136" lon="2.642472">
        <ele>316.962</ele>
        <time>2020-07-26T05:28:22Z</time>
      </trkpt>
      <trkpt lat="41.857210" lon="2.642554">
        <ele>317.383</ele>
        <time>2020-07-26T05:28:25Z</time>
      </trkpt>
      <trkpt lat="41.857298" lon="2.642616">
        <ele>317.711</ele>
        <time>2020-07-26T05:28:28Z</time>
      </trkpt>
      <trkpt lat="41.857389" lon="2.642664">
        <ele>318.108</ele>
        <time>2020-07-26T05:28:31Z</time>
      </trkpt>
      <trkpt lat="41.857480" lon="2.642665">
        <ele>318.371</ele>
        <time>2020-07-26T05:28:34Z</time>
      </trkpt>
      <trkpt lat="41.857514" lon="2.642642">
        <ele>318.529</ele>
        <time>2020-07-26T05:28:35Z</time>
      </trkpt>
      <trkpt lat="41.857544" lon="2.642616">
        <ele>318.722</ele>
        <time>2020-07-26T05:28:36Z</time>
      </trkpt>
      <trkpt lat="41.857566" lon="2.642580">
        <ele>319.137</ele>
        <time>2020-07-26T05:28:37Z</time>
      </trkpt>
      <trkpt lat="41.857587" lon="2.642547">
        <ele>319.315</ele>
        <time>2020-07-26T05:28:38Z</time>
      </trkpt>
      <trkpt lat="41.857603" lon="2.642514">
        <ele>319.318</ele>
        <time>2020-07-26T05:28:39Z</time>
      </trkpt>
      <trkpt lat="41.857618" lon="2.642478">
        <ele>319.342</ele>
        <time>2020-07-26T05:28:40Z</time>
      </trkpt>
      <trkpt lat="41.857632" lon="2.642440">
        <ele>319.568</ele>
        <time>2020-07-26T05:28:41Z</time>
      </trkpt>
      <trkpt lat="41.857643" lon="2.642400">
        <ele>319.611</ele>
        <time>2020-07-26T05:28:42Z</time>
      </trkpt>
      <trkpt lat="41.857653" lon="2.642361">
        <ele>319.721</ele>
        <time>2020-07-26T05:28:43Z</time>
      </trkpt>
      <trkpt lat="41.857662" lon="2.642318">
        <ele>319.703</ele>
        <time>2020-07-26T05:28:44Z</time>
      </trkpt>
      <trkpt lat="41.857670" lon="2.642273">
        <ele>319.908</ele>
        <time>2020-07-26T05:28:45Z</time>
      </trkpt>
      <trkpt lat="41.857675" lon="2.642230">
        <ele>320.126</ele>
        <time>2020-07-26T05:28:46Z</time>
      </trkpt>
      <trkpt lat="41.857679" lon="2.642187">
        <ele>320.214</ele>
        <time>2020-07-26T05:28:47Z</time>
      </trkpt>
      <trkpt lat="41.857681" lon="2.642147">
        <ele>320.537</ele>
        <time>2020-07-26T05:28:48Z</time>
      </trkpt>
      <trkpt lat="41.857683" lon="2.642105">
        <ele>320.612</ele>
        <time>2020-07-26T05:28:49Z</time>
      </trkpt>
      <trkpt lat="41.857682" lon="2.642064">
        <ele>320.690</ele>
        <time>2020-07-26T05:28:50Z</time>
      </trkpt>
      <trkpt lat="41.857682" lon="2.642024">
        <ele>320.743</ele>
        <time>2020-07-26T05:28:51Z</time>
      </trkpt>
      <trkpt lat="41.857678" lon="2.641985">
        <ele>320.747</ele>
        <time>2020-07-26T05:28:52Z</time>
      </trkpt>
      <trkpt lat="41.857675" lon="2.641946">
        <ele>320.993</ele>
        <time>2020-07-26T05:28:53Z</time>
      </trkpt>
      <trkpt lat="41.857671" lon="2.641908">
        <ele>321.118</ele>
        <time>2020-07-26T05:28:54Z</time>
      </trkpt>
      <trkpt lat="41.857675" lon="2.641868">
        <ele>321.398</ele>
        <time>2020-07-26T05:28:55Z</time>
      </trkpt>
      <trkpt lat="41.857677" lon="2.641824">
        <ele>321.717</ele>
        <time>2020-07-26T05:28:56Z</time>
      </trkpt>
      <trkpt lat="41.857677" lon="2.641782">
        <ele>321.908</ele>
        <time>2020-07-26T05:28:57Z</time>
      </trkpt>
      <trkpt lat="41.857676" lon="2.641738">
        <ele>322.046</ele>
        <time>2020-07-26T05:28:58Z</time>
      </trkpt>
      <trkpt lat="41.857677" lon="2.641695">
        <ele>322.364</ele>
        <time>2020-07-26T05:28:59Z</time>
      </trkpt>
      <trkpt lat="41.857677" lon="2.641652">
        <ele>322.517</ele>
        <time>2020-07-26T05:29:00Z</time>
      </trkpt>
      <trkpt lat="41.857670" lon="2.641613">
        <ele>322.722</ele>
        <time>2020-07-26T05:29:01Z</time>
      </trkpt>
      <trkpt lat="41.857661" lon="2.641572">
        <ele>323.130</ele>
        <time>2020-07-26T05:29:02Z</time>
      </trkpt>
      <trkpt lat="41.857652" lon="2.641536">
        <ele>323.063</ele>
        <time>2020-07-26T05:29:03Z</time>
      </trkpt>
      <trkpt lat="41.857642" lon="2.641496">
        <ele>323.387</ele>
        <time>2020-07-26T05:29:04Z</time>
      </trkpt>
      <trkpt lat="41.857631" lon="2.641457">
        <ele>323.573</ele>
        <time>2020-07-26T05:29:05Z</time>
      </trkpt>
      <trkpt lat="41.857612" lon="2.641423">
        <ele>323.671</ele>
        <time>2020-07-26T05:29:06Z</time>
      </trkpt>
      <trkpt lat="41.857592" lon="2.641382">
        <ele>323.741</ele>
        <time>2020-07-26T05:29:07Z</time>
      </trkpt>
      <trkpt lat="41.857568" lon="2.641343">
        <ele>323.715</ele>
        <time>2020-07-26T05:29:08Z</time>
      </trkpt>
      <trkpt lat="41.857545" lon="2.641304">
        <ele>324.108</ele>
        <time>2020-07-26T05:29:09Z</time>
      </trkpt>
      <trkpt lat="41.857524" lon="2.641262">
        <ele>324.292</ele>
        <time>2020-07-26T05:29:10Z</time>
      </trkpt>
      <trkpt lat="41.857504" lon="2.641221">
        <ele>324.340</ele>
        <time>2020-07-26T05:29:11Z</time>
      </trkpt>
      <trkpt lat="41.857484" lon="2.641181">
        <ele>324.373</ele>
        <time>2020-07-26T05:29:12Z</time>
      </trkpt>
      <trkpt lat="41.857465" lon="2.641141">
        <ele>324.518</ele>
        <time>2020-07-26T05:29:13Z</time>
      </trkpt>
      <trkpt lat="41.857447" lon="2.641099">
        <ele>324.626</ele>
        <time>2020-07-26T05:29:14Z</time>
      </trkpt>
      <trkpt lat="41.857429" lon="2.641058">
        <ele>324.739</ele>
        <time>2020-07-26T05:29:15Z</time>
      </trkpt>
      <trkpt lat="41.857412" lon="2.641018">
        <ele>324.713</ele>
        <time>2020-07-26T05:29:16Z</time>
      </trkpt>
      <trkpt lat="41.857397" lon="2.640977">
        <ele>324.739</ele>
        <time>2020-07-26T05:29:17Z</time>
      </trkpt>
      <trkpt lat="41.857381" lon="2.640936">
        <ele>325.313</ele>
        <time>2020-07-26T05:29:18Z</time>
      </trkpt>
      <trkpt lat="41.857367" lon="2.640895">
        <ele>325.343</ele>
        <time>2020-07-26T05:29:19Z</time>
      </trkpt>
      <trkpt lat="41.857356" lon="2.640853">
        <ele>325.507</ele>
        <time>2020-07-26T05:29:20Z</time>
      </trkpt>
      <trkpt lat="41.857345" lon="2.640815">
        <ele>325.708</ele>
        <time>2020-07-26T05:29:21Z</time>
      </trkpt>
      <trkpt lat="41.857328" lon="2.640781">
        <ele>326.116</ele>
        <time>2020-07-26T05:29:22Z</time>
      </trkpt>
      <trkpt lat="41.857312" lon="2.640745">
        <ele>325.814</ele>
        <time>2020-07-26T05:29:23Z</time>
      </trkpt>
      <trkpt lat="41.857309" lon="2.640701">
        <ele>325.947</ele>
        <time>2020-07-26T05:29:24Z</time>
      </trkpt>
      <trkpt lat="41.857323" lon="2.640653">
        <ele>326.022</ele>
        <time>2020-07-26T05:29:25Z</time>
      </trkpt>
      <trkpt lat="41.857337" lon="2.640602">
        <ele>326.010</ele>
        <time>2020-07-26T05:29:26Z</time>
      </trkpt>
      <trkpt lat="41.857344" lon="2.640553">
        <ele>326.133</ele>
        <time>2020-07-26T05:29:27Z</time>
      </trkpt>
      <trkpt lat="41.857347" lon="2.640505">
        <ele>326.317</ele>
        <time>2020-07-26T05:29:28Z</time>
      </trkpt>
      <trkpt lat="41.857344" lon="2.640460">
        <ele>326.223</ele>
        <time>2020-07-26T05:29:29Z</time>
      </trkpt>
      <trkpt lat="41.857334" lon="2.640419">
        <ele>326.369</ele>
        <time>2020-07-26T05:29:30Z</time>
      </trkpt>
      <trkpt lat="41.857318" lon="2.640379">
        <ele>326.504</ele>
        <time>2020-07-26T05:29:31Z</time>
      </trkpt>
      <trkpt lat="41.857300" lon="2.640335">
        <ele>326.624</ele>
        <time>2020-07-26T05:29:32Z</time>
      </trkpt>
      <trkpt lat="41.857278" lon="2.640290">
        <ele>326.708</ele>
        <time>2020-07-26T05:29:33Z</time>
      </trkpt>
      <trkpt lat="41.857254" lon="2.640248">
        <ele>326.761</ele>
        <time>2020-07-26T05:29:34Z</time>
      </trkpt>
      <trkpt lat="41.857230" lon="2.640208">
        <ele>326.749</ele>
        <time>2020-07-26T05:29:35Z</time>
      </trkpt>
      <trkpt lat="41.857209" lon="2.640164">
        <ele>326.952</ele>
        <time>2020-07-26T05:29:36Z</time>
      </trkpt>
      <trkpt lat="41.857187" lon="2.640119">
        <ele>327.157</ele>
        <time>2020-07-26T05:29:37Z</time>
      </trkpt>
      <trkpt lat="41.857176" lon="2.640070">
        <ele>327.235</ele>
        <time>2020-07-26T05:29:38Z</time>
      </trkpt>
      <trkpt lat="41.857167" lon="2.640018">
        <ele>327.358</ele>
        <time>2020-07-26T05:29:39Z</time>
      </trkpt>
      <trkpt lat="41.857158" lon="2.639967">
        <ele>327.312</ele>
        <time>2020-07-26T05:29:40Z</time>
      </trkpt>
      <trkpt lat="41.857152" lon="2.639915">
        <ele>327.218</ele>
        <time>2020-07-26T05:29:41Z</time>
      </trkpt>
      <trkpt lat="41.857146" lon="2.639863">
        <ele>327.227</ele>
        <time>2020-07-26T05:29:42Z</time>
      </trkpt>
      <trkpt lat="41.857141" lon="2.639812">
        <ele>327.368</ele>
        <time>2020-07-26T05:29:43Z</time>
      </trkpt>
      <trkpt lat="41.857136" lon="2.639762">
        <ele>327.314</ele>
        <time>2020-07-26T05:29:44Z</time>
      </trkpt>
      <trkpt lat="41.857130" lon="2.639714">
        <ele>327.508</ele>
        <time>2020-07-26T05:29:45Z</time>
      </trkpt>
      <trkpt lat="41.857130" lon="2.639668">
        <ele>327.467</ele>
        <time>2020-07-26T05:29:46Z</time>
      </trkpt>
      <trkpt lat="41.857127" lon="2.639617">
        <ele>327.585</ele>
        <time>2020-07-26T05:29:47Z</time>
      </trkpt>
      <trkpt lat="41.857124" lon="2.639570">
        <ele>327.758</ele>
        <time>2020-07-26T05:29:48Z</time>
      </trkpt>
      <trkpt lat="41.857121" lon="2.639517">
        <ele>327.963</ele>
        <time>2020-07-26T05:29:49Z</time>
      </trkpt>
      <trkpt lat="41.857118" lon="2.639465">
        <ele>328.121</ele>
        <time>2020-07-26T05:29:50Z</time>
      </trkpt>
      <trkpt lat="41.857114" lon="2.639408">
        <ele>328.284</ele>
        <time>2020-07-26T05:29:51Z</time>
      </trkpt>
      <trkpt lat="41.857112" lon="2.639354">
        <ele>328.068</ele>
        <time>2020-07-26T05:29:52Z</time>
      </trkpt>
      <trkpt lat="41.857112" lon="2.639299">
        <ele>328.124</ele>
        <time>2020-07-26T05:29:53Z</time>
      </trkpt>
      <trkpt lat="41.857115" lon="2.639243">
        <ele>328.317</ele>
        <time>2020-07-26T05:29:54Z</time>
      </trkpt>
      <trkpt lat="41.857123" lon="2.639193">
        <ele>328.587</ele>
        <time>2020-07-26T05:29:55Z</time>
      </trkpt>
      <trkpt lat="41.857142" lon="2.639090">
        <ele>328.915</ele>
        <time>2020-07-26T05:29:57Z</time>
      </trkpt>
      <trkpt lat="41.857163" lon="2.638994">
        <ele>329.508</ele>
        <time>2020-07-26T05:29:59Z</time>
      </trkpt>
      <trkpt lat="41.857178" lon="2.638858">
        <ele>330.156</ele>
        <time>2020-07-26T05:30:02Z</time>
      </trkpt>
      <trkpt lat="41.857192" lon="2.638735">
        <ele>330.594</ele>
        <time>2020-07-26T05:30:05Z</time>
      </trkpt>
      <trkpt lat="41.857204" lon="2.638698">
        <ele>330.977</ele>
        <time>2020-07-26T05:30:06Z</time>
      </trkpt>
      <trkpt lat="41.857223" lon="2.638668">
        <ele>331.372</ele>
        <time>2020-07-26T05:30:07Z</time>
      </trkpt>
      <trkpt lat="41.857245" lon="2.638648">
        <ele>331.560</ele>
        <time>2020-07-26T05:30:08Z</time>
      </trkpt>
      <trkpt lat="41.857300" lon="2.638623">
        <ele>332.153</ele>
        <time>2020-07-26T05:30:10Z</time>
      </trkpt>
      <trkpt lat="41.857331" lon="2.638616">
        <ele>332.587</ele>
        <time>2020-07-26T05:30:11Z</time>
      </trkpt>
      <trkpt lat="41.857366" lon="2.638610">
        <ele>332.493</ele>
        <time>2020-07-26T05:30:12Z</time>
      </trkpt>
      <trkpt lat="41.857399" lon="2.638602">
        <ele>332.567</ele>
        <time>2020-07-26T05:30:13Z</time>
      </trkpt>
      <trkpt lat="41.857433" lon="2.638583">
        <ele>332.781</ele>
        <time>2020-07-26T05:30:14Z</time>
      </trkpt>
      <trkpt lat="41.857454" lon="2.638553">
        <ele>332.919</ele>
        <time>2020-07-26T05:30:15Z</time>
      </trkpt>
      <trkpt lat="41.857473" lon="2.638517">
        <ele>333.008</ele>
        <time>2020-07-26T05:30:16Z</time>
      </trkpt>
      <trkpt lat="41.857490" lon="2.638480">
        <ele>333.311</ele>
        <time>2020-07-26T05:30:17Z</time>
      </trkpt>
      <trkpt lat="41.857503" lon="2.638445">
        <ele>333.569</ele>
        <time>2020-07-26T05:30:18Z</time>
      </trkpt>
      <trkpt lat="41.857516" lon="2.638415">
        <ele>333.952</ele>
        <time>2020-07-26T05:30:19Z</time>
      </trkpt>
      <trkpt lat="41.857524" lon="2.638379">
        <ele>334.147</ele>
        <time>2020-07-26T05:30:20Z</time>
      </trkpt>
      <trkpt lat="41.857530" lon="2.638345">
        <ele>334.315</ele>
        <time>2020-07-26T05:30:21Z</time>
      </trkpt>
      <trkpt lat="41.857538" lon="2.638314">
        <ele>334.388</ele>
        <time>2020-07-26T05:30:22Z</time>
      </trkpt>
      <trkpt lat="41.857542" lon="2.638277">
        <ele>334.752</ele>
        <time>2020-07-26T05:30:23Z</time>
      </trkpt>
      <trkpt lat="41.857548" lon="2.638240">
        <ele>335.128</ele>
        <time>2020-07-26T05:30:24Z</time>
      </trkpt>
      <trkpt lat="41.857554" lon="2.638201">
        <ele>335.346</ele>
        <time>2020-07-26T05:30:25Z</time>
      </trkpt>
      <trkpt lat="41.857562" lon="2.638163">
        <ele>335.588</ele>
        <time>2020-07-26T05:30:26Z</time>
      </trkpt>
      <trkpt lat="41.857569" lon="2.638124">
        <ele>335.716</ele>
        <time>2020-07-26T05:30:27Z</time>
      </trkpt>
      <trkpt lat="41.857574" lon="2.638083">
        <ele>335.908</ele>
        <time>2020-07-26T05:30:28Z</time>
      </trkpt>
      <trkpt lat="41.857581" lon="2.638043">
        <ele>336.179</ele>
        <time>2020-07-26T05:30:29Z</time>
      </trkpt>
      <trkpt lat="41.857588" lon="2.638007">
        <ele>336.327</ele>
        <time>2020-07-26T05:30:30Z</time>
      </trkpt>
      <trkpt lat="41.857612" lon="2.637861">
        <ele>337.330</ele>
        <time>2020-07-26T05:30:34Z</time>
      </trkpt>
      <trkpt lat="41.857631" lon="2.637704">
        <ele>338.235</ele>
        <time>2020-07-26T05:30:38Z</time>
      </trkpt>
      <trkpt lat="41.857635" lon="2.637560">
        <ele>339.583</ele>
        <time>2020-07-26T05:30:42Z</time>
      </trkpt>
      <trkpt lat="41.857634" lon="2.637404">
        <ele>340.176</ele>
        <time>2020-07-26T05:30:46Z</time>
      </trkpt>
      <trkpt lat="41.857636" lon="2.637273">
        <ele>341.180</ele>
        <time>2020-07-26T05:30:50Z</time>
      </trkpt>
      <trkpt lat="41.857683" lon="2.637141">
        <ele>342.326</ele>
        <time>2020-07-26T05:30:55Z</time>
      </trkpt>
      <trkpt lat="41.857757" lon="2.637061">
        <ele>343.348</ele>
        <time>2020-07-26T05:30:59Z</time>
      </trkpt>
      <trkpt lat="41.857874" lon="2.637038">
        <ele>343.761</ele>
        <time>2020-07-26T05:31:03Z</time>
      </trkpt>
      <trkpt lat="41.857972" lon="2.637020">
        <ele>343.717</ele>
        <time>2020-07-26T05:31:06Z</time>
      </trkpt>
      <trkpt lat="41.858042" lon="2.637003">
        <ele>343.708</ele>
        <time>2020-07-26T05:31:08Z</time>
      </trkpt>
      <trkpt lat="41.858074" lon="2.636995">
        <ele>343.969</ele>
        <time>2020-07-26T05:31:09Z</time>
      </trkpt>
      <trkpt lat="41.858111" lon="2.636978">
        <ele>344.197</ele>
        <time>2020-07-26T05:31:10Z</time>
      </trkpt>
      <trkpt lat="41.858144" lon="2.636958">
        <ele>344.230</ele>
        <time>2020-07-26T05:31:11Z</time>
      </trkpt>
      <trkpt lat="41.858174" lon="2.636936">
        <ele>344.225</ele>
        <time>2020-07-26T05:31:12Z</time>
      </trkpt>
      <trkpt lat="41.858202" lon="2.636908">
        <ele>344.293</ele>
        <time>2020-07-26T05:31:13Z</time>
      </trkpt>
      <trkpt lat="41.858231" lon="2.636880">
        <ele>344.296</ele>
        <time>2020-07-26T05:31:14Z</time>
      </trkpt>
      <trkpt lat="41.858251" lon="2.636844">
        <ele>344.560</ele>
        <time>2020-07-26T05:31:15Z</time>
      </trkpt>
      <trkpt lat="41.858267" lon="2.636805">
        <ele>344.656</ele>
        <time>2020-07-26T05:31:16Z</time>
      </trkpt>
      <trkpt lat="41.858277" lon="2.636761">
        <ele>344.762</ele>
        <time>2020-07-26T05:31:17Z</time>
      </trkpt>
      <trkpt lat="41.858280" lon="2.636720">
        <ele>345.183</ele>
        <time>2020-07-26T05:31:18Z</time>
      </trkpt>
      <trkpt lat="41.858279" lon="2.636677">
        <ele>345.211</ele>
        <time>2020-07-26T05:31:19Z</time>
      </trkpt>
      <trkpt lat="41.858278" lon="2.636638">
        <ele>345.308</ele>
        <time>2020-07-26T05:31:20Z</time>
      </trkpt>
      <trkpt lat="41.858275" lon="2.636599">
        <ele>345.581</ele>
        <time>2020-07-26T05:31:21Z</time>
      </trkpt>
      <trkpt lat="41.858270" lon="2.636560">
        <ele>345.779</ele>
        <time>2020-07-26T05:31:22Z</time>
      </trkpt>
      <trkpt lat="41.858265" lon="2.636518">
        <ele>345.972</ele>
        <time>2020-07-26T05:31:23Z</time>
      </trkpt>
      <trkpt lat="41.858261" lon="2.636478">
        <ele>346.357</ele>
        <time>2020-07-26T05:31:24Z</time>
      </trkpt>
      <trkpt lat="41.858257" lon="2.636437">
        <ele>346.365</ele>
        <time>2020-07-26T05:31:25Z</time>
      </trkpt>
      <trkpt lat="41.858252" lon="2.636397">
        <ele>346.598</ele>
        <time>2020-07-26T05:31:26Z</time>
      </trkpt>
      <trkpt lat="41.858248" lon="2.636358">
        <ele>346.762</ele>
        <time>2020-07-26T05:31:27Z</time>
      </trkpt>
      <trkpt lat="41.858244" lon="2.636319">
        <ele>346.918</ele>
        <time>2020-07-26T05:31:28Z</time>
      </trkpt>
      <trkpt lat="41.858240" lon="2.636280">
        <ele>347.195</ele>
        <time>2020-07-26T05:31:29Z</time>
      </trkpt>
      <trkpt lat="41.858235" lon="2.636241">
        <ele>347.349</ele>
        <time>2020-07-26T05:31:30Z</time>
      </trkpt>
      <trkpt lat="41.858232" lon="2.636203">
        <ele>347.523</ele>
        <time>2020-07-26T05:31:31Z</time>
      </trkpt>
      <trkpt lat="41.858229" lon="2.636167">
        <ele>347.908</ele>
        <time>2020-07-26T05:31:32Z</time>
      </trkpt>
      <trkpt lat="41.858227" lon="2.636132">
        <ele>348.134</ele>
        <time>2020-07-26T05:31:33Z</time>
      </trkpt>
      <trkpt lat="41.858223" lon="2.636096">
        <ele>348.382</ele>
        <time>2020-07-26T05:31:34Z</time>
      </trkpt>
      <trkpt lat="41.858217" lon="2.636055">
        <ele>348.535</ele>
        <time>2020-07-26T05:31:35Z</time>
      </trkpt>
      <trkpt lat="41.858211" lon="2.636014">
        <ele>348.750</ele>
        <time>2020-07-26T05:31:36Z</time>
      </trkpt>
      <trkpt lat="41.858207" lon="2.635973">
        <ele>348.918</ele>
        <time>2020-07-26T05:31:37Z</time>
      </trkpt>
      <trkpt lat="41.858203" lon="2.635931">
        <ele>349.061</ele>
        <time>2020-07-26T05:31:38Z</time>
      </trkpt>
      <trkpt lat="41.858200" lon="2.635890">
        <ele>349.165</ele>
        <time>2020-07-26T05:31:39Z</time>
      </trkpt>
      <trkpt lat="41.858197" lon="2.635850">
        <ele>349.331</ele>
        <time>2020-07-26T05:31:40Z</time>
      </trkpt>
      <trkpt lat="41.858195" lon="2.635809">
        <ele>349.714</ele>
        <time>2020-07-26T05:31:41Z</time>
      </trkpt>
      <trkpt lat="41.858196" lon="2.635767">
        <ele>349.954</ele>
        <time>2020-07-26T05:31:42Z</time>
      </trkpt>
      <trkpt lat="41.858201" lon="2.635726">
        <ele>350.109</ele>
        <time>2020-07-26T05:31:43Z</time>
      </trkpt>
      <trkpt lat="41.858210" lon="2.635689">
        <ele>350.308</ele>
        <time>2020-07-26T05:31:44Z</time>
      </trkpt>
      <trkpt lat="41.858220" lon="2.635651">
        <ele>350.526</ele>
        <time>2020-07-26T05:31:45Z</time>
      </trkpt>
      <trkpt lat="41.858231" lon="2.635612">
        <ele>350.764</ele>
        <time>2020-07-26T05:31:46Z</time>
      </trkpt>
      <trkpt lat="41.858244" lon="2.635574">
        <ele>351.157</ele>
        <time>2020-07-26T05:31:47Z</time>
      </trkpt>
      <trkpt lat="41.858256" lon="2.635534">
        <ele>351.312</ele>
        <time>2020-07-26T05:31:48Z</time>
      </trkpt>
      <trkpt lat="41.858269" lon="2.635497">
        <ele>351.560</ele>
        <time>2020-07-26T05:31:49Z</time>
      </trkpt>
      <trkpt lat="41.858282" lon="2.635462">
        <ele>351.993</ele>
        <time>2020-07-26T05:31:50Z</time>
      </trkpt>
      <trkpt lat="41.858295" lon="2.635426">
        <ele>352.057</ele>
        <time>2020-07-26T05:31:51Z</time>
      </trkpt>
      <trkpt lat="41.858308" lon="2.635391">
        <ele>352.163</ele>
        <time>2020-07-26T05:31:52Z</time>
      </trkpt>
      <trkpt lat="41.858320" lon="2.635355">
        <ele>352.323</ele>
        <time>2020-07-26T05:31:53Z</time>
      </trkpt>
      <trkpt lat="41.858332" lon="2.635320">
        <ele>352.783</ele>
        <time>2020-07-26T05:31:54Z</time>
      </trkpt>
      <trkpt lat="41.858344" lon="2.635283">
        <ele>353.111</ele>
        <time>2020-07-26T05:31:55Z</time>
      </trkpt>
      <trkpt lat="41.858359" lon="2.635248">
        <ele>353.308</ele>
        <time>2020-07-26T05:31:56Z</time>
      </trkpt>
      <trkpt lat="41.858374" lon="2.635213">
        <ele>353.377</ele>
        <time>2020-07-26T05:31:57Z</time>
      </trkpt>
      <trkpt lat="41.858387" lon="2.635176">
        <ele>353.515</ele>
        <time>2020-07-26T05:31:58Z</time>
      </trkpt>
      <trkpt lat="41.858398" lon="2.635140">
        <ele>353.778</ele>
        <time>2020-07-26T05:31:59Z</time>
      </trkpt>
      <trkpt lat="41.858408" lon="2.635105">
        <ele>354.523</ele>
        <time>2020-07-26T05:32:00Z</time>
      </trkpt>
      <trkpt lat="41.858413" lon="2.635067">
        <ele>354.711</ele>
        <time>2020-07-26T05:32:01Z</time>
      </trkpt>
      <trkpt lat="41.858414" lon="2.635028">
        <ele>354.774</ele>
        <time>2020-07-26T05:32:02Z</time>
      </trkpt>
      <trkpt lat="41.858411" lon="2.634989">
        <ele>355.158</ele>
        <time>2020-07-26T05:32:03Z</time>
      </trkpt>
      <trkpt lat="41.858405" lon="2.634950">
        <ele>355.254</ele>
        <time>2020-07-26T05:32:04Z</time>
      </trkpt>
      <trkpt lat="41.858398" lon="2.634910">
        <ele>355.385</ele>
        <time>2020-07-26T05:32:05Z</time>
      </trkpt>
      <trkpt lat="41.858388" lon="2.634871">
        <ele>355.789</ele>
        <time>2020-07-26T05:32:06Z</time>
      </trkpt>
      <trkpt lat="41.858372" lon="2.634835">
        <ele>355.717</ele>
        <time>2020-07-26T05:32:07Z</time>
      </trkpt>
      <trkpt lat="41.858353" lon="2.634802">
        <ele>355.908</ele>
        <time>2020-07-26T05:32:08Z</time>
      </trkpt>
      <trkpt lat="41.858334" lon="2.634766">
        <ele>356.193</ele>
        <time>2020-07-26T05:32:09Z</time>
      </trkpt>
      <trkpt lat="41.858313" lon="2.634732">
        <ele>356.251</ele>
        <time>2020-07-26T05:32:10Z</time>
      </trkpt>
      <trkpt lat="41.858293" lon="2.634700">
        <ele>356.344</ele>
        <time>2020-07-26T05:32:11Z</time>
      </trkpt>
      <trkpt lat="41.858270" lon="2.634671">
        <ele>356.519</ele>
        <time>2020-07-26T05:32:12Z</time>
      </trkpt>
      <trkpt lat="41.858245" lon="2.634645">
        <ele>356.687</ele>
        <time>2020-07-26T05:32:13Z</time>
      </trkpt>
      <trkpt lat="41.858218" lon="2.634619">
        <ele>356.920</ele>
        <time>2020-07-26T05:32:14Z</time>
      </trkpt>
      <trkpt lat="41.858190" lon="2.634597">
        <ele>357.114</ele>
        <time>2020-07-26T05:32:15Z</time>
      </trkpt>
      <trkpt lat="41.858162" lon="2.634574">
        <ele>357.310</ele>
        <time>2020-07-26T05:32:16Z</time>
      </trkpt>
      <trkpt lat="41.858134" lon="2.634554">
        <ele>357.531</ele>
        <time>2020-07-26T05:32:17Z</time>
      </trkpt>
      <trkpt lat="41.858107" lon="2.634532">
        <ele>357.761</ele>
        <time>2020-07-26T05:32:18Z</time>
      </trkpt>
      <trkpt lat="41.858080" lon="2.634512">
        <ele>357.907</ele>
        <time>2020-07-26T05:32:19Z</time>
      </trkpt>
      <trkpt lat="41.858054" lon="2.634490">
        <ele>358.108</ele>
        <time>2020-07-26T05:32:20Z</time>
      </trkpt>
      <trkpt lat="41.858029" lon="2.634465">
        <ele>358.548</ele>
        <time>2020-07-26T05:32:21Z</time>
      </trkpt>
      <trkpt lat="41.858005" lon="2.634435">
        <ele>358.686</ele>
        <time>2020-07-26T05:32:22Z</time>
      </trkpt>
      <trkpt lat="41.857983" lon="2.634403">
        <ele>358.939</ele>
        <time>2020-07-26T05:32:23Z</time>
      </trkpt>
      <trkpt lat="41.857962" lon="2.634371">
        <ele>359.394</ele>
        <time>2020-07-26T05:32:24Z</time>
      </trkpt>
      <trkpt lat="41.857944" lon="2.634339">
        <ele>359.582</ele>
        <time>2020-07-26T05:32:25Z</time>
      </trkpt>
      <trkpt lat="41.857929" lon="2.634306">
        <ele>359.945</ele>
        <time>2020-07-26T05:32:26Z</time>
      </trkpt>
      <trkpt lat="41.857918" lon="2.634272">
        <ele>360.139</ele>
        <time>2020-07-26T05:32:27Z</time>
      </trkpt>
      <trkpt lat="41.857906" lon="2.634237">
        <ele>360.345</ele>
        <time>2020-07-26T05:32:28Z</time>
      </trkpt>
      <trkpt lat="41.857894" lon="2.634203">
        <ele>360.368</ele>
        <time>2020-07-26T05:32:29Z</time>
      </trkpt>
      <trkpt lat="41.857880" lon="2.634169">
        <ele>360.542</ele>
        <time>2020-07-26T05:32:30Z</time>
      </trkpt>
      <trkpt lat="41.857865" lon="2.634135">
        <ele>360.726</ele>
        <time>2020-07-26T05:32:31Z</time>
      </trkpt>
      <trkpt lat="41.857850" lon="2.634101">
        <ele>360.908</ele>
        <time>2020-07-26T05:32:32Z</time>
      </trkpt>
      <trkpt lat="41.857836" lon="2.634065">
        <ele>361.031</ele>
        <time>2020-07-26T05:32:33Z</time>
      </trkpt>
      <trkpt lat="41.857822" lon="2.634028">
        <ele>361.149</ele>
        <time>2020-07-26T05:32:34Z</time>
      </trkpt>
      <trkpt lat="41.857808" lon="2.633990">
        <ele>361.352</ele>
        <time>2020-07-26T05:32:35Z</time>
      </trkpt>
      <trkpt lat="41.857798" lon="2.633951">
        <ele>361.527</ele>
        <time>2020-07-26T05:32:36Z</time>
      </trkpt>
      <trkpt lat="41.857792" lon="2.633909">
        <ele>361.965</ele>
        <time>2020-07-26T05:32:37Z</time>
      </trkpt>
      <trkpt lat="41.857786" lon="2.633867">
        <ele>362.168</ele>
        <time>2020-07-26T05:32:38Z</time>
      </trkpt>
      <trkpt lat="41.857781" lon="2.633826">
        <ele>362.392</ele>
        <time>2020-07-26T05:32:39Z</time>
      </trkpt>
      <trkpt lat="41.857774" lon="2.633788">
        <ele>362.798</ele>
        <time>2020-07-26T05:32:40Z</time>
      </trkpt>
      <trkpt lat="41.857769" lon="2.633751">
        <ele>362.781</ele>
        <time>2020-07-26T05:32:41Z</time>
      </trkpt>
      <trkpt lat="41.857764" lon="2.633716">
        <ele>363.161</ele>
        <time>2020-07-26T05:32:42Z</time>
      </trkpt>
      <trkpt lat="41.857760" lon="2.633682">
        <ele>363.217</ele>
        <time>2020-07-26T05:32:43Z</time>
      </trkpt>
      <trkpt lat="41.857755" lon="2.633648">
        <ele>363.508</ele>
        <time>2020-07-26T05:32:44Z</time>
      </trkpt>
      <trkpt lat="41.857751" lon="2.633614">
        <ele>363.783</ele>
        <time>2020-07-26T05:32:45Z</time>
      </trkpt>
      <trkpt lat="41.857747" lon="2.633581">
        <ele>363.961</ele>
        <time>2020-07-26T05:32:46Z</time>
      </trkpt>
      <trkpt lat="41.857741" lon="2.633550">
        <ele>364.124</ele>
        <time>2020-07-26T05:32:47Z</time>
      </trkpt>
      <trkpt lat="41.857734" lon="2.633513">
        <ele>364.369</ele>
        <time>2020-07-26T05:32:48Z</time>
      </trkpt>
      <trkpt lat="41.857729" lon="2.633473">
        <ele>364.567</ele>
        <time>2020-07-26T05:32:49Z</time>
      </trkpt>
      <trkpt lat="41.857724" lon="2.633389">
        <ele>365.190</ele>
        <time>2020-07-26T05:32:51Z</time>
      </trkpt>
      <trkpt lat="41.857720" lon="2.633344">
        <ele>365.354</ele>
        <time>2020-07-26T05:32:52Z</time>
      </trkpt>
      <trkpt lat="41.857716" lon="2.633304">
        <ele>365.570</ele>
        <time>2020-07-26T05:32:53Z</time>
      </trkpt>
      <trkpt lat="41.857712" lon="2.633267">
        <ele>365.652</ele>
        <time>2020-07-26T05:32:54Z</time>
      </trkpt>
      <trkpt lat="41.857706" lon="2.633227">
        <ele>365.953</ele>
        <time>2020-07-26T05:32:55Z</time>
      </trkpt>
      <trkpt lat="41.857699" lon="2.633188">
        <ele>366.108</ele>
        <time>2020-07-26T05:32:56Z</time>
      </trkpt>
      <trkpt lat="41.857689" lon="2.633152">
        <ele>366.308</ele>
        <time>2020-07-26T05:32:57Z</time>
      </trkpt>
      <trkpt lat="41.857680" lon="2.633116">
        <ele>366.510</ele>
        <time>2020-07-26T05:32:58Z</time>
      </trkpt>
      <trkpt lat="41.857636" lon="2.632985">
        <ele>367.598</ele>
        <time>2020-07-26T05:33:02Z</time>
      </trkpt>
      <trkpt lat="41.857557" lon="2.632874">
        <ele>368.221</ele>
        <time>2020-07-26T05:33:06Z</time>
      </trkpt>
      <trkpt lat="41.857488" lon="2.632790">
        <ele>368.396</ele>
        <time>2020-07-26T05:33:09Z</time>
      </trkpt>
      <trkpt lat="41.857429" lon="2.632697">
        <ele>369.324</ele>
        <time>2020-07-26T05:33:12Z</time>
      </trkpt>
      <trkpt lat="41.857364" lon="2.632591">
        <ele>370.537</ele>
        <time>2020-07-26T05:33:16Z</time>
      </trkpt>
      <trkpt lat="41.857349" lon="2.632567">
        <ele>370.731</ele>
        <time>2020-07-26T05:33:17Z</time>
      </trkpt>
      <trkpt lat="41.857334" lon="2.632542">
        <ele>370.947</ele>
        <time>2020-07-26T05:33:18Z</time>
      </trkpt>
      <trkpt lat="41.857316" lon="2.632520">
        <ele>371.197</ele>
        <time>2020-07-26T05:33:19Z</time>
      </trkpt>
      <trkpt lat="41.857297" lon="2.632500">
        <ele>371.323</ele>
        <time>2020-07-26T05:33:20Z</time>
      </trkpt>
      <trkpt lat="41.857253" lon="2.632454">
        <ele>371.925</ele>
        <time>2020-07-26T05:33:22Z</time>
      </trkpt>
      <trkpt lat="41.857161" lon="2.632371">
        <ele>372.508</ele>
        <time>2020-07-26T05:33:26Z</time>
      </trkpt>
      <trkpt lat="41.857144" lon="2.632346">
        <ele>372.784</ele>
        <time>2020-07-26T05:33:27Z</time>
      </trkpt>
      <trkpt lat="41.857058" lon="2.632268">
        <ele>373.362</ele>
        <time>2020-07-26T05:33:31Z</time>
      </trkpt>
      <trkpt lat="41.856974" lon="2.632212">
        <ele>374.315</ele>
        <time>2020-07-26T05:33:35Z</time>
      </trkpt>
      <trkpt lat="41.856922" lon="2.632155">
        <ele>374.710</ele>
        <time>2020-07-26T05:33:37Z</time>
      </trkpt>
      <trkpt lat="41.856898" lon="2.632127">
        <ele>374.718</ele>
        <time>2020-07-26T05:33:38Z</time>
      </trkpt>
      <trkpt lat="41.856856" lon="2.632020">
        <ele>375.071</ele>
        <time>2020-07-26T05:33:41Z</time>
      </trkpt>
      <trkpt lat="41.856845" lon="2.631889">
        <ele>375.345</ele>
        <time>2020-07-26T05:33:44Z</time>
      </trkpt>
      <trkpt lat="41.856846" lon="2.631853">
        <ele>375.511</ele>
        <time>2020-07-26T05:33:45Z</time>
      </trkpt>
      <trkpt lat="41.856841" lon="2.631821">
        <ele>375.755</ele>
        <time>2020-07-26T05:33:46Z</time>
      </trkpt>
      <trkpt lat="41.856835" lon="2.631786">
        <ele>375.907</ele>
        <time>2020-07-26T05:33:47Z</time>
      </trkpt>
      <trkpt lat="41.856829" lon="2.631755">
        <ele>376.017</ele>
        <time>2020-07-26T05:33:48Z</time>
      </trkpt>
      <trkpt lat="41.856808" lon="2.631603">
        <ele>376.508</ele>
        <time>2020-07-26T05:33:52Z</time>
      </trkpt>
      <trkpt lat="41.856803" lon="2.631473">
        <ele>377.140</ele>
        <time>2020-07-26T05:33:56Z</time>
      </trkpt>
      <trkpt lat="41.856805" lon="2.631326">
        <ele>377.978</ele>
        <time>2020-07-26T05:34:00Z</time>
      </trkpt>
      <trkpt lat="41.856814" lon="2.631198">
        <ele>377.931</ele>
        <time>2020-07-26T05:34:03Z</time>
      </trkpt>
      <trkpt lat="41.856822" lon="2.631058">
        <ele>378.716</ele>
        <time>2020-07-26T05:34:06Z</time>
      </trkpt>
      <trkpt lat="41.856845" lon="2.630939">
        <ele>379.184</ele>
        <time>2020-07-26T05:34:09Z</time>
      </trkpt>
      <trkpt lat="41.856882" lon="2.630818">
        <ele>379.727</ele>
        <time>2020-07-26T05:34:12Z</time>
      </trkpt>
      <trkpt lat="41.856944" lon="2.630692">
        <ele>380.511</ele>
        <time>2020-07-26T05:34:16Z</time>
      </trkpt>
      <trkpt lat="41.856998" lon="2.630589">
        <ele>380.977</ele>
        <time>2020-07-26T05:34:19Z</time>
      </trkpt>
      <trkpt lat="41.857056" lon="2.630459">
        <ele>381.282</ele>
        <time>2020-07-26T05:34:23Z</time>
      </trkpt>
      <trkpt lat="41.857066" lon="2.630405">
        <ele>381.743</ele>
        <time>2020-07-26T05:34:25Z</time>
      </trkpt>
      <trkpt lat="41.857061" lon="2.630381">
        <ele>382.117</ele>
        <time>2020-07-26T05:34:26Z</time>
      </trkpt>
      <trkpt lat="41.857038" lon="2.630350">
        <ele>382.308</ele>
        <time>2020-07-26T05:34:27Z</time>
      </trkpt>
      <trkpt lat="41.856988" lon="2.630309">
        <ele>382.763</ele>
        <time>2020-07-26T05:34:29Z</time>
      </trkpt>
      <trkpt lat="41.856946" lon="2.630301">
        <ele>382.991</ele>
        <time>2020-07-26T05:34:31Z</time>
      </trkpt>
      <trkpt lat="41.856920" lon="2.630307">
        <ele>383.154</ele>
        <time>2020-07-26T05:34:32Z</time>
      </trkpt>
      <trkpt lat="41.856894" lon="2.630318">
        <ele>383.329</ele>
        <time>2020-07-26T05:34:33Z</time>
      </trkpt>
      <trkpt lat="41.856819" lon="2.630396">
        <ele>383.937</ele>
        <time>2020-07-26T05:34:37Z</time>
      </trkpt>
      <trkpt lat="41.856726" lon="2.630510">
        <ele>384.730</ele>
        <time>2020-07-26T05:34:41Z</time>
      </trkpt>
      <trkpt lat="41.856661" lon="2.630603">
        <ele>385.574</ele>
        <time>2020-07-26T05:34:44Z</time>
      </trkpt>
      <trkpt lat="41.856639" lon="2.630632">
        <ele>385.620</ele>
        <time>2020-07-26T05:34:45Z</time>
      </trkpt>
      <trkpt lat="41.856565" lon="2.630720">
        <ele>386.355</ele>
        <time>2020-07-26T05:34:49Z</time>
      </trkpt>
      <trkpt lat="41.856482" lon="2.630830">
        <ele>386.907</ele>
        <time>2020-07-26T05:34:53Z</time>
      </trkpt>
      <trkpt lat="41.856397" lon="2.630930">
        <ele>387.917</ele>
        <time>2020-07-26T05:34:57Z</time>
      </trkpt>
      <trkpt lat="41.856327" lon="2.631008">
        <ele>389.308</ele>
        <time>2020-07-26T05:35:01Z</time>
      </trkpt>
      <trkpt lat="41.856231" lon="2.631050">
        <ele>390.230</ele>
        <time>2020-07-26T05:35:05Z</time>
      </trkpt>
      <trkpt lat="41.856126" lon="2.631051">
        <ele>390.928</ele>
        <time>2020-07-26T05:35:09Z</time>
      </trkpt>
      <trkpt lat="41.856026" lon="2.631031">
        <ele>392.331</ele>
        <time>2020-07-26T05:35:13Z</time>
      </trkpt>
      <trkpt lat="41.855929" lon="2.630981">
        <ele>393.136</ele>
        <time>2020-07-26T05:35:17Z</time>
      </trkpt>
      <trkpt lat="41.855841" lon="2.630902">
        <ele>394.154</ele>
        <time>2020-07-26T05:35:21Z</time>
      </trkpt>
      <trkpt lat="41.855770" lon="2.630783">
        <ele>394.697</ele>
        <time>2020-07-26T05:35:25Z</time>
      </trkpt>
      <trkpt lat="41.855740" lon="2.630712">
        <ele>394.611</ele>
        <time>2020-07-26T05:35:27Z</time>
      </trkpt>
      <trkpt lat="41.855723" lon="2.630680">
        <ele>394.627</ele>
        <time>2020-07-26T05:35:28Z</time>
      </trkpt>
      <trkpt lat="41.855699" lon="2.630656">
        <ele>394.938</ele>
        <time>2020-07-26T05:35:29Z</time>
      </trkpt>
      <trkpt lat="41.855678" lon="2.630631">
        <ele>395.070</ele>
        <time>2020-07-26T05:35:30Z</time>
      </trkpt>
      <trkpt lat="41.855659" lon="2.630607">
        <ele>395.117</ele>
        <time>2020-07-26T05:35:31Z</time>
      </trkpt>
      <trkpt lat="41.855640" lon="2.630585">
        <ele>395.208</ele>
        <time>2020-07-26T05:35:32Z</time>
      </trkpt>
      <trkpt lat="41.855619" lon="2.630559">
        <ele>395.398</ele>
        <time>2020-07-26T05:35:33Z</time>
      </trkpt>
      <trkpt lat="41.855594" lon="2.630526">
        <ele>395.366</ele>
        <time>2020-07-26T05:35:34Z</time>
      </trkpt>
      <trkpt lat="41.855571" lon="2.630496">
        <ele>395.569</ele>
        <time>2020-07-26T05:35:35Z</time>
      </trkpt>
      <trkpt lat="41.855549" lon="2.630471">
        <ele>395.754</ele>
        <time>2020-07-26T05:35:36Z</time>
      </trkpt>
      <trkpt lat="41.855526" lon="2.630446">
        <ele>395.922</ele>
        <time>2020-07-26T05:35:37Z</time>
      </trkpt>
      <trkpt lat="41.855496" lon="2.630427">
        <ele>396.155</ele>
        <time>2020-07-26T05:35:38Z</time>
      </trkpt>
      <trkpt lat="41.855467" lon="2.630407">
        <ele>396.359</ele>
        <time>2020-07-26T05:35:39Z</time>
      </trkpt>
      <trkpt lat="41.855375" lon="2.630378">
        <ele>396.975</ele>
        <time>2020-07-26T05:35:43Z</time>
      </trkpt>
      <trkpt lat="41.855268" lon="2.630388">
        <ele>397.551</ele>
        <time>2020-07-26T05:35:48Z</time>
      </trkpt>
      <trkpt lat="41.855173" lon="2.630391">
        <ele>397.901</ele>
        <time>2020-07-26T05:35:51Z</time>
      </trkpt>
      <trkpt lat="41.855085" lon="2.630370">
        <ele>398.211</ele>
        <time>2020-07-26T05:35:54Z</time>
      </trkpt>
      <trkpt lat="41.854985" lon="2.630352">
        <ele>398.308</ele>
        <time>2020-07-26T05:35:57Z</time>
      </trkpt>
      <trkpt lat="41.854894" lon="2.630334">
        <ele>399.190</ele>
        <time>2020-07-26T05:36:00Z</time>
      </trkpt>
      <trkpt lat="41.854803" lon="2.630302">
        <ele>399.948</ele>
        <time>2020-07-26T05:36:03Z</time>
      </trkpt>
      <trkpt lat="41.854703" lon="2.630280">
        <ele>400.351</ele>
        <time>2020-07-26T05:36:06Z</time>
      </trkpt>
      <trkpt lat="41.854593" lon="2.630244">
        <ele>401.136</ele>
        <time>2020-07-26T05:36:10Z</time>
      </trkpt>
      <trkpt lat="41.854499" lon="2.630238">
        <ele>401.734</ele>
        <time>2020-07-26T05:36:13Z</time>
      </trkpt>
      <trkpt lat="41.854403" lon="2.630218">
        <ele>402.577</ele>
        <time>2020-07-26T05:36:16Z</time>
      </trkpt>
      <trkpt lat="41.854294" lon="2.630175">
        <ele>403.361</ele>
        <time>2020-07-26T05:36:20Z</time>
      </trkpt>
      <trkpt lat="41.854194" lon="2.630145">
        <ele>403.957</ele>
        <time>2020-07-26T05:36:24Z</time>
      </trkpt>
      <trkpt lat="41.854091" lon="2.630107">
        <ele>404.585</ele>
        <time>2020-07-26T05:36:28Z</time>
      </trkpt>
      <trkpt lat="41.854005" lon="2.630069">
        <ele>404.989</ele>
        <time>2020-07-26T05:36:31Z</time>
      </trkpt>
      <trkpt lat="41.853922" lon="2.629999">
        <ele>405.317</ele>
        <time>2020-07-26T05:36:34Z</time>
      </trkpt>
      <trkpt lat="41.853882" lon="2.629934">
        <ele>405.608</ele>
        <time>2020-07-26T05:36:36Z</time>
      </trkpt>
      <trkpt lat="41.853848" lon="2.629866">
        <ele>405.783</ele>
        <time>2020-07-26T05:36:38Z</time>
      </trkpt>
      <trkpt lat="41.853829" lon="2.629826">
        <ele>405.911</ele>
        <time>2020-07-26T05:36:39Z</time>
      </trkpt>
      <trkpt lat="41.853811" lon="2.629788">
        <ele>406.154</ele>
        <time>2020-07-26T05:36:40Z</time>
      </trkpt>
      <trkpt lat="41.853795" lon="2.629752">
        <ele>406.219</ele>
        <time>2020-07-26T05:36:41Z</time>
      </trkpt>
      <trkpt lat="41.853776" lon="2.629715">
        <ele>406.587</ele>
        <time>2020-07-26T05:36:42Z</time>
      </trkpt>
      <trkpt lat="41.853757" lon="2.629678">
        <ele>406.760</ele>
        <time>2020-07-26T05:36:43Z</time>
      </trkpt>
      <trkpt lat="41.853736" lon="2.629645">
        <ele>406.644</ele>
        <time>2020-07-26T05:36:44Z</time>
      </trkpt>
      <trkpt lat="41.853710" lon="2.629612">
        <ele>406.930</ele>
        <time>2020-07-26T05:36:45Z</time>
      </trkpt>
      <trkpt lat="41.853685" lon="2.629585">
        <ele>407.033</ele>
        <time>2020-07-26T05:36:46Z</time>
      </trkpt>
      <trkpt lat="41.853661" lon="2.629562">
        <ele>407.123</ele>
        <time>2020-07-26T05:36:47Z</time>
      </trkpt>
      <trkpt lat="41.853634" lon="2.629544">
        <ele>407.315</ele>
        <time>2020-07-26T05:36:48Z</time>
      </trkpt>
      <trkpt lat="41.853606" lon="2.629528">
        <ele>407.508</ele>
        <time>2020-07-26T05:36:49Z</time>
      </trkpt>
      <trkpt lat="41.853577" lon="2.629517">
        <ele>407.688</ele>
        <time>2020-07-26T05:36:50Z</time>
      </trkpt>
      <trkpt lat="41.853551" lon="2.629504">
        <ele>407.716</ele>
        <time>2020-07-26T05:36:51Z</time>
      </trkpt>
      <trkpt lat="41.853530" lon="2.629492">
        <ele>407.749</ele>
        <time>2020-07-26T05:36:52Z</time>
      </trkpt>
      <trkpt lat="41.853510" lon="2.629485">
        <ele>407.724</ele>
        <time>2020-07-26T05:36:53Z</time>
      </trkpt>
      <trkpt lat="41.853489" lon="2.629482">
        <ele>408.162</ele>
        <time>2020-07-26T05:36:54Z</time>
      </trkpt>
      <trkpt lat="41.853446" lon="2.629480">
        <ele>408.325</ele>
        <time>2020-07-26T05:36:56Z</time>
      </trkpt>
      <trkpt lat="41.853416" lon="2.629481">
        <ele>408.579</ele>
        <time>2020-07-26T05:36:57Z</time>
      </trkpt>
      <trkpt lat="41.853386" lon="2.629479">
        <ele>408.695</ele>
        <time>2020-07-26T05:36:58Z</time>
      </trkpt>
      <trkpt lat="41.853354" lon="2.629475">
        <ele>408.711</ele>
        <time>2020-07-26T05:36:59Z</time>
      </trkpt>
      <trkpt lat="41.853321" lon="2.629468">
        <ele>408.621</ele>
        <time>2020-07-26T05:37:00Z</time>
      </trkpt>
      <trkpt lat="41.853291" lon="2.629460">
        <ele>408.703</ele>
        <time>2020-07-26T05:37:01Z</time>
      </trkpt>
      <trkpt lat="41.853256" lon="2.629452">
        <ele>409.108</ele>
        <time>2020-07-26T05:37:02Z</time>
      </trkpt>
      <trkpt lat="41.853228" lon="2.629442">
        <ele>409.326</ele>
        <time>2020-07-26T05:37:03Z</time>
      </trkpt>
      <trkpt lat="41.853202" lon="2.629435">
        <ele>409.764</ele>
        <time>2020-07-26T05:37:04Z</time>
      </trkpt>
      <trkpt lat="41.853173" lon="2.629425">
        <ele>409.977</ele>
        <time>2020-07-26T05:37:05Z</time>
      </trkpt>
      <trkpt lat="41.853145" lon="2.629415">
        <ele>410.142</ele>
        <time>2020-07-26T05:37:06Z</time>
      </trkpt>
      <trkpt lat="41.853117" lon="2.629403">
        <ele>410.230</ele>
        <time>2020-07-26T05:37:07Z</time>
      </trkpt>
      <trkpt lat="41.853087" lon="2.629391">
        <ele>410.313</ele>
        <time>2020-07-26T05:37:08Z</time>
      </trkpt>
      <trkpt lat="41.853058" lon="2.629378">
        <ele>410.547</ele>
        <time>2020-07-26T05:37:09Z</time>
      </trkpt>
      <trkpt lat="41.853025" lon="2.629366">
        <ele>410.913</ele>
        <time>2020-07-26T05:37:10Z</time>
      </trkpt>
      <trkpt lat="41.852999" lon="2.629346">
        <ele>411.185</ele>
        <time>2020-07-26T05:37:11Z</time>
      </trkpt>
      <trkpt lat="41.852973" lon="2.629330">
        <ele>411.289</ele>
        <time>2020-07-26T05:37:12Z</time>
      </trkpt>
      <trkpt lat="41.852945" lon="2.629312">
        <ele>411.517</ele>
        <time>2020-07-26T05:37:13Z</time>
      </trkpt>
      <trkpt lat="41.852921" lon="2.629294">
        <ele>411.908</ele>
        <time>2020-07-26T05:37:14Z</time>
      </trkpt>
      <trkpt lat="41.852899" lon="2.629274">
        <ele>412.083</ele>
        <time>2020-07-26T05:37:15Z</time>
      </trkpt>
      <trkpt lat="41.852881" lon="2.629255">
        <ele>412.121</ele>
        <time>2020-07-26T05:37:16Z</time>
      </trkpt>
      <trkpt lat="41.852861" lon="2.629235">
        <ele>412.394</ele>
        <time>2020-07-26T05:37:17Z</time>
      </trkpt>
      <trkpt lat="41.852841" lon="2.629215">
        <ele>412.589</ele>
        <time>2020-07-26T05:37:18Z</time>
      </trkpt>
      <trkpt lat="41.852822" lon="2.629190">
        <ele>412.687</ele>
        <time>2020-07-26T05:37:19Z</time>
      </trkpt>
      <trkpt lat="41.852802" lon="2.629165">
        <ele>412.970</ele>
        <time>2020-07-26T05:37:20Z</time>
      </trkpt>
      <trkpt lat="41.852780" lon="2.629146">
        <ele>413.034</ele>
        <time>2020-07-26T05:37:21Z</time>
      </trkpt>
      <trkpt lat="41.852761" lon="2.629116">
        <ele>413.330</ele>
        <time>2020-07-26T05:37:22Z</time>
      </trkpt>
      <trkpt lat="41.852742" lon="2.629084">
        <ele>413.788</ele>
        <time>2020-07-26T05:37:23Z</time>
      </trkpt>
      <trkpt lat="41.852723" lon="2.629054">
        <ele>413.724</ele>
        <time>2020-07-26T05:37:24Z</time>
      </trkpt>
      <trkpt lat="41.852702" lon="2.629030">
        <ele>413.926</ele>
        <time>2020-07-26T05:37:25Z</time>
      </trkpt>
      <trkpt lat="41.852679" lon="2.628998">
        <ele>414.308</ele>
        <time>2020-07-26T05:37:26Z</time>
      </trkpt>
      <trkpt lat="41.852655" lon="2.628967">
        <ele>414.313</ele>
        <time>2020-07-26T05:37:27Z</time>
      </trkpt>
      <trkpt lat="41.852635" lon="2.628935">
        <ele>414.311</ele>
        <time>2020-07-26T05:37:28Z</time>
      </trkpt>
      <trkpt lat="41.852620" lon="2.628900">
        <ele>414.594</ele>
        <time>2020-07-26T05:37:29Z</time>
      </trkpt>
      <trkpt lat="41.852606" lon="2.628865">
        <ele>414.719</ele>
        <time>2020-07-26T05:37:30Z</time>
      </trkpt>
      <trkpt lat="41.852592" lon="2.628830">
        <ele>414.937</ele>
        <time>2020-07-26T05:37:31Z</time>
      </trkpt>
      <trkpt lat="41.852578" lon="2.628796">
        <ele>415.110</ele>
        <time>2020-07-26T05:37:32Z</time>
      </trkpt>
      <trkpt lat="41.852564" lon="2.628763">
        <ele>415.374</ele>
        <time>2020-07-26T05:37:33Z</time>
      </trkpt>
      <trkpt lat="41.852553" lon="2.628728">
        <ele>415.560</ele>
        <time>2020-07-26T05:37:34Z</time>
      </trkpt>
      <trkpt lat="41.852539" lon="2.628693">
        <ele>415.669</ele>
        <time>2020-07-26T05:37:35Z</time>
      </trkpt>
      <trkpt lat="41.852529" lon="2.628657">
        <ele>415.704</ele>
        <time>2020-07-26T05:37:36Z</time>
      </trkpt>
      <trkpt lat="41.852521" lon="2.628618">
        <ele>415.924</ele>
        <time>2020-07-26T05:37:37Z</time>
      </trkpt>
      <trkpt lat="41.852520" lon="2.628578">
        <ele>416.108</ele>
        <time>2020-07-26T05:37:38Z</time>
      </trkpt>
      <trkpt lat="41.852520" lon="2.628537">
        <ele>416.361</ele>
        <time>2020-07-26T05:37:39Z</time>
      </trkpt>
      <trkpt lat="41.852520" lon="2.628496">
        <ele>416.379</ele>
        <time>2020-07-26T05:37:40Z</time>
      </trkpt>
      <trkpt lat="41.852518" lon="2.628457">
        <ele>416.382</ele>
        <time>2020-07-26T05:37:41Z</time>
      </trkpt>
      <trkpt lat="41.852514" lon="2.628419">
        <ele>416.387</ele>
        <time>2020-07-26T05:37:42Z</time>
      </trkpt>
      <trkpt lat="41.852509" lon="2.628385">
        <ele>416.565</ele>
        <time>2020-07-26T05:37:43Z</time>
      </trkpt>
      <trkpt lat="41.852503" lon="2.628350">
        <ele>416.688</ele>
        <time>2020-07-26T05:37:44Z</time>
      </trkpt>
      <trkpt lat="41.852502" lon="2.628315">
        <ele>416.712</ele>
        <time>2020-07-26T05:37:45Z</time>
      </trkpt>
      <trkpt lat="41.852502" lon="2.628279">
        <ele>416.758</ele>
        <time>2020-07-26T05:37:46Z</time>
      </trkpt>
      <trkpt lat="41.852499" lon="2.628242">
        <ele>416.914</ele>
        <time>2020-07-26T05:37:47Z</time>
      </trkpt>
      <trkpt lat="41.852498" lon="2.628204">
        <ele>417.154</ele>
        <time>2020-07-26T05:37:48Z</time>
      </trkpt>
      <trkpt lat="41.852499" lon="2.628164">
        <ele>417.309</ele>
        <time>2020-07-26T05:37:49Z</time>
      </trkpt>
      <trkpt lat="41.852500" lon="2.628126">
        <ele>417.508</ele>
        <time>2020-07-26T05:37:50Z</time>
      </trkpt>
      <trkpt lat="41.852500" lon="2.628088">
        <ele>417.676</ele>
        <time>2020-07-26T05:37:51Z</time>
      </trkpt>
      <trkpt lat="41.852498" lon="2.628050">
        <ele>417.614</ele>
        <time>2020-07-26T05:37:52Z</time>
      </trkpt>
      <trkpt lat="41.852492" lon="2.628012">
        <ele>417.617</ele>
        <time>2020-07-26T05:37:53Z</time>
      </trkpt>
      <trkpt lat="41.852488" lon="2.627970">
        <ele>417.912</ele>
        <time>2020-07-26T05:37:54Z</time>
      </trkpt>
      <trkpt lat="41.852482" lon="2.627931">
        <ele>418.010</ele>
        <time>2020-07-26T05:37:55Z</time>
      </trkpt>
      <trkpt lat="41.852475" lon="2.627891">
        <ele>418.153</ele>
        <time>2020-07-26T05:37:56Z</time>
      </trkpt>
      <trkpt lat="41.852469" lon="2.627852">
        <ele>418.317</ele>
        <time>2020-07-26T05:37:57Z</time>
      </trkpt>
      <trkpt lat="41.852464" lon="2.627817">
        <ele>418.553</ele>
        <time>2020-07-26T05:37:58Z</time>
      </trkpt>
      <trkpt lat="41.852460" lon="2.627785">
        <ele>418.952</ele>
        <time>2020-07-26T05:37:59Z</time>
      </trkpt>
      <trkpt lat="41.852455" lon="2.627756">
        <ele>419.053</ele>
        <time>2020-07-26T05:38:00Z</time>
      </trkpt>
      <trkpt lat="41.852452" lon="2.627720">
        <ele>419.008</ele>
        <time>2020-07-26T05:38:01Z</time>
      </trkpt>
      <trkpt lat="41.852447" lon="2.627681">
        <ele>419.108</ele>
        <time>2020-07-26T05:38:02Z</time>
      </trkpt>
      <trkpt lat="41.852445" lon="2.627645">
        <ele>419.570</ele>
        <time>2020-07-26T05:38:03Z</time>
      </trkpt>
      <trkpt lat="41.852442" lon="2.627603">
        <ele>419.728</ele>
        <time>2020-07-26T05:38:04Z</time>
      </trkpt>
      <trkpt lat="41.852446" lon="2.627562">
        <ele>419.961</ele>
        <time>2020-07-26T05:38:05Z</time>
      </trkpt>
      <trkpt lat="41.852450" lon="2.627523">
        <ele>420.336</ele>
        <time>2020-07-26T05:38:06Z</time>
      </trkpt>
      <trkpt lat="41.852452" lon="2.627481">
        <ele>420.524</ele>
        <time>2020-07-26T05:38:07Z</time>
      </trkpt>
      <trkpt lat="41.852458" lon="2.627441">
        <ele>420.757</ele>
        <time>2020-07-26T05:38:08Z</time>
      </trkpt>
      <trkpt lat="41.852468" lon="2.627405">
        <ele>421.151</ele>
        <time>2020-07-26T05:38:09Z</time>
      </trkpt>
      <trkpt lat="41.852482" lon="2.627369">
        <ele>421.317</ele>
        <time>2020-07-26T05:38:10Z</time>
      </trkpt>
      <trkpt lat="41.852494" lon="2.627331">
        <ele>421.591</ele>
        <time>2020-07-26T05:38:11Z</time>
      </trkpt>
      <trkpt lat="41.852511" lon="2.627296">
        <ele>421.781</ele>
        <time>2020-07-26T05:38:12Z</time>
      </trkpt>
      <trkpt lat="41.852527" lon="2.627261">
        <ele>421.719</ele>
        <time>2020-07-26T05:38:13Z</time>
      </trkpt>
      <trkpt lat="41.852543" lon="2.627228">
        <ele>422.108</ele>
        <time>2020-07-26T05:38:14Z</time>
      </trkpt>
      <trkpt lat="41.852558" lon="2.627196">
        <ele>422.254</ele>
        <time>2020-07-26T05:38:15Z</time>
      </trkpt>
      <trkpt lat="41.852574" lon="2.627164">
        <ele>422.332</ele>
        <time>2020-07-26T05:38:16Z</time>
      </trkpt>
      <trkpt lat="41.852591" lon="2.627131">
        <ele>422.315</ele>
        <time>2020-07-26T05:38:17Z</time>
      </trkpt>
      <trkpt lat="41.852608" lon="2.627098">
        <ele>422.510</ele>
        <time>2020-07-26T05:38:18Z</time>
      </trkpt>
      <trkpt lat="41.852627" lon="2.627066">
        <ele>422.418</ele>
        <time>2020-07-26T05:38:19Z</time>
      </trkpt>
      <trkpt lat="41.852648" lon="2.627036">
        <ele>422.311</ele>
        <time>2020-07-26T05:38:20Z</time>
      </trkpt>
      <trkpt lat="41.852668" lon="2.627004">
        <ele>422.755</ele>
        <time>2020-07-26T05:38:21Z</time>
      </trkpt>
      <trkpt lat="41.852686" lon="2.626975">
        <ele>422.991</ele>
        <time>2020-07-26T05:38:22Z</time>
      </trkpt>
      <trkpt lat="41.852703" lon="2.626946">
        <ele>423.198</ele>
        <time>2020-07-26T05:38:23Z</time>
      </trkpt>
      <trkpt lat="41.852724" lon="2.626921">
        <ele>423.315</ele>
        <time>2020-07-26T05:38:24Z</time>
      </trkpt>
      <trkpt lat="41.852748" lon="2.626897">
        <ele>423.526</ele>
        <time>2020-07-26T05:38:25Z</time>
      </trkpt>
      <trkpt lat="41.852775" lon="2.626876">
        <ele>423.608</ele>
        <time>2020-07-26T05:38:26Z</time>
      </trkpt>
      <trkpt lat="41.852796" lon="2.626853">
        <ele>423.634</ele>
        <time>2020-07-26T05:38:27Z</time>
      </trkpt>
      <trkpt lat="41.852820" lon="2.626831">
        <ele>423.982</ele>
        <time>2020-07-26T05:38:28Z</time>
      </trkpt>
      <trkpt lat="41.852844" lon="2.626812">
        <ele>424.135</ele>
        <time>2020-07-26T05:38:29Z</time>
      </trkpt>
      <trkpt lat="41.852867" lon="2.626791">
        <ele>424.370</ele>
        <time>2020-07-26T05:38:30Z</time>
      </trkpt>
      <trkpt lat="41.852889" lon="2.626773">
        <ele>424.538</ele>
        <time>2020-07-26T05:38:31Z</time>
      </trkpt>
      <trkpt lat="41.852909" lon="2.626753">
        <ele>424.791</ele>
        <time>2020-07-26T05:38:32Z</time>
      </trkpt>
      <trkpt lat="41.852931" lon="2.626731">
        <ele>425.185</ele>
        <time>2020-07-26T05:38:33Z</time>
      </trkpt>
      <trkpt lat="41.852949" lon="2.626706">
        <ele>425.291</ele>
        <time>2020-07-26T05:38:34Z</time>
      </trkpt>
      <trkpt lat="41.852966" lon="2.626679">
        <ele>425.584</ele>
        <time>2020-07-26T05:38:35Z</time>
      </trkpt>
      <trkpt lat="41.852985" lon="2.626651">
        <ele>425.907</ele>
        <time>2020-07-26T05:38:36Z</time>
      </trkpt>
      <trkpt lat="41.853005" lon="2.626626">
        <ele>426.017</ele>
        <time>2020-07-26T05:38:37Z</time>
      </trkpt>
      <trkpt lat="41.853019" lon="2.626598">
        <ele>426.108</ele>
        <time>2020-07-26T05:38:38Z</time>
      </trkpt>
      <trkpt lat="41.853025" lon="2.626566">
        <ele>426.323</ele>
        <time>2020-07-26T05:38:39Z</time>
      </trkpt>
      <trkpt lat="41.853033" lon="2.626538">
        <ele>426.521</ele>
        <time>2020-07-26T05:38:40Z</time>
      </trkpt>
      <trkpt lat="41.853035" lon="2.626506">
        <ele>426.794</ele>
        <time>2020-07-26T05:38:41Z</time>
      </trkpt>
      <trkpt lat="41.853033" lon="2.626472">
        <ele>427.349</ele>
        <time>2020-07-26T05:38:42Z</time>
      </trkpt>
      <trkpt lat="41.853029" lon="2.626438">
        <ele>427.327</ele>
        <time>2020-07-26T05:38:43Z</time>
      </trkpt>
      <trkpt lat="41.853024" lon="2.626403">
        <ele>427.310</ele>
        <time>2020-07-26T05:38:44Z</time>
      </trkpt>
      <trkpt lat="41.853016" lon="2.626365">
        <ele>427.554</ele>
        <time>2020-07-26T05:38:45Z</time>
      </trkpt>
      <trkpt lat="41.853006" lon="2.626330">
        <ele>427.730</ele>
        <time>2020-07-26T05:38:46Z</time>
      </trkpt>
      <trkpt lat="41.852998" lon="2.626294">
        <ele>427.955</ele>
        <time>2020-07-26T05:38:47Z</time>
      </trkpt>
      <trkpt lat="41.852988" lon="2.626259">
        <ele>428.107</ele>
        <time>2020-07-26T05:38:48Z</time>
      </trkpt>
      <trkpt lat="41.852979" lon="2.626223">
        <ele>428.517</ele>
        <time>2020-07-26T05:38:49Z</time>
      </trkpt>
      <trkpt lat="41.852970" lon="2.626181">
        <ele>428.608</ele>
        <time>2020-07-26T05:38:50Z</time>
      </trkpt>
      <trkpt lat="41.852956" lon="2.626150">
        <ele>428.610</ele>
        <time>2020-07-26T05:38:51Z</time>
      </trkpt>
      <trkpt lat="41.852944" lon="2.626116">
        <ele>428.718</ele>
        <time>2020-07-26T05:38:52Z</time>
      </trkpt>
      <trkpt lat="41.852932" lon="2.626079">
        <ele>428.991</ele>
        <time>2020-07-26T05:38:53Z</time>
      </trkpt>
      <trkpt lat="41.852915" lon="2.626045">
        <ele>429.186</ele>
        <time>2020-07-26T05:38:54Z</time>
      </trkpt>
      <trkpt lat="41.852898" lon="2.626013">
        <ele>429.344</ele>
        <time>2020-07-26T05:38:55Z</time>
      </trkpt>
      <trkpt lat="41.852881" lon="2.625982">
        <ele>429.727</ele>
        <time>2020-07-26T05:38:56Z</time>
      </trkpt>
      <trkpt lat="41.852861" lon="2.625954">
        <ele>429.621</ele>
        <time>2020-07-26T05:38:57Z</time>
      </trkpt>
      <trkpt lat="41.852841" lon="2.625928">
        <ele>429.767</ele>
        <time>2020-07-26T05:38:58Z</time>
      </trkpt>
      <trkpt lat="41.852820" lon="2.625902">
        <ele>429.926</ele>
        <time>2020-07-26T05:38:59Z</time>
      </trkpt>
      <trkpt lat="41.852798" lon="2.625879">
        <ele>430.147</ele>
        <time>2020-07-26T05:39:00Z</time>
      </trkpt>
      <trkpt lat="41.852777" lon="2.625855">
        <ele>430.311</ele>
        <time>2020-07-26T05:39:01Z</time>
      </trkpt>
      <trkpt lat="41.852761" lon="2.625832">
        <ele>430.308</ele>
        <time>2020-07-26T05:39:02Z</time>
      </trkpt>
      <trkpt lat="41.852686" lon="2.625756">
        <ele>430.997</ele>
        <time>2020-07-26T05:39:06Z</time>
      </trkpt>
      <trkpt lat="41.852593" lon="2.625718">
        <ele>431.795</ele>
        <time>2020-07-26T05:39:09Z</time>
      </trkpt>
      <trkpt lat="41.852505" lon="2.625774">
        <ele>433.338</ele>
        <time>2020-07-26T05:39:14Z</time>
      </trkpt>
      <trkpt lat="41.852532" lon="2.625917">
        <ele>433.963</ele>
        <time>2020-07-26T05:39:18Z</time>
      </trkpt>
      <trkpt lat="41.852538" lon="2.625955">
        <ele>434.091</ele>
        <time>2020-07-26T05:39:19Z</time>
      </trkpt>
      <trkpt lat="41.852543" lon="2.625993">
        <ele>434.334</ele>
        <time>2020-07-26T05:39:20Z</time>
      </trkpt>
      <trkpt lat="41.852551" lon="2.626025">
        <ele>434.248</ele>
        <time>2020-07-26T05:39:21Z</time>
      </trkpt>
      <trkpt lat="41.852559" lon="2.626056">
        <ele>434.394</ele>
        <time>2020-07-26T05:39:22Z</time>
      </trkpt>
      <trkpt lat="41.852548" lon="2.626208">
        <ele>435.942</ele>
        <time>2020-07-26T05:39:27Z</time>
      </trkpt>
      <trkpt lat="41.852476" lon="2.626311">
        <ele>436.522</ele>
        <time>2020-07-26T05:39:31Z</time>
      </trkpt>
      <trkpt lat="41.852387" lon="2.626376">
        <ele>437.214</ele>
        <time>2020-07-26T05:39:35Z</time>
      </trkpt>
      <trkpt lat="41.852304" lon="2.626454">
        <ele>437.708</ele>
        <time>2020-07-26T05:39:39Z</time>
      </trkpt>
      <trkpt lat="41.852226" lon="2.626489">
        <ele>438.589</ele>
        <time>2020-07-26T05:39:42Z</time>
      </trkpt>
      <trkpt lat="41.852202" lon="2.626498">
        <ele>438.777</ele>
        <time>2020-07-26T05:39:43Z</time>
      </trkpt>
      <trkpt lat="41.852177" lon="2.626504">
        <ele>439.170</ele>
        <time>2020-07-26T05:39:44Z</time>
      </trkpt>
      <trkpt lat="41.852150" lon="2.626507">
        <ele>439.715</ele>
        <time>2020-07-26T05:39:45Z</time>
      </trkpt>
      <trkpt lat="41.852123" lon="2.626505">
        <ele>439.963</ele>
        <time>2020-07-26T05:39:46Z</time>
      </trkpt>
      <trkpt lat="41.852099" lon="2.626491">
        <ele>440.016</ele>
        <time>2020-07-26T05:39:47Z</time>
      </trkpt>
      <trkpt lat="41.852075" lon="2.626478">
        <ele>440.350</ele>
        <time>2020-07-26T05:39:48Z</time>
      </trkpt>
      <trkpt lat="41.852051" lon="2.626461">
        <ele>440.396</ele>
        <time>2020-07-26T05:39:49Z</time>
      </trkpt>
      <trkpt lat="41.852029" lon="2.626445">
        <ele>440.347</ele>
        <time>2020-07-26T05:39:50Z</time>
      </trkpt>
      <trkpt lat="41.852006" lon="2.626425">
        <ele>440.529</ele>
        <time>2020-07-26T05:39:51Z</time>
      </trkpt>
      <trkpt lat="41.851981" lon="2.626409">
        <ele>440.921</ele>
        <time>2020-07-26T05:39:52Z</time>
      </trkpt>
      <trkpt lat="41.851956" lon="2.626391">
        <ele>441.108</ele>
        <time>2020-07-26T05:39:53Z</time>
      </trkpt>
      <trkpt lat="41.851932" lon="2.626376">
        <ele>441.239</ele>
        <time>2020-07-26T05:39:54Z</time>
      </trkpt>
      <trkpt lat="41.851908" lon="2.626359">
        <ele>441.277</ele>
        <time>2020-07-26T05:39:55Z</time>
      </trkpt>
      <trkpt lat="41.851884" lon="2.626343">
        <ele>441.590</ele>
        <time>2020-07-26T05:39:56Z</time>
      </trkpt>
      <trkpt lat="41.851861" lon="2.626324">
        <ele>441.755</ele>
        <time>2020-07-26T05:39:57Z</time>
      </trkpt>
      <trkpt lat="41.851838" lon="2.626308">
        <ele>441.933</ele>
        <time>2020-07-26T05:39:58Z</time>
      </trkpt>
      <trkpt lat="41.851818" lon="2.626291">
        <ele>442.356</ele>
        <time>2020-07-26T05:39:59Z</time>
      </trkpt>
      <trkpt lat="41.851798" lon="2.626278">
        <ele>442.560</ele>
        <time>2020-07-26T05:40:00Z</time>
      </trkpt>
      <trkpt lat="41.851778" lon="2.626262">
        <ele>442.956</ele>
        <time>2020-07-26T05:40:01Z</time>
      </trkpt>
      <trkpt lat="41.851757" lon="2.626246">
        <ele>443.153</ele>
        <time>2020-07-26T05:40:02Z</time>
      </trkpt>
      <trkpt lat="41.851737" lon="2.626231">
        <ele>443.304</ele>
        <time>2020-07-26T05:40:03Z</time>
      </trkpt>
      <trkpt lat="41.851717" lon="2.626214">
        <ele>443.714</ele>
        <time>2020-07-26T05:40:04Z</time>
      </trkpt>
      <trkpt lat="41.851698" lon="2.626197">
        <ele>443.908</ele>
        <time>2020-07-26T05:40:05Z</time>
      </trkpt>
      <trkpt lat="41.851681" lon="2.626179">
        <ele>444.060</ele>
        <time>2020-07-26T05:40:06Z</time>
      </trkpt>
      <trkpt lat="41.851663" lon="2.626160">
        <ele>444.338</ele>
        <time>2020-07-26T05:40:07Z</time>
      </trkpt>
      <trkpt lat="41.851643" lon="2.626136">
        <ele>444.311</ele>
        <time>2020-07-26T05:40:08Z</time>
      </trkpt>
      <trkpt lat="41.851622" lon="2.626118">
        <ele>444.726</ele>
        <time>2020-07-26T05:40:09Z</time>
      </trkpt>
      <trkpt lat="41.851601" lon="2.626099">
        <ele>444.984</ele>
        <time>2020-07-26T05:40:10Z</time>
      </trkpt>
      <trkpt lat="41.851584" lon="2.626080">
        <ele>445.177</ele>
        <time>2020-07-26T05:40:11Z</time>
      </trkpt>
      <trkpt lat="41.851567" lon="2.626062">
        <ele>445.571</ele>
        <time>2020-07-26T05:40:12Z</time>
      </trkpt>
      <trkpt lat="41.851550" lon="2.626048">
        <ele>445.637</ele>
        <time>2020-07-26T05:40:13Z</time>
      </trkpt>
      <trkpt lat="41.851535" lon="2.626033">
        <ele>445.939</ele>
        <time>2020-07-26T05:40:14Z</time>
      </trkpt>
      <trkpt lat="41.851520" lon="2.626019">
        <ele>446.101</ele>
        <time>2020-07-26T05:40:15Z</time>
      </trkpt>
      <trkpt lat="41.851502" lon="2.626003">
        <ele>446.321</ele>
        <time>2020-07-26T05:40:16Z</time>
      </trkpt>
      <trkpt lat="41.851484" lon="2.625985">
        <ele>446.508</ele>
        <time>2020-07-26T05:40:17Z</time>
      </trkpt>
      <trkpt lat="41.851465" lon="2.625966">
        <ele>446.918</ele>
        <time>2020-07-26T05:40:18Z</time>
      </trkpt>
      <trkpt lat="41.851447" lon="2.625946">
        <ele>447.086</ele>
        <time>2020-07-26T05:40:19Z</time>
      </trkpt>
      <trkpt lat="41.851426" lon="2.625930">
        <ele>447.089</ele>
        <time>2020-07-26T05:40:20Z</time>
      </trkpt>
      <trkpt lat="41.851406" lon="2.625912">
        <ele>447.174</ele>
        <time>2020-07-26T05:40:21Z</time>
      </trkpt>
      <trkpt lat="41.851381" lon="2.625899">
        <ele>447.782</ele>
        <time>2020-07-26T05:40:22Z</time>
      </trkpt>
      <trkpt lat="41.851358" lon="2.625887">
        <ele>447.915</ele>
        <time>2020-07-26T05:40:23Z</time>
      </trkpt>
      <trkpt lat="41.851334" lon="2.625872">
        <ele>448.359</ele>
        <time>2020-07-26T05:40:24Z</time>
      </trkpt>
      <trkpt lat="41.851310" lon="2.625860">
        <ele>448.565</ele>
        <time>2020-07-26T05:40:25Z</time>
      </trkpt>
      <trkpt lat="41.851287" lon="2.625847">
        <ele>448.796</ele>
        <time>2020-07-26T05:40:26Z</time>
      </trkpt>
      <trkpt lat="41.851261" lon="2.625832">
        <ele>448.731</ele>
        <time>2020-07-26T05:40:27Z</time>
      </trkpt>
      <trkpt lat="41.851239" lon="2.625815">
        <ele>448.724</ele>
        <time>2020-07-26T05:40:28Z</time>
      </trkpt>
      <trkpt lat="41.851217" lon="2.625798">
        <ele>449.108</ele>
        <time>2020-07-26T05:40:29Z</time>
      </trkpt>
      <trkpt lat="41.851195" lon="2.625780">
        <ele>449.244</ele>
        <time>2020-07-26T05:40:30Z</time>
      </trkpt>
      <trkpt lat="41.851175" lon="2.625756">
        <ele>449.532</ele>
        <time>2020-07-26T05:40:31Z</time>
      </trkpt>
      <trkpt lat="41.851164" lon="2.625729">
        <ele>449.795</ele>
        <time>2020-07-26T05:40:32Z</time>
      </trkpt>
      <trkpt lat="41.851154" lon="2.625701">
        <ele>449.910</ele>
        <time>2020-07-26T05:40:33Z</time>
      </trkpt>
      <trkpt lat="41.851147" lon="2.625671">
        <ele>450.118</ele>
        <time>2020-07-26T05:40:34Z</time>
      </trkpt>
      <trkpt lat="41.851140" lon="2.625640">
        <ele>450.281</ele>
        <time>2020-07-26T05:40:35Z</time>
      </trkpt>
      <trkpt lat="41.851132" lon="2.625611">
        <ele>450.545</ele>
        <time>2020-07-26T05:40:36Z</time>
      </trkpt>
      <trkpt lat="41.851129" lon="2.625580">
        <ele>450.771</ele>
        <time>2020-07-26T05:40:37Z</time>
      </trkpt>
      <trkpt lat="41.851131" lon="2.625548">
        <ele>451.187</ele>
        <time>2020-07-26T05:40:38Z</time>
      </trkpt>
      <trkpt lat="41.851133" lon="2.625517">
        <ele>451.542</ele>
        <time>2020-07-26T05:40:39Z</time>
      </trkpt>
      <trkpt lat="41.851135" lon="2.625487">
        <ele>451.726</ele>
        <time>2020-07-26T05:40:40Z</time>
      </trkpt>
      <trkpt lat="41.851138" lon="2.625457">
        <ele>451.908</ele>
        <time>2020-07-26T05:40:41Z</time>
      </trkpt>
      <trkpt lat="41.851146" lon="2.625429">
        <ele>452.013</ele>
        <time>2020-07-26T05:40:42Z</time>
      </trkpt>
      <trkpt lat="41.851154" lon="2.625403">
        <ele>452.131</ele>
        <time>2020-07-26T05:40:43Z</time>
      </trkpt>
      <trkpt lat="41.851167" lon="2.625378">
        <ele>452.054</ele>
        <time>2020-07-26T05:40:44Z</time>
      </trkpt>
      <trkpt lat="41.851178" lon="2.625353">
        <ele>452.199</ele>
        <time>2020-07-26T05:40:45Z</time>
      </trkpt>
      <trkpt lat="41.851193" lon="2.625330">
        <ele>452.557</ele>
        <time>2020-07-26T05:40:46Z</time>
      </trkpt>
      <trkpt lat="41.851210" lon="2.625310">
        <ele>452.650</ele>
        <time>2020-07-26T05:40:47Z</time>
      </trkpt>
      <trkpt lat="41.851227" lon="2.625289">
        <ele>452.734</ele>
        <time>2020-07-26T05:40:48Z</time>
      </trkpt>
      <trkpt lat="41.851244" lon="2.625268">
        <ele>452.750</ele>
        <time>2020-07-26T05:40:49Z</time>
      </trkpt>
      <trkpt lat="41.851261" lon="2.625246">
        <ele>452.932</ele>
        <time>2020-07-26T05:40:50Z</time>
      </trkpt>
      <trkpt lat="41.851281" lon="2.625227">
        <ele>453.192</ele>
        <time>2020-07-26T05:40:51Z</time>
      </trkpt>
      <trkpt lat="41.851300" lon="2.625206">
        <ele>453.211</ele>
        <time>2020-07-26T05:40:52Z</time>
      </trkpt>
      <trkpt lat="41.851319" lon="2.625182">
        <ele>453.508</ele>
        <time>2020-07-26T05:40:53Z</time>
      </trkpt>
      <trkpt lat="41.851338" lon="2.625155">
        <ele>453.928</ele>
        <time>2020-07-26T05:40:54Z</time>
      </trkpt>
      <trkpt lat="41.851357" lon="2.625132">
        <ele>454.356</ele>
        <time>2020-07-26T05:40:55Z</time>
      </trkpt>
      <trkpt lat="41.851378" lon="2.625110">
        <ele>454.319</ele>
        <time>2020-07-26T05:40:56Z</time>
      </trkpt>
      <trkpt lat="41.851399" lon="2.625090">
        <ele>454.374</ele>
        <time>2020-07-26T05:40:57Z</time>
      </trkpt>
      <trkpt lat="41.851417" lon="2.625068">
        <ele>454.542</ele>
        <time>2020-07-26T05:40:58Z</time>
      </trkpt>
      <trkpt lat="41.851436" lon="2.625046">
        <ele>454.755</ele>
        <time>2020-07-26T05:40:59Z</time>
      </trkpt>
      <trkpt lat="41.851454" lon="2.625025">
        <ele>454.999</ele>
        <time>2020-07-26T05:41:00Z</time>
      </trkpt>
      <trkpt lat="41.851471" lon="2.625004">
        <ele>455.395</ele>
        <time>2020-07-26T05:41:01Z</time>
      </trkpt>
      <trkpt lat="41.851488" lon="2.624985">
        <ele>455.567</ele>
        <time>2020-07-26T05:41:02Z</time>
      </trkpt>
      <trkpt lat="41.851504" lon="2.624966">
        <ele>455.781</ele>
        <time>2020-07-26T05:41:03Z</time>
      </trkpt>
      <trkpt lat="41.851523" lon="2.624946">
        <ele>455.919</ele>
        <time>2020-07-26T05:41:04Z</time>
      </trkpt>
      <trkpt lat="41.851536" lon="2.624918">
        <ele>456.108</ele>
        <time>2020-07-26T05:41:05Z</time>
      </trkpt>
      <trkpt lat="41.851553" lon="2.624897">
        <ele>456.521</ele>
        <time>2020-07-26T05:41:06Z</time>
      </trkpt>
      <trkpt lat="41.851570" lon="2.624875">
        <ele>456.759</ele>
        <time>2020-07-26T05:41:07Z</time>
      </trkpt>
      <trkpt lat="41.851580" lon="2.624848">
        <ele>457.152</ele>
        <time>2020-07-26T05:41:08Z</time>
      </trkpt>
      <trkpt lat="41.851588" lon="2.624820">
        <ele>457.237</ele>
        <time>2020-07-26T05:41:09Z</time>
      </trkpt>
      <trkpt lat="41.851592" lon="2.624789">
        <ele>457.315</ele>
        <time>2020-07-26T05:41:10Z</time>
      </trkpt>
      <trkpt lat="41.851589" lon="2.624756">
        <ele>457.568</ele>
        <time>2020-07-26T05:41:11Z</time>
      </trkpt>
      <trkpt lat="41.851584" lon="2.624720">
        <ele>457.722</ele>
        <time>2020-07-26T05:41:12Z</time>
      </trkpt>
      <trkpt lat="41.851576" lon="2.624688">
        <ele>457.758</ele>
        <time>2020-07-26T05:41:13Z</time>
      </trkpt>
      <trkpt lat="41.851564" lon="2.624654">
        <ele>457.924</ele>
        <time>2020-07-26T05:41:14Z</time>
      </trkpt>
      <trkpt lat="41.851550" lon="2.624621">
        <ele>458.104</ele>
        <time>2020-07-26T05:41:15Z</time>
      </trkpt>
      <trkpt lat="41.851535" lon="2.624594">
        <ele>458.314</ele>
        <time>2020-07-26T05:41:16Z</time>
      </trkpt>
      <trkpt lat="41.851518" lon="2.624569">
        <ele>458.308</ele>
        <time>2020-07-26T05:41:17Z</time>
      </trkpt>
      <trkpt lat="41.851498" lon="2.624541">
        <ele>458.327</ele>
        <time>2020-07-26T05:41:18Z</time>
      </trkpt>
      <trkpt lat="41.851481" lon="2.624516">
        <ele>458.515</ele>
        <time>2020-07-26T05:41:19Z</time>
      </trkpt>
      <trkpt lat="41.851461" lon="2.624497">
        <ele>458.718</ele>
        <time>2020-07-26T05:41:20Z</time>
      </trkpt>
      <trkpt lat="41.851438" lon="2.624476">
        <ele>458.773</ele>
        <time>2020-07-26T05:41:21Z</time>
      </trkpt>
      <trkpt lat="41.851414" lon="2.624455">
        <ele>459.191</ele>
        <time>2020-07-26T05:41:22Z</time>
      </trkpt>
      <trkpt lat="41.851390" lon="2.624436">
        <ele>459.394</ele>
        <time>2020-07-26T05:41:23Z</time>
      </trkpt>
      <trkpt lat="41.851367" lon="2.624420">
        <ele>459.768</ele>
        <time>2020-07-26T05:41:24Z</time>
      </trkpt>
      <trkpt lat="41.851346" lon="2.624404">
        <ele>459.924</ele>
        <time>2020-07-26T05:41:25Z</time>
      </trkpt>
      <trkpt lat="41.851324" lon="2.624392">
        <ele>460.372</ele>
        <time>2020-07-26T05:41:26Z</time>
      </trkpt>
      <trkpt lat="41.851300" lon="2.624380">
        <ele>460.313</ele>
        <time>2020-07-26T05:41:27Z</time>
      </trkpt>
      <trkpt lat="41.851275" lon="2.624365">
        <ele>460.514</ele>
        <time>2020-07-26T05:41:28Z</time>
      </trkpt>
      <trkpt lat="41.851249" lon="2.624353">
        <ele>460.608</ele>
        <time>2020-07-26T05:41:29Z</time>
      </trkpt>
      <trkpt lat="41.851222" lon="2.624343">
        <ele>460.772</ele>
        <time>2020-07-26T05:41:30Z</time>
      </trkpt>
      <trkpt lat="41.851193" lon="2.624328">
        <ele>460.720</ele>
        <time>2020-07-26T05:41:31Z</time>
      </trkpt>
      <trkpt lat="41.851164" lon="2.624314">
        <ele>461.143</ele>
        <time>2020-07-26T05:41:32Z</time>
      </trkpt>
      <trkpt lat="41.851138" lon="2.624304">
        <ele>461.348</ele>
        <time>2020-07-26T05:41:33Z</time>
      </trkpt>
      <trkpt lat="41.851112" lon="2.624291">
        <ele>461.316</ele>
        <time>2020-07-26T05:41:34Z</time>
      </trkpt>
      <trkpt lat="41.851085" lon="2.624276">
        <ele>461.329</ele>
        <time>2020-07-26T05:41:35Z</time>
      </trkpt>
      <trkpt lat="41.851057" lon="2.624258">
        <ele>461.313</ele>
        <time>2020-07-26T05:41:36Z</time>
      </trkpt>
      <trkpt lat="41.851029" lon="2.624240">
        <ele>461.319</ele>
        <time>2020-07-26T05:41:37Z</time>
      </trkpt>
      <trkpt lat="41.851002" lon="2.624222">
        <ele>461.591</ele>
        <time>2020-07-26T05:41:38Z</time>
      </trkpt>
      <trkpt lat="41.850976" lon="2.624201">
        <ele>461.781</ele>
        <time>2020-07-26T05:41:39Z</time>
      </trkpt>
      <trkpt lat="41.850952" lon="2.624178">
        <ele>461.919</ele>
        <time>2020-07-26T05:41:40Z</time>
      </trkpt>
      <trkpt lat="41.850927" lon="2.624154">
        <ele>462.108</ele>
        <time>2020-07-26T05:41:41Z</time>
      </trkpt>
      <trkpt lat="41.850900" lon="2.624132">
        <ele>462.284</ele>
        <time>2020-07-26T05:41:42Z</time>
      </trkpt>
      <trkpt lat="41.850872" lon="2.624110">
        <ele>462.232</ele>
        <time>2020-07-26T05:41:43Z</time>
      </trkpt>
      <trkpt lat="41.850848" lon="2.624085">
        <ele>462.325</ele>
        <time>2020-07-26T05:41:44Z</time>
      </trkpt>
      <trkpt lat="41.850823" lon="2.624060">
        <ele>462.250</ele>
        <time>2020-07-26T05:41:45Z</time>
      </trkpt>
      <trkpt lat="41.850799" lon="2.624034">
        <ele>462.318</ele>
        <time>2020-07-26T05:41:46Z</time>
      </trkpt>
      <trkpt lat="41.850778" lon="2.624008">
        <ele>462.521</ele>
        <time>2020-07-26T05:41:47Z</time>
      </trkpt>
      <trkpt lat="41.850757" lon="2.623980">
        <ele>462.685</ele>
        <time>2020-07-26T05:41:48Z</time>
      </trkpt>
      <trkpt lat="41.850737" lon="2.623954">
        <ele>462.931</ele>
        <time>2020-07-26T05:41:49Z</time>
      </trkpt>
      <trkpt lat="41.850716" lon="2.623926">
        <ele>463.159</ele>
        <time>2020-07-26T05:41:50Z</time>
      </trkpt>
      <trkpt lat="41.850696" lon="2.623899">
        <ele>463.203</ele>
        <time>2020-07-26T05:41:51Z</time>
      </trkpt>
      <trkpt lat="41.850678" lon="2.623869">
        <ele>463.323</ele>
        <time>2020-07-26T05:41:52Z</time>
      </trkpt>
      <trkpt lat="41.850657" lon="2.623841">
        <ele>463.308</ele>
        <time>2020-07-26T05:41:53Z</time>
      </trkpt>
      <trkpt lat="41.850637" lon="2.623814">
        <ele>463.710</ele>
        <time>2020-07-26T05:41:54Z</time>
      </trkpt>
      <trkpt lat="41.850618" lon="2.623784">
        <ele>463.958</ele>
        <time>2020-07-26T05:41:55Z</time>
      </trkpt>
      <trkpt lat="41.850598" lon="2.623755">
        <ele>464.181</ele>
        <time>2020-07-26T05:41:56Z</time>
      </trkpt>
      <trkpt lat="41.850573" lon="2.623728">
        <ele>464.356</ele>
        <time>2020-07-26T05:41:57Z</time>
      </trkpt>
      <trkpt lat="41.850550" lon="2.623700">
        <ele>464.554</ele>
        <time>2020-07-26T05:41:58Z</time>
      </trkpt>
      <trkpt lat="41.850527" lon="2.623669">
        <ele>464.797</ele>
        <time>2020-07-26T05:41:59Z</time>
      </trkpt>
      <trkpt lat="41.850505" lon="2.623638">
        <ele>464.681</ele>
        <time>2020-07-26T05:42:00Z</time>
      </trkpt>
      <trkpt lat="41.850487" lon="2.623607">
        <ele>464.997</ele>
        <time>2020-07-26T05:42:01Z</time>
      </trkpt>
      <trkpt lat="41.850468" lon="2.623575">
        <ele>465.137</ele>
        <time>2020-07-26T05:42:02Z</time>
      </trkpt>
      <trkpt lat="41.850448" lon="2.623542">
        <ele>465.349</ele>
        <time>2020-07-26T05:42:03Z</time>
      </trkpt>
      <trkpt lat="41.850428" lon="2.623508">
        <ele>465.513</ele>
        <time>2020-07-26T05:42:04Z</time>
      </trkpt>
      <trkpt lat="41.850407" lon="2.623474">
        <ele>465.608</ele>
        <time>2020-07-26T05:42:05Z</time>
      </trkpt>
      <trkpt lat="41.850387" lon="2.623440">
        <ele>465.628</ele>
        <time>2020-07-26T05:42:06Z</time>
      </trkpt>
      <trkpt lat="41.850364" lon="2.623410">
        <ele>465.716</ele>
        <time>2020-07-26T05:42:07Z</time>
      </trkpt>
      <trkpt lat="41.850340" lon="2.623380">
        <ele>465.769</ele>
        <time>2020-07-26T05:42:08Z</time>
      </trkpt>
      <trkpt lat="41.850321" lon="2.623345">
        <ele>465.974</ele>
        <time>2020-07-26T05:42:09Z</time>
      </trkpt>
      <trkpt lat="41.850302" lon="2.623312">
        <ele>466.122</ele>
        <time>2020-07-26T05:42:10Z</time>
      </trkpt>
      <trkpt lat="41.850285" lon="2.623279">
        <ele>466.355</ele>
        <time>2020-07-26T05:42:11Z</time>
      </trkpt>
      <trkpt lat="41.850268" lon="2.623251">
        <ele>466.359</ele>
        <time>2020-07-26T05:42:12Z</time>
      </trkpt>
      <trkpt lat="41.850250" lon="2.623220">
        <ele>466.365</ele>
        <time>2020-07-26T05:42:13Z</time>
      </trkpt>
      <trkpt lat="41.850234" lon="2.623185">
        <ele>466.759</ele>
        <time>2020-07-26T05:42:14Z</time>
      </trkpt>
      <trkpt lat="41.850217" lon="2.623150">
        <ele>466.903</ele>
        <time>2020-07-26T05:42:15Z</time>
      </trkpt>
      <trkpt lat="41.850197" lon="2.623116">
        <ele>467.123</ele>
        <time>2020-07-26T05:42:16Z</time>
      </trkpt>
      <trkpt lat="41.850178" lon="2.623080">
        <ele>467.208</ele>
        <time>2020-07-26T05:42:17Z</time>
      </trkpt>
      <trkpt lat="41.850158" lon="2.623046">
        <ele>467.060</ele>
        <time>2020-07-26T05:42:18Z</time>
      </trkpt>
      <trkpt lat="41.850142" lon="2.623011">
        <ele>467.138</ele>
        <time>2020-07-26T05:42:19Z</time>
      </trkpt>
      <trkpt lat="41.850125" lon="2.622975">
        <ele>467.711</ele>
        <time>2020-07-26T05:42:20Z</time>
      </trkpt>
      <trkpt lat="41.850112" lon="2.622937">
        <ele>467.456</ele>
        <time>2020-07-26T05:42:21Z</time>
      </trkpt>
      <trkpt lat="41.850110" lon="2.622894">
        <ele>467.544</ele>
        <time>2020-07-26T05:42:22Z</time>
      </trkpt>
      <trkpt lat="41.850102" lon="2.622852">
        <ele>467.777</ele>
        <time>2020-07-26T05:42:23Z</time>
      </trkpt>
      <trkpt lat="41.850090" lon="2.622817">
        <ele>467.931</ele>
        <time>2020-07-26T05:42:24Z</time>
      </trkpt>
      <trkpt lat="41.850077" lon="2.622782">
        <ele>468.167</ele>
        <time>2020-07-26T05:42:25Z</time>
      </trkpt>
      <trkpt lat="41.850067" lon="2.622749">
        <ele>468.365</ele>
        <time>2020-07-26T05:42:26Z</time>
      </trkpt>
      <trkpt lat="41.850055" lon="2.622713">
        <ele>468.568</ele>
        <time>2020-07-26T05:42:27Z</time>
      </trkpt>
      <trkpt lat="41.850049" lon="2.622675">
        <ele>468.714</ele>
        <time>2020-07-26T05:42:28Z</time>
      </trkpt>
      <trkpt lat="41.850041" lon="2.622640">
        <ele>468.908</ele>
        <time>2020-07-26T05:42:29Z</time>
      </trkpt>
      <trkpt lat="41.850029" lon="2.622605">
        <ele>469.311</ele>
        <time>2020-07-26T05:42:30Z</time>
      </trkpt>
      <trkpt lat="41.850018" lon="2.622559">
        <ele>469.539</ele>
        <time>2020-07-26T05:42:31Z</time>
      </trkpt>
      <trkpt lat="41.850005" lon="2.622519">
        <ele>469.762</ele>
        <time>2020-07-26T05:42:32Z</time>
      </trkpt>
      <trkpt lat="41.849992" lon="2.622481">
        <ele>470.127</ele>
        <time>2020-07-26T05:42:33Z</time>
      </trkpt>
      <trkpt lat="41.849978" lon="2.622446">
        <ele>470.015</ele>
        <time>2020-07-26T05:42:34Z</time>
      </trkpt>
      <trkpt lat="41.849963" lon="2.622413">
        <ele>470.128</ele>
        <time>2020-07-26T05:42:35Z</time>
      </trkpt>
      <trkpt lat="41.849948" lon="2.622383">
        <ele>470.532</ele>
        <time>2020-07-26T05:42:36Z</time>
      </trkpt>
      <trkpt lat="41.849931" lon="2.622356">
        <ele>470.618</ele>
        <time>2020-07-26T05:42:37Z</time>
      </trkpt>
      <trkpt lat="41.849915" lon="2.622330">
        <ele>470.747</ele>
        <time>2020-07-26T05:42:38Z</time>
      </trkpt>
      <trkpt lat="41.849901" lon="2.622305">
        <ele>470.929</ele>
        <time>2020-07-26T05:42:39Z</time>
      </trkpt>
      <trkpt lat="41.849881" lon="2.622275">
        <ele>471.321</ele>
        <time>2020-07-26T05:42:40Z</time>
      </trkpt>
      <trkpt lat="41.849863" lon="2.622247">
        <ele>471.508</ele>
        <time>2020-07-26T05:42:41Z</time>
      </trkpt>
      <trkpt lat="41.849844" lon="2.622224">
        <ele>471.739</ele>
        <time>2020-07-26T05:42:42Z</time>
      </trkpt>
      <trkpt lat="41.849826" lon="2.622201">
        <ele>472.147</ele>
        <time>2020-07-26T05:42:43Z</time>
      </trkpt>
      <trkpt lat="41.849807" lon="2.622178">
        <ele>472.510</ele>
        <time>2020-07-26T05:42:44Z</time>
      </trkpt>
      <trkpt lat="41.849788" lon="2.622155">
        <ele>472.755</ele>
        <time>2020-07-26T05:42:45Z</time>
      </trkpt>
      <trkpt lat="41.849770" lon="2.622133">
        <ele>472.923</ele>
        <time>2020-07-26T05:42:46Z</time>
      </trkpt>
      <trkpt lat="41.849749" lon="2.622112">
        <ele>473.396</ele>
        <time>2020-07-26T05:42:47Z</time>
      </trkpt>
      <trkpt lat="41.849727" lon="2.622091">
        <ele>473.580</ele>
        <time>2020-07-26T05:42:48Z</time>
      </trkpt>
      <trkpt lat="41.849712" lon="2.622066">
        <ele>473.966</ele>
        <time>2020-07-26T05:42:49Z</time>
      </trkpt>
      <trkpt lat="41.849699" lon="2.622042">
        <ele>474.025</ele>
        <time>2020-07-26T05:42:50Z</time>
      </trkpt>
      <trkpt lat="41.849688" lon="2.622017">
        <ele>474.126</ele>
        <time>2020-07-26T05:42:51Z</time>
      </trkpt>
      <trkpt lat="41.849678" lon="2.621988">
        <ele>474.308</ele>
        <time>2020-07-26T05:42:52Z</time>
      </trkpt>
      <trkpt lat="41.849669" lon="2.621958">
        <ele>474.508</ele>
        <time>2020-07-26T05:42:53Z</time>
      </trkpt>
      <trkpt lat="41.849662" lon="2.621927">
        <ele>474.747</ele>
        <time>2020-07-26T05:42:54Z</time>
      </trkpt>
      <trkpt lat="41.849656" lon="2.621895">
        <ele>475.115</ele>
        <time>2020-07-26T05:42:55Z</time>
      </trkpt>
      <trkpt lat="41.849649" lon="2.621862">
        <ele>475.288</ele>
        <time>2020-07-26T05:42:56Z</time>
      </trkpt>
      <trkpt lat="41.849640" lon="2.621828">
        <ele>475.393</ele>
        <time>2020-07-26T05:42:57Z</time>
      </trkpt>
      <trkpt lat="41.849628" lon="2.621794">
        <ele>475.561</ele>
        <time>2020-07-26T05:42:58Z</time>
      </trkpt>
      <trkpt lat="41.849615" lon="2.621764">
        <ele>475.924</ele>
        <time>2020-07-26T05:42:59Z</time>
      </trkpt>
      <trkpt lat="41.849602" lon="2.621734">
        <ele>476.028</ele>
        <time>2020-07-26T05:43:00Z</time>
      </trkpt>
      <trkpt lat="41.849589" lon="2.621705">
        <ele>476.354</ele>
        <time>2020-07-26T05:43:01Z</time>
      </trkpt>
      <trkpt lat="41.849575" lon="2.621681">
        <ele>476.521</ele>
        <time>2020-07-26T05:43:02Z</time>
      </trkpt>
      <trkpt lat="41.849559" lon="2.621658">
        <ele>476.741</ele>
        <time>2020-07-26T05:43:03Z</time>
      </trkpt>
      <trkpt lat="41.849538" lon="2.621632">
        <ele>476.905</ele>
        <time>2020-07-26T05:43:04Z</time>
      </trkpt>
      <trkpt lat="41.849514" lon="2.621610">
        <ele>477.108</ele>
        <time>2020-07-26T05:43:05Z</time>
      </trkpt>
      <trkpt lat="41.849491" lon="2.621590">
        <ele>477.567</ele>
        <time>2020-07-26T05:43:06Z</time>
      </trkpt>
      <trkpt lat="41.849469" lon="2.621571">
        <ele>477.755</ele>
        <time>2020-07-26T05:43:07Z</time>
      </trkpt>
      <trkpt lat="41.849447" lon="2.621553">
        <ele>477.738</ele>
        <time>2020-07-26T05:43:08Z</time>
      </trkpt>
      <trkpt lat="41.849423" lon="2.621539">
        <ele>477.953</ele>
        <time>2020-07-26T05:43:09Z</time>
      </trkpt>
      <trkpt lat="41.849401" lon="2.621530">
        <ele>478.131</ele>
        <time>2020-07-26T05:43:10Z</time>
      </trkpt>
      <trkpt lat="41.849382" lon="2.621524">
        <ele>478.364</ele>
        <time>2020-07-26T05:43:11Z</time>
      </trkpt>
      <trkpt lat="41.849360" lon="2.621518">
        <ele>478.358</ele>
        <time>2020-07-26T05:43:12Z</time>
      </trkpt>
      <trkpt lat="41.849332" lon="2.621517">
        <ele>478.594</ele>
        <time>2020-07-26T05:43:13Z</time>
      </trkpt>
      <trkpt lat="41.849308" lon="2.621514">
        <ele>478.762</ele>
        <time>2020-07-26T05:43:14Z</time>
      </trkpt>
      <trkpt lat="41.849286" lon="2.621515">
        <ele>478.983</ele>
        <time>2020-07-26T05:43:15Z</time>
      </trkpt>
      <trkpt lat="41.849263" lon="2.621521">
        <ele>479.111</ele>
        <time>2020-07-26T05:43:16Z</time>
      </trkpt>
      <trkpt lat="41.849240" lon="2.621534">
        <ele>479.208</ele>
        <time>2020-07-26T05:43:17Z</time>
      </trkpt>
      <trkpt lat="41.849219" lon="2.621553">
        <ele>479.331</ele>
        <time>2020-07-26T05:43:18Z</time>
      </trkpt>
      <trkpt lat="41.849199" lon="2.621568">
        <ele>479.589</ele>
        <time>2020-07-26T05:43:19Z</time>
      </trkpt>
      <trkpt lat="41.849118" lon="2.621648">
        <ele>480.192</ele>
        <time>2020-07-26T05:43:23Z</time>
      </trkpt>
      <trkpt lat="41.849075" lon="2.621687">
        <ele>480.667</ele>
        <time>2020-07-26T05:43:25Z</time>
      </trkpt>
      <trkpt lat="41.849055" lon="2.621700">
        <ele>480.785</ele>
        <time>2020-07-26T05:43:26Z</time>
      </trkpt>
      <trkpt lat="41.848968" lon="2.621735">
        <ele>481.338</ele>
        <time>2020-07-26T05:43:29Z</time>
      </trkpt>
      <trkpt lat="41.848854" lon="2.621727">
        <ele>482.322</ele>
        <time>2020-07-26T05:43:33Z</time>
      </trkpt>
      <trkpt lat="41.848803" lon="2.621696">
        <ele>482.998</ele>
        <time>2020-07-26T05:43:35Z</time>
      </trkpt>
      <trkpt lat="41.848777" lon="2.621685">
        <ele>483.047</ele>
        <time>2020-07-26T05:43:36Z</time>
      </trkpt>
      <trkpt lat="41.848747" lon="2.621677">
        <ele>483.029</ele>
        <time>2020-07-26T05:43:37Z</time>
      </trkpt>
      <trkpt lat="41.848644" lon="2.621667">
        <ele>483.621</ele>
        <time>2020-07-26T05:43:41Z</time>
      </trkpt>
      <trkpt lat="41.848566" lon="2.621741">
        <ele>484.608</ele>
        <time>2020-07-26T05:43:47Z</time>
      </trkpt>
      <trkpt lat="41.848516" lon="2.621844">
        <ele>485.329</ele>
        <time>2020-07-26T05:43:51Z</time>
      </trkpt>
      <trkpt lat="41.848430" lon="2.621962">
        <ele>486.537</ele>
        <time>2020-07-26T05:43:55Z</time>
      </trkpt>
      <trkpt lat="41.848350" lon="2.622071">
        <ele>487.360</ele>
        <time>2020-07-26T05:43:59Z</time>
      </trkpt>
      <trkpt lat="41.848280" lon="2.622151">
        <ele>487.935</ele>
        <time>2020-07-26T05:44:02Z</time>
      </trkpt>
      <trkpt lat="41.848196" lon="2.622190">
        <ele>488.693</ele>
        <time>2020-07-26T05:44:05Z</time>
      </trkpt>
      <trkpt lat="41.848170" lon="2.622187">
        <ele>488.446</ele>
        <time>2020-07-26T05:44:06Z</time>
      </trkpt>
      <trkpt lat="41.848142" lon="2.622179">
        <ele>488.790</ele>
        <time>2020-07-26T05:44:07Z</time>
      </trkpt>
      <trkpt lat="41.848114" lon="2.622163">
        <ele>488.716</ele>
        <time>2020-07-26T05:44:08Z</time>
      </trkpt>
      <trkpt lat="41.848082" lon="2.622150">
        <ele>488.948</ele>
        <time>2020-07-26T05:44:09Z</time>
      </trkpt>
      <trkpt lat="41.848055" lon="2.622133">
        <ele>489.161</ele>
        <time>2020-07-26T05:44:10Z</time>
      </trkpt>
      <trkpt lat="41.848031" lon="2.622109">
        <ele>489.317</ele>
        <time>2020-07-26T05:44:11Z</time>
      </trkpt>
      <trkpt lat="41.848009" lon="2.622083">
        <ele>489.308</ele>
        <time>2020-07-26T05:44:12Z</time>
      </trkpt>
      <trkpt lat="41.847993" lon="2.622053">
        <ele>489.259</ele>
        <time>2020-07-26T05:44:13Z</time>
      </trkpt>
      <trkpt lat="41.847979" lon="2.622019">
        <ele>489.217</ele>
        <time>2020-07-26T05:44:14Z</time>
      </trkpt>
      <trkpt lat="41.847969" lon="2.621984">
        <ele>489.320</ele>
        <time>2020-07-26T05:44:15Z</time>
      </trkpt>
      <trkpt lat="41.847963" lon="2.621945">
        <ele>489.775</ele>
        <time>2020-07-26T05:44:16Z</time>
      </trkpt>
      <trkpt lat="41.847957" lon="2.621907">
        <ele>489.983</ele>
        <time>2020-07-26T05:44:17Z</time>
      </trkpt>
      <trkpt lat="41.847955" lon="2.621868">
        <ele>490.126</ele>
        <time>2020-07-26T05:44:18Z</time>
      </trkpt>
      <trkpt lat="41.847956" lon="2.621834">
        <ele>490.390</ele>
        <time>2020-07-26T05:44:19Z</time>
      </trkpt>
      <trkpt lat="41.847958" lon="2.621797">
        <ele>490.566</ele>
        <time>2020-07-26T05:44:20Z</time>
      </trkpt>
      <trkpt lat="41.847963" lon="2.621759">
        <ele>490.713</ele>
        <time>2020-07-26T05:44:21Z</time>
      </trkpt>
      <trkpt lat="41.847970" lon="2.621719">
        <ele>490.943</ele>
        <time>2020-07-26T05:44:22Z</time>
      </trkpt>
      <trkpt lat="41.847977" lon="2.621681">
        <ele>491.007</ele>
        <time>2020-07-26T05:44:23Z</time>
      </trkpt>
      <trkpt lat="41.847983" lon="2.621643">
        <ele>491.008</ele>
        <time>2020-07-26T05:44:24Z</time>
      </trkpt>
      <trkpt lat="41.847989" lon="2.621603">
        <ele>491.366</ele>
        <time>2020-07-26T05:44:25Z</time>
      </trkpt>
      <trkpt lat="41.847996" lon="2.621562">
        <ele>491.544</ele>
        <time>2020-07-26T05:44:26Z</time>
      </trkpt>
      <trkpt lat="41.848002" lon="2.621520">
        <ele>491.697</ele>
        <time>2020-07-26T05:44:27Z</time>
      </trkpt>
      <trkpt lat="41.848009" lon="2.621480">
        <ele>491.712</ele>
        <time>2020-07-26T05:44:28Z</time>
      </trkpt>
      <trkpt lat="41.848015" lon="2.621441">
        <ele>492.160</ele>
        <time>2020-07-26T05:44:29Z</time>
      </trkpt>
      <trkpt lat="41.848022" lon="2.621401">
        <ele>492.213</ele>
        <time>2020-07-26T05:44:30Z</time>
      </trkpt>
      <trkpt lat="41.848029" lon="2.621360">
        <ele>492.557</ele>
        <time>2020-07-26T05:44:31Z</time>
      </trkpt>
      <trkpt lat="41.848035" lon="2.621319">
        <ele>492.973</ele>
        <time>2020-07-26T05:44:32Z</time>
      </trkpt>
      <trkpt lat="41.848041" lon="2.621279">
        <ele>493.128</ele>
        <time>2020-07-26T05:44:33Z</time>
      </trkpt>
      <trkpt lat="41.848048" lon="2.621240">
        <ele>493.589</ele>
        <time>2020-07-26T05:44:34Z</time>
      </trkpt>
      <trkpt lat="41.848054" lon="2.621202">
        <ele>493.717</ele>
        <time>2020-07-26T05:44:35Z</time>
      </trkpt>
      <trkpt lat="41.848065" lon="2.621168">
        <ele>493.708</ele>
        <time>2020-07-26T05:44:36Z</time>
      </trkpt>
      <trkpt lat="41.848081" lon="2.621138">
        <ele>493.717</ele>
        <time>2020-07-26T05:44:37Z</time>
      </trkpt>
      <trkpt lat="41.848097" lon="2.621112">
        <ele>493.995</ele>
        <time>2020-07-26T05:44:38Z</time>
      </trkpt>
      <trkpt lat="41.848118" lon="2.621093">
        <ele>494.048</ele>
        <time>2020-07-26T05:44:39Z</time>
      </trkpt>
      <trkpt lat="41.848140" lon="2.621078">
        <ele>494.193</ele>
        <time>2020-07-26T05:44:40Z</time>
      </trkpt>
      <trkpt lat="41.848164" lon="2.621066">
        <ele>494.541</ele>
        <time>2020-07-26T05:44:41Z</time>
      </trkpt>
      <trkpt lat="41.848188" lon="2.621056">
        <ele>494.724</ele>
        <time>2020-07-26T05:44:42Z</time>
      </trkpt>
      <trkpt lat="41.848214" lon="2.621051">
        <ele>494.728</ele>
        <time>2020-07-26T05:44:43Z</time>
      </trkpt>
      <trkpt lat="41.848243" lon="2.621048">
        <ele>494.774</ele>
        <time>2020-07-26T05:44:44Z</time>
      </trkpt>
      <trkpt lat="41.848272" lon="2.621045">
        <ele>494.746</ele>
        <time>2020-07-26T05:44:45Z</time>
      </trkpt>
      <trkpt lat="41.848302" lon="2.621043">
        <ele>494.988</ele>
        <time>2020-07-26T05:44:46Z</time>
      </trkpt>
      <trkpt lat="41.848332" lon="2.621042">
        <ele>495.016</ele>
        <time>2020-07-26T05:44:47Z</time>
      </trkpt>
      <trkpt lat="41.848361" lon="2.621037">
        <ele>494.808</ele>
        <time>2020-07-26T05:44:48Z</time>
      </trkpt>
      <trkpt lat="41.848389" lon="2.621031">
        <ele>495.179</ele>
        <time>2020-07-26T05:44:49Z</time>
      </trkpt>
      <trkpt lat="41.848419" lon="2.621026">
        <ele>495.347</ele>
        <time>2020-07-26T05:44:50Z</time>
      </trkpt>
      <trkpt lat="41.848453" lon="2.621029">
        <ele>495.390</ele>
        <time>2020-07-26T05:44:51Z</time>
      </trkpt>
      <trkpt lat="41.848488" lon="2.621032">
        <ele>495.345</ele>
        <time>2020-07-26T05:44:52Z</time>
      </trkpt>
      <trkpt lat="41.848520" lon="2.621028">
        <ele>495.563</ele>
        <time>2020-07-26T05:44:53Z</time>
      </trkpt>
      <trkpt lat="41.848551" lon="2.621017">
        <ele>495.776</ele>
        <time>2020-07-26T05:44:54Z</time>
      </trkpt>
      <trkpt lat="41.848582" lon="2.621004">
        <ele>496.160</ele>
        <time>2020-07-26T05:44:55Z</time>
      </trkpt>
      <trkpt lat="41.848614" lon="2.620988">
        <ele>496.286</ele>
        <time>2020-07-26T05:44:56Z</time>
      </trkpt>
      <trkpt lat="41.848643" lon="2.620970">
        <ele>496.336</ele>
        <time>2020-07-26T05:44:57Z</time>
      </trkpt>
      <trkpt lat="41.848669" lon="2.620950">
        <ele>496.317</ele>
        <time>2020-07-26T05:44:58Z</time>
      </trkpt>
      <trkpt lat="41.848692" lon="2.620923">
        <ele>496.518</ele>
        <time>2020-07-26T05:44:59Z</time>
      </trkpt>
      <trkpt lat="41.848714" lon="2.620893">
        <ele>496.708</ele>
        <time>2020-07-26T05:45:00Z</time>
      </trkpt>
      <trkpt lat="41.848732" lon="2.620861">
        <ele>497.158</ele>
        <time>2020-07-26T05:45:01Z</time>
      </trkpt>
      <trkpt lat="41.848749" lon="2.620828">
        <ele>497.256</ele>
        <time>2020-07-26T05:45:02Z</time>
      </trkpt>
      <trkpt lat="41.848765" lon="2.620792">
        <ele>497.269</ele>
        <time>2020-07-26T05:45:03Z</time>
      </trkpt>
      <trkpt lat="41.848780" lon="2.620756">
        <ele>497.314</ele>
        <time>2020-07-26T05:45:04Z</time>
      </trkpt>
      <trkpt lat="41.848797" lon="2.620721">
        <ele>497.592</ele>
        <time>2020-07-26T05:45:05Z</time>
      </trkpt>
      <trkpt lat="41.848812" lon="2.620685">
        <ele>497.775</ele>
        <time>2020-07-26T05:45:06Z</time>
      </trkpt>
      <trkpt lat="41.848826" lon="2.620648">
        <ele>497.759</ele>
        <time>2020-07-26T05:45:07Z</time>
      </trkpt>
      <trkpt lat="41.848839" lon="2.620609">
        <ele>497.735</ele>
        <time>2020-07-26T05:45:08Z</time>
      </trkpt>
      <trkpt lat="41.848851" lon="2.620569">
        <ele>497.988</ele>
        <time>2020-07-26T05:45:09Z</time>
      </trkpt>
      <trkpt lat="41.848862" lon="2.620526">
        <ele>498.524</ele>
        <time>2020-07-26T05:45:10Z</time>
      </trkpt>
      <trkpt lat="41.848872" lon="2.620485">
        <ele>498.726</ele>
        <time>2020-07-26T05:45:11Z</time>
      </trkpt>
      <trkpt lat="41.848883" lon="2.620445">
        <ele>498.908</ele>
        <time>2020-07-26T05:45:12Z</time>
      </trkpt>
      <trkpt lat="41.848892" lon="2.620405">
        <ele>499.053</ele>
        <time>2020-07-26T05:45:13Z</time>
      </trkpt>
      <trkpt lat="41.848901" lon="2.620370">
        <ele>499.061</ele>
        <time>2020-07-26T05:45:14Z</time>
      </trkpt>
      <trkpt lat="41.848905" lon="2.620333">
        <ele>499.124</ele>
        <time>2020-07-26T05:45:15Z</time>
      </trkpt>
      <trkpt lat="41.848907" lon="2.620298">
        <ele>499.249</ele>
        <time>2020-07-26T05:45:16Z</time>
      </trkpt>
      <trkpt lat="41.848907" lon="2.620263">
        <ele>499.257</ele>
        <time>2020-07-26T05:45:17Z</time>
      </trkpt>
      <trkpt lat="41.848903" lon="2.620229">
        <ele>499.350</ele>
        <time>2020-07-26T05:45:18Z</time>
      </trkpt>
      <trkpt lat="41.848897" lon="2.620198">
        <ele>499.534</ele>
        <time>2020-07-26T05:45:19Z</time>
      </trkpt>
      <trkpt lat="41.848895" lon="2.620164">
        <ele>499.790</ele>
        <time>2020-07-26T05:45:20Z</time>
      </trkpt>
      <trkpt lat="41.848890" lon="2.620128">
        <ele>499.977</ele>
        <time>2020-07-26T05:45:21Z</time>
      </trkpt>
      <trkpt lat="41.848874" lon="2.620083">
        <ele>500.061</ele>
        <time>2020-07-26T05:45:22Z</time>
      </trkpt>
      <trkpt lat="41.848857" lon="2.620036">
        <ele>500.327</ele>
        <time>2020-07-26T05:45:23Z</time>
      </trkpt>
      <trkpt lat="41.848843" lon="2.619997">
        <ele>500.508</ele>
        <time>2020-07-26T05:45:24Z</time>
      </trkpt>
      <trkpt lat="41.848831" lon="2.619955">
        <ele>500.632</ele>
        <time>2020-07-26T05:45:25Z</time>
      </trkpt>
      <trkpt lat="41.848823" lon="2.619915">
        <ele>500.670</ele>
        <time>2020-07-26T05:45:26Z</time>
      </trkpt>
      <trkpt lat="41.848819" lon="2.619876">
        <ele>500.653</ele>
        <time>2020-07-26T05:45:27Z</time>
      </trkpt>
      <trkpt lat="41.848814" lon="2.619836">
        <ele>500.968</ele>
        <time>2020-07-26T05:45:28Z</time>
      </trkpt>
      <trkpt lat="41.848804" lon="2.619797">
        <ele>501.186</ele>
        <time>2020-07-26T05:45:29Z</time>
      </trkpt>
      <trkpt lat="41.848799" lon="2.619759">
        <ele>501.339</ele>
        <time>2020-07-26T05:45:30Z</time>
      </trkpt>
      <trkpt lat="41.848802" lon="2.619719">
        <ele>501.373</ele>
        <time>2020-07-26T05:45:31Z</time>
      </trkpt>
      <trkpt lat="41.848805" lon="2.619676">
        <ele>501.789</ele>
        <time>2020-07-26T05:45:32Z</time>
      </trkpt>
      <trkpt lat="41.848808" lon="2.619638">
        <ele>501.735</ele>
        <time>2020-07-26T05:45:33Z</time>
      </trkpt>
      <trkpt lat="41.848811" lon="2.619602">
        <ele>501.986</ele>
        <time>2020-07-26T05:45:34Z</time>
      </trkpt>
      <trkpt lat="41.848817" lon="2.619567">
        <ele>502.114</ele>
        <time>2020-07-26T05:45:35Z</time>
      </trkpt>
      <trkpt lat="41.848823" lon="2.619527">
        <ele>502.208</ele>
        <time>2020-07-26T05:45:36Z</time>
      </trkpt>
      <trkpt lat="41.848828" lon="2.619485">
        <ele>502.378</ele>
        <time>2020-07-26T05:45:37Z</time>
      </trkpt>
      <trkpt lat="41.848834" lon="2.619442">
        <ele>502.346</ele>
        <time>2020-07-26T05:45:38Z</time>
      </trkpt>
      <trkpt lat="41.848837" lon="2.619400">
        <ele>502.559</ele>
        <time>2020-07-26T05:45:39Z</time>
      </trkpt>
      <trkpt lat="41.848843" lon="2.619365">
        <ele>502.794</ele>
        <time>2020-07-26T05:45:40Z</time>
      </trkpt>
      <trkpt lat="41.848848" lon="2.619325">
        <ele>502.792</ele>
        <time>2020-07-26T05:45:41Z</time>
      </trkpt>
      <trkpt lat="41.848836" lon="2.619152">
        <ele>503.385</ele>
        <time>2020-07-26T05:45:45Z</time>
      </trkpt>
      <trkpt lat="41.848788" lon="2.619026">
        <ele>503.799</ele>
        <time>2020-07-26T05:45:48Z</time>
      </trkpt>
      <trkpt lat="41.848726" lon="2.618920">
        <ele>503.725</ele>
        <time>2020-07-26T05:45:51Z</time>
      </trkpt>
      <trkpt lat="41.848652" lon="2.618835">
        <ele>504.365</ele>
        <time>2020-07-26T05:45:54Z</time>
      </trkpt>
      <trkpt lat="41.848592" lon="2.618784">
        <ele>504.368</ele>
        <time>2020-07-26T05:45:56Z</time>
      </trkpt>
      <trkpt lat="41.848565" lon="2.618754">
        <ele>504.314</ele>
        <time>2020-07-26T05:45:57Z</time>
      </trkpt>
      <trkpt lat="41.848540" lon="2.618724">
        <ele>504.708</ele>
        <time>2020-07-26T05:45:58Z</time>
      </trkpt>
      <trkpt lat="41.848518" lon="2.618696">
        <ele>504.741</ele>
        <time>2020-07-26T05:45:59Z</time>
      </trkpt>
      <trkpt lat="41.848495" lon="2.618669">
        <ele>504.979</ele>
        <time>2020-07-26T05:46:00Z</time>
      </trkpt>
      <trkpt lat="41.848479" lon="2.618644">
        <ele>505.072</ele>
        <time>2020-07-26T05:46:01Z</time>
      </trkpt>
      <trkpt lat="41.848472" lon="2.618606">
        <ele>505.027</ele>
        <time>2020-07-26T05:46:02Z</time>
      </trkpt>
      <trkpt lat="41.848475" lon="2.618514">
        <ele>505.295</ele>
        <time>2020-07-26T05:46:04Z</time>
      </trkpt>
      <trkpt lat="41.848479" lon="2.618473">
        <ele>505.318</ele>
        <time>2020-07-26T05:46:05Z</time>
      </trkpt>
      <trkpt lat="41.848484" lon="2.618425">
        <ele>505.392</ele>
        <time>2020-07-26T05:46:06Z</time>
      </trkpt>
      <trkpt lat="41.848493" lon="2.618381">
        <ele>505.598</ele>
        <time>2020-07-26T05:46:07Z</time>
      </trkpt>
      <trkpt lat="41.848500" lon="2.618335">
        <ele>505.695</ele>
        <time>2020-07-26T05:46:08Z</time>
      </trkpt>
      <trkpt lat="41.848507" lon="2.618294">
        <ele>505.949</ele>
        <time>2020-07-26T05:46:09Z</time>
      </trkpt>
      <trkpt lat="41.848514" lon="2.618253">
        <ele>506.023</ele>
        <time>2020-07-26T05:46:10Z</time>
      </trkpt>
      <trkpt lat="41.848523" lon="2.618210">
        <ele>506.008</ele>
        <time>2020-07-26T05:46:11Z</time>
      </trkpt>
      <trkpt lat="41.848531" lon="2.618164">
        <ele>506.184</ele>
        <time>2020-07-26T05:46:12Z</time>
      </trkpt>
      <trkpt lat="41.848537" lon="2.618121">
        <ele>506.382</ele>
        <time>2020-07-26T05:46:13Z</time>
      </trkpt>
      <trkpt lat="41.848543" lon="2.618078">
        <ele>506.525</ele>
        <time>2020-07-26T05:46:14Z</time>
      </trkpt>
      <trkpt lat="41.848551" lon="2.618038">
        <ele>506.710</ele>
        <time>2020-07-26T05:46:15Z</time>
      </trkpt>
      <trkpt lat="41.848562" lon="2.617995">
        <ele>506.788</ele>
        <time>2020-07-26T05:46:16Z</time>
      </trkpt>
      <trkpt lat="41.848574" lon="2.617952">
        <ele>506.771</ele>
        <time>2020-07-26T05:46:17Z</time>
      </trkpt>
      <trkpt lat="41.848593" lon="2.617914">
        <ele>506.785</ele>
        <time>2020-07-26T05:46:18Z</time>
      </trkpt>
      <trkpt lat="41.848615" lon="2.617879">
        <ele>507.121</ele>
        <time>2020-07-26T05:46:19Z</time>
      </trkpt>
      <trkpt lat="41.848645" lon="2.617856">
        <ele>507.256</ele>
        <time>2020-07-26T05:46:20Z</time>
      </trkpt>
      <trkpt lat="41.848673" lon="2.617837">
        <ele>507.259</ele>
        <time>2020-07-26T05:46:21Z</time>
      </trkpt>
      <trkpt lat="41.848704" lon="2.617825">
        <ele>507.314</ele>
        <time>2020-07-26T05:46:22Z</time>
      </trkpt>
      <trkpt lat="41.848734" lon="2.617813">
        <ele>507.208</ele>
        <time>2020-07-26T05:46:23Z</time>
      </trkpt>
      <trkpt lat="41.848764" lon="2.617803">
        <ele>507.290</ele>
        <time>2020-07-26T05:46:24Z</time>
      </trkpt>
      <trkpt lat="41.848794" lon="2.617795">
        <ele>507.338</ele>
        <time>2020-07-26T05:46:25Z</time>
      </trkpt>
      <trkpt lat="41.848826" lon="2.617791">
        <ele>507.321</ele>
        <time>2020-07-26T05:46:26Z</time>
      </trkpt>
      <trkpt lat="41.848856" lon="2.617787">
        <ele>507.326</ele>
        <time>2020-07-26T05:46:27Z</time>
      </trkpt>
      <trkpt lat="41.848891" lon="2.617784">
        <ele>507.534</ele>
        <time>2020-07-26T05:46:28Z</time>
      </trkpt>
      <trkpt lat="41.848926" lon="2.617783">
        <ele>507.637</ele>
        <time>2020-07-26T05:46:29Z</time>
      </trkpt>
      <trkpt lat="41.848961" lon="2.617779">
        <ele>507.681</ele>
        <time>2020-07-26T05:46:30Z</time>
      </trkpt>
      <trkpt lat="41.848999" lon="2.617772">
        <ele>507.697</ele>
        <time>2020-07-26T05:46:31Z</time>
      </trkpt>
      <trkpt lat="41.849035" lon="2.617765">
        <ele>507.792</ele>
        <time>2020-07-26T05:46:32Z</time>
      </trkpt>
      <trkpt lat="41.849072" lon="2.617755">
        <ele>507.773</ele>
        <time>2020-07-26T05:46:33Z</time>
      </trkpt>
      <trkpt lat="41.849111" lon="2.617743">
        <ele>507.720</ele>
        <time>2020-07-26T05:46:34Z</time>
      </trkpt>
      <trkpt lat="41.849149" lon="2.617728">
        <ele>507.708</ele>
        <time>2020-07-26T05:46:35Z</time>
      </trkpt>
      <trkpt lat="41.849188" lon="2.617711">
        <ele>507.744</ele>
        <time>2020-07-26T05:46:36Z</time>
      </trkpt>
      <trkpt lat="41.849225" lon="2.617692">
        <ele>507.982</ele>
        <time>2020-07-26T05:46:37Z</time>
      </trkpt>
      <trkpt lat="41.849261" lon="2.617670">
        <ele>508.165</ele>
        <time>2020-07-26T05:46:38Z</time>
      </trkpt>
      <trkpt lat="41.849296" lon="2.617645">
        <ele>508.230</ele>
        <time>2020-07-26T05:46:39Z</time>
      </trkpt>
      <trkpt lat="41.849326" lon="2.617613">
        <ele>508.358</ele>
        <time>2020-07-26T05:46:40Z</time>
      </trkpt>
      <trkpt lat="41.849352" lon="2.617578">
        <ele>508.591</ele>
        <time>2020-07-26T05:46:41Z</time>
      </trkpt>
      <trkpt lat="41.849377" lon="2.617543">
        <ele>508.715</ele>
        <time>2020-07-26T05:46:42Z</time>
      </trkpt>
      <trkpt lat="41.849395" lon="2.617507">
        <ele>508.931</ele>
        <time>2020-07-26T05:46:43Z</time>
      </trkpt>
      <trkpt lat="41.849396" lon="2.617462">
        <ele>509.085</ele>
        <time>2020-07-26T05:46:44Z</time>
      </trkpt>
      <trkpt lat="41.849379" lon="2.617403">
        <ele>509.589</ele>
        <time>2020-07-26T05:46:45Z</time>
      </trkpt>
      <trkpt lat="41.849366" lon="2.617351">
        <ele>509.617</ele>
        <time>2020-07-26T05:46:46Z</time>
      </trkpt>
      <trkpt lat="41.849351" lon="2.617304">
        <ele>509.708</ele>
        <time>2020-07-26T05:46:47Z</time>
      </trkpt>
      <trkpt lat="41.849336" lon="2.617260">
        <ele>509.773</ele>
        <time>2020-07-26T05:46:48Z</time>
      </trkpt>
      <trkpt lat="41.849322" lon="2.617213">
        <ele>509.691</ele>
        <time>2020-07-26T05:46:49Z</time>
      </trkpt>
      <trkpt lat="41.849308" lon="2.617168">
        <ele>509.954</ele>
        <time>2020-07-26T05:46:50Z</time>
      </trkpt>
      <trkpt lat="41.849296" lon="2.617122">
        <ele>510.049</ele>
        <time>2020-07-26T05:46:51Z</time>
      </trkpt>
      <trkpt lat="41.849286" lon="2.617076">
        <ele>509.817</ele>
        <time>2020-07-26T05:46:52Z</time>
      </trkpt>
      <trkpt lat="41.849282" lon="2.617030">
        <ele>509.710</ele>
        <time>2020-07-26T05:46:53Z</time>
      </trkpt>
      <trkpt lat="41.849277" lon="2.616983">
        <ele>509.714</ele>
        <time>2020-07-26T05:46:54Z</time>
      </trkpt>
      <trkpt lat="41.849268" lon="2.616932">
        <ele>509.980</ele>
        <time>2020-07-26T05:46:55Z</time>
      </trkpt>
      <trkpt lat="41.849260" lon="2.616887">
        <ele>510.075</ele>
        <time>2020-07-26T05:46:56Z</time>
      </trkpt>
      <trkpt lat="41.849256" lon="2.616842">
        <ele>510.028</ele>
        <time>2020-07-26T05:46:57Z</time>
      </trkpt>
      <trkpt lat="41.849258" lon="2.616796">
        <ele>510.120</ele>
        <time>2020-07-26T05:46:58Z</time>
      </trkpt>
      <trkpt lat="41.849258" lon="2.616751">
        <ele>510.308</ele>
        <time>2020-07-26T05:46:59Z</time>
      </trkpt>
      <trkpt lat="41.849253" lon="2.616706">
        <ele>510.332</ele>
        <time>2020-07-26T05:47:00Z</time>
      </trkpt>
      <trkpt lat="41.849246" lon="2.616658">
        <ele>510.560</ele>
        <time>2020-07-26T05:47:01Z</time>
      </trkpt>
      <trkpt lat="41.849233" lon="2.616607">
        <ele>510.683</ele>
        <time>2020-07-26T05:47:02Z</time>
      </trkpt>
      <trkpt lat="41.849218" lon="2.616554">
        <ele>510.448</ele>
        <time>2020-07-26T05:47:03Z</time>
      </trkpt>
      <trkpt lat="41.849199" lon="2.616505">
        <ele>510.366</ele>
        <time>2020-07-26T05:47:04Z</time>
      </trkpt>
      <trkpt lat="41.849180" lon="2.616455">
        <ele>510.249</ele>
        <time>2020-07-26T05:47:05Z</time>
      </trkpt>
      <trkpt lat="41.849161" lon="2.616404">
        <ele>510.283</ele>
        <time>2020-07-26T05:47:06Z</time>
      </trkpt>
      <trkpt lat="41.849140" lon="2.616354">
        <ele>510.319</ele>
        <time>2020-07-26T05:47:07Z</time>
      </trkpt>
      <trkpt lat="41.849122" lon="2.616304">
        <ele>510.236</ele>
        <time>2020-07-26T05:47:08Z</time>
      </trkpt>
      <trkpt lat="41.849108" lon="2.616246">
        <ele>510.317</ele>
        <time>2020-07-26T05:47:09Z</time>
      </trkpt>
      <trkpt lat="41.849093" lon="2.616188">
        <ele>510.218</ele>
        <time>2020-07-26T05:47:10Z</time>
      </trkpt>
      <trkpt lat="41.849078" lon="2.616130">
        <ele>510.008</ele>
        <time>2020-07-26T05:47:11Z</time>
      </trkpt>
      <trkpt lat="41.849065" lon="2.616071">
        <ele>510.148</ele>
        <time>2020-07-26T05:47:12Z</time>
      </trkpt>
      <trkpt lat="41.849053" lon="2.616012">
        <ele>510.326</ele>
        <time>2020-07-26T05:47:13Z</time>
      </trkpt>
      <trkpt lat="41.849038" lon="2.615953">
        <ele>510.279</ele>
        <time>2020-07-26T05:47:14Z</time>
      </trkpt>
      <trkpt lat="41.849022" lon="2.615895">
        <ele>510.224</ele>
        <time>2020-07-26T05:47:15Z</time>
      </trkpt>
      <trkpt lat="41.849005" lon="2.615838">
        <ele>510.362</ele>
        <time>2020-07-26T05:47:16Z</time>
      </trkpt>
      <trkpt lat="41.848985" lon="2.615780">
        <ele>510.255</ele>
        <time>2020-07-26T05:47:17Z</time>
      </trkpt>
      <trkpt lat="41.848964" lon="2.615721">
        <ele>510.269</ele>
        <time>2020-07-26T05:47:18Z</time>
      </trkpt>
      <trkpt lat="41.848938" lon="2.615662">
        <ele>510.045</ele>
        <time>2020-07-26T05:47:19Z</time>
      </trkpt>
      <trkpt lat="41.848906" lon="2.615606">
        <ele>510.096</ele>
        <time>2020-07-26T05:47:20Z</time>
      </trkpt>
      <trkpt lat="41.848881" lon="2.615548">
        <ele>509.631</ele>
        <time>2020-07-26T05:47:21Z</time>
      </trkpt>
      <trkpt lat="41.848852" lon="2.615498">
        <ele>509.424</ele>
        <time>2020-07-26T05:47:22Z</time>
      </trkpt>
      <trkpt lat="41.848829" lon="2.615458">
        <ele>509.208</ele>
        <time>2020-07-26T05:47:23Z</time>
      </trkpt>
      <trkpt lat="41.848801" lon="2.615421">
        <ele>509.274</ele>
        <time>2020-07-26T05:47:24Z</time>
      </trkpt>
      <trkpt lat="41.848762" lon="2.615371">
        <ele>509.022</ele>
        <time>2020-07-26T05:47:25Z</time>
      </trkpt>
      <trkpt lat="41.848726" lon="2.615331">
        <ele>508.875</ele>
        <time>2020-07-26T05:47:26Z</time>
      </trkpt>
      <trkpt lat="41.848688" lon="2.615290">
        <ele>508.680</ele>
        <time>2020-07-26T05:47:27Z</time>
      </trkpt>
      <trkpt lat="41.848611" lon="2.615199">
        <ele>508.028</ele>
        <time>2020-07-26T05:47:30Z</time>
      </trkpt>
      <trkpt lat="41.848507" lon="2.615177">
        <ele>507.621</ele>
        <time>2020-07-26T05:47:32Z</time>
      </trkpt>
      <trkpt lat="41.848393" lon="2.615159">
        <ele>507.685</ele>
        <time>2020-07-26T05:47:34Z</time>
      </trkpt>
      <trkpt lat="41.848340" lon="2.615155">
        <ele>507.621</ele>
        <time>2020-07-26T05:47:35Z</time>
      </trkpt>
      <trkpt lat="41.848238" lon="2.615159">
        <ele>507.359</ele>
        <time>2020-07-26T05:47:37Z</time>
      </trkpt>
      <trkpt lat="41.848189" lon="2.615166">
        <ele>507.303</ele>
        <time>2020-07-26T05:47:38Z</time>
      </trkpt>
      <trkpt lat="41.848145" lon="2.615173">
        <ele>507.223</ele>
        <time>2020-07-26T05:47:39Z</time>
      </trkpt>
      <trkpt lat="41.848104" lon="2.615180">
        <ele>507.008</ele>
        <time>2020-07-26T05:47:40Z</time>
      </trkpt>
      <trkpt lat="41.848066" lon="2.615188">
        <ele>506.830</ele>
        <time>2020-07-26T05:47:41Z</time>
      </trkpt>
      <trkpt lat="41.848026" lon="2.615196">
        <ele>506.718</ele>
        <time>2020-07-26T05:47:42Z</time>
      </trkpt>
      <trkpt lat="41.847983" lon="2.615209">
        <ele>506.611</ele>
        <time>2020-07-26T05:47:43Z</time>
      </trkpt>
      <trkpt lat="41.847942" lon="2.615220">
        <ele>506.066</ele>
        <time>2020-07-26T05:47:44Z</time>
      </trkpt>
      <trkpt lat="41.847896" lon="2.615227">
        <ele>506.044</ele>
        <time>2020-07-26T05:47:45Z</time>
      </trkpt>
      <trkpt lat="41.847847" lon="2.615232">
        <ele>505.827</ele>
        <time>2020-07-26T05:47:46Z</time>
      </trkpt>
      <trkpt lat="41.847797" lon="2.615237">
        <ele>505.771</ele>
        <time>2020-07-26T05:47:47Z</time>
      </trkpt>
      <trkpt lat="41.847745" lon="2.615241">
        <ele>505.977</ele>
        <time>2020-07-26T05:47:48Z</time>
      </trkpt>
      <trkpt lat="41.847694" lon="2.615242">
        <ele>505.819</ele>
        <time>2020-07-26T05:47:49Z</time>
      </trkpt>
      <trkpt lat="41.847597" lon="2.615233">
        <ele>506.209</ele>
        <time>2020-07-26T05:47:51Z</time>
      </trkpt>
      <trkpt lat="41.847462" lon="2.615218">
        <ele>506.619</ele>
        <time>2020-07-26T05:47:54Z</time>
      </trkpt>
      <trkpt lat="41.847337" lon="2.615207">
        <ele>507.008</ele>
        <time>2020-07-26T05:47:57Z</time>
      </trkpt>
      <trkpt lat="41.847245" lon="2.615197">
        <ele>507.016</ele>
        <time>2020-07-26T05:47:59Z</time>
      </trkpt>
      <trkpt lat="41.847123" lon="2.615198">
        <ele>507.294</ele>
        <time>2020-07-26T05:48:01Z</time>
      </trkpt>
      <trkpt lat="41.847072" lon="2.615190">
        <ele>507.237</ele>
        <time>2020-07-26T05:48:02Z</time>
      </trkpt>
      <trkpt lat="41.847025" lon="2.615172">
        <ele>507.022</ele>
        <time>2020-07-26T05:48:03Z</time>
      </trkpt>
      <trkpt lat="41.846978" lon="2.615146">
        <ele>507.040</ele>
        <time>2020-07-26T05:48:04Z</time>
      </trkpt>
      <trkpt lat="41.846922" lon="2.615102">
        <ele>507.053</ele>
        <time>2020-07-26T05:48:05Z</time>
      </trkpt>
      <trkpt lat="41.846883" lon="2.615042">
        <ele>507.097</ele>
        <time>2020-07-26T05:48:06Z</time>
      </trkpt>
      <trkpt lat="41.846835" lon="2.614990">
        <ele>506.463</ele>
        <time>2020-07-26T05:48:07Z</time>
      </trkpt>
      <trkpt lat="41.846788" lon="2.614939">
        <ele>506.348</ele>
        <time>2020-07-26T05:48:08Z</time>
      </trkpt>
      <trkpt lat="41.846747" lon="2.614877">
        <ele>506.261</ele>
        <time>2020-07-26T05:48:09Z</time>
      </trkpt>
      <trkpt lat="41.846707" lon="2.614812">
        <ele>505.817</ele>
        <time>2020-07-26T05:48:10Z</time>
      </trkpt>
      <trkpt lat="41.846661" lon="2.614751">
        <ele>505.608</ele>
        <time>2020-07-26T05:48:11Z</time>
      </trkpt>
      <trkpt lat="41.846614" lon="2.614691">
        <ele>505.239</ele>
        <time>2020-07-26T05:48:12Z</time>
      </trkpt>
      <trkpt lat="41.846568" lon="2.614634">
        <ele>505.027</ele>
        <time>2020-07-26T05:48:13Z</time>
      </trkpt>
      <trkpt lat="41.846527" lon="2.614578">
        <ele>504.410</ele>
        <time>2020-07-26T05:48:14Z</time>
      </trkpt>
      <trkpt lat="41.846485" lon="2.614521">
        <ele>504.915</ele>
        <time>2020-07-26T05:48:15Z</time>
      </trkpt>
      <trkpt lat="41.846445" lon="2.614469">
        <ele>504.683</ele>
        <time>2020-07-26T05:48:16Z</time>
      </trkpt>
      <trkpt lat="41.846359" lon="2.614366">
        <ele>503.696</ele>
        <time>2020-07-26T05:48:18Z</time>
      </trkpt>
      <trkpt lat="41.846282" lon="2.614244">
        <ele>502.680</ele>
        <time>2020-07-26T05:48:20Z</time>
      </trkpt>
      <trkpt lat="41.846251" lon="2.614180">
        <ele>502.416</ele>
        <time>2020-07-26T05:48:21Z</time>
      </trkpt>
      <trkpt lat="41.846220" lon="2.614113">
        <ele>502.065</ele>
        <time>2020-07-26T05:48:22Z</time>
      </trkpt>
      <trkpt lat="41.846161" lon="2.613971">
        <ele>501.268</ele>
        <time>2020-07-26T05:48:24Z</time>
      </trkpt>
      <trkpt lat="41.846133" lon="2.613907">
        <ele>500.814</ele>
        <time>2020-07-26T05:48:25Z</time>
      </trkpt>
      <trkpt lat="41.846109" lon="2.613843">
        <ele>500.008</ele>
        <time>2020-07-26T05:48:26Z</time>
      </trkpt>
      <trkpt lat="41.846087" lon="2.613779">
        <ele>499.641</ele>
        <time>2020-07-26T05:48:27Z</time>
      </trkpt>
      <trkpt lat="41.846066" lon="2.613712">
        <ele>499.479</ele>
        <time>2020-07-26T05:48:28Z</time>
      </trkpt>
      <trkpt lat="41.846040" lon="2.613565">
        <ele>499.062</ele>
        <time>2020-07-26T05:48:30Z</time>
      </trkpt>
      <trkpt lat="41.846017" lon="2.613432">
        <ele>498.477</ele>
        <time>2020-07-26T05:48:32Z</time>
      </trkpt>
      <trkpt lat="41.846005" lon="2.613364">
        <ele>498.245</ele>
        <time>2020-07-26T05:48:33Z</time>
      </trkpt>
      <trkpt lat="41.845994" lon="2.613293">
        <ele>498.088</ele>
        <time>2020-07-26T05:48:34Z</time>
      </trkpt>
      <trkpt lat="41.845993" lon="2.613214">
        <ele>498.132</ele>
        <time>2020-07-26T05:48:35Z</time>
      </trkpt>
      <trkpt lat="41.846002" lon="2.613133">
        <ele>497.858</ele>
        <time>2020-07-26T05:48:36Z</time>
      </trkpt>
      <trkpt lat="41.846010" lon="2.613050">
        <ele>497.939</ele>
        <time>2020-07-26T05:48:37Z</time>
      </trkpt>
      <trkpt lat="41.846014" lon="2.612972">
        <ele>497.801</ele>
        <time>2020-07-26T05:48:38Z</time>
      </trkpt>
      <trkpt lat="41.846022" lon="2.612898">
        <ele>497.721</ele>
        <time>2020-07-26T05:48:39Z</time>
      </trkpt>
      <trkpt lat="41.846038" lon="2.612823">
        <ele>497.608</ele>
        <time>2020-07-26T05:48:40Z</time>
      </trkpt>
      <trkpt lat="41.846062" lon="2.612748">
        <ele>497.678</ele>
        <time>2020-07-26T05:48:41Z</time>
      </trkpt>
      <trkpt lat="41.846091" lon="2.612681">
        <ele>497.486</ele>
        <time>2020-07-26T05:48:42Z</time>
      </trkpt>
      <trkpt lat="41.846128" lon="2.612622">
        <ele>497.049</ele>
        <time>2020-07-26T05:48:43Z</time>
      </trkpt>
      <trkpt lat="41.846166" lon="2.612568">
        <ele>496.894</ele>
        <time>2020-07-26T05:48:44Z</time>
      </trkpt>
      <trkpt lat="41.846258" lon="2.612480">
        <ele>496.072</ele>
        <time>2020-07-26T05:48:46Z</time>
      </trkpt>
      <trkpt lat="41.846368" lon="2.612400">
        <ele>495.655</ele>
        <time>2020-07-26T05:48:48Z</time>
      </trkpt>
      <trkpt lat="41.846472" lon="2.612303">
        <ele>495.019</ele>
        <time>2020-07-26T05:48:50Z</time>
      </trkpt>
      <trkpt lat="41.846563" lon="2.612193">
        <ele>494.635</ele>
        <time>2020-07-26T05:48:52Z</time>
      </trkpt>
      <trkpt lat="41.846639" lon="2.612076">
        <ele>494.451</ele>
        <time>2020-07-26T05:48:54Z</time>
      </trkpt>
      <trkpt lat="41.846678" lon="2.612021">
        <ele>494.201</ele>
        <time>2020-07-26T05:48:55Z</time>
      </trkpt>
      <trkpt lat="41.846713" lon="2.611962">
        <ele>494.011</ele>
        <time>2020-07-26T05:48:56Z</time>
      </trkpt>
      <trkpt lat="41.846748" lon="2.611905">
        <ele>493.608</ele>
        <time>2020-07-26T05:48:57Z</time>
      </trkpt>
      <trkpt lat="41.846780" lon="2.611845">
        <ele>493.420</ele>
        <time>2020-07-26T05:48:58Z</time>
      </trkpt>
      <trkpt lat="41.846805" lon="2.611781">
        <ele>493.338</ele>
        <time>2020-07-26T05:48:59Z</time>
      </trkpt>
      <trkpt lat="41.846810" lon="2.611706">
        <ele>493.331</ele>
        <time>2020-07-26T05:49:00Z</time>
      </trkpt>
      <trkpt lat="41.846823" lon="2.611642">
        <ele>493.236</ele>
        <time>2020-07-26T05:49:01Z</time>
      </trkpt>
      <trkpt lat="41.846801" lon="2.611519">
        <ele>493.014</ele>
        <time>2020-07-26T05:49:03Z</time>
      </trkpt>
      <trkpt lat="41.846757" lon="2.611410">
        <ele>492.937</ele>
        <time>2020-07-26T05:49:05Z</time>
      </trkpt>
      <trkpt lat="41.846717" lon="2.611247">
        <ele>492.951</ele>
        <time>2020-07-26T05:49:08Z</time>
      </trkpt>
      <trkpt lat="41.846718" lon="2.611186">
        <ele>492.627</ele>
        <time>2020-07-26T05:49:09Z</time>
      </trkpt>
      <trkpt lat="41.846719" lon="2.611122">
        <ele>492.645</ele>
        <time>2020-07-26T05:49:10Z</time>
      </trkpt>
      <trkpt lat="41.846725" lon="2.611063">
        <ele>492.447</ele>
        <time>2020-07-26T05:49:11Z</time>
      </trkpt>
      <trkpt lat="41.846739" lon="2.611005">
        <ele>492.211</ele>
        <time>2020-07-26T05:49:12Z</time>
      </trkpt>
      <trkpt lat="41.846750" lon="2.610957">
        <ele>492.308</ele>
        <time>2020-07-26T05:49:13Z</time>
      </trkpt>
      <trkpt lat="41.846759" lon="2.610910">
        <ele>492.229</ele>
        <time>2020-07-26T05:49:14Z</time>
      </trkpt>
      <trkpt lat="41.846771" lon="2.610859">
        <ele>492.057</ele>
        <time>2020-07-26T05:49:15Z</time>
      </trkpt>
      <trkpt lat="41.846790" lon="2.610806">
        <ele>491.830</ele>
        <time>2020-07-26T05:49:16Z</time>
      </trkpt>
      <trkpt lat="41.846807" lon="2.610752">
        <ele>491.775</ele>
        <time>2020-07-26T05:49:17Z</time>
      </trkpt>
      <trkpt lat="41.846824" lon="2.610623">
        <ele>491.783</ele>
        <time>2020-07-26T05:49:19Z</time>
      </trkpt>
      <trkpt lat="41.846843" lon="2.610504">
        <ele>491.956</ele>
        <time>2020-07-26T05:49:21Z</time>
      </trkpt>
      <trkpt lat="41.846867" lon="2.610374">
        <ele>492.770</ele>
        <time>2020-07-26T05:49:24Z</time>
      </trkpt>
      <trkpt lat="41.846838" lon="2.610243">
        <ele>492.716</ele>
        <time>2020-07-26T05:49:27Z</time>
      </trkpt>
      <trkpt lat="41.846816" lon="2.610197">
        <ele>493.137</ele>
        <time>2020-07-26T05:49:28Z</time>
      </trkpt>
      <trkpt lat="41.846796" lon="2.610131">
        <ele>493.349</ele>
        <time>2020-07-26T05:49:29Z</time>
      </trkpt>
      <trkpt lat="41.846770" lon="2.610075">
        <ele>493.313</ele>
        <time>2020-07-26T05:49:30Z</time>
      </trkpt>
      <trkpt lat="41.846742" lon="2.610021">
        <ele>493.308</ele>
        <time>2020-07-26T05:49:31Z</time>
      </trkpt>
      <trkpt lat="41.846716" lon="2.609970">
        <ele>493.578</ele>
        <time>2020-07-26T05:49:32Z</time>
      </trkpt>
      <trkpt lat="41.846692" lon="2.609914">
        <ele>493.426</ele>
        <time>2020-07-26T05:49:33Z</time>
      </trkpt>
      <trkpt lat="41.846669" lon="2.609853">
        <ele>493.589</ele>
        <time>2020-07-26T05:49:34Z</time>
      </trkpt>
      <trkpt lat="41.846613" lon="2.609724">
        <ele>493.234</ele>
        <time>2020-07-26T05:49:36Z</time>
      </trkpt>
      <trkpt lat="41.846574" lon="2.609604">
        <ele>492.832</ele>
        <time>2020-07-26T05:49:38Z</time>
      </trkpt>
      <trkpt lat="41.846536" lon="2.609475">
        <ele>492.455</ele>
        <time>2020-07-26T05:49:40Z</time>
      </trkpt>
      <trkpt lat="41.846494" lon="2.609360">
        <ele>492.079</ele>
        <time>2020-07-26T05:49:42Z</time>
      </trkpt>
      <trkpt lat="41.846441" lon="2.609249">
        <ele>491.435</ele>
        <time>2020-07-26T05:49:44Z</time>
      </trkpt>
      <trkpt lat="41.846402" lon="2.609117">
        <ele>490.817</ele>
        <time>2020-07-26T05:49:46Z</time>
      </trkpt>
      <trkpt lat="41.846380" lon="2.608980">
        <ele>490.487</ele>
        <time>2020-07-26T05:49:48Z</time>
      </trkpt>
      <trkpt lat="41.846356" lon="2.608836">
        <ele>490.015</ele>
        <time>2020-07-26T05:49:50Z</time>
      </trkpt>
      <trkpt lat="41.846325" lon="2.608700">
        <ele>489.608</ele>
        <time>2020-07-26T05:49:52Z</time>
      </trkpt>
      <trkpt lat="41.846295" lon="2.608549">
        <ele>489.056</ele>
        <time>2020-07-26T05:49:54Z</time>
      </trkpt>
      <trkpt lat="41.846273" lon="2.608413">
        <ele>488.864</ele>
        <time>2020-07-26T05:49:56Z</time>
      </trkpt>
      <trkpt lat="41.846240" lon="2.608276">
        <ele>488.417</ele>
        <time>2020-07-26T05:49:58Z</time>
      </trkpt>
      <trkpt lat="41.846200" lon="2.608143">
        <ele>488.322</ele>
        <time>2020-07-26T05:50:00Z</time>
      </trkpt>
      <trkpt lat="41.846156" lon="2.608028">
        <ele>487.870</ele>
        <time>2020-07-26T05:50:02Z</time>
      </trkpt>
      <trkpt lat="41.846121" lon="2.607915">
        <ele>487.763</ele>
        <time>2020-07-26T05:50:04Z</time>
      </trkpt>
      <trkpt lat="41.846083" lon="2.607748">
        <ele>487.467</ele>
        <time>2020-07-26T05:50:06Z</time>
      </trkpt>
      <trkpt lat="41.846076" lon="2.607613">
        <ele>487.093</ele>
        <time>2020-07-26T05:50:08Z</time>
      </trkpt>
      <trkpt lat="41.846090" lon="2.607481">
        <ele>487.127</ele>
        <time>2020-07-26T05:50:10Z</time>
      </trkpt>
      <trkpt lat="41.846155" lon="2.607340">
        <ele>487.168</ele>
        <time>2020-07-26T05:50:13Z</time>
      </trkpt>
      <trkpt lat="41.846235" lon="2.607191">
        <ele>487.214</ele>
        <time>2020-07-26T05:50:16Z</time>
      </trkpt>
      <trkpt lat="41.846318" lon="2.607051">
        <ele>487.508</ele>
        <time>2020-07-26T05:50:19Z</time>
      </trkpt>
      <trkpt lat="41.846376" lon="2.606950">
        <ele>488.047</ele>
        <time>2020-07-26T05:50:21Z</time>
      </trkpt>
      <trkpt lat="41.846448" lon="2.606827">
        <ele>488.545</ele>
        <time>2020-07-26T05:50:24Z</time>
      </trkpt>
      <trkpt lat="41.846483" lon="2.606685">
        <ele>489.398</ele>
        <time>2020-07-26T05:50:28Z</time>
      </trkpt>
      <trkpt lat="41.846572" lon="2.606547">
        <ele>489.633</ele>
        <time>2020-07-26T05:50:31Z</time>
      </trkpt>
      <trkpt lat="41.846640" lon="2.606443">
        <ele>489.711</ele>
        <time>2020-07-26T05:50:33Z</time>
      </trkpt>
      <trkpt lat="41.846666" lon="2.606398">
        <ele>489.664</ele>
        <time>2020-07-26T05:50:34Z</time>
      </trkpt>
      <trkpt lat="41.846703" lon="2.606253">
        <ele>489.918</ele>
        <time>2020-07-26T05:50:37Z</time>
      </trkpt>
      <trkpt lat="41.846660" lon="2.606126">
        <ele>490.334</ele>
        <time>2020-07-26T05:50:40Z</time>
      </trkpt>
      <trkpt lat="41.846638" lon="2.606014">
        <ele>490.535</ele>
        <time>2020-07-26T05:50:42Z</time>
      </trkpt>
      <trkpt lat="41.846627" lon="2.605956">
        <ele>490.686</ele>
        <time>2020-07-26T05:50:43Z</time>
      </trkpt>
      <trkpt lat="41.846611" lon="2.605906">
        <ele>490.714</ele>
        <time>2020-07-26T05:50:44Z</time>
      </trkpt>
      <trkpt lat="41.846593" lon="2.605866">
        <ele>490.708</ele>
        <time>2020-07-26T05:50:45Z</time>
      </trkpt>
      <trkpt lat="41.846551" lon="2.605792">
        <ele>491.138</ele>
        <time>2020-07-26T05:50:47Z</time>
      </trkpt>
      <trkpt lat="41.846472" lon="2.605710">
        <ele>491.366</ele>
        <time>2020-07-26T05:50:50Z</time>
      </trkpt>
      <trkpt lat="41.846440" lon="2.605675">
        <ele>491.339</ele>
        <time>2020-07-26T05:50:51Z</time>
      </trkpt>
      <trkpt lat="41.846355" lon="2.605574">
        <ele>491.664</ele>
        <time>2020-07-26T05:50:54Z</time>
      </trkpt>
      <trkpt lat="41.846267" lon="2.605488">
        <ele>492.212</ele>
        <time>2020-07-26T05:50:57Z</time>
      </trkpt>
      <trkpt lat="41.846182" lon="2.605385">
        <ele>493.065</ele>
        <time>2020-07-26T05:51:01Z</time>
      </trkpt>
      <trkpt lat="41.846112" lon="2.605256">
        <ele>493.959</ele>
        <time>2020-07-26T05:51:04Z</time>
      </trkpt>
      <trkpt lat="41.846064" lon="2.605137">
        <ele>494.735</ele>
        <time>2020-07-26T05:51:07Z</time>
      </trkpt>
      <trkpt lat="41.846024" lon="2.605017">
        <ele>494.976</ele>
        <time>2020-07-26T05:51:10Z</time>
      </trkpt>
      <trkpt lat="41.846011" lon="2.604981">
        <ele>495.190</ele>
        <time>2020-07-26T05:51:11Z</time>
      </trkpt>
      <trkpt lat="41.846001" lon="2.604946">
        <ele>495.319</ele>
        <time>2020-07-26T05:51:12Z</time>
      </trkpt>
      <trkpt lat="41.845992" lon="2.604908">
        <ele>495.508</ele>
        <time>2020-07-26T05:51:13Z</time>
      </trkpt>
      <trkpt lat="41.845981" lon="2.604873">
        <ele>495.642</ele>
        <time>2020-07-26T05:51:14Z</time>
      </trkpt>
      <trkpt lat="41.845972" lon="2.604835">
        <ele>495.910</ele>
        <time>2020-07-26T05:51:15Z</time>
      </trkpt>
      <trkpt lat="41.845943" lon="2.604732">
        <ele>497.033</ele>
        <time>2020-07-26T05:51:18Z</time>
      </trkpt>
      <trkpt lat="41.845933" lon="2.604698">
        <ele>497.188</ele>
        <time>2020-07-26T05:51:19Z</time>
      </trkpt>
      <trkpt lat="41.845925" lon="2.604664">
        <ele>497.276</ele>
        <time>2020-07-26T05:51:20Z</time>
      </trkpt>
      <trkpt lat="41.845917" lon="2.604627">
        <ele>497.339</ele>
        <time>2020-07-26T05:51:21Z</time>
      </trkpt>
      <trkpt lat="41.845905" lon="2.604594">
        <ele>497.393</ele>
        <time>2020-07-26T05:51:22Z</time>
      </trkpt>
      <trkpt lat="41.845894" lon="2.604560">
        <ele>497.399</ele>
        <time>2020-07-26T05:51:23Z</time>
      </trkpt>
      <trkpt lat="41.845882" lon="2.604526">
        <ele>497.536</ele>
        <time>2020-07-26T05:51:24Z</time>
      </trkpt>
      <trkpt lat="41.845868" lon="2.604487">
        <ele>497.617</ele>
        <time>2020-07-26T05:51:25Z</time>
      </trkpt>
      <trkpt lat="41.845857" lon="2.604451">
        <ele>497.918</ele>
        <time>2020-07-26T05:51:26Z</time>
      </trkpt>
      <trkpt lat="41.845846" lon="2.604416">
        <ele>498.108</ele>
        <time>2020-07-26T05:51:27Z</time>
      </trkpt>
      <trkpt lat="41.845836" lon="2.604383">
        <ele>498.288</ele>
        <time>2020-07-26T05:51:28Z</time>
      </trkpt>
      <trkpt lat="41.845826" lon="2.604351">
        <ele>498.536</ele>
        <time>2020-07-26T05:51:29Z</time>
      </trkpt>
      <trkpt lat="41.845770" lon="2.604236">
        <ele>499.319</ele>
        <time>2020-07-26T05:51:33Z</time>
      </trkpt>
      <trkpt lat="41.845702" lon="2.604151">
        <ele>499.974</ele>
        <time>2020-07-26T05:51:37Z</time>
      </trkpt>
      <trkpt lat="41.845597" lon="2.604106">
        <ele>500.742</ele>
        <time>2020-07-26T05:51:41Z</time>
      </trkpt>
      <trkpt lat="41.845500" lon="2.604074">
        <ele>502.315</ele>
        <time>2020-07-26T05:51:45Z</time>
      </trkpt>
      <trkpt lat="41.845413" lon="2.604026">
        <ele>503.989</ele>
        <time>2020-07-26T05:51:49Z</time>
      </trkpt>
      <trkpt lat="41.845360" lon="2.603929">
        <ele>505.375</ele>
        <time>2020-07-26T05:51:53Z</time>
      </trkpt>
      <trkpt lat="41.845357" lon="2.603902">
        <ele>505.717</ele>
        <time>2020-07-26T05:51:54Z</time>
      </trkpt>
      <trkpt lat="41.845356" lon="2.603874">
        <ele>506.187</ele>
        <time>2020-07-26T05:51:55Z</time>
      </trkpt>
      <trkpt lat="41.845357" lon="2.603845">
        <ele>506.515</ele>
        <time>2020-07-26T05:51:56Z</time>
      </trkpt>
      <trkpt lat="41.845359" lon="2.603819">
        <ele>506.708</ele>
        <time>2020-07-26T05:51:57Z</time>
      </trkpt>
      <trkpt lat="41.845368" lon="2.603772">
        <ele>507.096</ele>
        <time>2020-07-26T05:51:59Z</time>
      </trkpt>
      <trkpt lat="41.845371" lon="2.603748">
        <ele>507.334</ele>
        <time>2020-07-26T05:52:00Z</time>
      </trkpt>
      <trkpt lat="41.845373" lon="2.603722">
        <ele>507.747</ele>
        <time>2020-07-26T05:52:01Z</time>
      </trkpt>
      <trkpt lat="41.845378" lon="2.603694">
        <ele>507.712</ele>
        <time>2020-07-26T05:52:02Z</time>
      </trkpt>
      <trkpt lat="41.845382" lon="2.603665">
        <ele>508.160</ele>
        <time>2020-07-26T05:52:03Z</time>
      </trkpt>
      <trkpt lat="41.845382" lon="2.603640">
        <ele>508.573</ele>
        <time>2020-07-26T05:52:04Z</time>
      </trkpt>
      <trkpt lat="41.845388" lon="2.603611">
        <ele>508.637</ele>
        <time>2020-07-26T05:52:05Z</time>
      </trkpt>
      <trkpt lat="41.845389" lon="2.603585">
        <ele>508.913</ele>
        <time>2020-07-26T05:52:06Z</time>
      </trkpt>
      <trkpt lat="41.845389" lon="2.603554">
        <ele>509.314</ele>
        <time>2020-07-26T05:52:07Z</time>
      </trkpt>
      <trkpt lat="41.845383" lon="2.603530">
        <ele>509.754</ele>
        <time>2020-07-26T05:52:08Z</time>
      </trkpt>
      <trkpt lat="41.845369" lon="2.603454">
        <ele>510.209</ele>
        <time>2020-07-26T05:52:11Z</time>
      </trkpt>
      <trkpt lat="41.845360" lon="2.603430">
        <ele>510.708</ele>
        <time>2020-07-26T05:52:12Z</time>
      </trkpt>
      <trkpt lat="41.845352" lon="2.603404">
        <ele>511.336</ele>
        <time>2020-07-26T05:52:13Z</time>
      </trkpt>
      <trkpt lat="41.845343" lon="2.603377">
        <ele>511.314</ele>
        <time>2020-07-26T05:52:14Z</time>
      </trkpt>
      <trkpt lat="41.845335" lon="2.603349">
        <ele>511.757</ele>
        <time>2020-07-26T05:52:15Z</time>
      </trkpt>
      <trkpt lat="41.845324" lon="2.603324">
        <ele>511.992</ele>
        <time>2020-07-26T05:52:16Z</time>
      </trkpt>
      <trkpt lat="41.845309" lon="2.603298">
        <ele>512.980</ele>
        <time>2020-07-26T05:52:17Z</time>
      </trkpt>
      <trkpt lat="41.845292" lon="2.603275">
        <ele>512.693</ele>
        <time>2020-07-26T05:52:18Z</time>
      </trkpt>
      <trkpt lat="41.845274" lon="2.603253">
        <ele>512.767</ele>
        <time>2020-07-26T05:52:19Z</time>
      </trkpt>
      <trkpt lat="41.845257" lon="2.603230">
        <ele>512.913</ele>
        <time>2020-07-26T05:52:20Z</time>
      </trkpt>
      <trkpt lat="41.845241" lon="2.603207">
        <ele>513.141</ele>
        <time>2020-07-26T05:52:21Z</time>
      </trkpt>
      <trkpt lat="41.845220" lon="2.603187">
        <ele>513.381</ele>
        <time>2020-07-26T05:52:22Z</time>
      </trkpt>
      <trkpt lat="41.845174" lon="2.603150">
        <ele>513.709</ele>
        <time>2020-07-26T05:52:24Z</time>
      </trkpt>
      <trkpt lat="41.845153" lon="2.603133">
        <ele>514.108</ele>
        <time>2020-07-26T05:52:25Z</time>
      </trkpt>
      <trkpt lat="41.845135" lon="2.603116">
        <ele>514.289</ele>
        <time>2020-07-26T05:52:26Z</time>
      </trkpt>
      <trkpt lat="41.845047" lon="2.603067">
        <ele>515.117</ele>
        <time>2020-07-26T05:52:30Z</time>
      </trkpt>
      <trkpt lat="41.844992" lon="2.603051">
        <ele>515.730</ele>
        <time>2020-07-26T05:52:32Z</time>
      </trkpt>
      <trkpt lat="41.844966" lon="2.603042">
        <ele>515.975</ele>
        <time>2020-07-26T05:52:33Z</time>
      </trkpt>
      <trkpt lat="41.844939" lon="2.603031">
        <ele>516.183</ele>
        <time>2020-07-26T05:52:34Z</time>
      </trkpt>
      <trkpt lat="41.844894" lon="2.602995">
        <ele>516.726</ele>
        <time>2020-07-26T05:52:36Z</time>
      </trkpt>
      <trkpt lat="41.844871" lon="2.602971">
        <ele>516.930</ele>
        <time>2020-07-26T05:52:37Z</time>
      </trkpt>
      <trkpt lat="41.844852" lon="2.602945">
        <ele>517.126</ele>
        <time>2020-07-26T05:52:38Z</time>
      </trkpt>
      <trkpt lat="41.844834" lon="2.602920">
        <ele>517.365</ele>
        <time>2020-07-26T05:52:39Z</time>
      </trkpt>
      <trkpt lat="41.844816" lon="2.602892">
        <ele>517.568</ele>
        <time>2020-07-26T05:52:40Z</time>
      </trkpt>
      <trkpt lat="41.844798" lon="2.602865">
        <ele>517.714</ele>
        <time>2020-07-26T05:52:41Z</time>
      </trkpt>
      <trkpt lat="41.844781" lon="2.602839">
        <ele>518.108</ele>
        <time>2020-07-26T05:52:42Z</time>
      </trkpt>
      <trkpt lat="41.844764" lon="2.602811">
        <ele>518.371</ele>
        <time>2020-07-26T05:52:43Z</time>
      </trkpt>
      <trkpt lat="41.844747" lon="2.602783">
        <ele>518.489</ele>
        <time>2020-07-26T05:52:44Z</time>
      </trkpt>
      <trkpt lat="41.844732" lon="2.602751">
        <ele>518.762</ele>
        <time>2020-07-26T05:52:45Z</time>
      </trkpt>
      <trkpt lat="41.844718" lon="2.602721">
        <ele>519.147</ele>
        <time>2020-07-26T05:52:46Z</time>
      </trkpt>
      <trkpt lat="41.844706" lon="2.602693">
        <ele>519.325</ele>
        <time>2020-07-26T05:52:47Z</time>
      </trkpt>
      <trkpt lat="41.844698" lon="2.602664">
        <ele>519.778</ele>
        <time>2020-07-26T05:52:48Z</time>
      </trkpt>
      <trkpt lat="41.844690" lon="2.602636">
        <ele>519.982</ele>
        <time>2020-07-26T05:52:49Z</time>
      </trkpt>
      <trkpt lat="41.844687" lon="2.602607">
        <ele>520.068</ele>
        <time>2020-07-26T05:52:50Z</time>
      </trkpt>
      <trkpt lat="41.844690" lon="2.602578">
        <ele>520.356</ele>
        <time>2020-07-26T05:52:51Z</time>
      </trkpt>
      <trkpt lat="41.844696" lon="2.602550">
        <ele>520.759</ele>
        <time>2020-07-26T05:52:52Z</time>
      </trkpt>
      <trkpt lat="41.844707" lon="2.602526">
        <ele>520.914</ele>
        <time>2020-07-26T05:52:53Z</time>
      </trkpt>
      <trkpt lat="41.844722" lon="2.602506">
        <ele>521.308</ele>
        <time>2020-07-26T05:52:54Z</time>
      </trkpt>
      <trkpt lat="41.844741" lon="2.602486">
        <ele>521.770</ele>
        <time>2020-07-26T05:52:55Z</time>
      </trkpt>
      <trkpt lat="41.844761" lon="2.602469">
        <ele>521.758</ele>
        <time>2020-07-26T05:52:56Z</time>
      </trkpt>
      <trkpt lat="41.844784" lon="2.602456">
        <ele>522.161</ele>
        <time>2020-07-26T05:52:57Z</time>
      </trkpt>
      <trkpt lat="41.844807" lon="2.602446">
        <ele>522.276</ele>
        <time>2020-07-26T05:52:58Z</time>
      </trkpt>
      <trkpt lat="41.844829" lon="2.602437">
        <ele>522.564</ele>
        <time>2020-07-26T05:52:59Z</time>
      </trkpt>
      <trkpt lat="41.844852" lon="2.602430">
        <ele>522.787</ele>
        <time>2020-07-26T05:53:00Z</time>
      </trkpt>
      <trkpt lat="41.844874" lon="2.602424">
        <ele>522.751</ele>
        <time>2020-07-26T05:53:01Z</time>
      </trkpt>
      <trkpt lat="41.844897" lon="2.602416">
        <ele>523.157</ele>
        <time>2020-07-26T05:53:02Z</time>
      </trkpt>
      <trkpt lat="41.844919" lon="2.602408">
        <ele>523.313</ele>
        <time>2020-07-26T05:53:03Z</time>
      </trkpt>
      <trkpt lat="41.844939" lon="2.602396">
        <ele>523.543</ele>
        <time>2020-07-26T05:53:04Z</time>
      </trkpt>
      <trkpt lat="41.844960" lon="2.602386">
        <ele>523.907</ele>
        <time>2020-07-26T05:53:05Z</time>
      </trkpt>
      <trkpt lat="41.844982" lon="2.602378">
        <ele>524.008</ele>
        <time>2020-07-26T05:53:06Z</time>
      </trkpt>
      <trkpt lat="41.845002" lon="2.602369">
        <ele>524.156</ele>
        <time>2020-07-26T05:53:07Z</time>
      </trkpt>
      <trkpt lat="41.845022" lon="2.602358">
        <ele>524.594</ele>
        <time>2020-07-26T05:53:08Z</time>
      </trkpt>
      <trkpt lat="41.845043" lon="2.602347">
        <ele>524.767</ele>
        <time>2020-07-26T05:53:09Z</time>
      </trkpt>
      <trkpt lat="41.845062" lon="2.602335">
        <ele>524.952</ele>
        <time>2020-07-26T05:53:10Z</time>
      </trkpt>
      <trkpt lat="41.845083" lon="2.602323">
        <ele>525.120</ele>
        <time>2020-07-26T05:53:11Z</time>
      </trkpt>
      <trkpt lat="41.845105" lon="2.602310">
        <ele>525.293</ele>
        <time>2020-07-26T05:53:12Z</time>
      </trkpt>
      <trkpt lat="41.845126" lon="2.602299">
        <ele>525.517</ele>
        <time>2020-07-26T05:53:13Z</time>
      </trkpt>
      <trkpt lat="41.845147" lon="2.602289">
        <ele>525.733</ele>
        <time>2020-07-26T05:53:14Z</time>
      </trkpt>
      <trkpt lat="41.845166" lon="2.602280">
        <ele>526.132</ele>
        <time>2020-07-26T05:53:15Z</time>
      </trkpt>
      <trkpt lat="41.845189" lon="2.602270">
        <ele>526.392</ele>
        <time>2020-07-26T05:53:16Z</time>
      </trkpt>
      <trkpt lat="41.845212" lon="2.602261">
        <ele>526.711</ele>
        <time>2020-07-26T05:53:17Z</time>
      </trkpt>
      <trkpt lat="41.845232" lon="2.602251">
        <ele>526.708</ele>
        <time>2020-07-26T05:53:18Z</time>
      </trkpt>
      <trkpt lat="41.845256" lon="2.602243">
        <ele>526.918</ele>
        <time>2020-07-26T05:53:19Z</time>
      </trkpt>
      <trkpt lat="41.845279" lon="2.602232">
        <ele>527.346</ele>
        <time>2020-07-26T05:53:20Z</time>
      </trkpt>
      <trkpt lat="41.845302" lon="2.602223">
        <ele>527.559</ele>
        <time>2020-07-26T05:53:21Z</time>
      </trkpt>
      <trkpt lat="41.845327" lon="2.602214">
        <ele>527.914</ele>
        <time>2020-07-26T05:53:22Z</time>
      </trkpt>
      <trkpt lat="41.845350" lon="2.602208">
        <ele>528.142</ele>
        <time>2020-07-26T05:53:23Z</time>
      </trkpt>
      <trkpt lat="41.845371" lon="2.602203">
        <ele>528.365</ele>
        <time>2020-07-26T05:53:24Z</time>
      </trkpt>
      <trkpt lat="41.845392" lon="2.602199">
        <ele>528.419</ele>
        <time>2020-07-26T05:53:25Z</time>
      </trkpt>
      <trkpt lat="41.845416" lon="2.602195">
        <ele>528.735</ele>
        <time>2020-07-26T05:53:26Z</time>
      </trkpt>
      <trkpt lat="41.845441" lon="2.602188">
        <ele>528.964</ele>
        <time>2020-07-26T05:53:27Z</time>
      </trkpt>
      <trkpt lat="41.845466" lon="2.602175">
        <ele>529.106</ele>
        <time>2020-07-26T05:53:28Z</time>
      </trkpt>
      <trkpt lat="41.845490" lon="2.602163">
        <ele>529.316</ele>
        <time>2020-07-26T05:53:29Z</time>
      </trkpt>
      <trkpt lat="41.845511" lon="2.602149">
        <ele>529.508</ele>
        <time>2020-07-26T05:53:30Z</time>
      </trkpt>
      <trkpt lat="41.845532" lon="2.602135">
        <ele>529.921</ele>
        <time>2020-07-26T05:53:31Z</time>
      </trkpt>
      <trkpt lat="41.845553" lon="2.602119">
        <ele>530.079</ele>
        <time>2020-07-26T05:53:32Z</time>
      </trkpt>
      <trkpt lat="41.845575" lon="2.602103">
        <ele>530.312</ele>
        <time>2020-07-26T05:53:33Z</time>
      </trkpt>
      <trkpt lat="41.845595" lon="2.602086">
        <ele>530.917</ele>
        <time>2020-07-26T05:53:34Z</time>
      </trkpt>
      <trkpt lat="41.845615" lon="2.602066">
        <ele>531.185</ele>
        <time>2020-07-26T05:53:35Z</time>
      </trkpt>
      <trkpt lat="41.845640" lon="2.602046">
        <ele>531.218</ele>
        <time>2020-07-26T05:53:36Z</time>
      </trkpt>
      <trkpt lat="41.845659" lon="2.602024">
        <ele>531.312</ele>
        <time>2020-07-26T05:53:37Z</time>
      </trkpt>
      <trkpt lat="41.845676" lon="2.602002">
        <ele>531.788</ele>
        <time>2020-07-26T05:53:38Z</time>
      </trkpt>
      <trkpt lat="41.845688" lon="2.601974">
        <ele>531.999</ele>
        <time>2020-07-26T05:53:39Z</time>
      </trkpt>
      <trkpt lat="41.845702" lon="2.601949">
        <ele>532.007</ele>
        <time>2020-07-26T05:53:40Z</time>
      </trkpt>
      <trkpt lat="41.845709" lon="2.601921">
        <ele>532.327</ele>
        <time>2020-07-26T05:53:41Z</time>
      </trkpt>
      <trkpt lat="41.845716" lon="2.601894">
        <ele>532.508</ele>
        <time>2020-07-26T05:53:42Z</time>
      </trkpt>
      <trkpt lat="41.845723" lon="2.601865">
        <ele>532.574</ele>
        <time>2020-07-26T05:53:43Z</time>
      </trkpt>
      <trkpt lat="41.845730" lon="2.601836">
        <ele>532.562</ele>
        <time>2020-07-26T05:53:44Z</time>
      </trkpt>
      <trkpt lat="41.845736" lon="2.601808">
        <ele>532.995</ele>
        <time>2020-07-26T05:53:45Z</time>
      </trkpt>
      <trkpt lat="41.845739" lon="2.601781">
        <ele>533.110</ele>
        <time>2020-07-26T05:53:46Z</time>
      </trkpt>
      <trkpt lat="41.845744" lon="2.601734">
        <ele>533.948</ele>
        <time>2020-07-26T05:53:48Z</time>
      </trkpt>
      <trkpt lat="41.845753" lon="2.601687">
        <ele>534.361</ele>
        <time>2020-07-26T05:53:50Z</time>
      </trkpt>
      <trkpt lat="41.845752" lon="2.601660">
        <ele>534.735</ele>
        <time>2020-07-26T05:53:51Z</time>
      </trkpt>
      <trkpt lat="41.845749" lon="2.601629">
        <ele>534.951</ele>
        <time>2020-07-26T05:53:52Z</time>
      </trkpt>
      <trkpt lat="41.845744" lon="2.601593">
        <ele>535.049</ele>
        <time>2020-07-26T05:53:53Z</time>
      </trkpt>
      <trkpt lat="41.845749" lon="2.601569">
        <ele>535.102</ele>
        <time>2020-07-26T05:53:54Z</time>
      </trkpt>
      <trkpt lat="41.845747" lon="2.601535">
        <ele>534.822</ele>
        <time>2020-07-26T05:53:55Z</time>
      </trkpt>
      <trkpt lat="41.845752" lon="2.601505">
        <ele>535.108</ele>
        <time>2020-07-26T05:53:56Z</time>
      </trkpt>
      <trkpt lat="41.845753" lon="2.601478">
        <ele>535.519</ele>
        <time>2020-07-26T05:53:57Z</time>
      </trkpt>
      <trkpt lat="41.845755" lon="2.601449">
        <ele>535.727</ele>
        <time>2020-07-26T05:53:58Z</time>
      </trkpt>
      <trkpt lat="41.845754" lon="2.601352">
        <ele>536.580</ele>
        <time>2020-07-26T05:54:01Z</time>
      </trkpt>
      <trkpt lat="41.845740" lon="2.601259">
        <ele>537.515</ele>
        <time>2020-07-26T05:54:04Z</time>
      </trkpt>
      <trkpt lat="41.845730" lon="2.601225">
        <ele>537.983</ele>
        <time>2020-07-26T05:54:05Z</time>
      </trkpt>
      <trkpt lat="41.845721" lon="2.601190">
        <ele>538.056</ele>
        <time>2020-07-26T05:54:06Z</time>
      </trkpt>
      <trkpt lat="41.845708" lon="2.601154">
        <ele>538.120</ele>
        <time>2020-07-26T05:54:07Z</time>
      </trkpt>
      <trkpt lat="41.845695" lon="2.601119">
        <ele>538.296</ele>
        <time>2020-07-26T05:54:08Z</time>
      </trkpt>
      <trkpt lat="41.845680" lon="2.601088">
        <ele>538.372</ele>
        <time>2020-07-26T05:54:09Z</time>
      </trkpt>
      <trkpt lat="41.845664" lon="2.601060">
        <ele>538.713</ele>
        <time>2020-07-26T05:54:10Z</time>
      </trkpt>
      <trkpt lat="41.845648" lon="2.601032">
        <ele>538.914</ele>
        <time>2020-07-26T05:54:11Z</time>
      </trkpt>
      <trkpt lat="41.845630" lon="2.600999">
        <ele>539.108</ele>
        <time>2020-07-26T05:54:12Z</time>
      </trkpt>
      <trkpt lat="41.845610" lon="2.600968">
        <ele>539.322</ele>
        <time>2020-07-26T05:54:13Z</time>
      </trkpt>
      <trkpt lat="41.845588" lon="2.600941">
        <ele>539.490</ele>
        <time>2020-07-26T05:54:14Z</time>
      </trkpt>
      <trkpt lat="41.845566" lon="2.600915">
        <ele>539.463</ele>
        <time>2020-07-26T05:54:15Z</time>
      </trkpt>
      <trkpt lat="41.845540" lon="2.600892">
        <ele>539.578</ele>
        <time>2020-07-26T05:54:16Z</time>
      </trkpt>
      <trkpt lat="41.845515" lon="2.600873">
        <ele>539.766</ele>
        <time>2020-07-26T05:54:17Z</time>
      </trkpt>
      <trkpt lat="41.845488" lon="2.600848">
        <ele>539.769</ele>
        <time>2020-07-26T05:54:18Z</time>
      </trkpt>
      <trkpt lat="41.845463" lon="2.600829">
        <ele>540.133</ele>
        <time>2020-07-26T05:54:19Z</time>
      </trkpt>
      <trkpt lat="41.845439" lon="2.600813">
        <ele>540.339</ele>
        <time>2020-07-26T05:54:20Z</time>
      </trkpt>
      <trkpt lat="41.845413" lon="2.600797">
        <ele>540.711</ele>
        <time>2020-07-26T05:54:21Z</time>
      </trkpt>
      <trkpt lat="41.845388" lon="2.600779">
        <ele>540.721</ele>
        <time>2020-07-26T05:54:22Z</time>
      </trkpt>
      <trkpt lat="41.845365" lon="2.600759">
        <ele>540.903</ele>
        <time>2020-07-26T05:54:23Z</time>
      </trkpt>
      <trkpt lat="41.845346" lon="2.600737">
        <ele>541.108</ele>
        <time>2020-07-26T05:54:24Z</time>
      </trkpt>
      <trkpt lat="41.845328" lon="2.600712">
        <ele>541.256</ele>
        <time>2020-07-26T05:54:25Z</time>
      </trkpt>
      <trkpt lat="41.845312" lon="2.600687">
        <ele>541.574</ele>
        <time>2020-07-26T05:54:26Z</time>
      </trkpt>
      <trkpt lat="41.845300" lon="2.600660">
        <ele>541.947</ele>
        <time>2020-07-26T05:54:27Z</time>
      </trkpt>
      <trkpt lat="41.845292" lon="2.600632">
        <ele>542.372</ele>
        <time>2020-07-26T05:54:28Z</time>
      </trkpt>
      <trkpt lat="41.845288" lon="2.600603">
        <ele>542.550</ele>
        <time>2020-07-26T05:54:29Z</time>
      </trkpt>
      <trkpt lat="41.845292" lon="2.600576">
        <ele>542.763</ele>
        <time>2020-07-26T05:54:30Z</time>
      </trkpt>
      <trkpt lat="41.845297" lon="2.600550">
        <ele>542.977</ele>
        <time>2020-07-26T05:54:31Z</time>
      </trkpt>
      <trkpt lat="41.845305" lon="2.600521">
        <ele>543.163</ele>
        <time>2020-07-26T05:54:32Z</time>
      </trkpt>
      <trkpt lat="41.845314" lon="2.600493">
        <ele>543.212</ele>
        <time>2020-07-26T05:54:33Z</time>
      </trkpt>
      <trkpt lat="41.845332" lon="2.600467">
        <ele>543.532</ele>
        <time>2020-07-26T05:54:34Z</time>
      </trkpt>
      <trkpt lat="41.845349" lon="2.600444">
        <ele>543.705</ele>
        <time>2020-07-26T05:54:35Z</time>
      </trkpt>
      <trkpt lat="41.845366" lon="2.600424">
        <ele>543.908</ele>
        <time>2020-07-26T05:54:36Z</time>
      </trkpt>
      <trkpt lat="41.845384" lon="2.600404">
        <ele>544.396</ele>
        <time>2020-07-26T05:54:37Z</time>
      </trkpt>
      <trkpt lat="41.845400" lon="2.600382">
        <ele>544.524</ele>
        <time>2020-07-26T05:54:38Z</time>
      </trkpt>
      <trkpt lat="41.845416" lon="2.600360">
        <ele>544.747</ele>
        <time>2020-07-26T05:54:39Z</time>
      </trkpt>
      <trkpt lat="41.845431" lon="2.600337">
        <ele>545.152</ele>
        <time>2020-07-26T05:54:40Z</time>
      </trkpt>
      <trkpt lat="41.845448" lon="2.600316">
        <ele>545.090</ele>
        <time>2020-07-26T05:54:41Z</time>
      </trkpt>
      <trkpt lat="41.845468" lon="2.600294">
        <ele>545.143</ele>
        <time>2020-07-26T05:54:42Z</time>
      </trkpt>
      <trkpt lat="41.845487" lon="2.600275">
        <ele>545.327</ele>
        <time>2020-07-26T05:54:43Z</time>
      </trkpt>
      <trkpt lat="41.845508" lon="2.600257">
        <ele>545.543</ele>
        <time>2020-07-26T05:54:44Z</time>
      </trkpt>
      <trkpt lat="41.845531" lon="2.600239">
        <ele>545.759</ele>
        <time>2020-07-26T05:54:45Z</time>
      </trkpt>
      <trkpt lat="41.845559" lon="2.600222">
        <ele>546.103</ele>
        <time>2020-07-26T05:54:46Z</time>
      </trkpt>
      <trkpt lat="41.845579" lon="2.600204">
        <ele>546.223</ele>
        <time>2020-07-26T05:54:47Z</time>
      </trkpt>
      <trkpt lat="41.845600" lon="2.600182">
        <ele>546.308</ele>
        <time>2020-07-26T05:54:48Z</time>
      </trkpt>
      <trkpt lat="41.845618" lon="2.600157">
        <ele>546.570</ele>
        <time>2020-07-26T05:54:49Z</time>
      </trkpt>
      <trkpt lat="41.845637" lon="2.600132">
        <ele>546.588</ele>
        <time>2020-07-26T05:54:50Z</time>
      </trkpt>
      <trkpt lat="41.845659" lon="2.600109">
        <ele>546.781</ele>
        <time>2020-07-26T05:54:51Z</time>
      </trkpt>
      <trkpt lat="41.845683" lon="2.600086">
        <ele>546.946</ele>
        <time>2020-07-26T05:54:52Z</time>
      </trkpt>
      <trkpt lat="41.845704" lon="2.600062">
        <ele>547.044</ele>
        <time>2020-07-26T05:54:53Z</time>
      </trkpt>
      <trkpt lat="41.845724" lon="2.600035">
        <ele>547.067</ele>
        <time>2020-07-26T05:54:54Z</time>
      </trkpt>
      <trkpt lat="41.845744" lon="2.600005">
        <ele>547.151</ele>
        <time>2020-07-26T05:54:55Z</time>
      </trkpt>
      <trkpt lat="41.845762" lon="2.599973">
        <ele>547.247</ele>
        <time>2020-07-26T05:54:56Z</time>
      </trkpt>
      <trkpt lat="41.845781" lon="2.599939">
        <ele>547.344</ele>
        <time>2020-07-26T05:54:57Z</time>
      </trkpt>
      <trkpt lat="41.845799" lon="2.599905">
        <ele>547.505</ele>
        <time>2020-07-26T05:54:58Z</time>
      </trkpt>
      <trkpt lat="41.845816" lon="2.599871">
        <ele>547.715</ele>
        <time>2020-07-26T05:54:59Z</time>
      </trkpt>
      <trkpt lat="41.845834" lon="2.599836">
        <ele>547.908</ele>
        <time>2020-07-26T05:55:00Z</time>
      </trkpt>
      <trkpt lat="41.845849" lon="2.599801">
        <ele>548.099</ele>
        <time>2020-07-26T05:55:01Z</time>
      </trkpt>
      <trkpt lat="41.845864" lon="2.599766">
        <ele>548.347</ele>
        <time>2020-07-26T05:55:02Z</time>
      </trkpt>
      <trkpt lat="41.845880" lon="2.599733">
        <ele>548.750</ele>
        <time>2020-07-26T05:55:03Z</time>
      </trkpt>
      <trkpt lat="41.845894" lon="2.599700">
        <ele>548.735</ele>
        <time>2020-07-26T05:55:04Z</time>
      </trkpt>
      <trkpt lat="41.845906" lon="2.599666">
        <ele>548.923</ele>
        <time>2020-07-26T05:55:05Z</time>
      </trkpt>
      <trkpt lat="41.845921" lon="2.599632">
        <ele>549.186</ele>
        <time>2020-07-26T05:55:06Z</time>
      </trkpt>
      <trkpt lat="41.845935" lon="2.599598">
        <ele>549.360</ele>
        <time>2020-07-26T05:55:07Z</time>
      </trkpt>
      <trkpt lat="41.845947" lon="2.599564">
        <ele>549.536</ele>
        <time>2020-07-26T05:55:08Z</time>
      </trkpt>
      <trkpt lat="41.845961" lon="2.599529">
        <ele>549.789</ele>
        <time>2020-07-26T05:55:09Z</time>
      </trkpt>
      <trkpt lat="41.845974" lon="2.599494">
        <ele>550.106</ele>
        <time>2020-07-26T05:55:10Z</time>
      </trkpt>
      <trkpt lat="41.845985" lon="2.599460">
        <ele>550.326</ele>
        <time>2020-07-26T05:55:11Z</time>
      </trkpt>
      <trkpt lat="41.845996" lon="2.599425">
        <ele>550.508</ele>
        <time>2020-07-26T05:55:12Z</time>
      </trkpt>
      <trkpt lat="41.846003" lon="2.599389">
        <ele>550.963</ele>
        <time>2020-07-26T05:55:13Z</time>
      </trkpt>
      <trkpt lat="41.846008" lon="2.599350">
        <ele>551.141</ele>
        <time>2020-07-26T05:55:14Z</time>
      </trkpt>
      <trkpt lat="41.846012" lon="2.599315">
        <ele>551.294</ele>
        <time>2020-07-26T05:55:15Z</time>
      </trkpt>
      <trkpt lat="41.846008" lon="2.599279">
        <ele>551.339</ele>
        <time>2020-07-26T05:55:16Z</time>
      </trkpt>
      <trkpt lat="41.846001" lon="2.599242">
        <ele>551.977</ele>
        <time>2020-07-26T05:55:17Z</time>
      </trkpt>
      <trkpt lat="41.845993" lon="2.599207">
        <ele>552.090</ele>
        <time>2020-07-26T05:55:18Z</time>
      </trkpt>
      <trkpt lat="41.845984" lon="2.599176">
        <ele>552.114</ele>
        <time>2020-07-26T05:55:19Z</time>
      </trkpt>
      <trkpt lat="41.845976" lon="2.599142">
        <ele>552.390</ele>
        <time>2020-07-26T05:55:20Z</time>
      </trkpt>
      <trkpt lat="41.845966" lon="2.599109">
        <ele>552.248</ele>
        <time>2020-07-26T05:55:21Z</time>
      </trkpt>
      <trkpt lat="41.845953" lon="2.599080">
        <ele>552.561</ele>
        <time>2020-07-26T05:55:22Z</time>
      </trkpt>
      <trkpt lat="41.845942" lon="2.599049">
        <ele>552.717</ele>
        <time>2020-07-26T05:55:23Z</time>
      </trkpt>
      <trkpt lat="41.845930" lon="2.599017">
        <ele>552.908</ele>
        <time>2020-07-26T05:55:24Z</time>
      </trkpt>
      <trkpt lat="41.845918" lon="2.598986">
        <ele>553.159</ele>
        <time>2020-07-26T05:55:25Z</time>
      </trkpt>
      <trkpt lat="41.845905" lon="2.598953">
        <ele>553.287</ele>
        <time>2020-07-26T05:55:26Z</time>
      </trkpt>
      <trkpt lat="41.845889" lon="2.598923">
        <ele>553.330</ele>
        <time>2020-07-26T05:55:27Z</time>
      </trkpt>
      <trkpt lat="41.845870" lon="2.598892">
        <ele>553.495</ele>
        <time>2020-07-26T05:55:28Z</time>
      </trkpt>
      <trkpt lat="41.845849" lon="2.598862">
        <ele>553.583</ele>
        <time>2020-07-26T05:55:29Z</time>
      </trkpt>
      <trkpt lat="41.845829" lon="2.598833">
        <ele>553.756</ele>
        <time>2020-07-26T05:55:30Z</time>
      </trkpt>
      <trkpt lat="41.845809" lon="2.598803">
        <ele>553.730</ele>
        <time>2020-07-26T05:55:31Z</time>
      </trkpt>
      <trkpt lat="41.845792" lon="2.598771">
        <ele>553.936</ele>
        <time>2020-07-26T05:55:32Z</time>
      </trkpt>
      <trkpt lat="41.845775" lon="2.598736">
        <ele>554.352</ele>
        <time>2020-07-26T05:55:33Z</time>
      </trkpt>
      <trkpt lat="41.845759" lon="2.598701">
        <ele>554.553</ele>
        <time>2020-07-26T05:55:34Z</time>
      </trkpt>
      <trkpt lat="41.845746" lon="2.598664">
        <ele>554.708</ele>
        <time>2020-07-26T05:55:35Z</time>
      </trkpt>
      <trkpt lat="41.845733" lon="2.598627">
        <ele>554.908</ele>
        <time>2020-07-26T05:55:36Z</time>
      </trkpt>
      <trkpt lat="41.845726" lon="2.598591">
        <ele>555.310</ele>
        <time>2020-07-26T05:55:37Z</time>
      </trkpt>
      <trkpt lat="41.845727" lon="2.598557">
        <ele>555.778</ele>
        <time>2020-07-26T05:55:38Z</time>
      </trkpt>
      <trkpt lat="41.845728" lon="2.598523">
        <ele>556.181</ele>
        <time>2020-07-26T05:55:39Z</time>
      </trkpt>
      <trkpt lat="41.845734" lon="2.598489">
        <ele>556.756</ele>
        <time>2020-07-26T05:55:40Z</time>
      </trkpt>
      <trkpt lat="41.845744" lon="2.598459">
        <ele>557.124</ele>
        <time>2020-07-26T05:55:41Z</time>
      </trkpt>
      <trkpt lat="41.845762" lon="2.598445">
        <ele>557.567</ele>
        <time>2020-07-26T05:55:42Z</time>
      </trkpt>
      <trkpt lat="41.845785" lon="2.598439">
        <ele>558.141</ele>
        <time>2020-07-26T05:55:43Z</time>
      </trkpt>
      <trkpt lat="41.845807" lon="2.598440">
        <ele>558.277</ele>
        <time>2020-07-26T05:55:44Z</time>
      </trkpt>
      <trkpt lat="41.845827" lon="2.598453">
        <ele>558.255</ele>
        <time>2020-07-26T05:55:45Z</time>
      </trkpt>
      <trkpt lat="41.845847" lon="2.598474">
        <ele>558.207</ele>
        <time>2020-07-26T05:55:46Z</time>
      </trkpt>
      <trkpt lat="41.845865" lon="2.598500">
        <ele>558.317</ele>
        <time>2020-07-26T05:55:47Z</time>
      </trkpt>
      <trkpt lat="41.845880" lon="2.598530">
        <ele>558.508</ele>
        <time>2020-07-26T05:55:48Z</time>
      </trkpt>
      <trkpt lat="41.845896" lon="2.598560">
        <ele>558.580</ele>
        <time>2020-07-26T05:55:49Z</time>
      </trkpt>
      <trkpt lat="41.845914" lon="2.598594">
        <ele>558.748</ele>
        <time>2020-07-26T05:55:50Z</time>
      </trkpt>
      <trkpt lat="41.845934" lon="2.598626">
        <ele>558.981</ele>
        <time>2020-07-26T05:55:51Z</time>
      </trkpt>
      <trkpt lat="41.845954" lon="2.598658">
        <ele>559.136</ele>
        <time>2020-07-26T05:55:52Z</time>
      </trkpt>
      <trkpt lat="41.845980" lon="2.598692">
        <ele>559.314</ele>
        <time>2020-07-26T05:55:53Z</time>
      </trkpt>
      <trkpt lat="41.846004" lon="2.598723">
        <ele>559.457</ele>
        <time>2020-07-26T05:55:54Z</time>
      </trkpt>
      <trkpt lat="41.846029" lon="2.598752">
        <ele>559.511</ele>
        <time>2020-07-26T05:55:55Z</time>
      </trkpt>
      <trkpt lat="41.846053" lon="2.598779">
        <ele>559.767</ele>
        <time>2020-07-26T05:55:56Z</time>
      </trkpt>
      <trkpt lat="41.846079" lon="2.598792">
        <ele>559.792</ele>
        <time>2020-07-26T05:55:57Z</time>
      </trkpt>
      <trkpt lat="41.846105" lon="2.598788">
        <ele>559.973</ele>
        <time>2020-07-26T05:55:58Z</time>
      </trkpt>
      <trkpt lat="41.846130" lon="2.598771">
        <ele>560.320</ele>
        <time>2020-07-26T05:55:59Z</time>
      </trkpt>
      <trkpt lat="41.846150" lon="2.598748">
        <ele>560.708</ele>
        <time>2020-07-26T05:56:00Z</time>
      </trkpt>
      <trkpt lat="41.846164" lon="2.598718">
        <ele>561.124</ele>
        <time>2020-07-26T05:56:01Z</time>
      </trkpt>
      <trkpt lat="41.846172" lon="2.598685">
        <ele>561.382</ele>
        <time>2020-07-26T05:56:02Z</time>
      </trkpt>
      <trkpt lat="41.846175" lon="2.598649">
        <ele>561.525</ele>
        <time>2020-07-26T05:56:03Z</time>
      </trkpt>
      <trkpt lat="41.846175" lon="2.598613">
        <ele>561.980</ele>
        <time>2020-07-26T05:56:04Z</time>
      </trkpt>
      <trkpt lat="41.846168" lon="2.598582">
        <ele>562.318</ele>
        <time>2020-07-26T05:56:05Z</time>
      </trkpt>
      <trkpt lat="41.846152" lon="2.598554">
        <ele>562.941</ele>
        <time>2020-07-26T05:56:06Z</time>
      </trkpt>
      <trkpt lat="41.846141" lon="2.598522">
        <ele>563.185</ele>
        <time>2020-07-26T05:56:07Z</time>
      </trkpt>
      <trkpt lat="41.846129" lon="2.598492">
        <ele>563.391</ele>
        <time>2020-07-26T05:56:08Z</time>
      </trkpt>
      <trkpt lat="41.846117" lon="2.598463">
        <ele>563.591</ele>
        <time>2020-07-26T05:56:09Z</time>
      </trkpt>
      <trkpt lat="41.846106" lon="2.598434">
        <ele>563.781</ele>
        <time>2020-07-26T05:56:10Z</time>
      </trkpt>
      <trkpt lat="41.846097" lon="2.598407">
        <ele>563.719</ele>
        <time>2020-07-26T05:56:11Z</time>
      </trkpt>
      <trkpt lat="41.846084" lon="2.598380">
        <ele>563.908</ele>
        <time>2020-07-26T05:56:12Z</time>
      </trkpt>
      <trkpt lat="41.846072" lon="2.598352">
        <ele>564.154</ele>
        <time>2020-07-26T05:56:13Z</time>
      </trkpt>
      <trkpt lat="41.846058" lon="2.598324">
        <ele>564.372</ele>
        <time>2020-07-26T05:56:14Z</time>
      </trkpt>
      <trkpt lat="41.846049" lon="2.598293">
        <ele>564.545</ele>
        <time>2020-07-26T05:56:15Z</time>
      </trkpt>
      <trkpt lat="41.846044" lon="2.598263">
        <ele>564.560</ele>
        <time>2020-07-26T05:56:16Z</time>
      </trkpt>
      <trkpt lat="41.846034" lon="2.598227">
        <ele>564.518</ele>
        <time>2020-07-26T05:56:17Z</time>
      </trkpt>
      <trkpt lat="41.846023" lon="2.598182">
        <ele>564.791</ele>
        <time>2020-07-26T05:56:18Z</time>
      </trkpt>
      <trkpt lat="41.846013" lon="2.598140">
        <ele>564.945</ele>
        <time>2020-07-26T05:56:19Z</time>
      </trkpt>
      <trkpt lat="41.846001" lon="2.598099">
        <ele>565.321</ele>
        <time>2020-07-26T05:56:20Z</time>
      </trkpt>
      <trkpt lat="41.845987" lon="2.598065">
        <ele>565.573</ele>
        <time>2020-07-26T05:56:21Z</time>
      </trkpt>
      <trkpt lat="41.845971" lon="2.598036">
        <ele>565.785</ele>
        <time>2020-07-26T05:56:22Z</time>
      </trkpt>
      <trkpt lat="41.845953" lon="2.598007">
        <ele>565.913</ele>
        <time>2020-07-26T05:56:23Z</time>
      </trkpt>
      <trkpt lat="41.845933" lon="2.597981">
        <ele>566.308</ele>
        <time>2020-07-26T05:56:24Z</time>
      </trkpt>
      <trkpt lat="41.845911" lon="2.597957">
        <ele>566.722</ele>
        <time>2020-07-26T05:56:25Z</time>
      </trkpt>
      <trkpt lat="41.845889" lon="2.597933">
        <ele>566.960</ele>
        <time>2020-07-26T05:56:26Z</time>
      </trkpt>
      <trkpt lat="41.845869" lon="2.597910">
        <ele>567.093</ele>
        <time>2020-07-26T05:56:27Z</time>
      </trkpt>
      <trkpt lat="41.845847" lon="2.597888">
        <ele>567.328</ele>
        <time>2020-07-26T05:56:28Z</time>
      </trkpt>
      <trkpt lat="41.845826" lon="2.597867">
        <ele>567.586</ele>
        <time>2020-07-26T05:56:29Z</time>
      </trkpt>
      <trkpt lat="41.845805" lon="2.597846">
        <ele>567.759</ele>
        <time>2020-07-26T05:56:30Z</time>
      </trkpt>
      <trkpt lat="41.845782" lon="2.597826">
        <ele>568.183</ele>
        <time>2020-07-26T05:56:31Z</time>
      </trkpt>
      <trkpt lat="41.845760" lon="2.597804">
        <ele>568.399</ele>
        <time>2020-07-26T05:56:32Z</time>
      </trkpt>
      <trkpt lat="41.845739" lon="2.597780">
        <ele>568.596</ele>
        <time>2020-07-26T05:56:33Z</time>
      </trkpt>
      <trkpt lat="41.845713" lon="2.597757">
        <ele>568.731</ele>
        <time>2020-07-26T05:56:34Z</time>
      </trkpt>
      <trkpt lat="41.845690" lon="2.597735">
        <ele>568.924</ele>
        <time>2020-07-26T05:56:35Z</time>
      </trkpt>
      <trkpt lat="41.845666" lon="2.597710">
        <ele>569.108</ele>
        <time>2020-07-26T05:56:36Z</time>
      </trkpt>
      <trkpt lat="41.845648" lon="2.597686">
        <ele>569.394</ele>
        <time>2020-07-26T05:56:37Z</time>
      </trkpt>
      <trkpt lat="41.845632" lon="2.597662">
        <ele>569.592</ele>
        <time>2020-07-26T05:56:38Z</time>
      </trkpt>
      <trkpt lat="41.845616" lon="2.597636">
        <ele>569.915</ele>
        <time>2020-07-26T05:56:39Z</time>
      </trkpt>
      <trkpt lat="41.845601" lon="2.597609">
        <ele>570.330</ele>
        <time>2020-07-26T05:56:40Z</time>
      </trkpt>
      <trkpt lat="41.845589" lon="2.597579">
        <ele>570.988</ele>
        <time>2020-07-26T05:56:41Z</time>
      </trkpt>
      <trkpt lat="41.845582" lon="2.597545">
        <ele>571.111</ele>
        <time>2020-07-26T05:56:42Z</time>
      </trkpt>
      <trkpt lat="41.845575" lon="2.597512">
        <ele>571.295</ele>
        <time>2020-07-26T05:56:43Z</time>
      </trkpt>
      <trkpt lat="41.845571" lon="2.597483">
        <ele>571.311</ele>
        <time>2020-07-26T05:56:44Z</time>
      </trkpt>
      <trkpt lat="41.845568" lon="2.597451">
        <ele>571.412</ele>
        <time>2020-07-26T05:56:45Z</time>
      </trkpt>
      <trkpt lat="41.845569" lon="2.597421">
        <ele>571.532</ele>
        <time>2020-07-26T05:56:46Z</time>
      </trkpt>
      <trkpt lat="41.845574" lon="2.597391">
        <ele>571.705</ele>
        <time>2020-07-26T05:56:47Z</time>
      </trkpt>
      <trkpt lat="41.845581" lon="2.597363">
        <ele>571.908</ele>
        <time>2020-07-26T05:56:48Z</time>
      </trkpt>
      <trkpt lat="41.845587" lon="2.597335">
        <ele>572.366</ele>
        <time>2020-07-26T05:56:49Z</time>
      </trkpt>
      <trkpt lat="41.845598" lon="2.597309">
        <ele>571.874</ele>
        <time>2020-07-26T05:56:50Z</time>
      </trkpt>
      <trkpt lat="41.845611" lon="2.597283">
        <ele>572.197</ele>
        <time>2020-07-26T05:56:51Z</time>
      </trkpt>
      <trkpt lat="41.845629" lon="2.597256">
        <ele>572.342</ele>
        <time>2020-07-26T05:56:52Z</time>
      </trkpt>
      <trkpt lat="41.845647" lon="2.597231">
        <ele>572.520</ele>
        <time>2020-07-26T05:56:53Z</time>
      </trkpt>
      <trkpt lat="41.845664" lon="2.597207">
        <ele>572.763</ele>
        <time>2020-07-26T05:56:54Z</time>
      </trkpt>
      <trkpt lat="41.845684" lon="2.597184">
        <ele>572.697</ele>
        <time>2020-07-26T05:56:55Z</time>
      </trkpt>
      <trkpt lat="41.845708" lon="2.597161">
        <ele>572.953</ele>
        <time>2020-07-26T05:56:56Z</time>
      </trkpt>
      <trkpt lat="41.845732" lon="2.597139">
        <ele>573.084</ele>
        <time>2020-07-26T05:56:57Z</time>
      </trkpt>
      <trkpt lat="41.845756" lon="2.597117">
        <ele>573.307</ele>
        <time>2020-07-26T05:56:58Z</time>
      </trkpt>
      <trkpt lat="41.845779" lon="2.597094">
        <ele>573.517</ele>
        <time>2020-07-26T05:56:59Z</time>
      </trkpt>
      <trkpt lat="41.845806" lon="2.597073">
        <ele>573.508</ele>
        <time>2020-07-26T05:57:00Z</time>
      </trkpt>
      <trkpt lat="41.845832" lon="2.597050">
        <ele>573.553</ele>
        <time>2020-07-26T05:57:01Z</time>
      </trkpt>
      <trkpt lat="41.845858" lon="2.597025">
        <ele>573.581</ele>
        <time>2020-07-26T05:57:02Z</time>
      </trkpt>
      <trkpt lat="41.845884" lon="2.596999">
        <ele>573.534</ele>
        <time>2020-07-26T05:57:03Z</time>
      </trkpt>
      <trkpt lat="41.845914" lon="2.596975">
        <ele>573.489</ele>
        <time>2020-07-26T05:57:04Z</time>
      </trkpt>
      <trkpt lat="41.845939" lon="2.596950">
        <ele>573.587</ele>
        <time>2020-07-26T05:57:05Z</time>
      </trkpt>
      <trkpt lat="41.845962" lon="2.596925">
        <ele>573.780</ele>
        <time>2020-07-26T05:57:06Z</time>
      </trkpt>
      <trkpt lat="41.845985" lon="2.596900">
        <ele>573.954</ele>
        <time>2020-07-26T05:57:07Z</time>
      </trkpt>
      <trkpt lat="41.846011" lon="2.596874">
        <ele>574.070</ele>
        <time>2020-07-26T05:57:08Z</time>
      </trkpt>
      <trkpt lat="41.846033" lon="2.596846">
        <ele>574.097</ele>
        <time>2020-07-26T05:57:09Z</time>
      </trkpt>
      <trkpt lat="41.846054" lon="2.596815">
        <ele>574.123</ele>
        <time>2020-07-26T05:57:10Z</time>
      </trkpt>
      <trkpt lat="41.846073" lon="2.596785">
        <ele>574.225</ele>
        <time>2020-07-26T05:57:11Z</time>
      </trkpt>
      <trkpt lat="41.846129" lon="2.596666">
        <ele>574.308</ele>
        <time>2020-07-26T05:57:15Z</time>
      </trkpt>
      <trkpt lat="41.846140" lon="2.596545">
        <ele>574.994</ele>
        <time>2020-07-26T05:57:19Z</time>
      </trkpt>
      <trkpt lat="41.846142" lon="2.596517">
        <ele>575.112</ele>
        <time>2020-07-26T05:57:20Z</time>
      </trkpt>
      <trkpt lat="41.846145" lon="2.596489">
        <ele>575.235</ele>
        <time>2020-07-26T05:57:21Z</time>
      </trkpt>
      <trkpt lat="41.846142" lon="2.596447">
        <ele>575.390</ele>
        <time>2020-07-26T05:57:22Z</time>
      </trkpt>
      <trkpt lat="41.846124" lon="2.596367">
        <ele>575.298</ele>
        <time>2020-07-26T05:57:24Z</time>
      </trkpt>
      <trkpt lat="41.846111" lon="2.596331">
        <ele>575.341</ele>
        <time>2020-07-26T05:57:25Z</time>
      </trkpt>
      <trkpt lat="41.846096" lon="2.596293">
        <ele>575.525</ele>
        <time>2020-07-26T05:57:26Z</time>
      </trkpt>
      <trkpt lat="41.846080" lon="2.596255">
        <ele>575.551</ele>
        <time>2020-07-26T05:57:27Z</time>
      </trkpt>
      <trkpt lat="41.846065" lon="2.596217">
        <ele>575.949</ele>
        <time>2020-07-26T05:57:28Z</time>
      </trkpt>
      <trkpt lat="41.846053" lon="2.596173">
        <ele>576.002</ele>
        <time>2020-07-26T05:57:29Z</time>
      </trkpt>
      <trkpt lat="41.846046" lon="2.596143">
        <ele>576.122</ele>
        <time>2020-07-26T05:57:30Z</time>
      </trkpt>
      <trkpt lat="41.846050" lon="2.596117">
        <ele>576.208</ele>
        <time>2020-07-26T05:57:31Z</time>
      </trkpt>
      <trkpt lat="41.846075" lon="2.596100">
        <ele>576.099</ele>
        <time>2020-07-26T05:57:33Z</time>
      </trkpt>
      <trkpt lat="41.846100" lon="2.596093">
        <ele>575.697</ele>
        <time>2020-07-26T05:57:35Z</time>
      </trkpt>
      <trkpt lat="41.846121" lon="2.596091">
        <ele>575.020</ele>
        <time>2020-07-26T05:57:38Z</time>
      </trkpt>
      <trkpt lat="41.846138" lon="2.596081">
        <ele>573.855</ele>
        <time>2020-07-26T05:57:46Z</time>
      </trkpt>
      <trkpt lat="41.846204" lon="2.596183">
        <ele>572.253</ele>
        <time>2020-07-26T05:57:53Z</time>
      </trkpt>
      <trkpt lat="41.846289" lon="2.596247">
        <ele>570.416</ele>
        <time>2020-07-26T05:58:02Z</time>
      </trkpt>
      <trkpt lat="41.846379" lon="2.596360">
        <ele>569.640</ele>
        <time>2020-07-26T05:58:07Z</time>
      </trkpt>
      <trkpt lat="41.846418" lon="2.596394">
        <ele>569.446</ele>
        <time>2020-07-26T05:58:08Z</time>
      </trkpt>
      <trkpt lat="41.846495" lon="2.596458">
        <ele>568.897</ele>
        <time>2020-07-26T05:58:10Z</time>
      </trkpt>
      <trkpt lat="41.846529" lon="2.596490">
        <ele>568.423</ele>
        <time>2020-07-26T05:58:11Z</time>
      </trkpt>
      <trkpt lat="41.846560" lon="2.596514">
        <ele>568.425</ele>
        <time>2020-07-26T05:58:12Z</time>
      </trkpt>
      <trkpt lat="41.846646" lon="2.596580">
        <ele>568.008</ele>
        <time>2020-07-26T05:58:15Z</time>
      </trkpt>
      <trkpt lat="41.846734" lon="2.596631">
        <ele>567.274</ele>
        <time>2020-07-26T05:58:19Z</time>
      </trkpt>
      <trkpt lat="41.846756" lon="2.596642">
        <ele>566.482</ele>
        <time>2020-07-26T05:58:24Z</time>
      </trkpt>
      <trkpt lat="41.846769" lon="2.596660">
        <ele>566.015</ele>
        <time>2020-07-26T05:58:26Z</time>
      </trkpt>
      <trkpt lat="41.846796" lon="2.596680">
        <ele>565.440</ele>
        <time>2020-07-26T05:58:28Z</time>
      </trkpt>
      <trkpt lat="41.846812" lon="2.596694">
        <ele>564.838</ele>
        <time>2020-07-26T05:58:29Z</time>
      </trkpt>
      <trkpt lat="41.846838" lon="2.596725">
        <ele>564.231</ele>
        <time>2020-07-26T05:58:31Z</time>
      </trkpt>
      <trkpt lat="41.846852" lon="2.596756">
        <ele>563.895</ele>
        <time>2020-07-26T05:58:33Z</time>
      </trkpt>
      <trkpt lat="41.846867" lon="2.596780">
        <ele>563.461</ele>
        <time>2020-07-26T05:58:35Z</time>
      </trkpt>
      <trkpt lat="41.846889" lon="2.596794">
        <ele>562.825</ele>
        <time>2020-07-26T05:58:37Z</time>
      </trkpt>
      <trkpt lat="41.846907" lon="2.596802">
        <ele>562.526</ele>
        <time>2020-07-26T05:58:39Z</time>
      </trkpt>
      <trkpt lat="41.846936" lon="2.596822">
        <ele>561.808</ele>
        <time>2020-07-26T05:58:41Z</time>
      </trkpt>
      <trkpt lat="41.846962" lon="2.596846">
        <ele>560.808</ele>
        <time>2020-07-26T05:58:43Z</time>
      </trkpt>
      <trkpt lat="41.846984" lon="2.596872">
        <ele>560.227</ele>
        <time>2020-07-26T05:58:45Z</time>
      </trkpt>
      <trkpt lat="41.847006" lon="2.596893">
        <ele>559.455</ele>
        <time>2020-07-26T05:58:47Z</time>
      </trkpt>
      <trkpt lat="41.847029" lon="2.596914">
        <ele>558.818</ele>
        <time>2020-07-26T05:58:49Z</time>
      </trkpt>
      <trkpt lat="41.847049" lon="2.596929">
        <ele>558.463</ele>
        <time>2020-07-26T05:58:51Z</time>
      </trkpt>
      <trkpt lat="41.847064" lon="2.596950">
        <ele>557.481</ele>
        <time>2020-07-26T05:58:54Z</time>
      </trkpt>
      <trkpt lat="41.847083" lon="2.596968">
        <ele>557.294</ele>
        <time>2020-07-26T05:58:56Z</time>
      </trkpt>
      <trkpt lat="41.847100" lon="2.596987">
        <ele>556.818</ele>
        <time>2020-07-26T05:58:58Z</time>
      </trkpt>
      <trkpt lat="41.847121" lon="2.597004">
        <ele>556.554</ele>
        <time>2020-07-26T05:59:01Z</time>
      </trkpt>
      <trkpt lat="41.847136" lon="2.597023">
        <ele>556.068</ele>
        <time>2020-07-26T05:59:04Z</time>
      </trkpt>
      <trkpt lat="41.847153" lon="2.597035">
        <ele>554.842</ele>
        <time>2020-07-26T05:59:07Z</time>
      </trkpt>
      <trkpt lat="41.847170" lon="2.597049">
        <ele>553.826</ele>
        <time>2020-07-26T05:59:10Z</time>
      </trkpt>
      <trkpt lat="41.847192" lon="2.597085">
        <ele>552.408</ele>
        <time>2020-07-26T05:59:14Z</time>
      </trkpt>
      <trkpt lat="41.847209" lon="2.597106">
        <ele>552.051</ele>
        <time>2020-07-26T05:59:16Z</time>
      </trkpt>
      <trkpt lat="41.847216" lon="2.597135">
        <ele>550.849</ele>
        <time>2020-07-26T05:59:19Z</time>
      </trkpt>
      <trkpt lat="41.847282" lon="2.597158">
        <ele>547.262</ele>
        <time>2020-07-26T05:59:34Z</time>
      </trkpt>
      <trkpt lat="41.847334" lon="2.597036">
        <ele>545.877</ele>
        <time>2020-07-26T05:59:43Z</time>
      </trkpt>
      <trkpt lat="41.847429" lon="2.596987">
        <ele>545.295</ele>
        <time>2020-07-26T05:59:47Z</time>
      </trkpt>
      <trkpt lat="41.847510" lon="2.597052">
        <ele>545.058</ele>
        <time>2020-07-26T05:59:52Z</time>
      </trkpt>
      <trkpt lat="41.847570" lon="2.597152">
        <ele>544.832</ele>
        <time>2020-07-26T05:59:55Z</time>
      </trkpt>
      <trkpt lat="41.847615" lon="2.597266">
        <ele>544.418</ele>
        <time>2020-07-26T05:59:59Z</time>
      </trkpt>
      <trkpt lat="41.847654" lon="2.597389">
        <ele>544.315</ele>
        <time>2020-07-26T06:00:03Z</time>
      </trkpt>
      <trkpt lat="41.847752" lon="2.597448">
        <ele>545.365</ele>
        <time>2020-07-26T06:00:08Z</time>
      </trkpt>
      <trkpt lat="41.847844" lon="2.597442">
        <ele>546.111</ele>
        <time>2020-07-26T06:00:11Z</time>
      </trkpt>
      <trkpt lat="41.847956" lon="2.597459">
        <ele>547.908</ele>
        <time>2020-07-26T06:00:15Z</time>
      </trkpt>
      <trkpt lat="41.848064" lon="2.597513">
        <ele>549.716</ele>
        <time>2020-07-26T06:00:19Z</time>
      </trkpt>
      <trkpt lat="41.848160" lon="2.597593">
        <ele>551.354</ele>
        <time>2020-07-26T06:00:23Z</time>
      </trkpt>
      <trkpt lat="41.848269" lon="2.597690">
        <ele>553.067</ele>
        <time>2020-07-26T06:00:27Z</time>
      </trkpt>
      <trkpt lat="41.848380" lon="2.597758">
        <ele>554.172</ele>
        <time>2020-07-26T06:00:30Z</time>
      </trkpt>
      <trkpt lat="41.848406" lon="2.597778">
        <ele>554.560</ele>
        <time>2020-07-26T06:00:31Z</time>
      </trkpt>
      <trkpt lat="41.848453" lon="2.597821">
        <ele>554.733</ele>
        <time>2020-07-26T06:00:33Z</time>
      </trkpt>
      <trkpt lat="41.848478" lon="2.597841">
        <ele>555.137</ele>
        <time>2020-07-26T06:00:34Z</time>
      </trkpt>
      <trkpt lat="41.848499" lon="2.597863">
        <ele>555.053</ele>
        <time>2020-07-26T06:00:35Z</time>
      </trkpt>
      <trkpt lat="41.848515" lon="2.597884">
        <ele>555.396</ele>
        <time>2020-07-26T06:00:36Z</time>
      </trkpt>
      <trkpt lat="41.848534" lon="2.597908">
        <ele>555.531</ele>
        <time>2020-07-26T06:00:37Z</time>
      </trkpt>
      <trkpt lat="41.848550" lon="2.597936">
        <ele>555.924</ele>
        <time>2020-07-26T06:00:38Z</time>
      </trkpt>
      <trkpt lat="41.848566" lon="2.597966">
        <ele>556.108</ele>
        <time>2020-07-26T06:00:39Z</time>
      </trkpt>
      <trkpt lat="41.848581" lon="2.597994">
        <ele>556.214</ele>
        <time>2020-07-26T06:00:40Z</time>
      </trkpt>
      <trkpt lat="41.848597" lon="2.598024">
        <ele>556.542</ele>
        <time>2020-07-26T06:00:41Z</time>
      </trkpt>
      <trkpt lat="41.848614" lon="2.598053">
        <ele>556.745</ele>
        <time>2020-07-26T06:00:42Z</time>
      </trkpt>
      <trkpt lat="41.848630" lon="2.598080">
        <ele>556.960</ele>
        <time>2020-07-26T06:00:43Z</time>
      </trkpt>
      <trkpt lat="41.848646" lon="2.598105">
        <ele>557.138</ele>
        <time>2020-07-26T06:00:44Z</time>
      </trkpt>
      <trkpt lat="41.848664" lon="2.598134">
        <ele>557.231</ele>
        <time>2020-07-26T06:00:45Z</time>
      </trkpt>
      <trkpt lat="41.848683" lon="2.598162">
        <ele>557.375</ele>
        <time>2020-07-26T06:00:46Z</time>
      </trkpt>
      <trkpt lat="41.848699" lon="2.598192">
        <ele>557.731</ele>
        <time>2020-07-26T06:00:47Z</time>
      </trkpt>
      <trkpt lat="41.848715" lon="2.598220">
        <ele>557.953</ele>
        <time>2020-07-26T06:00:48Z</time>
      </trkpt>
      <trkpt lat="41.848731" lon="2.598248">
        <ele>558.004</ele>
        <time>2020-07-26T06:00:49Z</time>
      </trkpt>
      <trkpt lat="41.848747" lon="2.598276">
        <ele>558.114</ele>
        <time>2020-07-26T06:00:50Z</time>
      </trkpt>
      <trkpt lat="41.848765" lon="2.598303">
        <ele>558.308</ele>
        <time>2020-07-26T06:00:51Z</time>
      </trkpt>
      <trkpt lat="41.848782" lon="2.598327">
        <ele>558.590</ele>
        <time>2020-07-26T06:00:52Z</time>
      </trkpt>
      <trkpt lat="41.848801" lon="2.598350">
        <ele>558.768</ele>
        <time>2020-07-26T06:00:53Z</time>
      </trkpt>
      <trkpt lat="41.848824" lon="2.598372">
        <ele>558.961</ele>
        <time>2020-07-26T06:00:54Z</time>
      </trkpt>
      <trkpt lat="41.848851" lon="2.598395">
        <ele>559.136</ele>
        <time>2020-07-26T06:00:55Z</time>
      </trkpt>
      <trkpt lat="41.848877" lon="2.598416">
        <ele>559.294</ele>
        <time>2020-07-26T06:00:56Z</time>
      </trkpt>
      <trkpt lat="41.848904" lon="2.598434">
        <ele>559.367</ele>
        <time>2020-07-26T06:00:57Z</time>
      </trkpt>
      <trkpt lat="41.848929" lon="2.598449">
        <ele>559.591</ele>
        <time>2020-07-26T06:00:58Z</time>
      </trkpt>
      <trkpt lat="41.848953" lon="2.598464">
        <ele>559.777</ele>
        <time>2020-07-26T06:00:59Z</time>
      </trkpt>
      <trkpt lat="41.848977" lon="2.598480">
        <ele>559.965</ele>
        <time>2020-07-26T06:01:00Z</time>
      </trkpt>
      <trkpt lat="41.849003" lon="2.598495">
        <ele>560.368</ele>
        <time>2020-07-26T06:01:01Z</time>
      </trkpt>
      <trkpt lat="41.849030" lon="2.598512">
        <ele>560.414</ele>
        <time>2020-07-26T06:01:02Z</time>
      </trkpt>
      <trkpt lat="41.849055" lon="2.598531">
        <ele>560.508</ele>
        <time>2020-07-26T06:01:03Z</time>
      </trkpt>
      <trkpt lat="41.849079" lon="2.598553">
        <ele>560.591</ele>
        <time>2020-07-26T06:01:04Z</time>
      </trkpt>
      <trkpt lat="41.849103" lon="2.598575">
        <ele>560.799</ele>
        <time>2020-07-26T06:01:05Z</time>
      </trkpt>
      <trkpt lat="41.849125" lon="2.598600">
        <ele>560.772</ele>
        <time>2020-07-26T06:01:06Z</time>
      </trkpt>
      <trkpt lat="41.849149" lon="2.598623">
        <ele>560.747</ele>
        <time>2020-07-26T06:01:07Z</time>
      </trkpt>
      <trkpt lat="41.849171" lon="2.598645">
        <ele>560.925</ele>
        <time>2020-07-26T06:01:08Z</time>
      </trkpt>
      <trkpt lat="41.849193" lon="2.598668">
        <ele>561.018</ele>
        <time>2020-07-26T06:01:09Z</time>
      </trkpt>
      <trkpt lat="41.849219" lon="2.598689">
        <ele>561.092</ele>
        <time>2020-07-26T06:01:10Z</time>
      </trkpt>
      <trkpt lat="41.849245" lon="2.598711">
        <ele>561.068</ele>
        <time>2020-07-26T06:01:11Z</time>
      </trkpt>
      <trkpt lat="41.849268" lon="2.598734">
        <ele>561.113</ele>
        <time>2020-07-26T06:01:12Z</time>
      </trkpt>
      <trkpt lat="41.849293" lon="2.598761">
        <ele>561.243</ele>
        <time>2020-07-26T06:01:13Z</time>
      </trkpt>
      <trkpt lat="41.849318" lon="2.598791">
        <ele>561.207</ele>
        <time>2020-07-26T06:01:14Z</time>
      </trkpt>
      <trkpt lat="41.849338" lon="2.598825">
        <ele>561.508</ele>
        <time>2020-07-26T06:01:15Z</time>
      </trkpt>
      <trkpt lat="41.849354" lon="2.598856">
        <ele>561.526</ele>
        <time>2020-07-26T06:01:16Z</time>
      </trkpt>
      <trkpt lat="41.849373" lon="2.598884">
        <ele>561.934</ele>
        <time>2020-07-26T06:01:17Z</time>
      </trkpt>
      <trkpt lat="41.849391" lon="2.598915">
        <ele>561.827</ele>
        <time>2020-07-26T06:01:18Z</time>
      </trkpt>
      <trkpt lat="41.849410" lon="2.598952">
        <ele>561.762</ele>
        <time>2020-07-26T06:01:19Z</time>
      </trkpt>
      <trkpt lat="41.849432" lon="2.598996">
        <ele>561.720</ele>
        <time>2020-07-26T06:01:20Z</time>
      </trkpt>
      <trkpt lat="41.849452" lon="2.599037">
        <ele>561.763</ele>
        <time>2020-07-26T06:01:21Z</time>
      </trkpt>
      <trkpt lat="41.849474" lon="2.599070">
        <ele>561.977</ele>
        <time>2020-07-26T06:01:22Z</time>
      </trkpt>
      <trkpt lat="41.849499" lon="2.599104">
        <ele>561.893</ele>
        <time>2020-07-26T06:01:23Z</time>
      </trkpt>
      <trkpt lat="41.849525" lon="2.599140">
        <ele>561.754</ele>
        <time>2020-07-26T06:01:24Z</time>
      </trkpt>
      <trkpt lat="41.849550" lon="2.599174">
        <ele>561.756</ele>
        <time>2020-07-26T06:01:25Z</time>
      </trkpt>
      <trkpt lat="41.849575" lon="2.599208">
        <ele>561.711</ele>
        <time>2020-07-26T06:01:26Z</time>
      </trkpt>
      <trkpt lat="41.849601" lon="2.599243">
        <ele>561.708</ele>
        <time>2020-07-26T06:01:27Z</time>
      </trkpt>
      <trkpt lat="41.849626" lon="2.599276">
        <ele>561.710</ele>
        <time>2020-07-26T06:01:28Z</time>
      </trkpt>
      <trkpt lat="41.849653" lon="2.599308">
        <ele>561.788</ele>
        <time>2020-07-26T06:01:29Z</time>
      </trkpt>
      <trkpt lat="41.849679" lon="2.599339">
        <ele>561.931</ele>
        <time>2020-07-26T06:01:30Z</time>
      </trkpt>
      <trkpt lat="41.849704" lon="2.599368">
        <ele>562.076</ele>
        <time>2020-07-26T06:01:31Z</time>
      </trkpt>
      <trkpt lat="41.849728" lon="2.599398">
        <ele>562.194</ele>
        <time>2020-07-26T06:01:32Z</time>
      </trkpt>
      <trkpt lat="41.849752" lon="2.599426">
        <ele>562.267</ele>
        <time>2020-07-26T06:01:33Z</time>
      </trkpt>
      <trkpt lat="41.849779" lon="2.599451">
        <ele>562.341</ele>
        <time>2020-07-26T06:01:34Z</time>
      </trkpt>
      <trkpt lat="41.849812" lon="2.599468">
        <ele>562.447</ele>
        <time>2020-07-26T06:01:35Z</time>
      </trkpt>
      <trkpt lat="41.849843" lon="2.599483">
        <ele>562.435</ele>
        <time>2020-07-26T06:01:36Z</time>
      </trkpt>
      <trkpt lat="41.849878" lon="2.599494">
        <ele>562.486</ele>
        <time>2020-07-26T06:01:37Z</time>
      </trkpt>
      <trkpt lat="41.849912" lon="2.599501">
        <ele>562.414</ele>
        <time>2020-07-26T06:01:38Z</time>
      </trkpt>
      <trkpt lat="41.849943" lon="2.599503">
        <ele>562.208</ele>
        <time>2020-07-26T06:01:39Z</time>
      </trkpt>
      <trkpt lat="41.849975" lon="2.599501">
        <ele>562.218</ele>
        <time>2020-07-26T06:01:40Z</time>
      </trkpt>
      <trkpt lat="41.850008" lon="2.599494">
        <ele>562.266</ele>
        <time>2020-07-26T06:01:41Z</time>
      </trkpt>
      <trkpt lat="41.850039" lon="2.599483">
        <ele>562.399</ele>
        <time>2020-07-26T06:01:42Z</time>
      </trkpt>
      <trkpt lat="41.850073" lon="2.599470">
        <ele>562.524</ele>
        <time>2020-07-26T06:01:43Z</time>
      </trkpt>
      <trkpt lat="41.850109" lon="2.599455">
        <ele>562.552</ele>
        <time>2020-07-26T06:01:44Z</time>
      </trkpt>
      <trkpt lat="41.850145" lon="2.599439">
        <ele>562.975</ele>
        <time>2020-07-26T06:01:45Z</time>
      </trkpt>
      <trkpt lat="41.850181" lon="2.599422">
        <ele>563.029</ele>
        <time>2020-07-26T06:01:46Z</time>
      </trkpt>
      <trkpt lat="41.850214" lon="2.599406">
        <ele>563.165</ele>
        <time>2020-07-26T06:01:47Z</time>
      </trkpt>
      <trkpt lat="41.850241" lon="2.599389">
        <ele>563.344</ele>
        <time>2020-07-26T06:01:48Z</time>
      </trkpt>
      <trkpt lat="41.850260" lon="2.599375">
        <ele>563.505</ele>
        <time>2020-07-26T06:01:49Z</time>
      </trkpt>
      <trkpt lat="41.850278" lon="2.599364">
        <ele>563.915</ele>
        <time>2020-07-26T06:01:50Z</time>
      </trkpt>
      <trkpt lat="41.850297" lon="2.599355">
        <ele>564.108</ele>
        <time>2020-07-26T06:01:51Z</time>
      </trkpt>
      <trkpt lat="41.850316" lon="2.599345">
        <ele>564.299</ele>
        <time>2020-07-26T06:01:52Z</time>
      </trkpt>
      <trkpt lat="41.850349" lon="2.599321">
        <ele>563.867</ele>
        <time>2020-07-26T06:01:54Z</time>
      </trkpt>
      <trkpt lat="41.850369" lon="2.599311">
        <ele>563.710</ele>
        <time>2020-07-26T06:01:55Z</time>
      </trkpt>
      <trkpt lat="41.850398" lon="2.599300">
        <ele>563.685</ele>
        <time>2020-07-26T06:01:56Z</time>
      </trkpt>
      <trkpt lat="41.850423" lon="2.599292">
        <ele>563.523</ele>
        <time>2020-07-26T06:01:57Z</time>
      </trkpt>
      <trkpt lat="41.850449" lon="2.599290">
        <ele>563.486</ele>
        <time>2020-07-26T06:01:58Z</time>
      </trkpt>
      <trkpt lat="41.850478" lon="2.599292">
        <ele>563.420</ele>
        <time>2020-07-26T06:01:59Z</time>
      </trkpt>
      <trkpt lat="41.850507" lon="2.599296">
        <ele>563.266</ele>
        <time>2020-07-26T06:02:00Z</time>
      </trkpt>
      <trkpt lat="41.850538" lon="2.599299">
        <ele>563.291</ele>
        <time>2020-07-26T06:02:01Z</time>
      </trkpt>
      <trkpt lat="41.850569" lon="2.599298">
        <ele>563.081</ele>
        <time>2020-07-26T06:02:02Z</time>
      </trkpt>
      <trkpt lat="41.850602" lon="2.599303">
        <ele>563.119</ele>
        <time>2020-07-26T06:02:03Z</time>
      </trkpt>
      <trkpt lat="41.850631" lon="2.599315">
        <ele>563.308</ele>
        <time>2020-07-26T06:02:04Z</time>
      </trkpt>
      <trkpt lat="41.850663" lon="2.599327">
        <ele>563.464</ele>
        <time>2020-07-26T06:02:05Z</time>
      </trkpt>
      <trkpt lat="41.850696" lon="2.599340">
        <ele>563.252</ele>
        <time>2020-07-26T06:02:06Z</time>
      </trkpt>
      <trkpt lat="41.850730" lon="2.599361">
        <ele>563.365</ele>
        <time>2020-07-26T06:02:07Z</time>
      </trkpt>
      <trkpt lat="41.850763" lon="2.599386">
        <ele>563.260</ele>
        <time>2020-07-26T06:02:08Z</time>
      </trkpt>
      <trkpt lat="41.850795" lon="2.599413">
        <ele>563.348</ele>
        <time>2020-07-26T06:02:09Z</time>
      </trkpt>
      <trkpt lat="41.850824" lon="2.599441">
        <ele>563.021</ele>
        <time>2020-07-26T06:02:10Z</time>
      </trkpt>
      <trkpt lat="41.850853" lon="2.599469">
        <ele>563.075</ele>
        <time>2020-07-26T06:02:11Z</time>
      </trkpt>
      <trkpt lat="41.850879" lon="2.599498">
        <ele>563.051</ele>
        <time>2020-07-26T06:02:12Z</time>
      </trkpt>
      <trkpt lat="41.850907" lon="2.599529">
        <ele>563.146</ele>
        <time>2020-07-26T06:02:13Z</time>
      </trkpt>
      <trkpt lat="41.850935" lon="2.599562">
        <ele>563.088</ele>
        <time>2020-07-26T06:02:14Z</time>
      </trkpt>
      <trkpt lat="41.850960" lon="2.599596">
        <ele>563.016</ele>
        <time>2020-07-26T06:02:15Z</time>
      </trkpt>
      <trkpt lat="41.850985" lon="2.599630">
        <ele>563.108</ele>
        <time>2020-07-26T06:02:16Z</time>
      </trkpt>
      <trkpt lat="41.851008" lon="2.599667">
        <ele>563.079</ele>
        <time>2020-07-26T06:02:17Z</time>
      </trkpt>
      <trkpt lat="41.851030" lon="2.599704">
        <ele>563.167</ele>
        <time>2020-07-26T06:02:18Z</time>
      </trkpt>
      <trkpt lat="41.851050" lon="2.599743">
        <ele>563.090</ele>
        <time>2020-07-26T06:02:19Z</time>
      </trkpt>
      <trkpt lat="41.851072" lon="2.599781">
        <ele>563.165</ele>
        <time>2020-07-26T06:02:20Z</time>
      </trkpt>
      <trkpt lat="41.851096" lon="2.599818">
        <ele>563.243</ele>
        <time>2020-07-26T06:02:21Z</time>
      </trkpt>
      <trkpt lat="41.851119" lon="2.599852">
        <ele>563.246</ele>
        <time>2020-07-26T06:02:22Z</time>
      </trkpt>
      <trkpt lat="41.851145" lon="2.599885">
        <ele>563.360</ele>
        <time>2020-07-26T06:02:23Z</time>
      </trkpt>
      <trkpt lat="41.851172" lon="2.599911">
        <ele>563.556</ele>
        <time>2020-07-26T06:02:24Z</time>
      </trkpt>
      <trkpt lat="41.851201" lon="2.599926">
        <ele>563.547</ele>
        <time>2020-07-26T06:02:25Z</time>
      </trkpt>
      <trkpt lat="41.851231" lon="2.599923">
        <ele>563.529</ele>
        <time>2020-07-26T06:02:26Z</time>
      </trkpt>
      <trkpt lat="41.851264" lon="2.599905">
        <ele>563.721</ele>
        <time>2020-07-26T06:02:27Z</time>
      </trkpt>
      <trkpt lat="41.851294" lon="2.599890">
        <ele>564.108</ele>
        <time>2020-07-26T06:02:28Z</time>
      </trkpt>
      <trkpt lat="41.851320" lon="2.599874">
        <ele>564.339</ele>
        <time>2020-07-26T06:02:29Z</time>
      </trkpt>
      <trkpt lat="41.851344" lon="2.599857">
        <ele>564.737</ele>
        <time>2020-07-26T06:02:30Z</time>
      </trkpt>
      <trkpt lat="41.851366" lon="2.599837">
        <ele>564.990</ele>
        <time>2020-07-26T06:02:31Z</time>
      </trkpt>
      <trkpt lat="41.851382" lon="2.599813">
        <ele>565.315</ele>
        <time>2020-07-26T06:02:32Z</time>
      </trkpt>
      <trkpt lat="41.851396" lon="2.599784">
        <ele>565.433</ele>
        <time>2020-07-26T06:02:33Z</time>
      </trkpt>
      <trkpt lat="41.851410" lon="2.599751">
        <ele>565.456</ele>
        <time>2020-07-26T06:02:34Z</time>
      </trkpt>
      <trkpt lat="41.851420" lon="2.599716">
        <ele>565.760</ele>
        <time>2020-07-26T06:02:35Z</time>
      </trkpt>
      <trkpt lat="41.851427" lon="2.599680">
        <ele>565.926</ele>
        <time>2020-07-26T06:02:36Z</time>
      </trkpt>
      <trkpt lat="41.851434" lon="2.599645">
        <ele>566.018</ele>
        <time>2020-07-26T06:02:37Z</time>
      </trkpt>
      <trkpt lat="41.851437" lon="2.599610">
        <ele>566.198</ele>
        <time>2020-07-26T06:02:38Z</time>
      </trkpt>
      <trkpt lat="41.851437" lon="2.599576">
        <ele>566.217</ele>
        <time>2020-07-26T06:02:39Z</time>
      </trkpt>
      <trkpt lat="41.851430" lon="2.599542">
        <ele>566.208</ele>
        <time>2020-07-26T06:02:40Z</time>
      </trkpt>
      <trkpt lat="41.851420" lon="2.599508">
        <ele>566.076</ele>
        <time>2020-07-26T06:02:41Z</time>
      </trkpt>
      <trkpt lat="41.851405" lon="2.599475">
        <ele>566.164</ele>
        <time>2020-07-26T06:02:42Z</time>
      </trkpt>
      <trkpt lat="41.851391" lon="2.599442">
        <ele>566.297</ele>
        <time>2020-07-26T06:02:43Z</time>
      </trkpt>
      <trkpt lat="41.851376" lon="2.599410">
        <ele>566.242</ele>
        <time>2020-07-26T06:02:44Z</time>
      </trkpt>
      <trkpt lat="41.851361" lon="2.599377">
        <ele>566.390</ele>
        <time>2020-07-26T06:02:45Z</time>
      </trkpt>
      <trkpt lat="41.851349" lon="2.599338">
        <ele>566.273</ele>
        <time>2020-07-26T06:02:46Z</time>
      </trkpt>
      <trkpt lat="41.851336" lon="2.599297">
        <ele>566.237</ele>
        <time>2020-07-26T06:02:47Z</time>
      </trkpt>
      <trkpt lat="41.851322" lon="2.599256">
        <ele>566.393</ele>
        <time>2020-07-26T06:02:48Z</time>
      </trkpt>
      <trkpt lat="41.851310" lon="2.599211">
        <ele>566.474</ele>
        <time>2020-07-26T06:02:49Z</time>
      </trkpt>
      <trkpt lat="41.851298" lon="2.599165">
        <ele>566.256</ele>
        <time>2020-07-26T06:02:50Z</time>
      </trkpt>
      <trkpt lat="41.851285" lon="2.599122">
        <ele>566.221</ele>
        <time>2020-07-26T06:02:51Z</time>
      </trkpt>
      <trkpt lat="41.851274" lon="2.599080">
        <ele>566.308</ele>
        <time>2020-07-26T06:02:52Z</time>
      </trkpt>
      <trkpt lat="41.851263" lon="2.599039">
        <ele>566.432</ele>
        <time>2020-07-26T06:02:53Z</time>
      </trkpt>
      <trkpt lat="41.851253" lon="2.598997">
        <ele>566.240</ele>
        <time>2020-07-26T06:02:54Z</time>
      </trkpt>
      <trkpt lat="41.851245" lon="2.598954">
        <ele>566.583</ele>
        <time>2020-07-26T06:02:55Z</time>
      </trkpt>
      <trkpt lat="41.851237" lon="2.598910">
        <ele>566.448</ele>
        <time>2020-07-26T06:02:56Z</time>
      </trkpt>
      <trkpt lat="41.851231" lon="2.598869">
        <ele>566.526</ele>
        <time>2020-07-26T06:02:57Z</time>
      </trkpt>
      <trkpt lat="41.851227" lon="2.598831">
        <ele>566.569</ele>
        <time>2020-07-26T06:02:58Z</time>
      </trkpt>
      <trkpt lat="41.851224" lon="2.598786">
        <ele>566.433</ele>
        <time>2020-07-26T06:02:59Z</time>
      </trkpt>
      <trkpt lat="41.851222" lon="2.598740">
        <ele>566.459</ele>
        <time>2020-07-26T06:03:00Z</time>
      </trkpt>
      <trkpt lat="41.851224" lon="2.598693">
        <ele>566.572</ele>
        <time>2020-07-26T06:03:01Z</time>
      </trkpt>
      <trkpt lat="41.851224" lon="2.598648">
        <ele>566.413</ele>
        <time>2020-07-26T06:03:02Z</time>
      </trkpt>
      <trkpt lat="41.851225" lon="2.598600">
        <ele>566.514</ele>
        <time>2020-07-26T06:03:03Z</time>
      </trkpt>
      <trkpt lat="41.851228" lon="2.598553">
        <ele>566.408</ele>
        <time>2020-07-26T06:03:04Z</time>
      </trkpt>
      <trkpt lat="41.851229" lon="2.598509">
        <ele>566.532</ele>
        <time>2020-07-26T06:03:05Z</time>
      </trkpt>
      <trkpt lat="41.851232" lon="2.598462">
        <ele>566.580</ele>
        <time>2020-07-26T06:03:06Z</time>
      </trkpt>
      <trkpt lat="41.851235" lon="2.598413">
        <ele>566.423</ele>
        <time>2020-07-26T06:03:07Z</time>
      </trkpt>
      <trkpt lat="41.851237" lon="2.598363">
        <ele>566.278</ele>
        <time>2020-07-26T06:03:08Z</time>
      </trkpt>
      <trkpt lat="41.851237" lon="2.598313">
        <ele>566.056</ele>
        <time>2020-07-26T06:03:09Z</time>
      </trkpt>
      <trkpt lat="41.851234" lon="2.598261">
        <ele>565.679</ele>
        <time>2020-07-26T06:03:10Z</time>
      </trkpt>
      <trkpt lat="41.851232" lon="2.598212">
        <ele>565.283</ele>
        <time>2020-07-26T06:03:11Z</time>
      </trkpt>
      <trkpt lat="41.851232" lon="2.598174">
        <ele>564.849</ele>
        <time>2020-07-26T06:03:12Z</time>
      </trkpt>
      <trkpt lat="41.851237" lon="2.598149">
        <ele>564.424</ele>
        <time>2020-07-26T06:03:14Z</time>
      </trkpt>
      <trkpt lat="41.851232" lon="2.598114">
        <ele>563.804</ele>
        <time>2020-07-26T06:03:17Z</time>
      </trkpt>
      <trkpt lat="41.851232" lon="2.598068">
        <ele>563.514</ele>
        <time>2020-07-26T06:03:19Z</time>
      </trkpt>
      <trkpt lat="41.851230" lon="2.598035">
        <ele>563.408</ele>
        <time>2020-07-26T06:03:20Z</time>
      </trkpt>
      <trkpt lat="41.851229" lon="2.597999">
        <ele>563.237</ele>
        <time>2020-07-26T06:03:21Z</time>
      </trkpt>
      <trkpt lat="41.851227" lon="2.597961">
        <ele>563.045</ele>
        <time>2020-07-26T06:03:22Z</time>
      </trkpt>
      <trkpt lat="41.851226" lon="2.597919">
        <ele>562.858</ele>
        <time>2020-07-26T06:03:23Z</time>
      </trkpt>
      <trkpt lat="41.851229" lon="2.597873">
        <ele>562.663</ele>
        <time>2020-07-26T06:03:24Z</time>
      </trkpt>
      <trkpt lat="41.851232" lon="2.597826">
        <ele>562.441</ele>
        <time>2020-07-26T06:03:25Z</time>
      </trkpt>
      <trkpt lat="41.851236" lon="2.597776">
        <ele>562.274</ele>
        <time>2020-07-26T06:03:26Z</time>
      </trkpt>
      <trkpt lat="41.851240" lon="2.597725">
        <ele>562.068</ele>
        <time>2020-07-26T06:03:27Z</time>
      </trkpt>
      <trkpt lat="41.851243" lon="2.597675">
        <ele>561.844</ele>
        <time>2020-07-26T06:03:28Z</time>
      </trkpt>
      <trkpt lat="41.851254" lon="2.597626">
        <ele>561.418</ele>
        <time>2020-07-26T06:03:29Z</time>
      </trkpt>
      <trkpt lat="41.851265" lon="2.597579">
        <ele>561.298</ele>
        <time>2020-07-26T06:03:30Z</time>
      </trkpt>
      <trkpt lat="41.851268" lon="2.597534">
        <ele>561.217</ele>
        <time>2020-07-26T06:03:31Z</time>
      </trkpt>
      <trkpt lat="41.851262" lon="2.597489">
        <ele>561.008</ele>
        <time>2020-07-26T06:03:32Z</time>
      </trkpt>
      <trkpt lat="41.851248" lon="2.597439">
        <ele>560.646</ele>
        <time>2020-07-26T06:03:33Z</time>
      </trkpt>
      <trkpt lat="41.851230" lon="2.597385">
        <ele>560.274</ele>
        <time>2020-07-26T06:03:34Z</time>
      </trkpt>
      <trkpt lat="41.851206" lon="2.597327">
        <ele>560.047</ele>
        <time>2020-07-26T06:03:35Z</time>
      </trkpt>
      <trkpt lat="41.851178" lon="2.597276">
        <ele>559.612</ele>
        <time>2020-07-26T06:03:36Z</time>
      </trkpt>
      <trkpt lat="41.851142" lon="2.597231">
        <ele>559.280</ele>
        <time>2020-07-26T06:03:37Z</time>
      </trkpt>
      <trkpt lat="41.851102" lon="2.597182">
        <ele>559.013</ele>
        <time>2020-07-26T06:03:38Z</time>
      </trkpt>
      <trkpt lat="41.851063" lon="2.597128">
        <ele>558.457</ele>
        <time>2020-07-26T06:03:39Z</time>
      </trkpt>
      <trkpt lat="41.851025" lon="2.597069">
        <ele>558.293</ele>
        <time>2020-07-26T06:03:40Z</time>
      </trkpt>
      <trkpt lat="41.850989" lon="2.597009">
        <ele>557.882</ele>
        <time>2020-07-26T06:03:41Z</time>
      </trkpt>
      <trkpt lat="41.850962" lon="2.596944">
        <ele>557.643</ele>
        <time>2020-07-26T06:03:42Z</time>
      </trkpt>
      <trkpt lat="41.850941" lon="2.596880">
        <ele>557.217</ele>
        <time>2020-07-26T06:03:43Z</time>
      </trkpt>
      <trkpt lat="41.850925" lon="2.596820">
        <ele>557.008</ele>
        <time>2020-07-26T06:03:44Z</time>
      </trkpt>
      <trkpt lat="41.850908" lon="2.596752">
        <ele>556.683</ele>
        <time>2020-07-26T06:03:45Z</time>
      </trkpt>
      <trkpt lat="41.850890" lon="2.596615">
        <ele>555.671</ele>
        <time>2020-07-26T06:03:47Z</time>
      </trkpt>
      <trkpt lat="41.850873" lon="2.596492">
        <ele>554.834</ele>
        <time>2020-07-26T06:03:49Z</time>
      </trkpt>
      <trkpt lat="41.850859" lon="2.596318">
        <ele>554.289</ele>
        <time>2020-07-26T06:03:52Z</time>
      </trkpt>
      <trkpt lat="41.850853" lon="2.596139">
        <ele>553.757</ele>
        <time>2020-07-26T06:03:55Z</time>
      </trkpt>
      <trkpt lat="41.850848" lon="2.596016">
        <ele>552.620</ele>
        <time>2020-07-26T06:03:57Z</time>
      </trkpt>
      <trkpt lat="41.850836" lon="2.595893">
        <ele>552.454</ele>
        <time>2020-07-26T06:03:59Z</time>
      </trkpt>
      <trkpt lat="41.850885" lon="2.595727">
        <ele>551.770</ele>
        <time>2020-07-26T06:04:01Z</time>
      </trkpt>
      <trkpt lat="41.850932" lon="2.595544">
        <ele>550.886</ele>
        <time>2020-07-26T06:04:03Z</time>
      </trkpt>
      <trkpt lat="41.850949" lon="2.595388">
        <ele>550.060</ele>
        <time>2020-07-26T06:04:05Z</time>
      </trkpt>
      <trkpt lat="41.850964" lon="2.595232">
        <ele>548.426</ele>
        <time>2020-07-26T06:04:07Z</time>
      </trkpt>
      <trkpt lat="41.850995" lon="2.595061">
        <ele>547.608</ele>
        <time>2020-07-26T06:04:09Z</time>
      </trkpt>
      <trkpt lat="41.851012" lon="2.594879">
        <ele>546.863</ele>
        <time>2020-07-26T06:04:11Z</time>
      </trkpt>
      <trkpt lat="41.851007" lon="2.594696">
        <ele>545.851</ele>
        <time>2020-07-26T06:04:13Z</time>
      </trkpt>
      <trkpt lat="41.850966" lon="2.594515">
        <ele>545.014</ele>
        <time>2020-07-26T06:04:15Z</time>
      </trkpt>
      <trkpt lat="41.850897" lon="2.594361">
        <ele>544.249</ele>
        <time>2020-07-26T06:04:17Z</time>
      </trkpt>
      <trkpt lat="41.850758" lon="2.594312">
        <ele>543.697</ele>
        <time>2020-07-26T06:04:19Z</time>
      </trkpt>
      <trkpt lat="41.850615" lon="2.594245">
        <ele>542.290</ele>
        <time>2020-07-26T06:04:21Z</time>
      </trkpt>
      <trkpt lat="41.850522" lon="2.594223">
        <ele>541.884</ele>
        <time>2020-07-26T06:04:22Z</time>
      </trkpt>
      <trkpt lat="41.850443" lon="2.594190">
        <ele>541.280</ele>
        <time>2020-07-26T06:04:23Z</time>
      </trkpt>
      <trkpt lat="41.850330" lon="2.594090">
        <ele>540.011</ele>
        <time>2020-07-26T06:04:25Z</time>
      </trkpt>
      <trkpt lat="41.850283" lon="2.594044">
        <ele>539.421</ele>
        <time>2020-07-26T06:04:26Z</time>
      </trkpt>
      <trkpt lat="41.850266" lon="2.593915">
        <ele>539.203</ele>
        <time>2020-07-26T06:04:28Z</time>
      </trkpt>
      <trkpt lat="41.850325" lon="2.593772">
        <ele>538.608</ele>
        <time>2020-07-26T06:04:30Z</time>
      </trkpt>
      <trkpt lat="41.850376" lon="2.593650">
        <ele>538.046</ele>
        <time>2020-07-26T06:04:32Z</time>
      </trkpt>
      <trkpt lat="41.850438" lon="2.593526">
        <ele>537.014</ele>
        <time>2020-07-26T06:04:34Z</time>
      </trkpt>
      <trkpt lat="41.850512" lon="2.593391">
        <ele>536.277</ele>
        <time>2020-07-26T06:04:36Z</time>
      </trkpt>
      <trkpt lat="41.850580" lon="2.593268">
        <ele>535.282</ele>
        <time>2020-07-26T06:04:38Z</time>
      </trkpt>
      <trkpt lat="41.850577" lon="2.593112">
        <ele>533.830</ele>
        <time>2020-07-26T06:04:41Z</time>
      </trkpt>
      <trkpt lat="41.850521" lon="2.592997">
        <ele>532.683</ele>
        <time>2020-07-26T06:04:43Z</time>
      </trkpt>
      <trkpt lat="41.850430" lon="2.592894">
        <ele>531.257</ele>
        <time>2020-07-26T06:04:45Z</time>
      </trkpt>
      <trkpt lat="41.850325" lon="2.592804">
        <ele>530.633</ele>
        <time>2020-07-26T06:04:47Z</time>
      </trkpt>
      <trkpt lat="41.850210" lon="2.592721">
        <ele>529.499</ele>
        <time>2020-07-26T06:04:49Z</time>
      </trkpt>
      <trkpt lat="41.850098" lon="2.592626">
        <ele>528.607</ele>
        <time>2020-07-26T06:04:51Z</time>
      </trkpt>
      <trkpt lat="41.849990" lon="2.592538">
        <ele>527.827</ele>
        <time>2020-07-26T06:04:53Z</time>
      </trkpt>
      <trkpt lat="41.849881" lon="2.592450">
        <ele>527.208</ele>
        <time>2020-07-26T06:04:55Z</time>
      </trkpt>
      <trkpt lat="41.849790" lon="2.592363">
        <ele>526.864</ele>
        <time>2020-07-26T06:04:57Z</time>
      </trkpt>
      <trkpt lat="41.849718" lon="2.592243">
        <ele>526.522</ele>
        <time>2020-07-26T06:04:59Z</time>
      </trkpt>
      <trkpt lat="41.849676" lon="2.592091">
        <ele>526.765</ele>
        <time>2020-07-26T06:05:01Z</time>
      </trkpt>
      <trkpt lat="41.849646" lon="2.591938">
        <ele>526.770</ele>
        <time>2020-07-26T06:05:03Z</time>
      </trkpt>
      <trkpt lat="41.849736" lon="2.591846">
        <ele>527.088</ele>
        <time>2020-07-26T06:05:06Z</time>
      </trkpt>
      <trkpt lat="41.849839" lon="2.591845">
        <ele>526.711</ele>
        <time>2020-07-26T06:05:10Z</time>
      </trkpt>
      <trkpt lat="41.849961" lon="2.591864">
        <ele>526.695</ele>
        <time>2020-07-26T06:05:13Z</time>
      </trkpt>
      <trkpt lat="41.850066" lon="2.591879">
        <ele>526.991</ele>
        <time>2020-07-26T06:05:15Z</time>
      </trkpt>
      <trkpt lat="41.850189" lon="2.591888">
        <ele>527.247</ele>
        <time>2020-07-26T06:05:17Z</time>
      </trkpt>
      <trkpt lat="41.850306" lon="2.591896">
        <ele>527.329</ele>
        <time>2020-07-26T06:05:19Z</time>
      </trkpt>
      <trkpt lat="41.850418" lon="2.591880">
        <ele>527.421</ele>
        <time>2020-07-26T06:05:21Z</time>
      </trkpt>
      <trkpt lat="41.850545" lon="2.591830">
        <ele>527.508</ele>
        <time>2020-07-26T06:05:24Z</time>
      </trkpt>
      <trkpt lat="41.850656" lon="2.591767">
        <ele>528.359</ele>
        <time>2020-07-26T06:05:26Z</time>
      </trkpt>
      <trkpt lat="41.850764" lon="2.591703">
        <ele>528.977</ele>
        <time>2020-07-26T06:05:28Z</time>
      </trkpt>
      <trkpt lat="41.850867" lon="2.591634">
        <ele>529.330</ele>
        <time>2020-07-26T06:05:30Z</time>
      </trkpt>
      <trkpt lat="41.850966" lon="2.591560">
        <ele>529.735</ele>
        <time>2020-07-26T06:05:32Z</time>
      </trkpt>
      <trkpt lat="41.851083" lon="2.591472">
        <ele>530.133</ele>
        <time>2020-07-26T06:05:34Z</time>
      </trkpt>
      <trkpt lat="41.851181" lon="2.591374">
        <ele>530.756</ele>
        <time>2020-07-26T06:05:36Z</time>
      </trkpt>
      <trkpt lat="41.851265" lon="2.591272">
        <ele>531.170</ele>
        <time>2020-07-26T06:05:38Z</time>
      </trkpt>
      <trkpt lat="41.851323" lon="2.591169">
        <ele>531.336</ele>
        <time>2020-07-26T06:05:40Z</time>
      </trkpt>
      <trkpt lat="41.851340" lon="2.591001">
        <ele>531.252</ele>
        <time>2020-07-26T06:05:43Z</time>
      </trkpt>
      <trkpt lat="41.851298" lon="2.590841">
        <ele>531.453</ele>
        <time>2020-07-26T06:05:46Z</time>
      </trkpt>
      <trkpt lat="41.851248" lon="2.590731">
        <ele>531.008</ele>
        <time>2020-07-26T06:05:48Z</time>
      </trkpt>
      <trkpt lat="41.851187" lon="2.590606">
        <ele>530.208</ele>
        <time>2020-07-26T06:05:52Z</time>
      </trkpt>
      <trkpt lat="41.851147" lon="2.590555">
        <ele>530.020</ele>
        <time>2020-07-26T06:05:56Z</time>
      </trkpt>
      <trkpt lat="41.851159" lon="2.590502">
        <ele>528.858</ele>
        <time>2020-07-26T06:06:05Z</time>
      </trkpt>
      <trkpt lat="41.851194" lon="2.590354">
        <ele>527.651</ele>
        <time>2020-07-26T06:06:13Z</time>
      </trkpt>
      <trkpt lat="41.851214" lon="2.590206">
        <ele>526.656</ele>
        <time>2020-07-26T06:06:16Z</time>
      </trkpt>
      <trkpt lat="41.851153" lon="2.590052">
        <ele>526.494</ele>
        <time>2020-07-26T06:06:19Z</time>
      </trkpt>
      <trkpt lat="41.851094" lon="2.589954">
        <ele>526.087</ele>
        <time>2020-07-26T06:06:22Z</time>
      </trkpt>
      <trkpt lat="41.851002" lon="2.589887">
        <ele>526.231</ele>
        <time>2020-07-26T06:06:26Z</time>
      </trkpt>
      <trkpt lat="41.850909" lon="2.589816">
        <ele>526.227</ele>
        <time>2020-07-26T06:06:31Z</time>
      </trkpt>
      <trkpt lat="41.850846" lon="2.589719">
        <ele>526.738</ele>
        <time>2020-07-26T06:06:39Z</time>
      </trkpt>
      <trkpt lat="41.850767" lon="2.589657">
        <ele>527.270</ele>
        <time>2020-07-26T06:06:49Z</time>
      </trkpt>
      <trkpt lat="41.850678" lon="2.589622">
        <ele>527.517</ele>
        <time>2020-07-26T06:06:55Z</time>
      </trkpt>
      <trkpt lat="41.850588" lon="2.589608">
        <ele>528.308</ele>
        <time>2020-07-26T06:07:02Z</time>
      </trkpt>
      <trkpt lat="41.850503" lon="2.589554">
        <ele>528.938</ele>
        <time>2020-07-26T06:07:10Z</time>
      </trkpt>
      <trkpt lat="41.850407" lon="2.589466">
        <ele>529.516</ele>
        <time>2020-07-26T06:07:15Z</time>
      </trkpt>
      <trkpt lat="41.850327" lon="2.589377">
        <ele>530.589</ele>
        <time>2020-07-26T06:07:18Z</time>
      </trkpt>
      <trkpt lat="41.850269" lon="2.589269">
        <ele>530.534</ele>
        <time>2020-07-26T06:07:22Z</time>
      </trkpt>
      <trkpt lat="41.850210" lon="2.589142">
        <ele>531.782</ele>
        <time>2020-07-26T06:07:26Z</time>
      </trkpt>
      <trkpt lat="41.850181" lon="2.588998">
        <ele>532.575</ele>
        <time>2020-07-26T06:07:30Z</time>
      </trkpt>
      <trkpt lat="41.850104" lon="2.588892">
        <ele>533.599</ele>
        <time>2020-07-26T06:07:34Z</time>
      </trkpt>
      <trkpt lat="41.850024" lon="2.588806">
        <ele>534.555</ele>
        <time>2020-07-26T06:07:39Z</time>
      </trkpt>
      <trkpt lat="41.849946" lon="2.588718">
        <ele>535.741</ele>
        <time>2020-07-26T06:07:43Z</time>
      </trkpt>
      <trkpt lat="41.849868" lon="2.588588">
        <ele>536.581</ele>
        <time>2020-07-26T06:07:47Z</time>
      </trkpt>
      <trkpt lat="41.849769" lon="2.588498">
        <ele>536.909</ele>
        <time>2020-07-26T06:07:49Z</time>
      </trkpt>
      <trkpt lat="41.849685" lon="2.588435">
        <ele>537.508</ele>
        <time>2020-07-26T06:07:51Z</time>
      </trkpt>
      <trkpt lat="41.849605" lon="2.588324">
        <ele>538.119</ele>
        <time>2020-07-26T06:07:54Z</time>
      </trkpt>
      <trkpt lat="41.849560" lon="2.588208">
        <ele>538.777</ele>
        <time>2020-07-26T06:07:57Z</time>
      </trkpt>
      <trkpt lat="41.849502" lon="2.588098">
        <ele>539.570</ele>
        <time>2020-07-26T06:08:00Z</time>
      </trkpt>
      <trkpt lat="41.849420" lon="2.588061">
        <ele>540.565</ele>
        <time>2020-07-26T06:08:03Z</time>
      </trkpt>
      <trkpt lat="41.849392" lon="2.588060">
        <ele>540.963</ele>
        <time>2020-07-26T06:08:04Z</time>
      </trkpt>
      <trkpt lat="41.849365" lon="2.588062">
        <ele>541.396</ele>
        <time>2020-07-26T06:08:05Z</time>
      </trkpt>
      <trkpt lat="41.849337" lon="2.588063">
        <ele>541.740</ele>
        <time>2020-07-26T06:08:06Z</time>
      </trkpt>
      <trkpt lat="41.849310" lon="2.588061">
        <ele>542.186</ele>
        <time>2020-07-26T06:08:07Z</time>
      </trkpt>
      <trkpt lat="41.849282" lon="2.588057">
        <ele>542.561</ele>
        <time>2020-07-26T06:08:08Z</time>
      </trkpt>
      <trkpt lat="41.849255" lon="2.588054">
        <ele>542.521</ele>
        <time>2020-07-26T06:08:09Z</time>
      </trkpt>
      <trkpt lat="41.849232" lon="2.588061">
        <ele>543.113</ele>
        <time>2020-07-26T06:08:10Z</time>
      </trkpt>
      <trkpt lat="41.849209" lon="2.588069">
        <ele>543.308</ele>
        <time>2020-07-26T06:08:11Z</time>
      </trkpt>
      <trkpt lat="41.849186" lon="2.588077">
        <ele>543.781</ele>
        <time>2020-07-26T06:08:12Z</time>
      </trkpt>
      <trkpt lat="41.849164" lon="2.588081">
        <ele>544.159</ele>
        <time>2020-07-26T06:08:13Z</time>
      </trkpt>
      <trkpt lat="41.849099" lon="2.588089">
        <ele>545.112</ele>
        <time>2020-07-26T06:08:16Z</time>
      </trkpt>
      <trkpt lat="41.849011" lon="2.588061">
        <ele>546.177</ele>
        <time>2020-07-26T06:08:20Z</time>
      </trkpt>
      <trkpt lat="41.848926" lon="2.588008">
        <ele>547.315</ele>
        <time>2020-07-26T06:08:24Z</time>
      </trkpt>
      <trkpt lat="41.848819" lon="2.587940">
        <ele>548.348</ele>
        <time>2020-07-26T06:08:28Z</time>
      </trkpt>
      <trkpt lat="41.848736" lon="2.587894">
        <ele>549.142</ele>
        <time>2020-07-26T06:08:31Z</time>
      </trkpt>
      <trkpt lat="41.848614" lon="2.587854">
        <ele>549.748</ele>
        <time>2020-07-26T06:08:34Z</time>
      </trkpt>
      <trkpt lat="41.848579" lon="2.587846">
        <ele>549.931</ele>
        <time>2020-07-26T06:08:35Z</time>
      </trkpt>
      <trkpt lat="41.848546" lon="2.587837">
        <ele>550.061</ele>
        <time>2020-07-26T06:08:36Z</time>
      </trkpt>
      <trkpt lat="41.848518" lon="2.587834">
        <ele>550.007</ele>
        <time>2020-07-26T06:08:37Z</time>
      </trkpt>
      <trkpt lat="41.848491" lon="2.587835">
        <ele>550.108</ele>
        <time>2020-07-26T06:08:38Z</time>
      </trkpt>
      <trkpt lat="41.848466" lon="2.587844">
        <ele>550.338</ele>
        <time>2020-07-26T06:08:39Z</time>
      </trkpt>
      <trkpt lat="41.848446" lon="2.587856">
        <ele>550.546</ele>
        <time>2020-07-26T06:08:40Z</time>
      </trkpt>
      <trkpt lat="41.848427" lon="2.587872">
        <ele>550.729</ele>
        <time>2020-07-26T06:08:41Z</time>
      </trkpt>
      <trkpt lat="41.848350" lon="2.587940">
        <ele>551.344</ele>
        <time>2020-07-26T06:08:45Z</time>
      </trkpt>
      <trkpt lat="41.848258" lon="2.587865">
        <ele>552.342</ele>
        <time>2020-07-26T06:08:50Z</time>
      </trkpt>
      <trkpt lat="41.848196" lon="2.587752">
        <ele>552.795</ele>
        <time>2020-07-26T06:08:53Z</time>
      </trkpt>
      <trkpt lat="41.848161" lon="2.587626">
        <ele>553.389</ele>
        <time>2020-07-26T06:08:56Z</time>
      </trkpt>
      <trkpt lat="41.848153" lon="2.587505">
        <ele>553.785</ele>
        <time>2020-07-26T06:08:59Z</time>
      </trkpt>
      <trkpt lat="41.848155" lon="2.587369">
        <ele>554.397</ele>
        <time>2020-07-26T06:09:03Z</time>
      </trkpt>
      <trkpt lat="41.848167" lon="2.587248">
        <ele>554.723</ele>
        <time>2020-07-26T06:09:06Z</time>
      </trkpt>
      <trkpt lat="41.848172" lon="2.587125">
        <ele>555.225</ele>
        <time>2020-07-26T06:09:09Z</time>
      </trkpt>
      <trkpt lat="41.848154" lon="2.587049">
        <ele>555.408</ele>
        <time>2020-07-26T06:09:11Z</time>
      </trkpt>
      <trkpt lat="41.848141" lon="2.587010">
        <ele>555.564</ele>
        <time>2020-07-26T06:09:12Z</time>
      </trkpt>
      <trkpt lat="41.848127" lon="2.586973">
        <ele>555.732</ele>
        <time>2020-07-26T06:09:13Z</time>
      </trkpt>
      <trkpt lat="41.848111" lon="2.586937">
        <ele>555.955</ele>
        <time>2020-07-26T06:09:14Z</time>
      </trkpt>
      <trkpt lat="41.848092" lon="2.586901">
        <ele>556.150</ele>
        <time>2020-07-26T06:09:15Z</time>
      </trkpt>
      <trkpt lat="41.848074" lon="2.586873">
        <ele>556.338</ele>
        <time>2020-07-26T06:09:16Z</time>
      </trkpt>
      <trkpt lat="41.848052" lon="2.586847">
        <ele>556.521</ele>
        <time>2020-07-26T06:09:17Z</time>
      </trkpt>
      <trkpt lat="41.848030" lon="2.586822">
        <ele>556.925</ele>
        <time>2020-07-26T06:09:18Z</time>
      </trkpt>
      <trkpt lat="41.848005" lon="2.586800">
        <ele>557.181</ele>
        <time>2020-07-26T06:09:19Z</time>
      </trkpt>
      <trkpt lat="41.847980" lon="2.586779">
        <ele>557.583</ele>
        <time>2020-07-26T06:09:20Z</time>
      </trkpt>
      <trkpt lat="41.847955" lon="2.586760">
        <ele>557.525</ele>
        <time>2020-07-26T06:09:21Z</time>
      </trkpt>
      <trkpt lat="41.847929" lon="2.586744">
        <ele>557.717</ele>
        <time>2020-07-26T06:09:22Z</time>
      </trkpt>
      <trkpt lat="41.847900" lon="2.586732">
        <ele>558.108</ele>
        <time>2020-07-26T06:09:23Z</time>
      </trkpt>
      <trkpt lat="41.847870" lon="2.586722">
        <ele>558.393</ele>
        <time>2020-07-26T06:09:24Z</time>
      </trkpt>
      <trkpt lat="41.847841" lon="2.586714">
        <ele>558.721</ele>
        <time>2020-07-26T06:09:25Z</time>
      </trkpt>
      <trkpt lat="41.847811" lon="2.586709">
        <ele>558.764</ele>
        <time>2020-07-26T06:09:26Z</time>
      </trkpt>
      <trkpt lat="41.847781" lon="2.586707">
        <ele>558.969</ele>
        <time>2020-07-26T06:09:27Z</time>
      </trkpt>
      <trkpt lat="41.847750" lon="2.586712">
        <ele>559.597</ele>
        <time>2020-07-26T06:09:28Z</time>
      </trkpt>
      <trkpt lat="41.847721" lon="2.586722">
        <ele>559.780</ele>
        <time>2020-07-26T06:09:29Z</time>
      </trkpt>
      <trkpt lat="41.847691" lon="2.586736">
        <ele>559.754</ele>
        <time>2020-07-26T06:09:30Z</time>
      </trkpt>
      <trkpt lat="41.847663" lon="2.586753">
        <ele>559.960</ele>
        <time>2020-07-26T06:09:31Z</time>
      </trkpt>
      <trkpt lat="41.847637" lon="2.586774">
        <ele>560.017</ele>
        <time>2020-07-26T06:09:32Z</time>
      </trkpt>
      <trkpt lat="41.847614" lon="2.586798">
        <ele>560.087</ele>
        <time>2020-07-26T06:09:33Z</time>
      </trkpt>
      <trkpt lat="41.847593" lon="2.586825">
        <ele>560.315</ele>
        <time>2020-07-26T06:09:34Z</time>
      </trkpt>
      <trkpt lat="41.847574" lon="2.586856">
        <ele>560.408</ele>
        <time>2020-07-26T06:09:35Z</time>
      </trkpt>
      <trkpt lat="41.847557" lon="2.586887">
        <ele>560.556</ele>
        <time>2020-07-26T06:09:36Z</time>
      </trkpt>
      <trkpt lat="41.847541" lon="2.586919">
        <ele>560.964</ele>
        <time>2020-07-26T06:09:37Z</time>
      </trkpt>
      <trkpt lat="41.847528" lon="2.586951">
        <ele>561.057</ele>
        <time>2020-07-26T06:09:38Z</time>
      </trkpt>
      <trkpt lat="41.847515" lon="2.586984">
        <ele>561.152</ele>
        <time>2020-07-26T06:09:39Z</time>
      </trkpt>
      <trkpt lat="41.847503" lon="2.587022">
        <ele>561.370</ele>
        <time>2020-07-26T06:09:40Z</time>
      </trkpt>
      <trkpt lat="41.847489" lon="2.587061">
        <ele>561.533</ele>
        <time>2020-07-26T06:09:41Z</time>
      </trkpt>
      <trkpt lat="41.847477" lon="2.587099">
        <ele>561.557</ele>
        <time>2020-07-26T06:09:42Z</time>
      </trkpt>
      <trkpt lat="41.847464" lon="2.587136">
        <ele>561.793</ele>
        <time>2020-07-26T06:09:43Z</time>
      </trkpt>
      <trkpt lat="41.847452" lon="2.587173">
        <ele>561.967</ele>
        <time>2020-07-26T06:09:44Z</time>
      </trkpt>
      <trkpt lat="41.847440" lon="2.587212">
        <ele>562.381</ele>
        <time>2020-07-26T06:09:45Z</time>
      </trkpt>
      <trkpt lat="41.847426" lon="2.587253">
        <ele>562.419</ele>
        <time>2020-07-26T06:09:46Z</time>
      </trkpt>
      <trkpt lat="41.847415" lon="2.587293">
        <ele>562.408</ele>
        <time>2020-07-26T06:09:47Z</time>
      </trkpt>
      <trkpt lat="41.847407" lon="2.587332">
        <ele>562.451</ele>
        <time>2020-07-26T06:09:48Z</time>
      </trkpt>
      <trkpt lat="41.847396" lon="2.587364">
        <ele>562.599</ele>
        <time>2020-07-26T06:09:49Z</time>
      </trkpt>
      <trkpt lat="41.847378" lon="2.587394">
        <ele>562.762</ele>
        <time>2020-07-26T06:09:50Z</time>
      </trkpt>
      <trkpt lat="41.847362" lon="2.587421">
        <ele>562.747</ele>
        <time>2020-07-26T06:09:51Z</time>
      </trkpt>
      <trkpt lat="41.847337" lon="2.587443">
        <ele>562.975</ele>
        <time>2020-07-26T06:09:52Z</time>
      </trkpt>
      <trkpt lat="41.847308" lon="2.587460">
        <ele>563.198</ele>
        <time>2020-07-26T06:09:53Z</time>
      </trkpt>
      <trkpt lat="41.847278" lon="2.587475">
        <ele>563.362</ele>
        <time>2020-07-26T06:09:54Z</time>
      </trkpt>
      <trkpt lat="41.847249" lon="2.587488">
        <ele>563.578</ele>
        <time>2020-07-26T06:09:55Z</time>
      </trkpt>
      <trkpt lat="41.847219" lon="2.587497">
        <ele>563.797</ele>
        <time>2020-07-26T06:09:56Z</time>
      </trkpt>
      <trkpt lat="41.847188" lon="2.587503">
        <ele>563.923</ele>
        <time>2020-07-26T06:09:57Z</time>
      </trkpt>
      <trkpt lat="41.847156" lon="2.587505">
        <ele>564.125</ele>
        <time>2020-07-26T06:09:58Z</time>
      </trkpt>
      <trkpt lat="41.847125" lon="2.587506">
        <ele>564.308</ele>
        <time>2020-07-26T06:09:59Z</time>
      </trkpt>
      <trkpt lat="41.847095" lon="2.587503">
        <ele>564.414</ele>
        <time>2020-07-26T06:10:00Z</time>
      </trkpt>
      <trkpt lat="41.847064" lon="2.587498">
        <ele>564.532</ele>
        <time>2020-07-26T06:10:01Z</time>
      </trkpt>
      <trkpt lat="41.847034" lon="2.587495">
        <ele>564.595</ele>
        <time>2020-07-26T06:10:02Z</time>
      </trkpt>
      <trkpt lat="41.847002" lon="2.587490">
        <ele>564.760</ele>
        <time>2020-07-26T06:10:03Z</time>
      </trkpt>
      <trkpt lat="41.846972" lon="2.587482">
        <ele>565.118</ele>
        <time>2020-07-26T06:10:04Z</time>
      </trkpt>
      <trkpt lat="41.846943" lon="2.587472">
        <ele>565.311</ele>
        <time>2020-07-26T06:10:05Z</time>
      </trkpt>
      <trkpt lat="41.846914" lon="2.587463">
        <ele>565.465</ele>
        <time>2020-07-26T06:10:06Z</time>
      </trkpt>
      <trkpt lat="41.846884" lon="2.587454">
        <ele>565.551</ele>
        <time>2020-07-26T06:10:07Z</time>
      </trkpt>
      <trkpt lat="41.846855" lon="2.587448">
        <ele>565.568</ele>
        <time>2020-07-26T06:10:08Z</time>
      </trkpt>
      <trkpt lat="41.846825" lon="2.587442">
        <ele>565.742</ele>
        <time>2020-07-26T06:10:09Z</time>
      </trkpt>
      <trkpt lat="41.846796" lon="2.587442">
        <ele>565.926</ele>
        <time>2020-07-26T06:10:10Z</time>
      </trkpt>
      <trkpt lat="41.846765" lon="2.587446">
        <ele>566.308</ele>
        <time>2020-07-26T06:10:11Z</time>
      </trkpt>
      <trkpt lat="41.846736" lon="2.587454">
        <ele>566.551</ele>
        <time>2020-07-26T06:10:12Z</time>
      </trkpt>
      <trkpt lat="41.846705" lon="2.587465">
        <ele>566.589</ele>
        <time>2020-07-26T06:10:13Z</time>
      </trkpt>
      <trkpt lat="41.846677" lon="2.587479">
        <ele>566.752</ele>
        <time>2020-07-26T06:10:14Z</time>
      </trkpt>
      <trkpt lat="41.846650" lon="2.587494">
        <ele>567.167</ele>
        <time>2020-07-26T06:10:15Z</time>
      </trkpt>
      <trkpt lat="41.846625" lon="2.587513">
        <ele>567.265</ele>
        <time>2020-07-26T06:10:16Z</time>
      </trkpt>
      <trkpt lat="41.846605" lon="2.587537">
        <ele>567.538</ele>
        <time>2020-07-26T06:10:17Z</time>
      </trkpt>
      <trkpt lat="41.846588" lon="2.587568">
        <ele>567.712</ele>
        <time>2020-07-26T06:10:18Z</time>
      </trkpt>
      <trkpt lat="41.846576" lon="2.587604">
        <ele>567.798</ele>
        <time>2020-07-26T06:10:19Z</time>
      </trkpt>
      <trkpt lat="41.846568" lon="2.587640">
        <ele>567.983</ele>
        <time>2020-07-26T06:10:20Z</time>
      </trkpt>
      <trkpt lat="41.846559" lon="2.587679">
        <ele>568.125</ele>
        <time>2020-07-26T06:10:21Z</time>
      </trkpt>
      <trkpt lat="41.846552" lon="2.587722">
        <ele>568.217</ele>
        <time>2020-07-26T06:10:22Z</time>
      </trkpt>
      <trkpt lat="41.846546" lon="2.587764">
        <ele>568.208</ele>
        <time>2020-07-26T06:10:23Z</time>
      </trkpt>
      <trkpt lat="41.846538" lon="2.587809">
        <ele>568.313</ele>
        <time>2020-07-26T06:10:24Z</time>
      </trkpt>
      <trkpt lat="41.846531" lon="2.587855">
        <ele>568.541</ele>
        <time>2020-07-26T06:10:25Z</time>
      </trkpt>
      <trkpt lat="41.846525" lon="2.587901">
        <ele>568.784</ele>
        <time>2020-07-26T06:10:26Z</time>
      </trkpt>
      <trkpt lat="41.846516" lon="2.587946">
        <ele>568.659</ele>
        <time>2020-07-26T06:10:27Z</time>
      </trkpt>
      <trkpt lat="41.846509" lon="2.587988">
        <ele>568.597</ele>
        <time>2020-07-26T06:10:28Z</time>
      </trkpt>
      <trkpt lat="41.846499" lon="2.588026">
        <ele>568.710</ele>
        <time>2020-07-26T06:10:29Z</time>
      </trkpt>
      <trkpt lat="41.846486" lon="2.588058">
        <ele>568.954</ele>
        <time>2020-07-26T06:10:30Z</time>
      </trkpt>
      <trkpt lat="41.846471" lon="2.588088">
        <ele>569.150</ele>
        <time>2020-07-26T06:10:31Z</time>
      </trkpt>
      <trkpt lat="41.846456" lon="2.588119">
        <ele>569.374</ele>
        <time>2020-07-26T06:10:32Z</time>
      </trkpt>
      <trkpt lat="41.846342" lon="2.588130">
        <ele>570.356</ele>
        <time>2020-07-26T06:10:37Z</time>
      </trkpt>
      <trkpt lat="41.846271" lon="2.588006">
        <ele>571.121</ele>
        <time>2020-07-26T06:10:41Z</time>
      </trkpt>
      <trkpt lat="41.846224" lon="2.587882">
        <ele>571.508</ele>
        <time>2020-07-26T06:10:44Z</time>
      </trkpt>
      <trkpt lat="41.846203" lon="2.587846">
        <ele>571.752</ele>
        <time>2020-07-26T06:10:45Z</time>
      </trkpt>
      <trkpt lat="41.846182" lon="2.587810">
        <ele>571.950</ele>
        <time>2020-07-26T06:10:46Z</time>
      </trkpt>
      <trkpt lat="41.846160" lon="2.587778">
        <ele>572.113</ele>
        <time>2020-07-26T06:10:47Z</time>
      </trkpt>
      <trkpt lat="41.846134" lon="2.587748">
        <ele>572.248</ele>
        <time>2020-07-26T06:10:48Z</time>
      </trkpt>
      <trkpt lat="41.846106" lon="2.587716">
        <ele>572.396</ele>
        <time>2020-07-26T06:10:49Z</time>
      </trkpt>
      <trkpt lat="41.846081" lon="2.587685">
        <ele>572.459</ele>
        <time>2020-07-26T06:10:50Z</time>
      </trkpt>
      <trkpt lat="41.846055" lon="2.587661">
        <ele>572.523</ele>
        <time>2020-07-26T06:10:51Z</time>
      </trkpt>
      <trkpt lat="41.846027" lon="2.587633">
        <ele>572.529</ele>
        <time>2020-07-26T06:10:52Z</time>
      </trkpt>
      <trkpt lat="41.846003" lon="2.587601">
        <ele>572.789</ele>
        <time>2020-07-26T06:10:53Z</time>
      </trkpt>
      <trkpt lat="41.845979" lon="2.587575">
        <ele>572.706</ele>
        <time>2020-07-26T06:10:54Z</time>
      </trkpt>
      <trkpt lat="41.845958" lon="2.587550">
        <ele>572.926</ele>
        <time>2020-07-26T06:10:55Z</time>
      </trkpt>
      <trkpt lat="41.845934" lon="2.587524">
        <ele>573.108</ele>
        <time>2020-07-26T06:10:56Z</time>
      </trkpt>
      <trkpt lat="41.845911" lon="2.587500">
        <ele>573.343</ele>
        <time>2020-07-26T06:10:57Z</time>
      </trkpt>
      <trkpt lat="41.845888" lon="2.587477">
        <ele>573.561</ele>
        <time>2020-07-26T06:10:58Z</time>
      </trkpt>
      <trkpt lat="41.845865" lon="2.587454">
        <ele>573.784</ele>
        <time>2020-07-26T06:10:59Z</time>
      </trkpt>
      <trkpt lat="41.845842" lon="2.587430">
        <ele>573.919</ele>
        <time>2020-07-26T06:11:00Z</time>
      </trkpt>
      <trkpt lat="41.845815" lon="2.587410">
        <ele>574.017</ele>
        <time>2020-07-26T06:11:01Z</time>
      </trkpt>
      <trkpt lat="41.845782" lon="2.587393">
        <ele>574.160</ele>
        <time>2020-07-26T06:11:02Z</time>
      </trkpt>
      <trkpt lat="41.845751" lon="2.587377">
        <ele>574.514</ele>
        <time>2020-07-26T06:11:03Z</time>
      </trkpt>
      <trkpt lat="41.845725" lon="2.587359">
        <ele>574.740</ele>
        <time>2020-07-26T06:11:04Z</time>
      </trkpt>
      <trkpt lat="41.845700" lon="2.587338">
        <ele>574.778</ele>
        <time>2020-07-26T06:11:05Z</time>
      </trkpt>
      <trkpt lat="41.845681" lon="2.587317">
        <ele>574.933</ele>
        <time>2020-07-26T06:11:06Z</time>
      </trkpt>
      <trkpt lat="41.845665" lon="2.587293">
        <ele>575.126</ele>
        <time>2020-07-26T06:11:07Z</time>
      </trkpt>
      <trkpt lat="41.845654" lon="2.587260">
        <ele>575.508</ele>
        <time>2020-07-26T06:11:08Z</time>
      </trkpt>
      <trkpt lat="41.845643" lon="2.587222">
        <ele>575.732</ele>
        <time>2020-07-26T06:11:09Z</time>
      </trkpt>
      <trkpt lat="41.845631" lon="2.587185">
        <ele>575.980</ele>
        <time>2020-07-26T06:11:10Z</time>
      </trkpt>
      <trkpt lat="41.845615" lon="2.587145">
        <ele>576.173</ele>
        <time>2020-07-26T06:11:11Z</time>
      </trkpt>
      <trkpt lat="41.845607" lon="2.587105">
        <ele>576.398</ele>
        <time>2020-07-26T06:11:12Z</time>
      </trkpt>
      <trkpt lat="41.845606" lon="2.587068">
        <ele>576.596</ele>
        <time>2020-07-26T06:11:13Z</time>
      </trkpt>
      <trkpt lat="41.845618" lon="2.586948">
        <ele>577.399</ele>
        <time>2020-07-26T06:11:17Z</time>
      </trkpt>
      <trkpt lat="41.845656" lon="2.586828">
        <ele>578.053</ele>
        <time>2020-07-26T06:11:21Z</time>
      </trkpt>
      <trkpt lat="41.845705" lon="2.586723">
        <ele>578.549</ele>
        <time>2020-07-26T06:11:24Z</time>
      </trkpt>
      <trkpt lat="41.845741" lon="2.586692">
        <ele>578.555</ele>
        <time>2020-07-26T06:11:25Z</time>
      </trkpt>
      <trkpt lat="41.845750" lon="2.586657">
        <ele>578.707</ele>
        <time>2020-07-26T06:11:26Z</time>
      </trkpt>
      <trkpt lat="41.845744" lon="2.586619">
        <ele>578.717</ele>
        <time>2020-07-26T06:11:27Z</time>
      </trkpt>
      <trkpt lat="41.845733" lon="2.586588">
        <ele>578.708</ele>
        <time>2020-07-26T06:11:28Z</time>
      </trkpt>
      <trkpt lat="41.845722" lon="2.586554">
        <ele>578.910</ele>
        <time>2020-07-26T06:11:29Z</time>
      </trkpt>
      <trkpt lat="41.845681" lon="2.586455">
        <ele>579.288</ele>
        <time>2020-07-26T06:11:32Z</time>
      </trkpt>
      <trkpt lat="41.845663" lon="2.586425">
        <ele>579.391</ele>
        <time>2020-07-26T06:11:33Z</time>
      </trkpt>
      <trkpt lat="41.845642" lon="2.586399">
        <ele>579.466</ele>
        <time>2020-07-26T06:11:34Z</time>
      </trkpt>
      <trkpt lat="41.845621" lon="2.586370">
        <ele>579.554</ele>
        <time>2020-07-26T06:11:35Z</time>
      </trkpt>
      <trkpt lat="41.845601" lon="2.586342">
        <ele>579.527</ele>
        <time>2020-07-26T06:11:36Z</time>
      </trkpt>
      <trkpt lat="41.845580" lon="2.586315">
        <ele>579.511</ele>
        <time>2020-07-26T06:11:37Z</time>
      </trkpt>
      <trkpt lat="41.845561" lon="2.586289">
        <ele>579.747</ele>
        <time>2020-07-26T06:11:38Z</time>
      </trkpt>
      <trkpt lat="41.845543" lon="2.586263">
        <ele>579.942</ele>
        <time>2020-07-26T06:11:39Z</time>
      </trkpt>
      <trkpt lat="41.845524" lon="2.586233">
        <ele>580.022</ele>
        <time>2020-07-26T06:11:40Z</time>
      </trkpt>
      <trkpt lat="41.845505" lon="2.586200">
        <ele>580.114</ele>
        <time>2020-07-26T06:11:41Z</time>
      </trkpt>
      <trkpt lat="41.845485" lon="2.586165">
        <ele>580.208</ele>
        <time>2020-07-26T06:11:42Z</time>
      </trkpt>
      <trkpt lat="41.845420" lon="2.586038">
        <ele>580.789</ele>
        <time>2020-07-26T06:11:45Z</time>
      </trkpt>
      <trkpt lat="41.845372" lon="2.585912">
        <ele>581.187</ele>
        <time>2020-07-26T06:11:48Z</time>
      </trkpt>
      <trkpt lat="41.845337" lon="2.585778">
        <ele>581.530</ele>
        <time>2020-07-26T06:11:51Z</time>
      </trkpt>
      <trkpt lat="41.845330" lon="2.585634">
        <ele>581.575</ele>
        <time>2020-07-26T06:11:54Z</time>
      </trkpt>
      <trkpt lat="41.845327" lon="2.585508">
        <ele>581.923</ele>
        <time>2020-07-26T06:11:57Z</time>
      </trkpt>
      <trkpt lat="41.845406" lon="2.585411">
        <ele>582.226</ele>
        <time>2020-07-26T06:12:00Z</time>
      </trkpt>
      <trkpt lat="41.845471" lon="2.585312">
        <ele>582.750</ele>
        <time>2020-07-26T06:12:03Z</time>
      </trkpt>
      <trkpt lat="41.845541" lon="2.585209">
        <ele>583.046</ele>
        <time>2020-07-26T06:12:06Z</time>
      </trkpt>
      <trkpt lat="41.845587" lon="2.585091">
        <ele>583.254</ele>
        <time>2020-07-26T06:12:09Z</time>
      </trkpt>
      <trkpt lat="41.845599" lon="2.584958">
        <ele>583.556</ele>
        <time>2020-07-26T06:12:12Z</time>
      </trkpt>
      <trkpt lat="41.845671" lon="2.584846">
        <ele>584.311</ele>
        <time>2020-07-26T06:12:15Z</time>
      </trkpt>
      <trkpt lat="41.845726" lon="2.584722">
        <ele>584.508</ele>
        <time>2020-07-26T06:12:18Z</time>
      </trkpt>
      <trkpt lat="41.845747" lon="2.584600">
        <ele>585.040</ele>
        <time>2020-07-26T06:12:21Z</time>
      </trkpt>
      <trkpt lat="41.845736" lon="2.584526">
        <ele>585.258</ele>
        <time>2020-07-26T06:12:23Z</time>
      </trkpt>
      <trkpt lat="41.845719" lon="2.584491">
        <ele>585.331</ele>
        <time>2020-07-26T06:12:24Z</time>
      </trkpt>
      <trkpt lat="41.845702" lon="2.584459">
        <ele>585.456</ele>
        <time>2020-07-26T06:12:25Z</time>
      </trkpt>
      <trkpt lat="41.845682" lon="2.584429">
        <ele>585.574</ele>
        <time>2020-07-26T06:12:26Z</time>
      </trkpt>
      <trkpt lat="41.845661" lon="2.584400">
        <ele>585.947</ele>
        <time>2020-07-26T06:12:27Z</time>
      </trkpt>
      <trkpt lat="41.845639" lon="2.584373">
        <ele>586.081</ele>
        <time>2020-07-26T06:12:28Z</time>
      </trkpt>
      <trkpt lat="41.845616" lon="2.584346">
        <ele>586.387</ele>
        <time>2020-07-26T06:12:29Z</time>
      </trkpt>
      <trkpt lat="41.845593" lon="2.584319">
        <ele>586.431</ele>
        <time>2020-07-26T06:12:30Z</time>
      </trkpt>
      <trkpt lat="41.845569" lon="2.584294">
        <ele>586.561</ele>
        <time>2020-07-26T06:12:31Z</time>
      </trkpt>
      <trkpt lat="41.845545" lon="2.584266">
        <ele>586.907</ele>
        <time>2020-07-26T06:12:32Z</time>
      </trkpt>
      <trkpt lat="41.845522" lon="2.584241">
        <ele>587.108</ele>
        <time>2020-07-26T06:12:33Z</time>
      </trkpt>
      <trkpt lat="41.845496" lon="2.584219">
        <ele>587.278</ele>
        <time>2020-07-26T06:12:34Z</time>
      </trkpt>
      <trkpt lat="41.845469" lon="2.584196">
        <ele>587.396</ele>
        <time>2020-07-26T06:12:35Z</time>
      </trkpt>
      <trkpt lat="41.845439" lon="2.584174">
        <ele>587.599</ele>
        <time>2020-07-26T06:12:36Z</time>
      </trkpt>
      <trkpt lat="41.845408" lon="2.584149">
        <ele>587.774</ele>
        <time>2020-07-26T06:12:37Z</time>
      </trkpt>
      <trkpt lat="41.845380" lon="2.584126">
        <ele>587.942</ele>
        <time>2020-07-26T06:12:38Z</time>
      </trkpt>
      <trkpt lat="41.845347" lon="2.584106">
        <ele>588.055</ele>
        <time>2020-07-26T06:12:39Z</time>
      </trkpt>
      <trkpt lat="41.845313" lon="2.584090">
        <ele>588.099</ele>
        <time>2020-07-26T06:12:40Z</time>
      </trkpt>
      <trkpt lat="41.845281" lon="2.584083">
        <ele>588.135</ele>
        <time>2020-07-26T06:12:41Z</time>
      </trkpt>
      <trkpt lat="41.845247" lon="2.584082">
        <ele>588.281</ele>
        <time>2020-07-26T06:12:42Z</time>
      </trkpt>
      <trkpt lat="41.845214" lon="2.584087">
        <ele>588.361</ele>
        <time>2020-07-26T06:12:43Z</time>
      </trkpt>
      <trkpt lat="41.845182" lon="2.584095">
        <ele>588.517</ele>
        <time>2020-07-26T06:12:44Z</time>
      </trkpt>
      <trkpt lat="41.845148" lon="2.584104">
        <ele>588.708</ele>
        <time>2020-07-26T06:12:45Z</time>
      </trkpt>
      <trkpt lat="41.845114" lon="2.584118">
        <ele>588.933</ele>
        <time>2020-07-26T06:12:46Z</time>
      </trkpt>
      <trkpt lat="41.845082" lon="2.584133">
        <ele>589.081</ele>
        <time>2020-07-26T06:12:47Z</time>
      </trkpt>
      <trkpt lat="41.845051" lon="2.584150">
        <ele>589.064</ele>
        <time>2020-07-26T06:12:48Z</time>
      </trkpt>
      <trkpt lat="41.845021" lon="2.584164">
        <ele>588.849</ele>
        <time>2020-07-26T06:12:49Z</time>
      </trkpt>
      <trkpt lat="41.844990" lon="2.584183">
        <ele>589.147</ele>
        <time>2020-07-26T06:12:50Z</time>
      </trkpt>
      <trkpt lat="41.844961" lon="2.584200">
        <ele>589.350</ele>
        <time>2020-07-26T06:12:51Z</time>
      </trkpt>
      <trkpt lat="41.844931" lon="2.584212">
        <ele>589.564</ele>
        <time>2020-07-26T06:12:52Z</time>
      </trkpt>
      <trkpt lat="41.844902" lon="2.584217">
        <ele>589.790</ele>
        <time>2020-07-26T06:12:53Z</time>
      </trkpt>
      <trkpt lat="41.844874" lon="2.584226">
        <ele>589.922</ele>
        <time>2020-07-26T06:12:54Z</time>
      </trkpt>
      <trkpt lat="41.844845" lon="2.584231">
        <ele>590.162</ele>
        <time>2020-07-26T06:12:55Z</time>
      </trkpt>
      <trkpt lat="41.844817" lon="2.584235">
        <ele>590.508</ele>
        <time>2020-07-26T06:12:56Z</time>
      </trkpt>
      <trkpt lat="41.844788" lon="2.584241">
        <ele>590.708</ele>
        <time>2020-07-26T06:12:57Z</time>
      </trkpt>
      <trkpt lat="41.844761" lon="2.584248">
        <ele>590.927</ele>
        <time>2020-07-26T06:12:58Z</time>
      </trkpt>
      <trkpt lat="41.844733" lon="2.584255">
        <ele>591.165</ele>
        <time>2020-07-26T06:12:59Z</time>
      </trkpt>
      <trkpt lat="41.844705" lon="2.584260">
        <ele>591.518</ele>
        <time>2020-07-26T06:13:00Z</time>
      </trkpt>
      <trkpt lat="41.844678" lon="2.584270">
        <ele>591.743</ele>
        <time>2020-07-26T06:13:01Z</time>
      </trkpt>
      <trkpt lat="41.844651" lon="2.584282">
        <ele>591.931</ele>
        <time>2020-07-26T06:13:02Z</time>
      </trkpt>
      <trkpt lat="41.844625" lon="2.584300">
        <ele>592.164</ele>
        <time>2020-07-26T06:13:03Z</time>
      </trkpt>
      <trkpt lat="41.844600" lon="2.584320">
        <ele>592.338</ele>
        <time>2020-07-26T06:13:04Z</time>
      </trkpt>
      <trkpt lat="41.844575" lon="2.584341">
        <ele>592.524</ele>
        <time>2020-07-26T06:13:05Z</time>
      </trkpt>
      <trkpt lat="41.844554" lon="2.584366">
        <ele>592.977</ele>
        <time>2020-07-26T06:13:06Z</time>
      </trkpt>
      <trkpt lat="41.844533" lon="2.584392">
        <ele>593.061</ele>
        <time>2020-07-26T06:13:07Z</time>
      </trkpt>
      <trkpt lat="41.844510" lon="2.584420">
        <ele>593.127</ele>
        <time>2020-07-26T06:13:08Z</time>
      </trkpt>
      <trkpt lat="41.844488" lon="2.584445">
        <ele>593.508</ele>
        <time>2020-07-26T06:13:09Z</time>
      </trkpt>
      <trkpt lat="41.844466" lon="2.584469">
        <ele>593.562</ele>
        <time>2020-07-26T06:13:10Z</time>
      </trkpt>
      <trkpt lat="41.844446" lon="2.584494">
        <ele>593.750</ele>
        <time>2020-07-26T06:13:11Z</time>
      </trkpt>
      <trkpt lat="41.844422" lon="2.584520">
        <ele>593.793</ele>
        <time>2020-07-26T06:13:12Z</time>
      </trkpt>
      <trkpt lat="41.844341" lon="2.584599">
        <ele>594.138</ele>
        <time>2020-07-26T06:13:15Z</time>
      </trkpt>
      <trkpt lat="41.844311" lon="2.584623">
        <ele>594.316</ele>
        <time>2020-07-26T06:13:16Z</time>
      </trkpt>
      <trkpt lat="41.844282" lon="2.584647">
        <ele>594.459</ele>
        <time>2020-07-26T06:13:17Z</time>
      </trkpt>
      <trkpt lat="41.844252" lon="2.584673">
        <ele>594.463</ele>
        <time>2020-07-26T06:13:18Z</time>
      </trkpt>
      <trkpt lat="41.844222" lon="2.584696">
        <ele>594.549</ele>
        <time>2020-07-26T06:13:19Z</time>
      </trkpt>
      <trkpt lat="41.844192" lon="2.584716">
        <ele>594.922</ele>
        <time>2020-07-26T06:13:20Z</time>
      </trkpt>
      <trkpt lat="41.844162" lon="2.584737">
        <ele>595.162</ele>
        <time>2020-07-26T06:13:21Z</time>
      </trkpt>
      <trkpt lat="41.844133" lon="2.584748">
        <ele>595.308</ele>
        <time>2020-07-26T06:13:22Z</time>
      </trkpt>
      <trkpt lat="41.844103" lon="2.584756">
        <ele>595.408</ele>
        <time>2020-07-26T06:13:23Z</time>
      </trkpt>
      <trkpt lat="41.844073" lon="2.584763">
        <ele>595.547</ele>
        <time>2020-07-26T06:13:24Z</time>
      </trkpt>
      <trkpt lat="41.844044" lon="2.584775">
        <ele>595.765</ele>
        <time>2020-07-26T06:13:25Z</time>
      </trkpt>
      <trkpt lat="41.844016" lon="2.584784">
        <ele>595.978</ele>
        <time>2020-07-26T06:13:26Z</time>
      </trkpt>
      <trkpt lat="41.843988" lon="2.584799">
        <ele>596.173</ele>
        <time>2020-07-26T06:13:27Z</time>
      </trkpt>
      <trkpt lat="41.843959" lon="2.584810">
        <ele>596.321</ele>
        <time>2020-07-26T06:13:28Z</time>
      </trkpt>
      <trkpt lat="41.843930" lon="2.584821">
        <ele>596.434</ele>
        <time>2020-07-26T06:13:29Z</time>
      </trkpt>
      <trkpt lat="41.843901" lon="2.584831">
        <ele>596.558</ele>
        <time>2020-07-26T06:13:30Z</time>
      </trkpt>
      <trkpt lat="41.843873" lon="2.584841">
        <ele>596.794</ele>
        <time>2020-07-26T06:13:31Z</time>
      </trkpt>
      <trkpt lat="41.843843" lon="2.584847">
        <ele>596.711</ele>
        <time>2020-07-26T06:13:32Z</time>
      </trkpt>
      <trkpt lat="41.843812" lon="2.584853">
        <ele>596.721</ele>
        <time>2020-07-26T06:13:33Z</time>
      </trkpt>
      <trkpt lat="41.843781" lon="2.584859">
        <ele>596.903</ele>
        <time>2020-07-26T06:13:34Z</time>
      </trkpt>
      <trkpt lat="41.843749" lon="2.584864">
        <ele>596.808</ele>
        <time>2020-07-26T06:13:35Z</time>
      </trkpt>
      <trkpt lat="41.843719" lon="2.584870">
        <ele>597.166</ele>
        <time>2020-07-26T06:13:36Z</time>
      </trkpt>
      <trkpt lat="41.843688" lon="2.584868">
        <ele>597.324</ele>
        <time>2020-07-26T06:13:37Z</time>
      </trkpt>
      <trkpt lat="41.843659" lon="2.584864">
        <ele>597.587</ele>
        <time>2020-07-26T06:13:38Z</time>
      </trkpt>
      <trkpt lat="41.843630" lon="2.584860">
        <ele>597.742</ele>
        <time>2020-07-26T06:13:39Z</time>
      </trkpt>
      <trkpt lat="41.843602" lon="2.584855">
        <ele>597.960</ele>
        <time>2020-07-26T06:13:40Z</time>
      </trkpt>
      <trkpt lat="41.843574" lon="2.584851">
        <ele>598.163</ele>
        <time>2020-07-26T06:13:41Z</time>
      </trkpt>
      <trkpt lat="41.843546" lon="2.584845">
        <ele>598.227</ele>
        <time>2020-07-26T06:13:42Z</time>
      </trkpt>
      <trkpt lat="41.843517" lon="2.584844">
        <ele>598.383</ele>
        <time>2020-07-26T06:13:43Z</time>
      </trkpt>
      <trkpt lat="41.843488" lon="2.584843">
        <ele>598.555</ele>
        <time>2020-07-26T06:13:44Z</time>
      </trkpt>
      <trkpt lat="41.843459" lon="2.584844">
        <ele>598.707</ele>
        <time>2020-07-26T06:13:45Z</time>
      </trkpt>
      <trkpt lat="41.843428" lon="2.584844">
        <ele>598.717</ele>
        <time>2020-07-26T06:13:46Z</time>
      </trkpt>
      <trkpt lat="41.843396" lon="2.584844">
        <ele>598.908</ele>
        <time>2020-07-26T06:13:47Z</time>
      </trkpt>
      <trkpt lat="41.843365" lon="2.584840">
        <ele>599.150</ele>
        <time>2020-07-26T06:13:48Z</time>
      </trkpt>
      <trkpt lat="41.843335" lon="2.584831">
        <ele>599.388</ele>
        <time>2020-07-26T06:13:49Z</time>
      </trkpt>
      <trkpt lat="41.843307" lon="2.584818">
        <ele>599.511</ele>
        <time>2020-07-26T06:13:50Z</time>
      </trkpt>
      <trkpt lat="41.843279" lon="2.584803">
        <ele>599.546</ele>
        <time>2020-07-26T06:13:51Z</time>
      </trkpt>
      <trkpt lat="41.843252" lon="2.584784">
        <ele>599.554</ele>
        <time>2020-07-26T06:13:52Z</time>
      </trkpt>
      <trkpt lat="41.843225" lon="2.584765">
        <ele>599.797</ele>
        <time>2020-07-26T06:13:53Z</time>
      </trkpt>
      <trkpt lat="41.843198" lon="2.584743">
        <ele>599.761</ele>
        <time>2020-07-26T06:13:54Z</time>
      </trkpt>
      <trkpt lat="41.843171" lon="2.584720">
        <ele>599.947</ele>
        <time>2020-07-26T06:13:55Z</time>
      </trkpt>
      <trkpt lat="41.843145" lon="2.584696">
        <ele>600.057</ele>
        <time>2020-07-26T06:13:56Z</time>
      </trkpt>
      <trkpt lat="41.843118" lon="2.584674">
        <ele>599.800</ele>
        <time>2020-07-26T06:13:57Z</time>
      </trkpt>
      <trkpt lat="41.843092" lon="2.584648">
        <ele>600.120</ele>
        <time>2020-07-26T06:13:58Z</time>
      </trkpt>
      <trkpt lat="41.843066" lon="2.584622">
        <ele>600.208</ele>
        <time>2020-07-26T06:13:59Z</time>
      </trkpt>
      <trkpt lat="41.843040" lon="2.584594">
        <ele>600.360</ele>
        <time>2020-07-26T06:14:00Z</time>
      </trkpt>
      <trkpt lat="41.843015" lon="2.584566">
        <ele>600.588</ele>
        <time>2020-07-26T06:14:01Z</time>
      </trkpt>
      <trkpt lat="41.842986" lon="2.584533">
        <ele>600.561</ele>
        <time>2020-07-26T06:14:02Z</time>
      </trkpt>
      <trkpt lat="41.842959" lon="2.584502">
        <ele>600.716</ele>
        <time>2020-07-26T06:14:03Z</time>
      </trkpt>
      <trkpt lat="41.842933" lon="2.584471">
        <ele>600.964</ele>
        <time>2020-07-26T06:14:04Z</time>
      </trkpt>
      <trkpt lat="41.842908" lon="2.584442">
        <ele>601.047</ele>
        <time>2020-07-26T06:14:05Z</time>
      </trkpt>
      <trkpt lat="41.842886" lon="2.584415">
        <ele>601.151</ele>
        <time>2020-07-26T06:14:06Z</time>
      </trkpt>
      <trkpt lat="41.842863" lon="2.584388">
        <ele>601.257</ele>
        <time>2020-07-26T06:14:07Z</time>
      </trkpt>
      <trkpt lat="41.842841" lon="2.584361">
        <ele>601.548</ele>
        <time>2020-07-26T06:14:08Z</time>
      </trkpt>
      <trkpt lat="41.842819" lon="2.584335">
        <ele>601.761</ele>
        <time>2020-07-26T06:14:09Z</time>
      </trkpt>
      <trkpt lat="41.842794" lon="2.584312">
        <ele>601.917</ele>
        <time>2020-07-26T06:14:10Z</time>
      </trkpt>
      <trkpt lat="41.842767" lon="2.584294">
        <ele>602.008</ele>
        <time>2020-07-26T06:14:11Z</time>
      </trkpt>
      <trkpt lat="41.842739" lon="2.584284">
        <ele>602.389</ele>
        <time>2020-07-26T06:14:12Z</time>
      </trkpt>
      <trkpt lat="41.842711" lon="2.584281">
        <ele>602.767</ele>
        <time>2020-07-26T06:14:13Z</time>
      </trkpt>
      <trkpt lat="41.842685" lon="2.584282">
        <ele>602.910</ele>
        <time>2020-07-26T06:14:14Z</time>
      </trkpt>
      <trkpt lat="41.842660" lon="2.584286">
        <ele>603.525</ele>
        <time>2020-07-26T06:14:15Z</time>
      </trkpt>
      <trkpt lat="41.842637" lon="2.584292">
        <ele>603.513</ele>
        <time>2020-07-26T06:14:16Z</time>
      </trkpt>
      <trkpt lat="41.842614" lon="2.584305">
        <ele>603.726</ele>
        <time>2020-07-26T06:14:17Z</time>
      </trkpt>
      <trkpt lat="41.842592" lon="2.584317">
        <ele>603.760</ele>
        <time>2020-07-26T06:14:18Z</time>
      </trkpt>
      <trkpt lat="41.842571" lon="2.584332">
        <ele>603.936</ele>
        <time>2020-07-26T06:14:19Z</time>
      </trkpt>
      <trkpt lat="41.842551" lon="2.584349">
        <ele>604.131</ele>
        <time>2020-07-26T06:14:20Z</time>
      </trkpt>
      <trkpt lat="41.842531" lon="2.584365">
        <ele>604.361</ele>
        <time>2020-07-26T06:14:21Z</time>
      </trkpt>
      <trkpt lat="41.842510" lon="2.584379">
        <ele>604.507</ele>
        <time>2020-07-26T06:14:22Z</time>
      </trkpt>
      <trkpt lat="41.842488" lon="2.584391">
        <ele>604.708</ele>
        <time>2020-07-26T06:14:23Z</time>
      </trkpt>
      <trkpt lat="41.842465" lon="2.584401">
        <ele>604.948</ele>
        <time>2020-07-26T06:14:24Z</time>
      </trkpt>
      <trkpt lat="41.842441" lon="2.584411">
        <ele>605.346</ele>
        <time>2020-07-26T06:14:25Z</time>
      </trkpt>
      <trkpt lat="41.842417" lon="2.584415">
        <ele>605.769</ele>
        <time>2020-07-26T06:14:26Z</time>
      </trkpt>
      <trkpt lat="41.842392" lon="2.584411">
        <ele>605.724</ele>
        <time>2020-07-26T06:14:27Z</time>
      </trkpt>
      <trkpt lat="41.842367" lon="2.584406">
        <ele>605.972</ele>
        <time>2020-07-26T06:14:28Z</time>
      </trkpt>
      <trkpt lat="41.842339" lon="2.584396">
        <ele>606.045</ele>
        <time>2020-07-26T06:14:29Z</time>
      </trkpt>
      <trkpt lat="41.842310" lon="2.584384">
        <ele>605.829</ele>
        <time>2020-07-26T06:14:30Z</time>
      </trkpt>
      <trkpt lat="41.842280" lon="2.584369">
        <ele>605.795</ele>
        <time>2020-07-26T06:14:31Z</time>
      </trkpt>
      <trkpt lat="41.842251" lon="2.584355">
        <ele>605.968</ele>
        <time>2020-07-26T06:14:32Z</time>
      </trkpt>
      <trkpt lat="41.842225" lon="2.584342">
        <ele>606.142</ele>
        <time>2020-07-26T06:14:33Z</time>
      </trkpt>
      <trkpt lat="41.842199" lon="2.584328">
        <ele>606.226</ele>
        <time>2020-07-26T06:14:34Z</time>
      </trkpt>
      <trkpt lat="41.842173" lon="2.584313">
        <ele>606.308</ele>
        <time>2020-07-26T06:14:35Z</time>
      </trkpt>
      <trkpt lat="41.842149" lon="2.584296">
        <ele>606.211</ele>
        <time>2020-07-26T06:14:36Z</time>
      </trkpt>
      <trkpt lat="41.842127" lon="2.584276">
        <ele>606.349</ele>
        <time>2020-07-26T06:14:37Z</time>
      </trkpt>
      <trkpt lat="41.842105" lon="2.584253">
        <ele>606.422</ele>
        <time>2020-07-26T06:14:38Z</time>
      </trkpt>
      <trkpt lat="41.842082" lon="2.584231">
        <ele>606.497</ele>
        <time>2020-07-26T06:14:39Z</time>
      </trkpt>
      <trkpt lat="41.842062" lon="2.584211">
        <ele>606.735</ele>
        <time>2020-07-26T06:14:40Z</time>
      </trkpt>
      <trkpt lat="41.842036" lon="2.584187">
        <ele>606.778</ele>
        <time>2020-07-26T06:14:41Z</time>
      </trkpt>
      <trkpt lat="41.842015" lon="2.584164">
        <ele>607.122</ele>
        <time>2020-07-26T06:14:42Z</time>
      </trkpt>
      <trkpt lat="41.841994" lon="2.584141">
        <ele>607.348</ele>
        <time>2020-07-26T06:14:43Z</time>
      </trkpt>
      <trkpt lat="41.841969" lon="2.584125">
        <ele>607.471</ele>
        <time>2020-07-26T06:14:44Z</time>
      </trkpt>
      <trkpt lat="41.841941" lon="2.584118">
        <ele>607.441</ele>
        <time>2020-07-26T06:14:45Z</time>
      </trkpt>
      <trkpt lat="41.841913" lon="2.584116">
        <ele>607.415</ele>
        <time>2020-07-26T06:14:46Z</time>
      </trkpt>
      <trkpt lat="41.841885" lon="2.584119">
        <ele>607.508</ele>
        <time>2020-07-26T06:14:47Z</time>
      </trkpt>
      <trkpt lat="41.841860" lon="2.584130">
        <ele>607.552</ele>
        <time>2020-07-26T06:14:48Z</time>
      </trkpt>
      <trkpt lat="41.841789" lon="2.584253">
        <ele>608.590</ele>
        <time>2020-07-26T06:14:52Z</time>
      </trkpt>
      <trkpt lat="41.841789" lon="2.584378">
        <ele>609.333</ele>
        <time>2020-07-26T06:14:55Z</time>
      </trkpt>
      <trkpt lat="41.841789" lon="2.584516">
        <ele>609.978</ele>
        <time>2020-07-26T06:14:59Z</time>
      </trkpt>
      <trkpt lat="41.841773" lon="2.584664">
        <ele>610.786</ele>
        <time>2020-07-26T06:15:03Z</time>
      </trkpt>
      <trkpt lat="41.841713" lon="2.584791">
        <ele>611.079</ele>
        <time>2020-07-26T06:15:07Z</time>
      </trkpt>
      <trkpt lat="41.841621" lon="2.584882">
        <ele>611.733</ele>
        <time>2020-07-26T06:15:11Z</time>
      </trkpt>
      <trkpt lat="41.841546" lon="2.584969">
        <ele>612.139</ele>
        <time>2020-07-26T06:15:14Z</time>
      </trkpt>
      <trkpt lat="41.841470" lon="2.585056">
        <ele>612.911</ele>
        <time>2020-07-26T06:15:17Z</time>
      </trkpt>
      <trkpt lat="41.841424" lon="2.585182">
        <ele>613.821</ele>
        <time>2020-07-26T06:15:21Z</time>
      </trkpt>
      <trkpt lat="41.841367" lon="2.585312">
        <ele>614.403</ele>
        <time>2020-07-26T06:15:25Z</time>
      </trkpt>
      <trkpt lat="41.841297" lon="2.585425">
        <ele>615.008</ele>
        <time>2020-07-26T06:15:29Z</time>
      </trkpt>
      <trkpt lat="41.841229" lon="2.585530">
        <ele>615.576</ele>
        <time>2020-07-26T06:15:33Z</time>
      </trkpt>
      <trkpt lat="41.841159" lon="2.585631">
        <ele>616.374</ele>
        <time>2020-07-26T06:15:37Z</time>
      </trkpt>
      <trkpt lat="41.841109" lon="2.585704">
        <ele>616.987</ele>
        <time>2020-07-26T06:15:40Z</time>
      </trkpt>
      <trkpt lat="41.841088" lon="2.585739">
        <ele>617.092</ele>
        <time>2020-07-26T06:15:41Z</time>
      </trkpt>
      <trkpt lat="41.841064" lon="2.585763">
        <ele>617.160</ele>
        <time>2020-07-26T06:15:42Z</time>
      </trkpt>
      <trkpt lat="41.841039" lon="2.585775">
        <ele>617.373</ele>
        <time>2020-07-26T06:15:43Z</time>
      </trkpt>
      <trkpt lat="41.841013" lon="2.585775">
        <ele>617.517</ele>
        <time>2020-07-26T06:15:44Z</time>
      </trkpt>
      <trkpt lat="41.840986" lon="2.585773">
        <ele>617.753</ele>
        <time>2020-07-26T06:15:45Z</time>
      </trkpt>
      <trkpt lat="41.840961" lon="2.585757">
        <ele>618.143</ele>
        <time>2020-07-26T06:15:46Z</time>
      </trkpt>
      <trkpt lat="41.840941" lon="2.585736">
        <ele>618.264</ele>
        <time>2020-07-26T06:15:47Z</time>
      </trkpt>
      <trkpt lat="41.840925" lon="2.585709">
        <ele>618.210</ele>
        <time>2020-07-26T06:15:48Z</time>
      </trkpt>
      <trkpt lat="41.840913" lon="2.585676">
        <ele>618.508</ele>
        <time>2020-07-26T06:15:49Z</time>
      </trkpt>
      <trkpt lat="41.840903" lon="2.585638">
        <ele>618.559</ele>
        <time>2020-07-26T06:15:50Z</time>
      </trkpt>
      <trkpt lat="41.840892" lon="2.585597">
        <ele>618.597</ele>
        <time>2020-07-26T06:15:51Z</time>
      </trkpt>
      <trkpt lat="41.840883" lon="2.585558">
        <ele>618.710</ele>
        <time>2020-07-26T06:15:52Z</time>
      </trkpt>
      <trkpt lat="41.840875" lon="2.585521">
        <ele>618.925</ele>
        <time>2020-07-26T06:15:53Z</time>
      </trkpt>
      <trkpt lat="41.840868" lon="2.585484">
        <ele>619.353</ele>
        <time>2020-07-26T06:15:54Z</time>
      </trkpt>
      <trkpt lat="41.840860" lon="2.585448">
        <ele>619.436</ele>
        <time>2020-07-26T06:15:55Z</time>
      </trkpt>
      <trkpt lat="41.840849" lon="2.585413">
        <ele>619.740</ele>
        <time>2020-07-26T06:15:56Z</time>
      </trkpt>
      <trkpt lat="41.840838" lon="2.585377">
        <ele>619.996</ele>
        <time>2020-07-26T06:15:57Z</time>
      </trkpt>
      <trkpt lat="41.840832" lon="2.585344">
        <ele>620.141</ele>
        <time>2020-07-26T06:15:58Z</time>
      </trkpt>
      <trkpt lat="41.840822" lon="2.585307">
        <ele>620.381</ele>
        <time>2020-07-26T06:15:59Z</time>
      </trkpt>
      <trkpt lat="41.840811" lon="2.585269">
        <ele>620.509</ele>
        <time>2020-07-26T06:16:00Z</time>
      </trkpt>
      <trkpt lat="41.840798" lon="2.585232">
        <ele>620.508</ele>
        <time>2020-07-26T06:16:01Z</time>
      </trkpt>
      <trkpt lat="41.840785" lon="2.585194">
        <ele>620.799</ele>
        <time>2020-07-26T06:16:02Z</time>
      </trkpt>
      <trkpt lat="41.840774" lon="2.585158">
        <ele>620.987</ele>
        <time>2020-07-26T06:16:03Z</time>
      </trkpt>
      <trkpt lat="41.840764" lon="2.585122">
        <ele>621.150</ele>
        <time>2020-07-26T06:16:04Z</time>
      </trkpt>
      <trkpt lat="41.840754" lon="2.585082">
        <ele>621.245</ele>
        <time>2020-07-26T06:16:05Z</time>
      </trkpt>
      <trkpt lat="41.840744" lon="2.585046">
        <ele>621.363</ele>
        <time>2020-07-26T06:16:06Z</time>
      </trkpt>
      <trkpt lat="41.840739" lon="2.585009">
        <ele>621.596</ele>
        <time>2020-07-26T06:16:07Z</time>
      </trkpt>
      <trkpt lat="41.840723" lon="2.584940">
        <ele>621.730</ele>
        <time>2020-07-26T06:16:09Z</time>
      </trkpt>
      <trkpt lat="41.840704" lon="2.584866">
        <ele>622.116</ele>
        <time>2020-07-26T06:16:11Z</time>
      </trkpt>
      <trkpt lat="41.840695" lon="2.584828">
        <ele>622.228</ele>
        <time>2020-07-26T06:16:12Z</time>
      </trkpt>
      <trkpt lat="41.840686" lon="2.584790">
        <ele>622.289</ele>
        <time>2020-07-26T06:16:13Z</time>
      </trkpt>
      <trkpt lat="41.840653" lon="2.584678">
        <ele>622.917</ele>
        <time>2020-07-26T06:16:16Z</time>
      </trkpt>
      <trkpt lat="41.840614" lon="2.584567">
        <ele>623.308</ele>
        <time>2020-07-26T06:16:19Z</time>
      </trkpt>
      <trkpt lat="41.840579" lon="2.584444">
        <ele>623.767</ele>
        <time>2020-07-26T06:16:22Z</time>
      </trkpt>
      <trkpt lat="41.840568" lon="2.584404">
        <ele>624.565</ele>
        <time>2020-07-26T06:16:23Z</time>
      </trkpt>
      <trkpt lat="41.840556" lon="2.584365">
        <ele>624.548</ele>
        <time>2020-07-26T06:16:24Z</time>
      </trkpt>
      <trkpt lat="41.840545" lon="2.584324">
        <ele>624.473</ele>
        <time>2020-07-26T06:16:25Z</time>
      </trkpt>
      <trkpt lat="41.840536" lon="2.584283">
        <ele>624.261</ele>
        <time>2020-07-26T06:16:26Z</time>
      </trkpt>
      <trkpt lat="41.840526" lon="2.584242">
        <ele>624.374</ele>
        <time>2020-07-26T06:16:27Z</time>
      </trkpt>
      <trkpt lat="41.840517" lon="2.584200">
        <ele>624.568</ele>
        <time>2020-07-26T06:16:28Z</time>
      </trkpt>
      <trkpt lat="41.840508" lon="2.584115">
        <ele>624.414</ele>
        <time>2020-07-26T06:16:30Z</time>
      </trkpt>
      <trkpt lat="41.840503" lon="2.584071">
        <ele>624.558</ele>
        <time>2020-07-26T06:16:31Z</time>
      </trkpt>
      <trkpt lat="41.840502" lon="2.584026">
        <ele>624.752</ele>
        <time>2020-07-26T06:16:32Z</time>
      </trkpt>
      <trkpt lat="41.840500" lon="2.583981">
        <ele>624.917</ele>
        <time>2020-07-26T06:16:33Z</time>
      </trkpt>
      <trkpt lat="41.840501" lon="2.583938">
        <ele>625.108</ele>
        <time>2020-07-26T06:16:34Z</time>
      </trkpt>
      <trkpt lat="41.840501" lon="2.583896">
        <ele>625.290</ele>
        <time>2020-07-26T06:16:35Z</time>
      </trkpt>
      <trkpt lat="41.840505" lon="2.583855">
        <ele>625.378</ele>
        <time>2020-07-26T06:16:36Z</time>
      </trkpt>
      <trkpt lat="41.840510" lon="2.583734">
        <ele>625.731</ele>
        <time>2020-07-26T06:16:39Z</time>
      </trkpt>
      <trkpt lat="41.840510" lon="2.583693">
        <ele>625.966</ele>
        <time>2020-07-26T06:16:40Z</time>
      </trkpt>
      <trkpt lat="41.840502" lon="2.583650">
        <ele>626.064</ele>
        <time>2020-07-26T06:16:41Z</time>
      </trkpt>
      <trkpt lat="41.840500" lon="2.583608">
        <ele>626.097</ele>
        <time>2020-07-26T06:16:42Z</time>
      </trkpt>
      <trkpt lat="41.840493" lon="2.583523">
        <ele>626.311</ele>
        <time>2020-07-26T06:16:44Z</time>
      </trkpt>
      <trkpt lat="41.840474" lon="2.583431">
        <ele>626.537</ele>
        <time>2020-07-26T06:16:46Z</time>
      </trkpt>
      <trkpt lat="41.840453" lon="2.583391">
        <ele>626.511</ele>
        <time>2020-07-26T06:16:47Z</time>
      </trkpt>
      <trkpt lat="41.840415" lon="2.583316">
        <ele>626.721</ele>
        <time>2020-07-26T06:16:49Z</time>
      </trkpt>
      <trkpt lat="41.840392" lon="2.583280">
        <ele>626.903</ele>
        <time>2020-07-26T06:16:50Z</time>
      </trkpt>
      <trkpt lat="41.840372" lon="2.583245">
        <ele>627.108</ele>
        <time>2020-07-26T06:16:51Z</time>
      </trkpt>
      <trkpt lat="41.840350" lon="2.583213">
        <ele>627.396</ele>
        <time>2020-07-26T06:16:52Z</time>
      </trkpt>
      <trkpt lat="41.840328" lon="2.583182">
        <ele>627.544</ele>
        <time>2020-07-26T06:16:53Z</time>
      </trkpt>
      <trkpt lat="41.840310" lon="2.583150">
        <ele>627.587</ele>
        <time>2020-07-26T06:16:54Z</time>
      </trkpt>
      <trkpt lat="41.840295" lon="2.583115">
        <ele>627.732</ele>
        <time>2020-07-26T06:16:55Z</time>
      </trkpt>
      <trkpt lat="41.840281" lon="2.583079">
        <ele>627.720</ele>
        <time>2020-07-26T06:16:56Z</time>
      </trkpt>
      <trkpt lat="41.840270" lon="2.583040">
        <ele>627.973</ele>
        <time>2020-07-26T06:16:57Z</time>
      </trkpt>
      <trkpt lat="41.840256" lon="2.583002">
        <ele>628.177</ele>
        <time>2020-07-26T06:16:58Z</time>
      </trkpt>
      <trkpt lat="41.840243" lon="2.582963">
        <ele>628.583</ele>
        <time>2020-07-26T06:16:59Z</time>
      </trkpt>
      <trkpt lat="41.840230" lon="2.582920">
        <ele>628.954</ele>
        <time>2020-07-26T06:17:00Z</time>
      </trkpt>
      <trkpt lat="41.840221" lon="2.582880">
        <ele>628.856</ele>
        <time>2020-07-26T06:17:01Z</time>
      </trkpt>
      <trkpt lat="41.840211" lon="2.582842">
        <ele>629.111</ele>
        <time>2020-07-26T06:17:02Z</time>
      </trkpt>
      <trkpt lat="41.840197" lon="2.582809">
        <ele>629.308</ele>
        <time>2020-07-26T06:17:03Z</time>
      </trkpt>
      <trkpt lat="41.840183" lon="2.582775">
        <ele>629.530</ele>
        <time>2020-07-26T06:17:04Z</time>
      </trkpt>
      <trkpt lat="41.840168" lon="2.582743">
        <ele>629.718</ele>
        <time>2020-07-26T06:17:05Z</time>
      </trkpt>
      <trkpt lat="41.840151" lon="2.582715">
        <ele>629.931</ele>
        <time>2020-07-26T06:17:06Z</time>
      </trkpt>
      <trkpt lat="41.840132" lon="2.582686">
        <ele>630.116</ele>
        <time>2020-07-26T06:17:07Z</time>
      </trkpt>
      <trkpt lat="41.840112" lon="2.582656">
        <ele>630.374</ele>
        <time>2020-07-26T06:17:08Z</time>
      </trkpt>
      <trkpt lat="41.840092" lon="2.582625">
        <ele>630.567</ele>
        <time>2020-07-26T06:17:09Z</time>
      </trkpt>
      <trkpt lat="41.840048" lon="2.582566">
        <ele>630.741</ele>
        <time>2020-07-26T06:17:11Z</time>
      </trkpt>
      <trkpt lat="41.840028" lon="2.582538">
        <ele>630.987</ele>
        <time>2020-07-26T06:17:12Z</time>
      </trkpt>
      <trkpt lat="41.839960" lon="2.582452">
        <ele>631.271</ele>
        <time>2020-07-26T06:17:15Z</time>
      </trkpt>
      <trkpt lat="41.839928" lon="2.582396">
        <ele>632.041</ele>
        <time>2020-07-26T06:17:17Z</time>
      </trkpt>
      <trkpt lat="41.839875" lon="2.582275">
        <ele>632.515</ele>
        <time>2020-07-26T06:17:21Z</time>
      </trkpt>
      <trkpt lat="41.839858" lon="2.582151">
        <ele>632.708</ele>
        <time>2020-07-26T06:17:24Z</time>
      </trkpt>
      <trkpt lat="41.839841" lon="2.582032">
        <ele>633.142</ele>
        <time>2020-07-26T06:17:27Z</time>
      </trkpt>
      <trkpt lat="41.839822" lon="2.581885">
        <ele>634.120</ele>
        <time>2020-07-26T06:17:31Z</time>
      </trkpt>
      <trkpt lat="41.839794" lon="2.581728">
        <ele>634.793</ele>
        <time>2020-07-26T06:17:35Z</time>
      </trkpt>
      <trkpt lat="41.839762" lon="2.581605">
        <ele>635.188</ele>
        <time>2020-07-26T06:17:38Z</time>
      </trkpt>
      <trkpt lat="41.839731" lon="2.581491">
        <ele>635.546</ele>
        <time>2020-07-26T06:17:41Z</time>
      </trkpt>
      <trkpt lat="41.839699" lon="2.581368">
        <ele>635.799</ele>
        <time>2020-07-26T06:17:44Z</time>
      </trkpt>
      <trkpt lat="41.839660" lon="2.581258">
        <ele>636.593</ele>
        <time>2020-07-26T06:17:47Z</time>
      </trkpt>
      <trkpt lat="41.839621" lon="2.581109">
        <ele>637.599</ele>
        <time>2020-07-26T06:17:51Z</time>
      </trkpt>
      <trkpt lat="41.839578" lon="2.580976">
        <ele>638.563</ele>
        <time>2020-07-26T06:17:55Z</time>
      </trkpt>
      <trkpt lat="41.839554" lon="2.580857">
        <ele>639.544</ele>
        <time>2020-07-26T06:18:00Z</time>
      </trkpt>
      <trkpt lat="41.839529" lon="2.580712">
        <ele>640.518</ele>
        <time>2020-07-26T06:18:04Z</time>
      </trkpt>
      <trkpt lat="41.839513" lon="2.580585">
        <ele>641.308</ele>
        <time>2020-07-26T06:18:08Z</time>
      </trkpt>
      <trkpt lat="41.839504" lon="2.580459">
        <ele>641.981</ele>
        <time>2020-07-26T06:18:11Z</time>
      </trkpt>
      <trkpt lat="41.839467" lon="2.580311">
        <ele>642.559</ele>
        <time>2020-07-26T06:18:15Z</time>
      </trkpt>
      <trkpt lat="41.839398" lon="2.580163">
        <ele>642.992</ele>
        <time>2020-07-26T06:18:18Z</time>
      </trkpt>
      <trkpt lat="41.839334" lon="2.580021">
        <ele>643.477</ele>
        <time>2020-07-26T06:18:21Z</time>
      </trkpt>
      <trkpt lat="41.839263" lon="2.579907">
        <ele>643.785</ele>
        <time>2020-07-26T06:18:24Z</time>
      </trkpt>
      <trkpt lat="41.839242" lon="2.579871">
        <ele>643.758</ele>
        <time>2020-07-26T06:18:25Z</time>
      </trkpt>
      <trkpt lat="41.839218" lon="2.579839">
        <ele>643.922</ele>
        <time>2020-07-26T06:18:26Z</time>
      </trkpt>
      <trkpt lat="41.839196" lon="2.579810">
        <ele>644.018</ele>
        <time>2020-07-26T06:18:27Z</time>
      </trkpt>
      <trkpt lat="41.839171" lon="2.579784">
        <ele>644.383</ele>
        <time>2020-07-26T06:18:28Z</time>
      </trkpt>
      <trkpt lat="41.839145" lon="2.579764">
        <ele>644.525</ele>
        <time>2020-07-26T06:18:29Z</time>
      </trkpt>
      <trkpt lat="41.839122" lon="2.579744">
        <ele>644.517</ele>
        <time>2020-07-26T06:18:30Z</time>
      </trkpt>
      <trkpt lat="41.839102" lon="2.579721">
        <ele>644.708</ele>
        <time>2020-07-26T06:18:31Z</time>
      </trkpt>
      <trkpt lat="41.839023" lon="2.579614">
        <ele>645.583</ele>
        <time>2020-07-26T06:18:35Z</time>
      </trkpt>
      <trkpt lat="41.838999" lon="2.579479">
        <ele>646.511</ele>
        <time>2020-07-26T06:18:39Z</time>
      </trkpt>
      <trkpt lat="41.838990" lon="2.579340">
        <ele>647.234</ele>
        <time>2020-07-26T06:18:43Z</time>
      </trkpt>
      <trkpt lat="41.838989" lon="2.579283">
        <ele>647.089</ele>
        <time>2020-07-26T06:18:47Z</time>
      </trkpt>
      <trkpt lat="41.838968" lon="2.579274">
        <ele>646.617</ele>
        <time>2020-07-26T06:18:52Z</time>
      </trkpt>
      <trkpt lat="41.838943" lon="2.579270">
        <ele>645.780</ele>
        <time>2020-07-26T06:19:02Z</time>
      </trkpt>
      <trkpt lat="41.838934" lon="2.579303">
        <ele>644.814</ele>
        <time>2020-07-26T06:19:09Z</time>
      </trkpt>
      <trkpt lat="41.838913" lon="2.579296">
        <ele>643.060</ele>
        <time>2020-07-26T06:19:27Z</time>
      </trkpt>
      <trkpt lat="41.838905" lon="2.579325">
        <ele>641.429</ele>
        <time>2020-07-26T06:19:42Z</time>
      </trkpt>
      <trkpt lat="41.838925" lon="2.579325">
        <ele>639.400</ele>
        <time>2020-07-26T06:20:27Z</time>
      </trkpt>
      <trkpt lat="41.838910" lon="2.579345">
        <ele>639.420</ele>
        <time>2020-07-26T06:20:35Z</time>
      </trkpt>
      <trkpt lat="41.838892" lon="2.579357">
        <ele>639.408</ele>
        <time>2020-07-26T06:20:38Z</time>
      </trkpt>
      <trkpt lat="41.838884" lon="2.579379">
        <ele>639.457</ele>
        <time>2020-07-26T06:20:40Z</time>
      </trkpt>
      <trkpt lat="41.838868" lon="2.579407">
        <ele>639.085</ele>
        <time>2020-07-26T06:20:42Z</time>
      </trkpt>
      <trkpt lat="41.838845" lon="2.579424">
        <ele>639.188</ele>
        <time>2020-07-26T06:20:44Z</time>
      </trkpt>
      <trkpt lat="41.838774" lon="2.579435">
        <ele>639.393</ele>
        <time>2020-07-26T06:20:47Z</time>
      </trkpt>
      <trkpt lat="41.838745" lon="2.579431">
        <ele>639.281</ele>
        <time>2020-07-26T06:20:48Z</time>
      </trkpt>
      <trkpt lat="41.838720" lon="2.579428">
        <ele>639.294</ele>
        <time>2020-07-26T06:20:49Z</time>
      </trkpt>
      <trkpt lat="41.838700" lon="2.579426">
        <ele>639.318</ele>
        <time>2020-07-26T06:20:50Z</time>
      </trkpt>
      <trkpt lat="41.838678" lon="2.579422">
        <ele>639.474</ele>
        <time>2020-07-26T06:20:51Z</time>
      </trkpt>
      <trkpt lat="41.838655" lon="2.579420">
        <ele>639.571</ele>
        <time>2020-07-26T06:20:52Z</time>
      </trkpt>
      <trkpt lat="41.838630" lon="2.579422">
        <ele>639.541</ele>
        <time>2020-07-26T06:20:53Z</time>
      </trkpt>
      <trkpt lat="41.838588" lon="2.579435">
        <ele>639.715</ele>
        <time>2020-07-26T06:20:55Z</time>
      </trkpt>
      <trkpt lat="41.838501" lon="2.579489">
        <ele>641.908</ele>
        <time>2020-07-26T06:21:00Z</time>
      </trkpt>
      <trkpt lat="41.838420" lon="2.579576">
        <ele>644.552</ele>
        <time>2020-07-26T06:21:05Z</time>
      </trkpt>
      <trkpt lat="41.838352" lon="2.579655">
        <ele>644.970</ele>
        <time>2020-07-26T06:21:08Z</time>
      </trkpt>
      <trkpt lat="41.838311" lon="2.579785">
        <ele>646.523</ele>
        <time>2020-07-26T06:21:12Z</time>
      </trkpt>
      <trkpt lat="41.838259" lon="2.579926">
        <ele>647.448</ele>
        <time>2020-07-26T06:21:16Z</time>
      </trkpt>
      <trkpt lat="41.838202" lon="2.580023">
        <ele>648.376</ele>
        <time>2020-07-26T06:21:19Z</time>
      </trkpt>
      <trkpt lat="41.838165" lon="2.580040">
        <ele>648.599</ele>
        <time>2020-07-26T06:21:20Z</time>
      </trkpt>
      <trkpt lat="41.838132" lon="2.580055">
        <ele>648.743</ele>
        <time>2020-07-26T06:21:21Z</time>
      </trkpt>
      <trkpt lat="41.838102" lon="2.580058">
        <ele>649.199</ele>
        <time>2020-07-26T06:21:22Z</time>
      </trkpt>
      <trkpt lat="41.838074" lon="2.580052">
        <ele>649.365</ele>
        <time>2020-07-26T06:21:23Z</time>
      </trkpt>
      <trkpt lat="41.838045" lon="2.580038">
        <ele>649.568</ele>
        <time>2020-07-26T06:21:24Z</time>
      </trkpt>
      <trkpt lat="41.838019" lon="2.580016">
        <ele>649.714</ele>
        <time>2020-07-26T06:21:25Z</time>
      </trkpt>
      <trkpt lat="41.837994" lon="2.579992">
        <ele>650.108</ele>
        <time>2020-07-26T06:21:26Z</time>
      </trkpt>
      <trkpt lat="41.837970" lon="2.579968">
        <ele>650.381</ele>
        <time>2020-07-26T06:21:27Z</time>
      </trkpt>
      <trkpt lat="41.837946" lon="2.579946">
        <ele>650.519</ele>
        <time>2020-07-26T06:21:28Z</time>
      </trkpt>
      <trkpt lat="41.837920" lon="2.579925">
        <ele>650.742</ele>
        <time>2020-07-26T06:21:29Z</time>
      </trkpt>
      <trkpt lat="41.837899" lon="2.579907">
        <ele>651.147</ele>
        <time>2020-07-26T06:21:30Z</time>
      </trkpt>
      <trkpt lat="41.837875" lon="2.579890">
        <ele>651.375</ele>
        <time>2020-07-26T06:21:31Z</time>
      </trkpt>
      <trkpt lat="41.837855" lon="2.579871">
        <ele>651.528</ele>
        <time>2020-07-26T06:21:32Z</time>
      </trkpt>
      <trkpt lat="41.837830" lon="2.579852">
        <ele>651.792</ele>
        <time>2020-07-26T06:21:33Z</time>
      </trkpt>
      <trkpt lat="41.837771" lon="2.579790">
        <ele>652.198</ele>
        <time>2020-07-26T06:21:36Z</time>
      </trkpt>
      <trkpt lat="41.837746" lon="2.579769">
        <ele>652.349</ele>
        <time>2020-07-26T06:21:37Z</time>
      </trkpt>
      <trkpt lat="41.837720" lon="2.579744">
        <ele>652.402</ele>
        <time>2020-07-26T06:21:38Z</time>
      </trkpt>
      <trkpt lat="41.837697" lon="2.579724">
        <ele>652.422</ele>
        <time>2020-07-26T06:21:39Z</time>
      </trkpt>
      <trkpt lat="41.837608" lon="2.579658">
        <ele>651.808</ele>
        <time>2020-07-26T06:21:43Z</time>
      </trkpt>
      <trkpt lat="41.837509" lon="2.579608">
        <ele>650.469</ele>
        <time>2020-07-26T06:21:47Z</time>
      </trkpt>
      <trkpt lat="41.837472" lon="2.579482">
        <ele>649.077</ele>
        <time>2020-07-26T06:21:52Z</time>
      </trkpt>
      <trkpt lat="41.837496" lon="2.579325">
        <ele>648.490</ele>
        <time>2020-07-26T06:21:55Z</time>
      </trkpt>
      <trkpt lat="41.837482" lon="2.579171">
        <ele>647.015</ele>
        <time>2020-07-26T06:21:59Z</time>
      </trkpt>
      <trkpt lat="41.837439" lon="2.579054">
        <ele>645.843</ele>
        <time>2020-07-26T06:22:02Z</time>
      </trkpt>
      <trkpt lat="41.837407" lon="2.578902">
        <ele>644.856</ele>
        <time>2020-07-26T06:22:05Z</time>
      </trkpt>
      <trkpt lat="41.837346" lon="2.578726">
        <ele>643.490</ele>
        <time>2020-07-26T06:22:08Z</time>
      </trkpt>
      <trkpt lat="41.837295" lon="2.578616">
        <ele>642.816</ele>
        <time>2020-07-26T06:22:10Z</time>
      </trkpt>
      <trkpt lat="41.837234" lon="2.578460">
        <ele>641.423</ele>
        <time>2020-07-26T06:22:13Z</time>
      </trkpt>
      <trkpt lat="41.837186" lon="2.578334">
        <ele>640.483</ele>
        <time>2020-07-26T06:22:15Z</time>
      </trkpt>
      <trkpt lat="41.837178" lon="2.578189">
        <ele>639.611</ele>
        <time>2020-07-26T06:22:17Z</time>
      </trkpt>
      <trkpt lat="41.837196" lon="2.578035">
        <ele>639.208</ele>
        <time>2020-07-26T06:22:19Z</time>
      </trkpt>
      <trkpt lat="41.837267" lon="2.577893">
        <ele>638.047</ele>
        <time>2020-07-26T06:22:22Z</time>
      </trkpt>
      <trkpt lat="41.837357" lon="2.577811">
        <ele>636.835</ele>
        <time>2020-07-26T06:22:25Z</time>
      </trkpt>
      <trkpt lat="41.837465" lon="2.577751">
        <ele>636.038</ele>
        <time>2020-07-26T06:22:28Z</time>
      </trkpt>
      <trkpt lat="41.837462" lon="2.577620">
        <ele>634.623</ele>
        <time>2020-07-26T06:22:32Z</time>
      </trkpt>
      <trkpt lat="41.837371" lon="2.577556">
        <ele>634.671</ele>
        <time>2020-07-26T06:22:34Z</time>
      </trkpt>
      <trkpt lat="41.837308" lon="2.577522">
        <ele>634.264</ele>
        <time>2020-07-26T06:22:36Z</time>
      </trkpt>
      <trkpt lat="41.837276" lon="2.577508">
        <ele>634.288</ele>
        <time>2020-07-26T06:22:37Z</time>
      </trkpt>
      <trkpt lat="41.837249" lon="2.577502">
        <ele>634.064</ele>
        <time>2020-07-26T06:22:38Z</time>
      </trkpt>
      <trkpt lat="41.837153" lon="2.577520">
        <ele>633.422</ele>
        <time>2020-07-26T06:22:42Z</time>
      </trkpt>
      <trkpt lat="41.837064" lon="2.577592">
        <ele>632.562</ele>
        <time>2020-07-26T06:22:46Z</time>
      </trkpt>
      <trkpt lat="41.836968" lon="2.577693">
        <ele>631.608</ele>
        <time>2020-07-26T06:22:50Z</time>
      </trkpt>
      <trkpt lat="41.836893" lon="2.577779">
        <ele>630.508</ele>
        <time>2020-07-26T06:22:53Z</time>
      </trkpt>
      <trkpt lat="41.836814" lon="2.577915">
        <ele>629.267</ele>
        <time>2020-07-26T06:22:56Z</time>
      </trkpt>
      <trkpt lat="41.836742" lon="2.578047">
        <ele>628.745</ele>
        <time>2020-07-26T06:22:59Z</time>
      </trkpt>
      <trkpt lat="41.836699" lon="2.578170">
        <ele>628.248</ele>
        <time>2020-07-26T06:23:02Z</time>
      </trkpt>
      <trkpt lat="41.836710" lon="2.578018">
        <ele>627.513</ele>
        <time>2020-07-26T06:23:17Z</time>
      </trkpt>
      <trkpt lat="41.836732" lon="2.577877">
        <ele>627.011</ele>
        <time>2020-07-26T06:23:21Z</time>
      </trkpt>
      <trkpt lat="41.836772" lon="2.577751">
        <ele>626.614</ele>
        <time>2020-07-26T06:23:24Z</time>
      </trkpt>
      <trkpt lat="41.836815" lon="2.577613">
        <ele>626.488</ele>
        <time>2020-07-26T06:23:27Z</time>
      </trkpt>
      <trkpt lat="41.836868" lon="2.577484">
        <ele>625.224</ele>
        <time>2020-07-26T06:23:30Z</time>
      </trkpt>
      <trkpt lat="41.836942" lon="2.577354">
        <ele>624.261</ele>
        <time>2020-07-26T06:23:33Z</time>
      </trkpt>
      <trkpt lat="41.836998" lon="2.577228">
        <ele>623.221</ele>
        <time>2020-07-26T06:23:36Z</time>
      </trkpt>
      <trkpt lat="41.837060" lon="2.577097">
        <ele>622.413</ele>
        <time>2020-07-26T06:23:39Z</time>
      </trkpt>
      <trkpt lat="41.837133" lon="2.576960">
        <ele>621.408</ele>
        <time>2020-07-26T06:23:42Z</time>
      </trkpt>
      <trkpt lat="41.837160" lon="2.576805">
        <ele>620.631</ele>
        <time>2020-07-26T06:23:47Z</time>
      </trkpt>
      <trkpt lat="41.837174" lon="2.576662">
        <ele>619.279</ele>
        <time>2020-07-26T06:23:50Z</time>
      </trkpt>
      <trkpt lat="41.837149" lon="2.576546">
        <ele>618.752</ele>
        <time>2020-07-26T06:23:53Z</time>
      </trkpt>
      <trkpt lat="41.837058" lon="2.576524">
        <ele>617.927</ele>
        <time>2020-07-26T06:23:59Z</time>
      </trkpt>
      <trkpt lat="41.836952" lon="2.576607">
        <ele>617.285</ele>
        <time>2020-07-26T06:24:05Z</time>
      </trkpt>
      <trkpt lat="41.836876" lon="2.576672">
        <ele>616.658</ele>
        <time>2020-07-26T06:24:08Z</time>
      </trkpt>
      <trkpt lat="41.836770" lon="2.576750">
        <ele>615.412</ele>
        <time>2020-07-26T06:24:12Z</time>
      </trkpt>
      <trkpt lat="41.836659" lon="2.576803">
        <ele>614.838</ele>
        <time>2020-07-26T06:24:15Z</time>
      </trkpt>
      <trkpt lat="41.836533" lon="2.576893">
        <ele>613.638</ele>
        <time>2020-07-26T06:24:18Z</time>
      </trkpt>
      <trkpt lat="41.836416" lon="2.576957">
        <ele>613.270</ele>
        <time>2020-07-26T06:24:20Z</time>
      </trkpt>
      <trkpt lat="41.836297" lon="2.577033">
        <ele>612.617</ele>
        <time>2020-07-26T06:24:22Z</time>
      </trkpt>
      <trkpt lat="41.836153" lon="2.577129">
        <ele>612.408</ele>
        <time>2020-07-26T06:24:24Z</time>
      </trkpt>
      <trkpt lat="41.836001" lon="2.577221">
        <ele>611.898</ele>
        <time>2020-07-26T06:24:26Z</time>
      </trkpt>
      <trkpt lat="41.835855" lon="2.577273">
        <ele>611.166</ele>
        <time>2020-07-26T06:24:28Z</time>
      </trkpt>
      <trkpt lat="41.835738" lon="2.577286">
        <ele>610.889</ele>
        <time>2020-07-26T06:24:30Z</time>
      </trkpt>
      <trkpt lat="41.835629" lon="2.577290">
        <ele>610.284</ele>
        <time>2020-07-26T06:24:32Z</time>
      </trkpt>
      <trkpt lat="41.835510" lon="2.577305">
        <ele>609.632</ele>
        <time>2020-07-26T06:24:35Z</time>
      </trkpt>
      <trkpt lat="41.835428" lon="2.577357">
        <ele>609.025</ele>
        <time>2020-07-26T06:24:38Z</time>
      </trkpt>
      <trkpt lat="41.835348" lon="2.577444">
        <ele>608.089</ele>
        <time>2020-07-26T06:24:42Z</time>
      </trkpt>
      <trkpt lat="41.835251" lon="2.577466">
        <ele>607.295</ele>
        <time>2020-07-26T06:24:45Z</time>
      </trkpt>
      <trkpt lat="41.835121" lon="2.577435">
        <ele>606.478</ele>
        <time>2020-07-26T06:24:48Z</time>
      </trkpt>
      <trkpt lat="41.835028" lon="2.577413">
        <ele>606.233</ele>
        <time>2020-07-26T06:24:50Z</time>
      </trkpt>
      <trkpt lat="41.834931" lon="2.577398">
        <ele>605.626</ele>
        <time>2020-07-26T06:24:52Z</time>
      </trkpt>
      <trkpt lat="41.834835" lon="2.577388">
        <ele>604.608</ele>
        <time>2020-07-26T06:24:54Z</time>
      </trkpt>
      <trkpt lat="41.834736" lon="2.577391">
        <ele>603.832</ele>
        <time>2020-07-26T06:24:56Z</time>
      </trkpt>
      <trkpt lat="41.834623" lon="2.577395">
        <ele>603.450</ele>
        <time>2020-07-26T06:24:58Z</time>
      </trkpt>
      <trkpt lat="41.834515" lon="2.577399">
        <ele>602.913</ele>
        <time>2020-07-26T06:25:00Z</time>
      </trkpt>
      <trkpt lat="41.834415" lon="2.577428">
        <ele>602.458</ele>
        <time>2020-07-26T06:25:02Z</time>
      </trkpt>
      <trkpt lat="41.834315" lon="2.577514">
        <ele>602.026</ele>
        <time>2020-07-26T06:25:04Z</time>
      </trkpt>
      <trkpt lat="41.834204" lon="2.577579">
        <ele>601.719</ele>
        <time>2020-07-26T06:25:06Z</time>
      </trkpt>
      <trkpt lat="41.834117" lon="2.577690">
        <ele>601.253</ele>
        <time>2020-07-26T06:25:08Z</time>
      </trkpt>
      <trkpt lat="41.834021" lon="2.577793">
        <ele>600.499</ele>
        <time>2020-07-26T06:25:10Z</time>
      </trkpt>
      <trkpt lat="41.833927" lon="2.577863">
        <ele>600.259</ele>
        <time>2020-07-26T06:25:12Z</time>
      </trkpt>
      <trkpt lat="41.833826" lon="2.577881">
        <ele>599.403</ele>
        <time>2020-07-26T06:25:14Z</time>
      </trkpt>
      <trkpt lat="41.833728" lon="2.577867">
        <ele>599.223</ele>
        <time>2020-07-26T06:25:16Z</time>
      </trkpt>
      <trkpt lat="41.833629" lon="2.577836">
        <ele>598.408</ele>
        <time>2020-07-26T06:25:18Z</time>
      </trkpt>
      <trkpt lat="41.833514" lon="2.577779">
        <ele>597.660</ele>
        <time>2020-07-26T06:25:20Z</time>
      </trkpt>
      <trkpt lat="41.833408" lon="2.577776">
        <ele>596.818</ele>
        <time>2020-07-26T06:25:22Z</time>
      </trkpt>
      <trkpt lat="41.833302" lon="2.577810">
        <ele>596.061</ele>
        <time>2020-07-26T06:25:24Z</time>
      </trkpt>
      <trkpt lat="41.833194" lon="2.577881">
        <ele>595.686</ele>
        <time>2020-07-26T06:25:26Z</time>
      </trkpt>
      <trkpt lat="41.833099" lon="2.577981">
        <ele>594.864</ele>
        <time>2020-07-26T06:25:28Z</time>
      </trkpt>
      <trkpt lat="41.833002" lon="2.578100">
        <ele>594.217</ele>
        <time>2020-07-26T06:25:30Z</time>
      </trkpt>
      <trkpt lat="41.832915" lon="2.578217">
        <ele>592.841</ele>
        <time>2020-07-26T06:25:32Z</time>
      </trkpt>
      <trkpt lat="41.832844" lon="2.578343">
        <ele>592.247</ele>
        <time>2020-07-26T06:25:34Z</time>
      </trkpt>
      <trkpt lat="41.832776" lon="2.578437">
        <ele>591.558</ele>
        <time>2020-07-26T06:25:36Z</time>
      </trkpt>
      <trkpt lat="41.832694" lon="2.578509">
        <ele>591.452</ele>
        <time>2020-07-26T06:25:38Z</time>
      </trkpt>
      <trkpt lat="41.832572" lon="2.578531">
        <ele>590.817</ele>
        <time>2020-07-26T06:25:41Z</time>
      </trkpt>
      <trkpt lat="41.832458" lon="2.578438">
        <ele>590.008</ele>
        <time>2020-07-26T06:25:44Z</time>
      </trkpt>
      <trkpt lat="41.832381" lon="2.578352">
        <ele>589.420</ele>
        <time>2020-07-26T06:25:46Z</time>
      </trkpt>
      <trkpt lat="41.832346" lon="2.578225">
        <ele>588.898</ele>
        <time>2020-07-26T06:25:48Z</time>
      </trkpt>
      <trkpt lat="41.832367" lon="2.578044">
        <ele>588.521</ele>
        <time>2020-07-26T06:25:50Z</time>
      </trkpt>
      <trkpt lat="41.832386" lon="2.577907">
        <ele>587.616</ele>
        <time>2020-07-26T06:25:53Z</time>
      </trkpt>
      <trkpt lat="41.832371" lon="2.577742">
        <ele>585.634</ele>
        <time>2020-07-26T06:25:56Z</time>
      </trkpt>
      <trkpt lat="41.832343" lon="2.577617">
        <ele>584.837</ele>
        <time>2020-07-26T06:25:58Z</time>
      </trkpt>
      <trkpt lat="41.832275" lon="2.577511">
        <ele>584.271</ele>
        <time>2020-07-26T06:26:00Z</time>
      </trkpt>
      <trkpt lat="41.832205" lon="2.577430">
        <ele>583.657</ele>
        <time>2020-07-26T06:26:02Z</time>
      </trkpt>
      <trkpt lat="41.832116" lon="2.577313">
        <ele>582.884</ele>
        <time>2020-07-26T06:26:05Z</time>
      </trkpt>
      <trkpt lat="41.832073" lon="2.577200">
        <ele>582.207</ele>
        <time>2020-07-26T06:26:07Z</time>
      </trkpt>
      <trkpt lat="41.832018" lon="2.577059">
        <ele>581.617</ele>
        <time>2020-07-26T06:26:09Z</time>
      </trkpt>
      <trkpt lat="41.831954" lon="2.576915">
        <ele>580.608</ele>
        <time>2020-07-26T06:26:11Z</time>
      </trkpt>
      <trkpt lat="41.831880" lon="2.576781">
        <ele>579.453</ele>
        <time>2020-07-26T06:26:13Z</time>
      </trkpt>
      <trkpt lat="41.831804" lon="2.576665">
        <ele>578.411</ele>
        <time>2020-07-26T06:26:15Z</time>
      </trkpt>
      <trkpt lat="41.831707" lon="2.576533">
        <ele>578.244</ele>
        <time>2020-07-26T06:26:17Z</time>
      </trkpt>
      <trkpt lat="41.831634" lon="2.576404">
        <ele>578.029</ele>
        <time>2020-07-26T06:26:19Z</time>
      </trkpt>
      <trkpt lat="41.831592" lon="2.576228">
        <ele>577.257</ele>
        <time>2020-07-26T06:26:21Z</time>
      </trkpt>
      <trkpt lat="41.831577" lon="2.576071">
        <ele>576.460</ele>
        <time>2020-07-26T06:26:23Z</time>
      </trkpt>
      <trkpt lat="41.831556" lon="2.575916">
        <ele>575.854</ele>
        <time>2020-07-26T06:26:25Z</time>
      </trkpt>
      <trkpt lat="41.831542" lon="2.575763">
        <ele>575.250</ele>
        <time>2020-07-26T06:26:27Z</time>
      </trkpt>
      <trkpt lat="41.831491" lon="2.575625">
        <ele>574.418</ele>
        <time>2020-07-26T06:26:29Z</time>
      </trkpt>
      <trkpt lat="41.831434" lon="2.575487">
        <ele>573.698</ele>
        <time>2020-07-26T06:26:31Z</time>
      </trkpt>
      <trkpt lat="41.831406" lon="2.575367">
        <ele>572.617</ele>
        <time>2020-07-26T06:26:33Z</time>
      </trkpt>
      <trkpt lat="41.831371" lon="2.575243">
        <ele>572.008</ele>
        <time>2020-07-26T06:26:35Z</time>
      </trkpt>
      <trkpt lat="41.831310" lon="2.575121">
        <ele>571.066</ele>
        <time>2020-07-26T06:26:37Z</time>
      </trkpt>
      <trkpt lat="41.831214" lon="2.575046">
        <ele>570.434</ele>
        <time>2020-07-26T06:26:39Z</time>
      </trkpt>
      <trkpt lat="41.831099" lon="2.574983">
        <ele>569.657</ele>
        <time>2020-07-26T06:26:42Z</time>
      </trkpt>
      <trkpt lat="41.830988" lon="2.574905">
        <ele>568.642</ele>
        <time>2020-07-26T06:26:45Z</time>
      </trkpt>
      <trkpt lat="41.830921" lon="2.574820">
        <ele>567.840</ele>
        <time>2020-07-26T06:26:47Z</time>
      </trkpt>
      <trkpt lat="41.830876" lon="2.574676">
        <ele>567.263</ele>
        <time>2020-07-26T06:26:49Z</time>
      </trkpt>
      <trkpt lat="41.830818" lon="2.574534">
        <ele>566.697</ele>
        <time>2020-07-26T06:26:51Z</time>
      </trkpt>
      <trkpt lat="41.830737" lon="2.574412">
        <ele>565.823</ele>
        <time>2020-07-26T06:26:53Z</time>
      </trkpt>
      <trkpt lat="41.830656" lon="2.574298">
        <ele>565.278</ele>
        <time>2020-07-26T06:26:55Z</time>
      </trkpt>
      <trkpt lat="41.830567" lon="2.574180">
        <ele>564.533</ele>
        <time>2020-07-26T06:26:57Z</time>
      </trkpt>
      <trkpt lat="41.830471" lon="2.574062">
        <ele>564.226</ele>
        <time>2020-07-26T06:26:59Z</time>
      </trkpt>
      <trkpt lat="41.830387" lon="2.573924">
        <ele>563.508</ele>
        <time>2020-07-26T06:27:01Z</time>
      </trkpt>
      <trkpt lat="41.830297" lon="2.573793">
        <ele>562.252</ele>
        <time>2020-07-26T06:27:03Z</time>
      </trkpt>
      <trkpt lat="41.830209" lon="2.573664">
        <ele>561.450</ele>
        <time>2020-07-26T06:27:06Z</time>
      </trkpt>
      <trkpt lat="41.830129" lon="2.573571">
        <ele>560.463</ele>
        <time>2020-07-26T06:27:08Z</time>
      </trkpt>
      <trkpt lat="41.830072" lon="2.573457">
        <ele>560.058</ele>
        <time>2020-07-26T06:27:10Z</time>
      </trkpt>
      <trkpt lat="41.830043" lon="2.573322">
        <ele>558.816</ele>
        <time>2020-07-26T06:27:12Z</time>
      </trkpt>
      <trkpt lat="41.830012" lon="2.573194">
        <ele>558.059</ele>
        <time>2020-07-26T06:27:14Z</time>
      </trkpt>
      <trkpt lat="41.829981" lon="2.573070">
        <ele>557.633</ele>
        <time>2020-07-26T06:27:16Z</time>
      </trkpt>
      <trkpt lat="41.829926" lon="2.572972">
        <ele>556.699</ele>
        <time>2020-07-26T06:27:18Z</time>
      </trkpt>
      <trkpt lat="41.829802" lon="2.572897">
        <ele>555.012</ele>
        <time>2020-07-26T06:27:21Z</time>
      </trkpt>
      <trkpt lat="41.829676" lon="2.572851">
        <ele>554.232</ele>
        <time>2020-07-26T06:27:24Z</time>
      </trkpt>
      <trkpt lat="41.829586" lon="2.572800">
        <ele>553.805</ele>
        <time>2020-07-26T06:27:26Z</time>
      </trkpt>
      <trkpt lat="41.829494" lon="2.572684">
        <ele>553.508</ele>
        <time>2020-07-26T06:27:28Z</time>
      </trkpt>
      <trkpt lat="41.829408" lon="2.572520">
        <ele>552.846</ele>
        <time>2020-07-26T06:27:30Z</time>
      </trkpt>
      <trkpt lat="41.829342" lon="2.572414">
        <ele>552.524</ele>
        <time>2020-07-26T06:27:32Z</time>
      </trkpt>
      <trkpt lat="41.829261" lon="2.572308">
        <ele>552.017</ele>
        <time>2020-07-26T06:27:35Z</time>
      </trkpt>
      <trkpt lat="41.829182" lon="2.572180">
        <ele>551.412</ele>
        <time>2020-07-26T06:27:38Z</time>
      </trkpt>
      <trkpt lat="41.829119" lon="2.572066">
        <ele>550.870</ele>
        <time>2020-07-26T06:27:41Z</time>
      </trkpt>
      <trkpt lat="41.829061" lon="2.571948">
        <ele>550.713</ele>
        <time>2020-07-26T06:27:43Z</time>
      </trkpt>
      <trkpt lat="41.829007" lon="2.571829">
        <ele>550.287</ele>
        <time>2020-07-26T06:27:45Z</time>
      </trkpt>
      <trkpt lat="41.828941" lon="2.571725">
        <ele>549.623</ele>
        <time>2020-07-26T06:27:47Z</time>
      </trkpt>
      <trkpt lat="41.828850" lon="2.571604">
        <ele>548.855</ele>
        <time>2020-07-26T06:27:50Z</time>
      </trkpt>
      <trkpt lat="41.828744" lon="2.571514">
        <ele>548.207</ele>
        <time>2020-07-26T06:27:53Z</time>
      </trkpt>
      <trkpt lat="41.828654" lon="2.571456">
        <ele>548.117</ele>
        <time>2020-07-26T06:27:55Z</time>
      </trkpt>
      <trkpt lat="41.828558" lon="2.571420">
        <ele>547.608</ele>
        <time>2020-07-26T06:27:57Z</time>
      </trkpt>
      <trkpt lat="41.828440" lon="2.571394">
        <ele>547.060</ele>
        <time>2020-07-26T06:27:59Z</time>
      </trkpt>
      <trkpt lat="41.828383" lon="2.571398">
        <ele>546.648</ele>
        <time>2020-07-26T06:28:00Z</time>
      </trkpt>
      <trkpt lat="41.828331" lon="2.571404">
        <ele>546.741</ele>
        <time>2020-07-26T06:28:01Z</time>
      </trkpt>
      <trkpt lat="41.828244" lon="2.571460">
        <ele>546.556</ele>
        <time>2020-07-26T06:28:03Z</time>
      </trkpt>
      <trkpt lat="41.828140" lon="2.571547">
        <ele>546.434</ele>
        <time>2020-07-26T06:28:06Z</time>
      </trkpt>
      <trkpt lat="41.828062" lon="2.571608">
        <ele>546.077</ele>
        <time>2020-07-26T06:28:08Z</time>
      </trkpt>
      <trkpt lat="41.827975" lon="2.571679">
        <ele>546.091</ele>
        <time>2020-07-26T06:28:10Z</time>
      </trkpt>
      <trkpt lat="41.827937" lon="2.571718">
        <ele>545.897</ele>
        <time>2020-07-26T06:28:11Z</time>
      </trkpt>
      <trkpt lat="41.827883" lon="2.571834">
        <ele>545.578</ele>
        <time>2020-07-26T06:28:14Z</time>
      </trkpt>
      <trkpt lat="41.827865" lon="2.571978">
        <ele>544.633</ele>
        <time>2020-07-26T06:28:17Z</time>
      </trkpt>
      <trkpt lat="41.827857" lon="2.572130">
        <ele>544.026</ele>
        <time>2020-07-26T06:28:19Z</time>
      </trkpt>
      <trkpt lat="41.827846" lon="2.572280">
        <ele>543.408</ele>
        <time>2020-07-26T06:28:21Z</time>
      </trkpt>
      <trkpt lat="41.827816" lon="2.572428">
        <ele>542.612</ele>
        <time>2020-07-26T06:28:23Z</time>
      </trkpt>
      <trkpt lat="41.827804" lon="2.572593">
        <ele>542.020</ele>
        <time>2020-07-26T06:28:25Z</time>
      </trkpt>
      <trkpt lat="41.827799" lon="2.572765">
        <ele>541.223</ele>
        <time>2020-07-26T06:28:27Z</time>
      </trkpt>
      <trkpt lat="41.827813" lon="2.572907">
        <ele>540.828</ele>
        <time>2020-07-26T06:28:29Z</time>
      </trkpt>
      <trkpt lat="41.827841" lon="2.573029">
        <ele>539.636</ele>
        <time>2020-07-26T06:28:31Z</time>
      </trkpt>
      <trkpt lat="41.827895" lon="2.573135">
        <ele>539.289</ele>
        <time>2020-07-26T06:28:33Z</time>
      </trkpt>
      <trkpt lat="41.827956" lon="2.573252">
        <ele>538.643</ele>
        <time>2020-07-26T06:28:35Z</time>
      </trkpt>
      <trkpt lat="41.828005" lon="2.573354">
        <ele>537.629</ele>
        <time>2020-07-26T06:28:37Z</time>
      </trkpt>
      <trkpt lat="41.828038" lon="2.573470">
        <ele>537.234</ele>
        <time>2020-07-26T06:28:39Z</time>
      </trkpt>
      <trkpt lat="41.828056" lon="2.573642">
        <ele>536.655</ele>
        <time>2020-07-26T06:28:42Z</time>
      </trkpt>
      <trkpt lat="41.828039" lon="2.573822">
        <ele>535.810</ele>
        <time>2020-07-26T06:28:45Z</time>
      </trkpt>
      <trkpt lat="41.828015" lon="2.573944">
        <ele>535.808</ele>
        <time>2020-07-26T06:28:47Z</time>
      </trkpt>
      <trkpt lat="41.827980" lon="2.574064">
        <ele>534.818</ele>
        <time>2020-07-26T06:28:49Z</time>
      </trkpt>
      <trkpt lat="41.827942" lon="2.574176">
        <ele>534.416</ele>
        <time>2020-07-26T06:28:51Z</time>
      </trkpt>
      <trkpt lat="41.827915" lon="2.574297">
        <ele>534.099</ele>
        <time>2020-07-26T06:28:53Z</time>
      </trkpt>
      <trkpt lat="41.827891" lon="2.574429">
        <ele>533.644</ele>
        <time>2020-07-26T06:28:55Z</time>
      </trkpt>
      <trkpt lat="41.827866" lon="2.574555">
        <ele>533.222</ele>
        <time>2020-07-26T06:28:57Z</time>
      </trkpt>
      <trkpt lat="41.827845" lon="2.574673">
        <ele>532.655</ele>
        <time>2020-07-26T06:28:59Z</time>
      </trkpt>
      <trkpt lat="41.827824" lon="2.574837">
        <ele>531.059</ele>
        <time>2020-07-26T06:29:02Z</time>
      </trkpt>
      <trkpt lat="41.827793" lon="2.575016">
        <ele>529.695</ele>
        <time>2020-07-26T06:29:05Z</time>
      </trkpt>
      <trkpt lat="41.827778" lon="2.575142">
        <ele>528.842</ele>
        <time>2020-07-26T06:29:07Z</time>
      </trkpt>
      <trkpt lat="41.827767" lon="2.575205">
        <ele>528.622</ele>
        <time>2020-07-26T06:29:08Z</time>
      </trkpt>
      <trkpt lat="41.827755" lon="2.575270">
        <ele>528.214</ele>
        <time>2020-07-26T06:29:09Z</time>
      </trkpt>
      <trkpt lat="41.827744" lon="2.575335">
        <ele>528.308</ele>
        <time>2020-07-26T06:29:10Z</time>
      </trkpt>
      <trkpt lat="41.827737" lon="2.575405">
        <ele>528.059</ele>
        <time>2020-07-26T06:29:11Z</time>
      </trkpt>
      <trkpt lat="41.827725" lon="2.575554">
        <ele>526.827</ele>
        <time>2020-07-26T06:29:13Z</time>
      </trkpt>
      <trkpt lat="41.827728" lon="2.575630">
        <ele>526.210</ele>
        <time>2020-07-26T06:29:14Z</time>
      </trkpt>
      <trkpt lat="41.827734" lon="2.575701">
        <ele>525.645</ele>
        <time>2020-07-26T06:29:15Z</time>
      </trkpt>
      <trkpt lat="41.827745" lon="2.575771">
        <ele>525.583</ele>
        <time>2020-07-26T06:29:16Z</time>
      </trkpt>
      <trkpt lat="41.827776" lon="2.575895">
        <ele>524.616</ele>
        <time>2020-07-26T06:29:18Z</time>
      </trkpt>
      <trkpt lat="41.827779" lon="2.576054">
        <ele>523.430</ele>
        <time>2020-07-26T06:29:21Z</time>
      </trkpt>
      <trkpt lat="41.827766" lon="2.576088">
        <ele>523.276</ele>
        <time>2020-07-26T06:29:22Z</time>
      </trkpt>
      <trkpt lat="41.827743" lon="2.576118">
        <ele>522.836</ele>
        <time>2020-07-26T06:29:23Z</time>
      </trkpt>
      <trkpt lat="41.827715" lon="2.576130">
        <ele>522.217</ele>
        <time>2020-07-26T06:29:24Z</time>
      </trkpt>
      <trkpt lat="41.827668" lon="2.576113">
        <ele>522.018</ele>
        <time>2020-07-26T06:29:25Z</time>
      </trkpt>
      <trkpt lat="41.827626" lon="2.576109">
        <ele>521.408</ele>
        <time>2020-07-26T06:29:26Z</time>
      </trkpt>
      <trkpt lat="41.827588" lon="2.576102">
        <ele>521.088</ele>
        <time>2020-07-26T06:29:27Z</time>
      </trkpt>
      <trkpt lat="41.827546" lon="2.576095">
        <ele>520.696</ele>
        <time>2020-07-26T06:29:28Z</time>
      </trkpt>
      <trkpt lat="41.827512" lon="2.576086">
        <ele>520.459</ele>
        <time>2020-07-26T06:29:29Z</time>
      </trkpt>
      <trkpt lat="41.827480" lon="2.576078">
        <ele>520.054</ele>
        <time>2020-07-26T06:29:30Z</time>
      </trkpt>
      <trkpt lat="41.827450" lon="2.576067">
        <ele>519.412</ele>
        <time>2020-07-26T06:29:31Z</time>
      </trkpt>
      <trkpt lat="41.827420" lon="2.576061">
        <ele>519.235</ele>
        <time>2020-07-26T06:29:32Z</time>
      </trkpt>
      <trkpt lat="41.827389" lon="2.576060">
        <ele>519.019</ele>
        <time>2020-07-26T06:29:33Z</time>
      </trkpt>
      <trkpt lat="41.827361" lon="2.576064">
        <ele>518.425</ele>
        <time>2020-07-26T06:29:34Z</time>
      </trkpt>
      <trkpt lat="41.827332" lon="2.576079">
        <ele>518.227</ele>
        <time>2020-07-26T06:29:35Z</time>
      </trkpt>
      <trkpt lat="41.827308" lon="2.576102">
        <ele>518.068</ele>
        <time>2020-07-26T06:29:36Z</time>
      </trkpt>
      <trkpt lat="41.827286" lon="2.576133">
        <ele>517.814</ele>
        <time>2020-07-26T06:29:37Z</time>
      </trkpt>
      <trkpt lat="41.827264" lon="2.576165">
        <ele>517.608</ele>
        <time>2020-07-26T06:29:38Z</time>
      </trkpt>
      <trkpt lat="41.827241" lon="2.576196">
        <ele>517.437</ele>
        <time>2020-07-26T06:29:39Z</time>
      </trkpt>
      <trkpt lat="41.827220" lon="2.576231">
        <ele>517.045</ele>
        <time>2020-07-26T06:29:40Z</time>
      </trkpt>
      <trkpt lat="41.827194" lon="2.576265">
        <ele>516.858</ele>
        <time>2020-07-26T06:29:41Z</time>
      </trkpt>
      <trkpt lat="41.827170" lon="2.576296">
        <ele>516.483</ele>
        <time>2020-07-26T06:29:42Z</time>
      </trkpt>
      <trkpt lat="41.827146" lon="2.576331">
        <ele>516.021</ele>
        <time>2020-07-26T06:29:43Z</time>
      </trkpt>
      <trkpt lat="41.827121" lon="2.576366">
        <ele>515.874</ele>
        <time>2020-07-26T06:29:44Z</time>
      </trkpt>
      <trkpt lat="41.827100" lon="2.576404">
        <ele>515.618</ele>
        <time>2020-07-26T06:29:45Z</time>
      </trkpt>
      <trkpt lat="41.827080" lon="2.576446">
        <ele>515.444</ele>
        <time>2020-07-26T06:29:46Z</time>
      </trkpt>
      <trkpt lat="41.827061" lon="2.576488">
        <ele>515.753</ele>
        <time>2020-07-26T06:29:47Z</time>
      </trkpt>
      <trkpt lat="41.827039" lon="2.576530">
        <ele>515.204</ele>
        <time>2020-07-26T06:29:48Z</time>
      </trkpt>
      <trkpt lat="41.827021" lon="2.576579">
        <ele>514.814</ele>
        <time>2020-07-26T06:29:49Z</time>
      </trkpt>
      <trkpt lat="41.827004" lon="2.576630">
        <ele>514.708</ele>
        <time>2020-07-26T06:29:50Z</time>
      </trkpt>
      <trkpt lat="41.826987" lon="2.576681">
        <ele>514.410</ele>
        <time>2020-07-26T06:29:51Z</time>
      </trkpt>
      <trkpt lat="41.826987" lon="2.576731">
        <ele>514.448</ele>
        <time>2020-07-26T06:29:52Z</time>
      </trkpt>
      <trkpt lat="41.826976" lon="2.576781">
        <ele>513.871</ele>
        <time>2020-07-26T06:29:53Z</time>
      </trkpt>
      <trkpt lat="41.826970" lon="2.576839">
        <ele>513.686</ele>
        <time>2020-07-26T06:29:54Z</time>
      </trkpt>
      <trkpt lat="41.826956" lon="2.576896">
        <ele>513.214</ele>
        <time>2020-07-26T06:29:55Z</time>
      </trkpt>
      <trkpt lat="41.826944" lon="2.576953">
        <ele>513.017</ele>
        <time>2020-07-26T06:29:56Z</time>
      </trkpt>
      <trkpt lat="41.826936" lon="2.577014">
        <ele>512.471</ele>
        <time>2020-07-26T06:29:57Z</time>
      </trkpt>
      <trkpt lat="41.826929" lon="2.577070">
        <ele>512.017</ele>
        <time>2020-07-26T06:29:58Z</time>
      </trkpt>
      <trkpt lat="41.826924" lon="2.577124">
        <ele>511.667</ele>
        <time>2020-07-26T06:29:59Z</time>
      </trkpt>
      <trkpt lat="41.826878" lon="2.577296">
        <ele>511.281</ele>
        <time>2020-07-26T06:30:02Z</time>
      </trkpt>
      <trkpt lat="41.826836" lon="2.577407">
        <ele>510.719</ele>
        <time>2020-07-26T06:30:04Z</time>
      </trkpt>
      <trkpt lat="41.826809" lon="2.577538">
        <ele>510.008</ele>
        <time>2020-07-26T06:30:06Z</time>
      </trkpt>
      <trkpt lat="41.826793" lon="2.577683">
        <ele>509.291</ele>
        <time>2020-07-26T06:30:08Z</time>
      </trkpt>
      <trkpt lat="41.826781" lon="2.577831">
        <ele>508.679</ele>
        <time>2020-07-26T06:30:10Z</time>
      </trkpt>
      <trkpt lat="41.826788" lon="2.577980">
        <ele>507.852</ele>
        <time>2020-07-26T06:30:12Z</time>
      </trkpt>
      <trkpt lat="41.826807" lon="2.578115">
        <ele>507.257</ele>
        <time>2020-07-26T06:30:14Z</time>
      </trkpt>
      <trkpt lat="41.826832" lon="2.578252">
        <ele>506.225</ele>
        <time>2020-07-26T06:30:16Z</time>
      </trkpt>
      <trkpt lat="41.826841" lon="2.578401">
        <ele>505.638</ele>
        <time>2020-07-26T06:30:18Z</time>
      </trkpt>
      <trkpt lat="41.826822" lon="2.578534">
        <ele>504.682</ele>
        <time>2020-07-26T06:30:20Z</time>
      </trkpt>
      <trkpt lat="41.826806" lon="2.578600">
        <ele>504.068</ele>
        <time>2020-07-26T06:30:21Z</time>
      </trkpt>
      <trkpt lat="41.826794" lon="2.578751">
        <ele>503.673</ele>
        <time>2020-07-26T06:30:23Z</time>
      </trkpt>
      <trkpt lat="41.826793" lon="2.578821">
        <ele>502.885</ele>
        <time>2020-07-26T06:30:24Z</time>
      </trkpt>
      <trkpt lat="41.826801" lon="2.578966">
        <ele>501.813</ele>
        <time>2020-07-26T06:30:27Z</time>
      </trkpt>
      <trkpt lat="41.826824" lon="2.579148">
        <ele>500.608</ele>
        <time>2020-07-26T06:30:30Z</time>
      </trkpt>
      <trkpt lat="41.826855" lon="2.579314">
        <ele>499.052</ele>
        <time>2020-07-26T06:30:33Z</time>
      </trkpt>
      <trkpt lat="41.826858" lon="2.579441">
        <ele>498.420</ele>
        <time>2020-07-26T06:30:37Z</time>
      </trkpt>
      <trkpt lat="41.826848" lon="2.579465">
        <ele>498.243</ele>
        <time>2020-07-26T06:30:38Z</time>
      </trkpt>
      <trkpt lat="41.826822" lon="2.579485">
        <ele>498.388</ele>
        <time>2020-07-26T06:30:40Z</time>
      </trkpt>
      <trkpt lat="41.826808" lon="2.579461">
        <ele>498.016</ele>
        <time>2020-07-26T06:30:42Z</time>
      </trkpt>
      <trkpt lat="41.826805" lon="2.579437">
        <ele>497.869</ele>
        <time>2020-07-26T06:30:43Z</time>
      </trkpt>
      <trkpt lat="41.826779" lon="2.579430">
        <ele>497.743</ele>
        <time>2020-07-26T06:30:45Z</time>
      </trkpt>
      <trkpt lat="41.826753" lon="2.579437">
        <ele>497.829</ele>
        <time>2020-07-26T06:30:47Z</time>
      </trkpt>
      <trkpt lat="41.826732" lon="2.579449">
        <ele>498.034</ele>
        <time>2020-07-26T06:30:49Z</time>
      </trkpt>
      <trkpt lat="41.826710" lon="2.579421">
        <ele>498.255</ele>
        <time>2020-07-26T06:30:51Z</time>
      </trkpt>
      <trkpt lat="41.826690" lon="2.579397">
        <ele>498.210</ele>
        <time>2020-07-26T06:30:53Z</time>
      </trkpt>
      <trkpt lat="41.826717" lon="2.579400">
        <ele>497.308</ele>
        <time>2020-07-26T06:31:17Z</time>
      </trkpt>
      <trkpt lat="41.826729" lon="2.579379">
        <ele>496.478</ele>
        <time>2020-07-26T06:31:32Z</time>
      </trkpt>
      <trkpt lat="41.826746" lon="2.579392">
        <ele>496.346</ele>
        <time>2020-07-26T06:31:36Z</time>
      </trkpt>
      <trkpt lat="41.826767" lon="2.579375">
        <ele>495.719</ele>
        <time>2020-07-26T06:31:49Z</time>
      </trkpt>
      <trkpt lat="41.826787" lon="2.579368">
        <ele>495.754</ele>
        <time>2020-07-26T06:31:51Z</time>
      </trkpt>
      <trkpt lat="41.826806" lon="2.579362">
        <ele>495.622</ele>
        <time>2020-07-26T06:31:54Z</time>
      </trkpt>
      <trkpt lat="41.826819" lon="2.579341">
        <ele>495.415</ele>
        <time>2020-07-26T06:31:55Z</time>
      </trkpt>
      <trkpt lat="41.826831" lon="2.579320">
        <ele>495.369</ele>
        <time>2020-07-26T06:31:56Z</time>
      </trkpt>
      <trkpt lat="41.826838" lon="2.579295">
        <ele>495.325</ele>
        <time>2020-07-26T06:31:57Z</time>
      </trkpt>
      <trkpt lat="41.826843" lon="2.579269">
        <ele>495.028</ele>
        <time>2020-07-26T06:31:58Z</time>
      </trkpt>
      <trkpt lat="41.826845" lon="2.579239">
        <ele>495.089</ele>
        <time>2020-07-26T06:31:59Z</time>
      </trkpt>
      <trkpt lat="41.826848" lon="2.579200">
        <ele>494.817</ele>
        <time>2020-07-26T06:32:00Z</time>
      </trkpt>
      <trkpt lat="41.826847" lon="2.579164">
        <ele>494.408</ele>
        <time>2020-07-26T06:32:01Z</time>
      </trkpt>
      <trkpt lat="41.826844" lon="2.579123">
        <ele>494.277</ele>
        <time>2020-07-26T06:32:02Z</time>
      </trkpt>
      <trkpt lat="41.826834" lon="2.579081">
        <ele>494.275</ele>
        <time>2020-07-26T06:32:03Z</time>
      </trkpt>
      <trkpt lat="41.826819" lon="2.579033">
        <ele>494.238</ele>
        <time>2020-07-26T06:32:04Z</time>
      </trkpt>
      <trkpt lat="41.826799" lon="2.578984">
        <ele>493.823</ele>
        <time>2020-07-26T06:32:05Z</time>
      </trkpt>
      <trkpt lat="41.826774" lon="2.578936">
        <ele>493.671</ele>
        <time>2020-07-26T06:32:06Z</time>
      </trkpt>
      <trkpt lat="41.826747" lon="2.578890">
        <ele>493.674</ele>
        <time>2020-07-26T06:32:07Z</time>
      </trkpt>
      <trkpt lat="41.826719" lon="2.578847">
        <ele>493.418</ele>
        <time>2020-07-26T06:32:08Z</time>
      </trkpt>
      <trkpt lat="41.826694" lon="2.578799">
        <ele>493.294</ele>
        <time>2020-07-26T06:32:09Z</time>
      </trkpt>
      <trkpt lat="41.826680" lon="2.578748">
        <ele>492.885</ele>
        <time>2020-07-26T06:32:10Z</time>
      </trkpt>
      <trkpt lat="41.826668" lon="2.578690">
        <ele>492.689</ele>
        <time>2020-07-26T06:32:11Z</time>
      </trkpt>
      <trkpt lat="41.826657" lon="2.578627">
        <ele>492.617</ele>
        <time>2020-07-26T06:32:12Z</time>
      </trkpt>
      <trkpt lat="41.826642" lon="2.578556">
        <ele>491.808</ele>
        <time>2020-07-26T06:32:13Z</time>
      </trkpt>
      <trkpt lat="41.826592" lon="2.578430">
        <ele>490.623</ele>
        <time>2020-07-26T06:32:15Z</time>
      </trkpt>
      <trkpt lat="41.826557" lon="2.578380">
        <ele>490.451</ele>
        <time>2020-07-26T06:32:16Z</time>
      </trkpt>
      <trkpt lat="41.826517" lon="2.578333">
        <ele>490.054</ele>
        <time>2020-07-26T06:32:17Z</time>
      </trkpt>
      <trkpt lat="41.826469" lon="2.578293">
        <ele>490.069</ele>
        <time>2020-07-26T06:32:18Z</time>
      </trkpt>
      <trkpt lat="41.826414" lon="2.578263">
        <ele>489.647</ele>
        <time>2020-07-26T06:32:19Z</time>
      </trkpt>
      <trkpt lat="41.826356" lon="2.578232">
        <ele>489.210</ele>
        <time>2020-07-26T06:32:20Z</time>
      </trkpt>
      <trkpt lat="41.826289" lon="2.578195">
        <ele>488.814</ele>
        <time>2020-07-26T06:32:21Z</time>
      </trkpt>
      <trkpt lat="41.826230" lon="2.578150">
        <ele>488.680</ele>
        <time>2020-07-26T06:32:22Z</time>
      </trkpt>
      <trkpt lat="41.826171" lon="2.578106">
        <ele>488.226</ele>
        <time>2020-07-26T06:32:23Z</time>
      </trkpt>
      <trkpt lat="41.826113" lon="2.578058">
        <ele>487.447</ele>
        <time>2020-07-26T06:32:24Z</time>
      </trkpt>
      <trkpt lat="41.826055" lon="2.578012">
        <ele>487.011</ele>
        <time>2020-07-26T06:32:25Z</time>
      </trkpt>
      <trkpt lat="41.826000" lon="2.577966">
        <ele>486.608</ele>
        <time>2020-07-26T06:32:26Z</time>
      </trkpt>
      <trkpt lat="41.825914" lon="2.577858">
        <ele>485.077</ele>
        <time>2020-07-26T06:32:28Z</time>
      </trkpt>
      <trkpt lat="41.825894" lon="2.577686">
        <ele>484.035</ele>
        <time>2020-07-26T06:32:30Z</time>
      </trkpt>
      <trkpt lat="41.825893" lon="2.577508">
        <ele>483.228</ele>
        <time>2020-07-26T06:32:32Z</time>
      </trkpt>
      <trkpt lat="41.825874" lon="2.577344">
        <ele>481.823</ele>
        <time>2020-07-26T06:32:34Z</time>
      </trkpt>
      <trkpt lat="41.825852" lon="2.577165">
        <ele>480.651</ele>
        <time>2020-07-26T06:32:36Z</time>
      </trkpt>
      <trkpt lat="41.825825" lon="2.577000">
        <ele>479.874</ele>
        <time>2020-07-26T06:32:38Z</time>
      </trkpt>
      <trkpt lat="41.825801" lon="2.576876">
        <ele>479.478</ele>
        <time>2020-07-26T06:32:40Z</time>
      </trkpt>
      <trkpt lat="41.825724" lon="2.576749">
        <ele>478.684</ele>
        <time>2020-07-26T06:32:42Z</time>
      </trkpt>
      <trkpt lat="41.825631" lon="2.576646">
        <ele>477.812</ele>
        <time>2020-07-26T06:32:44Z</time>
      </trkpt>
      <trkpt lat="41.825513" lon="2.576603">
        <ele>476.432</ele>
        <time>2020-07-26T06:32:46Z</time>
      </trkpt>
      <trkpt lat="41.825353" lon="2.576553">
        <ele>475.605</ele>
        <time>2020-07-26T06:32:48Z</time>
      </trkpt>
      <trkpt lat="41.825222" lon="2.576452">
        <ele>475.008</ele>
        <time>2020-07-26T06:32:50Z</time>
      </trkpt>
      <trkpt lat="41.825108" lon="2.576345">
        <ele>474.026</ele>
        <time>2020-07-26T06:32:52Z</time>
      </trkpt>
      <trkpt lat="41.825009" lon="2.576233">
        <ele>473.034</ele>
        <time>2020-07-26T06:32:54Z</time>
      </trkpt>
      <trkpt lat="41.824883" lon="2.576129">
        <ele>471.867</ele>
        <time>2020-07-26T06:32:56Z</time>
      </trkpt>
      <trkpt lat="41.824729" lon="2.575988">
        <ele>470.632</ele>
        <time>2020-07-26T06:32:58Z</time>
      </trkpt>
      <trkpt lat="41.824625" lon="2.575849">
        <ele>468.810</ele>
        <time>2020-07-26T06:33:00Z</time>
      </trkpt>
      <trkpt lat="41.824529" lon="2.575758">
        <ele>468.023</ele>
        <time>2020-07-26T06:33:03Z</time>
      </trkpt>
      <trkpt lat="41.824426" lon="2.575795">
        <ele>467.047</ele>
        <time>2020-07-26T06:33:06Z</time>
      </trkpt>
      <trkpt lat="41.824378" lon="2.575806">
        <ele>466.683</ele>
        <time>2020-07-26T06:33:07Z</time>
      </trkpt>
      <trkpt lat="41.824327" lon="2.575820">
        <ele>464.797</ele>
        <time>2020-07-26T06:33:08Z</time>
      </trkpt>
      <trkpt lat="41.824269" lon="2.575831">
        <ele>464.223</ele>
        <time>2020-07-26T06:33:09Z</time>
      </trkpt>
      <trkpt lat="41.824160" lon="2.575822">
        <ele>463.625</ele>
        <time>2020-07-26T06:33:11Z</time>
      </trkpt>
      <trkpt lat="41.824065" lon="2.575764">
        <ele>462.408</ele>
        <time>2020-07-26T06:33:13Z</time>
      </trkpt>
      <trkpt lat="41.824015" lon="2.575597">
        <ele>461.454</ele>
        <time>2020-07-26T06:33:15Z</time>
      </trkpt>
      <trkpt lat="41.823960" lon="2.575412">
        <ele>460.292</ele>
        <time>2020-07-26T06:33:17Z</time>
      </trkpt>
      <trkpt lat="41.823885" lon="2.575214">
        <ele>458.815</ele>
        <time>2020-07-26T06:33:19Z</time>
      </trkpt>
      <trkpt lat="41.823803" lon="2.575025">
        <ele>457.630</ele>
        <time>2020-07-26T06:33:21Z</time>
      </trkpt>
      <trkpt lat="41.823732" lon="2.574913">
        <ele>456.448</ele>
        <time>2020-07-26T06:33:23Z</time>
      </trkpt>
      <trkpt lat="41.823638" lon="2.574839">
        <ele>455.491</ele>
        <time>2020-07-26T06:33:25Z</time>
      </trkpt>
      <trkpt lat="41.823512" lon="2.574768">
        <ele>454.055</ele>
        <time>2020-07-26T06:33:27Z</time>
      </trkpt>
      <trkpt lat="41.823402" lon="2.574766">
        <ele>453.061</ele>
        <time>2020-07-26T06:33:29Z</time>
      </trkpt>
      <trkpt lat="41.823323" lon="2.574914">
        <ele>452.269</ele>
        <time>2020-07-26T06:33:31Z</time>
      </trkpt>
      <trkpt lat="41.823290" lon="2.574997">
        <ele>451.604</ele>
        <time>2020-07-26T06:33:32Z</time>
      </trkpt>
      <trkpt lat="41.823255" lon="2.575071">
        <ele>451.024</ele>
        <time>2020-07-26T06:33:33Z</time>
      </trkpt>
      <trkpt lat="41.823218" lon="2.575133">
        <ele>450.608</ele>
        <time>2020-07-26T06:33:34Z</time>
      </trkpt>
      <trkpt lat="41.823175" lon="2.575194">
        <ele>449.891</ele>
        <time>2020-07-26T06:33:35Z</time>
      </trkpt>
      <trkpt lat="41.823129" lon="2.575244">
        <ele>449.089</ele>
        <time>2020-07-26T06:33:36Z</time>
      </trkpt>
      <trkpt lat="41.823085" lon="2.575292">
        <ele>448.222</ele>
        <time>2020-07-26T06:33:37Z</time>
      </trkpt>
      <trkpt lat="41.823022" lon="2.575391">
        <ele>447.277</ele>
        <time>2020-07-26T06:33:39Z</time>
      </trkpt>
      <trkpt lat="41.823004" lon="2.575431">
        <ele>446.865</ele>
        <time>2020-07-26T06:33:40Z</time>
      </trkpt>
      <trkpt lat="41.822991" lon="2.575457">
        <ele>446.458</ele>
        <time>2020-07-26T06:33:41Z</time>
      </trkpt>
      <trkpt lat="41.822974" lon="2.575495">
        <ele>445.632</ele>
        <time>2020-07-26T06:33:43Z</time>
      </trkpt>
      <trkpt lat="41.822965" lon="2.575517">
        <ele>445.248</ele>
        <time>2020-07-26T06:33:44Z</time>
      </trkpt>
      <trkpt lat="41.822952" lon="2.575539">
        <ele>444.869</ele>
        <time>2020-07-26T06:33:46Z</time>
      </trkpt>
      <trkpt lat="41.822931" lon="2.575532">
        <ele>444.204</ele>
        <time>2020-07-26T06:33:48Z</time>
      </trkpt>
      <trkpt lat="41.822934" lon="2.575506">
        <ele>443.724</ele>
        <time>2020-07-26T06:33:57Z</time>
      </trkpt>
      <trkpt lat="41.822942" lon="2.575483">
        <ele>443.408</ele>
        <time>2020-07-26T06:34:00Z</time>
      </trkpt>
      <trkpt lat="41.822959" lon="2.575469">
        <ele>441.191</ele>
        <time>2020-07-26T06:34:45Z</time>
      </trkpt>
      <trkpt lat="41.822980" lon="2.575460">
        <ele>441.689</ele>
        <time>2020-07-26T06:34:48Z</time>
      </trkpt>
      <trkpt lat="41.822998" lon="2.575451">
        <ele>441.722</ele>
        <time>2020-07-26T06:34:50Z</time>
      </trkpt>
      <trkpt lat="41.823004" lon="2.575428">
        <ele>441.647</ele>
        <time>2020-07-26T06:35:05Z</time>
      </trkpt>
      <trkpt lat="41.822995" lon="2.575405">
        <ele>441.335</ele>
        <time>2020-07-26T06:35:16Z</time>
      </trkpt>
      <trkpt lat="41.823014" lon="2.575409">
        <ele>441.148</ele>
        <time>2020-07-26T06:35:33Z</time>
      </trkpt>
      <trkpt lat="41.823007" lon="2.575431">
        <ele>440.442</ele>
        <time>2020-07-26T06:35:52Z</time>
      </trkpt>
      <trkpt lat="41.822991" lon="2.575446">
        <ele>440.268</ele>
        <time>2020-07-26T06:35:55Z</time>
      </trkpt>
      <trkpt lat="41.822965" lon="2.575473">
        <ele>439.882</ele>
        <time>2020-07-26T06:35:57Z</time>
      </trkpt>
      <trkpt lat="41.822941" lon="2.575490">
        <ele>439.743</ele>
        <time>2020-07-26T06:35:58Z</time>
      </trkpt>
      <trkpt lat="41.822904" lon="2.575504">
        <ele>439.617</ele>
        <time>2020-07-26T06:35:59Z</time>
      </trkpt>
      <trkpt lat="41.822857" lon="2.575524">
        <ele>439.208</ele>
        <time>2020-07-26T06:36:00Z</time>
      </trkpt>
      <trkpt lat="41.822807" lon="2.575540">
        <ele>438.853</ele>
        <time>2020-07-26T06:36:01Z</time>
      </trkpt>
      <trkpt lat="41.822759" lon="2.575553">
        <ele>438.621</ele>
        <time>2020-07-26T06:36:02Z</time>
      </trkpt>
      <trkpt lat="41.822711" lon="2.575564">
        <ele>438.444</ele>
        <time>2020-07-26T06:36:03Z</time>
      </trkpt>
      <trkpt lat="41.822660" lon="2.575573">
        <ele>438.289</ele>
        <time>2020-07-26T06:36:04Z</time>
      </trkpt>
      <trkpt lat="41.822611" lon="2.575583">
        <ele>437.847</ele>
        <time>2020-07-26T06:36:05Z</time>
      </trkpt>
      <trkpt lat="41.822561" lon="2.575596">
        <ele>437.450</ele>
        <time>2020-07-26T06:36:06Z</time>
      </trkpt>
      <trkpt lat="41.822507" lon="2.575608">
        <ele>437.284</ele>
        <time>2020-07-26T06:36:07Z</time>
      </trkpt>
      <trkpt lat="41.822453" lon="2.575620">
        <ele>436.630</ele>
        <time>2020-07-26T06:36:08Z</time>
      </trkpt>
      <trkpt lat="41.822402" lon="2.575629">
        <ele>436.676</ele>
        <time>2020-07-26T06:36:09Z</time>
      </trkpt>
      <trkpt lat="41.822356" lon="2.575640">
        <ele>436.490</ele>
        <time>2020-07-26T06:36:10Z</time>
      </trkpt>
      <trkpt lat="41.822309" lon="2.575648">
        <ele>436.219</ele>
        <time>2020-07-26T06:36:11Z</time>
      </trkpt>
      <trkpt lat="41.822263" lon="2.575654">
        <ele>436.208</ele>
        <time>2020-07-26T06:36:12Z</time>
      </trkpt>
      <trkpt lat="41.822218" lon="2.575659">
        <ele>436.082</ele>
        <time>2020-07-26T06:36:13Z</time>
      </trkpt>
      <trkpt lat="41.822171" lon="2.575664">
        <ele>435.620</ele>
        <time>2020-07-26T06:36:14Z</time>
      </trkpt>
      <trkpt lat="41.822125" lon="2.575665">
        <ele>435.673</ele>
        <time>2020-07-26T06:36:15Z</time>
      </trkpt>
      <trkpt lat="41.822076" lon="2.575665">
        <ele>435.498</ele>
        <time>2020-07-26T06:36:16Z</time>
      </trkpt>
      <trkpt lat="41.822024" lon="2.575661">
        <ele>435.226</ele>
        <time>2020-07-26T06:36:17Z</time>
      </trkpt>
      <trkpt lat="41.821972" lon="2.575650">
        <ele>434.819</ele>
        <time>2020-07-26T06:36:18Z</time>
      </trkpt>
      <trkpt lat="41.821920" lon="2.575639">
        <ele>434.463</ele>
        <time>2020-07-26T06:36:19Z</time>
      </trkpt>
      <trkpt lat="41.821872" lon="2.575627">
        <ele>434.239</ele>
        <time>2020-07-26T06:36:20Z</time>
      </trkpt>
      <trkpt lat="41.821828" lon="2.575607">
        <ele>434.056</ele>
        <time>2020-07-26T06:36:21Z</time>
      </trkpt>
      <trkpt lat="41.821784" lon="2.575577">
        <ele>433.659</ele>
        <time>2020-07-26T06:36:22Z</time>
      </trkpt>
      <trkpt lat="41.821751" lon="2.575525">
        <ele>433.214</ele>
        <time>2020-07-26T06:36:23Z</time>
      </trkpt>
      <trkpt lat="41.821719" lon="2.575465">
        <ele>432.808</ele>
        <time>2020-07-26T06:36:24Z</time>
      </trkpt>
      <trkpt lat="41.821687" lon="2.575405">
        <ele>432.660</ele>
        <time>2020-07-26T06:36:25Z</time>
      </trkpt>
      <trkpt lat="41.821655" lon="2.575345">
        <ele>432.048</ele>
        <time>2020-07-26T06:36:26Z</time>
      </trkpt>
      <trkpt lat="41.821621" lon="2.575284">
        <ele>432.081</ele>
        <time>2020-07-26T06:36:27Z</time>
      </trkpt>
      <trkpt lat="41.821586" lon="2.575228">
        <ele>431.876</ele>
        <time>2020-07-26T06:36:28Z</time>
      </trkpt>
      <trkpt lat="41.821549" lon="2.575177">
        <ele>431.654</ele>
        <time>2020-07-26T06:36:29Z</time>
      </trkpt>
      <trkpt lat="41.821511" lon="2.575123">
        <ele>431.447</ele>
        <time>2020-07-26T06:36:30Z</time>
      </trkpt>
      <trkpt lat="41.821472" lon="2.575067">
        <ele>431.061</ele>
        <time>2020-07-26T06:36:31Z</time>
      </trkpt>
      <trkpt lat="41.821430" lon="2.575012">
        <ele>430.897</ele>
        <time>2020-07-26T06:36:32Z</time>
      </trkpt>
      <trkpt lat="41.821392" lon="2.574958">
        <ele>430.623</ele>
        <time>2020-07-26T06:36:33Z</time>
      </trkpt>
      <trkpt lat="41.821356" lon="2.574904">
        <ele>430.483</ele>
        <time>2020-07-26T06:36:34Z</time>
      </trkpt>
      <trkpt lat="41.821321" lon="2.574852">
        <ele>430.311</ele>
        <time>2020-07-26T06:36:35Z</time>
      </trkpt>
      <trkpt lat="41.821286" lon="2.574802">
        <ele>430.208</ele>
        <time>2020-07-26T06:36:36Z</time>
      </trkpt>
      <trkpt lat="41.821248" lon="2.574758">
        <ele>430.237</ele>
        <time>2020-07-26T06:36:37Z</time>
      </trkpt>
      <trkpt lat="41.821209" lon="2.574725">
        <ele>430.295</ele>
        <time>2020-07-26T06:36:38Z</time>
      </trkpt>
      <trkpt lat="41.821170" lon="2.574697">
        <ele>430.228</ele>
        <time>2020-07-26T06:36:39Z</time>
      </trkpt>
      <trkpt lat="41.821125" lon="2.574678">
        <ele>430.053</ele>
        <time>2020-07-26T06:36:40Z</time>
      </trkpt>
      <trkpt lat="41.821077" lon="2.574674">
        <ele>429.651</ele>
        <time>2020-07-26T06:36:41Z</time>
      </trkpt>
      <trkpt lat="41.821031" lon="2.574684">
        <ele>429.654</ele>
        <time>2020-07-26T06:36:42Z</time>
      </trkpt>
      <trkpt lat="41.820985" lon="2.574700">
        <ele>429.638</ele>
        <time>2020-07-26T06:36:43Z</time>
      </trkpt>
      <trkpt lat="41.820949" lon="2.574717">
        <ele>429.724</ele>
        <time>2020-07-26T06:36:44Z</time>
      </trkpt>
      <trkpt lat="41.820920" lon="2.574738">
        <ele>430.177</ele>
        <time>2020-07-26T06:36:45Z</time>
      </trkpt>
      <trkpt lat="41.820898" lon="2.574761">
        <ele>430.361</ele>
        <time>2020-07-26T06:36:46Z</time>
      </trkpt>
      <trkpt lat="41.820881" lon="2.574783">
        <ele>430.527</ele>
        <time>2020-07-26T06:36:47Z</time>
      </trkpt>
      <trkpt lat="41.820866" lon="2.574804">
        <ele>430.708</ele>
        <time>2020-07-26T06:36:48Z</time>
      </trkpt>
      <trkpt lat="41.820851" lon="2.574824">
        <ele>430.982</ele>
        <time>2020-07-26T06:36:49Z</time>
      </trkpt>
      <trkpt lat="41.820834" lon="2.574847">
        <ele>431.110</ele>
        <time>2020-07-26T06:36:50Z</time>
      </trkpt>
      <trkpt lat="41.820818" lon="2.574881">
        <ele>431.573</ele>
        <time>2020-07-26T06:36:51Z</time>
      </trkpt>
      <trkpt lat="41.820806" lon="2.574914">
        <ele>431.718</ele>
        <time>2020-07-26T06:36:52Z</time>
      </trkpt>
      <trkpt lat="41.820790" lon="2.574946">
        <ele>431.746</ele>
        <time>2020-07-26T06:36:53Z</time>
      </trkpt>
      <trkpt lat="41.820774" lon="2.574985">
        <ele>431.919</ele>
        <time>2020-07-26T06:36:54Z</time>
      </trkpt>
      <trkpt lat="41.820756" lon="2.575032">
        <ele>432.013</ele>
        <time>2020-07-26T06:36:55Z</time>
      </trkpt>
      <trkpt lat="41.820734" lon="2.575084">
        <ele>432.019</ele>
        <time>2020-07-26T06:36:56Z</time>
      </trkpt>
      <trkpt lat="41.820716" lon="2.575131">
        <ele>432.188</ele>
        <time>2020-07-26T06:36:57Z</time>
      </trkpt>
      <trkpt lat="41.820696" lon="2.575182">
        <ele>432.324</ele>
        <time>2020-07-26T06:36:58Z</time>
      </trkpt>
      <trkpt lat="41.820674" lon="2.575235">
        <ele>432.526</ele>
        <time>2020-07-26T06:36:59Z</time>
      </trkpt>
      <trkpt lat="41.820647" lon="2.575281">
        <ele>432.408</ele>
        <time>2020-07-26T06:37:00Z</time>
      </trkpt>
      <trkpt lat="41.820617" lon="2.575318">
        <ele>432.223</ele>
        <time>2020-07-26T06:37:01Z</time>
      </trkpt>
      <trkpt lat="41.820583" lon="2.575350">
        <ele>432.271</ele>
        <time>2020-07-26T06:37:02Z</time>
      </trkpt>
      <trkpt lat="41.820545" lon="2.575367">
        <ele>432.244</ele>
        <time>2020-07-26T06:37:03Z</time>
      </trkpt>
      <trkpt lat="41.820507" lon="2.575380">
        <ele>432.089</ele>
        <time>2020-07-26T06:37:04Z</time>
      </trkpt>
      <trkpt lat="41.820475" lon="2.575387">
        <ele>431.897</ele>
        <time>2020-07-26T06:37:05Z</time>
      </trkpt>
      <trkpt lat="41.820440" lon="2.575380">
        <ele>431.710</ele>
        <time>2020-07-26T06:37:06Z</time>
      </trkpt>
      <trkpt lat="41.820389" lon="2.575371">
        <ele>431.764</ele>
        <time>2020-07-26T06:37:07Z</time>
      </trkpt>
      <trkpt lat="41.820334" lon="2.575367">
        <ele>431.770</ele>
        <time>2020-07-26T06:37:08Z</time>
      </trkpt>
      <trkpt lat="41.820280" lon="2.575371">
        <ele>431.645</ele>
        <time>2020-07-26T06:37:09Z</time>
      </trkpt>
      <trkpt lat="41.820227" lon="2.575377">
        <ele>431.447</ele>
        <time>2020-07-26T06:37:10Z</time>
      </trkpt>
      <trkpt lat="41.820177" lon="2.575374">
        <ele>431.011</ele>
        <time>2020-07-26T06:37:11Z</time>
      </trkpt>
      <trkpt lat="41.820131" lon="2.575362">
        <ele>431.008</ele>
        <time>2020-07-26T06:37:12Z</time>
      </trkpt>
      <trkpt lat="41.820079" lon="2.575351">
        <ele>430.639</ele>
        <time>2020-07-26T06:37:13Z</time>
      </trkpt>
      <trkpt lat="41.819986" lon="2.575294">
        <ele>430.087</ele>
        <time>2020-07-26T06:37:15Z</time>
      </trkpt>
      <trkpt lat="41.819927" lon="2.575200">
        <ele>429.450</ele>
        <time>2020-07-26T06:37:17Z</time>
      </trkpt>
      <trkpt lat="41.819858" lon="2.575074">
        <ele>428.685</ele>
        <time>2020-07-26T06:37:19Z</time>
      </trkpt>
      <trkpt lat="41.819782" lon="2.574909">
        <ele>427.673</ele>
        <time>2020-07-26T06:37:21Z</time>
      </trkpt>
      <trkpt lat="41.819724" lon="2.574742">
        <ele>427.026</ele>
        <time>2020-07-26T06:37:23Z</time>
      </trkpt>
      <trkpt lat="41.819728" lon="2.574569">
        <ele>426.660</ele>
        <time>2020-07-26T06:37:25Z</time>
      </trkpt>
      <trkpt lat="41.819738" lon="2.574492">
        <ele>426.226</ele>
        <time>2020-07-26T06:37:26Z</time>
      </trkpt>
      <trkpt lat="41.819758" lon="2.574416">
        <ele>425.891</ele>
        <time>2020-07-26T06:37:27Z</time>
      </trkpt>
      <trkpt lat="41.819785" lon="2.574342">
        <ele>425.481</ele>
        <time>2020-07-26T06:37:28Z</time>
      </trkpt>
      <trkpt lat="41.819810" lon="2.574272">
        <ele>424.619</ele>
        <time>2020-07-26T06:37:29Z</time>
      </trkpt>
      <trkpt lat="41.819831" lon="2.574199">
        <ele>424.608</ele>
        <time>2020-07-26T06:37:30Z</time>
      </trkpt>
      <trkpt lat="41.819850" lon="2.574124">
        <ele>424.264</ele>
        <time>2020-07-26T06:37:31Z</time>
      </trkpt>
      <trkpt lat="41.819864" lon="2.574048">
        <ele>423.882</ele>
        <time>2020-07-26T06:37:32Z</time>
      </trkpt>
      <trkpt lat="41.819874" lon="2.573971">
        <ele>423.415</ele>
        <time>2020-07-26T06:37:33Z</time>
      </trkpt>
      <trkpt lat="41.819873" lon="2.573894">
        <ele>422.890</ele>
        <time>2020-07-26T06:37:34Z</time>
      </trkpt>
      <trkpt lat="41.819865" lon="2.573816">
        <ele>422.248</ele>
        <time>2020-07-26T06:37:35Z</time>
      </trkpt>
      <trkpt lat="41.819845" lon="2.573724">
        <ele>421.811</ele>
        <time>2020-07-26T06:37:36Z</time>
      </trkpt>
      <trkpt lat="41.819826" lon="2.573639">
        <ele>421.645</ele>
        <time>2020-07-26T06:37:37Z</time>
      </trkpt>
      <trkpt lat="41.819803" lon="2.573558">
        <ele>421.251</ele>
        <time>2020-07-26T06:37:38Z</time>
      </trkpt>
      <trkpt lat="41.819775" lon="2.573476">
        <ele>420.627</ele>
        <time>2020-07-26T06:37:39Z</time>
      </trkpt>
      <trkpt lat="41.819749" lon="2.573395">
        <ele>420.468</ele>
        <time>2020-07-26T06:37:40Z</time>
      </trkpt>
      <trkpt lat="41.819720" lon="2.573304">
        <ele>420.014</ele>
        <time>2020-07-26T06:37:41Z</time>
      </trkpt>
      <trkpt lat="41.819701" lon="2.573213">
        <ele>419.608</ele>
        <time>2020-07-26T06:37:42Z</time>
      </trkpt>
      <trkpt lat="41.819685" lon="2.573122">
        <ele>419.417</ele>
        <time>2020-07-26T06:37:43Z</time>
      </trkpt>
      <trkpt lat="41.819676" lon="2.572954">
        <ele>418.245</ele>
        <time>2020-07-26T06:37:45Z</time>
      </trkpt>
      <trkpt lat="41.819677" lon="2.572795">
        <ele>417.448</ele>
        <time>2020-07-26T06:37:47Z</time>
      </trkpt>
      <trkpt lat="41.819661" lon="2.572661">
        <ele>416.053</ele>
        <time>2020-07-26T06:37:49Z</time>
      </trkpt>
      <trkpt lat="41.819616" lon="2.572552">
        <ele>415.251</ele>
        <time>2020-07-26T06:37:51Z</time>
      </trkpt>
      <trkpt lat="41.819525" lon="2.572472">
        <ele>414.444</ele>
        <time>2020-07-26T06:37:53Z</time>
      </trkpt>
      <trkpt lat="41.819420" lon="2.572404">
        <ele>413.828</ele>
        <time>2020-07-26T06:37:55Z</time>
      </trkpt>
      <trkpt lat="41.819310" lon="2.572344">
        <ele>412.654</ele>
        <time>2020-07-26T06:37:57Z</time>
      </trkpt>
      <trkpt lat="41.819216" lon="2.572294">
        <ele>412.258</ele>
        <time>2020-07-26T06:37:59Z</time>
      </trkpt>
      <trkpt lat="41.819119" lon="2.572240">
        <ele>411.252</ele>
        <time>2020-07-26T06:38:01Z</time>
      </trkpt>
      <trkpt lat="41.819000" lon="2.572178">
        <ele>410.817</ele>
        <time>2020-07-26T06:38:03Z</time>
      </trkpt>
      <trkpt lat="41.818873" lon="2.572105">
        <ele>409.608</ele>
        <time>2020-07-26T06:38:05Z</time>
      </trkpt>
      <trkpt lat="41.818749" lon="2.572019">
        <ele>408.070</ele>
        <time>2020-07-26T06:38:07Z</time>
      </trkpt>
      <trkpt lat="41.818639" lon="2.571934">
        <ele>407.438</ele>
        <time>2020-07-26T06:38:09Z</time>
      </trkpt>
      <trkpt lat="41.818576" lon="2.571806">
        <ele>406.061</ele>
        <time>2020-07-26T06:38:11Z</time>
      </trkpt>
      <trkpt lat="41.818550" lon="2.571661">
        <ele>405.696</ele>
        <time>2020-07-26T06:38:13Z</time>
      </trkpt>
      <trkpt lat="41.818566" lon="2.571541">
        <ele>404.094</ele>
        <time>2020-07-26T06:38:15Z</time>
      </trkpt>
      <trkpt lat="41.818620" lon="2.571386">
        <ele>403.387</ele>
        <time>2020-07-26T06:38:18Z</time>
      </trkpt>
      <trkpt lat="41.818708" lon="2.571296">
        <ele>401.631</ele>
        <time>2020-07-26T06:38:20Z</time>
      </trkpt>
      <trkpt lat="41.818813" lon="2.571283">
        <ele>399.697</ele>
        <time>2020-07-26T06:38:22Z</time>
      </trkpt>
      <trkpt lat="41.818918" lon="2.571273">
        <ele>397.621</ele>
        <time>2020-07-26T06:38:24Z</time>
      </trkpt>
      <trkpt lat="41.819037" lon="2.571258">
        <ele>395.841</ele>
        <time>2020-07-26T06:38:26Z</time>
      </trkpt>
      <trkpt lat="41.819129" lon="2.571248">
        <ele>395.005</ele>
        <time>2020-07-26T06:38:27Z</time>
      </trkpt>
      <trkpt lat="41.819277" lon="2.571195">
        <ele>392.808</ele>
        <time>2020-07-26T06:38:29Z</time>
      </trkpt>
      <trkpt lat="41.819375" lon="2.571116">
        <ele>391.027</ele>
        <time>2020-07-26T06:38:31Z</time>
      </trkpt>
      <trkpt lat="41.819473" lon="2.571040">
        <ele>389.295</ele>
        <time>2020-07-26T06:38:33Z</time>
      </trkpt>
      <trkpt lat="41.819588" lon="2.570996">
        <ele>387.048</ele>
        <time>2020-07-26T06:38:35Z</time>
      </trkpt>
      <trkpt lat="41.819722" lon="2.570925">
        <ele>384.883</ele>
        <time>2020-07-26T06:38:37Z</time>
      </trkpt>
      <trkpt lat="41.819857" lon="2.570847">
        <ele>382.811</ele>
        <time>2020-07-26T06:38:39Z</time>
      </trkpt>
      <trkpt lat="41.820010" lon="2.570732">
        <ele>381.244</ele>
        <time>2020-07-26T06:38:41Z</time>
      </trkpt>
      <trkpt lat="41.819986" lon="2.570554">
        <ele>379.448</ele>
        <time>2020-07-26T06:38:44Z</time>
      </trkpt>
      <trkpt lat="41.819895" lon="2.570462">
        <ele>378.624</ele>
        <time>2020-07-26T06:38:46Z</time>
      </trkpt>
      <trkpt lat="41.819786" lon="2.570437">
        <ele>378.339</ele>
        <time>2020-07-26T06:38:48Z</time>
      </trkpt>
      <trkpt lat="41.819670" lon="2.570438">
        <ele>378.601</ele>
        <time>2020-07-26T06:38:51Z</time>
      </trkpt>
      <trkpt lat="41.819576" lon="2.570454">
        <ele>378.921</ele>
        <time>2020-07-26T06:38:53Z</time>
      </trkpt>
      <trkpt lat="41.819453" lon="2.570458">
        <ele>379.308</ele>
        <time>2020-07-26T06:38:55Z</time>
      </trkpt>
      <trkpt lat="41.819344" lon="2.570435">
        <ele>379.538</ele>
        <time>2020-07-26T06:38:57Z</time>
      </trkpt>
      <trkpt lat="41.819249" lon="2.570433">
        <ele>380.146</ele>
        <time>2020-07-26T06:38:59Z</time>
      </trkpt>
      <trkpt lat="41.819128" lon="2.570419">
        <ele>381.179</ele>
        <time>2020-07-26T06:39:02Z</time>
      </trkpt>
      <trkpt lat="41.819022" lon="2.570379">
        <ele>382.314</ele>
        <time>2020-07-26T06:39:05Z</time>
      </trkpt>
      <trkpt lat="41.818935" lon="2.570312">
        <ele>383.342</ele>
        <time>2020-07-26T06:39:08Z</time>
      </trkpt>
      <trkpt lat="41.818846" lon="2.570202">
        <ele>384.385</ele>
        <time>2020-07-26T06:39:12Z</time>
      </trkpt>
      <trkpt lat="41.818784" lon="2.570158">
        <ele>384.779</ele>
        <time>2020-07-26T06:39:14Z</time>
      </trkpt>
      <trkpt lat="41.818719" lon="2.570122">
        <ele>385.035</ele>
        <time>2020-07-26T06:39:16Z</time>
      </trkpt>
      <trkpt lat="41.818685" lon="2.570107">
        <ele>385.192</ele>
        <time>2020-07-26T06:39:17Z</time>
      </trkpt>
      <trkpt lat="41.818650" lon="2.570092">
        <ele>385.273</ele>
        <time>2020-07-26T06:39:18Z</time>
      </trkpt>
      <trkpt lat="41.818547" lon="2.570037">
        <ele>384.620</ele>
        <time>2020-07-26T06:39:21Z</time>
      </trkpt>
      <trkpt lat="41.818456" lon="2.569999">
        <ele>383.408</ele>
        <time>2020-07-26T06:39:24Z</time>
      </trkpt>
      <trkpt lat="41.818405" lon="2.569876">
        <ele>382.284</ele>
        <time>2020-07-26T06:39:28Z</time>
      </trkpt>
      <trkpt lat="41.818443" lon="2.569760">
        <ele>381.482</ele>
        <time>2020-07-26T06:39:30Z</time>
      </trkpt>
      <trkpt lat="41.818537" lon="2.569573">
        <ele>380.435</ele>
        <time>2020-07-26T06:39:32Z</time>
      </trkpt>
      <trkpt lat="41.818589" lon="2.569384">
        <ele>379.050</ele>
        <time>2020-07-26T06:39:34Z</time>
      </trkpt>
      <trkpt lat="41.818639" lon="2.569208">
        <ele>378.278</ele>
        <time>2020-07-26T06:39:36Z</time>
      </trkpt>
      <trkpt lat="41.818654" lon="2.569057">
        <ele>377.421</ele>
        <time>2020-07-26T06:39:38Z</time>
      </trkpt>
      <trkpt lat="41.818631" lon="2.568920">
        <ele>376.645</ele>
        <time>2020-07-26T06:39:40Z</time>
      </trkpt>
      <trkpt lat="41.818556" lon="2.568848">
        <ele>376.741</ele>
        <time>2020-07-26T06:39:42Z</time>
      </trkpt>
      <trkpt lat="41.818430" lon="2.568819">
        <ele>376.728</ele>
        <time>2020-07-26T06:39:44Z</time>
      </trkpt>
      <trkpt lat="41.818335" lon="2.568795">
        <ele>377.389</ele>
        <time>2020-07-26T06:39:46Z</time>
      </trkpt>
      <trkpt lat="41.818220" lon="2.568772">
        <ele>378.717</ele>
        <time>2020-07-26T06:39:50Z</time>
      </trkpt>
      <trkpt lat="41.818111" lon="2.568755">
        <ele>379.908</ele>
        <time>2020-07-26T06:39:54Z</time>
      </trkpt>
      <trkpt lat="41.818000" lon="2.568741">
        <ele>380.987</ele>
        <time>2020-07-26T06:39:57Z</time>
      </trkpt>
      <trkpt lat="41.817916" lon="2.568786">
        <ele>382.795</ele>
        <time>2020-07-26T06:40:03Z</time>
      </trkpt>
      <trkpt lat="41.817839" lon="2.568881">
        <ele>384.338</ele>
        <time>2020-07-26T06:40:08Z</time>
      </trkpt>
      <trkpt lat="41.817798" lon="2.569004">
        <ele>385.593</ele>
        <time>2020-07-26T06:40:13Z</time>
      </trkpt>
      <trkpt lat="41.817726" lon="2.569103">
        <ele>386.791</ele>
        <time>2020-07-26T06:40:18Z</time>
      </trkpt>
      <trkpt lat="41.817642" lon="2.569173">
        <ele>387.754</ele>
        <time>2020-07-26T06:40:23Z</time>
      </trkpt>
      <trkpt lat="41.817556" lon="2.569210">
        <ele>389.318</ele>
        <time>2020-07-26T06:40:27Z</time>
      </trkpt>
      <trkpt lat="41.817530" lon="2.569217">
        <ele>389.524</ele>
        <time>2020-07-26T06:40:28Z</time>
      </trkpt>
      <trkpt lat="41.817509" lon="2.569225">
        <ele>389.659</ele>
        <time>2020-07-26T06:40:29Z</time>
      </trkpt>
      <trkpt lat="41.817488" lon="2.569227">
        <ele>389.703</ele>
        <time>2020-07-26T06:40:30Z</time>
      </trkpt>
      <trkpt lat="41.817469" lon="2.569228">
        <ele>389.723</ele>
        <time>2020-07-26T06:40:31Z</time>
      </trkpt>
      <trkpt lat="41.817448" lon="2.569237">
        <ele>389.908</ele>
        <time>2020-07-26T06:40:32Z</time>
      </trkpt>
      <trkpt lat="41.817426" lon="2.569246">
        <ele>390.180</ele>
        <time>2020-07-26T06:40:33Z</time>
      </trkpt>
      <trkpt lat="41.817406" lon="2.569253">
        <ele>390.318</ele>
        <time>2020-07-26T06:40:34Z</time>
      </trkpt>
      <trkpt lat="41.817384" lon="2.569256">
        <ele>390.551</ele>
        <time>2020-07-26T06:40:35Z</time>
      </trkpt>
      <trkpt lat="41.817361" lon="2.569258">
        <ele>390.996</ele>
        <time>2020-07-26T06:40:36Z</time>
      </trkpt>
      <trkpt lat="41.817338" lon="2.569258">
        <ele>391.384</ele>
        <time>2020-07-26T06:40:37Z</time>
      </trkpt>
      <trkpt lat="41.817316" lon="2.569258">
        <ele>391.517</ele>
        <time>2020-07-26T06:40:38Z</time>
      </trkpt>
      <trkpt lat="41.817294" lon="2.569258">
        <ele>391.991</ele>
        <time>2020-07-26T06:40:39Z</time>
      </trkpt>
      <trkpt lat="41.817272" lon="2.569258">
        <ele>392.157</ele>
        <time>2020-07-26T06:40:40Z</time>
      </trkpt>
      <trkpt lat="41.817252" lon="2.569257">
        <ele>392.523</ele>
        <time>2020-07-26T06:40:41Z</time>
      </trkpt>
      <trkpt lat="41.817230" lon="2.569254">
        <ele>392.783</ele>
        <time>2020-07-26T06:40:42Z</time>
      </trkpt>
      <trkpt lat="41.817208" lon="2.569252">
        <ele>393.311</ele>
        <time>2020-07-26T06:40:43Z</time>
      </trkpt>
      <trkpt lat="41.817185" lon="2.569249">
        <ele>393.508</ele>
        <time>2020-07-26T06:40:44Z</time>
      </trkpt>
      <trkpt lat="41.817163" lon="2.569249">
        <ele>393.987</ele>
        <time>2020-07-26T06:40:45Z</time>
      </trkpt>
      <trkpt lat="41.817140" lon="2.569253">
        <ele>394.095</ele>
        <time>2020-07-26T06:40:46Z</time>
      </trkpt>
      <trkpt lat="41.817119" lon="2.569260">
        <ele>394.128</ele>
        <time>2020-07-26T06:40:47Z</time>
      </trkpt>
      <trkpt lat="41.817098" lon="2.569271">
        <ele>394.373</ele>
        <time>2020-07-26T06:40:48Z</time>
      </trkpt>
      <trkpt lat="41.817077" lon="2.569281">
        <ele>394.341</ele>
        <time>2020-07-26T06:40:49Z</time>
      </trkpt>
      <trkpt lat="41.817056" lon="2.569292">
        <ele>394.724</ele>
        <time>2020-07-26T06:40:50Z</time>
      </trkpt>
      <trkpt lat="41.817038" lon="2.569307">
        <ele>394.988</ele>
        <time>2020-07-26T06:40:51Z</time>
      </trkpt>
      <trkpt lat="41.817021" lon="2.569323">
        <ele>395.334</ele>
        <time>2020-07-26T06:40:52Z</time>
      </trkpt>
      <trkpt lat="41.817002" lon="2.569339">
        <ele>395.735</ele>
        <time>2020-07-26T06:40:53Z</time>
      </trkpt>
      <trkpt lat="41.816986" lon="2.569354">
        <ele>396.186</ele>
        <time>2020-07-26T06:40:54Z</time>
      </trkpt>
      <trkpt lat="41.816970" lon="2.569366">
        <ele>396.314</ele>
        <time>2020-07-26T06:40:55Z</time>
      </trkpt>
      <trkpt lat="41.816938" lon="2.569397">
        <ele>396.908</ele>
        <time>2020-07-26T06:40:57Z</time>
      </trkpt>
      <trkpt lat="41.816919" lon="2.569413">
        <ele>397.328</ele>
        <time>2020-07-26T06:40:58Z</time>
      </trkpt>
      <trkpt lat="41.816901" lon="2.569424">
        <ele>397.576</ele>
        <time>2020-07-26T06:40:59Z</time>
      </trkpt>
      <trkpt lat="41.816884" lon="2.569435">
        <ele>397.779</ele>
        <time>2020-07-26T06:41:00Z</time>
      </trkpt>
      <trkpt lat="41.816863" lon="2.569442">
        <ele>397.914</ele>
        <time>2020-07-26T06:41:01Z</time>
      </trkpt>
      <trkpt lat="41.816841" lon="2.569450">
        <ele>398.192</ele>
        <time>2020-07-26T06:41:02Z</time>
      </trkpt>
      <trkpt lat="41.816816" lon="2.569457">
        <ele>398.235</ele>
        <time>2020-07-26T06:41:03Z</time>
      </trkpt>
      <trkpt lat="41.816792" lon="2.569464">
        <ele>398.599</ele>
        <time>2020-07-26T06:41:04Z</time>
      </trkpt>
      <trkpt lat="41.816769" lon="2.569472">
        <ele>398.995</ele>
        <time>2020-07-26T06:41:05Z</time>
      </trkpt>
      <trkpt lat="41.816748" lon="2.569483">
        <ele>399.065</ele>
        <time>2020-07-26T06:41:06Z</time>
      </trkpt>
      <trkpt lat="41.816728" lon="2.569504">
        <ele>399.168</ele>
        <time>2020-07-26T06:41:07Z</time>
      </trkpt>
      <trkpt lat="41.816704" lon="2.569518">
        <ele>399.314</ele>
        <time>2020-07-26T06:41:08Z</time>
      </trkpt>
      <trkpt lat="41.816680" lon="2.569528">
        <ele>399.508</ele>
        <time>2020-07-26T06:41:09Z</time>
      </trkpt>
      <trkpt lat="41.816660" lon="2.569534">
        <ele>399.731</ele>
        <time>2020-07-26T06:41:10Z</time>
      </trkpt>
      <trkpt lat="41.816638" lon="2.569540">
        <ele>399.749</ele>
        <time>2020-07-26T06:41:11Z</time>
      </trkpt>
      <trkpt lat="41.816616" lon="2.569544">
        <ele>400.172</ele>
        <time>2020-07-26T06:41:12Z</time>
      </trkpt>
      <trkpt lat="41.816507" lon="2.569577">
        <ele>401.237</ele>
        <time>2020-07-26T06:41:17Z</time>
      </trkpt>
      <trkpt lat="41.816447" lon="2.569543">
        <ele>402.145</ele>
        <time>2020-07-26T06:41:20Z</time>
      </trkpt>
      <trkpt lat="41.816432" lon="2.569525">
        <ele>402.358</ele>
        <time>2020-07-26T06:41:21Z</time>
      </trkpt>
      <trkpt lat="41.816398" lon="2.569405">
        <ele>403.552</ele>
        <time>2020-07-26T06:41:26Z</time>
      </trkpt>
      <trkpt lat="41.816398" lon="2.569380">
        <ele>403.768</ele>
        <time>2020-07-26T06:41:27Z</time>
      </trkpt>
      <trkpt lat="41.816398" lon="2.569355">
        <ele>403.965</ele>
        <time>2020-07-26T06:41:28Z</time>
      </trkpt>
      <trkpt lat="41.816396" lon="2.569330">
        <ele>404.368</ele>
        <time>2020-07-26T06:41:29Z</time>
      </trkpt>
      <trkpt lat="41.816399" lon="2.569306">
        <ele>404.314</ele>
        <time>2020-07-26T06:41:30Z</time>
      </trkpt>
      <trkpt lat="41.816406" lon="2.569280">
        <ele>404.508</ele>
        <time>2020-07-26T06:41:31Z</time>
      </trkpt>
      <trkpt lat="41.816417" lon="2.569252">
        <ele>404.781</ele>
        <time>2020-07-26T06:41:32Z</time>
      </trkpt>
      <trkpt lat="41.816423" lon="2.569225">
        <ele>404.999</ele>
        <time>2020-07-26T06:41:33Z</time>
      </trkpt>
      <trkpt lat="41.816424" lon="2.569198">
        <ele>405.132</ele>
        <time>2020-07-26T06:41:34Z</time>
      </trkpt>
      <trkpt lat="41.816423" lon="2.569174">
        <ele>405.567</ele>
        <time>2020-07-26T06:41:35Z</time>
      </trkpt>
      <trkpt lat="41.816421" lon="2.569150">
        <ele>405.645</ele>
        <time>2020-07-26T06:41:36Z</time>
      </trkpt>
      <trkpt lat="41.816419" lon="2.569124">
        <ele>405.688</ele>
        <time>2020-07-26T06:41:37Z</time>
      </trkpt>
      <trkpt lat="41.816416" lon="2.569097">
        <ele>405.922</ele>
        <time>2020-07-26T06:41:38Z</time>
      </trkpt>
      <trkpt lat="41.816421" lon="2.568963">
        <ele>406.338</ele>
        <time>2020-07-26T06:41:41Z</time>
      </trkpt>
      <trkpt lat="41.816399" lon="2.568831">
        <ele>407.147</ele>
        <time>2020-07-26T06:41:44Z</time>
      </trkpt>
      <trkpt lat="41.816420" lon="2.568700">
        <ele>407.529</ele>
        <time>2020-07-26T06:41:47Z</time>
      </trkpt>
      <trkpt lat="41.816426" lon="2.568616">
        <ele>407.521</ele>
        <time>2020-07-26T06:41:49Z</time>
      </trkpt>
      <trkpt lat="41.816431" lon="2.568577">
        <ele>407.608</ele>
        <time>2020-07-26T06:41:50Z</time>
      </trkpt>
      <trkpt lat="41.816436" lon="2.568535">
        <ele>407.969</ele>
        <time>2020-07-26T06:41:51Z</time>
      </trkpt>
      <trkpt lat="41.816440" lon="2.568495">
        <ele>408.187</ele>
        <time>2020-07-26T06:41:52Z</time>
      </trkpt>
      <trkpt lat="41.816447" lon="2.568456">
        <ele>408.210</ele>
        <time>2020-07-26T06:41:53Z</time>
      </trkpt>
      <trkpt lat="41.816456" lon="2.568411">
        <ele>408.355</ele>
        <time>2020-07-26T06:41:54Z</time>
      </trkpt>
      <trkpt lat="41.816467" lon="2.568368">
        <ele>408.213</ele>
        <time>2020-07-26T06:41:55Z</time>
      </trkpt>
      <trkpt lat="41.816509" lon="2.568234">
        <ele>408.966</ele>
        <time>2020-07-26T06:41:59Z</time>
      </trkpt>
      <trkpt lat="41.816548" lon="2.568120">
        <ele>409.130</ele>
        <time>2020-07-26T06:42:02Z</time>
      </trkpt>
      <trkpt lat="41.816601" lon="2.567992">
        <ele>409.996</ele>
        <time>2020-07-26T06:42:06Z</time>
      </trkpt>
      <trkpt lat="41.816661" lon="2.567879">
        <ele>410.267</ele>
        <time>2020-07-26T06:42:11Z</time>
      </trkpt>
      <trkpt lat="41.816734" lon="2.567741">
        <ele>410.681</ele>
        <time>2020-07-26T06:42:15Z</time>
      </trkpt>
      <trkpt lat="41.816773" lon="2.567625">
        <ele>411.119</ele>
        <time>2020-07-26T06:42:18Z</time>
      </trkpt>
      <trkpt lat="41.816702" lon="2.567533">
        <ele>411.708</ele>
        <time>2020-07-26T06:42:23Z</time>
      </trkpt>
      <trkpt lat="41.816599" lon="2.567498">
        <ele>412.571</ele>
        <time>2020-07-26T06:42:26Z</time>
      </trkpt>
      <trkpt lat="41.816509" lon="2.567466">
        <ele>412.929</ele>
        <time>2020-07-26T06:42:28Z</time>
      </trkpt>
      <trkpt lat="41.816410" lon="2.567448">
        <ele>413.532</ele>
        <time>2020-07-26T06:42:31Z</time>
      </trkpt>
      <trkpt lat="41.816346" lon="2.567435">
        <ele>414.127</ele>
        <time>2020-07-26T06:42:33Z</time>
      </trkpt>
      <trkpt lat="41.816317" lon="2.567432">
        <ele>414.585</ele>
        <time>2020-07-26T06:42:34Z</time>
      </trkpt>
      <trkpt lat="41.816287" lon="2.567425">
        <ele>414.728</ele>
        <time>2020-07-26T06:42:35Z</time>
      </trkpt>
      <trkpt lat="41.816257" lon="2.567419">
        <ele>414.712</ele>
        <time>2020-07-26T06:42:36Z</time>
      </trkpt>
      <trkpt lat="41.816228" lon="2.567410">
        <ele>415.148</ele>
        <time>2020-07-26T06:42:37Z</time>
      </trkpt>
      <trkpt lat="41.816200" lon="2.567401">
        <ele>415.579</ele>
        <time>2020-07-26T06:42:38Z</time>
      </trkpt>
      <trkpt lat="41.816176" lon="2.567393">
        <ele>415.705</ele>
        <time>2020-07-26T06:42:39Z</time>
      </trkpt>
      <trkpt lat="41.816154" lon="2.567385">
        <ele>416.125</ele>
        <time>2020-07-26T06:42:40Z</time>
      </trkpt>
      <trkpt lat="41.816130" lon="2.567371">
        <ele>416.208</ele>
        <time>2020-07-26T06:42:41Z</time>
      </trkpt>
      <trkpt lat="41.816108" lon="2.567357">
        <ele>416.712</ele>
        <time>2020-07-26T06:42:42Z</time>
      </trkpt>
      <trkpt lat="41.816086" lon="2.567344">
        <ele>417.170</ele>
        <time>2020-07-26T06:42:43Z</time>
      </trkpt>
      <trkpt lat="41.816064" lon="2.567333">
        <ele>417.543</ele>
        <time>2020-07-26T06:42:44Z</time>
      </trkpt>
      <trkpt lat="41.816045" lon="2.567322">
        <ele>417.778</ele>
        <time>2020-07-26T06:42:45Z</time>
      </trkpt>
      <trkpt lat="41.815990" lon="2.567296">
        <ele>418.326</ele>
        <time>2020-07-26T06:42:48Z</time>
      </trkpt>
      <trkpt lat="41.815970" lon="2.567280">
        <ele>418.749</ele>
        <time>2020-07-26T06:42:49Z</time>
      </trkpt>
      <trkpt lat="41.815948" lon="2.567265">
        <ele>418.743</ele>
        <time>2020-07-26T06:42:50Z</time>
      </trkpt>
      <trkpt lat="41.815930" lon="2.567246">
        <ele>418.989</ele>
        <time>2020-07-26T06:42:51Z</time>
      </trkpt>
      <trkpt lat="41.815914" lon="2.567224">
        <ele>418.666</ele>
        <time>2020-07-26T06:42:52Z</time>
      </trkpt>
      <trkpt lat="41.815896" lon="2.567196">
        <ele>418.929</ele>
        <time>2020-07-26T06:42:53Z</time>
      </trkpt>
      <trkpt lat="41.815879" lon="2.567172">
        <ele>419.321</ele>
        <time>2020-07-26T06:42:54Z</time>
      </trkpt>
      <trkpt lat="41.815865" lon="2.567144">
        <ele>419.508</ele>
        <time>2020-07-26T06:42:55Z</time>
      </trkpt>
      <trkpt lat="41.815857" lon="2.567113">
        <ele>419.611</ele>
        <time>2020-07-26T06:42:56Z</time>
      </trkpt>
      <trkpt lat="41.815852" lon="2.567080">
        <ele>419.659</ele>
        <time>2020-07-26T06:42:57Z</time>
      </trkpt>
      <trkpt lat="41.815849" lon="2.567041">
        <ele>419.662</ele>
        <time>2020-07-26T06:42:58Z</time>
      </trkpt>
      <trkpt lat="41.815839" lon="2.567003">
        <ele>419.737</ele>
        <time>2020-07-26T06:42:59Z</time>
      </trkpt>
      <trkpt lat="41.815834" lon="2.566958">
        <ele>419.745</ele>
        <time>2020-07-26T06:43:00Z</time>
      </trkpt>
      <trkpt lat="41.815828" lon="2.566913">
        <ele>419.948</ele>
        <time>2020-07-26T06:43:01Z</time>
      </trkpt>
      <trkpt lat="41.815824" lon="2.566869">
        <ele>419.842</ele>
        <time>2020-07-26T06:43:02Z</time>
      </trkpt>
      <trkpt lat="41.815820" lon="2.566829">
        <ele>419.778</ele>
        <time>2020-07-26T06:43:03Z</time>
      </trkpt>
      <trkpt lat="41.815818" lon="2.566790">
        <ele>419.919</ele>
        <time>2020-07-26T06:43:04Z</time>
      </trkpt>
      <trkpt lat="41.815813" lon="2.566750">
        <ele>420.109</ele>
        <time>2020-07-26T06:43:05Z</time>
      </trkpt>
      <trkpt lat="41.815813" lon="2.566712">
        <ele>420.219</ele>
        <time>2020-07-26T06:43:06Z</time>
      </trkpt>
      <trkpt lat="41.815813" lon="2.566674">
        <ele>420.208</ele>
        <time>2020-07-26T06:43:07Z</time>
      </trkpt>
      <trkpt lat="41.815813" lon="2.566634">
        <ele>420.396</ele>
        <time>2020-07-26T06:43:08Z</time>
      </trkpt>
      <trkpt lat="41.815813" lon="2.566596">
        <ele>420.334</ele>
        <time>2020-07-26T06:43:09Z</time>
      </trkpt>
      <trkpt lat="41.815811" lon="2.566560">
        <ele>420.397</ele>
        <time>2020-07-26T06:43:10Z</time>
      </trkpt>
      <trkpt lat="41.815809" lon="2.566523">
        <ele>420.542</ele>
        <time>2020-07-26T06:43:11Z</time>
      </trkpt>
      <trkpt lat="41.815807" lon="2.566480">
        <ele>420.740</ele>
        <time>2020-07-26T06:43:12Z</time>
      </trkpt>
      <trkpt lat="41.815805" lon="2.566436">
        <ele>420.673</ele>
        <time>2020-07-26T06:43:13Z</time>
      </trkpt>
      <trkpt lat="41.815796" lon="2.566393">
        <ele>420.787</ele>
        <time>2020-07-26T06:43:14Z</time>
      </trkpt>
      <trkpt lat="41.815788" lon="2.566352">
        <ele>420.773</ele>
        <time>2020-07-26T06:43:15Z</time>
      </trkpt>
      <trkpt lat="41.815781" lon="2.566310">
        <ele>420.987</ele>
        <time>2020-07-26T06:43:16Z</time>
      </trkpt>
      <trkpt lat="41.815774" lon="2.566269">
        <ele>421.142</ele>
        <time>2020-07-26T06:43:17Z</time>
      </trkpt>
      <trkpt lat="41.815770" lon="2.566227">
        <ele>421.226</ele>
        <time>2020-07-26T06:43:18Z</time>
      </trkpt>
      <trkpt lat="41.815765" lon="2.566184">
        <ele>421.208</ele>
        <time>2020-07-26T06:43:19Z</time>
      </trkpt>
      <trkpt lat="41.815753" lon="2.566143">
        <ele>421.373</ele>
        <time>2020-07-26T06:43:20Z</time>
      </trkpt>
      <trkpt lat="41.815741" lon="2.566106">
        <ele>421.371</ele>
        <time>2020-07-26T06:43:21Z</time>
      </trkpt>
      <trkpt lat="41.815727" lon="2.566070">
        <ele>421.584</ele>
        <time>2020-07-26T06:43:22Z</time>
      </trkpt>
      <trkpt lat="41.815714" lon="2.566033">
        <ele>421.639</ele>
        <time>2020-07-26T06:43:23Z</time>
      </trkpt>
      <trkpt lat="41.815701" lon="2.565994">
        <ele>421.477</ele>
        <time>2020-07-26T06:43:24Z</time>
      </trkpt>
      <trkpt lat="41.815687" lon="2.565956">
        <ele>421.540</ele>
        <time>2020-07-26T06:43:25Z</time>
      </trkpt>
      <trkpt lat="41.815673" lon="2.565918">
        <ele>421.764</ele>
        <time>2020-07-26T06:43:26Z</time>
      </trkpt>
      <trkpt lat="41.815660" lon="2.565881">
        <ele>421.750</ele>
        <time>2020-07-26T06:43:27Z</time>
      </trkpt>
      <trkpt lat="41.815646" lon="2.565844">
        <ele>421.614</ele>
        <time>2020-07-26T06:43:28Z</time>
      </trkpt>
      <trkpt lat="41.815633" lon="2.565810">
        <ele>421.654</ele>
        <time>2020-07-26T06:43:29Z</time>
      </trkpt>
      <trkpt lat="41.815619" lon="2.565773">
        <ele>421.609</ele>
        <time>2020-07-26T06:43:30Z</time>
      </trkpt>
      <trkpt lat="41.815604" lon="2.565730">
        <ele>421.708</ele>
        <time>2020-07-26T06:43:31Z</time>
      </trkpt>
      <trkpt lat="41.815591" lon="2.565682">
        <ele>421.786</ele>
        <time>2020-07-26T06:43:32Z</time>
      </trkpt>
      <trkpt lat="41.815579" lon="2.565635">
        <ele>421.744</ele>
        <time>2020-07-26T06:43:33Z</time>
      </trkpt>
      <trkpt lat="41.815558" lon="2.565504">
        <ele>422.317</ele>
        <time>2020-07-26T06:43:36Z</time>
      </trkpt>
      <trkpt lat="41.815546" lon="2.565378">
        <ele>423.562</ele>
        <time>2020-07-26T06:43:39Z</time>
      </trkpt>
      <trkpt lat="41.815526" lon="2.565255">
        <ele>424.110</ele>
        <time>2020-07-26T06:43:42Z</time>
      </trkpt>
      <trkpt lat="41.815540" lon="2.565137">
        <ele>425.163</ele>
        <time>2020-07-26T06:43:45Z</time>
      </trkpt>
      <trkpt lat="41.815556" lon="2.565061">
        <ele>425.927</ele>
        <time>2020-07-26T06:43:47Z</time>
      </trkpt>
      <trkpt lat="41.815565" lon="2.565024">
        <ele>426.383</ele>
        <time>2020-07-26T06:43:48Z</time>
      </trkpt>
      <trkpt lat="41.815574" lon="2.564986">
        <ele>426.797</ele>
        <time>2020-07-26T06:43:49Z</time>
      </trkpt>
      <trkpt lat="41.815583" lon="2.564950">
        <ele>426.923</ele>
        <time>2020-07-26T06:43:50Z</time>
      </trkpt>
      <trkpt lat="41.815592" lon="2.564912">
        <ele>427.325</ele>
        <time>2020-07-26T06:43:51Z</time>
      </trkpt>
      <trkpt lat="41.815603" lon="2.564876">
        <ele>427.508</ele>
        <time>2020-07-26T06:43:52Z</time>
      </trkpt>
      <trkpt lat="41.815615" lon="2.564839">
        <ele>427.984</ele>
        <time>2020-07-26T06:43:53Z</time>
      </trkpt>
      <trkpt lat="41.815630" lon="2.564804">
        <ele>428.012</ele>
        <time>2020-07-26T06:43:54Z</time>
      </trkpt>
      <trkpt lat="41.815646" lon="2.564768">
        <ele>428.145</ele>
        <time>2020-07-26T06:43:55Z</time>
      </trkpt>
      <trkpt lat="41.815660" lon="2.564730">
        <ele>428.340</ele>
        <time>2020-07-26T06:43:56Z</time>
      </trkpt>
      <trkpt lat="41.815678" lon="2.564693">
        <ele>428.738</ele>
        <time>2020-07-26T06:43:57Z</time>
      </trkpt>
      <trkpt lat="41.815695" lon="2.564657">
        <ele>428.921</ele>
        <time>2020-07-26T06:43:58Z</time>
      </trkpt>
      <trkpt lat="41.815710" lon="2.564625">
        <ele>429.025</ele>
        <time>2020-07-26T06:43:59Z</time>
      </trkpt>
      <trkpt lat="41.815726" lon="2.564590">
        <ele>429.021</ele>
        <time>2020-07-26T06:44:00Z</time>
      </trkpt>
      <trkpt lat="41.815731" lon="2.564553">
        <ele>429.343</ele>
        <time>2020-07-26T06:44:01Z</time>
      </trkpt>
      <trkpt lat="41.815672" lon="2.564427">
        <ele>429.764</ele>
        <time>2020-07-26T06:44:04Z</time>
      </trkpt>
      <trkpt lat="41.815592" lon="2.564371">
        <ele>430.310</ele>
        <time>2020-07-26T06:44:07Z</time>
      </trkpt>
      <trkpt lat="41.815490" lon="2.564326">
        <ele>431.508</ele>
        <time>2020-07-26T06:44:11Z</time>
      </trkpt>
      <trkpt lat="41.815418" lon="2.564247">
        <ele>432.369</ele>
        <time>2020-07-26T06:44:14Z</time>
      </trkpt>
      <trkpt lat="41.815363" lon="2.564119">
        <ele>433.347</ele>
        <time>2020-07-26T06:44:17Z</time>
      </trkpt>
      <trkpt lat="41.815318" lon="2.563969">
        <ele>434.050</ele>
        <time>2020-07-26T06:44:20Z</time>
      </trkpt>
      <trkpt lat="41.815274" lon="2.563826">
        <ele>434.575</ele>
        <time>2020-07-26T06:44:23Z</time>
      </trkpt>
      <trkpt lat="41.815234" lon="2.563690">
        <ele>434.663</ele>
        <time>2020-07-26T06:44:26Z</time>
      </trkpt>
      <trkpt lat="41.815148" lon="2.563560">
        <ele>434.616</ele>
        <time>2020-07-26T06:44:29Z</time>
      </trkpt>
      <trkpt lat="41.815067" lon="2.563436">
        <ele>434.730</ele>
        <time>2020-07-26T06:44:32Z</time>
      </trkpt>
      <trkpt lat="41.814966" lon="2.563362">
        <ele>434.686</ele>
        <time>2020-07-26T06:44:35Z</time>
      </trkpt>
      <trkpt lat="41.814912" lon="2.563487">
        <ele>435.519</ele>
        <time>2020-07-26T06:44:38Z</time>
      </trkpt>
      <trkpt lat="41.814868" lon="2.563643">
        <ele>436.509</ele>
        <time>2020-07-26T06:44:41Z</time>
      </trkpt>
      <trkpt lat="41.814822" lon="2.563794">
        <ele>437.019</ele>
        <time>2020-07-26T06:44:44Z</time>
      </trkpt>
      <trkpt lat="41.814773" lon="2.563933">
        <ele>437.908</ele>
        <time>2020-07-26T06:44:47Z</time>
      </trkpt>
      <trkpt lat="41.814683" lon="2.564051">
        <ele>438.346</ele>
        <time>2020-07-26T06:44:50Z</time>
      </trkpt>
      <trkpt lat="41.814655" lon="2.564086">
        <ele>438.324</ele>
        <time>2020-07-26T06:44:51Z</time>
      </trkpt>
      <trkpt lat="41.814622" lon="2.564121">
        <ele>438.597</ele>
        <time>2020-07-26T06:44:52Z</time>
      </trkpt>
      <trkpt lat="41.814590" lon="2.564156">
        <ele>438.792</ele>
        <time>2020-07-26T06:44:53Z</time>
      </trkpt>
      <trkpt lat="41.814557" lon="2.564193">
        <ele>438.980</ele>
        <time>2020-07-26T06:44:54Z</time>
      </trkpt>
      <trkpt lat="41.814527" lon="2.564229">
        <ele>439.083</ele>
        <time>2020-07-26T06:44:55Z</time>
      </trkpt>
      <trkpt lat="41.814496" lon="2.564266">
        <ele>439.127</ele>
        <time>2020-07-26T06:44:56Z</time>
      </trkpt>
      <trkpt lat="41.814468" lon="2.564302">
        <ele>439.393</ele>
        <time>2020-07-26T06:44:57Z</time>
      </trkpt>
      <trkpt lat="41.814438" lon="2.564332">
        <ele>439.314</ele>
        <time>2020-07-26T06:44:58Z</time>
      </trkpt>
      <trkpt lat="41.814404" lon="2.564360">
        <ele>439.554</ele>
        <time>2020-07-26T06:44:59Z</time>
      </trkpt>
      <trkpt lat="41.814370" lon="2.564386">
        <ele>439.709</ele>
        <time>2020-07-26T06:45:00Z</time>
      </trkpt>
      <trkpt lat="41.814334" lon="2.564408">
        <ele>440.108</ele>
        <time>2020-07-26T06:45:01Z</time>
      </trkpt>
      <trkpt lat="41.814298" lon="2.564429">
        <ele>440.576</ele>
        <time>2020-07-26T06:45:02Z</time>
      </trkpt>
      <trkpt lat="41.814262" lon="2.564445">
        <ele>440.774</ele>
        <time>2020-07-26T06:45:03Z</time>
      </trkpt>
      <trkpt lat="41.814226" lon="2.564457">
        <ele>440.917</ele>
        <time>2020-07-26T06:45:04Z</time>
      </trkpt>
      <trkpt lat="41.814189" lon="2.564465">
        <ele>441.362</ele>
        <time>2020-07-26T06:45:05Z</time>
      </trkpt>
      <trkpt lat="41.814154" lon="2.564471">
        <ele>441.750</ele>
        <time>2020-07-26T06:45:06Z</time>
      </trkpt>
      <trkpt lat="41.814118" lon="2.564476">
        <ele>442.193</ele>
        <time>2020-07-26T06:45:07Z</time>
      </trkpt>
      <trkpt lat="41.814079" lon="2.564473">
        <ele>442.517</ele>
        <time>2020-07-26T06:45:08Z</time>
      </trkpt>
      <trkpt lat="41.814045" lon="2.564461">
        <ele>442.713</ele>
        <time>2020-07-26T06:45:09Z</time>
      </trkpt>
      <trkpt lat="41.814010" lon="2.564443">
        <ele>442.757</ele>
        <time>2020-07-26T06:45:10Z</time>
      </trkpt>
      <trkpt lat="41.813979" lon="2.564423">
        <ele>442.900</ele>
        <time>2020-07-26T06:45:11Z</time>
      </trkpt>
      <trkpt lat="41.813952" lon="2.564400">
        <ele>443.320</ele>
        <time>2020-07-26T06:45:12Z</time>
      </trkpt>
      <trkpt lat="41.813921" lon="2.564373">
        <ele>443.308</ele>
        <time>2020-07-26T06:45:13Z</time>
      </trkpt>
      <trkpt lat="41.813895" lon="2.564349">
        <ele>443.570</ele>
        <time>2020-07-26T06:45:14Z</time>
      </trkpt>
      <trkpt lat="41.813872" lon="2.564326">
        <ele>443.778</ele>
        <time>2020-07-26T06:45:15Z</time>
      </trkpt>
      <trkpt lat="41.813847" lon="2.564303">
        <ele>443.941</ele>
        <time>2020-07-26T06:45:16Z</time>
      </trkpt>
      <trkpt lat="41.813819" lon="2.564279">
        <ele>444.126</ele>
        <time>2020-07-26T06:45:17Z</time>
      </trkpt>
      <trkpt lat="41.813790" lon="2.564245">
        <ele>444.354</ele>
        <time>2020-07-26T06:45:18Z</time>
      </trkpt>
      <trkpt lat="41.813760" lon="2.564205">
        <ele>444.527</ele>
        <time>2020-07-26T06:45:19Z</time>
      </trkpt>
      <trkpt lat="41.813731" lon="2.564166">
        <ele>444.671</ele>
        <time>2020-07-26T06:45:20Z</time>
      </trkpt>
      <trkpt lat="41.813702" lon="2.564126">
        <ele>444.717</ele>
        <time>2020-07-26T06:45:21Z</time>
      </trkpt>
      <trkpt lat="41.813675" lon="2.564086">
        <ele>444.762</ele>
        <time>2020-07-26T06:45:22Z</time>
      </trkpt>
      <trkpt lat="41.813649" lon="2.564045">
        <ele>445.183</ele>
        <time>2020-07-26T06:45:23Z</time>
      </trkpt>
      <trkpt lat="41.813624" lon="2.564004">
        <ele>445.211</ele>
        <time>2020-07-26T06:45:24Z</time>
      </trkpt>
      <trkpt lat="41.813600" lon="2.563963">
        <ele>445.308</ele>
        <time>2020-07-26T06:45:25Z</time>
      </trkpt>
      <trkpt lat="41.813578" lon="2.563923">
        <ele>445.751</ele>
        <time>2020-07-26T06:45:26Z</time>
      </trkpt>
      <trkpt lat="41.813554" lon="2.563883">
        <ele>445.729</ele>
        <time>2020-07-26T06:45:27Z</time>
      </trkpt>
      <trkpt lat="41.813529" lon="2.563844">
        <ele>445.972</ele>
        <time>2020-07-26T06:45:28Z</time>
      </trkpt>
      <trkpt lat="41.813502" lon="2.563807">
        <ele>446.197</ele>
        <time>2020-07-26T06:45:29Z</time>
      </trkpt>
      <trkpt lat="41.813471" lon="2.563769">
        <ele>446.345</ele>
        <time>2020-07-26T06:45:30Z</time>
      </trkpt>
      <trkpt lat="41.813442" lon="2.563734">
        <ele>446.378</ele>
        <time>2020-07-26T06:45:31Z</time>
      </trkpt>
      <trkpt lat="41.813414" lon="2.563702">
        <ele>446.512</ele>
        <time>2020-07-26T06:45:32Z</time>
      </trkpt>
      <trkpt lat="41.813385" lon="2.563670">
        <ele>446.748</ele>
        <time>2020-07-26T06:45:33Z</time>
      </trkpt>
      <trkpt lat="41.813355" lon="2.563640">
        <ele>446.726</ele>
        <time>2020-07-26T06:45:34Z</time>
      </trkpt>
      <trkpt lat="41.813325" lon="2.563613">
        <ele>446.947</ele>
        <time>2020-07-26T06:45:35Z</time>
      </trkpt>
      <trkpt lat="41.813293" lon="2.563590">
        <ele>447.111</ele>
        <time>2020-07-26T06:45:36Z</time>
      </trkpt>
      <trkpt lat="41.813262" lon="2.563566">
        <ele>447.208</ele>
        <time>2020-07-26T06:45:37Z</time>
      </trkpt>
      <trkpt lat="41.813232" lon="2.563542">
        <ele>447.337</ele>
        <time>2020-07-26T06:45:38Z</time>
      </trkpt>
      <trkpt lat="41.813201" lon="2.563521">
        <ele>447.555</ele>
        <time>2020-07-26T06:45:39Z</time>
      </trkpt>
      <trkpt lat="41.813168" lon="2.563504">
        <ele>447.718</ele>
        <time>2020-07-26T06:45:40Z</time>
      </trkpt>
      <trkpt lat="41.813138" lon="2.563490">
        <ele>447.943</ele>
        <time>2020-07-26T06:45:41Z</time>
      </trkpt>
      <trkpt lat="41.813112" lon="2.563473">
        <ele>448.091</ele>
        <time>2020-07-26T06:45:42Z</time>
      </trkpt>
      <trkpt lat="41.813085" lon="2.563455">
        <ele>448.084</ele>
        <time>2020-07-26T06:45:43Z</time>
      </trkpt>
      <trkpt lat="41.813068" lon="2.563439">
        <ele>447.828</ele>
        <time>2020-07-26T06:45:44Z</time>
      </trkpt>
      <trkpt lat="41.813048" lon="2.563423">
        <ele>447.944</ele>
        <time>2020-07-26T06:45:45Z</time>
      </trkpt>
      <trkpt lat="41.813004" lon="2.563410">
        <ele>448.033</ele>
        <time>2020-07-26T06:45:47Z</time>
      </trkpt>
      <trkpt lat="41.812985" lon="2.563396">
        <ele>448.123</ele>
        <time>2020-07-26T06:45:48Z</time>
      </trkpt>
      <trkpt lat="41.812964" lon="2.563379">
        <ele>448.015</ele>
        <time>2020-07-26T06:45:49Z</time>
      </trkpt>
      <trkpt lat="41.812940" lon="2.563363">
        <ele>448.008</ele>
        <time>2020-07-26T06:45:50Z</time>
      </trkpt>
      <trkpt lat="41.812917" lon="2.563356">
        <ele>447.888</ele>
        <time>2020-07-26T06:45:51Z</time>
      </trkpt>
      <trkpt lat="41.812896" lon="2.563357">
        <ele>447.786</ele>
        <time>2020-07-26T06:45:52Z</time>
      </trkpt>
      <trkpt lat="41.812877" lon="2.563366">
        <ele>447.699</ele>
        <time>2020-07-26T06:45:53Z</time>
      </trkpt>
      <trkpt lat="41.812859" lon="2.563372">
        <ele>447.734</ele>
        <time>2020-07-26T06:45:54Z</time>
      </trkpt>
      <trkpt lat="41.812836" lon="2.563390">
        <ele>447.662</ele>
        <time>2020-07-26T06:45:56Z</time>
      </trkpt>
      <trkpt lat="41.812819" lon="2.563423">
        <ele>447.665</ele>
        <time>2020-07-26T06:45:58Z</time>
      </trkpt>
      <trkpt lat="41.812793" lon="2.563442">
        <ele>447.499</ele>
        <time>2020-07-26T06:46:00Z</time>
      </trkpt>
      <trkpt lat="41.812777" lon="2.563458">
        <ele>447.395</ele>
        <time>2020-07-26T06:46:01Z</time>
      </trkpt>
      <trkpt lat="41.812760" lon="2.563475">
        <ele>447.225</ele>
        <time>2020-07-26T06:46:02Z</time>
      </trkpt>
      <trkpt lat="41.812734" lon="2.563494">
        <ele>447.226</ele>
        <time>2020-07-26T06:46:03Z</time>
      </trkpt>
      <trkpt lat="41.812714" lon="2.563519">
        <ele>447.208</ele>
        <time>2020-07-26T06:46:04Z</time>
      </trkpt>
      <trkpt lat="41.812695" lon="2.563542">
        <ele>447.208</ele>
        <time>2020-07-26T06:46:05Z</time>
      </trkpt>
      <trkpt lat="41.812676" lon="2.563564">
        <ele>447.347</ele>
        <time>2020-07-26T06:46:06Z</time>
      </trkpt>
      <trkpt lat="41.812655" lon="2.563591">
        <ele>447.325</ele>
        <time>2020-07-26T06:46:07Z</time>
      </trkpt>
      <trkpt lat="41.812635" lon="2.563623">
        <ele>447.218</ele>
        <time>2020-07-26T06:46:08Z</time>
      </trkpt>
      <trkpt lat="41.812616" lon="2.563661">
        <ele>447.383</ele>
        <time>2020-07-26T06:46:09Z</time>
      </trkpt>
      <trkpt lat="41.812598" lon="2.563704">
        <ele>447.371</ele>
        <time>2020-07-26T06:46:10Z</time>
      </trkpt>
      <trkpt lat="41.812578" lon="2.563749">
        <ele>447.334</ele>
        <time>2020-07-26T06:46:11Z</time>
      </trkpt>
      <trkpt lat="41.812555" lon="2.563789">
        <ele>447.598</ele>
        <time>2020-07-26T06:46:12Z</time>
      </trkpt>
      <trkpt lat="41.812530" lon="2.563828">
        <ele>447.724</ele>
        <time>2020-07-26T06:46:13Z</time>
      </trkpt>
      <trkpt lat="41.812504" lon="2.563862">
        <ele>447.989</ele>
        <time>2020-07-26T06:46:14Z</time>
      </trkpt>
      <trkpt lat="41.812478" lon="2.563895">
        <ele>448.006</ele>
        <time>2020-07-26T06:46:15Z</time>
      </trkpt>
      <trkpt lat="41.812450" lon="2.563927">
        <ele>448.026</ele>
        <time>2020-07-26T06:46:16Z</time>
      </trkpt>
      <trkpt lat="41.812426" lon="2.563955">
        <ele>448.108</ele>
        <time>2020-07-26T06:46:17Z</time>
      </trkpt>
      <trkpt lat="41.812403" lon="2.563981">
        <ele>448.353</ele>
        <time>2020-07-26T06:46:18Z</time>
      </trkpt>
      <trkpt lat="41.812379" lon="2.564003">
        <ele>448.391</ele>
        <time>2020-07-26T06:46:19Z</time>
      </trkpt>
      <trkpt lat="41.812358" lon="2.564024">
        <ele>448.344</ele>
        <time>2020-07-26T06:46:20Z</time>
      </trkpt>
      <trkpt lat="41.812337" lon="2.564043">
        <ele>448.739</ele>
        <time>2020-07-26T06:46:21Z</time>
      </trkpt>
      <trkpt lat="41.812318" lon="2.564055">
        <ele>448.787</ele>
        <time>2020-07-26T06:46:22Z</time>
      </trkpt>
      <trkpt lat="41.812299" lon="2.564057">
        <ele>448.990</ele>
        <time>2020-07-26T06:46:23Z</time>
      </trkpt>
      <trkpt lat="41.812280" lon="2.564053">
        <ele>449.184</ele>
        <time>2020-07-26T06:46:24Z</time>
      </trkpt>
      <trkpt lat="41.812250" lon="2.564040">
        <ele>449.330</ele>
        <time>2020-07-26T06:46:26Z</time>
      </trkpt>
      <trkpt lat="41.812232" lon="2.564015">
        <ele>449.758</ele>
        <time>2020-07-26T06:46:28Z</time>
      </trkpt>
      <trkpt lat="41.812216" lon="2.563985">
        <ele>450.152</ele>
        <time>2020-07-26T06:46:30Z</time>
      </trkpt>
      <trkpt lat="41.812202" lon="2.563969">
        <ele>450.317</ele>
        <time>2020-07-26T06:46:31Z</time>
      </trkpt>
      <trkpt lat="41.812126" lon="2.563904">
        <ele>451.508</ele>
        <time>2020-07-26T06:46:37Z</time>
      </trkpt>
      <trkpt lat="41.812056" lon="2.563796">
        <ele>453.230</ele>
        <time>2020-07-26T06:46:44Z</time>
      </trkpt>
      <trkpt lat="41.812003" lon="2.563680">
        <ele>454.578</ele>
        <time>2020-07-26T06:46:49Z</time>
      </trkpt>
      <trkpt lat="41.811953" lon="2.563566">
        <ele>455.231</ele>
        <time>2020-07-26T06:46:53Z</time>
      </trkpt>
      <trkpt lat="41.811907" lon="2.563450">
        <ele>455.976</ele>
        <time>2020-07-26T06:46:57Z</time>
      </trkpt>
      <trkpt lat="41.811849" lon="2.563319">
        <ele>456.974</ele>
        <time>2020-07-26T06:47:01Z</time>
      </trkpt>
      <trkpt lat="41.811795" lon="2.563194">
        <ele>457.757</ele>
        <time>2020-07-26T06:47:05Z</time>
      </trkpt>
      <trkpt lat="41.811743" lon="2.563055">
        <ele>458.521</ele>
        <time>2020-07-26T06:47:09Z</time>
      </trkpt>
      <trkpt lat="41.811690" lon="2.562933">
        <ele>459.517</ele>
        <time>2020-07-26T06:47:13Z</time>
      </trkpt>
      <trkpt lat="41.811638" lon="2.562818">
        <ele>460.521</ele>
        <time>2020-07-26T06:47:16Z</time>
      </trkpt>
      <trkpt lat="41.811590" lon="2.562693">
        <ele>461.341</ele>
        <time>2020-07-26T06:47:20Z</time>
      </trkpt>
      <trkpt lat="41.811582" lon="2.562662">
        <ele>461.305</ele>
        <time>2020-07-26T06:47:21Z</time>
      </trkpt>
      <trkpt lat="41.811570" lon="2.562634">
        <ele>461.508</ele>
        <time>2020-07-26T06:47:22Z</time>
      </trkpt>
      <trkpt lat="41.811562" lon="2.562604">
        <ele>461.637</ele>
        <time>2020-07-26T06:47:23Z</time>
      </trkpt>
      <trkpt lat="41.811558" lon="2.562573">
        <ele>461.925</ele>
        <time>2020-07-26T06:47:24Z</time>
      </trkpt>
      <trkpt lat="41.811554" lon="2.562541">
        <ele>462.168</ele>
        <time>2020-07-26T06:47:25Z</time>
      </trkpt>
      <trkpt lat="41.811551" lon="2.562508">
        <ele>462.243</ele>
        <time>2020-07-26T06:47:26Z</time>
      </trkpt>
      <trkpt lat="41.811549" lon="2.562474">
        <ele>462.581</ele>
        <time>2020-07-26T06:47:27Z</time>
      </trkpt>
      <trkpt lat="41.811547" lon="2.562440">
        <ele>462.754</ele>
        <time>2020-07-26T06:47:28Z</time>
      </trkpt>
      <trkpt lat="41.811548" lon="2.562405">
        <ele>462.928</ele>
        <time>2020-07-26T06:47:29Z</time>
      </trkpt>
      <trkpt lat="41.811550" lon="2.562374">
        <ele>463.014</ele>
        <time>2020-07-26T06:47:30Z</time>
      </trkpt>
      <trkpt lat="41.811554" lon="2.562343">
        <ele>463.328</ele>
        <time>2020-07-26T06:47:31Z</time>
      </trkpt>
      <trkpt lat="41.811557" lon="2.562311">
        <ele>463.389</ele>
        <time>2020-07-26T06:47:32Z</time>
      </trkpt>
      <trkpt lat="41.811561" lon="2.562281">
        <ele>463.717</ele>
        <time>2020-07-26T06:47:33Z</time>
      </trkpt>
      <trkpt lat="41.811563" lon="2.562249">
        <ele>463.708</ele>
        <time>2020-07-26T06:47:34Z</time>
      </trkpt>
      <trkpt lat="41.811564" lon="2.562214">
        <ele>464.167</ele>
        <time>2020-07-26T06:47:35Z</time>
      </trkpt>
      <trkpt lat="41.811565" lon="2.562178">
        <ele>464.395</ele>
        <time>2020-07-26T06:47:36Z</time>
      </trkpt>
      <trkpt lat="41.811567" lon="2.562143">
        <ele>464.598</ele>
        <time>2020-07-26T06:47:37Z</time>
      </trkpt>
      <trkpt lat="41.811570" lon="2.562106">
        <ele>464.633</ele>
        <time>2020-07-26T06:47:38Z</time>
      </trkpt>
      <trkpt lat="41.811574" lon="2.562068">
        <ele>464.961</ele>
        <time>2020-07-26T06:47:39Z</time>
      </trkpt>
      <trkpt lat="41.811577" lon="2.562025">
        <ele>465.024</ele>
        <time>2020-07-26T06:47:40Z</time>
      </trkpt>
      <trkpt lat="41.811581" lon="2.561985">
        <ele>465.068</ele>
        <time>2020-07-26T06:47:41Z</time>
      </trkpt>
      <trkpt lat="41.811583" lon="2.561942">
        <ele>465.164</ele>
        <time>2020-07-26T06:47:42Z</time>
      </trkpt>
      <trkpt lat="41.811586" lon="2.561901">
        <ele>465.326</ele>
        <time>2020-07-26T06:47:43Z</time>
      </trkpt>
      <trkpt lat="41.811588" lon="2.561860">
        <ele>465.547</ele>
        <time>2020-07-26T06:47:44Z</time>
      </trkpt>
      <trkpt lat="41.811591" lon="2.561820">
        <ele>465.611</ele>
        <time>2020-07-26T06:47:45Z</time>
      </trkpt>
      <trkpt lat="41.811601" lon="2.561784">
        <ele>465.708</ele>
        <time>2020-07-26T06:47:46Z</time>
      </trkpt>
      <trkpt lat="41.811616" lon="2.561753">
        <ele>465.987</ele>
        <time>2020-07-26T06:47:47Z</time>
      </trkpt>
      <trkpt lat="41.811631" lon="2.561719">
        <ele>466.315</ele>
        <time>2020-07-26T06:47:48Z</time>
      </trkpt>
      <trkpt lat="41.811644" lon="2.561684">
        <ele>466.528</ele>
        <time>2020-07-26T06:47:49Z</time>
      </trkpt>
      <trkpt lat="41.811655" lon="2.561647">
        <ele>466.673</ele>
        <time>2020-07-26T06:47:50Z</time>
      </trkpt>
      <trkpt lat="41.811668" lon="2.561609">
        <ele>466.631</ele>
        <time>2020-07-26T06:47:51Z</time>
      </trkpt>
      <trkpt lat="41.811680" lon="2.561570">
        <ele>466.914</ele>
        <time>2020-07-26T06:47:52Z</time>
      </trkpt>
      <trkpt lat="41.811692" lon="2.561530">
        <ele>467.178</ele>
        <time>2020-07-26T06:47:53Z</time>
      </trkpt>
      <trkpt lat="41.811704" lon="2.561488">
        <ele>467.344</ele>
        <time>2020-07-26T06:47:54Z</time>
      </trkpt>
      <trkpt lat="41.811716" lon="2.561446">
        <ele>467.593</ele>
        <time>2020-07-26T06:47:55Z</time>
      </trkpt>
      <trkpt lat="41.811730" lon="2.561403">
        <ele>467.765</ele>
        <time>2020-07-26T06:47:56Z</time>
      </trkpt>
      <trkpt lat="41.811742" lon="2.561359">
        <ele>467.921</ele>
        <time>2020-07-26T06:47:57Z</time>
      </trkpt>
      <trkpt lat="41.811754" lon="2.561315">
        <ele>468.008</ele>
        <time>2020-07-26T06:47:58Z</time>
      </trkpt>
      <trkpt lat="41.811768" lon="2.561271">
        <ele>468.174</ele>
        <time>2020-07-26T06:47:59Z</time>
      </trkpt>
      <trkpt lat="41.811783" lon="2.561226">
        <ele>468.332</ele>
        <time>2020-07-26T06:48:00Z</time>
      </trkpt>
      <trkpt lat="41.811798" lon="2.561182">
        <ele>468.535</ele>
        <time>2020-07-26T06:48:01Z</time>
      </trkpt>
      <trkpt lat="41.811814" lon="2.561135">
        <ele>468.780</ele>
        <time>2020-07-26T06:48:02Z</time>
      </trkpt>
      <trkpt lat="41.811830" lon="2.561086">
        <ele>468.718</ele>
        <time>2020-07-26T06:48:03Z</time>
      </trkpt>
      <trkpt lat="41.811848" lon="2.561038">
        <ele>468.791</ele>
        <time>2020-07-26T06:48:04Z</time>
      </trkpt>
      <trkpt lat="41.811867" lon="2.560986">
        <ele>468.725</ele>
        <time>2020-07-26T06:48:05Z</time>
      </trkpt>
      <trkpt lat="41.811891" lon="2.560935">
        <ele>468.671</ele>
        <time>2020-07-26T06:48:06Z</time>
      </trkpt>
      <trkpt lat="41.811921" lon="2.560885">
        <ele>468.678</ele>
        <time>2020-07-26T06:48:07Z</time>
      </trkpt>
      <trkpt lat="41.811957" lon="2.560835">
        <ele>468.433</ele>
        <time>2020-07-26T06:48:08Z</time>
      </trkpt>
      <trkpt lat="41.812001" lon="2.560784">
        <ele>468.326</ele>
        <time>2020-07-26T06:48:09Z</time>
      </trkpt>
      <trkpt lat="41.812075" lon="2.560678">
        <ele>468.608</ele>
        <time>2020-07-26T06:48:11Z</time>
      </trkpt>
      <trkpt lat="41.812138" lon="2.560564">
        <ele>469.272</ele>
        <time>2020-07-26T06:48:15Z</time>
      </trkpt>
      <trkpt lat="41.812181" lon="2.560437">
        <ele>468.880</ele>
        <time>2020-07-26T06:48:18Z</time>
      </trkpt>
      <trkpt lat="41.812210" lon="2.560304">
        <ele>468.753</ele>
        <time>2020-07-26T06:48:21Z</time>
      </trkpt>
      <trkpt lat="41.812245" lon="2.560165">
        <ele>468.678</ele>
        <time>2020-07-26T06:48:24Z</time>
      </trkpt>
      <trkpt lat="41.812288" lon="2.560038">
        <ele>468.746</ele>
        <time>2020-07-26T06:48:27Z</time>
      </trkpt>
      <trkpt lat="41.812359" lon="2.559941">
        <ele>469.179</ele>
        <time>2020-07-26T06:48:30Z</time>
      </trkpt>
      <trkpt lat="41.812453" lon="2.559876">
        <ele>469.753</ele>
        <time>2020-07-26T06:48:33Z</time>
      </trkpt>
      <trkpt lat="41.812575" lon="2.559908">
        <ele>470.369</ele>
        <time>2020-07-26T06:48:36Z</time>
      </trkpt>
      <trkpt lat="41.812662" lon="2.559963">
        <ele>470.296</ele>
        <time>2020-07-26T06:48:38Z</time>
      </trkpt>
      <trkpt lat="41.812743" lon="2.560027">
        <ele>470.031</ele>
        <time>2020-07-26T06:48:40Z</time>
      </trkpt>
      <trkpt lat="41.812857" lon="2.560108">
        <ele>470.224</ele>
        <time>2020-07-26T06:48:43Z</time>
      </trkpt>
      <trkpt lat="41.812957" lon="2.560209">
        <ele>470.308</ele>
        <time>2020-07-26T06:48:46Z</time>
      </trkpt>
      <trkpt lat="41.813049" lon="2.560341">
        <ele>470.754</ele>
        <time>2020-07-26T06:48:49Z</time>
      </trkpt>
      <trkpt lat="41.813161" lon="2.560436">
        <ele>471.282</ele>
        <time>2020-07-26T06:48:52Z</time>
      </trkpt>
      <trkpt lat="41.813261" lon="2.560549">
        <ele>471.755</ele>
        <time>2020-07-26T06:48:55Z</time>
      </trkpt>
      <trkpt lat="41.813335" lon="2.560620">
        <ele>471.910</ele>
        <time>2020-07-26T06:48:57Z</time>
      </trkpt>
      <trkpt lat="41.813441" lon="2.560694">
        <ele>472.558</ele>
        <time>2020-07-26T06:49:00Z</time>
      </trkpt>
      <trkpt lat="41.813535" lon="2.560676">
        <ele>472.781</ele>
        <time>2020-07-26T06:49:03Z</time>
      </trkpt>
      <trkpt lat="41.813627" lon="2.560599">
        <ele>473.715</ele>
        <time>2020-07-26T06:49:07Z</time>
      </trkpt>
      <trkpt lat="41.813701" lon="2.560526">
        <ele>474.951</ele>
        <time>2020-07-26T06:49:10Z</time>
      </trkpt>
      <trkpt lat="41.813785" lon="2.560482">
        <ele>476.573</ele>
        <time>2020-07-26T06:49:14Z</time>
      </trkpt>
      <trkpt lat="41.813900" lon="2.560447">
        <ele>477.585</ele>
        <time>2020-07-26T06:49:18Z</time>
      </trkpt>
      <trkpt lat="41.814015" lon="2.560432">
        <ele>478.313</ele>
        <time>2020-07-26T06:49:22Z</time>
      </trkpt>
      <trkpt lat="41.814106" lon="2.560466">
        <ele>479.508</ele>
        <time>2020-07-26T06:49:26Z</time>
      </trkpt>
      <trkpt lat="41.814206" lon="2.560493">
        <ele>480.382</ele>
        <time>2020-07-26T06:49:30Z</time>
      </trkpt>
      <trkpt lat="41.814309" lon="2.560465">
        <ele>481.160</ele>
        <time>2020-07-26T06:49:34Z</time>
      </trkpt>
      <trkpt lat="41.814375" lon="2.560433">
        <ele>481.373</ele>
        <time>2020-07-26T06:49:36Z</time>
      </trkpt>
      <trkpt lat="41.814403" lon="2.560416">
        <ele>481.598</ele>
        <time>2020-07-26T06:49:37Z</time>
      </trkpt>
      <trkpt lat="41.814428" lon="2.560399">
        <ele>481.766</ele>
        <time>2020-07-26T06:49:38Z</time>
      </trkpt>
      <trkpt lat="41.814457" lon="2.560383">
        <ele>482.159</ele>
        <time>2020-07-26T06:49:39Z</time>
      </trkpt>
      <trkpt lat="41.814484" lon="2.560368">
        <ele>482.333</ele>
        <time>2020-07-26T06:49:40Z</time>
      </trkpt>
      <trkpt lat="41.814508" lon="2.560353">
        <ele>482.539</ele>
        <time>2020-07-26T06:49:41Z</time>
      </trkpt>
      <trkpt lat="41.814531" lon="2.560337">
        <ele>482.737</ele>
        <time>2020-07-26T06:49:42Z</time>
      </trkpt>
      <trkpt lat="41.814553" lon="2.560319">
        <ele>482.949</ele>
        <time>2020-07-26T06:49:43Z</time>
      </trkpt>
      <trkpt lat="41.814576" lon="2.560306">
        <ele>483.113</ele>
        <time>2020-07-26T06:49:44Z</time>
      </trkpt>
      <trkpt lat="41.814596" lon="2.560289">
        <ele>483.308</ele>
        <time>2020-07-26T06:49:45Z</time>
      </trkpt>
      <trkpt lat="41.814616" lon="2.560271">
        <ele>483.568</ele>
        <time>2020-07-26T06:49:46Z</time>
      </trkpt>
      <trkpt lat="41.814635" lon="2.560253">
        <ele>483.746</ele>
        <time>2020-07-26T06:49:47Z</time>
      </trkpt>
      <trkpt lat="41.814652" lon="2.560232">
        <ele>483.919</ele>
        <time>2020-07-26T06:49:48Z</time>
      </trkpt>
      <trkpt lat="41.814672" lon="2.560214">
        <ele>484.054</ele>
        <time>2020-07-26T06:49:49Z</time>
      </trkpt>
      <trkpt lat="41.814692" lon="2.560197">
        <ele>484.142</ele>
        <time>2020-07-26T06:49:50Z</time>
      </trkpt>
      <trkpt lat="41.814712" lon="2.560178">
        <ele>484.215</ele>
        <time>2020-07-26T06:49:51Z</time>
      </trkpt>
      <trkpt lat="41.814734" lon="2.560164">
        <ele>484.349</ele>
        <time>2020-07-26T06:49:52Z</time>
      </trkpt>
      <trkpt lat="41.814758" lon="2.560151">
        <ele>484.555</ele>
        <time>2020-07-26T06:49:53Z</time>
      </trkpt>
      <trkpt lat="41.814781" lon="2.560137">
        <ele>484.741</ele>
        <time>2020-07-26T06:49:54Z</time>
      </trkpt>
      <trkpt lat="41.814805" lon="2.560123">
        <ele>484.781</ele>
        <time>2020-07-26T06:49:55Z</time>
      </trkpt>
      <trkpt lat="41.814828" lon="2.560106">
        <ele>484.909</ele>
        <time>2020-07-26T06:49:56Z</time>
      </trkpt>
      <trkpt lat="41.814852" lon="2.560090">
        <ele>485.008</ele>
        <time>2020-07-26T06:49:57Z</time>
      </trkpt>
      <trkpt lat="41.814877" lon="2.560075">
        <ele>485.359</ele>
        <time>2020-07-26T06:49:58Z</time>
      </trkpt>
      <trkpt lat="41.814900" lon="2.560060">
        <ele>485.387</ele>
        <time>2020-07-26T06:49:59Z</time>
      </trkpt>
      <trkpt lat="41.814921" lon="2.560050">
        <ele>485.590</ele>
        <time>2020-07-26T06:50:00Z</time>
      </trkpt>
      <trkpt lat="41.814946" lon="2.560042">
        <ele>485.615</ele>
        <time>2020-07-26T06:50:01Z</time>
      </trkpt>
      <trkpt lat="41.814975" lon="2.560031">
        <ele>485.753</ele>
        <time>2020-07-26T06:50:02Z</time>
      </trkpt>
      <trkpt lat="41.815002" lon="2.560016">
        <ele>485.936</ele>
        <time>2020-07-26T06:50:03Z</time>
      </trkpt>
      <trkpt lat="41.815030" lon="2.560002">
        <ele>486.070</ele>
        <time>2020-07-26T06:50:04Z</time>
      </trkpt>
      <trkpt lat="41.815058" lon="2.559991">
        <ele>486.166</ele>
        <time>2020-07-26T06:50:05Z</time>
      </trkpt>
      <trkpt lat="41.815085" lon="2.559978">
        <ele>486.399</ele>
        <time>2020-07-26T06:50:06Z</time>
      </trkpt>
      <trkpt lat="41.815181" lon="2.559924">
        <ele>486.907</ele>
        <time>2020-07-26T06:50:10Z</time>
      </trkpt>
      <trkpt lat="41.815255" lon="2.559887">
        <ele>487.527</ele>
        <time>2020-07-26T06:50:13Z</time>
      </trkpt>
      <trkpt lat="41.815283" lon="2.559875">
        <ele>487.608</ele>
        <time>2020-07-26T06:50:14Z</time>
      </trkpt>
      <trkpt lat="41.815334" lon="2.559859">
        <ele>488.034</ele>
        <time>2020-07-26T06:50:16Z</time>
      </trkpt>
      <trkpt lat="41.815359" lon="2.559852">
        <ele>488.382</ele>
        <time>2020-07-26T06:50:17Z</time>
      </trkpt>
      <trkpt lat="41.815385" lon="2.559846">
        <ele>488.395</ele>
        <time>2020-07-26T06:50:18Z</time>
      </trkpt>
      <trkpt lat="41.815411" lon="2.559849">
        <ele>488.580</ele>
        <time>2020-07-26T06:50:19Z</time>
      </trkpt>
      <trkpt lat="41.815499" lon="2.559800">
        <ele>489.768</ele>
        <time>2020-07-26T06:50:24Z</time>
      </trkpt>
      <trkpt lat="41.815597" lon="2.559719">
        <ele>491.651</ele>
        <time>2020-07-26T06:50:31Z</time>
      </trkpt>
      <trkpt lat="41.815694" lon="2.559639">
        <ele>492.355</ele>
        <time>2020-07-26T06:50:35Z</time>
      </trkpt>
      <trkpt lat="41.815787" lon="2.559569">
        <ele>493.391</ele>
        <time>2020-07-26T06:50:39Z</time>
      </trkpt>
      <trkpt lat="41.815833" lon="2.559545">
        <ele>493.944</ele>
        <time>2020-07-26T06:50:41Z</time>
      </trkpt>
      <trkpt lat="41.815855" lon="2.559536">
        <ele>494.105</ele>
        <time>2020-07-26T06:50:42Z</time>
      </trkpt>
      <trkpt lat="41.815877" lon="2.559530">
        <ele>494.515</ele>
        <time>2020-07-26T06:50:43Z</time>
      </trkpt>
      <trkpt lat="41.815899" lon="2.559527">
        <ele>494.708</ele>
        <time>2020-07-26T06:50:44Z</time>
      </trkpt>
      <trkpt lat="41.815917" lon="2.559524">
        <ele>494.979</ele>
        <time>2020-07-26T06:50:45Z</time>
      </trkpt>
      <trkpt lat="41.816008" lon="2.559500">
        <ele>496.377</ele>
        <time>2020-07-26T06:50:50Z</time>
      </trkpt>
      <trkpt lat="41.816108" lon="2.559496">
        <ele>497.920</ele>
        <time>2020-07-26T06:50:54Z</time>
      </trkpt>
      <trkpt lat="41.816213" lon="2.559488">
        <ele>499.395</ele>
        <time>2020-07-26T06:50:59Z</time>
      </trkpt>
      <trkpt lat="41.816303" lon="2.559507">
        <ele>500.533</ele>
        <time>2020-07-26T06:51:04Z</time>
      </trkpt>
      <trkpt lat="41.816401" lon="2.559504">
        <ele>501.536</ele>
        <time>2020-07-26T06:51:09Z</time>
      </trkpt>
      <trkpt lat="41.816506" lon="2.559502">
        <ele>501.750</ele>
        <time>2020-07-26T06:51:14Z</time>
      </trkpt>
      <trkpt lat="41.816603" lon="2.559486">
        <ele>502.556</ele>
        <time>2020-07-26T06:51:18Z</time>
      </trkpt>
      <trkpt lat="41.816715" lon="2.559436">
        <ele>502.753</ele>
        <time>2020-07-26T06:51:22Z</time>
      </trkpt>
      <trkpt lat="41.816817" lon="2.559369">
        <ele>503.004</ele>
        <time>2020-07-26T06:51:27Z</time>
      </trkpt>
      <trkpt lat="41.816908" lon="2.559301">
        <ele>503.314</ele>
        <time>2020-07-26T06:51:31Z</time>
      </trkpt>
      <trkpt lat="41.817002" lon="2.559285">
        <ele>502.408</ele>
        <time>2020-07-26T06:51:35Z</time>
      </trkpt>
      <trkpt lat="41.817124" lon="2.559283">
        <ele>501.820</ele>
        <time>2020-07-26T06:51:38Z</time>
      </trkpt>
      <trkpt lat="41.817216" lon="2.559267">
        <ele>501.428</ele>
        <time>2020-07-26T06:51:40Z</time>
      </trkpt>
      <trkpt lat="41.817356" lon="2.559222">
        <ele>501.341</ele>
        <time>2020-07-26T06:51:42Z</time>
      </trkpt>
      <trkpt lat="41.817456" lon="2.559156">
        <ele>501.486</ele>
        <time>2020-07-26T06:51:44Z</time>
      </trkpt>
      <trkpt lat="41.817557" lon="2.559096">
        <ele>501.464</ele>
        <time>2020-07-26T06:51:46Z</time>
      </trkpt>
      <trkpt lat="41.817651" lon="2.559062">
        <ele>501.937</ele>
        <time>2020-07-26T06:51:48Z</time>
      </trkpt>
      <trkpt lat="41.817739" lon="2.559030">
        <ele>502.321</ele>
        <time>2020-07-26T06:51:50Z</time>
      </trkpt>
      <trkpt lat="41.817824" lon="2.558970">
        <ele>502.937</ele>
        <time>2020-07-26T06:51:53Z</time>
      </trkpt>
      <trkpt lat="41.817923" lon="2.558911">
        <ele>504.368</ele>
        <time>2020-07-26T06:51:58Z</time>
      </trkpt>
      <trkpt lat="41.818001" lon="2.558816">
        <ele>505.142</ele>
        <time>2020-07-26T06:52:02Z</time>
      </trkpt>
      <trkpt lat="41.818078" lon="2.558712">
        <ele>505.726</ele>
        <time>2020-07-26T06:52:08Z</time>
      </trkpt>
      <trkpt lat="41.818146" lon="2.558593">
        <ele>505.508</ele>
        <time>2020-07-26T06:52:12Z</time>
      </trkpt>
      <trkpt lat="41.818212" lon="2.558461">
        <ele>505.651</ele>
        <time>2020-07-26T06:52:15Z</time>
      </trkpt>
      <trkpt lat="41.818292" lon="2.558332">
        <ele>505.769</ele>
        <time>2020-07-26T06:52:18Z</time>
      </trkpt>
      <trkpt lat="41.818358" lon="2.558222">
        <ele>505.912</ele>
        <time>2020-07-26T06:52:21Z</time>
      </trkpt>
      <trkpt lat="41.818437" lon="2.558135">
        <ele>506.777</ele>
        <time>2020-07-26T06:52:24Z</time>
      </trkpt>
      <trkpt lat="41.818501" lon="2.558036">
        <ele>507.995</ele>
        <time>2020-07-26T06:52:28Z</time>
      </trkpt>
      <trkpt lat="41.818589" lon="2.557946">
        <ele>508.938</ele>
        <time>2020-07-26T06:52:33Z</time>
      </trkpt>
      <trkpt lat="41.818672" lon="2.557901">
        <ele>509.782</ele>
        <time>2020-07-26T06:52:38Z</time>
      </trkpt>
      <trkpt lat="41.818770" lon="2.557943">
        <ele>509.478</ele>
        <time>2020-07-26T06:52:43Z</time>
      </trkpt>
      <trkpt lat="41.818872" lon="2.557928">
        <ele>509.725</ele>
        <time>2020-07-26T06:52:46Z</time>
      </trkpt>
      <trkpt lat="41.818982" lon="2.557939">
        <ele>510.726</ele>
        <time>2020-07-26T06:52:49Z</time>
      </trkpt>
      <trkpt lat="41.819072" lon="2.557960">
        <ele>512.508</ele>
        <time>2020-07-26T06:52:52Z</time>
      </trkpt>
      <trkpt lat="41.819125" lon="2.557977">
        <ele>513.508</ele>
        <time>2020-07-26T06:52:54Z</time>
      </trkpt>
      <trkpt lat="41.819150" lon="2.557988">
        <ele>513.987</ele>
        <time>2020-07-26T06:52:55Z</time>
      </trkpt>
      <trkpt lat="41.819172" lon="2.558004">
        <ele>514.365</ele>
        <time>2020-07-26T06:52:56Z</time>
      </trkpt>
      <trkpt lat="41.819195" lon="2.558018">
        <ele>514.738</ele>
        <time>2020-07-26T06:52:57Z</time>
      </trkpt>
      <trkpt lat="41.819216" lon="2.558033">
        <ele>514.953</ele>
        <time>2020-07-26T06:52:58Z</time>
      </trkpt>
      <trkpt lat="41.819242" lon="2.558049">
        <ele>515.171</ele>
        <time>2020-07-26T06:52:59Z</time>
      </trkpt>
      <trkpt lat="41.819267" lon="2.558068">
        <ele>515.364</ele>
        <time>2020-07-26T06:53:00Z</time>
      </trkpt>
      <trkpt lat="41.819293" lon="2.558092">
        <ele>515.478</ele>
        <time>2020-07-26T06:53:01Z</time>
      </trkpt>
      <trkpt lat="41.819323" lon="2.558120">
        <ele>515.554</ele>
        <time>2020-07-26T06:53:02Z</time>
      </trkpt>
      <trkpt lat="41.819356" lon="2.558148">
        <ele>515.716</ele>
        <time>2020-07-26T06:53:03Z</time>
      </trkpt>
      <trkpt lat="41.819394" lon="2.558172">
        <ele>515.776</ele>
        <time>2020-07-26T06:53:04Z</time>
      </trkpt>
      <trkpt lat="41.819430" lon="2.558194">
        <ele>515.713</ele>
        <time>2020-07-26T06:53:05Z</time>
      </trkpt>
      <trkpt lat="41.819506" lon="2.558213">
        <ele>515.508</ele>
        <time>2020-07-26T06:53:07Z</time>
      </trkpt>
      <trkpt lat="41.819553" lon="2.558213">
        <ele>515.446</ele>
        <time>2020-07-26T06:53:08Z</time>
      </trkpt>
      <trkpt lat="41.819674" lon="2.558202">
        <ele>514.864</ele>
        <time>2020-07-26T06:53:11Z</time>
      </trkpt>
      <trkpt lat="41.819798" lon="2.558176">
        <ele>514.927</ele>
        <time>2020-07-26T06:53:14Z</time>
      </trkpt>
      <trkpt lat="41.819895" lon="2.558161">
        <ele>515.262</ele>
        <time>2020-07-26T06:53:17Z</time>
      </trkpt>
      <trkpt lat="41.819998" lon="2.558166">
        <ele>515.510</ele>
        <time>2020-07-26T06:53:20Z</time>
      </trkpt>
      <trkpt lat="41.820098" lon="2.558206">
        <ele>515.753</ele>
        <time>2020-07-26T06:53:23Z</time>
      </trkpt>
      <trkpt lat="41.820192" lon="2.558253">
        <ele>516.127</ele>
        <time>2020-07-26T06:53:26Z</time>
      </trkpt>
      <trkpt lat="41.820301" lon="2.558333">
        <ele>516.773</ele>
        <time>2020-07-26T06:53:30Z</time>
      </trkpt>
      <trkpt lat="41.820381" lon="2.558400">
        <ele>517.118</ele>
        <time>2020-07-26T06:53:33Z</time>
      </trkpt>
      <trkpt lat="41.820466" lon="2.558466">
        <ele>517.598</ele>
        <time>2020-07-26T06:53:36Z</time>
      </trkpt>
      <trkpt lat="41.820495" lon="2.558488">
        <ele>517.717</ele>
        <time>2020-07-26T06:53:37Z</time>
      </trkpt>
      <trkpt lat="41.820566" lon="2.558547">
        <ele>518.708</ele>
        <time>2020-07-26T06:53:40Z</time>
      </trkpt>
      <trkpt lat="41.820586" lon="2.558569">
        <ele>518.996</ele>
        <time>2020-07-26T06:53:41Z</time>
      </trkpt>
      <trkpt lat="41.820606" lon="2.558593">
        <ele>519.354</ele>
        <time>2020-07-26T06:53:42Z</time>
      </trkpt>
      <trkpt lat="41.820625" lon="2.558619">
        <ele>519.717</ele>
        <time>2020-07-26T06:53:43Z</time>
      </trkpt>
      <trkpt lat="41.820642" lon="2.558645">
        <ele>519.712</ele>
        <time>2020-07-26T06:53:44Z</time>
      </trkpt>
      <trkpt lat="41.820655" lon="2.558674">
        <ele>520.190</ele>
        <time>2020-07-26T06:53:45Z</time>
      </trkpt>
      <trkpt lat="41.820668" lon="2.558703">
        <ele>520.333</ele>
        <time>2020-07-26T06:53:46Z</time>
      </trkpt>
      <trkpt lat="41.820682" lon="2.558729">
        <ele>520.737</ele>
        <time>2020-07-26T06:53:47Z</time>
      </trkpt>
      <trkpt lat="41.820694" lon="2.558755">
        <ele>521.193</ele>
        <time>2020-07-26T06:53:48Z</time>
      </trkpt>
      <trkpt lat="41.820705" lon="2.558781">
        <ele>521.352</ele>
        <time>2020-07-26T06:53:49Z</time>
      </trkpt>
      <trkpt lat="41.820719" lon="2.558807">
        <ele>521.753</ele>
        <time>2020-07-26T06:53:50Z</time>
      </trkpt>
      <trkpt lat="41.820736" lon="2.558830">
        <ele>522.108</ele>
        <time>2020-07-26T06:53:51Z</time>
      </trkpt>
      <trkpt lat="41.820752" lon="2.558856">
        <ele>522.308</ele>
        <time>2020-07-26T06:53:52Z</time>
      </trkpt>
      <trkpt lat="41.820769" lon="2.558879">
        <ele>522.470</ele>
        <time>2020-07-26T06:53:53Z</time>
      </trkpt>
      <trkpt lat="41.820787" lon="2.558902">
        <ele>522.498</ele>
        <time>2020-07-26T06:53:54Z</time>
      </trkpt>
      <trkpt lat="41.820807" lon="2.558927">
        <ele>522.781</ele>
        <time>2020-07-26T06:53:55Z</time>
      </trkpt>
      <trkpt lat="41.820830" lon="2.558951">
        <ele>522.746</ele>
        <time>2020-07-26T06:53:56Z</time>
      </trkpt>
      <trkpt lat="41.820851" lon="2.558975">
        <ele>523.154</ele>
        <time>2020-07-26T06:53:57Z</time>
      </trkpt>
      <trkpt lat="41.820871" lon="2.558997">
        <ele>523.567</ele>
        <time>2020-07-26T06:53:58Z</time>
      </trkpt>
      <trkpt lat="41.820891" lon="2.559016">
        <ele>523.431</ele>
        <time>2020-07-26T06:53:59Z</time>
      </trkpt>
      <trkpt lat="41.820913" lon="2.559029">
        <ele>523.727</ele>
        <time>2020-07-26T06:54:00Z</time>
      </trkpt>
      <trkpt lat="41.820933" lon="2.559040">
        <ele>524.142</ele>
        <time>2020-07-26T06:54:01Z</time>
      </trkpt>
      <trkpt lat="41.820955" lon="2.559048">
        <ele>524.522</ele>
        <time>2020-07-26T06:54:02Z</time>
      </trkpt>
      <trkpt lat="41.820975" lon="2.559054">
        <ele>524.714</ele>
        <time>2020-07-26T06:54:03Z</time>
      </trkpt>
      <trkpt lat="41.821007" lon="2.559065">
        <ele>525.108</ele>
        <time>2020-07-26T06:54:05Z</time>
      </trkpt>
      <trkpt lat="41.821033" lon="2.559057">
        <ele>525.489</ele>
        <time>2020-07-26T06:54:07Z</time>
      </trkpt>
      <trkpt lat="41.821064" lon="2.559051">
        <ele>526.137</ele>
        <time>2020-07-26T06:54:09Z</time>
      </trkpt>
      <trkpt lat="41.821084" lon="2.559052">
        <ele>526.330</ele>
        <time>2020-07-26T06:54:10Z</time>
      </trkpt>
      <trkpt lat="41.821103" lon="2.559054">
        <ele>526.415</ele>
        <time>2020-07-26T06:54:11Z</time>
      </trkpt>
      <trkpt lat="41.821140" lon="2.559057">
        <ele>527.193</ele>
        <time>2020-07-26T06:54:13Z</time>
      </trkpt>
      <trkpt lat="41.821177" lon="2.559054">
        <ele>527.396</ele>
        <time>2020-07-26T06:54:15Z</time>
      </trkpt>
      <trkpt lat="41.821209" lon="2.559046">
        <ele>527.780</ele>
        <time>2020-07-26T06:54:17Z</time>
      </trkpt>
      <trkpt lat="41.821308" lon="2.559011">
        <ele>529.796</ele>
        <time>2020-07-26T06:54:23Z</time>
      </trkpt>
      <trkpt lat="41.821339" lon="2.559000">
        <ele>529.711</ele>
        <time>2020-07-26T06:54:25Z</time>
      </trkpt>
      <trkpt lat="41.821417" lon="2.558940">
        <ele>530.321</ele>
        <time>2020-07-26T06:54:31Z</time>
      </trkpt>
      <trkpt lat="41.821504" lon="2.558901">
        <ele>530.503</ele>
        <time>2020-07-26T06:54:35Z</time>
      </trkpt>
      <trkpt lat="41.821583" lon="2.558844">
        <ele>531.308</ele>
        <time>2020-07-26T06:54:40Z</time>
      </trkpt>
      <trkpt lat="41.821643" lon="2.558753">
        <ele>531.796</ele>
        <time>2020-07-26T06:54:44Z</time>
      </trkpt>
      <trkpt lat="41.821721" lon="2.558691">
        <ele>531.954</ele>
        <time>2020-07-26T06:54:48Z</time>
      </trkpt>
      <trkpt lat="41.821794" lon="2.558595">
        <ele>532.347</ele>
        <time>2020-07-26T06:54:52Z</time>
      </trkpt>
      <trkpt lat="41.821889" lon="2.558550">
        <ele>532.792</ele>
        <time>2020-07-26T06:54:57Z</time>
      </trkpt>
      <trkpt lat="41.821976" lon="2.558518">
        <ele>533.350</ele>
        <time>2020-07-26T06:55:01Z</time>
      </trkpt>
      <trkpt lat="41.822065" lon="2.558450">
        <ele>533.743</ele>
        <time>2020-07-26T06:55:05Z</time>
      </trkpt>
      <trkpt lat="41.822138" lon="2.558339">
        <ele>534.247</ele>
        <time>2020-07-26T06:55:11Z</time>
      </trkpt>
      <trkpt lat="41.822234" lon="2.558272">
        <ele>535.013</ele>
        <time>2020-07-26T06:55:16Z</time>
      </trkpt>
      <trkpt lat="41.822306" lon="2.558198">
        <ele>536.194</ele>
        <time>2020-07-26T06:55:20Z</time>
      </trkpt>
      <trkpt lat="41.822378" lon="2.558119">
        <ele>536.557</ele>
        <time>2020-07-26T06:55:23Z</time>
      </trkpt>
      <trkpt lat="41.822446" lon="2.558026">
        <ele>537.722</ele>
        <time>2020-07-26T06:55:28Z</time>
      </trkpt>
      <trkpt lat="41.822544" lon="2.557980">
        <ele>539.008</ele>
        <time>2020-07-26T06:55:34Z</time>
      </trkpt>
      <trkpt lat="41.822643" lon="2.557917">
        <ele>539.554</ele>
        <time>2020-07-26T06:55:38Z</time>
      </trkpt>
      <trkpt lat="41.822755" lon="2.557867">
        <ele>540.262</ele>
        <time>2020-07-26T06:55:43Z</time>
      </trkpt>
      <trkpt lat="41.822858" lon="2.557826">
        <ele>540.375</ele>
        <time>2020-07-26T06:55:46Z</time>
      </trkpt>
      <trkpt lat="41.822963" lon="2.557751">
        <ele>540.950</ele>
        <time>2020-07-26T06:55:50Z</time>
      </trkpt>
      <trkpt lat="41.823047" lon="2.557673">
        <ele>542.388</ele>
        <time>2020-07-26T06:55:54Z</time>
      </trkpt>
      <trkpt lat="41.823106" lon="2.557566">
        <ele>543.251</ele>
        <time>2020-07-26T06:55:59Z</time>
      </trkpt>
      <trkpt lat="41.823172" lon="2.557456">
        <ele>543.445</ele>
        <time>2020-07-26T06:56:03Z</time>
      </trkpt>
      <trkpt lat="41.823257" lon="2.557400">
        <ele>543.981</ele>
        <time>2020-07-26T06:56:06Z</time>
      </trkpt>
      <trkpt lat="41.823367" lon="2.557382">
        <ele>545.425</ele>
        <time>2020-07-26T06:56:12Z</time>
      </trkpt>
      <trkpt lat="41.823389" lon="2.557390">
        <ele>545.526</ele>
        <time>2020-07-26T06:56:13Z</time>
      </trkpt>
      <trkpt lat="41.823481" lon="2.557376">
        <ele>546.708</ele>
        <time>2020-07-26T06:56:18Z</time>
      </trkpt>
      <trkpt lat="41.823582" lon="2.557375">
        <ele>547.408</ele>
        <time>2020-07-26T06:56:23Z</time>
      </trkpt>
      <trkpt lat="41.823700" lon="2.557409">
        <ele>547.627</ele>
        <time>2020-07-26T06:56:27Z</time>
      </trkpt>
      <trkpt lat="41.823809" lon="2.557450">
        <ele>547.795</ele>
        <time>2020-07-26T06:56:30Z</time>
      </trkpt>
      <trkpt lat="41.823922" lon="2.557494">
        <ele>547.898</ele>
        <time>2020-07-26T06:56:33Z</time>
      </trkpt>
      <trkpt lat="41.824010" lon="2.557550">
        <ele>547.913</ele>
        <time>2020-07-26T06:56:36Z</time>
      </trkpt>
      <trkpt lat="41.824107" lon="2.557616">
        <ele>548.041</ele>
        <time>2020-07-26T06:56:39Z</time>
      </trkpt>
      <trkpt lat="41.824201" lon="2.557657">
        <ele>548.294</ele>
        <time>2020-07-26T06:56:42Z</time>
      </trkpt>
      <trkpt lat="41.824257" lon="2.557677">
        <ele>548.338</ele>
        <time>2020-07-26T06:56:44Z</time>
      </trkpt>
      <trkpt lat="41.824282" lon="2.557686">
        <ele>548.594</ele>
        <time>2020-07-26T06:56:45Z</time>
      </trkpt>
      <trkpt lat="41.824343" lon="2.557705">
        <ele>548.997</ele>
        <time>2020-07-26T06:56:47Z</time>
      </trkpt>
      <trkpt lat="41.824373" lon="2.557717">
        <ele>549.123</ele>
        <time>2020-07-26T06:56:48Z</time>
      </trkpt>
      <trkpt lat="41.824394" lon="2.557724">
        <ele>549.325</ele>
        <time>2020-07-26T06:56:49Z</time>
      </trkpt>
      <trkpt lat="41.824416" lon="2.557729">
        <ele>549.508</ele>
        <time>2020-07-26T06:56:50Z</time>
      </trkpt>
      <trkpt lat="41.824444" lon="2.557734">
        <ele>549.544</ele>
        <time>2020-07-26T06:56:51Z</time>
      </trkpt>
      <trkpt lat="41.824473" lon="2.557736">
        <ele>549.722</ele>
        <time>2020-07-26T06:56:52Z</time>
      </trkpt>
      <trkpt lat="41.824501" lon="2.557737">
        <ele>549.965</ele>
        <time>2020-07-26T06:56:53Z</time>
      </trkpt>
      <trkpt lat="41.824533" lon="2.557740">
        <ele>550.120</ele>
        <time>2020-07-26T06:56:54Z</time>
      </trkpt>
      <trkpt lat="41.824564" lon="2.557743">
        <ele>550.388</ele>
        <time>2020-07-26T06:56:55Z</time>
      </trkpt>
      <trkpt lat="41.824592" lon="2.557755">
        <ele>550.531</ele>
        <time>2020-07-26T06:56:56Z</time>
      </trkpt>
      <trkpt lat="41.824620" lon="2.557772">
        <ele>550.765</ele>
        <time>2020-07-26T06:56:57Z</time>
      </trkpt>
      <trkpt lat="41.824645" lon="2.557788">
        <ele>550.911</ele>
        <time>2020-07-26T06:56:58Z</time>
      </trkpt>
      <trkpt lat="41.824666" lon="2.557805">
        <ele>551.152</ele>
        <time>2020-07-26T06:56:59Z</time>
      </trkpt>
      <trkpt lat="41.824686" lon="2.557821">
        <ele>551.353</ele>
        <time>2020-07-26T06:57:00Z</time>
      </trkpt>
      <trkpt lat="41.824712" lon="2.557837">
        <ele>551.508</ele>
        <time>2020-07-26T06:57:01Z</time>
      </trkpt>
      <trkpt lat="41.824741" lon="2.557854">
        <ele>551.508</ele>
        <time>2020-07-26T06:57:02Z</time>
      </trkpt>
      <trkpt lat="41.824839" lon="2.557899">
        <ele>551.730</ele>
        <time>2020-07-26T06:57:05Z</time>
      </trkpt>
      <trkpt lat="41.824932" lon="2.557930">
        <ele>551.718</ele>
        <time>2020-07-26T06:57:08Z</time>
      </trkpt>
      <trkpt lat="41.825052" lon="2.557946">
        <ele>551.781</ele>
        <time>2020-07-26T06:57:11Z</time>
      </trkpt>
      <trkpt lat="41.825172" lon="2.557944">
        <ele>551.626</ele>
        <time>2020-07-26T06:57:14Z</time>
      </trkpt>
      <trkpt lat="41.825267" lon="2.557951">
        <ele>551.534</ele>
        <time>2020-07-26T06:57:16Z</time>
      </trkpt>
      <trkpt lat="41.825356" lon="2.557971">
        <ele>551.737</ele>
        <time>2020-07-26T06:57:18Z</time>
      </trkpt>
      <trkpt lat="41.825449" lon="2.558001">
        <ele>552.181</ele>
        <time>2020-07-26T06:57:20Z</time>
      </trkpt>
      <trkpt lat="41.825536" lon="2.558039">
        <ele>552.297</ele>
        <time>2020-07-26T06:57:22Z</time>
      </trkpt>
      <trkpt lat="41.825643" lon="2.558071">
        <ele>553.192</ele>
        <time>2020-07-26T06:57:25Z</time>
      </trkpt>
      <trkpt lat="41.825734" lon="2.558089">
        <ele>554.373</ele>
        <time>2020-07-26T06:57:28Z</time>
      </trkpt>
      <trkpt lat="41.825838" lon="2.558091">
        <ele>555.720</ele>
        <time>2020-07-26T06:57:32Z</time>
      </trkpt>
      <trkpt lat="41.825937" lon="2.558080">
        <ele>556.308</ele>
        <time>2020-07-26T06:57:35Z</time>
      </trkpt>
      <trkpt lat="41.826030" lon="2.558083">
        <ele>556.714</ele>
        <time>2020-07-26T06:57:38Z</time>
      </trkpt>
      <trkpt lat="41.826103" lon="2.558094">
        <ele>556.792</ele>
        <time>2020-07-26T06:57:40Z</time>
      </trkpt>
      <trkpt lat="41.826217" lon="2.558154">
        <ele>556.565</ele>
        <time>2020-07-26T06:57:43Z</time>
      </trkpt>
      <trkpt lat="41.826343" lon="2.558215">
        <ele>555.830</ele>
        <time>2020-07-26T06:57:46Z</time>
      </trkpt>
      <trkpt lat="41.826463" lon="2.558216">
        <ele>554.898</ele>
        <time>2020-07-26T06:57:49Z</time>
      </trkpt>
      <trkpt lat="41.826570" lon="2.558181">
        <ele>554.061</ele>
        <time>2020-07-26T06:57:51Z</time>
      </trkpt>
      <trkpt lat="41.826685" lon="2.558150">
        <ele>553.035</ele>
        <time>2020-07-26T06:57:53Z</time>
      </trkpt>
      <trkpt lat="41.826793" lon="2.558136">
        <ele>551.871</ele>
        <time>2020-07-26T06:57:55Z</time>
      </trkpt>
      <trkpt lat="41.826913" lon="2.558120">
        <ele>550.249</ele>
        <time>2020-07-26T06:57:57Z</time>
      </trkpt>
      <trkpt lat="41.827014" lon="2.558091">
        <ele>549.402</ele>
        <time>2020-07-26T06:57:59Z</time>
      </trkpt>
      <trkpt lat="41.827119" lon="2.558067">
        <ele>548.822</ele>
        <time>2020-07-26T06:58:01Z</time>
      </trkpt>
      <trkpt lat="41.827221" lon="2.558046">
        <ele>548.408</ele>
        <time>2020-07-26T06:58:03Z</time>
      </trkpt>
      <trkpt lat="41.827314" lon="2.558033">
        <ele>547.819</ele>
        <time>2020-07-26T06:58:05Z</time>
      </trkpt>
      <trkpt lat="41.827448" lon="2.558015">
        <ele>547.357</ele>
        <time>2020-07-26T06:58:08Z</time>
      </trkpt>
      <trkpt lat="41.827554" lon="2.558005">
        <ele>547.250</ele>
        <time>2020-07-26T06:58:10Z</time>
      </trkpt>
      <trkpt lat="41.827671" lon="2.557976">
        <ele>547.225</ele>
        <time>2020-07-26T06:58:12Z</time>
      </trkpt>
      <trkpt lat="41.827767" lon="2.557964">
        <ele>547.223</ele>
        <time>2020-07-26T06:58:14Z</time>
      </trkpt>
      <trkpt lat="41.827864" lon="2.557966">
        <ele>547.036</ele>
        <time>2020-07-26T06:58:16Z</time>
      </trkpt>
      <trkpt lat="41.827982" lon="2.557969">
        <ele>547.250</ele>
        <time>2020-07-26T06:58:18Z</time>
      </trkpt>
      <trkpt lat="41.828113" lon="2.557958">
        <ele>547.546</ele>
        <time>2020-07-26T06:58:20Z</time>
      </trkpt>
      <trkpt lat="41.828236" lon="2.557983">
        <ele>547.272</ele>
        <time>2020-07-26T06:58:22Z</time>
      </trkpt>
      <trkpt lat="41.828348" lon="2.558039">
        <ele>547.113</ele>
        <time>2020-07-26T06:58:24Z</time>
      </trkpt>
      <trkpt lat="41.828459" lon="2.558090">
        <ele>547.214</ele>
        <time>2020-07-26T06:58:26Z</time>
      </trkpt>
      <trkpt lat="41.828569" lon="2.558135">
        <ele>547.208</ele>
        <time>2020-07-26T06:58:28Z</time>
      </trkpt>
      <trkpt lat="41.828692" lon="2.558164">
        <ele>547.292</ele>
        <time>2020-07-26T06:58:30Z</time>
      </trkpt>
      <trkpt lat="41.828799" lon="2.558180">
        <ele>547.250</ele>
        <time>2020-07-26T06:58:32Z</time>
      </trkpt>
      <trkpt lat="41.828910" lon="2.558158">
        <ele>546.893</ele>
        <time>2020-07-26T06:58:34Z</time>
      </trkpt>
      <trkpt lat="41.829023" lon="2.558092">
        <ele>546.548</ele>
        <time>2020-07-26T06:58:36Z</time>
      </trkpt>
      <trkpt lat="41.829127" lon="2.558030">
        <ele>546.836</ele>
        <time>2020-07-26T06:58:38Z</time>
      </trkpt>
      <trkpt lat="41.829244" lon="2.557979">
        <ele>546.269</ele>
        <time>2020-07-26T06:58:41Z</time>
      </trkpt>
      <trkpt lat="41.829302" lon="2.557883">
        <ele>545.313</ele>
        <time>2020-07-26T06:58:56Z</time>
      </trkpt>
      <trkpt lat="41.829321" lon="2.557876">
        <ele>545.459</ele>
        <time>2020-07-26T06:59:03Z</time>
      </trkpt>
      <trkpt lat="41.829297" lon="2.557847">
        <ele>545.051</ele>
        <time>2020-07-26T06:59:11Z</time>
      </trkpt>
      <trkpt lat="41.829354" lon="2.557726">
        <ele>543.601</ele>
        <time>2020-07-26T06:59:22Z</time>
      </trkpt>
      <trkpt lat="41.829423" lon="2.557621">
        <ele>542.811</ele>
        <time>2020-07-26T06:59:25Z</time>
      </trkpt>
      <trkpt lat="41.829482" lon="2.557514">
        <ele>542.208</ele>
        <time>2020-07-26T06:59:27Z</time>
      </trkpt>
      <trkpt lat="41.829535" lon="2.557414">
        <ele>541.470</ele>
        <time>2020-07-26T06:59:29Z</time>
      </trkpt>
      <trkpt lat="41.829583" lon="2.557309">
        <ele>540.838</ele>
        <time>2020-07-26T06:59:31Z</time>
      </trkpt>
      <trkpt lat="41.829627" lon="2.557144">
        <ele>539.881</ele>
        <time>2020-07-26T06:59:34Z</time>
      </trkpt>
      <trkpt lat="41.829670" lon="2.557032">
        <ele>539.026</ele>
        <time>2020-07-26T06:59:36Z</time>
      </trkpt>
      <trkpt lat="41.829717" lon="2.556909">
        <ele>538.554</ele>
        <time>2020-07-26T06:59:38Z</time>
      </trkpt>
      <trkpt lat="41.829794" lon="2.556763">
        <ele>537.887</ele>
        <time>2020-07-26T06:59:40Z</time>
      </trkpt>
      <trkpt lat="41.829854" lon="2.556625">
        <ele>536.661</ele>
        <time>2020-07-26T06:59:42Z</time>
      </trkpt>
      <trkpt lat="41.829908" lon="2.556478">
        <ele>535.667</ele>
        <time>2020-07-26T06:59:44Z</time>
      </trkpt>
      <trkpt lat="41.829971" lon="2.556311">
        <ele>534.696</ele>
        <time>2020-07-26T06:59:46Z</time>
      </trkpt>
      <trkpt lat="41.830020" lon="2.556149">
        <ele>533.631</ele>
        <time>2020-07-26T06:59:48Z</time>
      </trkpt>
      <trkpt lat="41.830075" lon="2.555989">
        <ele>532.624</ele>
        <time>2020-07-26T06:59:50Z</time>
      </trkpt>
      <trkpt lat="41.830134" lon="2.555841">
        <ele>531.208</ele>
        <time>2020-07-26T06:59:52Z</time>
      </trkpt>
      <trkpt lat="41.830157" lon="2.555717">
        <ele>530.434</ele>
        <time>2020-07-26T06:59:54Z</time>
      </trkpt>
      <trkpt lat="41.830200" lon="2.555607">
        <ele>529.262</ele>
        <time>2020-07-26T06:59:57Z</time>
      </trkpt>
      <trkpt lat="41.830283" lon="2.555514">
        <ele>528.215</ele>
        <time>2020-07-26T06:59:59Z</time>
      </trkpt>
      <trkpt lat="41.830373" lon="2.555431">
        <ele>525.920</ele>
        <time>2020-07-26T07:00:01Z</time>
      </trkpt>
      <trkpt lat="41.830452" lon="2.555334">
        <ele>525.228</ele>
        <time>2020-07-26T07:00:03Z</time>
      </trkpt>
      <trkpt lat="41.830550" lon="2.555248">
        <ele>524.491</ele>
        <time>2020-07-26T07:00:05Z</time>
      </trkpt>
      <trkpt lat="41.830627" lon="2.555163">
        <ele>523.035</ele>
        <time>2020-07-26T07:00:07Z</time>
      </trkpt>
      <trkpt lat="41.830678" lon="2.555028">
        <ele>521.231</ele>
        <time>2020-07-26T07:00:10Z</time>
      </trkpt>
      <trkpt lat="41.830671" lon="2.554870">
        <ele>520.275</ele>
        <time>2020-07-26T07:00:13Z</time>
      </trkpt>
      <trkpt lat="41.830645" lon="2.554692">
        <ele>519.428</ele>
        <time>2020-07-26T07:00:16Z</time>
      </trkpt>
      <trkpt lat="41.830608" lon="2.554530">
        <ele>518.420</ele>
        <time>2020-07-26T07:00:18Z</time>
      </trkpt>
      <trkpt lat="41.830567" lon="2.554363">
        <ele>518.208</ele>
        <time>2020-07-26T07:00:20Z</time>
      </trkpt>
      <trkpt lat="41.830521" lon="2.554207">
        <ele>517.262</ele>
        <time>2020-07-26T07:00:22Z</time>
      </trkpt>
      <trkpt lat="41.830468" lon="2.554032">
        <ele>516.070</ele>
        <time>2020-07-26T07:00:24Z</time>
      </trkpt>
      <trkpt lat="41.830400" lon="2.553859">
        <ele>514.013</ele>
        <time>2020-07-26T07:00:26Z</time>
      </trkpt>
      <trkpt lat="41.830308" lon="2.553696">
        <ele>513.458</ele>
        <time>2020-07-26T07:00:28Z</time>
      </trkpt>
      <trkpt lat="41.830210" lon="2.553544">
        <ele>513.046</ele>
        <time>2020-07-26T07:00:30Z</time>
      </trkpt>
      <trkpt lat="41.830117" lon="2.553408">
        <ele>512.259</ele>
        <time>2020-07-26T07:00:32Z</time>
      </trkpt>
      <trkpt lat="41.830000" lon="2.553307">
        <ele>511.813</ele>
        <time>2020-07-26T07:00:34Z</time>
      </trkpt>
      <trkpt lat="41.829849" lon="2.553195">
        <ele>511.049</ele>
        <time>2020-07-26T07:00:36Z</time>
      </trkpt>
      <trkpt lat="41.829708" lon="2.553059">
        <ele>510.249</ele>
        <time>2020-07-26T07:00:38Z</time>
      </trkpt>
      <trkpt lat="41.829588" lon="2.552922">
        <ele>509.002</ele>
        <time>2020-07-26T07:00:40Z</time>
      </trkpt>
      <trkpt lat="41.829454" lon="2.552818">
        <ele>508.422</ele>
        <time>2020-07-26T07:00:42Z</time>
      </trkpt>
      <trkpt lat="41.829322" lon="2.552717">
        <ele>507.608</ele>
        <time>2020-07-26T07:00:44Z</time>
      </trkpt>
      <trkpt lat="41.829229" lon="2.552612">
        <ele>506.679</ele>
        <time>2020-07-26T07:00:46Z</time>
      </trkpt>
      <trkpt lat="41.829213" lon="2.552443">
        <ele>505.857</ele>
        <time>2020-07-26T07:00:48Z</time>
      </trkpt>
      <trkpt lat="41.829276" lon="2.552227">
        <ele>505.260</ele>
        <time>2020-07-26T07:00:50Z</time>
      </trkpt>
      <trkpt lat="41.829304" lon="2.552059">
        <ele>505.055</ele>
        <time>2020-07-26T07:00:51Z</time>
      </trkpt>
      <trkpt lat="41.829306" lon="2.551853">
        <ele>504.043</ele>
        <time>2020-07-26T07:00:53Z</time>
      </trkpt>
      <trkpt lat="41.829310" lon="2.551703">
        <ele>502.636</ele>
        <time>2020-07-26T07:00:55Z</time>
      </trkpt>
      <trkpt lat="41.829295" lon="2.551520">
        <ele>501.240</ele>
        <time>2020-07-26T07:00:58Z</time>
      </trkpt>
      <trkpt lat="41.829331" lon="2.551353">
        <ele>500.766</ele>
        <time>2020-07-26T07:01:01Z</time>
      </trkpt>
      <trkpt lat="41.829369" lon="2.551222">
        <ele>500.659</ele>
        <time>2020-07-26T07:01:04Z</time>
      </trkpt>
      <trkpt lat="41.829406" lon="2.551103">
        <ele>500.703</ele>
        <time>2020-07-26T07:01:07Z</time>
      </trkpt>
      <trkpt lat="41.829465" lon="2.551010">
        <ele>500.723</ele>
        <time>2020-07-26T07:01:10Z</time>
      </trkpt>
      <trkpt lat="41.829526" lon="2.550902">
        <ele>501.308</ele>
        <time>2020-07-26T07:01:13Z</time>
      </trkpt>
      <trkpt lat="41.829567" lon="2.550777">
        <ele>502.050</ele>
        <time>2020-07-26T07:01:16Z</time>
      </trkpt>
      <trkpt lat="41.829610" lon="2.550709">
        <ele>501.618</ele>
        <time>2020-07-26T07:01:18Z</time>
      </trkpt>
      <trkpt lat="41.829626" lon="2.550684">
        <ele>501.651</ele>
        <time>2020-07-26T07:01:19Z</time>
      </trkpt>
      <trkpt lat="41.829736" lon="2.550707">
        <ele>502.496</ele>
        <time>2020-07-26T07:01:23Z</time>
      </trkpt>
      <trkpt lat="41.829821" lon="2.550765">
        <ele>502.374</ele>
        <time>2020-07-26T07:01:26Z</time>
      </trkpt>
      <trkpt lat="41.829916" lon="2.550852">
        <ele>503.587</ele>
        <time>2020-07-26T07:01:30Z</time>
      </trkpt>
      <trkpt lat="41.829995" lon="2.550933">
        <ele>504.321</ele>
        <time>2020-07-26T07:01:33Z</time>
      </trkpt>
      <trkpt lat="41.830086" lon="2.551003">
        <ele>505.597</ele>
        <time>2020-07-26T07:01:36Z</time>
      </trkpt>
      <trkpt lat="41.830164" lon="2.551075">
        <ele>506.931</ele>
        <time>2020-07-26T07:01:39Z</time>
      </trkpt>
      <trkpt lat="41.830257" lon="2.551167">
        <ele>508.361</ele>
        <time>2020-07-26T07:01:43Z</time>
      </trkpt>
      <trkpt lat="41.830335" lon="2.551272">
        <ele>509.307</ele>
        <time>2020-07-26T07:01:46Z</time>
      </trkpt>
      <trkpt lat="41.830429" lon="2.551344">
        <ele>510.108</ele>
        <time>2020-07-26T07:01:49Z</time>
      </trkpt>
      <trkpt lat="41.830521" lon="2.551411">
        <ele>510.968</ele>
        <time>2020-07-26T07:01:52Z</time>
      </trkpt>
      <trkpt lat="41.830623" lon="2.551476">
        <ele>511.736</ele>
        <time>2020-07-26T07:01:55Z</time>
      </trkpt>
      <trkpt lat="41.830731" lon="2.551533">
        <ele>512.339</ele>
        <time>2020-07-26T07:01:58Z</time>
      </trkpt>
      <trkpt lat="41.830846" lon="2.551596">
        <ele>512.964</ele>
        <time>2020-07-26T07:02:01Z</time>
      </trkpt>
      <trkpt lat="41.830930" lon="2.551641">
        <ele>513.342</ele>
        <time>2020-07-26T07:02:03Z</time>
      </trkpt>
      <trkpt lat="41.831034" lon="2.551724">
        <ele>513.985</ele>
        <time>2020-07-26T07:02:06Z</time>
      </trkpt>
      <trkpt lat="41.831134" lon="2.551808">
        <ele>514.599</ele>
        <time>2020-07-26T07:02:09Z</time>
      </trkpt>
      <trkpt lat="41.831224" lon="2.551887">
        <ele>515.125</ele>
        <time>2020-07-26T07:02:12Z</time>
      </trkpt>
      <trkpt lat="41.831304" lon="2.551976">
        <ele>515.939</ele>
        <time>2020-07-26T07:02:15Z</time>
      </trkpt>
      <trkpt lat="41.831387" lon="2.552055">
        <ele>516.501</ele>
        <time>2020-07-26T07:02:18Z</time>
      </trkpt>
      <trkpt lat="41.831481" lon="2.552095">
        <ele>517.021</ele>
        <time>2020-07-26T07:02:21Z</time>
      </trkpt>
      <trkpt lat="41.831572" lon="2.552130">
        <ele>517.308</ele>
        <time>2020-07-26T07:02:24Z</time>
      </trkpt>
      <trkpt lat="41.831663" lon="2.552126">
        <ele>518.238</ele>
        <time>2020-07-26T07:02:28Z</time>
      </trkpt>
      <trkpt lat="41.831757" lon="2.552097">
        <ele>518.316</ele>
        <time>2020-07-26T07:02:31Z</time>
      </trkpt>
      <trkpt lat="41.831864" lon="2.552043">
        <ele>518.729</ele>
        <time>2020-07-26T07:02:34Z</time>
      </trkpt>
      <trkpt lat="41.831988" lon="2.552052">
        <ele>519.494</ele>
        <time>2020-07-26T07:02:37Z</time>
      </trkpt>
      <trkpt lat="41.832088" lon="2.552106">
        <ele>520.132</ele>
        <time>2020-07-26T07:02:40Z</time>
      </trkpt>
      <trkpt lat="41.832187" lon="2.552172">
        <ele>520.955</ele>
        <time>2020-07-26T07:02:43Z</time>
      </trkpt>
      <trkpt lat="41.832300" lon="2.552160">
        <ele>521.599</ele>
        <time>2020-07-26T07:02:47Z</time>
      </trkpt>
      <trkpt lat="41.832364" lon="2.552028">
        <ele>522.285</ele>
        <time>2020-07-26T07:02:51Z</time>
      </trkpt>
      <trkpt lat="41.832401" lon="2.551876">
        <ele>522.953</ele>
        <time>2020-07-26T07:02:55Z</time>
      </trkpt>
      <trkpt lat="41.832402" lon="2.551730">
        <ele>523.304</ele>
        <time>2020-07-26T07:02:58Z</time>
      </trkpt>
      <trkpt lat="41.832334" lon="2.551590">
        <ele>523.914</ele>
        <time>2020-07-26T07:03:01Z</time>
      </trkpt>
      <trkpt lat="41.832271" lon="2.551462">
        <ele>524.108</ele>
        <time>2020-07-26T07:03:04Z</time>
      </trkpt>
      <trkpt lat="41.832224" lon="2.551303">
        <ele>524.510</ele>
        <time>2020-07-26T07:03:07Z</time>
      </trkpt>
      <trkpt lat="41.832272" lon="2.551145">
        <ele>525.188</ele>
        <time>2020-07-26T07:03:10Z</time>
      </trkpt>
      <trkpt lat="41.832369" lon="2.551061">
        <ele>525.421</ele>
        <time>2020-07-26T07:03:13Z</time>
      </trkpt>
      <trkpt lat="41.832406" lon="2.551057">
        <ele>525.436</ele>
        <time>2020-07-26T07:03:14Z</time>
      </trkpt>
      <trkpt lat="41.832441" lon="2.551062">
        <ele>525.414</ele>
        <time>2020-07-26T07:03:15Z</time>
      </trkpt>
      <trkpt lat="41.832473" lon="2.551073">
        <ele>525.447</ele>
        <time>2020-07-26T07:03:16Z</time>
      </trkpt>
      <trkpt lat="41.832508" lon="2.551082">
        <ele>525.521</ele>
        <time>2020-07-26T07:03:17Z</time>
      </trkpt>
      <trkpt lat="41.832625" lon="2.551084">
        <ele>525.777</ele>
        <time>2020-07-26T07:03:20Z</time>
      </trkpt>
      <trkpt lat="41.832664" lon="2.551082">
        <ele>525.787</ele>
        <time>2020-07-26T07:03:21Z</time>
      </trkpt>
      <trkpt lat="41.832704" lon="2.551077">
        <ele>525.742</ele>
        <time>2020-07-26T07:03:22Z</time>
      </trkpt>
      <trkpt lat="41.832741" lon="2.551071">
        <ele>525.926</ele>
        <time>2020-07-26T07:03:23Z</time>
      </trkpt>
      <trkpt lat="41.832840" lon="2.551048">
        <ele>526.508</ele>
        <time>2020-07-26T07:03:26Z</time>
      </trkpt>
      <trkpt lat="41.832941" lon="2.550986">
        <ele>527.223</ele>
        <time>2020-07-26T07:03:29Z</time>
      </trkpt>
      <trkpt lat="41.833043" lon="2.550879">
        <ele>527.531</ele>
        <time>2020-07-26T07:03:32Z</time>
      </trkpt>
      <trkpt lat="41.833095" lon="2.550767">
        <ele>527.854</ele>
        <time>2020-07-26T07:03:34Z</time>
      </trkpt>
      <trkpt lat="41.833152" lon="2.550606">
        <ele>528.039</ele>
        <time>2020-07-26T07:03:37Z</time>
      </trkpt>
      <trkpt lat="41.833204" lon="2.550454">
        <ele>528.547</ele>
        <time>2020-07-26T07:03:40Z</time>
      </trkpt>
      <trkpt lat="41.833244" lon="2.550290">
        <ele>529.130</ele>
        <time>2020-07-26T07:03:43Z</time>
      </trkpt>
      <trkpt lat="41.833286" lon="2.550127">
        <ele>529.154</ele>
        <time>2020-07-26T07:03:46Z</time>
      </trkpt>
      <trkpt lat="41.833338" lon="2.549977">
        <ele>529.960</ele>
        <time>2020-07-26T07:03:49Z</time>
      </trkpt>
      <trkpt lat="41.833406" lon="2.549819">
        <ele>530.434</ele>
        <time>2020-07-26T07:03:52Z</time>
      </trkpt>
      <trkpt lat="41.833490" lon="2.549696">
        <ele>530.755</ele>
        <time>2020-07-26T07:03:55Z</time>
      </trkpt>
      <trkpt lat="41.833566" lon="2.549564">
        <ele>531.510</ele>
        <time>2020-07-26T07:03:58Z</time>
      </trkpt>
      <trkpt lat="41.833654" lon="2.549457">
        <ele>532.008</ele>
        <time>2020-07-26T07:04:01Z</time>
      </trkpt>
      <trkpt lat="41.833684" lon="2.549424">
        <ele>532.348</ele>
        <time>2020-07-26T07:04:02Z</time>
      </trkpt>
      <trkpt lat="41.833714" lon="2.549392">
        <ele>532.446</ele>
        <time>2020-07-26T07:04:03Z</time>
      </trkpt>
      <trkpt lat="41.833743" lon="2.549362">
        <ele>532.519</ele>
        <time>2020-07-26T07:04:04Z</time>
      </trkpt>
      <trkpt lat="41.833772" lon="2.549333">
        <ele>532.724</ele>
        <time>2020-07-26T07:04:05Z</time>
      </trkpt>
      <trkpt lat="41.833803" lon="2.549308">
        <ele>532.932</ele>
        <time>2020-07-26T07:04:06Z</time>
      </trkpt>
      <trkpt lat="41.833833" lon="2.549284">
        <ele>533.345</ele>
        <time>2020-07-26T07:04:07Z</time>
      </trkpt>
      <trkpt lat="41.833863" lon="2.549261">
        <ele>533.729</ele>
        <time>2020-07-26T07:04:08Z</time>
      </trkpt>
      <trkpt lat="41.833894" lon="2.549240">
        <ele>533.745</ele>
        <time>2020-07-26T07:04:09Z</time>
      </trkpt>
      <trkpt lat="41.833925" lon="2.549220">
        <ele>534.153</ele>
        <time>2020-07-26T07:04:10Z</time>
      </trkpt>
      <trkpt lat="41.833957" lon="2.549200">
        <ele>534.304</ele>
        <time>2020-07-26T07:04:11Z</time>
      </trkpt>
      <trkpt lat="41.833990" lon="2.549182">
        <ele>534.714</ele>
        <time>2020-07-26T07:04:12Z</time>
      </trkpt>
      <trkpt lat="41.834023" lon="2.549164">
        <ele>534.908</ele>
        <time>2020-07-26T07:04:13Z</time>
      </trkpt>
      <trkpt lat="41.834055" lon="2.549145">
        <ele>535.180</ele>
        <time>2020-07-26T07:04:14Z</time>
      </trkpt>
      <trkpt lat="41.834086" lon="2.549128">
        <ele>535.338</ele>
        <time>2020-07-26T07:04:15Z</time>
      </trkpt>
      <trkpt lat="41.834117" lon="2.549111">
        <ele>535.751</ele>
        <time>2020-07-26T07:04:16Z</time>
      </trkpt>
      <trkpt lat="41.834147" lon="2.549093">
        <ele>535.726</ele>
        <time>2020-07-26T07:04:17Z</time>
      </trkpt>
      <trkpt lat="41.834180" lon="2.549076">
        <ele>536.144</ele>
        <time>2020-07-26T07:04:18Z</time>
      </trkpt>
      <trkpt lat="41.834214" lon="2.549063">
        <ele>536.587</ele>
        <time>2020-07-26T07:04:19Z</time>
      </trkpt>
      <trkpt lat="41.834246" lon="2.549052">
        <ele>536.791</ele>
        <time>2020-07-26T07:04:20Z</time>
      </trkpt>
      <trkpt lat="41.834339" lon="2.548991">
        <ele>537.127</ele>
        <time>2020-07-26T07:04:23Z</time>
      </trkpt>
      <trkpt lat="41.834419" lon="2.548916">
        <ele>537.762</ele>
        <time>2020-07-26T07:04:26Z</time>
      </trkpt>
      <trkpt lat="41.834497" lon="2.548855">
        <ele>538.283</ele>
        <time>2020-07-26T07:04:29Z</time>
      </trkpt>
      <trkpt lat="41.834564" lon="2.548770">
        <ele>538.911</ele>
        <time>2020-07-26T07:04:32Z</time>
      </trkpt>
      <trkpt lat="41.834603" lon="2.548646">
        <ele>539.508</ele>
        <time>2020-07-26T07:04:35Z</time>
      </trkpt>
      <trkpt lat="41.834677" lon="2.548536">
        <ele>540.381</ele>
        <time>2020-07-26T07:04:39Z</time>
      </trkpt>
      <trkpt lat="41.834770" lon="2.548595">
        <ele>541.519</ele>
        <time>2020-07-26T07:04:43Z</time>
      </trkpt>
      <trkpt lat="41.834831" lon="2.548711">
        <ele>542.542</ele>
        <time>2020-07-26T07:04:47Z</time>
      </trkpt>
      <trkpt lat="41.834897" lon="2.548823">
        <ele>543.377</ele>
        <time>2020-07-26T07:04:51Z</time>
      </trkpt>
      <trkpt lat="41.834990" lon="2.548856">
        <ele>544.285</ele>
        <time>2020-07-26T07:04:55Z</time>
      </trkpt>
      <trkpt lat="41.835042" lon="2.548854">
        <ele>544.438</ele>
        <time>2020-07-26T07:04:57Z</time>
      </trkpt>
      <trkpt lat="41.835067" lon="2.548852">
        <ele>544.422</ele>
        <time>2020-07-26T07:04:58Z</time>
      </trkpt>
      <trkpt lat="41.835127" lon="2.548843">
        <ele>544.578</ele>
        <time>2020-07-26T07:05:00Z</time>
      </trkpt>
      <trkpt lat="41.835155" lon="2.548840">
        <ele>544.765</ele>
        <time>2020-07-26T07:05:01Z</time>
      </trkpt>
      <trkpt lat="41.835179" lon="2.548836">
        <ele>545.168</ele>
        <time>2020-07-26T07:05:02Z</time>
      </trkpt>
      <trkpt lat="41.835290" lon="2.548797">
        <ele>545.714</ele>
        <time>2020-07-26T07:05:06Z</time>
      </trkpt>
      <trkpt lat="41.835317" lon="2.548787">
        <ele>545.908</ele>
        <time>2020-07-26T07:05:07Z</time>
      </trkpt>
      <trkpt lat="41.835343" lon="2.548780">
        <ele>546.131</ele>
        <time>2020-07-26T07:05:08Z</time>
      </trkpt>
      <trkpt lat="41.835368" lon="2.548781">
        <ele>546.389</ele>
        <time>2020-07-26T07:05:09Z</time>
      </trkpt>
      <trkpt lat="41.835393" lon="2.548785">
        <ele>546.532</ele>
        <time>2020-07-26T07:05:10Z</time>
      </trkpt>
      <trkpt lat="41.835479" lon="2.548864">
        <ele>547.167</ele>
        <time>2020-07-26T07:05:14Z</time>
      </trkpt>
      <trkpt lat="41.835535" lon="2.548971">
        <ele>547.555</ele>
        <time>2020-07-26T07:05:18Z</time>
      </trkpt>
      <trkpt lat="41.835587" lon="2.549083">
        <ele>548.288</ele>
        <time>2020-07-26T07:05:23Z</time>
      </trkpt>
      <trkpt lat="41.835627" lon="2.549197">
        <ele>548.512</ele>
        <time>2020-07-26T07:05:26Z</time>
      </trkpt>
      <trkpt lat="41.835688" lon="2.549304">
        <ele>548.758</ele>
        <time>2020-07-26T07:05:29Z</time>
      </trkpt>
      <trkpt lat="41.835766" lon="2.549415">
        <ele>549.389</ele>
        <time>2020-07-26T07:05:32Z</time>
      </trkpt>
      <trkpt lat="41.835855" lon="2.549496">
        <ele>549.506</ele>
        <time>2020-07-26T07:05:36Z</time>
      </trkpt>
      <trkpt lat="41.835947" lon="2.549441">
        <ele>550.026</ele>
        <time>2020-07-26T07:05:40Z</time>
      </trkpt>
      <trkpt lat="41.835984" lon="2.549322">
        <ele>550.008</ele>
        <time>2020-07-26T07:05:43Z</time>
      </trkpt>
      <trkpt lat="41.836008" lon="2.549194">
        <ele>550.533</ele>
        <time>2020-07-26T07:05:46Z</time>
      </trkpt>
      <trkpt lat="41.836017" lon="2.549057">
        <ele>551.751</ele>
        <time>2020-07-26T07:05:50Z</time>
      </trkpt>
      <trkpt lat="41.836000" lon="2.548909">
        <ele>552.454</ele>
        <time>2020-07-26T07:05:53Z</time>
      </trkpt>
      <trkpt lat="41.836001" lon="2.548777">
        <ele>552.929</ele>
        <time>2020-07-26T07:05:56Z</time>
      </trkpt>
      <trkpt lat="41.836000" lon="2.548629">
        <ele>553.967</ele>
        <time>2020-07-26T07:06:00Z</time>
      </trkpt>
      <trkpt lat="41.836006" lon="2.548502">
        <ele>554.570</ele>
        <time>2020-07-26T07:06:03Z</time>
      </trkpt>
      <trkpt lat="41.836012" lon="2.548373">
        <ele>555.154</ele>
        <time>2020-07-26T07:06:06Z</time>
      </trkpt>
      <trkpt lat="41.836022" lon="2.548293">
        <ele>555.590</ele>
        <time>2020-07-26T07:06:08Z</time>
      </trkpt>
      <trkpt lat="41.836027" lon="2.548254">
        <ele>555.985</ele>
        <time>2020-07-26T07:06:09Z</time>
      </trkpt>
      <trkpt lat="41.836036" lon="2.548220">
        <ele>556.189</ele>
        <time>2020-07-26T07:06:10Z</time>
      </trkpt>
      <trkpt lat="41.836048" lon="2.548188">
        <ele>556.917</ele>
        <time>2020-07-26T07:06:11Z</time>
      </trkpt>
      <trkpt lat="41.836089" lon="2.548138">
        <ele>557.108</ele>
        <time>2020-07-26T07:06:13Z</time>
      </trkpt>
      <trkpt lat="41.836114" lon="2.548123">
        <ele>557.313</ele>
        <time>2020-07-26T07:06:14Z</time>
      </trkpt>
      <trkpt lat="41.836135" lon="2.548102">
        <ele>557.561</ele>
        <time>2020-07-26T07:06:15Z</time>
      </trkpt>
      <trkpt lat="41.836156" lon="2.548084">
        <ele>557.784</ele>
        <time>2020-07-26T07:06:16Z</time>
      </trkpt>
      <trkpt lat="41.836208" lon="2.548063">
        <ele>558.259</ele>
        <time>2020-07-26T07:06:18Z</time>
      </trkpt>
      <trkpt lat="41.836232" lon="2.548057">
        <ele>558.547</ele>
        <time>2020-07-26T07:06:19Z</time>
      </trkpt>
      <trkpt lat="41.836257" lon="2.548050">
        <ele>558.930</ele>
        <time>2020-07-26T07:06:20Z</time>
      </trkpt>
      <trkpt lat="41.836283" lon="2.548047">
        <ele>559.134</ele>
        <time>2020-07-26T07:06:21Z</time>
      </trkpt>
      <trkpt lat="41.836307" lon="2.548050">
        <ele>559.510</ele>
        <time>2020-07-26T07:06:22Z</time>
      </trkpt>
      <trkpt lat="41.836330" lon="2.548063">
        <ele>560.125</ele>
        <time>2020-07-26T07:06:23Z</time>
      </trkpt>
      <trkpt lat="41.836368" lon="2.548108">
        <ele>560.326</ele>
        <time>2020-07-26T07:06:25Z</time>
      </trkpt>
      <trkpt lat="41.836379" lon="2.548136">
        <ele>560.408</ele>
        <time>2020-07-26T07:06:26Z</time>
      </trkpt>
      <trkpt lat="41.836383" lon="2.548172">
        <ele>560.508</ele>
        <time>2020-07-26T07:06:27Z</time>
      </trkpt>
      <trkpt lat="41.836381" lon="2.548209">
        <ele>560.767</ele>
        <time>2020-07-26T07:06:28Z</time>
      </trkpt>
      <trkpt lat="41.836371" lon="2.548240">
        <ele>560.715</ele>
        <time>2020-07-26T07:06:29Z</time>
      </trkpt>
      <trkpt lat="41.836358" lon="2.548268">
        <ele>560.918</ele>
        <time>2020-07-26T07:06:30Z</time>
      </trkpt>
      <trkpt lat="41.836340" lon="2.548293">
        <ele>561.053</ele>
        <time>2020-07-26T07:06:31Z</time>
      </trkpt>
      <trkpt lat="41.836324" lon="2.548318">
        <ele>561.351</ele>
        <time>2020-07-26T07:06:32Z</time>
      </trkpt>
      <trkpt lat="41.836309" lon="2.548343">
        <ele>561.574</ele>
        <time>2020-07-26T07:06:33Z</time>
      </trkpt>
      <trkpt lat="41.836298" lon="2.548373">
        <ele>561.928</ele>
        <time>2020-07-26T07:06:34Z</time>
      </trkpt>
      <trkpt lat="41.836290" lon="2.548405">
        <ele>562.354</ele>
        <time>2020-07-26T07:06:35Z</time>
      </trkpt>
      <trkpt lat="41.836286" lon="2.548439">
        <ele>562.438</ele>
        <time>2020-07-26T07:06:36Z</time>
      </trkpt>
      <trkpt lat="41.836287" lon="2.548475">
        <ele>562.770</ele>
        <time>2020-07-26T07:06:37Z</time>
      </trkpt>
      <trkpt lat="41.836293" lon="2.548509">
        <ele>562.717</ele>
        <time>2020-07-26T07:06:38Z</time>
      </trkpt>
      <trkpt lat="41.836303" lon="2.548541">
        <ele>562.908</ele>
        <time>2020-07-26T07:06:39Z</time>
      </trkpt>
      <trkpt lat="41.836316" lon="2.548573">
        <ele>563.018</ele>
        <time>2020-07-26T07:06:40Z</time>
      </trkpt>
      <trkpt lat="41.836332" lon="2.548605">
        <ele>563.176</ele>
        <time>2020-07-26T07:06:41Z</time>
      </trkpt>
      <trkpt lat="41.836350" lon="2.548637">
        <ele>563.329</ele>
        <time>2020-07-26T07:06:42Z</time>
      </trkpt>
      <trkpt lat="41.836369" lon="2.548673">
        <ele>563.754</ele>
        <time>2020-07-26T07:06:43Z</time>
      </trkpt>
      <trkpt lat="41.836390" lon="2.548705">
        <ele>563.962</ele>
        <time>2020-07-26T07:06:44Z</time>
      </trkpt>
      <trkpt lat="41.836412" lon="2.548733">
        <ele>564.395</ele>
        <time>2020-07-26T07:06:45Z</time>
      </trkpt>
      <trkpt lat="41.836433" lon="2.548760">
        <ele>564.499</ele>
        <time>2020-07-26T07:06:46Z</time>
      </trkpt>
      <trkpt lat="41.836453" lon="2.548784">
        <ele>564.555</ele>
        <time>2020-07-26T07:06:47Z</time>
      </trkpt>
      <trkpt lat="41.836474" lon="2.548807">
        <ele>564.541</ele>
        <time>2020-07-26T07:06:48Z</time>
      </trkpt>
      <trkpt lat="41.836496" lon="2.548831">
        <ele>564.981</ele>
        <time>2020-07-26T07:06:49Z</time>
      </trkpt>
      <trkpt lat="41.836520" lon="2.548852">
        <ele>565.109</ele>
        <time>2020-07-26T07:06:50Z</time>
      </trkpt>
      <trkpt lat="41.836544" lon="2.548872">
        <ele>565.308</ele>
        <time>2020-07-26T07:06:51Z</time>
      </trkpt>
      <trkpt lat="41.836568" lon="2.548893">
        <ele>565.729</ele>
        <time>2020-07-26T07:06:52Z</time>
      </trkpt>
      <trkpt lat="41.836594" lon="2.548912">
        <ele>565.917</ele>
        <time>2020-07-26T07:06:53Z</time>
      </trkpt>
      <trkpt lat="41.836619" lon="2.548930">
        <ele>566.150</ele>
        <time>2020-07-26T07:06:54Z</time>
      </trkpt>
      <trkpt lat="41.836646" lon="2.548948">
        <ele>566.595</ele>
        <time>2020-07-26T07:06:55Z</time>
      </trkpt>
      <trkpt lat="41.836671" lon="2.548967">
        <ele>566.763</ele>
        <time>2020-07-26T07:06:56Z</time>
      </trkpt>
      <trkpt lat="41.836696" lon="2.548985">
        <ele>566.786</ele>
        <time>2020-07-26T07:06:57Z</time>
      </trkpt>
      <trkpt lat="41.836720" lon="2.549000">
        <ele>566.940</ele>
        <time>2020-07-26T07:06:58Z</time>
      </trkpt>
      <trkpt lat="41.836805" lon="2.549076">
        <ele>567.536</ele>
        <time>2020-07-26T07:07:02Z</time>
      </trkpt>
      <trkpt lat="41.836910" lon="2.549146">
        <ele>568.587</ele>
        <time>2020-07-26T07:07:06Z</time>
      </trkpt>
      <trkpt lat="41.836978" lon="2.549194">
        <ele>568.742</ele>
        <time>2020-07-26T07:07:09Z</time>
      </trkpt>
      <trkpt lat="41.837001" lon="2.549206">
        <ele>569.126</ele>
        <time>2020-07-26T07:07:10Z</time>
      </trkpt>
      <trkpt lat="41.837023" lon="2.549224">
        <ele>569.208</ele>
        <time>2020-07-26T07:07:11Z</time>
      </trkpt>
      <trkpt lat="41.837046" lon="2.549243">
        <ele>569.233</ele>
        <time>2020-07-26T07:07:12Z</time>
      </trkpt>
      <trkpt lat="41.837063" lon="2.549269">
        <ele>569.571</ele>
        <time>2020-07-26T07:07:13Z</time>
      </trkpt>
      <trkpt lat="41.837075" lon="2.549298">
        <ele>569.944</ele>
        <time>2020-07-26T07:07:14Z</time>
      </trkpt>
      <trkpt lat="41.837080" lon="2.549329">
        <ele>570.149</ele>
        <time>2020-07-26T07:07:15Z</time>
      </trkpt>
      <trkpt lat="41.837083" lon="2.549358">
        <ele>570.217</ele>
        <time>2020-07-26T07:07:16Z</time>
      </trkpt>
      <trkpt lat="41.837089" lon="2.549390">
        <ele>570.580</ele>
        <time>2020-07-26T07:07:17Z</time>
      </trkpt>
      <trkpt lat="41.837096" lon="2.549422">
        <ele>570.724</ele>
        <time>2020-07-26T07:07:18Z</time>
      </trkpt>
      <trkpt lat="41.837103" lon="2.549461">
        <ele>570.750</ele>
        <time>2020-07-26T07:07:19Z</time>
      </trkpt>
      <trkpt lat="41.837114" lon="2.549496">
        <ele>570.764</ele>
        <time>2020-07-26T07:07:20Z</time>
      </trkpt>
      <trkpt lat="41.837142" lon="2.549624">
        <ele>571.306</ele>
        <time>2020-07-26T07:07:24Z</time>
      </trkpt>
      <trkpt lat="41.837080" lon="2.549723">
        <ele>572.716</ele>
        <time>2020-07-26T07:07:28Z</time>
      </trkpt>
      <trkpt lat="41.836995" lon="2.549794">
        <ele>573.408</ele>
        <time>2020-07-26T07:07:32Z</time>
      </trkpt>
      <trkpt lat="41.836954" lon="2.549848">
        <ele>573.591</ele>
        <time>2020-07-26T07:07:34Z</time>
      </trkpt>
      <trkpt lat="41.836948" lon="2.549882">
        <ele>573.729</ele>
        <time>2020-07-26T07:07:35Z</time>
      </trkpt>
      <trkpt lat="41.836948" lon="2.549921">
        <ele>573.782</ele>
        <time>2020-07-26T07:07:36Z</time>
      </trkpt>
      <trkpt lat="41.836952" lon="2.549961">
        <ele>573.977</ele>
        <time>2020-07-26T07:07:37Z</time>
      </trkpt>
      <trkpt lat="41.836957" lon="2.549999">
        <ele>574.175</ele>
        <time>2020-07-26T07:07:38Z</time>
      </trkpt>
      <trkpt lat="41.836963" lon="2.550038">
        <ele>574.388</ele>
        <time>2020-07-26T07:07:39Z</time>
      </trkpt>
      <trkpt lat="41.836972" lon="2.550073">
        <ele>574.582</ele>
        <time>2020-07-26T07:07:40Z</time>
      </trkpt>
      <trkpt lat="41.836980" lon="2.550106">
        <ele>574.988</ele>
        <time>2020-07-26T07:07:41Z</time>
      </trkpt>
      <trkpt lat="41.836989" lon="2.550141">
        <ele>575.191</ele>
        <time>2020-07-26T07:07:42Z</time>
      </trkpt>
      <trkpt lat="41.836999" lon="2.550177">
        <ele>575.381</ele>
        <time>2020-07-26T07:07:43Z</time>
      </trkpt>
      <trkpt lat="41.837008" lon="2.550216">
        <ele>575.419</ele>
        <time>2020-07-26T07:07:44Z</time>
      </trkpt>
      <trkpt lat="41.837019" lon="2.550256">
        <ele>575.908</ele>
        <time>2020-07-26T07:07:45Z</time>
      </trkpt>
      <trkpt lat="41.837030" lon="2.550286">
        <ele>576.114</ele>
        <time>2020-07-26T07:07:46Z</time>
      </trkpt>
      <trkpt lat="41.837050" lon="2.550346">
        <ele>576.712</ele>
        <time>2020-07-26T07:07:48Z</time>
      </trkpt>
      <trkpt lat="41.837070" lon="2.550402">
        <ele>577.065</ele>
        <time>2020-07-26T07:07:50Z</time>
      </trkpt>
      <trkpt lat="41.837092" lon="2.550463">
        <ele>577.570</ele>
        <time>2020-07-26T07:07:52Z</time>
      </trkpt>
      <trkpt lat="41.837105" lon="2.550499">
        <ele>577.778</ele>
        <time>2020-07-26T07:07:53Z</time>
      </trkpt>
      <trkpt lat="41.837118" lon="2.550534">
        <ele>577.471</ele>
        <time>2020-07-26T07:07:54Z</time>
      </trkpt>
      <trkpt lat="41.837131" lon="2.550568">
        <ele>577.755</ele>
        <time>2020-07-26T07:07:55Z</time>
      </trkpt>
      <trkpt lat="41.837142" lon="2.550600">
        <ele>577.941</ele>
        <time>2020-07-26T07:07:56Z</time>
      </trkpt>
      <trkpt lat="41.837152" lon="2.550628">
        <ele>578.364</ele>
        <time>2020-07-26T07:07:57Z</time>
      </trkpt>
      <trkpt lat="41.837160" lon="2.550654">
        <ele>578.506</ele>
        <time>2020-07-26T07:07:58Z</time>
      </trkpt>
      <trkpt lat="41.837168" lon="2.550676">
        <ele>578.716</ele>
        <time>2020-07-26T07:07:59Z</time>
      </trkpt>
      <trkpt lat="41.837179" lon="2.550704">
        <ele>579.108</ele>
        <time>2020-07-26T07:08:00Z</time>
      </trkpt>
      <trkpt lat="41.837208" lon="2.550760">
        <ele>579.391</ele>
        <time>2020-07-26T07:08:02Z</time>
      </trkpt>
      <trkpt lat="41.837225" lon="2.550783">
        <ele>579.479</ele>
        <time>2020-07-26T07:08:03Z</time>
      </trkpt>
      <trkpt lat="41.837246" lon="2.550816">
        <ele>579.552</ele>
        <time>2020-07-26T07:08:04Z</time>
      </trkpt>
      <trkpt lat="41.837268" lon="2.550842">
        <ele>579.777</ele>
        <time>2020-07-26T07:08:05Z</time>
      </trkpt>
      <trkpt lat="41.837291" lon="2.550867">
        <ele>579.955</ele>
        <time>2020-07-26T07:08:06Z</time>
      </trkpt>
      <trkpt lat="41.837313" lon="2.550887">
        <ele>580.118</ele>
        <time>2020-07-26T07:08:07Z</time>
      </trkpt>
      <trkpt lat="41.837334" lon="2.550903">
        <ele>580.392</ele>
        <time>2020-07-26T07:08:08Z</time>
      </trkpt>
      <trkpt lat="41.837356" lon="2.550918">
        <ele>580.798</ele>
        <time>2020-07-26T07:08:09Z</time>
      </trkpt>
      <trkpt lat="41.837380" lon="2.550934">
        <ele>580.749</ele>
        <time>2020-07-26T07:08:10Z</time>
      </trkpt>
      <trkpt lat="41.837409" lon="2.550954">
        <ele>580.902</ele>
        <time>2020-07-26T07:08:11Z</time>
      </trkpt>
      <trkpt lat="41.837437" lon="2.550974">
        <ele>581.122</ele>
        <time>2020-07-26T07:08:12Z</time>
      </trkpt>
      <trkpt lat="41.837465" lon="2.550991">
        <ele>581.208</ele>
        <time>2020-07-26T07:08:13Z</time>
      </trkpt>
      <trkpt lat="41.837495" lon="2.551002">
        <ele>581.329</ele>
        <time>2020-07-26T07:08:14Z</time>
      </trkpt>
      <trkpt lat="41.837520" lon="2.551017">
        <ele>581.557</ele>
        <time>2020-07-26T07:08:15Z</time>
      </trkpt>
      <trkpt lat="41.837544" lon="2.551030">
        <ele>581.770</ele>
        <time>2020-07-26T07:08:16Z</time>
      </trkpt>
      <trkpt lat="41.837630" lon="2.551095">
        <ele>582.135</ele>
        <time>2020-07-26T07:08:20Z</time>
      </trkpt>
      <trkpt lat="41.837709" lon="2.551168">
        <ele>582.523</ele>
        <time>2020-07-26T07:08:23Z</time>
      </trkpt>
      <trkpt lat="41.837761" lon="2.551295">
        <ele>583.186</ele>
        <time>2020-07-26T07:08:27Z</time>
      </trkpt>
      <trkpt lat="41.837769" lon="2.551444">
        <ele>583.770</ele>
        <time>2020-07-26T07:08:31Z</time>
      </trkpt>
      <trkpt lat="41.837820" lon="2.551573">
        <ele>584.536</ele>
        <time>2020-07-26T07:08:35Z</time>
      </trkpt>
      <trkpt lat="41.837883" lon="2.551661">
        <ele>585.122</ele>
        <time>2020-07-26T07:08:38Z</time>
      </trkpt>
      <trkpt lat="41.837939" lon="2.551763">
        <ele>585.762</ele>
        <time>2020-07-26T07:08:41Z</time>
      </trkpt>
      <trkpt lat="41.837979" lon="2.551910">
        <ele>586.508</ele>
        <time>2020-07-26T07:08:45Z</time>
      </trkpt>
      <trkpt lat="41.838001" lon="2.552047">
        <ele>587.008</ele>
        <time>2020-07-26T07:08:49Z</time>
      </trkpt>
      <trkpt lat="41.838006" lon="2.552082">
        <ele>587.117</ele>
        <time>2020-07-26T07:08:50Z</time>
      </trkpt>
      <trkpt lat="41.838006" lon="2.552124">
        <ele>587.365</ele>
        <time>2020-07-26T07:08:51Z</time>
      </trkpt>
      <trkpt lat="41.838003" lon="2.552167">
        <ele>587.538</ele>
        <time>2020-07-26T07:08:52Z</time>
      </trkpt>
      <trkpt lat="41.837986" lon="2.552300">
        <ele>587.713</ele>
        <time>2020-07-26T07:08:55Z</time>
      </trkpt>
      <trkpt lat="41.837980" lon="2.552340">
        <ele>587.931</ele>
        <time>2020-07-26T07:08:56Z</time>
      </trkpt>
      <trkpt lat="41.837971" lon="2.552382">
        <ele>588.144</ele>
        <time>2020-07-26T07:08:57Z</time>
      </trkpt>
      <trkpt lat="41.837964" lon="2.552421">
        <ele>588.268</ele>
        <time>2020-07-26T07:08:58Z</time>
      </trkpt>
      <trkpt lat="41.837958" lon="2.552460">
        <ele>588.334</ele>
        <time>2020-07-26T07:08:59Z</time>
      </trkpt>
      <trkpt lat="41.837955" lon="2.552495">
        <ele>588.599</ele>
        <time>2020-07-26T07:09:00Z</time>
      </trkpt>
      <trkpt lat="41.837951" lon="2.552534">
        <ele>588.707</ele>
        <time>2020-07-26T07:09:01Z</time>
      </trkpt>
      <trkpt lat="41.837951" lon="2.552570">
        <ele>589.127</ele>
        <time>2020-07-26T07:09:02Z</time>
      </trkpt>
      <trkpt lat="41.837956" lon="2.552602">
        <ele>589.508</ele>
        <time>2020-07-26T07:09:03Z</time>
      </trkpt>
      <trkpt lat="41.837962" lon="2.552629">
        <ele>589.554</ele>
        <time>2020-07-26T07:09:04Z</time>
      </trkpt>
      <trkpt lat="41.837973" lon="2.552651">
        <ele>589.752</ele>
        <time>2020-07-26T07:09:05Z</time>
      </trkpt>
      <trkpt lat="41.837989" lon="2.552669">
        <ele>589.745</ele>
        <time>2020-07-26T07:09:06Z</time>
      </trkpt>
      <trkpt lat="41.838085" lon="2.552608">
        <ele>590.780</ele>
        <time>2020-07-26T07:09:12Z</time>
      </trkpt>
      <trkpt lat="41.838152" lon="2.552495">
        <ele>590.758</ele>
        <time>2020-07-26T07:09:17Z</time>
      </trkpt>
      <trkpt lat="41.838258" lon="2.552438">
        <ele>591.061</ele>
        <time>2020-07-26T07:09:21Z</time>
      </trkpt>
      <trkpt lat="41.838379" lon="2.552385">
        <ele>590.435</ele>
        <time>2020-07-26T07:09:24Z</time>
      </trkpt>
      <trkpt lat="41.838498" lon="2.552334">
        <ele>590.091</ele>
        <time>2020-07-26T07:09:27Z</time>
      </trkpt>
      <trkpt lat="41.838612" lon="2.552259">
        <ele>588.872</ele>
        <time>2020-07-26T07:09:30Z</time>
      </trkpt>
      <trkpt lat="41.838701" lon="2.552216">
        <ele>588.213</ele>
        <time>2020-07-26T07:09:32Z</time>
      </trkpt>
      <trkpt lat="41.838802" lon="2.552154">
        <ele>587.714</ele>
        <time>2020-07-26T07:09:35Z</time>
      </trkpt>
      <trkpt lat="41.838896" lon="2.552091">
        <ele>586.608</ele>
        <time>2020-07-26T07:09:38Z</time>
      </trkpt>
      <trkpt lat="41.839004" lon="2.552002">
        <ele>585.822</ele>
        <time>2020-07-26T07:09:41Z</time>
      </trkpt>
      <trkpt lat="41.839098" lon="2.551914">
        <ele>584.840</ele>
        <time>2020-07-26T07:09:44Z</time>
      </trkpt>
      <trkpt lat="41.839213" lon="2.551924">
        <ele>583.423</ele>
        <time>2020-07-26T07:09:47Z</time>
      </trkpt>
      <trkpt lat="41.839325" lon="2.552005">
        <ele>582.818</ele>
        <time>2020-07-26T07:09:50Z</time>
      </trkpt>
      <trkpt lat="41.839428" lon="2.552024">
        <ele>581.456</ele>
        <time>2020-07-26T07:09:53Z</time>
      </trkpt>
      <trkpt lat="41.839539" lon="2.551935">
        <ele>580.819</ele>
        <time>2020-07-26T07:09:55Z</time>
      </trkpt>
      <trkpt lat="41.839648" lon="2.551836">
        <ele>580.643</ele>
        <time>2020-07-26T07:09:57Z</time>
      </trkpt>
      <trkpt lat="41.839738" lon="2.551727">
        <ele>580.419</ele>
        <time>2020-07-26T07:09:59Z</time>
      </trkpt>
      <trkpt lat="41.839808" lon="2.551631">
        <ele>579.867</ele>
        <time>2020-07-26T07:10:01Z</time>
      </trkpt>
      <trkpt lat="41.839877" lon="2.551531">
        <ele>579.681</ele>
        <time>2020-07-26T07:10:03Z</time>
      </trkpt>
      <trkpt lat="41.839951" lon="2.551443">
        <ele>579.919</ele>
        <time>2020-07-26T07:10:05Z</time>
      </trkpt>
      <trkpt lat="41.839956" lon="2.551299">
        <ele>579.208</ele>
        <time>2020-07-26T07:10:09Z</time>
      </trkpt>
      <trkpt lat="41.839873" lon="2.551186">
        <ele>578.291</ele>
        <time>2020-07-26T07:10:12Z</time>
      </trkpt>
      <trkpt lat="41.839850" lon="2.551052">
        <ele>576.669</ele>
        <time>2020-07-26T07:10:15Z</time>
      </trkpt>
      <trkpt lat="41.839839" lon="2.550880">
        <ele>574.012</ele>
        <time>2020-07-26T07:10:18Z</time>
      </trkpt>
      <trkpt lat="41.839855" lon="2.550720">
        <ele>572.697</ele>
        <time>2020-07-26T07:10:21Z</time>
      </trkpt>
      <trkpt lat="41.839910" lon="2.550619">
        <ele>571.445</ele>
        <time>2020-07-26T07:10:23Z</time>
      </trkpt>
      <trkpt lat="41.839966" lon="2.550470">
        <ele>569.858</ele>
        <time>2020-07-26T07:10:26Z</time>
      </trkpt>
      <trkpt lat="41.840002" lon="2.550350">
        <ele>568.262</ele>
        <time>2020-07-26T07:10:29Z</time>
      </trkpt>
      <trkpt lat="41.840048" lon="2.550221">
        <ele>566.298</ele>
        <time>2020-07-26T07:10:32Z</time>
      </trkpt>
      <trkpt lat="41.840090" lon="2.550094">
        <ele>565.437</ele>
        <time>2020-07-26T07:10:35Z</time>
      </trkpt>
      <trkpt lat="41.840111" lon="2.549923">
        <ele>564.349</ele>
        <time>2020-07-26T07:10:38Z</time>
      </trkpt>
      <trkpt lat="41.840148" lon="2.549811">
        <ele>562.813</ele>
        <time>2020-07-26T07:10:40Z</time>
      </trkpt>
      <trkpt lat="41.840150" lon="2.549683">
        <ele>561.408</ele>
        <time>2020-07-26T07:10:43Z</time>
      </trkpt>
      <trkpt lat="41.840145" lon="2.549540">
        <ele>559.848</ele>
        <time>2020-07-26T07:10:46Z</time>
      </trkpt>
      <trkpt lat="41.840083" lon="2.549384">
        <ele>558.896</ele>
        <time>2020-07-26T07:10:49Z</time>
      </trkpt>
      <trkpt lat="41.840018" lon="2.549262">
        <ele>558.269</ele>
        <time>2020-07-26T07:10:51Z</time>
      </trkpt>
      <trkpt lat="41.839939" lon="2.549134">
        <ele>557.634</ele>
        <time>2020-07-26T07:10:53Z</time>
      </trkpt>
      <trkpt lat="41.839873" lon="2.549004">
        <ele>556.642</ele>
        <time>2020-07-26T07:10:55Z</time>
      </trkpt>
      <trkpt lat="41.839808" lon="2.548883">
        <ele>556.425</ele>
        <time>2020-07-26T07:10:57Z</time>
      </trkpt>
      <trkpt lat="41.839734" lon="2.548767">
        <ele>556.089</ele>
        <time>2020-07-26T07:10:59Z</time>
      </trkpt>
      <trkpt lat="41.839640" lon="2.548619">
        <ele>555.245</ele>
        <time>2020-07-26T07:11:02Z</time>
      </trkpt>
      <trkpt lat="41.839560" lon="2.548509">
        <ele>554.459</ele>
        <time>2020-07-26T07:11:04Z</time>
      </trkpt>
      <trkpt lat="41.839489" lon="2.548387">
        <ele>553.803</ele>
        <time>2020-07-26T07:11:06Z</time>
      </trkpt>
      <trkpt lat="41.839422" lon="2.548256">
        <ele>552.823</ele>
        <time>2020-07-26T07:11:08Z</time>
      </trkpt>
      <trkpt lat="41.839317" lon="2.548127">
        <ele>552.408</ele>
        <time>2020-07-26T07:11:10Z</time>
      </trkpt>
      <trkpt lat="41.839264" lon="2.548011">
        <ele>551.690</ele>
        <time>2020-07-26T07:11:12Z</time>
      </trkpt>
      <trkpt lat="41.839218" lon="2.547870">
        <ele>550.868</ele>
        <time>2020-07-26T07:11:14Z</time>
      </trkpt>
      <trkpt lat="41.839168" lon="2.547734">
        <ele>550.481</ele>
        <time>2020-07-26T07:11:16Z</time>
      </trkpt>
      <trkpt lat="41.839109" lon="2.547576">
        <ele>549.686</ele>
        <time>2020-07-26T07:11:19Z</time>
      </trkpt>
      <trkpt lat="41.839064" lon="2.547443">
        <ele>548.474</ele>
        <time>2020-07-26T07:11:22Z</time>
      </trkpt>
      <trkpt lat="41.839120" lon="2.547336">
        <ele>547.067</ele>
        <time>2020-07-26T07:11:25Z</time>
      </trkpt>
      <trkpt lat="41.839191" lon="2.547256">
        <ele>545.631</ele>
        <time>2020-07-26T07:11:27Z</time>
      </trkpt>
      <trkpt lat="41.839260" lon="2.547171">
        <ele>544.287</ele>
        <time>2020-07-26T07:11:29Z</time>
      </trkpt>
      <trkpt lat="41.839339" lon="2.547061">
        <ele>542.472</ele>
        <time>2020-07-26T07:11:32Z</time>
      </trkpt>
      <trkpt lat="41.839407" lon="2.546950">
        <ele>540.213</ele>
        <time>2020-07-26T07:11:35Z</time>
      </trkpt>
      <trkpt lat="41.839448" lon="2.546826">
        <ele>538.414</ele>
        <time>2020-07-26T07:11:37Z</time>
      </trkpt>
      <trkpt lat="41.839453" lon="2.546696">
        <ele>537.208</ele>
        <time>2020-07-26T07:11:39Z</time>
      </trkpt>
      <trkpt lat="41.839443" lon="2.546527">
        <ele>535.232</ele>
        <time>2020-07-26T07:11:42Z</time>
      </trkpt>
      <trkpt lat="41.839452" lon="2.546358">
        <ele>533.670</ele>
        <time>2020-07-26T07:11:45Z</time>
      </trkpt>
      <trkpt lat="41.839479" lon="2.546236">
        <ele>532.883</ele>
        <time>2020-07-26T07:11:47Z</time>
      </trkpt>
      <trkpt lat="41.839512" lon="2.546123">
        <ele>531.488</ele>
        <time>2020-07-26T07:11:49Z</time>
      </trkpt>
      <trkpt lat="41.839586" lon="2.545992">
        <ele>530.496</ele>
        <time>2020-07-26T07:11:52Z</time>
      </trkpt>
      <trkpt lat="41.839651" lon="2.545891">
        <ele>529.249</ele>
        <time>2020-07-26T07:11:54Z</time>
      </trkpt>
      <trkpt lat="41.839716" lon="2.545751">
        <ele>528.253</ele>
        <time>2020-07-26T07:11:56Z</time>
      </trkpt>
      <trkpt lat="41.839755" lon="2.545630">
        <ele>526.299</ele>
        <time>2020-07-26T07:11:58Z</time>
      </trkpt>
      <trkpt lat="41.839790" lon="2.545498">
        <ele>524.885</ele>
        <time>2020-07-26T07:12:00Z</time>
      </trkpt>
      <trkpt lat="41.839823" lon="2.545375">
        <ele>523.489</ele>
        <time>2020-07-26T07:12:02Z</time>
      </trkpt>
      <trkpt lat="41.839880" lon="2.545248">
        <ele>523.217</ele>
        <time>2020-07-26T07:12:04Z</time>
      </trkpt>
      <trkpt lat="41.839925" lon="2.545141">
        <ele>522.408</ele>
        <time>2020-07-26T07:12:06Z</time>
      </trkpt>
      <trkpt lat="41.839967" lon="2.545009">
        <ele>521.283</ele>
        <time>2020-07-26T07:12:08Z</time>
      </trkpt>
      <trkpt lat="41.839993" lon="2.544858">
        <ele>520.281</ele>
        <time>2020-07-26T07:12:10Z</time>
      </trkpt>
      <trkpt lat="41.840001" lon="2.544795">
        <ele>519.854</ele>
        <time>2020-07-26T07:12:11Z</time>
      </trkpt>
      <trkpt lat="41.840000" lon="2.544734">
        <ele>519.459</ele>
        <time>2020-07-26T07:12:12Z</time>
      </trkpt>
      <trkpt lat="41.839992" lon="2.544674">
        <ele>519.057</ele>
        <time>2020-07-26T07:12:13Z</time>
      </trkpt>
      <trkpt lat="41.839977" lon="2.544618">
        <ele>518.870</ele>
        <time>2020-07-26T07:12:14Z</time>
      </trkpt>
      <trkpt lat="41.839953" lon="2.544567">
        <ele>518.444</ele>
        <time>2020-07-26T07:12:15Z</time>
      </trkpt>
      <trkpt lat="41.839869" lon="2.544481">
        <ele>517.870</ele>
        <time>2020-07-26T07:12:17Z</time>
      </trkpt>
      <trkpt lat="41.839814" lon="2.544434">
        <ele>517.455</ele>
        <time>2020-07-26T07:12:18Z</time>
      </trkpt>
      <trkpt lat="41.839727" lon="2.544327">
        <ele>516.007</ele>
        <time>2020-07-26T07:12:20Z</time>
      </trkpt>
      <trkpt lat="41.839698" lon="2.544274">
        <ele>516.017</ele>
        <time>2020-07-26T07:12:21Z</time>
      </trkpt>
      <trkpt lat="41.839682" lon="2.544221">
        <ele>515.608</ele>
        <time>2020-07-26T07:12:22Z</time>
      </trkpt>
      <trkpt lat="41.839670" lon="2.544162">
        <ele>515.020</ele>
        <time>2020-07-26T07:12:23Z</time>
      </trkpt>
      <trkpt lat="41.839661" lon="2.544098">
        <ele>514.818</ele>
        <time>2020-07-26T07:12:24Z</time>
      </trkpt>
      <trkpt lat="41.839658" lon="2.544031">
        <ele>514.471</ele>
        <time>2020-07-26T07:12:25Z</time>
      </trkpt>
      <trkpt lat="41.839654" lon="2.543965">
        <ele>514.236</ele>
        <time>2020-07-26T07:12:26Z</time>
      </trkpt>
      <trkpt lat="41.839647" lon="2.543903">
        <ele>513.844</ele>
        <time>2020-07-26T07:12:27Z</time>
      </trkpt>
      <trkpt lat="41.839632" lon="2.543855">
        <ele>513.247</ele>
        <time>2020-07-26T07:12:28Z</time>
      </trkpt>
      <trkpt lat="41.839606" lon="2.543820">
        <ele>512.831</ele>
        <time>2020-07-26T07:12:29Z</time>
      </trkpt>
      <trkpt lat="41.839572" lon="2.543797">
        <ele>512.487</ele>
        <time>2020-07-26T07:12:30Z</time>
      </trkpt>
      <trkpt lat="41.839537" lon="2.543778">
        <ele>512.231</ele>
        <time>2020-07-26T07:12:31Z</time>
      </trkpt>
      <trkpt lat="41.839495" lon="2.543765">
        <ele>511.861</ele>
        <time>2020-07-26T07:12:32Z</time>
      </trkpt>
      <trkpt lat="41.839453" lon="2.543763">
        <ele>511.407</ele>
        <time>2020-07-26T07:12:33Z</time>
      </trkpt>
      <trkpt lat="41.839404" lon="2.543768">
        <ele>511.008</ele>
        <time>2020-07-26T07:12:34Z</time>
      </trkpt>
      <trkpt lat="41.839357" lon="2.543777">
        <ele>511.058</ele>
        <time>2020-07-26T07:12:35Z</time>
      </trkpt>
      <trkpt lat="41.839316" lon="2.543787">
        <ele>510.696</ele>
        <time>2020-07-26T07:12:36Z</time>
      </trkpt>
      <trkpt lat="41.839278" lon="2.543796">
        <ele>510.659</ele>
        <time>2020-07-26T07:12:37Z</time>
      </trkpt>
      <trkpt lat="41.839248" lon="2.543803">
        <ele>510.454</ele>
        <time>2020-07-26T07:12:38Z</time>
      </trkpt>
      <trkpt lat="41.839223" lon="2.543797">
        <ele>510.222</ele>
        <time>2020-07-26T07:12:39Z</time>
      </trkpt>
      <trkpt lat="41.839194" lon="2.543778">
        <ele>510.245</ele>
        <time>2020-07-26T07:12:40Z</time>
      </trkpt>
      <trkpt lat="41.839169" lon="2.543747">
        <ele>510.249</ele>
        <time>2020-07-26T07:12:41Z</time>
      </trkpt>
      <trkpt lat="41.839149" lon="2.543707">
        <ele>510.255</ele>
        <time>2020-07-26T07:12:42Z</time>
      </trkpt>
      <trkpt lat="41.839135" lon="2.543665">
        <ele>510.091</ele>
        <time>2020-07-26T07:12:43Z</time>
      </trkpt>
      <trkpt lat="41.839124" lon="2.543621">
        <ele>510.081</ele>
        <time>2020-07-26T07:12:44Z</time>
      </trkpt>
      <trkpt lat="41.839111" lon="2.543571">
        <ele>510.019</ele>
        <time>2020-07-26T07:12:45Z</time>
      </trkpt>
      <trkpt lat="41.839096" lon="2.543518">
        <ele>510.008</ele>
        <time>2020-07-26T07:12:46Z</time>
      </trkpt>
      <trkpt lat="41.839078" lon="2.543462">
        <ele>509.664</ele>
        <time>2020-07-26T07:12:47Z</time>
      </trkpt>
      <trkpt lat="41.839055" lon="2.543412">
        <ele>509.462</ele>
        <time>2020-07-26T07:12:48Z</time>
      </trkpt>
      <trkpt lat="41.839035" lon="2.543361">
        <ele>508.815</ele>
        <time>2020-07-26T07:12:49Z</time>
      </trkpt>
      <trkpt lat="41.839019" lon="2.543308">
        <ele>508.410</ele>
        <time>2020-07-26T07:12:50Z</time>
      </trkpt>
      <trkpt lat="41.839004" lon="2.543252">
        <ele>508.098</ele>
        <time>2020-07-26T07:12:51Z</time>
      </trkpt>
      <trkpt lat="41.838983" lon="2.543123">
        <ele>507.061</ele>
        <time>2020-07-26T07:12:53Z</time>
      </trkpt>
      <trkpt lat="41.838944" lon="2.543005">
        <ele>506.645</ele>
        <time>2020-07-26T07:12:55Z</time>
      </trkpt>
      <trkpt lat="41.838854" lon="2.542910">
        <ele>506.081</ele>
        <time>2020-07-26T07:12:57Z</time>
      </trkpt>
      <trkpt lat="41.838701" lon="2.542828">
        <ele>505.426</ele>
        <time>2020-07-26T07:12:59Z</time>
      </trkpt>
      <trkpt lat="41.838574" lon="2.542778">
        <ele>505.247</ele>
        <time>2020-07-26T07:13:01Z</time>
      </trkpt>
      <trkpt lat="41.838520" lon="2.542754">
        <ele>505.011</ele>
        <time>2020-07-26T07:13:02Z</time>
      </trkpt>
      <trkpt lat="41.838477" lon="2.542720">
        <ele>504.808</ele>
        <time>2020-07-26T07:13:03Z</time>
      </trkpt>
      <trkpt lat="41.838444" lon="2.542686">
        <ele>504.917</ele>
        <time>2020-07-26T07:13:04Z</time>
      </trkpt>
      <trkpt lat="41.838420" lon="2.542548">
        <ele>504.985</ele>
        <time>2020-07-26T07:13:07Z</time>
      </trkpt>
      <trkpt lat="41.838458" lon="2.542425">
        <ele>505.388</ele>
        <time>2020-07-26T07:13:10Z</time>
      </trkpt>
      <trkpt lat="41.838493" lon="2.542281">
        <ele>506.113</ele>
        <time>2020-07-26T07:13:14Z</time>
      </trkpt>
      <trkpt lat="41.838516" lon="2.542130">
        <ele>506.951</ele>
        <time>2020-07-26T07:13:18Z</time>
      </trkpt>
      <trkpt lat="41.838502" lon="2.541979">
        <ele>506.734</ele>
        <time>2020-07-26T07:13:22Z</time>
      </trkpt>
      <trkpt lat="41.838497" lon="2.541858">
        <ele>507.588</ele>
        <time>2020-07-26T07:13:25Z</time>
      </trkpt>
      <trkpt lat="41.838546" lon="2.541726">
        <ele>508.174</ele>
        <time>2020-07-26T07:13:28Z</time>
      </trkpt>
      <trkpt lat="41.838639" lon="2.541628">
        <ele>508.955</ele>
        <time>2020-07-26T07:13:32Z</time>
      </trkpt>
      <trkpt lat="41.838720" lon="2.541561">
        <ele>509.507</ele>
        <time>2020-07-26T07:13:35Z</time>
      </trkpt>
      <trkpt lat="41.838760" lon="2.541431">
        <ele>510.217</ele>
        <time>2020-07-26T07:13:39Z</time>
      </trkpt>
      <trkpt lat="41.838790" lon="2.541264">
        <ele>509.208</ele>
        <time>2020-07-26T07:13:43Z</time>
      </trkpt>
      <trkpt lat="41.838771" lon="2.541099">
        <ele>507.880</ele>
        <time>2020-07-26T07:13:46Z</time>
      </trkpt>
      <trkpt lat="41.838754" lon="2.540979">
        <ele>506.888</ele>
        <time>2020-07-26T07:13:48Z</time>
      </trkpt>
      <trkpt lat="41.838725" lon="2.540849">
        <ele>505.651</ele>
        <time>2020-07-26T07:13:50Z</time>
      </trkpt>
      <trkpt lat="41.838705" lon="2.540721">
        <ele>504.626</ele>
        <time>2020-07-26T07:13:52Z</time>
      </trkpt>
      <trkpt lat="41.838722" lon="2.540584">
        <ele>503.624</ele>
        <time>2020-07-26T07:13:54Z</time>
      </trkpt>
      <trkpt lat="41.838766" lon="2.540476">
        <ele>502.627</ele>
        <time>2020-07-26T07:13:56Z</time>
      </trkpt>
      <trkpt lat="41.838849" lon="2.540382">
        <ele>501.831</ele>
        <time>2020-07-26T07:13:58Z</time>
      </trkpt>
      <trkpt lat="41.838944" lon="2.540289">
        <ele>501.077</ele>
        <time>2020-07-26T07:14:00Z</time>
      </trkpt>
      <trkpt lat="41.839035" lon="2.540203">
        <ele>499.697</ele>
        <time>2020-07-26T07:14:02Z</time>
      </trkpt>
      <trkpt lat="41.839152" lon="2.540121">
        <ele>498.023</ele>
        <time>2020-07-26T07:14:05Z</time>
      </trkpt>
      <trkpt lat="41.839236" lon="2.540041">
        <ele>497.525</ele>
        <time>2020-07-26T07:14:07Z</time>
      </trkpt>
      <trkpt lat="41.839315" lon="2.539951">
        <ele>496.408</ele>
        <time>2020-07-26T07:14:09Z</time>
      </trkpt>
      <trkpt lat="41.839381" lon="2.539835">
        <ele>495.864</ele>
        <time>2020-07-26T07:14:11Z</time>
      </trkpt>
      <trkpt lat="41.839449" lon="2.539692">
        <ele>495.392</ele>
        <time>2020-07-26T07:14:13Z</time>
      </trkpt>
      <trkpt lat="41.839498" lon="2.539529">
        <ele>494.615</ele>
        <time>2020-07-26T07:14:15Z</time>
      </trkpt>
      <trkpt lat="41.839556" lon="2.539396">
        <ele>493.490</ele>
        <time>2020-07-26T07:14:17Z</time>
      </trkpt>
      <trkpt lat="41.839625" lon="2.539266">
        <ele>492.648</ele>
        <time>2020-07-26T07:14:19Z</time>
      </trkpt>
      <trkpt lat="41.839683" lon="2.539138">
        <ele>492.611</ele>
        <time>2020-07-26T07:14:21Z</time>
      </trkpt>
      <trkpt lat="41.839733" lon="2.539014">
        <ele>492.375</ele>
        <time>2020-07-26T07:14:23Z</time>
      </trkpt>
      <trkpt lat="41.839757" lon="2.538880">
        <ele>492.291</ele>
        <time>2020-07-26T07:14:25Z</time>
      </trkpt>
      <trkpt lat="41.839749" lon="2.538748">
        <ele>491.961</ele>
        <time>2020-07-26T07:14:27Z</time>
      </trkpt>
      <trkpt lat="41.839744" lon="2.538678">
        <ele>492.021</ele>
        <time>2020-07-26T07:14:28Z</time>
      </trkpt>
      <trkpt lat="41.839728" lon="2.538553">
        <ele>492.313</ele>
        <time>2020-07-26T07:14:30Z</time>
      </trkpt>
      <trkpt lat="41.839707" lon="2.538447">
        <ele>492.508</ele>
        <time>2020-07-26T07:14:32Z</time>
      </trkpt>
      <trkpt lat="41.839686" lon="2.538301">
        <ele>492.791</ele>
        <time>2020-07-26T07:14:35Z</time>
      </trkpt>
      <trkpt lat="41.839666" lon="2.538143">
        <ele>492.759</ele>
        <time>2020-07-26T07:14:38Z</time>
      </trkpt>
      <trkpt lat="41.839664" lon="2.538006">
        <ele>493.332</ele>
        <time>2020-07-26T07:14:41Z</time>
      </trkpt>
      <trkpt lat="41.839661" lon="2.537881">
        <ele>493.997</ele>
        <time>2020-07-26T07:14:44Z</time>
      </trkpt>
      <trkpt lat="41.839670" lon="2.537730">
        <ele>494.535</ele>
        <time>2020-07-26T07:14:48Z</time>
      </trkpt>
      <trkpt lat="41.839703" lon="2.537596">
        <ele>494.628</ele>
        <time>2020-07-26T07:14:51Z</time>
      </trkpt>
      <trkpt lat="41.839702" lon="2.537444">
        <ele>494.952</ele>
        <time>2020-07-26T07:14:54Z</time>
      </trkpt>
      <trkpt lat="41.839706" lon="2.537310">
        <ele>495.618</ele>
        <time>2020-07-26T07:14:57Z</time>
      </trkpt>
      <trkpt lat="41.839702" lon="2.537162">
        <ele>496.031</ele>
        <time>2020-07-26T07:15:00Z</time>
      </trkpt>
      <trkpt lat="41.839657" lon="2.537027">
        <ele>495.761</ele>
        <time>2020-07-26T07:15:03Z</time>
      </trkpt>
      <trkpt lat="41.839618" lon="2.536871">
        <ele>496.507</ele>
        <time>2020-07-26T07:15:06Z</time>
      </trkpt>
      <trkpt lat="41.839570" lon="2.536723">
        <ele>496.908</ele>
        <time>2020-07-26T07:15:09Z</time>
      </trkpt>
      <trkpt lat="41.839521" lon="2.536585">
        <ele>497.138</ele>
        <time>2020-07-26T07:15:12Z</time>
      </trkpt>
      <trkpt lat="41.839482" lon="2.536446">
        <ele>497.636</ele>
        <time>2020-07-26T07:15:15Z</time>
      </trkpt>
      <trkpt lat="41.839441" lon="2.536303">
        <ele>498.189</ele>
        <time>2020-07-26T07:15:18Z</time>
      </trkpt>
      <trkpt lat="41.839396" lon="2.536163">
        <ele>498.744</ele>
        <time>2020-07-26T07:15:21Z</time>
      </trkpt>
      <trkpt lat="41.839384" lon="2.536014">
        <ele>499.342</ele>
        <time>2020-07-26T07:15:25Z</time>
      </trkpt>
      <trkpt lat="41.839422" lon="2.535884">
        <ele>499.745</ele>
        <time>2020-07-26T07:15:29Z</time>
      </trkpt>
      <trkpt lat="41.839463" lon="2.535750">
        <ele>499.819</ele>
        <time>2020-07-26T07:15:32Z</time>
      </trkpt>
      <trkpt lat="41.839501" lon="2.535608">
        <ele>500.015</ele>
        <time>2020-07-26T07:15:35Z</time>
      </trkpt>
      <trkpt lat="41.839555" lon="2.535468">
        <ele>500.041</ele>
        <time>2020-07-26T07:15:38Z</time>
      </trkpt>
      <trkpt lat="41.839633" lon="2.535357">
        <ele>500.581</ele>
        <time>2020-07-26T07:15:41Z</time>
      </trkpt>
      <trkpt lat="41.839690" lon="2.535284">
        <ele>500.609</ele>
        <time>2020-07-26T07:15:43Z</time>
      </trkpt>
      <trkpt lat="41.839717" lon="2.535264">
        <ele>500.608</ele>
        <time>2020-07-26T07:15:44Z</time>
      </trkpt>
      <trkpt lat="41.839819" lon="2.535195">
        <ele>499.879</ele>
        <time>2020-07-26T07:15:48Z</time>
      </trkpt>
      <trkpt lat="41.839901" lon="2.535087">
        <ele>499.037</ele>
        <time>2020-07-26T07:15:51Z</time>
      </trkpt>
      <trkpt lat="41.839962" lon="2.534973">
        <ele>498.080</ele>
        <time>2020-07-26T07:15:53Z</time>
      </trkpt>
      <trkpt lat="41.840026" lon="2.534849">
        <ele>497.485</ele>
        <time>2020-07-26T07:15:55Z</time>
      </trkpt>
      <trkpt lat="41.840083" lon="2.534722">
        <ele>496.613</ele>
        <time>2020-07-26T07:15:57Z</time>
      </trkpt>
      <trkpt lat="41.840160" lon="2.534581">
        <ele>495.026</ele>
        <time>2020-07-26T07:16:00Z</time>
      </trkpt>
      <trkpt lat="41.840228" lon="2.534477">
        <ele>494.280</ele>
        <time>2020-07-26T07:16:02Z</time>
      </trkpt>
      <trkpt lat="41.840327" lon="2.534388">
        <ele>492.836</ele>
        <time>2020-07-26T07:16:04Z</time>
      </trkpt>
      <trkpt lat="41.840406" lon="2.534307">
        <ele>491.296</ele>
        <time>2020-07-26T07:16:06Z</time>
      </trkpt>
      <trkpt lat="41.840469" lon="2.534209">
        <ele>490.631</ele>
        <time>2020-07-26T07:16:08Z</time>
      </trkpt>
      <trkpt lat="41.840535" lon="2.534111">
        <ele>490.424</ele>
        <time>2020-07-26T07:16:10Z</time>
      </trkpt>
      <trkpt lat="41.840607" lon="2.534005">
        <ele>489.008</ele>
        <time>2020-07-26T07:16:12Z</time>
      </trkpt>
      <trkpt lat="41.840692" lon="2.533893">
        <ele>488.614</ele>
        <time>2020-07-26T07:16:14Z</time>
      </trkpt>
      <trkpt lat="41.840795" lon="2.533799">
        <ele>488.422</ele>
        <time>2020-07-26T07:16:16Z</time>
      </trkpt>
      <trkpt lat="41.840879" lon="2.533700">
        <ele>487.825</ele>
        <time>2020-07-26T07:16:18Z</time>
      </trkpt>
      <trkpt lat="41.840955" lon="2.533575">
        <ele>487.680</ele>
        <time>2020-07-26T07:16:20Z</time>
      </trkpt>
      <trkpt lat="41.841019" lon="2.533442">
        <ele>487.638</ele>
        <time>2020-07-26T07:16:22Z</time>
      </trkpt>
      <trkpt lat="41.841092" lon="2.533322">
        <ele>487.791</ele>
        <time>2020-07-26T07:16:24Z</time>
      </trkpt>
      <trkpt lat="41.841172" lon="2.533190">
        <ele>487.835</ele>
        <time>2020-07-26T07:16:27Z</time>
      </trkpt>
      <trkpt lat="41.841237" lon="2.533100">
        <ele>488.251</ele>
        <time>2020-07-26T07:16:29Z</time>
      </trkpt>
      <trkpt lat="41.841315" lon="2.532988">
        <ele>488.317</ele>
        <time>2020-07-26T07:16:32Z</time>
      </trkpt>
      <trkpt lat="41.841354" lon="2.532868">
        <ele>488.387</ele>
        <time>2020-07-26T07:16:35Z</time>
      </trkpt>
      <trkpt lat="41.841334" lon="2.532744">
        <ele>488.215</ele>
        <time>2020-07-26T07:16:38Z</time>
      </trkpt>
      <trkpt lat="41.841291" lon="2.532620">
        <ele>488.308</ele>
        <time>2020-07-26T07:16:41Z</time>
      </trkpt>
      <trkpt lat="41.841277" lon="2.532589">
        <ele>488.756</ele>
        <time>2020-07-26T07:16:42Z</time>
      </trkpt>
      <trkpt lat="41.841220" lon="2.532465">
        <ele>489.544</ele>
        <time>2020-07-26T07:16:46Z</time>
      </trkpt>
      <trkpt lat="41.841160" lon="2.532335">
        <ele>489.947</ele>
        <time>2020-07-26T07:16:50Z</time>
      </trkpt>
      <trkpt lat="41.841141" lon="2.532299">
        <ele>490.032</ele>
        <time>2020-07-26T07:16:51Z</time>
      </trkpt>
      <trkpt lat="41.841129" lon="2.532262">
        <ele>490.020</ele>
        <time>2020-07-26T07:16:52Z</time>
      </trkpt>
      <trkpt lat="41.841114" lon="2.532226">
        <ele>490.143</ele>
        <time>2020-07-26T07:16:53Z</time>
      </trkpt>
      <trkpt lat="41.841056" lon="2.532103">
        <ele>491.127</ele>
        <time>2020-07-26T07:16:57Z</time>
      </trkpt>
      <trkpt lat="41.840999" lon="2.531996">
        <ele>491.723</ele>
        <time>2020-07-26T07:17:00Z</time>
      </trkpt>
      <trkpt lat="41.840930" lon="2.531902">
        <ele>492.355</ele>
        <time>2020-07-26T07:17:03Z</time>
      </trkpt>
      <trkpt lat="41.840878" lon="2.531803">
        <ele>492.907</ele>
        <time>2020-07-26T07:17:06Z</time>
      </trkpt>
      <trkpt lat="41.840884" lon="2.531761">
        <ele>493.017</ele>
        <time>2020-07-26T07:17:07Z</time>
      </trkpt>
      <trkpt lat="41.840923" lon="2.531705">
        <ele>493.308</ele>
        <time>2020-07-26T07:17:09Z</time>
      </trkpt>
      <trkpt lat="41.840969" lon="2.531695">
        <ele>493.780</ele>
        <time>2020-07-26T07:17:11Z</time>
      </trkpt>
      <trkpt lat="41.840995" lon="2.531716">
        <ele>493.728</ele>
        <time>2020-07-26T07:17:12Z</time>
      </trkpt>
      <trkpt lat="41.841020" lon="2.531735">
        <ele>494.131</ele>
        <time>2020-07-26T07:17:13Z</time>
      </trkpt>
      <trkpt lat="41.841045" lon="2.531752">
        <ele>494.256</ele>
        <time>2020-07-26T07:17:14Z</time>
      </trkpt>
      <trkpt lat="41.841070" lon="2.531770">
        <ele>494.274</ele>
        <time>2020-07-26T07:17:15Z</time>
      </trkpt>
      <trkpt lat="41.841096" lon="2.531786">
        <ele>494.377</ele>
        <time>2020-07-26T07:17:16Z</time>
      </trkpt>
      <trkpt lat="41.841122" lon="2.531801">
        <ele>494.561</ele>
        <time>2020-07-26T07:17:17Z</time>
      </trkpt>
      <trkpt lat="41.841148" lon="2.531816">
        <ele>494.667</ele>
        <time>2020-07-26T07:17:18Z</time>
      </trkpt>
      <trkpt lat="41.841174" lon="2.531830">
        <ele>494.732</ele>
        <time>2020-07-26T07:17:19Z</time>
      </trkpt>
      <trkpt lat="41.841199" lon="2.531844">
        <ele>494.992</ele>
        <time>2020-07-26T07:17:20Z</time>
      </trkpt>
      <trkpt lat="41.841224" lon="2.531857">
        <ele>495.111</ele>
        <time>2020-07-26T07:17:21Z</time>
      </trkpt>
      <trkpt lat="41.841245" lon="2.531874">
        <ele>495.308</ele>
        <time>2020-07-26T07:17:22Z</time>
      </trkpt>
      <trkpt lat="41.841263" lon="2.531889">
        <ele>495.358</ele>
        <time>2020-07-26T07:17:23Z</time>
      </trkpt>
      <trkpt lat="41.841283" lon="2.531901">
        <ele>495.786</ele>
        <time>2020-07-26T07:17:24Z</time>
      </trkpt>
      <trkpt lat="41.841311" lon="2.531901">
        <ele>495.739</ele>
        <time>2020-07-26T07:17:25Z</time>
      </trkpt>
      <trkpt lat="41.841419" lon="2.531903">
        <ele>496.694</ele>
        <time>2020-07-26T07:17:29Z</time>
      </trkpt>
      <trkpt lat="41.841522" lon="2.531888">
        <ele>497.362</ele>
        <time>2020-07-26T07:17:33Z</time>
      </trkpt>
      <trkpt lat="41.841566" lon="2.531854">
        <ele>497.515</ele>
        <time>2020-07-26T07:17:35Z</time>
      </trkpt>
      <trkpt lat="41.841586" lon="2.531831">
        <ele>497.769</ele>
        <time>2020-07-26T07:17:36Z</time>
      </trkpt>
      <trkpt lat="41.841608" lon="2.531806">
        <ele>497.995</ele>
        <time>2020-07-26T07:17:37Z</time>
      </trkpt>
      <trkpt lat="41.841623" lon="2.531778">
        <ele>498.168</ele>
        <time>2020-07-26T07:17:38Z</time>
      </trkpt>
      <trkpt lat="41.841659" lon="2.531728">
        <ele>498.342</ele>
        <time>2020-07-26T07:17:40Z</time>
      </trkpt>
      <trkpt lat="41.841710" lon="2.531593">
        <ele>498.726</ele>
        <time>2020-07-26T07:17:44Z</time>
      </trkpt>
      <trkpt lat="41.841745" lon="2.531474">
        <ele>498.708</ele>
        <time>2020-07-26T07:17:48Z</time>
      </trkpt>
      <trkpt lat="41.841815" lon="2.531371">
        <ele>500.151</ele>
        <time>2020-07-26T07:17:53Z</time>
      </trkpt>
      <trkpt lat="41.841888" lon="2.531266">
        <ele>501.249</ele>
        <time>2020-07-26T07:17:57Z</time>
      </trkpt>
      <trkpt lat="41.841941" lon="2.531164">
        <ele>501.562</ele>
        <time>2020-07-26T07:18:00Z</time>
      </trkpt>
      <trkpt lat="41.842015" lon="2.531036">
        <ele>502.187</ele>
        <time>2020-07-26T07:18:03Z</time>
      </trkpt>
      <trkpt lat="41.842074" lon="2.530932">
        <ele>503.365</ele>
        <time>2020-07-26T07:18:06Z</time>
      </trkpt>
      <trkpt lat="41.842142" lon="2.530831">
        <ele>504.368</ele>
        <time>2020-07-26T07:18:10Z</time>
      </trkpt>
      <trkpt lat="41.842231" lon="2.530800">
        <ele>505.572</ele>
        <time>2020-07-26T07:18:14Z</time>
      </trkpt>
      <trkpt lat="41.842341" lon="2.530785">
        <ele>506.598</ele>
        <time>2020-07-26T07:18:18Z</time>
      </trkpt>
      <trkpt lat="41.842476" lon="2.530809">
        <ele>506.755</ele>
        <time>2020-07-26T07:18:21Z</time>
      </trkpt>
      <trkpt lat="41.842597" lon="2.530844">
        <ele>506.707</ele>
        <time>2020-07-26T07:18:24Z</time>
      </trkpt>
      <trkpt lat="41.842626" lon="2.530829">
        <ele>506.717</ele>
        <time>2020-07-26T07:18:25Z</time>
      </trkpt>
      <trkpt lat="41.842644" lon="2.530697">
        <ele>507.308</ele>
        <time>2020-07-26T07:18:29Z</time>
      </trkpt>
      <trkpt lat="41.842635" lon="2.530655">
        <ele>507.510</ele>
        <time>2020-07-26T07:18:30Z</time>
      </trkpt>
      <trkpt lat="41.842624" lon="2.530613">
        <ele>507.938</ele>
        <time>2020-07-26T07:18:31Z</time>
      </trkpt>
      <trkpt lat="41.842612" lon="2.530565">
        <ele>508.341</ele>
        <time>2020-07-26T07:18:32Z</time>
      </trkpt>
      <trkpt lat="41.842602" lon="2.530517">
        <ele>508.326</ele>
        <time>2020-07-26T07:18:33Z</time>
      </trkpt>
      <trkpt lat="41.842596" lon="2.530470">
        <ele>508.734</ele>
        <time>2020-07-26T07:18:34Z</time>
      </trkpt>
      <trkpt lat="41.842594" lon="2.530419">
        <ele>508.717</ele>
        <time>2020-07-26T07:18:35Z</time>
      </trkpt>
      <trkpt lat="41.842601" lon="2.530370">
        <ele>508.741</ele>
        <time>2020-07-26T07:18:36Z</time>
      </trkpt>
      <trkpt lat="41.842615" lon="2.530324">
        <ele>508.937</ele>
        <time>2020-07-26T07:18:37Z</time>
      </trkpt>
      <trkpt lat="41.842640" lon="2.530288">
        <ele>509.167</ele>
        <time>2020-07-26T07:18:38Z</time>
      </trkpt>
      <trkpt lat="41.842676" lon="2.530265">
        <ele>509.281</ele>
        <time>2020-07-26T07:18:39Z</time>
      </trkpt>
      <trkpt lat="41.842712" lon="2.530254">
        <ele>509.319</ele>
        <time>2020-07-26T07:18:40Z</time>
      </trkpt>
      <trkpt lat="41.842745" lon="2.530251">
        <ele>509.508</ele>
        <time>2020-07-26T07:18:41Z</time>
      </trkpt>
      <trkpt lat="41.842864" lon="2.530228">
        <ele>510.291</ele>
        <time>2020-07-26T07:18:44Z</time>
      </trkpt>
      <trkpt lat="41.842894" lon="2.530207">
        <ele>510.349</ele>
        <time>2020-07-26T07:18:45Z</time>
      </trkpt>
      <trkpt lat="41.842916" lon="2.530176">
        <ele>510.392</ele>
        <time>2020-07-26T07:18:46Z</time>
      </trkpt>
      <trkpt lat="41.842935" lon="2.530139">
        <ele>510.377</ele>
        <time>2020-07-26T07:18:47Z</time>
      </trkpt>
      <trkpt lat="41.842944" lon="2.530098">
        <ele>510.555</ele>
        <time>2020-07-26T07:18:48Z</time>
      </trkpt>
      <trkpt lat="41.842945" lon="2.530053">
        <ele>510.638</ele>
        <time>2020-07-26T07:18:49Z</time>
      </trkpt>
      <trkpt lat="41.842944" lon="2.530007">
        <ele>510.642</ele>
        <time>2020-07-26T07:18:50Z</time>
      </trkpt>
      <trkpt lat="41.842944" lon="2.529960">
        <ele>510.748</ele>
        <time>2020-07-26T07:18:51Z</time>
      </trkpt>
      <trkpt lat="41.842948" lon="2.529912">
        <ele>510.741</ele>
        <time>2020-07-26T07:18:52Z</time>
      </trkpt>
      <trkpt lat="41.842962" lon="2.529867">
        <ele>510.781</ele>
        <time>2020-07-26T07:18:53Z</time>
      </trkpt>
      <trkpt lat="41.842989" lon="2.529827">
        <ele>510.709</ele>
        <time>2020-07-26T07:18:54Z</time>
      </trkpt>
      <trkpt lat="41.843022" lon="2.529794">
        <ele>510.908</ele>
        <time>2020-07-26T07:18:55Z</time>
      </trkpt>
      <trkpt lat="41.843052" lon="2.529762">
        <ele>511.019</ele>
        <time>2020-07-26T07:18:56Z</time>
      </trkpt>
      <trkpt lat="41.843082" lon="2.529735">
        <ele>511.147</ele>
        <time>2020-07-26T07:18:57Z</time>
      </trkpt>
      <trkpt lat="41.843115" lon="2.529713">
        <ele>511.350</ele>
        <time>2020-07-26T07:18:58Z</time>
      </trkpt>
      <trkpt lat="41.843148" lon="2.529690">
        <ele>511.275</ele>
        <time>2020-07-26T07:18:59Z</time>
      </trkpt>
      <trkpt lat="41.843177" lon="2.529662">
        <ele>511.343</ele>
        <time>2020-07-26T07:19:00Z</time>
      </trkpt>
      <trkpt lat="41.843200" lon="2.529632">
        <ele>511.586</ele>
        <time>2020-07-26T07:19:01Z</time>
      </trkpt>
      <trkpt lat="41.843220" lon="2.529595">
        <ele>511.720</ele>
        <time>2020-07-26T07:19:02Z</time>
      </trkpt>
      <trkpt lat="41.843236" lon="2.529554">
        <ele>511.746</ele>
        <time>2020-07-26T07:19:03Z</time>
      </trkpt>
      <trkpt lat="41.843244" lon="2.529513">
        <ele>511.997</ele>
        <time>2020-07-26T07:19:04Z</time>
      </trkpt>
      <trkpt lat="41.843247" lon="2.529470">
        <ele>512.023</ele>
        <time>2020-07-26T07:19:05Z</time>
      </trkpt>
      <trkpt lat="41.843245" lon="2.529421">
        <ele>512.025</ele>
        <time>2020-07-26T07:19:06Z</time>
      </trkpt>
      <trkpt lat="41.843242" lon="2.529370">
        <ele>512.108</ele>
        <time>2020-07-26T07:19:07Z</time>
      </trkpt>
      <trkpt lat="41.843239" lon="2.529321">
        <ele>512.274</ele>
        <time>2020-07-26T07:19:08Z</time>
      </trkpt>
      <trkpt lat="41.843239" lon="2.529275">
        <ele>512.252</ele>
        <time>2020-07-26T07:19:09Z</time>
      </trkpt>
      <trkpt lat="41.843238" lon="2.529231">
        <ele>512.225</ele>
        <time>2020-07-26T07:19:10Z</time>
      </trkpt>
      <trkpt lat="41.843261" lon="2.529086">
        <ele>512.220</ele>
        <time>2020-07-26T07:19:13Z</time>
      </trkpt>
      <trkpt lat="41.843294" lon="2.528943">
        <ele>511.768</ele>
        <time>2020-07-26T07:19:16Z</time>
      </trkpt>
      <trkpt lat="41.843313" lon="2.528787">
        <ele>510.831</ele>
        <time>2020-07-26T07:19:19Z</time>
      </trkpt>
      <trkpt lat="41.843346" lon="2.528633">
        <ele>509.815</ele>
        <time>2020-07-26T07:19:22Z</time>
      </trkpt>
      <trkpt lat="41.843385" lon="2.528514">
        <ele>508.291</ele>
        <time>2020-07-26T07:19:25Z</time>
      </trkpt>
      <trkpt lat="41.843397" lon="2.528365">
        <ele>506.274</ele>
        <time>2020-07-26T07:19:29Z</time>
      </trkpt>
      <trkpt lat="41.843398" lon="2.528331">
        <ele>505.856</ele>
        <time>2020-07-26T07:19:30Z</time>
      </trkpt>
      <trkpt lat="41.843397" lon="2.528297">
        <ele>505.421</ele>
        <time>2020-07-26T07:19:31Z</time>
      </trkpt>
      <trkpt lat="41.843397" lon="2.528266">
        <ele>505.208</ele>
        <time>2020-07-26T07:19:32Z</time>
      </trkpt>
      <trkpt lat="41.843394" lon="2.528235">
        <ele>504.872</ele>
        <time>2020-07-26T07:19:33Z</time>
      </trkpt>
      <trkpt lat="41.843468" lon="2.528279">
        <ele>501.310</ele>
        <time>2020-07-26T08:33:23Z</time>
      </trkpt>
      <trkpt lat="41.843499" lon="2.528274">
        <ele>501.233</ele>
        <time>2020-07-26T08:33:25Z</time>
      </trkpt>
      <trkpt lat="41.843518" lon="2.528270">
        <ele>501.318</ele>
        <time>2020-07-26T08:33:26Z</time>
      </trkpt>
      <trkpt lat="41.843608" lon="2.528300">
        <ele>501.316</ele>
        <time>2020-07-26T08:33:30Z</time>
      </trkpt>
      <trkpt lat="41.843718" lon="2.528355">
        <ele>501.169</ele>
        <time>2020-07-26T08:33:33Z</time>
      </trkpt>
      <trkpt lat="41.843752" lon="2.528370">
        <ele>500.973</ele>
        <time>2020-07-26T08:33:34Z</time>
      </trkpt>
      <trkpt lat="41.843784" lon="2.528379">
        <ele>500.789</ele>
        <time>2020-07-26T08:33:35Z</time>
      </trkpt>
      <trkpt lat="41.843816" lon="2.528387">
        <ele>500.792</ele>
        <time>2020-07-26T08:33:36Z</time>
      </trkpt>
      <trkpt lat="41.843854" lon="2.528401">
        <ele>500.773</ele>
        <time>2020-07-26T08:33:37Z</time>
      </trkpt>
      <trkpt lat="41.843891" lon="2.528413">
        <ele>500.720</ele>
        <time>2020-07-26T08:33:38Z</time>
      </trkpt>
      <trkpt lat="41.843922" lon="2.528424">
        <ele>500.708</ele>
        <time>2020-07-26T08:33:39Z</time>
      </trkpt>
      <trkpt lat="41.843948" lon="2.528434">
        <ele>500.574</ele>
        <time>2020-07-26T08:33:40Z</time>
      </trkpt>
      <trkpt lat="41.843974" lon="2.528442">
        <ele>500.312</ele>
        <time>2020-07-26T08:33:41Z</time>
      </trkpt>
      <trkpt lat="41.843996" lon="2.528450">
        <ele>500.335</ele>
        <time>2020-07-26T08:33:42Z</time>
      </trkpt>
      <trkpt lat="41.844015" lon="2.528456">
        <ele>500.320</ele>
        <time>2020-07-26T08:33:43Z</time>
      </trkpt>
      <trkpt lat="41.844033" lon="2.528460">
        <ele>500.398</ele>
        <time>2020-07-26T08:33:44Z</time>
      </trkpt>
      <trkpt lat="41.844060" lon="2.528467">
        <ele>500.051</ele>
        <time>2020-07-26T08:33:46Z</time>
      </trkpt>
      <trkpt lat="41.844077" lon="2.528460">
        <ele>500.015</ele>
        <time>2020-07-26T08:33:48Z</time>
      </trkpt>
      <trkpt lat="41.844107" lon="2.528441">
        <ele>500.311</ele>
        <time>2020-07-26T08:33:50Z</time>
      </trkpt>
      <trkpt lat="41.844127" lon="2.528431">
        <ele>500.026</ele>
        <time>2020-07-26T08:33:51Z</time>
      </trkpt>
      <trkpt lat="41.844151" lon="2.528422">
        <ele>499.947</ele>
        <time>2020-07-26T08:33:52Z</time>
      </trkpt>
      <trkpt lat="41.844173" lon="2.528405">
        <ele>499.611</ele>
        <time>2020-07-26T08:33:53Z</time>
      </trkpt>
      <trkpt lat="41.844201" lon="2.528391">
        <ele>499.508</ele>
        <time>2020-07-26T08:33:54Z</time>
      </trkpt>
      <trkpt lat="41.844236" lon="2.528379">
        <ele>499.387</ele>
        <time>2020-07-26T08:33:55Z</time>
      </trkpt>
      <trkpt lat="41.844273" lon="2.528368">
        <ele>499.285</ele>
        <time>2020-07-26T08:33:56Z</time>
      </trkpt>
      <trkpt lat="41.844308" lon="2.528350">
        <ele>499.368</ele>
        <time>2020-07-26T08:33:57Z</time>
      </trkpt>
      <trkpt lat="41.844340" lon="2.528329">
        <ele>499.093</ele>
        <time>2020-07-26T08:33:58Z</time>
      </trkpt>
      <trkpt lat="41.844372" lon="2.528303">
        <ele>498.921</ele>
        <time>2020-07-26T08:33:59Z</time>
      </trkpt>
      <trkpt lat="41.844399" lon="2.528272">
        <ele>498.754</ele>
        <time>2020-07-26T08:34:00Z</time>
      </trkpt>
      <trkpt lat="41.844427" lon="2.528238">
        <ele>498.748</ele>
        <time>2020-07-26T08:34:01Z</time>
      </trkpt>
      <trkpt lat="41.844454" lon="2.528201">
        <ele>498.744</ele>
        <time>2020-07-26T08:34:02Z</time>
      </trkpt>
      <trkpt lat="41.844478" lon="2.528156">
        <ele>498.646</ele>
        <time>2020-07-26T08:34:03Z</time>
      </trkpt>
      <trkpt lat="41.844501" lon="2.528113">
        <ele>498.688</ele>
        <time>2020-07-26T08:34:04Z</time>
      </trkpt>
      <trkpt lat="41.844520" lon="2.528068">
        <ele>498.616</ele>
        <time>2020-07-26T08:34:05Z</time>
      </trkpt>
      <trkpt lat="41.844536" lon="2.528022">
        <ele>498.508</ele>
        <time>2020-07-26T08:34:06Z</time>
      </trkpt>
      <trkpt lat="41.844547" lon="2.527974">
        <ele>498.429</ele>
        <time>2020-07-26T08:34:07Z</time>
      </trkpt>
      <trkpt lat="41.844556" lon="2.527927">
        <ele>498.567</ele>
        <time>2020-07-26T08:34:08Z</time>
      </trkpt>
      <trkpt lat="41.844564" lon="2.527879">
        <ele>498.360</ele>
        <time>2020-07-26T08:34:09Z</time>
      </trkpt>
      <trkpt lat="41.844571" lon="2.527828">
        <ele>498.315</ele>
        <time>2020-07-26T08:34:10Z</time>
      </trkpt>
      <trkpt lat="41.844577" lon="2.527776">
        <ele>498.373</ele>
        <time>2020-07-26T08:34:11Z</time>
      </trkpt>
      <trkpt lat="41.844583" lon="2.527725">
        <ele>498.386</ele>
        <time>2020-07-26T08:34:12Z</time>
      </trkpt>
      <trkpt lat="41.844586" lon="2.527676">
        <ele>498.410</ele>
        <time>2020-07-26T08:34:13Z</time>
      </trkpt>
      <trkpt lat="41.844589" lon="2.527632">
        <ele>498.626</ele>
        <time>2020-07-26T08:34:14Z</time>
      </trkpt>
      <trkpt lat="41.844589" lon="2.527591">
        <ele>498.645</ele>
        <time>2020-07-26T08:34:15Z</time>
      </trkpt>
      <trkpt lat="41.844589" lon="2.527553">
        <ele>498.847</ele>
        <time>2020-07-26T08:34:16Z</time>
      </trkpt>
      <trkpt lat="41.844591" lon="2.527518">
        <ele>499.011</ele>
        <time>2020-07-26T08:34:17Z</time>
      </trkpt>
      <trkpt lat="41.844591" lon="2.527481">
        <ele>499.208</ele>
        <time>2020-07-26T08:34:18Z</time>
      </trkpt>
      <trkpt lat="41.844592" lon="2.527445">
        <ele>499.439</ele>
        <time>2020-07-26T08:34:19Z</time>
      </trkpt>
      <trkpt lat="41.844599" lon="2.527410">
        <ele>499.697</ele>
        <time>2020-07-26T08:34:20Z</time>
      </trkpt>
      <trkpt lat="41.844615" lon="2.527384">
        <ele>499.890</ele>
        <time>2020-07-26T08:34:21Z</time>
      </trkpt>
      <trkpt lat="41.844639" lon="2.527371">
        <ele>500.075</ele>
        <time>2020-07-26T08:34:22Z</time>
      </trkpt>
      <trkpt lat="41.844663" lon="2.527379">
        <ele>500.233</ele>
        <time>2020-07-26T08:34:23Z</time>
      </trkpt>
      <trkpt lat="41.844680" lon="2.527399">
        <ele>500.666</ele>
        <time>2020-07-26T08:34:24Z</time>
      </trkpt>
      <trkpt lat="41.844690" lon="2.527424">
        <ele>500.830</ele>
        <time>2020-07-26T08:34:25Z</time>
      </trkpt>
      <trkpt lat="41.844695" lon="2.527454">
        <ele>501.126</ele>
        <time>2020-07-26T08:34:26Z</time>
      </trkpt>
      <trkpt lat="41.844699" lon="2.527486">
        <ele>501.652</ele>
        <time>2020-07-26T08:34:27Z</time>
      </trkpt>
      <trkpt lat="41.844702" lon="2.527519">
        <ele>501.853</ele>
        <time>2020-07-26T08:34:28Z</time>
      </trkpt>
      <trkpt lat="41.844704" lon="2.527551">
        <ele>502.008</ele>
        <time>2020-07-26T08:34:29Z</time>
      </trkpt>
      <trkpt lat="41.844708" lon="2.527585">
        <ele>502.408</ele>
        <time>2020-07-26T08:34:30Z</time>
      </trkpt>
      <trkpt lat="41.844711" lon="2.527615">
        <ele>502.630</ele>
        <time>2020-07-26T08:34:31Z</time>
      </trkpt>
      <trkpt lat="41.844717" lon="2.527648">
        <ele>503.038</ele>
        <time>2020-07-26T08:34:32Z</time>
      </trkpt>
      <trkpt lat="41.844720" lon="2.527677">
        <ele>503.261</ele>
        <time>2020-07-26T08:34:33Z</time>
      </trkpt>
      <trkpt lat="41.844723" lon="2.527705">
        <ele>503.416</ele>
        <time>2020-07-26T08:34:34Z</time>
      </trkpt>
      <trkpt lat="41.844722" lon="2.527736">
        <ele>503.834</ele>
        <time>2020-07-26T08:34:35Z</time>
      </trkpt>
      <trkpt lat="41.844724" lon="2.527768">
        <ele>504.037</ele>
        <time>2020-07-26T08:34:36Z</time>
      </trkpt>
      <trkpt lat="41.844726" lon="2.527802">
        <ele>504.221</ele>
        <time>2020-07-26T08:34:37Z</time>
      </trkpt>
      <trkpt lat="41.844731" lon="2.527837">
        <ele>504.227</ele>
        <time>2020-07-26T08:34:38Z</time>
      </trkpt>
      <trkpt lat="41.844741" lon="2.527872">
        <ele>504.397</ele>
        <time>2020-07-26T08:34:39Z</time>
      </trkpt>
      <trkpt lat="41.844754" lon="2.527907">
        <ele>504.323</ele>
        <time>2020-07-26T08:34:40Z</time>
      </trkpt>
      <trkpt lat="41.844768" lon="2.527942">
        <ele>504.325</ele>
        <time>2020-07-26T08:34:41Z</time>
      </trkpt>
      <trkpt lat="41.844780" lon="2.527979">
        <ele>504.408</ele>
        <time>2020-07-26T08:34:42Z</time>
      </trkpt>
      <trkpt lat="41.844792" lon="2.528016">
        <ele>504.674</ele>
        <time>2020-07-26T08:34:43Z</time>
      </trkpt>
      <trkpt lat="41.844805" lon="2.528053">
        <ele>504.872</ele>
        <time>2020-07-26T08:34:44Z</time>
      </trkpt>
      <trkpt lat="41.844818" lon="2.528090">
        <ele>505.055</ele>
        <time>2020-07-26T08:34:45Z</time>
      </trkpt>
      <trkpt lat="41.844829" lon="2.528127">
        <ele>505.220</ele>
        <time>2020-07-26T08:34:46Z</time>
      </trkpt>
      <trkpt lat="41.844842" lon="2.528162">
        <ele>505.428</ele>
        <time>2020-07-26T08:34:47Z</time>
      </trkpt>
      <trkpt lat="41.844858" lon="2.528198">
        <ele>505.681</ele>
        <time>2020-07-26T08:34:48Z</time>
      </trkpt>
      <trkpt lat="41.844871" lon="2.528232">
        <ele>505.695</ele>
        <time>2020-07-26T08:34:49Z</time>
      </trkpt>
      <trkpt lat="41.844882" lon="2.528267">
        <ele>505.661</ele>
        <time>2020-07-26T08:34:50Z</time>
      </trkpt>
      <trkpt lat="41.844892" lon="2.528304">
        <ele>506.065</ele>
        <time>2020-07-26T08:34:51Z</time>
      </trkpt>
      <trkpt lat="41.844906" lon="2.528337">
        <ele>506.268</ele>
        <time>2020-07-26T08:34:52Z</time>
      </trkpt>
      <trkpt lat="41.844919" lon="2.528370">
        <ele>506.314</ele>
        <time>2020-07-26T08:34:53Z</time>
      </trkpt>
      <trkpt lat="41.844933" lon="2.528402">
        <ele>506.308</ele>
        <time>2020-07-26T08:34:54Z</time>
      </trkpt>
      <trkpt lat="41.844947" lon="2.528434">
        <ele>506.451</ele>
        <time>2020-07-26T08:34:55Z</time>
      </trkpt>
      <trkpt lat="41.844960" lon="2.528464">
        <ele>506.699</ele>
        <time>2020-07-26T08:34:56Z</time>
      </trkpt>
      <trkpt lat="41.844972" lon="2.528493">
        <ele>506.792</ele>
        <time>2020-07-26T08:34:57Z</time>
      </trkpt>
      <trkpt lat="41.844991" lon="2.528520">
        <ele>506.847</ele>
        <time>2020-07-26T08:34:58Z</time>
      </trkpt>
      <trkpt lat="41.845015" lon="2.528542">
        <ele>507.025</ele>
        <time>2020-07-26T08:34:59Z</time>
      </trkpt>
      <trkpt lat="41.845044" lon="2.528562">
        <ele>507.258</ele>
        <time>2020-07-26T08:35:00Z</time>
      </trkpt>
      <trkpt lat="41.845075" lon="2.528578">
        <ele>507.352</ele>
        <time>2020-07-26T08:35:01Z</time>
      </trkpt>
      <trkpt lat="41.845104" lon="2.528592">
        <ele>507.338</ele>
        <time>2020-07-26T08:35:02Z</time>
      </trkpt>
      <trkpt lat="41.845179" lon="2.528608">
        <ele>507.379</ele>
        <time>2020-07-26T08:35:04Z</time>
      </trkpt>
      <trkpt lat="41.845220" lon="2.528609">
        <ele>507.305</ele>
        <time>2020-07-26T08:35:05Z</time>
      </trkpt>
      <trkpt lat="41.845262" lon="2.528604">
        <ele>507.325</ele>
        <time>2020-07-26T08:35:06Z</time>
      </trkpt>
      <trkpt lat="41.845296" lon="2.528596">
        <ele>507.108</ele>
        <time>2020-07-26T08:35:07Z</time>
      </trkpt>
      <trkpt lat="41.845326" lon="2.528581">
        <ele>506.962</ele>
        <time>2020-07-26T08:35:08Z</time>
      </trkpt>
      <trkpt lat="41.845361" lon="2.528558">
        <ele>506.710</ele>
        <time>2020-07-26T08:35:09Z</time>
      </trkpt>
      <trkpt lat="41.845394" lon="2.528537">
        <ele>506.713</ele>
        <time>2020-07-26T08:35:10Z</time>
      </trkpt>
      <trkpt lat="41.845434" lon="2.528519">
        <ele>506.678</ele>
        <time>2020-07-26T08:35:11Z</time>
      </trkpt>
      <trkpt lat="41.845485" lon="2.528504">
        <ele>506.696</ele>
        <time>2020-07-26T08:35:12Z</time>
      </trkpt>
      <trkpt lat="41.845538" lon="2.528499">
        <ele>506.689</ele>
        <time>2020-07-26T08:35:13Z</time>
      </trkpt>
      <trkpt lat="41.845588" lon="2.528510">
        <ele>506.633</ele>
        <time>2020-07-26T08:35:14Z</time>
      </trkpt>
      <trkpt lat="41.845640" lon="2.528531">
        <ele>506.669</ele>
        <time>2020-07-26T08:35:15Z</time>
      </trkpt>
      <trkpt lat="41.845693" lon="2.528558">
        <ele>506.592</ele>
        <time>2020-07-26T08:35:16Z</time>
      </trkpt>
      <trkpt lat="41.845744" lon="2.528583">
        <ele>506.373</ele>
        <time>2020-07-26T08:35:17Z</time>
      </trkpt>
      <trkpt lat="41.845793" lon="2.528613">
        <ele>506.320</ele>
        <time>2020-07-26T08:35:18Z</time>
      </trkpt>
      <trkpt lat="41.845843" lon="2.528642">
        <ele>506.308</ele>
        <time>2020-07-26T08:35:19Z</time>
      </trkpt>
      <trkpt lat="41.845889" lon="2.528671">
        <ele>506.094</ele>
        <time>2020-07-26T08:35:20Z</time>
      </trkpt>
      <trkpt lat="41.845936" lon="2.528700">
        <ele>505.912</ele>
        <time>2020-07-26T08:35:21Z</time>
      </trkpt>
      <trkpt lat="41.845981" lon="2.528730">
        <ele>505.815</ele>
        <time>2020-07-26T08:35:22Z</time>
      </trkpt>
      <trkpt lat="41.846028" lon="2.528754">
        <ele>505.930</ele>
        <time>2020-07-26T08:35:23Z</time>
      </trkpt>
      <trkpt lat="41.846076" lon="2.528774">
        <ele>505.758</ele>
        <time>2020-07-26T08:35:24Z</time>
      </trkpt>
      <trkpt lat="41.846193" lon="2.528788">
        <ele>505.331</ele>
        <time>2020-07-26T08:35:27Z</time>
      </trkpt>
      <trkpt lat="41.846301" lon="2.528739">
        <ele>505.245</ele>
        <time>2020-07-26T08:35:30Z</time>
      </trkpt>
      <trkpt lat="41.846420" lon="2.528721">
        <ele>505.321</ele>
        <time>2020-07-26T08:35:33Z</time>
      </trkpt>
      <trkpt lat="41.846527" lon="2.528749">
        <ele>505.273</ele>
        <time>2020-07-26T08:35:36Z</time>
      </trkpt>
      <trkpt lat="41.846623" lon="2.528807">
        <ele>505.685</ele>
        <time>2020-07-26T08:35:39Z</time>
      </trkpt>
      <trkpt lat="41.846702" lon="2.528866">
        <ele>506.013</ele>
        <time>2020-07-26T08:35:42Z</time>
      </trkpt>
      <trkpt lat="41.846780" lon="2.528951">
        <ele>506.608</ele>
        <time>2020-07-26T08:35:46Z</time>
      </trkpt>
      <trkpt lat="41.846852" lon="2.529045">
        <ele>507.072</ele>
        <time>2020-07-26T08:35:49Z</time>
      </trkpt>
      <trkpt lat="41.846900" lon="2.529164">
        <ele>507.330</ele>
        <time>2020-07-26T08:35:51Z</time>
      </trkpt>
      <trkpt lat="41.846940" lon="2.529279">
        <ele>507.683</ele>
        <time>2020-07-26T08:35:53Z</time>
      </trkpt>
      <trkpt lat="41.846976" lon="2.529391">
        <ele>507.698</ele>
        <time>2020-07-26T08:35:55Z</time>
      </trkpt>
      <trkpt lat="41.846943" lon="2.529517">
        <ele>508.476</ele>
        <time>2020-07-26T08:35:59Z</time>
      </trkpt>
      <trkpt lat="41.846835" lon="2.529589">
        <ele>509.249</ele>
        <time>2020-07-26T08:36:03Z</time>
      </trkpt>
      <trkpt lat="41.846728" lon="2.529629">
        <ele>510.213</ele>
        <time>2020-07-26T08:36:06Z</time>
      </trkpt>
      <trkpt lat="41.846630" lon="2.529656">
        <ele>510.779</ele>
        <time>2020-07-26T08:36:09Z</time>
      </trkpt>
      <trkpt lat="41.846525" lon="2.529690">
        <ele>511.659</ele>
        <time>2020-07-26T08:36:13Z</time>
      </trkpt>
      <trkpt lat="41.846416" lon="2.529737">
        <ele>512.603</ele>
        <time>2020-07-26T08:36:17Z</time>
      </trkpt>
      <trkpt lat="41.846343" lon="2.529829">
        <ele>513.823</ele>
        <time>2020-07-26T08:36:22Z</time>
      </trkpt>
      <trkpt lat="41.846304" lon="2.529934">
        <ele>515.008</ele>
        <time>2020-07-26T08:36:26Z</time>
      </trkpt>
      <trkpt lat="41.846299" lon="2.529963">
        <ele>515.430</ele>
        <time>2020-07-26T08:36:27Z</time>
      </trkpt>
      <trkpt lat="41.846295" lon="2.529998">
        <ele>515.668</ele>
        <time>2020-07-26T08:36:28Z</time>
      </trkpt>
      <trkpt lat="41.846292" lon="2.530034">
        <ele>515.851</ele>
        <time>2020-07-26T08:36:29Z</time>
      </trkpt>
      <trkpt lat="41.846283" lon="2.530076">
        <ele>516.056</ele>
        <time>2020-07-26T08:36:30Z</time>
      </trkpt>
      <trkpt lat="41.846279" lon="2.530112">
        <ele>516.214</ele>
        <time>2020-07-26T08:36:31Z</time>
      </trkpt>
      <trkpt lat="41.846277" lon="2.530148">
        <ele>516.637</ele>
        <time>2020-07-26T08:36:32Z</time>
      </trkpt>
      <trkpt lat="41.846276" lon="2.530186">
        <ele>516.821</ele>
        <time>2020-07-26T08:36:33Z</time>
      </trkpt>
      <trkpt lat="41.846275" lon="2.530226">
        <ele>517.227</ele>
        <time>2020-07-26T08:36:34Z</time>
      </trkpt>
      <trkpt lat="41.846273" lon="2.530267">
        <ele>517.454</ele>
        <time>2020-07-26T08:36:35Z</time>
      </trkpt>
      <trkpt lat="41.846266" lon="2.530311">
        <ele>517.656</ele>
        <time>2020-07-26T08:36:36Z</time>
      </trkpt>
      <trkpt lat="41.846264" lon="2.530355">
        <ele>517.811</ele>
        <time>2020-07-26T08:36:37Z</time>
      </trkpt>
      <trkpt lat="41.846265" lon="2.530398">
        <ele>518.008</ele>
        <time>2020-07-26T08:36:38Z</time>
      </trkpt>
      <trkpt lat="41.846270" lon="2.530440">
        <ele>518.270</ele>
        <time>2020-07-26T08:36:39Z</time>
      </trkpt>
      <trkpt lat="41.846279" lon="2.530482">
        <ele>518.448</ele>
        <time>2020-07-26T08:36:40Z</time>
      </trkpt>
      <trkpt lat="41.846288" lon="2.530523">
        <ele>518.841</ele>
        <time>2020-07-26T08:36:41Z</time>
      </trkpt>
      <trkpt lat="41.846298" lon="2.530567">
        <ele>519.016</ele>
        <time>2020-07-26T08:36:42Z</time>
      </trkpt>
      <trkpt lat="41.846305" lon="2.530610">
        <ele>519.244</ele>
        <time>2020-07-26T08:36:43Z</time>
      </trkpt>
      <trkpt lat="41.846312" lon="2.530652">
        <ele>519.477</ele>
        <time>2020-07-26T08:36:44Z</time>
      </trkpt>
      <trkpt lat="41.846313" lon="2.530696">
        <ele>519.421</ele>
        <time>2020-07-26T08:36:45Z</time>
      </trkpt>
      <trkpt lat="41.846316" lon="2.530736">
        <ele>519.737</ele>
        <time>2020-07-26T08:36:46Z</time>
      </trkpt>
      <trkpt lat="41.846317" lon="2.530776">
        <ele>519.554</ele>
        <time>2020-07-26T08:36:47Z</time>
      </trkpt>
      <trkpt lat="41.846319" lon="2.530816">
        <ele>519.656</ele>
        <time>2020-07-26T08:36:48Z</time>
      </trkpt>
      <trkpt lat="41.846319" lon="2.530858">
        <ele>519.811</ele>
        <time>2020-07-26T08:36:49Z</time>
      </trkpt>
      <trkpt lat="41.846315" lon="2.530902">
        <ele>520.008</ele>
        <time>2020-07-26T08:36:50Z</time>
      </trkpt>
      <trkpt lat="41.846309" lon="2.530947">
        <ele>520.240</ele>
        <time>2020-07-26T08:36:51Z</time>
      </trkpt>
      <trkpt lat="41.846306" lon="2.530992">
        <ele>520.578</ele>
        <time>2020-07-26T08:36:52Z</time>
      </trkpt>
      <trkpt lat="41.846301" lon="2.531036">
        <ele>520.491</ele>
        <time>2020-07-26T08:36:53Z</time>
      </trkpt>
      <trkpt lat="41.846296" lon="2.531082">
        <ele>520.426</ele>
        <time>2020-07-26T08:36:54Z</time>
      </trkpt>
      <trkpt lat="41.846292" lon="2.531129">
        <ele>520.564</ele>
        <time>2020-07-26T08:36:55Z</time>
      </trkpt>
      <trkpt lat="41.846290" lon="2.531176">
        <ele>520.587</ele>
        <time>2020-07-26T08:36:56Z</time>
      </trkpt>
      <trkpt lat="41.846288" lon="2.531225">
        <ele>520.641</ele>
        <time>2020-07-26T08:36:57Z</time>
      </trkpt>
      <trkpt lat="41.846284" lon="2.531274">
        <ele>520.777</ele>
        <time>2020-07-26T08:36:58Z</time>
      </trkpt>
      <trkpt lat="41.846282" lon="2.531324">
        <ele>520.642</ele>
        <time>2020-07-26T08:36:59Z</time>
      </trkpt>
      <trkpt lat="41.846280" lon="2.531374">
        <ele>521.022</ele>
        <time>2020-07-26T08:37:00Z</time>
      </trkpt>
      <trkpt lat="41.846282" lon="2.531422">
        <ele>521.214</ele>
        <time>2020-07-26T08:37:01Z</time>
      </trkpt>
      <trkpt lat="41.846287" lon="2.531472">
        <ele>521.208</ele>
        <time>2020-07-26T08:37:02Z</time>
      </trkpt>
      <trkpt lat="41.846294" lon="2.531520">
        <ele>521.219</ele>
        <time>2020-07-26T08:37:03Z</time>
      </trkpt>
      <trkpt lat="41.846301" lon="2.531569">
        <ele>521.417</ele>
        <time>2020-07-26T08:37:04Z</time>
      </trkpt>
      <trkpt lat="41.846303" lon="2.531619">
        <ele>521.390</ele>
        <time>2020-07-26T08:37:05Z</time>
      </trkpt>
      <trkpt lat="41.846305" lon="2.531668">
        <ele>521.285</ele>
        <time>2020-07-26T08:37:06Z</time>
      </trkpt>
      <trkpt lat="41.846305" lon="2.531719">
        <ele>521.293</ele>
        <time>2020-07-26T08:37:07Z</time>
      </trkpt>
      <trkpt lat="41.846306" lon="2.531772">
        <ele>521.226</ele>
        <time>2020-07-26T08:37:08Z</time>
      </trkpt>
      <trkpt lat="41.846307" lon="2.531821">
        <ele>521.250</ele>
        <time>2020-07-26T08:37:09Z</time>
      </trkpt>
      <trkpt lat="41.846308" lon="2.531863">
        <ele>521.426</ele>
        <time>2020-07-26T08:37:10Z</time>
      </trkpt>
      <trkpt lat="41.846310" lon="2.531903">
        <ele>521.489</ele>
        <time>2020-07-26T08:37:11Z</time>
      </trkpt>
      <trkpt lat="41.846312" lon="2.531956">
        <ele>521.406</ele>
        <time>2020-07-26T08:37:12Z</time>
      </trkpt>
      <trkpt lat="41.846315" lon="2.532010">
        <ele>521.626</ele>
        <time>2020-07-26T08:37:13Z</time>
      </trkpt>
      <trkpt lat="41.846312" lon="2.532062">
        <ele>521.808</ele>
        <time>2020-07-26T08:37:14Z</time>
      </trkpt>
      <trkpt lat="41.846311" lon="2.532108">
        <ele>522.223</ele>
        <time>2020-07-26T08:37:15Z</time>
      </trkpt>
      <trkpt lat="41.846319" lon="2.532153">
        <ele>522.421</ele>
        <time>2020-07-26T08:37:16Z</time>
      </trkpt>
      <trkpt lat="41.846328" lon="2.532201">
        <ele>522.624</ele>
        <time>2020-07-26T08:37:17Z</time>
      </trkpt>
      <trkpt lat="41.846333" lon="2.532243">
        <ele>522.819</ele>
        <time>2020-07-26T08:37:18Z</time>
      </trkpt>
      <trkpt lat="41.846339" lon="2.532287">
        <ele>523.217</ele>
        <time>2020-07-26T08:37:19Z</time>
      </trkpt>
      <trkpt lat="41.846345" lon="2.532324">
        <ele>523.450</ele>
        <time>2020-07-26T08:37:20Z</time>
      </trkpt>
      <trkpt lat="41.846354" lon="2.532352">
        <ele>523.644</ele>
        <time>2020-07-26T08:37:21Z</time>
      </trkpt>
      <trkpt lat="41.846362" lon="2.532378">
        <ele>523.750</ele>
        <time>2020-07-26T08:37:22Z</time>
      </trkpt>
      <trkpt lat="41.846370" lon="2.532406">
        <ele>523.885</ele>
        <time>2020-07-26T08:37:23Z</time>
      </trkpt>
      <trkpt lat="41.846385" lon="2.532438">
        <ele>524.089</ele>
        <time>2020-07-26T08:37:24Z</time>
      </trkpt>
      <trkpt lat="41.846448" lon="2.532508">
        <ele>524.217</ele>
        <time>2020-07-26T08:37:26Z</time>
      </trkpt>
      <trkpt lat="41.846499" lon="2.532587">
        <ele>524.608</ele>
        <time>2020-07-26T08:37:28Z</time>
      </trkpt>
      <trkpt lat="41.846527" lon="2.532628">
        <ele>525.073</ele>
        <time>2020-07-26T08:37:29Z</time>
      </trkpt>
      <trkpt lat="41.846608" lon="2.532755">
        <ele>525.841</ele>
        <time>2020-07-26T08:37:32Z</time>
      </trkpt>
      <trkpt lat="41.846653" lon="2.532872">
        <ele>526.634</ele>
        <time>2020-07-26T08:37:35Z</time>
      </trkpt>
      <trkpt lat="41.846668" lon="2.532905">
        <ele>526.869</ele>
        <time>2020-07-26T08:37:36Z</time>
      </trkpt>
      <trkpt lat="41.846677" lon="2.532934">
        <ele>527.037</ele>
        <time>2020-07-26T08:37:37Z</time>
      </trkpt>
      <trkpt lat="41.846687" lon="2.532957">
        <ele>527.260</ele>
        <time>2020-07-26T08:37:38Z</time>
      </trkpt>
      <trkpt lat="41.846711" lon="2.532981">
        <ele>527.634</ele>
        <time>2020-07-26T08:37:40Z</time>
      </trkpt>
      <trkpt lat="41.846772" lon="2.532978">
        <ele>528.440</ele>
        <time>2020-07-26T08:37:43Z</time>
      </trkpt>
      <trkpt lat="41.846883" lon="2.532950">
        <ele>529.245</ele>
        <time>2020-07-26T08:37:47Z</time>
      </trkpt>
      <trkpt lat="41.846996" lon="2.532908">
        <ele>529.647</ele>
        <time>2020-07-26T08:37:50Z</time>
      </trkpt>
      <trkpt lat="41.847131" lon="2.532909">
        <ele>530.211</ele>
        <time>2020-07-26T08:37:53Z</time>
      </trkpt>
      <trkpt lat="41.847230" lon="2.533026">
        <ele>530.808</ele>
        <time>2020-07-26T08:37:56Z</time>
      </trkpt>
      <trkpt lat="41.847276" lon="2.533160">
        <ele>531.549</ele>
        <time>2020-07-26T08:37:59Z</time>
      </trkpt>
      <trkpt lat="41.847285" lon="2.533288">
        <ele>532.277</ele>
        <time>2020-07-26T08:38:02Z</time>
      </trkpt>
      <trkpt lat="41.847291" lon="2.533442">
        <ele>533.060</ele>
        <time>2020-07-26T08:38:06Z</time>
      </trkpt>
      <trkpt lat="41.847291" lon="2.533484">
        <ele>533.235</ele>
        <time>2020-07-26T08:38:07Z</time>
      </trkpt>
      <trkpt lat="41.847288" lon="2.533526">
        <ele>533.233</ele>
        <time>2020-07-26T08:38:08Z</time>
      </trkpt>
      <trkpt lat="41.847295" lon="2.533576">
        <ele>533.286</ele>
        <time>2020-07-26T08:38:09Z</time>
      </trkpt>
      <trkpt lat="41.847300" lon="2.533629">
        <ele>533.470</ele>
        <time>2020-07-26T08:38:10Z</time>
      </trkpt>
      <trkpt lat="41.847302" lon="2.533678">
        <ele>533.646</ele>
        <time>2020-07-26T08:38:11Z</time>
      </trkpt>
      <trkpt lat="41.847302" lon="2.533730">
        <ele>534.064</ele>
        <time>2020-07-26T08:38:12Z</time>
      </trkpt>
      <trkpt lat="41.847306" lon="2.533782">
        <ele>534.206</ele>
        <time>2020-07-26T08:38:13Z</time>
      </trkpt>
      <trkpt lat="41.847309" lon="2.533828">
        <ele>534.416</ele>
        <time>2020-07-26T08:38:14Z</time>
      </trkpt>
      <trkpt lat="41.847308" lon="2.533876">
        <ele>534.608</ele>
        <time>2020-07-26T08:38:15Z</time>
      </trkpt>
      <trkpt lat="41.847308" lon="2.533921">
        <ele>534.821</ele>
        <time>2020-07-26T08:38:16Z</time>
      </trkpt>
      <trkpt lat="41.847308" lon="2.533964">
        <ele>535.239</ele>
        <time>2020-07-26T08:38:17Z</time>
      </trkpt>
      <trkpt lat="41.847309" lon="2.534009">
        <ele>535.272</ele>
        <time>2020-07-26T08:38:18Z</time>
      </trkpt>
      <trkpt lat="41.847313" lon="2.534061">
        <ele>535.427</ele>
        <time>2020-07-26T08:38:19Z</time>
      </trkpt>
      <trkpt lat="41.847315" lon="2.534108">
        <ele>535.615</ele>
        <time>2020-07-26T08:38:20Z</time>
      </trkpt>
      <trkpt lat="41.847318" lon="2.534154">
        <ele>535.898</ele>
        <time>2020-07-26T08:38:21Z</time>
      </trkpt>
      <trkpt lat="41.847322" lon="2.534196">
        <ele>536.082</ele>
        <time>2020-07-26T08:38:22Z</time>
      </trkpt>
      <trkpt lat="41.847329" lon="2.534237">
        <ele>536.298</ele>
        <time>2020-07-26T08:38:23Z</time>
      </trkpt>
      <trkpt lat="41.847340" lon="2.534276">
        <ele>536.627</ele>
        <time>2020-07-26T08:38:24Z</time>
      </trkpt>
      <trkpt lat="41.847348" lon="2.534317">
        <ele>536.868</ele>
        <time>2020-07-26T08:38:25Z</time>
      </trkpt>
      <trkpt lat="41.847357" lon="2.534358">
        <ele>537.014</ele>
        <time>2020-07-26T08:38:26Z</time>
      </trkpt>
      <trkpt lat="41.847366" lon="2.534395">
        <ele>537.408</ele>
        <time>2020-07-26T08:38:27Z</time>
      </trkpt>
      <trkpt lat="41.847380" lon="2.534433">
        <ele>537.697</ele>
        <time>2020-07-26T08:38:28Z</time>
      </trkpt>
      <trkpt lat="41.847398" lon="2.534472">
        <ele>537.785</ele>
        <time>2020-07-26T08:38:29Z</time>
      </trkpt>
      <trkpt lat="41.847417" lon="2.534510">
        <ele>537.878</ele>
        <time>2020-07-26T08:38:30Z</time>
      </trkpt>
      <trkpt lat="41.847431" lon="2.534552">
        <ele>538.033</ele>
        <time>2020-07-26T08:38:31Z</time>
      </trkpt>
      <trkpt lat="41.847443" lon="2.534594">
        <ele>538.261</ele>
        <time>2020-07-26T08:38:32Z</time>
      </trkpt>
      <trkpt lat="41.847464" lon="2.534633">
        <ele>538.264</ele>
        <time>2020-07-26T08:38:33Z</time>
      </trkpt>
      <trkpt lat="41.847496" lon="2.534712">
        <ele>538.898</ele>
        <time>2020-07-26T08:38:35Z</time>
      </trkpt>
      <trkpt lat="41.847528" lon="2.534850">
        <ele>539.554</ele>
        <time>2020-07-26T08:38:38Z</time>
      </trkpt>
      <trkpt lat="41.847560" lon="2.534976">
        <ele>539.743</ele>
        <time>2020-07-26T08:38:41Z</time>
      </trkpt>
      <trkpt lat="41.847574" lon="2.535016">
        <ele>539.864</ele>
        <time>2020-07-26T08:38:42Z</time>
      </trkpt>
      <trkpt lat="41.847614" lon="2.535127">
        <ele>540.410</ele>
        <time>2020-07-26T08:38:45Z</time>
      </trkpt>
      <trkpt lat="41.847698" lon="2.535108">
        <ele>541.808</ele>
        <time>2020-07-26T08:38:50Z</time>
      </trkpt>
      <trkpt lat="41.847709" lon="2.535076">
        <ele>542.299</ele>
        <time>2020-07-26T08:38:51Z</time>
      </trkpt>
      <trkpt lat="41.847715" lon="2.535039">
        <ele>542.457</ele>
        <time>2020-07-26T08:38:52Z</time>
      </trkpt>
      <trkpt lat="41.847715" lon="2.535001">
        <ele>542.840</ele>
        <time>2020-07-26T08:38:53Z</time>
      </trkpt>
      <trkpt lat="41.847712" lon="2.534962">
        <ele>543.095</ele>
        <time>2020-07-26T08:38:54Z</time>
      </trkpt>
      <trkpt lat="41.847706" lon="2.534928">
        <ele>543.483</ele>
        <time>2020-07-26T08:38:55Z</time>
      </trkpt>
      <trkpt lat="41.847698" lon="2.534896">
        <ele>543.626</ele>
        <time>2020-07-26T08:38:56Z</time>
      </trkpt>
      <trkpt lat="41.847689" lon="2.534866">
        <ele>543.820</ele>
        <time>2020-07-26T08:38:57Z</time>
      </trkpt>
      <trkpt lat="41.847680" lon="2.534835">
        <ele>544.056</ele>
        <time>2020-07-26T08:38:58Z</time>
      </trkpt>
      <trkpt lat="41.847672" lon="2.534802">
        <ele>544.418</ele>
        <time>2020-07-26T08:38:59Z</time>
      </trkpt>
      <trkpt lat="41.847666" lon="2.534766">
        <ele>544.698</ele>
        <time>2020-07-26T08:39:00Z</time>
      </trkpt>
      <trkpt lat="41.847657" lon="2.534726">
        <ele>544.817</ele>
        <time>2020-07-26T08:39:01Z</time>
      </trkpt>
      <trkpt lat="41.847647" lon="2.534686">
        <ele>545.208</ele>
        <time>2020-07-26T08:39:02Z</time>
      </trkpt>
      <trkpt lat="41.847638" lon="2.534643">
        <ele>545.486</ele>
        <time>2020-07-26T08:39:03Z</time>
      </trkpt>
      <trkpt lat="41.847629" lon="2.534601">
        <ele>545.484</ele>
        <time>2020-07-26T08:39:04Z</time>
      </trkpt>
      <trkpt lat="41.847622" lon="2.534562">
        <ele>545.697</ele>
        <time>2020-07-26T08:39:05Z</time>
      </trkpt>
      <trkpt lat="41.847616" lon="2.534517">
        <ele>545.782</ele>
        <time>2020-07-26T08:39:06Z</time>
      </trkpt>
      <trkpt lat="41.847611" lon="2.534473">
        <ele>545.820</ele>
        <time>2020-07-26T08:39:07Z</time>
      </trkpt>
      <trkpt lat="41.847610" lon="2.534429">
        <ele>546.083</ele>
        <time>2020-07-26T08:39:08Z</time>
      </trkpt>
      <trkpt lat="41.847612" lon="2.534386">
        <ele>546.447</ele>
        <time>2020-07-26T08:39:09Z</time>
      </trkpt>
      <trkpt lat="41.847616" lon="2.534342">
        <ele>546.673</ele>
        <time>2020-07-26T08:39:10Z</time>
      </trkpt>
      <trkpt lat="41.847621" lon="2.534300">
        <ele>547.033</ele>
        <time>2020-07-26T08:39:11Z</time>
      </trkpt>
      <trkpt lat="41.847631" lon="2.534262">
        <ele>547.423</ele>
        <time>2020-07-26T08:39:12Z</time>
      </trkpt>
      <trkpt lat="41.847644" lon="2.534224">
        <ele>547.615</ele>
        <time>2020-07-26T08:39:13Z</time>
      </trkpt>
      <trkpt lat="41.847659" lon="2.534184">
        <ele>548.008</ele>
        <time>2020-07-26T08:39:14Z</time>
      </trkpt>
      <trkpt lat="41.847677" lon="2.534148">
        <ele>548.218</ele>
        <time>2020-07-26T08:39:15Z</time>
      </trkpt>
      <trkpt lat="41.847697" lon="2.534118">
        <ele>548.486</ele>
        <time>2020-07-26T08:39:16Z</time>
      </trkpt>
      <trkpt lat="41.847720" lon="2.534092">
        <ele>548.579</ele>
        <time>2020-07-26T08:39:17Z</time>
      </trkpt>
      <trkpt lat="41.847745" lon="2.534064">
        <ele>548.624</ele>
        <time>2020-07-26T08:39:18Z</time>
      </trkpt>
      <trkpt lat="41.847771" lon="2.534036">
        <ele>548.852</ele>
        <time>2020-07-26T08:39:19Z</time>
      </trkpt>
      <trkpt lat="41.847800" lon="2.534009">
        <ele>549.025</ele>
        <time>2020-07-26T08:39:20Z</time>
      </trkpt>
      <trkpt lat="41.847825" lon="2.533978">
        <ele>549.049</ele>
        <time>2020-07-26T08:39:21Z</time>
      </trkpt>
      <trkpt lat="41.847851" lon="2.533946">
        <ele>549.215</ele>
        <time>2020-07-26T08:39:22Z</time>
      </trkpt>
      <trkpt lat="41.847873" lon="2.533911">
        <ele>549.569</ele>
        <time>2020-07-26T08:39:23Z</time>
      </trkpt>
      <trkpt lat="41.847895" lon="2.533875">
        <ele>549.504</ele>
        <time>2020-07-26T08:39:24Z</time>
      </trkpt>
      <trkpt lat="41.847917" lon="2.533838">
        <ele>549.524</ele>
        <time>2020-07-26T08:39:25Z</time>
      </trkpt>
      <trkpt lat="41.847938" lon="2.533801">
        <ele>549.608</ele>
        <time>2020-07-26T08:39:26Z</time>
      </trkpt>
      <trkpt lat="41.847955" lon="2.533759">
        <ele>550.031</ele>
        <time>2020-07-26T08:39:27Z</time>
      </trkpt>
      <trkpt lat="41.847967" lon="2.533715">
        <ele>550.079</ele>
        <time>2020-07-26T08:39:28Z</time>
      </trkpt>
      <trkpt lat="41.847974" lon="2.533667">
        <ele>550.092</ele>
        <time>2020-07-26T08:39:29Z</time>
      </trkpt>
      <trkpt lat="41.847973" lon="2.533619">
        <ele>550.187</ele>
        <time>2020-07-26T08:39:30Z</time>
      </trkpt>
      <trkpt lat="41.847973" lon="2.533573">
        <ele>550.045</ele>
        <time>2020-07-26T08:39:31Z</time>
      </trkpt>
      <trkpt lat="41.847970" lon="2.533527">
        <ele>550.238</ele>
        <time>2020-07-26T08:39:32Z</time>
      </trkpt>
      <trkpt lat="41.847964" lon="2.533479">
        <ele>550.642</ele>
        <time>2020-07-26T08:39:33Z</time>
      </trkpt>
      <trkpt lat="41.847957" lon="2.533430">
        <ele>550.858</ele>
        <time>2020-07-26T08:39:34Z</time>
      </trkpt>
      <trkpt lat="41.847946" lon="2.533380">
        <ele>550.953</ele>
        <time>2020-07-26T08:39:35Z</time>
      </trkpt>
      <trkpt lat="41.847936" lon="2.533331">
        <ele>550.804</ele>
        <time>2020-07-26T08:39:36Z</time>
      </trkpt>
      <trkpt lat="41.847929" lon="2.533283">
        <ele>551.014</ele>
        <time>2020-07-26T08:39:37Z</time>
      </trkpt>
      <trkpt lat="41.847922" lon="2.533235">
        <ele>551.208</ele>
        <time>2020-07-26T08:39:38Z</time>
      </trkpt>
      <trkpt lat="41.847922" lon="2.533186">
        <ele>551.370</ele>
        <time>2020-07-26T08:39:39Z</time>
      </trkpt>
      <trkpt lat="41.847930" lon="2.533140">
        <ele>551.898</ele>
        <time>2020-07-26T08:39:40Z</time>
      </trkpt>
      <trkpt lat="41.847938" lon="2.533095">
        <ele>552.071</ele>
        <time>2020-07-26T08:39:41Z</time>
      </trkpt>
      <trkpt lat="41.847946" lon="2.533051">
        <ele>552.236</ele>
        <time>2020-07-26T08:39:42Z</time>
      </trkpt>
      <trkpt lat="41.847959" lon="2.533007">
        <ele>552.644</ele>
        <time>2020-07-26T08:39:43Z</time>
      </trkpt>
      <trkpt lat="41.847979" lon="2.532963">
        <ele>552.737</ele>
        <time>2020-07-26T08:39:44Z</time>
      </trkpt>
      <trkpt lat="41.848004" lon="2.532918">
        <ele>552.851</ele>
        <time>2020-07-26T08:39:45Z</time>
      </trkpt>
      <trkpt lat="41.848028" lon="2.532877">
        <ele>553.217</ele>
        <time>2020-07-26T08:39:46Z</time>
      </trkpt>
      <trkpt lat="41.848052" lon="2.532837">
        <ele>553.495</ele>
        <time>2020-07-26T08:39:47Z</time>
      </trkpt>
      <trkpt lat="41.848070" lon="2.532795">
        <ele>553.649</ele>
        <time>2020-07-26T08:39:48Z</time>
      </trkpt>
      <trkpt lat="41.848084" lon="2.532749">
        <ele>553.723</ele>
        <time>2020-07-26T08:39:49Z</time>
      </trkpt>
      <trkpt lat="41.848100" lon="2.532709">
        <ele>553.808</ele>
        <time>2020-07-26T08:39:50Z</time>
      </trkpt>
      <trkpt lat="41.848112" lon="2.532670">
        <ele>554.244</ele>
        <time>2020-07-26T08:39:51Z</time>
      </trkpt>
      <trkpt lat="41.848114" lon="2.532627">
        <ele>554.462</ele>
        <time>2020-07-26T08:39:52Z</time>
      </trkpt>
      <trkpt lat="41.848115" lon="2.532583">
        <ele>554.695</ele>
        <time>2020-07-26T08:39:53Z</time>
      </trkpt>
      <trkpt lat="41.848115" lon="2.532539">
        <ele>554.810</ele>
        <time>2020-07-26T08:39:54Z</time>
      </trkpt>
      <trkpt lat="41.848113" lon="2.532494">
        <ele>555.068</ele>
        <time>2020-07-26T08:39:55Z</time>
      </trkpt>
      <trkpt lat="41.848107" lon="2.532451">
        <ele>555.041</ele>
        <time>2020-07-26T08:39:56Z</time>
      </trkpt>
      <trkpt lat="41.848104" lon="2.532407">
        <ele>555.265</ele>
        <time>2020-07-26T08:39:57Z</time>
      </trkpt>
      <trkpt lat="41.848101" lon="2.532363">
        <ele>555.411</ele>
        <time>2020-07-26T08:39:58Z</time>
      </trkpt>
      <trkpt lat="41.848097" lon="2.532320">
        <ele>555.635</ele>
        <time>2020-07-26T08:39:59Z</time>
      </trkpt>
      <trkpt lat="41.848091" lon="2.532276">
        <ele>556.086</ele>
        <time>2020-07-26T08:40:00Z</time>
      </trkpt>
      <trkpt lat="41.848088" lon="2.532235">
        <ele>556.414</ele>
        <time>2020-07-26T08:40:01Z</time>
      </trkpt>
      <trkpt lat="41.848089" lon="2.532194">
        <ele>556.608</ele>
        <time>2020-07-26T08:40:02Z</time>
      </trkpt>
      <trkpt lat="41.848096" lon="2.532154">
        <ele>557.098</ele>
        <time>2020-07-26T08:40:03Z</time>
      </trkpt>
      <trkpt lat="41.848108" lon="2.532118">
        <ele>557.256</ele>
        <time>2020-07-26T08:40:04Z</time>
      </trkpt>
      <trkpt lat="41.848126" lon="2.532091">
        <ele>557.639</ele>
        <time>2020-07-26T08:40:05Z</time>
      </trkpt>
      <trkpt lat="41.848155" lon="2.532074">
        <ele>558.064</ele>
        <time>2020-07-26T08:40:06Z</time>
      </trkpt>
      <trkpt lat="41.848187" lon="2.532069">
        <ele>558.252</ele>
        <time>2020-07-26T08:40:07Z</time>
      </trkpt>
      <trkpt lat="41.848217" lon="2.532077">
        <ele>558.665</ele>
        <time>2020-07-26T08:40:08Z</time>
      </trkpt>
      <trkpt lat="41.848248" lon="2.532091">
        <ele>559.069</ele>
        <time>2020-07-26T08:40:09Z</time>
      </trkpt>
      <trkpt lat="41.848275" lon="2.532114">
        <ele>559.475</ele>
        <time>2020-07-26T08:40:10Z</time>
      </trkpt>
      <trkpt lat="41.848295" lon="2.532139">
        <ele>559.895</ele>
        <time>2020-07-26T08:40:11Z</time>
      </trkpt>
      <trkpt lat="41.848318" lon="2.532163">
        <ele>560.049</ele>
        <time>2020-07-26T08:40:12Z</time>
      </trkpt>
      <trkpt lat="41.848358" lon="2.532207">
        <ele>560.623</ele>
        <time>2020-07-26T08:40:14Z</time>
      </trkpt>
      <trkpt lat="41.848421" lon="2.532332">
        <ele>561.408</ele>
        <time>2020-07-26T08:40:18Z</time>
      </trkpt>
      <trkpt lat="41.848426" lon="2.532376">
        <ele>561.634</ele>
        <time>2020-07-26T08:40:19Z</time>
      </trkpt>
      <trkpt lat="41.848432" lon="2.532418">
        <ele>561.762</ele>
        <time>2020-07-26T08:40:20Z</time>
      </trkpt>
      <trkpt lat="41.848436" lon="2.532463">
        <ele>561.765</ele>
        <time>2020-07-26T08:40:21Z</time>
      </trkpt>
      <trkpt lat="41.848442" lon="2.532507">
        <ele>561.810</ele>
        <time>2020-07-26T08:40:22Z</time>
      </trkpt>
      <trkpt lat="41.848444" lon="2.532555">
        <ele>562.018</ele>
        <time>2020-07-26T08:40:23Z</time>
      </trkpt>
      <trkpt lat="41.848448" lon="2.532603">
        <ele>562.131</ele>
        <time>2020-07-26T08:40:24Z</time>
      </trkpt>
      <trkpt lat="41.848452" lon="2.532700">
        <ele>562.425</ele>
        <time>2020-07-26T08:40:26Z</time>
      </trkpt>
      <trkpt lat="41.848457" lon="2.532746">
        <ele>562.411</ele>
        <time>2020-07-26T08:40:27Z</time>
      </trkpt>
      <trkpt lat="41.848461" lon="2.532790">
        <ele>562.581</ele>
        <time>2020-07-26T08:40:28Z</time>
      </trkpt>
      <trkpt lat="41.848465" lon="2.532838">
        <ele>562.561</ele>
        <time>2020-07-26T08:40:29Z</time>
      </trkpt>
      <trkpt lat="41.848468" lon="2.532887">
        <ele>562.617</ele>
        <time>2020-07-26T08:40:30Z</time>
      </trkpt>
      <trkpt lat="41.848472" lon="2.532933">
        <ele>562.708</ele>
        <time>2020-07-26T08:40:31Z</time>
      </trkpt>
      <trkpt lat="41.848475" lon="2.532988">
        <ele>562.893</ele>
        <time>2020-07-26T08:40:32Z</time>
      </trkpt>
      <trkpt lat="41.848482" lon="2.533038">
        <ele>563.071</ele>
        <time>2020-07-26T08:40:33Z</time>
      </trkpt>
      <trkpt lat="41.848487" lon="2.533085">
        <ele>563.254</ele>
        <time>2020-07-26T08:40:34Z</time>
      </trkpt>
      <trkpt lat="41.848492" lon="2.533132">
        <ele>563.459</ele>
        <time>2020-07-26T08:40:35Z</time>
      </trkpt>
      <trkpt lat="41.848496" lon="2.533178">
        <ele>563.597</ele>
        <time>2020-07-26T08:40:36Z</time>
      </trkpt>
      <trkpt lat="41.848500" lon="2.533223">
        <ele>563.660</ele>
        <time>2020-07-26T08:40:37Z</time>
      </trkpt>
      <trkpt lat="41.848504" lon="2.533269">
        <ele>563.814</ele>
        <time>2020-07-26T08:40:38Z</time>
      </trkpt>
      <trkpt lat="41.848512" lon="2.533314">
        <ele>564.280</ele>
        <time>2020-07-26T08:40:39Z</time>
      </trkpt>
      <trkpt lat="41.848522" lon="2.533357">
        <ele>564.518</ele>
        <time>2020-07-26T08:40:40Z</time>
      </trkpt>
      <trkpt lat="41.848533" lon="2.533395">
        <ele>564.698</ele>
        <time>2020-07-26T08:40:41Z</time>
      </trkpt>
      <trkpt lat="41.848547" lon="2.533424">
        <ele>564.817</ele>
        <time>2020-07-26T08:40:42Z</time>
      </trkpt>
      <trkpt lat="41.848568" lon="2.533448">
        <ele>565.208</ele>
        <time>2020-07-26T08:40:43Z</time>
      </trkpt>
      <trkpt lat="41.848592" lon="2.533464">
        <ele>565.416</ele>
        <time>2020-07-26T08:40:44Z</time>
      </trkpt>
      <trkpt lat="41.848626" lon="2.533468">
        <ele>565.844</ele>
        <time>2020-07-26T08:40:45Z</time>
      </trkpt>
      <trkpt lat="41.848691" lon="2.533467">
        <ele>566.477</ele>
        <time>2020-07-26T08:40:47Z</time>
      </trkpt>
      <trkpt lat="41.848722" lon="2.533463">
        <ele>566.922</ele>
        <time>2020-07-26T08:40:48Z</time>
      </trkpt>
      <trkpt lat="41.848755" lon="2.533459">
        <ele>567.540</ele>
        <time>2020-07-26T08:40:49Z</time>
      </trkpt>
      <trkpt lat="41.848789" lon="2.533454">
        <ele>568.093</ele>
        <time>2020-07-26T08:40:50Z</time>
      </trkpt>
      <trkpt lat="41.848820" lon="2.533453">
        <ele>568.037</ele>
        <time>2020-07-26T08:40:51Z</time>
      </trkpt>
      <trkpt lat="41.848855" lon="2.533451">
        <ele>568.453</ele>
        <time>2020-07-26T08:40:52Z</time>
      </trkpt>
      <trkpt lat="41.848890" lon="2.533445">
        <ele>568.885</ele>
        <time>2020-07-26T08:40:53Z</time>
      </trkpt>
      <trkpt lat="41.848925" lon="2.533447">
        <ele>569.089</ele>
        <time>2020-07-26T08:40:54Z</time>
      </trkpt>
      <trkpt lat="41.848960" lon="2.533451">
        <ele>569.217</ele>
        <time>2020-07-26T08:40:55Z</time>
      </trkpt>
      <trkpt lat="41.848993" lon="2.533459">
        <ele>569.408</ele>
        <time>2020-07-26T08:40:56Z</time>
      </trkpt>
      <trkpt lat="41.849024" lon="2.533474">
        <ele>569.633</ele>
        <time>2020-07-26T08:40:57Z</time>
      </trkpt>
      <trkpt lat="41.849051" lon="2.533495">
        <ele>570.011</ele>
        <time>2020-07-26T08:40:58Z</time>
      </trkpt>
      <trkpt lat="41.849075" lon="2.533514">
        <ele>570.454</ele>
        <time>2020-07-26T08:40:59Z</time>
      </trkpt>
      <trkpt lat="41.849097" lon="2.533535">
        <ele>570.659</ele>
        <time>2020-07-26T08:41:00Z</time>
      </trkpt>
      <trkpt lat="41.849119" lon="2.533557">
        <ele>570.877</ele>
        <time>2020-07-26T08:41:01Z</time>
      </trkpt>
      <trkpt lat="41.849138" lon="2.533580">
        <ele>571.240</ele>
        <time>2020-07-26T08:41:02Z</time>
      </trkpt>
      <trkpt lat="41.849156" lon="2.533608">
        <ele>571.684</ele>
        <time>2020-07-26T08:41:03Z</time>
      </trkpt>
      <trkpt lat="41.849171" lon="2.533639">
        <ele>571.750</ele>
        <time>2020-07-26T08:41:04Z</time>
      </trkpt>
      <trkpt lat="41.849186" lon="2.533670">
        <ele>571.812</ele>
        <time>2020-07-26T08:41:05Z</time>
      </trkpt>
      <trkpt lat="41.849201" lon="2.533702">
        <ele>572.032</ele>
        <time>2020-07-26T08:41:06Z</time>
      </trkpt>
      <trkpt lat="41.849222" lon="2.533733">
        <ele>572.005</ele>
        <time>2020-07-26T08:41:07Z</time>
      </trkpt>
      <trkpt lat="41.849237" lon="2.533757">
        <ele>572.208</ele>
        <time>2020-07-26T08:41:08Z</time>
      </trkpt>
      <trkpt lat="41.849269" lon="2.533814">
        <ele>572.226</ele>
        <time>2020-07-26T08:41:10Z</time>
      </trkpt>
      <trkpt lat="41.849279" lon="2.533844">
        <ele>572.494</ele>
        <time>2020-07-26T08:41:11Z</time>
      </trkpt>
      <trkpt lat="41.849293" lon="2.533861">
        <ele>572.547</ele>
        <time>2020-07-26T08:41:12Z</time>
      </trkpt>
      <trkpt lat="41.849311" lon="2.533883">
        <ele>572.692</ele>
        <time>2020-07-26T08:41:13Z</time>
      </trkpt>
      <trkpt lat="41.849331" lon="2.533908">
        <ele>572.780</ele>
        <time>2020-07-26T08:41:14Z</time>
      </trkpt>
      <trkpt lat="41.849354" lon="2.533934">
        <ele>572.813</ele>
        <time>2020-07-26T08:41:15Z</time>
      </trkpt>
      <trkpt lat="41.849377" lon="2.533961">
        <ele>573.097</ele>
        <time>2020-07-26T08:41:16Z</time>
      </trkpt>
      <trkpt lat="41.849476" lon="2.534052">
        <ele>573.223</ele>
        <time>2020-07-26T08:41:19Z</time>
      </trkpt>
      <trkpt lat="41.849521" lon="2.534083">
        <ele>573.132</ele>
        <time>2020-07-26T08:41:20Z</time>
      </trkpt>
      <trkpt lat="41.849569" lon="2.534123">
        <ele>572.992</ele>
        <time>2020-07-26T08:41:21Z</time>
      </trkpt>
      <trkpt lat="41.849661" lon="2.534237">
        <ele>572.011</ele>
        <time>2020-07-26T08:41:23Z</time>
      </trkpt>
      <trkpt lat="41.849754" lon="2.534371">
        <ele>570.808</ele>
        <time>2020-07-26T08:41:25Z</time>
      </trkpt>
      <trkpt lat="41.849852" lon="2.534454">
        <ele>569.988</ele>
        <time>2020-07-26T08:41:27Z</time>
      </trkpt>
      <trkpt lat="41.850004" lon="2.534450">
        <ele>569.356</ele>
        <time>2020-07-26T08:41:29Z</time>
      </trkpt>
      <trkpt lat="41.850102" lon="2.534468">
        <ele>569.249</ele>
        <time>2020-07-26T08:41:30Z</time>
      </trkpt>
      <trkpt lat="41.850237" lon="2.534563">
        <ele>569.474</ele>
        <time>2020-07-26T08:41:32Z</time>
      </trkpt>
      <trkpt lat="41.850286" lon="2.534615">
        <ele>569.632</ele>
        <time>2020-07-26T08:41:33Z</time>
      </trkpt>
      <trkpt lat="41.850328" lon="2.534660">
        <ele>569.975</ele>
        <time>2020-07-26T08:41:34Z</time>
      </trkpt>
      <trkpt lat="41.850369" lon="2.534694">
        <ele>570.489</ele>
        <time>2020-07-26T08:41:35Z</time>
      </trkpt>
      <trkpt lat="41.850406" lon="2.534723">
        <ele>570.845</ele>
        <time>2020-07-26T08:41:36Z</time>
      </trkpt>
      <trkpt lat="41.850445" lon="2.534747">
        <ele>571.284</ele>
        <time>2020-07-26T08:41:37Z</time>
      </trkpt>
      <trkpt lat="41.850476" lon="2.534773">
        <ele>571.707</ele>
        <time>2020-07-26T08:41:38Z</time>
      </trkpt>
      <trkpt lat="41.850514" lon="2.534797">
        <ele>572.217</ele>
        <time>2020-07-26T08:41:39Z</time>
      </trkpt>
      <trkpt lat="41.850561" lon="2.534823">
        <ele>572.508</ele>
        <time>2020-07-26T08:41:40Z</time>
      </trkpt>
      <trkpt lat="41.850606" lon="2.534849">
        <ele>573.073</ele>
        <time>2020-07-26T08:41:41Z</time>
      </trkpt>
      <trkpt lat="41.850642" lon="2.534876">
        <ele>573.021</ele>
        <time>2020-07-26T08:41:42Z</time>
      </trkpt>
      <trkpt lat="41.850680" lon="2.534904">
        <ele>573.224</ele>
        <time>2020-07-26T08:41:43Z</time>
      </trkpt>
      <trkpt lat="41.850712" lon="2.534932">
        <ele>573.559</ele>
        <time>2020-07-26T08:41:44Z</time>
      </trkpt>
      <trkpt lat="41.850743" lon="2.534961">
        <ele>574.097</ele>
        <time>2020-07-26T08:41:45Z</time>
      </trkpt>
      <trkpt lat="41.850772" lon="2.534992">
        <ele>574.230</ele>
        <time>2020-07-26T08:41:46Z</time>
      </trkpt>
      <trkpt lat="41.850798" lon="2.535025">
        <ele>574.494</ele>
        <time>2020-07-26T08:41:47Z</time>
      </trkpt>
      <trkpt lat="41.850823" lon="2.535063">
        <ele>574.620</ele>
        <time>2020-07-26T08:41:48Z</time>
      </trkpt>
      <trkpt lat="41.850842" lon="2.535108">
        <ele>574.819</ele>
        <time>2020-07-26T08:41:49Z</time>
      </trkpt>
      <trkpt lat="41.850852" lon="2.535158">
        <ele>575.009</ele>
        <time>2020-07-26T08:41:50Z</time>
      </trkpt>
      <trkpt lat="41.850853" lon="2.535209">
        <ele>575.219</ele>
        <time>2020-07-26T08:41:51Z</time>
      </trkpt>
      <trkpt lat="41.850842" lon="2.535259">
        <ele>575.208</ele>
        <time>2020-07-26T08:41:52Z</time>
      </trkpt>
      <trkpt lat="41.850822" lon="2.535304">
        <ele>575.456</ele>
        <time>2020-07-26T08:41:53Z</time>
      </trkpt>
      <trkpt lat="41.850797" lon="2.535343">
        <ele>575.694</ele>
        <time>2020-07-26T08:41:54Z</time>
      </trkpt>
      <trkpt lat="41.850769" lon="2.535379">
        <ele>575.987</ele>
        <time>2020-07-26T08:41:55Z</time>
      </trkpt>
      <trkpt lat="41.850736" lon="2.535413">
        <ele>575.772</ele>
        <time>2020-07-26T08:41:56Z</time>
      </trkpt>
      <trkpt lat="41.850705" lon="2.535446">
        <ele>575.720</ele>
        <time>2020-07-26T08:41:57Z</time>
      </trkpt>
      <trkpt lat="41.850676" lon="2.535482">
        <ele>575.843</ele>
        <time>2020-07-26T08:41:58Z</time>
      </trkpt>
      <trkpt lat="41.850648" lon="2.535520">
        <ele>576.087</ele>
        <time>2020-07-26T08:41:59Z</time>
      </trkpt>
      <trkpt lat="41.850620" lon="2.535561">
        <ele>576.033</ele>
        <time>2020-07-26T08:42:00Z</time>
      </trkpt>
      <trkpt lat="41.850596" lon="2.535606">
        <ele>576.046</ele>
        <time>2020-07-26T08:42:01Z</time>
      </trkpt>
      <trkpt lat="41.850578" lon="2.535654">
        <ele>576.288</ele>
        <time>2020-07-26T08:42:02Z</time>
      </trkpt>
      <trkpt lat="41.850566" lon="2.535706">
        <ele>576.416</ele>
        <time>2020-07-26T08:42:03Z</time>
      </trkpt>
      <trkpt lat="41.850560" lon="2.535757">
        <ele>576.408</ele>
        <time>2020-07-26T08:42:04Z</time>
      </trkpt>
      <trkpt lat="41.850557" lon="2.535805">
        <ele>576.439</ele>
        <time>2020-07-26T08:42:05Z</time>
      </trkpt>
      <trkpt lat="41.850556" lon="2.535853">
        <ele>576.697</ele>
        <time>2020-07-26T08:42:06Z</time>
      </trkpt>
      <trkpt lat="41.850553" lon="2.535897">
        <ele>576.860</ele>
        <time>2020-07-26T08:42:07Z</time>
      </trkpt>
      <trkpt lat="41.850556" lon="2.535951">
        <ele>577.075</ele>
        <time>2020-07-26T08:42:08Z</time>
      </trkpt>
      <trkpt lat="41.850560" lon="2.536005">
        <ele>577.273</ele>
        <time>2020-07-26T08:42:09Z</time>
      </trkpt>
      <trkpt lat="41.850568" lon="2.536056">
        <ele>577.446</ele>
        <time>2020-07-26T08:42:10Z</time>
      </trkpt>
      <trkpt lat="41.850570" lon="2.536103">
        <ele>577.580</ele>
        <time>2020-07-26T08:42:11Z</time>
      </trkpt>
      <trkpt lat="41.850571" lon="2.536149">
        <ele>577.656</ele>
        <time>2020-07-26T08:42:12Z</time>
      </trkpt>
      <trkpt lat="41.850574" lon="2.536194">
        <ele>577.844</ele>
        <time>2020-07-26T08:42:13Z</time>
      </trkpt>
      <trkpt lat="41.850580" lon="2.536239">
        <ele>578.005</ele>
        <time>2020-07-26T08:42:14Z</time>
      </trkpt>
      <trkpt lat="41.850587" lon="2.536286">
        <ele>578.215</ele>
        <time>2020-07-26T08:42:15Z</time>
      </trkpt>
      <trkpt lat="41.850591" lon="2.536332">
        <ele>578.608</ele>
        <time>2020-07-26T08:42:16Z</time>
      </trkpt>
      <trkpt lat="41.850598" lon="2.536377">
        <ele>578.889</ele>
        <time>2020-07-26T08:42:17Z</time>
      </trkpt>
      <trkpt lat="41.850602" lon="2.536416">
        <ele>579.217</ele>
        <time>2020-07-26T08:42:18Z</time>
      </trkpt>
      <trkpt lat="41.850607" lon="2.536455">
        <ele>579.690</ele>
        <time>2020-07-26T08:42:19Z</time>
      </trkpt>
      <trkpt lat="41.850615" lon="2.536494">
        <ele>579.945</ele>
        <time>2020-07-26T08:42:20Z</time>
      </trkpt>
      <trkpt lat="41.850628" lon="2.536532">
        <ele>580.453</ele>
        <time>2020-07-26T08:42:21Z</time>
      </trkpt>
      <trkpt lat="41.850642" lon="2.536569">
        <ele>580.476</ele>
        <time>2020-07-26T08:42:22Z</time>
      </trkpt>
      <trkpt lat="41.850656" lon="2.536607">
        <ele>580.660</ele>
        <time>2020-07-26T08:42:23Z</time>
      </trkpt>
      <trkpt lat="41.850668" lon="2.536642">
        <ele>581.056</ele>
        <time>2020-07-26T08:42:24Z</time>
      </trkpt>
      <trkpt lat="41.850679" lon="2.536673">
        <ele>581.096</ele>
        <time>2020-07-26T08:42:25Z</time>
      </trkpt>
      <trkpt lat="41.850692" lon="2.536706">
        <ele>581.231</ele>
        <time>2020-07-26T08:42:26Z</time>
      </trkpt>
      <trkpt lat="41.850710" lon="2.536738">
        <ele>581.424</ele>
        <time>2020-07-26T08:42:27Z</time>
      </trkpt>
      <trkpt lat="41.850733" lon="2.536766">
        <ele>581.608</ele>
        <time>2020-07-26T08:42:28Z</time>
      </trkpt>
      <trkpt lat="41.850760" lon="2.536796">
        <ele>581.824</ele>
        <time>2020-07-26T08:42:29Z</time>
      </trkpt>
      <trkpt lat="41.850790" lon="2.536822">
        <ele>582.032</ele>
        <time>2020-07-26T08:42:30Z</time>
      </trkpt>
      <trkpt lat="41.850820" lon="2.536847">
        <ele>582.275</ele>
        <time>2020-07-26T08:42:31Z</time>
      </trkpt>
      <trkpt lat="41.850888" lon="2.536893">
        <ele>582.490</ele>
        <time>2020-07-26T08:42:33Z</time>
      </trkpt>
      <trkpt lat="41.851002" lon="2.536930">
        <ele>583.278</ele>
        <time>2020-07-26T08:42:36Z</time>
      </trkpt>
      <trkpt lat="41.851102" lon="2.536943">
        <ele>584.061</ele>
        <time>2020-07-26T08:42:39Z</time>
      </trkpt>
      <trkpt lat="41.851201" lon="2.536939">
        <ele>584.445</ele>
        <time>2020-07-26T08:42:42Z</time>
      </trkpt>
      <trkpt lat="41.851314" lon="2.536932">
        <ele>585.051</ele>
        <time>2020-07-26T08:42:45Z</time>
      </trkpt>
      <trkpt lat="41.851410" lon="2.536938">
        <ele>586.023</ele>
        <time>2020-07-26T08:42:48Z</time>
      </trkpt>
      <trkpt lat="41.851520" lon="2.536978">
        <ele>586.483</ele>
        <time>2020-07-26T08:42:51Z</time>
      </trkpt>
      <trkpt lat="41.851624" lon="2.537065">
        <ele>587.011</ele>
        <time>2020-07-26T08:42:54Z</time>
      </trkpt>
      <trkpt lat="41.851689" lon="2.537176">
        <ele>587.608</ele>
        <time>2020-07-26T08:42:57Z</time>
      </trkpt>
      <trkpt lat="41.851737" lon="2.537286">
        <ele>588.297</ele>
        <time>2020-07-26T08:43:00Z</time>
      </trkpt>
      <trkpt lat="41.851794" lon="2.537382">
        <ele>589.095</ele>
        <time>2020-07-26T08:43:03Z</time>
      </trkpt>
      <trkpt lat="41.851859" lon="2.537420">
        <ele>589.258</ele>
        <time>2020-07-26T08:43:05Z</time>
      </trkpt>
      <trkpt lat="41.851892" lon="2.537436">
        <ele>589.663</ele>
        <time>2020-07-26T08:43:06Z</time>
      </trkpt>
      <trkpt lat="41.851924" lon="2.537445">
        <ele>589.841</ele>
        <time>2020-07-26T08:43:07Z</time>
      </trkpt>
      <trkpt lat="41.851954" lon="2.537448">
        <ele>590.064</ele>
        <time>2020-07-26T08:43:08Z</time>
      </trkpt>
      <trkpt lat="41.851985" lon="2.537448">
        <ele>590.298</ele>
        <time>2020-07-26T08:43:09Z</time>
      </trkpt>
      <trkpt lat="41.852015" lon="2.537446">
        <ele>590.614</ele>
        <time>2020-07-26T08:43:10Z</time>
      </trkpt>
      <trkpt lat="41.852042" lon="2.537445">
        <ele>591.074</ele>
        <time>2020-07-26T08:43:11Z</time>
      </trkpt>
      <trkpt lat="41.852071" lon="2.537443">
        <ele>591.456</ele>
        <time>2020-07-26T08:43:12Z</time>
      </trkpt>
      <trkpt lat="41.852098" lon="2.537441">
        <ele>591.621</ele>
        <time>2020-07-26T08:43:13Z</time>
      </trkpt>
      <trkpt lat="41.852126" lon="2.537435">
        <ele>592.008</ele>
        <time>2020-07-26T08:43:14Z</time>
      </trkpt>
      <trkpt lat="41.852154" lon="2.537425">
        <ele>592.472</ele>
        <time>2020-07-26T08:43:15Z</time>
      </trkpt>
      <trkpt lat="41.852180" lon="2.537414">
        <ele>592.640</ele>
        <time>2020-07-26T08:43:16Z</time>
      </trkpt>
      <trkpt lat="41.852205" lon="2.537402">
        <ele>592.823</ele>
        <time>2020-07-26T08:43:17Z</time>
      </trkpt>
      <trkpt lat="41.852228" lon="2.537391">
        <ele>593.028</ele>
        <time>2020-07-26T08:43:18Z</time>
      </trkpt>
      <trkpt lat="41.852249" lon="2.537379">
        <ele>593.436</ele>
        <time>2020-07-26T08:43:19Z</time>
      </trkpt>
      <trkpt lat="41.852269" lon="2.537364">
        <ele>593.689</ele>
        <time>2020-07-26T08:43:20Z</time>
      </trkpt>
      <trkpt lat="41.852290" lon="2.537347">
        <ele>593.863</ele>
        <time>2020-07-26T08:43:21Z</time>
      </trkpt>
      <trkpt lat="41.852311" lon="2.537327">
        <ele>594.019</ele>
        <time>2020-07-26T08:43:22Z</time>
      </trkpt>
      <trkpt lat="41.852333" lon="2.537306">
        <ele>594.497</ele>
        <time>2020-07-26T08:43:23Z</time>
      </trkpt>
      <trkpt lat="41.852357" lon="2.537283">
        <ele>594.623</ele>
        <time>2020-07-26T08:43:24Z</time>
      </trkpt>
      <trkpt lat="41.852380" lon="2.537258">
        <ele>594.725</ele>
        <time>2020-07-26T08:43:25Z</time>
      </trkpt>
      <trkpt lat="41.852403" lon="2.537234">
        <ele>594.808</ele>
        <time>2020-07-26T08:43:26Z</time>
      </trkpt>
      <trkpt lat="41.852427" lon="2.537208">
        <ele>595.054</ele>
        <time>2020-07-26T08:43:27Z</time>
      </trkpt>
      <trkpt lat="41.852449" lon="2.537181">
        <ele>595.452</ele>
        <time>2020-07-26T08:43:28Z</time>
      </trkpt>
      <trkpt lat="41.852470" lon="2.537157">
        <ele>595.695</ele>
        <time>2020-07-26T08:43:29Z</time>
      </trkpt>
      <trkpt lat="41.852492" lon="2.537137">
        <ele>595.860</ele>
        <time>2020-07-26T08:43:30Z</time>
      </trkpt>
      <trkpt lat="41.852521" lon="2.537121">
        <ele>596.038</ele>
        <time>2020-07-26T08:43:31Z</time>
      </trkpt>
      <trkpt lat="41.852547" lon="2.537103">
        <ele>596.261</ele>
        <time>2020-07-26T08:43:32Z</time>
      </trkpt>
      <trkpt lat="41.852570" lon="2.537086">
        <ele>596.445</ele>
        <time>2020-07-26T08:43:33Z</time>
      </trkpt>
      <trkpt lat="41.852592" lon="2.537066">
        <ele>596.871</ele>
        <time>2020-07-26T08:43:34Z</time>
      </trkpt>
      <trkpt lat="41.852616" lon="2.537049">
        <ele>597.022</ele>
        <time>2020-07-26T08:43:35Z</time>
      </trkpt>
      <trkpt lat="41.852636" lon="2.537024">
        <ele>597.262</ele>
        <time>2020-07-26T08:43:36Z</time>
      </trkpt>
      <trkpt lat="41.852656" lon="2.536998">
        <ele>597.608</ele>
        <time>2020-07-26T08:43:37Z</time>
      </trkpt>
      <trkpt lat="41.852677" lon="2.536974">
        <ele>598.008</ele>
        <time>2020-07-26T08:43:38Z</time>
      </trkpt>
      <trkpt lat="41.852699" lon="2.536949">
        <ele>598.457</ele>
        <time>2020-07-26T08:43:39Z</time>
      </trkpt>
      <trkpt lat="41.852721" lon="2.536925">
        <ele>598.645</ele>
        <time>2020-07-26T08:43:40Z</time>
      </trkpt>
      <trkpt lat="41.852744" lon="2.536903">
        <ele>598.818</ele>
        <time>2020-07-26T08:43:41Z</time>
      </trkpt>
      <trkpt lat="41.852764" lon="2.536881">
        <ele>599.063</ele>
        <time>2020-07-26T08:43:42Z</time>
      </trkpt>
      <trkpt lat="41.852788" lon="2.536859">
        <ele>599.411</ele>
        <time>2020-07-26T08:43:43Z</time>
      </trkpt>
      <trkpt lat="41.852810" lon="2.536840">
        <ele>599.614</ele>
        <time>2020-07-26T08:43:44Z</time>
      </trkpt>
      <trkpt lat="41.852834" lon="2.536819">
        <ele>600.038</ele>
        <time>2020-07-26T08:43:45Z</time>
      </trkpt>
      <trkpt lat="41.852857" lon="2.536797">
        <ele>600.444</ele>
        <time>2020-07-26T08:43:46Z</time>
      </trkpt>
      <trkpt lat="41.852881" lon="2.536780">
        <ele>600.849</ele>
        <time>2020-07-26T08:43:47Z</time>
      </trkpt>
      <trkpt lat="41.852904" lon="2.536760">
        <ele>601.002</ele>
        <time>2020-07-26T08:43:48Z</time>
      </trkpt>
      <trkpt lat="41.852927" lon="2.536736">
        <ele>601.422</ele>
        <time>2020-07-26T08:43:49Z</time>
      </trkpt>
      <trkpt lat="41.852951" lon="2.536718">
        <ele>601.608</ele>
        <time>2020-07-26T08:43:50Z</time>
      </trkpt>
      <trkpt lat="41.852982" lon="2.536706">
        <ele>601.779</ele>
        <time>2020-07-26T08:43:51Z</time>
      </trkpt>
      <trkpt lat="41.853008" lon="2.536693">
        <ele>601.857</ele>
        <time>2020-07-26T08:43:52Z</time>
      </trkpt>
      <trkpt lat="41.853103" lon="2.536640">
        <ele>603.020</ele>
        <time>2020-07-26T08:43:56Z</time>
      </trkpt>
      <trkpt lat="41.853176" lon="2.536538">
        <ele>604.425</ele>
        <time>2020-07-26T08:44:00Z</time>
      </trkpt>
      <trkpt lat="41.853193" lon="2.536512">
        <ele>604.463</ele>
        <time>2020-07-26T08:44:01Z</time>
      </trkpt>
      <trkpt lat="41.853207" lon="2.536486">
        <ele>604.656</ele>
        <time>2020-07-26T08:44:02Z</time>
      </trkpt>
      <trkpt lat="41.853219" lon="2.536461">
        <ele>605.080</ele>
        <time>2020-07-26T08:44:03Z</time>
      </trkpt>
      <trkpt lat="41.853231" lon="2.536436">
        <ele>605.276</ele>
        <time>2020-07-26T08:44:04Z</time>
      </trkpt>
      <trkpt lat="41.853247" lon="2.536409">
        <ele>605.658</ele>
        <time>2020-07-26T08:44:05Z</time>
      </trkpt>
      <trkpt lat="41.853263" lon="2.536384">
        <ele>606.052</ele>
        <time>2020-07-26T08:44:06Z</time>
      </trkpt>
      <trkpt lat="41.853278" lon="2.536358">
        <ele>606.217</ele>
        <time>2020-07-26T08:44:07Z</time>
      </trkpt>
      <trkpt lat="41.853315" lon="2.536319">
        <ele>606.408</ele>
        <time>2020-07-26T08:44:09Z</time>
      </trkpt>
      <trkpt lat="41.853337" lon="2.536300">
        <ele>606.880</ele>
        <time>2020-07-26T08:44:10Z</time>
      </trkpt>
      <trkpt lat="41.853361" lon="2.536281">
        <ele>607.018</ele>
        <time>2020-07-26T08:44:11Z</time>
      </trkpt>
      <trkpt lat="41.853386" lon="2.536256">
        <ele>607.431</ele>
        <time>2020-07-26T08:44:12Z</time>
      </trkpt>
      <trkpt lat="41.853410" lon="2.536230">
        <ele>607.686</ele>
        <time>2020-07-26T08:44:13Z</time>
      </trkpt>
      <trkpt lat="41.853442" lon="2.536211">
        <ele>607.844</ele>
        <time>2020-07-26T08:44:14Z</time>
      </trkpt>
      <trkpt lat="41.853472" lon="2.536203">
        <ele>608.077</ele>
        <time>2020-07-26T08:44:15Z</time>
      </trkpt>
      <trkpt lat="41.853501" lon="2.536201">
        <ele>608.461</ele>
        <time>2020-07-26T08:44:16Z</time>
      </trkpt>
      <trkpt lat="41.853591" lon="2.536276">
        <ele>608.787</ele>
        <time>2020-07-26T08:44:20Z</time>
      </trkpt>
      <trkpt lat="41.853596" lon="2.536409">
        <ele>608.686</ele>
        <time>2020-07-26T08:44:23Z</time>
      </trkpt>
      <trkpt lat="41.853590" lon="2.536454">
        <ele>608.760</ele>
        <time>2020-07-26T08:44:24Z</time>
      </trkpt>
      <trkpt lat="41.853578" lon="2.536505">
        <ele>608.726</ele>
        <time>2020-07-26T08:44:25Z</time>
      </trkpt>
      <trkpt lat="41.853562" lon="2.536561">
        <ele>608.708</ele>
        <time>2020-07-26T08:44:26Z</time>
      </trkpt>
      <trkpt lat="41.853546" lon="2.536620">
        <ele>608.783</ele>
        <time>2020-07-26T08:44:27Z</time>
      </trkpt>
      <trkpt lat="41.853527" lon="2.536679">
        <ele>608.511</ele>
        <time>2020-07-26T08:44:28Z</time>
      </trkpt>
      <trkpt lat="41.853504" lon="2.536740">
        <ele>608.364</ele>
        <time>2020-07-26T08:44:29Z</time>
      </trkpt>
      <trkpt lat="41.853480" lon="2.536806">
        <ele>607.939</ele>
        <time>2020-07-26T08:44:30Z</time>
      </trkpt>
      <trkpt lat="41.853460" lon="2.536880">
        <ele>607.597</ele>
        <time>2020-07-26T08:44:31Z</time>
      </trkpt>
      <trkpt lat="41.853436" lon="2.536954">
        <ele>607.010</ele>
        <time>2020-07-26T08:44:32Z</time>
      </trkpt>
      <trkpt lat="41.853414" lon="2.537033">
        <ele>606.494</ele>
        <time>2020-07-26T08:44:33Z</time>
      </trkpt>
      <trkpt lat="41.853393" lon="2.537110">
        <ele>605.930</ele>
        <time>2020-07-26T08:44:34Z</time>
      </trkpt>
      <trkpt lat="41.853372" lon="2.537185">
        <ele>605.581</ele>
        <time>2020-07-26T08:44:35Z</time>
      </trkpt>
      <trkpt lat="41.853307" lon="2.537346">
        <ele>604.561</ele>
        <time>2020-07-26T08:44:37Z</time>
      </trkpt>
      <trkpt lat="41.853263" lon="2.537427">
        <ele>604.117</ele>
        <time>2020-07-26T08:44:38Z</time>
      </trkpt>
      <trkpt lat="41.853216" lon="2.537508">
        <ele>603.808</ele>
        <time>2020-07-26T08:44:39Z</time>
      </trkpt>
      <trkpt lat="41.853166" lon="2.537592">
        <ele>603.263</ele>
        <time>2020-07-26T08:44:40Z</time>
      </trkpt>
      <trkpt lat="41.853120" lon="2.537683">
        <ele>602.661</ele>
        <time>2020-07-26T08:44:41Z</time>
      </trkpt>
      <trkpt lat="41.853082" lon="2.537776">
        <ele>602.134</ele>
        <time>2020-07-26T08:44:42Z</time>
      </trkpt>
      <trkpt lat="41.853054" lon="2.537875">
        <ele>601.699</ele>
        <time>2020-07-26T08:44:43Z</time>
      </trkpt>
      <trkpt lat="41.853038" lon="2.537996">
        <ele>601.067</ele>
        <time>2020-07-26T08:44:44Z</time>
      </trkpt>
      <trkpt lat="41.853024" lon="2.538117">
        <ele>600.440</ele>
        <time>2020-07-26T08:44:45Z</time>
      </trkpt>
      <trkpt lat="41.853013" lon="2.538239">
        <ele>599.824</ele>
        <time>2020-07-26T08:44:46Z</time>
      </trkpt>
      <trkpt lat="41.853012" lon="2.538365">
        <ele>599.220</ele>
        <time>2020-07-26T08:44:47Z</time>
      </trkpt>
      <trkpt lat="41.853016" lon="2.538494">
        <ele>598.656</ele>
        <time>2020-07-26T08:44:48Z</time>
      </trkpt>
      <trkpt lat="41.853024" lon="2.538631">
        <ele>598.059</ele>
        <time>2020-07-26T08:44:49Z</time>
      </trkpt>
      <trkpt lat="41.853029" lon="2.538771">
        <ele>597.414</ele>
        <time>2020-07-26T08:44:50Z</time>
      </trkpt>
      <trkpt lat="41.853036" lon="2.538912">
        <ele>596.608</ele>
        <time>2020-07-26T08:44:51Z</time>
      </trkpt>
      <trkpt lat="41.853046" lon="2.539054">
        <ele>596.010</ele>
        <time>2020-07-26T08:44:52Z</time>
      </trkpt>
      <trkpt lat="41.853058" lon="2.539198">
        <ele>595.118</ele>
        <time>2020-07-26T08:44:53Z</time>
      </trkpt>
      <trkpt lat="41.853070" lon="2.539341">
        <ele>594.131</ele>
        <time>2020-07-26T08:44:54Z</time>
      </trkpt>
      <trkpt lat="41.853081" lon="2.539482">
        <ele>593.296</ele>
        <time>2020-07-26T08:44:55Z</time>
      </trkpt>
      <trkpt lat="41.853087" lon="2.539618">
        <ele>592.614</ele>
        <time>2020-07-26T08:44:56Z</time>
      </trkpt>
      <trkpt lat="41.853090" lon="2.539756">
        <ele>591.967</ele>
        <time>2020-07-26T08:44:57Z</time>
      </trkpt>
      <trkpt lat="41.853103" lon="2.539888">
        <ele>591.161</ele>
        <time>2020-07-26T08:44:58Z</time>
      </trkpt>
      <trkpt lat="41.853206" lon="2.540085">
        <ele>590.577</ele>
        <time>2020-07-26T08:45:00Z</time>
      </trkpt>
      <trkpt lat="41.853308" lon="2.540142">
        <ele>590.417</ele>
        <time>2020-07-26T08:45:01Z</time>
      </trkpt>
      <trkpt lat="41.853418" lon="2.540191">
        <ele>589.587</ele>
        <time>2020-07-26T08:45:02Z</time>
      </trkpt>
      <trkpt lat="41.853522" lon="2.540264">
        <ele>588.515</ele>
        <time>2020-07-26T08:45:03Z</time>
      </trkpt>
      <trkpt lat="41.853616" lon="2.540353">
        <ele>587.408</ele>
        <time>2020-07-26T08:45:04Z</time>
      </trkpt>
      <trkpt lat="41.853702" lon="2.540456">
        <ele>586.896</ele>
        <time>2020-07-26T08:45:05Z</time>
      </trkpt>
      <trkpt lat="41.853796" lon="2.540558">
        <ele>586.294</ele>
        <time>2020-07-26T08:45:06Z</time>
      </trkpt>
      <trkpt lat="41.853892" lon="2.540654">
        <ele>585.627</ele>
        <time>2020-07-26T08:45:07Z</time>
      </trkpt>
      <trkpt lat="41.853992" lon="2.540733">
        <ele>584.742</ele>
        <time>2020-07-26T08:45:08Z</time>
      </trkpt>
      <trkpt lat="41.854092" lon="2.540780">
        <ele>583.760</ele>
        <time>2020-07-26T08:45:09Z</time>
      </trkpt>
      <trkpt lat="41.854200" lon="2.540769">
        <ele>583.283</ele>
        <time>2020-07-26T08:45:10Z</time>
      </trkpt>
      <trkpt lat="41.854329" lon="2.540688">
        <ele>582.667</ele>
        <time>2020-07-26T08:45:11Z</time>
      </trkpt>
      <trkpt lat="41.854438" lon="2.540656">
        <ele>581.933</ele>
        <time>2020-07-26T08:45:12Z</time>
      </trkpt>
      <trkpt lat="41.854542" lon="2.540683">
        <ele>581.784</ele>
        <time>2020-07-26T08:45:13Z</time>
      </trkpt>
      <trkpt lat="41.854617" lon="2.540758">
        <ele>581.307</ele>
        <time>2020-07-26T08:45:14Z</time>
      </trkpt>
      <trkpt lat="41.854755" lon="2.540893">
        <ele>580.517</ele>
        <time>2020-07-26T08:45:16Z</time>
      </trkpt>
      <trkpt lat="41.854916" lon="2.540903">
        <ele>580.108</ele>
        <time>2020-07-26T08:45:18Z</time>
      </trkpt>
      <trkpt lat="41.855067" lon="2.540954">
        <ele>579.833</ele>
        <time>2020-07-26T08:45:20Z</time>
      </trkpt>
      <trkpt lat="41.855146" lon="2.541144">
        <ele>579.311</ele>
        <time>2020-07-26T08:45:22Z</time>
      </trkpt>
      <trkpt lat="41.855138" lon="2.541375">
        <ele>578.574</ele>
        <time>2020-07-26T08:45:24Z</time>
      </trkpt>
      <trkpt lat="41.855109" lon="2.541497">
        <ele>578.159</ele>
        <time>2020-07-26T08:45:25Z</time>
      </trkpt>
      <trkpt lat="41.855078" lon="2.541617">
        <ele>577.727</ele>
        <time>2020-07-26T08:45:26Z</time>
      </trkpt>
      <trkpt lat="41.855056" lon="2.541737">
        <ele>577.220</ele>
        <time>2020-07-26T08:45:27Z</time>
      </trkpt>
      <trkpt lat="41.855034" lon="2.541867">
        <ele>576.674</ele>
        <time>2020-07-26T08:45:28Z</time>
      </trkpt>
      <trkpt lat="41.855022" lon="2.541995">
        <ele>576.180</ele>
        <time>2020-07-26T08:45:29Z</time>
      </trkpt>
      <trkpt lat="41.855017" lon="2.542122">
        <ele>575.848</ele>
        <time>2020-07-26T08:45:30Z</time>
      </trkpt>
      <trkpt lat="41.855115" lon="2.542319">
        <ele>574.861</ele>
        <time>2020-07-26T08:45:32Z</time>
      </trkpt>
      <trkpt lat="41.855190" lon="2.542405">
        <ele>574.117</ele>
        <time>2020-07-26T08:45:33Z</time>
      </trkpt>
      <trkpt lat="41.855277" lon="2.542500">
        <ele>573.208</ele>
        <time>2020-07-26T08:45:34Z</time>
      </trkpt>
      <trkpt lat="41.855359" lon="2.542611">
        <ele>572.789</ele>
        <time>2020-07-26T08:45:35Z</time>
      </trkpt>
      <trkpt lat="41.855424" lon="2.542742">
        <ele>572.217</ele>
        <time>2020-07-26T08:45:36Z</time>
      </trkpt>
      <trkpt lat="41.855470" lon="2.542885">
        <ele>571.370</ele>
        <time>2020-07-26T08:45:37Z</time>
      </trkpt>
      <trkpt lat="41.855511" lon="2.543029">
        <ele>570.135</ele>
        <time>2020-07-26T08:45:38Z</time>
      </trkpt>
      <trkpt lat="41.855549" lon="2.543162">
        <ele>569.243</ele>
        <time>2020-07-26T08:45:39Z</time>
      </trkpt>
      <trkpt lat="41.855556" lon="2.543300">
        <ele>568.786</ele>
        <time>2020-07-26T08:45:40Z</time>
      </trkpt>
      <trkpt lat="41.855509" lon="2.543422">
        <ele>568.260</ele>
        <time>2020-07-26T08:45:41Z</time>
      </trkpt>
      <trkpt lat="41.855428" lon="2.543508">
        <ele>567.496</ele>
        <time>2020-07-26T08:45:42Z</time>
      </trkpt>
      <trkpt lat="41.855344" lon="2.543589">
        <ele>566.774</ele>
        <time>2020-07-26T08:45:43Z</time>
      </trkpt>
      <trkpt lat="41.855285" lon="2.543690">
        <ele>566.256</ele>
        <time>2020-07-26T08:45:44Z</time>
      </trkpt>
      <trkpt lat="41.855262" lon="2.543813">
        <ele>565.621</ele>
        <time>2020-07-26T08:45:45Z</time>
      </trkpt>
      <trkpt lat="41.855276" lon="2.543939">
        <ele>565.008</ele>
        <time>2020-07-26T08:45:46Z</time>
      </trkpt>
      <trkpt lat="41.855306" lon="2.544063">
        <ele>564.392</ele>
        <time>2020-07-26T08:45:47Z</time>
      </trkpt>
      <trkpt lat="41.855360" lon="2.544180">
        <ele>563.540</ele>
        <time>2020-07-26T08:45:48Z</time>
      </trkpt>
      <trkpt lat="41.855425" lon="2.544290">
        <ele>563.153</ele>
        <time>2020-07-26T08:45:49Z</time>
      </trkpt>
      <trkpt lat="41.855496" lon="2.544400">
        <ele>562.158</ele>
        <time>2020-07-26T08:45:50Z</time>
      </trkpt>
      <trkpt lat="41.855569" lon="2.544498">
        <ele>561.066</ele>
        <time>2020-07-26T08:45:51Z</time>
      </trkpt>
      <trkpt lat="41.855647" lon="2.544569">
        <ele>560.299</ele>
        <time>2020-07-26T08:45:52Z</time>
      </trkpt>
      <trkpt lat="41.855748" lon="2.544611">
        <ele>559.533</ele>
        <time>2020-07-26T08:45:53Z</time>
      </trkpt>
      <trkpt lat="41.855860" lon="2.544616">
        <ele>558.779</ele>
        <time>2020-07-26T08:45:54Z</time>
      </trkpt>
      <trkpt lat="41.855972" lon="2.544610">
        <ele>558.216</ele>
        <time>2020-07-26T08:45:55Z</time>
      </trkpt>
      <trkpt lat="41.856078" lon="2.544606">
        <ele>557.776</ele>
        <time>2020-07-26T08:45:56Z</time>
      </trkpt>
      <trkpt lat="41.856179" lon="2.544611">
        <ele>557.113</ele>
        <time>2020-07-26T08:45:57Z</time>
      </trkpt>
      <trkpt lat="41.856283" lon="2.544641">
        <ele>556.108</ele>
        <time>2020-07-26T08:45:58Z</time>
      </trkpt>
      <trkpt lat="41.856367" lon="2.544726">
        <ele>555.056</ele>
        <time>2020-07-26T08:45:59Z</time>
      </trkpt>
      <trkpt lat="41.856417" lon="2.544850">
        <ele>554.274</ele>
        <time>2020-07-26T08:46:00Z</time>
      </trkpt>
      <trkpt lat="41.856446" lon="2.544983">
        <ele>553.427</ele>
        <time>2020-07-26T08:46:01Z</time>
      </trkpt>
      <trkpt lat="41.856474" lon="2.545120">
        <ele>552.882</ele>
        <time>2020-07-26T08:46:02Z</time>
      </trkpt>
      <trkpt lat="41.856505" lon="2.545254">
        <ele>552.120</ele>
        <time>2020-07-26T08:46:03Z</time>
      </trkpt>
      <trkpt lat="41.856542" lon="2.545379">
        <ele>551.343</ele>
        <time>2020-07-26T08:46:04Z</time>
      </trkpt>
      <trkpt lat="41.856585" lon="2.545495">
        <ele>550.777</ele>
        <time>2020-07-26T08:46:05Z</time>
      </trkpt>
      <trkpt lat="41.856628" lon="2.545607">
        <ele>549.613</ele>
        <time>2020-07-26T08:46:06Z</time>
      </trkpt>
      <trkpt lat="41.856706" lon="2.545670">
        <ele>548.936</ele>
        <time>2020-07-26T08:46:07Z</time>
      </trkpt>
      <trkpt lat="41.856810" lon="2.545706">
        <ele>548.017</ele>
        <time>2020-07-26T08:46:08Z</time>
      </trkpt>
      <trkpt lat="41.856892" lon="2.545770">
        <ele>547.318</ele>
        <time>2020-07-26T08:46:09Z</time>
      </trkpt>
      <trkpt lat="41.856975" lon="2.545831">
        <ele>546.808</ele>
        <time>2020-07-26T08:46:10Z</time>
      </trkpt>
      <trkpt lat="41.857068" lon="2.545877">
        <ele>546.248</ele>
        <time>2020-07-26T08:46:11Z</time>
      </trkpt>
      <trkpt lat="41.857153" lon="2.545889">
        <ele>545.696</ele>
        <time>2020-07-26T08:46:12Z</time>
      </trkpt>
      <trkpt lat="41.857249" lon="2.545889">
        <ele>545.189</ele>
        <time>2020-07-26T08:46:13Z</time>
      </trkpt>
      <trkpt lat="41.857345" lon="2.545875">
        <ele>544.634</ele>
        <time>2020-07-26T08:46:14Z</time>
      </trkpt>
      <trkpt lat="41.857445" lon="2.545844">
        <ele>543.852</ele>
        <time>2020-07-26T08:46:15Z</time>
      </trkpt>
      <trkpt lat="41.857541" lon="2.545798">
        <ele>543.355</ele>
        <time>2020-07-26T08:46:16Z</time>
      </trkpt>
      <trkpt lat="41.857636" lon="2.545755">
        <ele>542.989</ele>
        <time>2020-07-26T08:46:17Z</time>
      </trkpt>
      <trkpt lat="41.857725" lon="2.545740">
        <ele>542.725</ele>
        <time>2020-07-26T08:46:18Z</time>
      </trkpt>
      <trkpt lat="41.857799" lon="2.545786">
        <ele>542.441</ele>
        <time>2020-07-26T08:46:19Z</time>
      </trkpt>
      <trkpt lat="41.857856" lon="2.545861">
        <ele>541.781</ele>
        <time>2020-07-26T08:46:20Z</time>
      </trkpt>
      <trkpt lat="41.857894" lon="2.545940">
        <ele>541.609</ele>
        <time>2020-07-26T08:46:21Z</time>
      </trkpt>
      <trkpt lat="41.857930" lon="2.546033">
        <ele>541.708</ele>
        <time>2020-07-26T08:46:22Z</time>
      </trkpt>
      <trkpt lat="41.857966" lon="2.546121">
        <ele>541.429</ele>
        <time>2020-07-26T08:46:23Z</time>
      </trkpt>
      <trkpt lat="41.858023" lon="2.546308">
        <ele>540.247</ele>
        <time>2020-07-26T08:46:25Z</time>
      </trkpt>
      <trkpt lat="41.858050" lon="2.546513">
        <ele>539.070</ele>
        <time>2020-07-26T08:46:27Z</time>
      </trkpt>
      <trkpt lat="41.858020" lon="2.546723">
        <ele>537.025</ele>
        <time>2020-07-26T08:46:29Z</time>
      </trkpt>
      <trkpt lat="41.857948" lon="2.546839">
        <ele>536.453</ele>
        <time>2020-07-26T08:46:30Z</time>
      </trkpt>
      <trkpt lat="41.857882" lon="2.546945">
        <ele>535.846</ele>
        <time>2020-07-26T08:46:31Z</time>
      </trkpt>
      <trkpt lat="41.857821" lon="2.547047">
        <ele>535.240</ele>
        <time>2020-07-26T08:46:32Z</time>
      </trkpt>
      <trkpt lat="41.857770" lon="2.547154">
        <ele>534.776</ele>
        <time>2020-07-26T08:46:33Z</time>
      </trkpt>
      <trkpt lat="41.857724" lon="2.547265">
        <ele>534.235</ele>
        <time>2020-07-26T08:46:34Z</time>
      </trkpt>
      <trkpt lat="41.857684" lon="2.547383">
        <ele>533.686</ele>
        <time>2020-07-26T08:46:35Z</time>
      </trkpt>
      <trkpt lat="41.857652" lon="2.547507">
        <ele>532.914</ele>
        <time>2020-07-26T08:46:36Z</time>
      </trkpt>
      <trkpt lat="41.857632" lon="2.547638">
        <ele>532.608</ele>
        <time>2020-07-26T08:46:37Z</time>
      </trkpt>
      <trkpt lat="41.857625" lon="2.547770">
        <ele>531.868</ele>
        <time>2020-07-26T08:46:38Z</time>
      </trkpt>
      <trkpt lat="41.857629" lon="2.547902">
        <ele>531.356</ele>
        <time>2020-07-26T08:46:39Z</time>
      </trkpt>
      <trkpt lat="41.857643" lon="2.548033">
        <ele>531.199</ele>
        <time>2020-07-26T08:46:40Z</time>
      </trkpt>
      <trkpt lat="41.857671" lon="2.548163">
        <ele>530.794</ele>
        <time>2020-07-26T08:46:41Z</time>
      </trkpt>
      <trkpt lat="41.857705" lon="2.548294">
        <ele>530.412</ele>
        <time>2020-07-26T08:46:42Z</time>
      </trkpt>
      <trkpt lat="41.857744" lon="2.548425">
        <ele>529.865</ele>
        <time>2020-07-26T08:46:43Z</time>
      </trkpt>
      <trkpt lat="41.857776" lon="2.548561">
        <ele>529.169</ele>
        <time>2020-07-26T08:46:44Z</time>
      </trkpt>
      <trkpt lat="41.857818" lon="2.548689">
        <ele>528.675</ele>
        <time>2020-07-26T08:46:45Z</time>
      </trkpt>
      <trkpt lat="41.857859" lon="2.548805">
        <ele>528.015</ele>
        <time>2020-07-26T08:46:46Z</time>
      </trkpt>
      <trkpt lat="41.857889" lon="2.548909">
        <ele>527.465</ele>
        <time>2020-07-26T08:46:47Z</time>
      </trkpt>
      <trkpt lat="41.857997" lon="2.549019">
        <ele>526.411</ele>
        <time>2020-07-26T08:46:49Z</time>
      </trkpt>
      <trkpt lat="41.858089" lon="2.548992">
        <ele>525.608</ele>
        <time>2020-07-26T08:46:50Z</time>
      </trkpt>
      <trkpt lat="41.858178" lon="2.548943">
        <ele>524.976</ele>
        <time>2020-07-26T08:46:51Z</time>
      </trkpt>
      <trkpt lat="41.858260" lon="2.548864">
        <ele>524.694</ele>
        <time>2020-07-26T08:46:52Z</time>
      </trkpt>
      <trkpt lat="41.858320" lon="2.548745">
        <ele>524.297</ele>
        <time>2020-07-26T08:46:53Z</time>
      </trkpt>
      <trkpt lat="41.858378" lon="2.548598">
        <ele>524.032</ele>
        <time>2020-07-26T08:46:54Z</time>
      </trkpt>
      <trkpt lat="41.858439" lon="2.548474">
        <ele>523.360</ele>
        <time>2020-07-26T08:46:55Z</time>
      </trkpt>
      <trkpt lat="41.858524" lon="2.548386">
        <ele>522.693</ele>
        <time>2020-07-26T08:46:56Z</time>
      </trkpt>
      <trkpt lat="41.858615" lon="2.548306">
        <ele>521.577</ele>
        <time>2020-07-26T08:46:57Z</time>
      </trkpt>
      <trkpt lat="41.858695" lon="2.548212">
        <ele>521.053</ele>
        <time>2020-07-26T08:46:58Z</time>
      </trkpt>
      <trkpt lat="41.858762" lon="2.548101">
        <ele>520.479</ele>
        <time>2020-07-26T08:46:59Z</time>
      </trkpt>
      <trkpt lat="41.858838" lon="2.548009">
        <ele>519.505</ele>
        <time>2020-07-26T08:47:00Z</time>
      </trkpt>
      <trkpt lat="41.858925" lon="2.547942">
        <ele>518.625</ele>
        <time>2020-07-26T08:47:01Z</time>
      </trkpt>
      <trkpt lat="41.859011" lon="2.547878">
        <ele>518.008</ele>
        <time>2020-07-26T08:47:02Z</time>
      </trkpt>
      <trkpt lat="41.859104" lon="2.547813">
        <ele>517.112</ele>
        <time>2020-07-26T08:47:03Z</time>
      </trkpt>
      <trkpt lat="41.859187" lon="2.547740">
        <ele>516.250</ele>
        <time>2020-07-26T08:47:04Z</time>
      </trkpt>
      <trkpt lat="41.859264" lon="2.547669">
        <ele>515.673</ele>
        <time>2020-07-26T08:47:05Z</time>
      </trkpt>
      <trkpt lat="41.859487" lon="2.547655">
        <ele>514.178</ele>
        <time>2020-07-26T08:47:08Z</time>
      </trkpt>
      <trkpt lat="41.859566" lon="2.547767">
        <ele>513.786</ele>
        <time>2020-07-26T08:47:09Z</time>
      </trkpt>
      <trkpt lat="41.859627" lon="2.547979">
        <ele>513.149</ele>
        <time>2020-07-26T08:47:11Z</time>
      </trkpt>
      <trkpt lat="41.859710" lon="2.548148">
        <ele>512.163</ele>
        <time>2020-07-26T08:47:13Z</time>
      </trkpt>
      <trkpt lat="41.859811" lon="2.548274">
        <ele>511.399</ele>
        <time>2020-07-26T08:47:15Z</time>
      </trkpt>
      <trkpt lat="41.859907" lon="2.548410">
        <ele>510.173</ele>
        <time>2020-07-26T08:47:17Z</time>
      </trkpt>
      <trkpt lat="41.859897" lon="2.548627">
        <ele>509.485</ele>
        <time>2020-07-26T08:47:19Z</time>
      </trkpt>
      <trkpt lat="41.859861" lon="2.548745">
        <ele>508.713</ele>
        <time>2020-07-26T08:47:20Z</time>
      </trkpt>
      <trkpt lat="41.859839" lon="2.548865">
        <ele>508.508</ele>
        <time>2020-07-26T08:47:21Z</time>
      </trkpt>
      <trkpt lat="41.859836" lon="2.548986">
        <ele>507.972</ele>
        <time>2020-07-26T08:47:22Z</time>
      </trkpt>
      <trkpt lat="41.859849" lon="2.549112">
        <ele>506.780</ele>
        <time>2020-07-26T08:47:23Z</time>
      </trkpt>
      <trkpt lat="41.859869" lon="2.549230">
        <ele>505.983</ele>
        <time>2020-07-26T08:47:24Z</time>
      </trkpt>
      <trkpt lat="41.859905" lon="2.549343">
        <ele>505.548</ele>
        <time>2020-07-26T08:47:25Z</time>
      </trkpt>
      <trkpt lat="41.859980" lon="2.549410">
        <ele>505.376</ele>
        <time>2020-07-26T08:47:26Z</time>
      </trkpt>
      <trkpt lat="41.860144" lon="2.549513">
        <ele>504.769</ele>
        <time>2020-07-26T08:47:28Z</time>
      </trkpt>
      <trkpt lat="41.860202" lon="2.549618">
        <ele>503.583</ele>
        <time>2020-07-26T08:47:29Z</time>
      </trkpt>
      <trkpt lat="41.860216" lon="2.549758">
        <ele>502.749</ele>
        <time>2020-07-26T08:47:30Z</time>
      </trkpt>
      <trkpt lat="41.860202" lon="2.549898">
        <ele>502.432</ele>
        <time>2020-07-26T08:47:31Z</time>
      </trkpt>
      <trkpt lat="41.860176" lon="2.550021">
        <ele>502.092</ele>
        <time>2020-07-26T08:47:32Z</time>
      </trkpt>
      <trkpt lat="41.860145" lon="2.550144">
        <ele>501.811</ele>
        <time>2020-07-26T08:47:33Z</time>
      </trkpt>
      <trkpt lat="41.860097" lon="2.550272">
        <ele>501.108</ele>
        <time>2020-07-26T08:47:34Z</time>
      </trkpt>
      <trkpt lat="41.860036" lon="2.550397">
        <ele>500.798</ele>
        <time>2020-07-26T08:47:35Z</time>
      </trkpt>
      <trkpt lat="41.859976" lon="2.550522">
        <ele>500.436</ele>
        <time>2020-07-26T08:47:36Z</time>
      </trkpt>
      <trkpt lat="41.859925" lon="2.550655">
        <ele>499.559</ele>
        <time>2020-07-26T08:47:37Z</time>
      </trkpt>
      <trkpt lat="41.859887" lon="2.550793">
        <ele>497.984</ele>
        <time>2020-07-26T08:47:38Z</time>
      </trkpt>
      <trkpt lat="41.859871" lon="2.550932">
        <ele>496.742</ele>
        <time>2020-07-26T08:47:39Z</time>
      </trkpt>
      <trkpt lat="41.859893" lon="2.551076">
        <ele>495.535</ele>
        <time>2020-07-26T08:47:40Z</time>
      </trkpt>
      <trkpt lat="41.859928" lon="2.551189">
        <ele>494.669</ele>
        <time>2020-07-26T08:47:41Z</time>
      </trkpt>
      <trkpt lat="41.859995" lon="2.551254">
        <ele>493.825</ele>
        <time>2020-07-26T08:47:42Z</time>
      </trkpt>
      <trkpt lat="41.860096" lon="2.551274">
        <ele>493.293</ele>
        <time>2020-07-26T08:47:43Z</time>
      </trkpt>
      <trkpt lat="41.860205" lon="2.551257">
        <ele>492.765</ele>
        <time>2020-07-26T08:47:44Z</time>
      </trkpt>
      <trkpt lat="41.860306" lon="2.551223">
        <ele>492.721</ele>
        <time>2020-07-26T08:47:45Z</time>
      </trkpt>
      <trkpt lat="41.860415" lon="2.551189">
        <ele>492.108</ele>
        <time>2020-07-26T08:47:46Z</time>
      </trkpt>
      <trkpt lat="41.860518" lon="2.551152">
        <ele>491.134</ele>
        <time>2020-07-26T08:47:47Z</time>
      </trkpt>
      <trkpt lat="41.860617" lon="2.551124">
        <ele>490.782</ele>
        <time>2020-07-26T08:47:48Z</time>
      </trkpt>
      <trkpt lat="41.860736" lon="2.551133">
        <ele>490.185</ele>
        <time>2020-07-26T08:47:49Z</time>
      </trkpt>
      <trkpt lat="41.860820" lon="2.551216">
        <ele>489.160</ele>
        <time>2020-07-26T08:47:50Z</time>
      </trkpt>
      <trkpt lat="41.860857" lon="2.551343">
        <ele>488.798</ele>
        <time>2020-07-26T08:47:51Z</time>
      </trkpt>
      <trkpt lat="41.860878" lon="2.551478">
        <ele>488.761</ele>
        <time>2020-07-26T08:47:52Z</time>
      </trkpt>
      <trkpt lat="41.860886" lon="2.551617">
        <ele>488.635</ele>
        <time>2020-07-26T08:47:53Z</time>
      </trkpt>
      <trkpt lat="41.860886" lon="2.551755">
        <ele>487.861</ele>
        <time>2020-07-26T08:47:54Z</time>
      </trkpt>
      <trkpt lat="41.860880" lon="2.551892">
        <ele>486.914</ele>
        <time>2020-07-26T08:47:55Z</time>
      </trkpt>
      <trkpt lat="41.860831" lon="2.552015">
        <ele>485.954</ele>
        <time>2020-07-26T08:47:56Z</time>
      </trkpt>
      <trkpt lat="41.860746" lon="2.552117">
        <ele>484.909</ele>
        <time>2020-07-26T08:47:57Z</time>
      </trkpt>
      <trkpt lat="41.860659" lon="2.552214">
        <ele>484.108</ele>
        <time>2020-07-26T08:47:58Z</time>
      </trkpt>
      <trkpt lat="41.860586" lon="2.552323">
        <ele>484.096</ele>
        <time>2020-07-26T08:47:59Z</time>
      </trkpt>
      <trkpt lat="41.860529" lon="2.552445">
        <ele>483.824</ele>
        <time>2020-07-26T08:48:00Z</time>
      </trkpt>
      <trkpt lat="41.860491" lon="2.552578">
        <ele>483.177</ele>
        <time>2020-07-26T08:48:01Z</time>
      </trkpt>
      <trkpt lat="41.860467" lon="2.552720">
        <ele>482.742</ele>
        <time>2020-07-26T08:48:02Z</time>
      </trkpt>
      <trkpt lat="41.860461" lon="2.552868">
        <ele>482.510</ele>
        <time>2020-07-26T08:48:03Z</time>
      </trkpt>
      <trkpt lat="41.860464" lon="2.553019">
        <ele>481.643</ele>
        <time>2020-07-26T08:48:04Z</time>
      </trkpt>
      <trkpt lat="41.860452" lon="2.553173">
        <ele>480.897</ele>
        <time>2020-07-26T08:48:05Z</time>
      </trkpt>
      <trkpt lat="41.860413" lon="2.553322">
        <ele>479.663</ele>
        <time>2020-07-26T08:48:06Z</time>
      </trkpt>
      <trkpt lat="41.860350" lon="2.553456">
        <ele>478.853</ele>
        <time>2020-07-26T08:48:07Z</time>
      </trkpt>
      <trkpt lat="41.860281" lon="2.553582">
        <ele>478.104</ele>
        <time>2020-07-26T08:48:08Z</time>
      </trkpt>
      <trkpt lat="41.860224" lon="2.553719">
        <ele>477.314</ele>
        <time>2020-07-26T08:48:09Z</time>
      </trkpt>
      <trkpt lat="41.860186" lon="2.553870">
        <ele>476.908</ele>
        <time>2020-07-26T08:48:10Z</time>
      </trkpt>
      <trkpt lat="41.860151" lon="2.554014">
        <ele>476.590</ele>
        <time>2020-07-26T08:48:11Z</time>
      </trkpt>
      <trkpt lat="41.860122" lon="2.554158">
        <ele>476.238</ele>
        <time>2020-07-26T08:48:12Z</time>
      </trkpt>
      <trkpt lat="41.860099" lon="2.554302">
        <ele>476.181</ele>
        <time>2020-07-26T08:48:13Z</time>
      </trkpt>
      <trkpt lat="41.860077" lon="2.554443">
        <ele>475.836</ele>
        <time>2020-07-26T08:48:14Z</time>
      </trkpt>
      <trkpt lat="41.860056" lon="2.554581">
        <ele>475.054</ele>
        <time>2020-07-26T08:48:15Z</time>
      </trkpt>
      <trkpt lat="41.860040" lon="2.554718">
        <ele>474.457</ele>
        <time>2020-07-26T08:48:16Z</time>
      </trkpt>
      <trkpt lat="41.860037" lon="2.554852">
        <ele>473.841</ele>
        <time>2020-07-26T08:48:17Z</time>
      </trkpt>
      <trkpt lat="41.860064" lon="2.554965">
        <ele>473.287</ele>
        <time>2020-07-26T08:48:18Z</time>
      </trkpt>
      <trkpt lat="41.860108" lon="2.555073">
        <ele>473.238</ele>
        <time>2020-07-26T08:48:19Z</time>
      </trkpt>
      <trkpt lat="41.860162" lon="2.555181">
        <ele>473.370</ele>
        <time>2020-07-26T08:48:20Z</time>
      </trkpt>
      <trkpt lat="41.860218" lon="2.555284">
        <ele>472.917</ele>
        <time>2020-07-26T08:48:21Z</time>
      </trkpt>
      <trkpt lat="41.860311" lon="2.555482">
        <ele>473.008</ele>
        <time>2020-07-26T08:48:23Z</time>
      </trkpt>
      <trkpt lat="41.860358" lon="2.555580">
        <ele>472.348</ele>
        <time>2020-07-26T08:48:24Z</time>
      </trkpt>
      <trkpt lat="41.860397" lon="2.555677">
        <ele>472.166</ele>
        <time>2020-07-26T08:48:25Z</time>
      </trkpt>
      <trkpt lat="41.860429" lon="2.555777">
        <ele>471.789</ele>
        <time>2020-07-26T08:48:26Z</time>
      </trkpt>
      <trkpt lat="41.860450" lon="2.555880">
        <ele>471.384</ele>
        <time>2020-07-26T08:48:27Z</time>
      </trkpt>
      <trkpt lat="41.860464" lon="2.555986">
        <ele>470.922</ele>
        <time>2020-07-26T08:48:28Z</time>
      </trkpt>
      <trkpt lat="41.860473" lon="2.556092">
        <ele>470.575</ele>
        <time>2020-07-26T08:48:29Z</time>
      </trkpt>
      <trkpt lat="41.860483" lon="2.556196">
        <ele>470.369</ele>
        <time>2020-07-26T08:48:30Z</time>
      </trkpt>
      <trkpt lat="41.860489" lon="2.556302">
        <ele>470.175</ele>
        <time>2020-07-26T08:48:31Z</time>
      </trkpt>
      <trkpt lat="41.860491" lon="2.556414">
        <ele>469.829</ele>
        <time>2020-07-26T08:48:32Z</time>
      </trkpt>
      <trkpt lat="41.860480" lon="2.556521">
        <ele>469.300</ele>
        <time>2020-07-26T08:48:33Z</time>
      </trkpt>
      <trkpt lat="41.860458" lon="2.556626">
        <ele>469.120</ele>
        <time>2020-07-26T08:48:34Z</time>
      </trkpt>
      <trkpt lat="41.860429" lon="2.556728">
        <ele>468.908</ele>
        <time>2020-07-26T08:48:35Z</time>
      </trkpt>
      <trkpt lat="41.860394" lon="2.556826">
        <ele>468.557</ele>
        <time>2020-07-26T08:48:36Z</time>
      </trkpt>
      <trkpt lat="41.860351" lon="2.556918">
        <ele>468.315</ele>
        <time>2020-07-26T08:48:37Z</time>
      </trkpt>
      <trkpt lat="41.860308" lon="2.557009">
        <ele>467.968</ele>
        <time>2020-07-26T08:48:38Z</time>
      </trkpt>
      <trkpt lat="41.860262" lon="2.557099">
        <ele>467.533</ele>
        <time>2020-07-26T08:48:39Z</time>
      </trkpt>
      <trkpt lat="41.860213" lon="2.557188">
        <ele>467.341</ele>
        <time>2020-07-26T08:48:40Z</time>
      </trkpt>
      <trkpt lat="41.860163" lon="2.557277">
        <ele>466.924</ele>
        <time>2020-07-26T08:48:41Z</time>
      </trkpt>
      <trkpt lat="41.860114" lon="2.557370">
        <ele>466.768</ele>
        <time>2020-07-26T08:48:42Z</time>
      </trkpt>
      <trkpt lat="41.860072" lon="2.557469">
        <ele>466.484</ele>
        <time>2020-07-26T08:48:43Z</time>
      </trkpt>
      <trkpt lat="41.860036" lon="2.557574">
        <ele>465.924</ele>
        <time>2020-07-26T08:48:44Z</time>
      </trkpt>
      <trkpt lat="41.860008" lon="2.557689">
        <ele>465.404</ele>
        <time>2020-07-26T08:48:45Z</time>
      </trkpt>
      <trkpt lat="41.859998" lon="2.557813">
        <ele>464.914</ele>
        <time>2020-07-26T08:48:46Z</time>
      </trkpt>
      <trkpt lat="41.860005" lon="2.557941">
        <ele>464.508</ele>
        <time>2020-07-26T08:48:47Z</time>
      </trkpt>
      <trkpt lat="41.860014" lon="2.558065">
        <ele>464.127</ele>
        <time>2020-07-26T08:48:48Z</time>
      </trkpt>
      <trkpt lat="41.860026" lon="2.558191">
        <ele>463.535</ele>
        <time>2020-07-26T08:48:49Z</time>
      </trkpt>
      <trkpt lat="41.860026" lon="2.558316">
        <ele>462.468</ele>
        <time>2020-07-26T08:48:50Z</time>
      </trkpt>
      <trkpt lat="41.859997" lon="2.558438">
        <ele>461.923</ele>
        <time>2020-07-26T08:48:51Z</time>
      </trkpt>
      <trkpt lat="41.859937" lon="2.558546">
        <ele>461.561</ele>
        <time>2020-07-26T08:48:52Z</time>
      </trkpt>
      <trkpt lat="41.859862" lon="2.558641">
        <ele>461.154</ele>
        <time>2020-07-26T08:48:53Z</time>
      </trkpt>
      <trkpt lat="41.859782" lon="2.558732">
        <ele>460.578</ele>
        <time>2020-07-26T08:48:54Z</time>
      </trkpt>
      <trkpt lat="41.859713" lon="2.558832">
        <ele>459.684</ele>
        <time>2020-07-26T08:48:55Z</time>
      </trkpt>
      <trkpt lat="41.859660" lon="2.558944">
        <ele>458.933</ele>
        <time>2020-07-26T08:48:56Z</time>
      </trkpt>
      <trkpt lat="41.859626" lon="2.559069">
        <ele>458.023</ele>
        <time>2020-07-26T08:48:57Z</time>
      </trkpt>
      <trkpt lat="41.859623" lon="2.559216">
        <ele>457.115</ele>
        <time>2020-07-26T08:48:58Z</time>
      </trkpt>
      <trkpt lat="41.859629" lon="2.559366">
        <ele>456.108</ele>
        <time>2020-07-26T08:48:59Z</time>
      </trkpt>
      <trkpt lat="41.859656" lon="2.559524">
        <ele>455.398</ele>
        <time>2020-07-26T08:49:00Z</time>
      </trkpt>
      <trkpt lat="41.859684" lon="2.559684">
        <ele>454.926</ele>
        <time>2020-07-26T08:49:01Z</time>
      </trkpt>
      <trkpt lat="41.859737" lon="2.559847">
        <ele>454.599</ele>
        <time>2020-07-26T08:49:02Z</time>
      </trkpt>
      <trkpt lat="41.859807" lon="2.559996">
        <ele>454.114</ele>
        <time>2020-07-26T08:49:03Z</time>
      </trkpt>
      <trkpt lat="41.859879" lon="2.560132">
        <ele>453.942</ele>
        <time>2020-07-26T08:49:04Z</time>
      </trkpt>
      <trkpt lat="41.859951" lon="2.560261">
        <ele>453.465</ele>
        <time>2020-07-26T08:49:05Z</time>
      </trkpt>
      <trkpt lat="41.860019" lon="2.560384">
        <ele>452.869</ele>
        <time>2020-07-26T08:49:06Z</time>
      </trkpt>
      <trkpt lat="41.860087" lon="2.560500">
        <ele>452.395</ele>
        <time>2020-07-26T08:49:07Z</time>
      </trkpt>
      <trkpt lat="41.860164" lon="2.560605">
        <ele>451.988</ele>
        <time>2020-07-26T08:49:08Z</time>
      </trkpt>
      <trkpt lat="41.860271" lon="2.560691">
        <ele>451.524</ele>
        <time>2020-07-26T08:49:09Z</time>
      </trkpt>
      <trkpt lat="41.860377" lon="2.560769">
        <ele>451.226</ele>
        <time>2020-07-26T08:49:10Z</time>
      </trkpt>
      <trkpt lat="41.860483" lon="2.560841">
        <ele>451.208</ele>
        <time>2020-07-26T08:49:11Z</time>
      </trkpt>
      <trkpt lat="41.860585" lon="2.560909">
        <ele>451.323</ele>
        <time>2020-07-26T08:49:12Z</time>
      </trkpt>
      <trkpt lat="41.860681" lon="2.560977">
        <ele>451.261</ele>
        <time>2020-07-26T08:49:13Z</time>
      </trkpt>
      <trkpt lat="41.860772" lon="2.561049">
        <ele>450.864</ele>
        <time>2020-07-26T08:49:14Z</time>
      </trkpt>
      <trkpt lat="41.860858" lon="2.561122">
        <ele>450.959</ele>
        <time>2020-07-26T08:49:15Z</time>
      </trkpt>
      <trkpt lat="41.860935" lon="2.561208">
        <ele>450.717</ele>
        <time>2020-07-26T08:49:16Z</time>
      </trkpt>
      <trkpt lat="41.860999" lon="2.561306">
        <ele>450.670</ele>
        <time>2020-07-26T08:49:17Z</time>
      </trkpt>
      <trkpt lat="41.861022" lon="2.561426">
        <ele>449.894</ele>
        <time>2020-07-26T08:49:18Z</time>
      </trkpt>
      <trkpt lat="41.861006" lon="2.561552">
        <ele>449.250</ele>
        <time>2020-07-26T08:49:19Z</time>
      </trkpt>
      <trkpt lat="41.860980" lon="2.561672">
        <ele>448.455</ele>
        <time>2020-07-26T08:49:20Z</time>
      </trkpt>
      <trkpt lat="41.860943" lon="2.561796">
        <ele>447.907</ele>
        <time>2020-07-26T08:49:21Z</time>
      </trkpt>
      <trkpt lat="41.860903" lon="2.561918">
        <ele>447.517</ele>
        <time>2020-07-26T08:49:22Z</time>
      </trkpt>
      <trkpt lat="41.860854" lon="2.562040">
        <ele>447.208</ele>
        <time>2020-07-26T08:49:23Z</time>
      </trkpt>
      <trkpt lat="41.860796" lon="2.562157">
        <ele>446.480</ele>
        <time>2020-07-26T08:49:24Z</time>
      </trkpt>
      <trkpt lat="41.860730" lon="2.562270">
        <ele>445.888</ele>
        <time>2020-07-26T08:49:25Z</time>
      </trkpt>
      <trkpt lat="41.860659" lon="2.562381">
        <ele>445.381</ele>
        <time>2020-07-26T08:49:26Z</time>
      </trkpt>
      <trkpt lat="41.860584" lon="2.562491">
        <ele>444.836</ele>
        <time>2020-07-26T08:49:27Z</time>
      </trkpt>
      <trkpt lat="41.860506" lon="2.562597">
        <ele>443.924</ele>
        <time>2020-07-26T08:49:28Z</time>
      </trkpt>
      <trkpt lat="41.860428" lon="2.562705">
        <ele>442.877</ele>
        <time>2020-07-26T08:49:29Z</time>
      </trkpt>
      <trkpt lat="41.860354" lon="2.562822">
        <ele>441.351</ele>
        <time>2020-07-26T08:49:30Z</time>
      </trkpt>
      <trkpt lat="41.860288" lon="2.562951">
        <ele>440.387</ele>
        <time>2020-07-26T08:49:31Z</time>
      </trkpt>
      <trkpt lat="41.860260" lon="2.563098">
        <ele>439.562</ele>
        <time>2020-07-26T08:49:32Z</time>
      </trkpt>
      <trkpt lat="41.860261" lon="2.563256">
        <ele>439.183</ele>
        <time>2020-07-26T08:49:33Z</time>
      </trkpt>
      <trkpt lat="41.860271" lon="2.563426">
        <ele>438.711</ele>
        <time>2020-07-26T08:49:34Z</time>
      </trkpt>
      <trkpt lat="41.860293" lon="2.563594">
        <ele>438.408</ele>
        <time>2020-07-26T08:49:35Z</time>
      </trkpt>
      <trkpt lat="41.860321" lon="2.563762">
        <ele>437.851</ele>
        <time>2020-07-26T08:49:36Z</time>
      </trkpt>
      <trkpt lat="41.860362" lon="2.563918">
        <ele>437.099</ele>
        <time>2020-07-26T08:49:37Z</time>
      </trkpt>
      <trkpt lat="41.860416" lon="2.564056">
        <ele>436.472</ele>
        <time>2020-07-26T08:49:38Z</time>
      </trkpt>
      <trkpt lat="41.860471" lon="2.564193">
        <ele>435.797</ele>
        <time>2020-07-26T08:49:39Z</time>
      </trkpt>
      <trkpt lat="41.860520" lon="2.564334">
        <ele>435.015</ele>
        <time>2020-07-26T08:49:40Z</time>
      </trkpt>
      <trkpt lat="41.860574" lon="2.564475">
        <ele>433.158</ele>
        <time>2020-07-26T08:49:41Z</time>
      </trkpt>
      <trkpt lat="41.860618" lon="2.564621">
        <ele>432.162</ele>
        <time>2020-07-26T08:49:42Z</time>
      </trkpt>
      <trkpt lat="41.860652" lon="2.564765">
        <ele>431.968</ele>
        <time>2020-07-26T08:49:43Z</time>
      </trkpt>
      <trkpt lat="41.860672" lon="2.564914">
        <ele>431.819</ele>
        <time>2020-07-26T08:49:44Z</time>
      </trkpt>
      <trkpt lat="41.860674" lon="2.565063">
        <ele>431.709</ele>
        <time>2020-07-26T08:49:45Z</time>
      </trkpt>
      <trkpt lat="41.860665" lon="2.565212">
        <ele>430.919</ele>
        <time>2020-07-26T08:49:46Z</time>
      </trkpt>
      <trkpt lat="41.860652" lon="2.565364">
        <ele>430.608</ele>
        <time>2020-07-26T08:49:47Z</time>
      </trkpt>
      <trkpt lat="41.860640" lon="2.565515">
        <ele>430.356</ele>
        <time>2020-07-26T08:49:48Z</time>
      </trkpt>
      <trkpt lat="41.860624" lon="2.565668">
        <ele>429.354</ele>
        <time>2020-07-26T08:49:49Z</time>
      </trkpt>
      <trkpt lat="41.860600" lon="2.565824">
        <ele>428.267</ele>
        <time>2020-07-26T08:49:50Z</time>
      </trkpt>
      <trkpt lat="41.860578" lon="2.565982">
        <ele>427.052</ele>
        <time>2020-07-26T08:49:51Z</time>
      </trkpt>
      <trkpt lat="41.860548" lon="2.566139">
        <ele>426.430</ele>
        <time>2020-07-26T08:49:52Z</time>
      </trkpt>
      <trkpt lat="41.860504" lon="2.566294">
        <ele>425.763</ele>
        <time>2020-07-26T08:49:53Z</time>
      </trkpt>
      <trkpt lat="41.860441" lon="2.566439">
        <ele>424.617</ele>
        <time>2020-07-26T08:49:54Z</time>
      </trkpt>
      <trkpt lat="41.860376" lon="2.566576">
        <ele>423.753</ele>
        <time>2020-07-26T08:49:55Z</time>
      </trkpt>
      <trkpt lat="41.860309" lon="2.566709">
        <ele>422.643</ele>
        <time>2020-07-26T08:49:56Z</time>
      </trkpt>
      <trkpt lat="41.860244" lon="2.566840">
        <ele>421.364</ele>
        <time>2020-07-26T08:49:57Z</time>
      </trkpt>
      <trkpt lat="41.860179" lon="2.566973">
        <ele>421.110</ele>
        <time>2020-07-26T08:49:58Z</time>
      </trkpt>
      <trkpt lat="41.860113" lon="2.567107">
        <ele>420.808</ele>
        <time>2020-07-26T08:49:59Z</time>
      </trkpt>
      <trkpt lat="41.860047" lon="2.567241">
        <ele>420.179</ele>
        <time>2020-07-26T08:50:00Z</time>
      </trkpt>
      <trkpt lat="41.859985" lon="2.567375">
        <ele>418.957</ele>
        <time>2020-07-26T08:50:01Z</time>
      </trkpt>
      <trkpt lat="41.859934" lon="2.567512">
        <ele>417.830</ele>
        <time>2020-07-26T08:50:02Z</time>
      </trkpt>
      <trkpt lat="41.859896" lon="2.567652">
        <ele>416.895</ele>
        <time>2020-07-26T08:50:03Z</time>
      </trkpt>
      <trkpt lat="41.859886" lon="2.567801">
        <ele>415.323</ele>
        <time>2020-07-26T08:50:04Z</time>
      </trkpt>
      <trkpt lat="41.859900" lon="2.567951">
        <ele>414.516</ele>
        <time>2020-07-26T08:50:05Z</time>
      </trkpt>
      <trkpt lat="41.859945" lon="2.568094">
        <ele>413.910</ele>
        <time>2020-07-26T08:50:06Z</time>
      </trkpt>
      <trkpt lat="41.860009" lon="2.568222">
        <ele>412.966</ele>
        <time>2020-07-26T08:50:07Z</time>
      </trkpt>
      <trkpt lat="41.860084" lon="2.568337">
        <ele>411.933</ele>
        <time>2020-07-26T08:50:08Z</time>
      </trkpt>
      <trkpt lat="41.860169" lon="2.568429">
        <ele>411.523</ele>
        <time>2020-07-26T08:50:09Z</time>
      </trkpt>
      <trkpt lat="41.860269" lon="2.568489">
        <ele>411.015</ele>
        <time>2020-07-26T08:50:10Z</time>
      </trkpt>
      <trkpt lat="41.860381" lon="2.568507">
        <ele>410.208</ele>
        <time>2020-07-26T08:50:11Z</time>
      </trkpt>
      <trkpt lat="41.860503" lon="2.568515">
        <ele>409.728</ele>
        <time>2020-07-26T08:50:12Z</time>
      </trkpt>
      <trkpt lat="41.860604" lon="2.568568">
        <ele>409.276</ele>
        <time>2020-07-26T08:50:13Z</time>
      </trkpt>
      <trkpt lat="41.860665" lon="2.568677">
        <ele>408.619</ele>
        <time>2020-07-26T08:50:14Z</time>
      </trkpt>
      <trkpt lat="41.860699" lon="2.568808">
        <ele>408.174</ele>
        <time>2020-07-26T08:50:15Z</time>
      </trkpt>
      <trkpt lat="41.860715" lon="2.568946">
        <ele>407.582</ele>
        <time>2020-07-26T08:50:16Z</time>
      </trkpt>
      <trkpt lat="41.860723" lon="2.569088">
        <ele>406.335</ele>
        <time>2020-07-26T08:50:17Z</time>
      </trkpt>
      <trkpt lat="41.860732" lon="2.569226">
        <ele>405.539</ele>
        <time>2020-07-26T08:50:18Z</time>
      </trkpt>
      <trkpt lat="41.860742" lon="2.569359">
        <ele>405.375</ele>
        <time>2020-07-26T08:50:19Z</time>
      </trkpt>
      <trkpt lat="41.860750" lon="2.569493">
        <ele>404.942</ele>
        <time>2020-07-26T08:50:20Z</time>
      </trkpt>
      <trkpt lat="41.860755" lon="2.569626">
        <ele>404.622</ele>
        <time>2020-07-26T08:50:21Z</time>
      </trkpt>
      <trkpt lat="41.860761" lon="2.569753">
        <ele>403.914</ele>
        <time>2020-07-26T08:50:22Z</time>
      </trkpt>
      <trkpt lat="41.860769" lon="2.569881">
        <ele>403.708</ele>
        <time>2020-07-26T08:50:23Z</time>
      </trkpt>
      <trkpt lat="41.860775" lon="2.570015">
        <ele>403.359</ele>
        <time>2020-07-26T08:50:24Z</time>
      </trkpt>
      <trkpt lat="41.860782" lon="2.570146">
        <ele>402.327</ele>
        <time>2020-07-26T08:50:25Z</time>
      </trkpt>
      <trkpt lat="41.860791" lon="2.570272">
        <ele>401.430</ele>
        <time>2020-07-26T08:50:26Z</time>
      </trkpt>
      <trkpt lat="41.860813" lon="2.570384">
        <ele>400.775</ele>
        <time>2020-07-26T08:50:27Z</time>
      </trkpt>
      <trkpt lat="41.860941" lon="2.570504">
        <ele>399.983</ele>
        <time>2020-07-26T08:50:29Z</time>
      </trkpt>
      <trkpt lat="41.861038" lon="2.570490">
        <ele>399.666</ele>
        <time>2020-07-26T08:50:30Z</time>
      </trkpt>
      <trkpt lat="41.861134" lon="2.570464">
        <ele>398.830</ele>
        <time>2020-07-26T08:50:31Z</time>
      </trkpt>
      <trkpt lat="41.861227" lon="2.570422">
        <ele>398.236</ele>
        <time>2020-07-26T08:50:32Z</time>
      </trkpt>
      <trkpt lat="41.861315" lon="2.570359">
        <ele>397.676</ele>
        <time>2020-07-26T08:50:33Z</time>
      </trkpt>
      <trkpt lat="41.861390" lon="2.570251">
        <ele>397.590</ele>
        <time>2020-07-26T08:50:34Z</time>
      </trkpt>
      <trkpt lat="41.861468" lon="2.570140">
        <ele>397.219</ele>
        <time>2020-07-26T08:50:35Z</time>
      </trkpt>
      <trkpt lat="41.861545" lon="2.570033">
        <ele>396.608</ele>
        <time>2020-07-26T08:50:36Z</time>
      </trkpt>
      <trkpt lat="41.861618" lon="2.569933">
        <ele>395.862</ele>
        <time>2020-07-26T08:50:37Z</time>
      </trkpt>
      <trkpt lat="41.861692" lon="2.569835">
        <ele>395.040</ele>
        <time>2020-07-26T08:50:38Z</time>
      </trkpt>
      <trkpt lat="41.861764" lon="2.569736">
        <ele>394.383</ele>
        <time>2020-07-26T08:50:39Z</time>
      </trkpt>
      <trkpt lat="41.861827" lon="2.569628">
        <ele>393.418</ele>
        <time>2020-07-26T08:50:40Z</time>
      </trkpt>
      <trkpt lat="41.861873" lon="2.569506">
        <ele>392.676</ele>
        <time>2020-07-26T08:50:41Z</time>
      </trkpt>
      <trkpt lat="41.861892" lon="2.569371">
        <ele>391.829</ele>
        <time>2020-07-26T08:50:42Z</time>
      </trkpt>
      <trkpt lat="41.861874" lon="2.569231">
        <ele>391.113</ele>
        <time>2020-07-26T08:50:43Z</time>
      </trkpt>
      <trkpt lat="41.861826" lon="2.569097">
        <ele>390.779</ele>
        <time>2020-07-26T08:50:44Z</time>
      </trkpt>
      <trkpt lat="41.861777" lon="2.568962">
        <ele>390.354</ele>
        <time>2020-07-26T08:50:45Z</time>
      </trkpt>
      <trkpt lat="41.861752" lon="2.568817">
        <ele>389.756</ele>
        <time>2020-07-26T08:50:46Z</time>
      </trkpt>
      <trkpt lat="41.861780" lon="2.568678">
        <ele>388.711</ele>
        <time>2020-07-26T08:50:47Z</time>
      </trkpt>
      <trkpt lat="41.861854" lon="2.568564">
        <ele>388.508</ele>
        <time>2020-07-26T08:50:48Z</time>
      </trkpt>
      <trkpt lat="41.861944" lon="2.568473">
        <ele>387.570</ele>
        <time>2020-07-26T08:50:49Z</time>
      </trkpt>
      <trkpt lat="41.862040" lon="2.568396">
        <ele>386.838</ele>
        <time>2020-07-26T08:50:50Z</time>
      </trkpt>
      <trkpt lat="41.862135" lon="2.568321">
        <ele>385.681</ele>
        <time>2020-07-26T08:50:51Z</time>
      </trkpt>
      <trkpt lat="41.862215" lon="2.568227">
        <ele>384.836</ele>
        <time>2020-07-26T08:50:52Z</time>
      </trkpt>
      <trkpt lat="41.862263" lon="2.568108">
        <ele>384.264</ele>
        <time>2020-07-26T08:50:53Z</time>
      </trkpt>
      <trkpt lat="41.862271" lon="2.567972">
        <ele>383.727</ele>
        <time>2020-07-26T08:50:54Z</time>
      </trkpt>
      <trkpt lat="41.862242" lon="2.567844">
        <ele>383.591</ele>
        <time>2020-07-26T08:50:55Z</time>
      </trkpt>
      <trkpt lat="41.862188" lon="2.567732">
        <ele>383.347</ele>
        <time>2020-07-26T08:50:56Z</time>
      </trkpt>
      <trkpt lat="41.862126" lon="2.567627">
        <ele>383.266</ele>
        <time>2020-07-26T08:50:57Z</time>
      </trkpt>
      <trkpt lat="41.862091" lon="2.567512">
        <ele>382.629</ele>
        <time>2020-07-26T08:50:58Z</time>
      </trkpt>
      <trkpt lat="41.862086" lon="2.567393">
        <ele>382.121</ele>
        <time>2020-07-26T08:50:59Z</time>
      </trkpt>
      <trkpt lat="41.862115" lon="2.567285">
        <ele>381.808</ele>
        <time>2020-07-26T08:51:00Z</time>
      </trkpt>
      <trkpt lat="41.862165" lon="2.567190">
        <ele>381.321</ele>
        <time>2020-07-26T08:51:01Z</time>
      </trkpt>
      <trkpt lat="41.862224" lon="2.567114">
        <ele>381.329</ele>
        <time>2020-07-26T08:51:02Z</time>
      </trkpt>
      <trkpt lat="41.862288" lon="2.567050">
        <ele>381.392</ele>
        <time>2020-07-26T08:51:03Z</time>
      </trkpt>
      <trkpt lat="41.862362" lon="2.566998">
        <ele>381.257</ele>
        <time>2020-07-26T08:51:04Z</time>
      </trkpt>
      <trkpt lat="41.862443" lon="2.566968">
        <ele>381.385</ele>
        <time>2020-07-26T08:51:05Z</time>
      </trkpt>
      <trkpt lat="41.862530" lon="2.566967">
        <ele>380.818</ele>
        <time>2020-07-26T08:51:06Z</time>
      </trkpt>
      <trkpt lat="41.862621" lon="2.566990">
        <ele>380.312</ele>
        <time>2020-07-26T08:51:07Z</time>
      </trkpt>
      <trkpt lat="41.862714" lon="2.567019">
        <ele>380.368</ele>
        <time>2020-07-26T08:51:08Z</time>
      </trkpt>
      <trkpt lat="41.862802" lon="2.567054">
        <ele>379.926</ele>
        <time>2020-07-26T08:51:09Z</time>
      </trkpt>
      <trkpt lat="41.862891" lon="2.567084">
        <ele>379.547</ele>
        <time>2020-07-26T08:51:10Z</time>
      </trkpt>
      <trkpt lat="41.862983" lon="2.567103">
        <ele>379.311</ele>
        <time>2020-07-26T08:51:11Z</time>
      </trkpt>
      <trkpt lat="41.863074" lon="2.567121">
        <ele>378.808</ele>
        <time>2020-07-26T08:51:12Z</time>
      </trkpt>
      <trkpt lat="41.863152" lon="2.567163">
        <ele>378.227</ele>
        <time>2020-07-26T08:51:13Z</time>
      </trkpt>
      <trkpt lat="41.863176" lon="2.567240">
        <ele>377.425</ele>
        <time>2020-07-26T08:51:14Z</time>
      </trkpt>
      <trkpt lat="41.863145" lon="2.567308">
        <ele>376.998</ele>
        <time>2020-07-26T08:51:15Z</time>
      </trkpt>
      <trkpt lat="41.863083" lon="2.567350">
        <ele>376.423</ele>
        <time>2020-07-26T08:51:16Z</time>
      </trkpt>
      <trkpt lat="41.863001" lon="2.567376">
        <ele>375.851</ele>
        <time>2020-07-26T08:51:17Z</time>
      </trkpt>
      <trkpt lat="41.862914" lon="2.567385">
        <ele>375.384</ele>
        <time>2020-07-26T08:51:18Z</time>
      </trkpt>
      <trkpt lat="41.862830" lon="2.567384">
        <ele>375.148</ele>
        <time>2020-07-26T08:51:19Z</time>
      </trkpt>
      <trkpt lat="41.862748" lon="2.567362">
        <ele>374.934</ele>
        <time>2020-07-26T08:51:20Z</time>
      </trkpt>
      <trkpt lat="41.862672" lon="2.567336">
        <ele>374.722</ele>
        <time>2020-07-26T08:51:21Z</time>
      </trkpt>
      <trkpt lat="41.862594" lon="2.567313">
        <ele>374.362</ele>
        <time>2020-07-26T08:51:22Z</time>
      </trkpt>
      <trkpt lat="41.862519" lon="2.567290">
        <ele>373.908</ele>
        <time>2020-07-26T08:51:23Z</time>
      </trkpt>
      <trkpt lat="41.862448" lon="2.567265">
        <ele>373.708</ele>
        <time>2020-07-26T08:51:24Z</time>
      </trkpt>
      <trkpt lat="41.862372" lon="2.567254">
        <ele>373.537</ele>
        <time>2020-07-26T08:51:25Z</time>
      </trkpt>
      <trkpt lat="41.862234" lon="2.567343">
        <ele>373.055</ele>
        <time>2020-07-26T08:51:27Z</time>
      </trkpt>
      <trkpt lat="41.862180" lon="2.567519">
        <ele>372.938</ele>
        <time>2020-07-26T08:51:29Z</time>
      </trkpt>
      <trkpt lat="41.862198" lon="2.567706">
        <ele>372.963</ele>
        <time>2020-07-26T08:51:31Z</time>
      </trkpt>
      <trkpt lat="41.862275" lon="2.567800">
        <ele>372.151</ele>
        <time>2020-07-26T08:51:32Z</time>
      </trkpt>
      <trkpt lat="41.862360" lon="2.567907">
        <ele>371.824</ele>
        <time>2020-07-26T08:51:33Z</time>
      </trkpt>
      <trkpt lat="41.862433" lon="2.568022">
        <ele>370.988</ele>
        <time>2020-07-26T08:51:34Z</time>
      </trkpt>
      <trkpt lat="41.862496" lon="2.568153">
        <ele>370.154</ele>
        <time>2020-07-26T08:51:35Z</time>
      </trkpt>
      <trkpt lat="41.862542" lon="2.568285">
        <ele>369.711</ele>
        <time>2020-07-26T08:51:36Z</time>
      </trkpt>
      <trkpt lat="41.862554" lon="2.568427">
        <ele>369.221</ele>
        <time>2020-07-26T08:51:37Z</time>
      </trkpt>
      <trkpt lat="41.862515" lon="2.568567">
        <ele>368.503</ele>
        <time>2020-07-26T08:51:38Z</time>
      </trkpt>
      <trkpt lat="41.862449" lon="2.568686">
        <ele>367.408</ele>
        <time>2020-07-26T08:51:39Z</time>
      </trkpt>
      <trkpt lat="41.862372" lon="2.568796">
        <ele>365.846</ele>
        <time>2020-07-26T08:51:40Z</time>
      </trkpt>
      <trkpt lat="41.862303" lon="2.568904">
        <ele>364.684</ele>
        <time>2020-07-26T08:51:41Z</time>
      </trkpt>
      <trkpt lat="41.862263" lon="2.569015">
        <ele>363.967</ele>
        <time>2020-07-26T08:51:42Z</time>
      </trkpt>
      <trkpt lat="41.862321" lon="2.569238">
        <ele>362.392</ele>
        <time>2020-07-26T08:51:44Z</time>
      </trkpt>
      <trkpt lat="41.862390" lon="2.569352">
        <ele>361.480</ele>
        <time>2020-07-26T08:51:45Z</time>
      </trkpt>
      <trkpt lat="41.862426" lon="2.569497">
        <ele>360.653</ele>
        <time>2020-07-26T08:51:46Z</time>
      </trkpt>
      <trkpt lat="41.862473" lon="2.569640">
        <ele>360.057</ele>
        <time>2020-07-26T08:51:47Z</time>
      </trkpt>
      <trkpt lat="41.862536" lon="2.569755">
        <ele>359.313</ele>
        <time>2020-07-26T08:51:48Z</time>
      </trkpt>
      <trkpt lat="41.862616" lon="2.569846">
        <ele>359.124</ele>
        <time>2020-07-26T08:51:49Z</time>
      </trkpt>
      <trkpt lat="41.862698" lon="2.569940">
        <ele>358.104</ele>
        <time>2020-07-26T08:51:50Z</time>
      </trkpt>
      <trkpt lat="41.862729" lon="2.570056">
        <ele>357.314</ele>
        <time>2020-07-26T08:51:51Z</time>
      </trkpt>
      <trkpt lat="41.862714" lon="2.570184">
        <ele>356.808</ele>
        <time>2020-07-26T08:51:52Z</time>
      </trkpt>
      <trkpt lat="41.862682" lon="2.570317">
        <ele>356.287</ele>
        <time>2020-07-26T08:51:53Z</time>
      </trkpt>
      <trkpt lat="41.862654" lon="2.570442">
        <ele>355.835</ele>
        <time>2020-07-26T08:51:54Z</time>
      </trkpt>
      <trkpt lat="41.862633" lon="2.570566">
        <ele>355.888</ele>
        <time>2020-07-26T08:51:55Z</time>
      </trkpt>
      <trkpt lat="41.862606" lon="2.570685">
        <ele>355.313</ele>
        <time>2020-07-26T08:51:56Z</time>
      </trkpt>
      <trkpt lat="41.862539" lon="2.570767">
        <ele>354.921</ele>
        <time>2020-07-26T08:51:57Z</time>
      </trkpt>
      <trkpt lat="41.862442" lon="2.570784">
        <ele>354.344</ele>
        <time>2020-07-26T08:51:58Z</time>
      </trkpt>
      <trkpt lat="41.862348" lon="2.570775">
        <ele>353.328</ele>
        <time>2020-07-26T08:51:59Z</time>
      </trkpt>
      <trkpt lat="41.862262" lon="2.570779">
        <ele>352.924</ele>
        <time>2020-07-26T08:52:00Z</time>
      </trkpt>
      <trkpt lat="41.862188" lon="2.570814">
        <ele>352.726</ele>
        <time>2020-07-26T08:52:01Z</time>
      </trkpt>
      <trkpt lat="41.862141" lon="2.570896">
        <ele>352.347</ele>
        <time>2020-07-26T08:52:02Z</time>
      </trkpt>
      <trkpt lat="41.862134" lon="2.571134">
        <ele>351.911</ele>
        <time>2020-07-26T08:52:04Z</time>
      </trkpt>
      <trkpt lat="41.862150" lon="2.571257">
        <ele>351.408</ele>
        <time>2020-07-26T08:52:05Z</time>
      </trkpt>
      <trkpt lat="41.862208" lon="2.571473">
        <ele>350.387</ele>
        <time>2020-07-26T08:52:07Z</time>
      </trkpt>
      <trkpt lat="41.862277" lon="2.571566">
        <ele>349.725</ele>
        <time>2020-07-26T08:52:08Z</time>
      </trkpt>
      <trkpt lat="41.862368" lon="2.571663">
        <ele>348.748</ele>
        <time>2020-07-26T08:52:09Z</time>
      </trkpt>
      <trkpt lat="41.862441" lon="2.571783">
        <ele>348.213</ele>
        <time>2020-07-26T08:52:10Z</time>
      </trkpt>
      <trkpt lat="41.862498" lon="2.571926">
        <ele>347.661</ele>
        <time>2020-07-26T08:52:11Z</time>
      </trkpt>
      <trkpt lat="41.862545" lon="2.572068">
        <ele>346.954</ele>
        <time>2020-07-26T08:52:12Z</time>
      </trkpt>
      <trkpt lat="41.862580" lon="2.572204">
        <ele>346.078</ele>
        <time>2020-07-26T08:52:13Z</time>
      </trkpt>
      <trkpt lat="41.862594" lon="2.572343">
        <ele>345.434</ele>
        <time>2020-07-26T08:52:14Z</time>
      </trkpt>
      <trkpt lat="41.862568" lon="2.572471">
        <ele>344.635</ele>
        <time>2020-07-26T08:52:15Z</time>
      </trkpt>
      <trkpt lat="41.862499" lon="2.572548">
        <ele>343.686</ele>
        <time>2020-07-26T08:52:16Z</time>
      </trkpt>
      <trkpt lat="41.862406" lon="2.572573">
        <ele>342.314</ele>
        <time>2020-07-26T08:52:17Z</time>
      </trkpt>
      <trkpt lat="41.862308" lon="2.572595">
        <ele>341.308</ele>
        <time>2020-07-26T08:52:18Z</time>
      </trkpt>
      <trkpt lat="41.862229" lon="2.572652">
        <ele>340.598</ele>
        <time>2020-07-26T08:52:19Z</time>
      </trkpt>
      <trkpt lat="41.862202" lon="2.572764">
        <ele>340.046</ele>
        <time>2020-07-26T08:52:20Z</time>
      </trkpt>
      <trkpt lat="41.862207" lon="2.572876">
        <ele>338.869</ele>
        <time>2020-07-26T08:52:21Z</time>
      </trkpt>
      <trkpt lat="41.862265" lon="2.573068">
        <ele>337.014</ele>
        <time>2020-07-26T08:52:23Z</time>
      </trkpt>
      <trkpt lat="41.862340" lon="2.573162">
        <ele>336.292</ele>
        <time>2020-07-26T08:52:24Z</time>
      </trkpt>
      <trkpt lat="41.862414" lon="2.573297">
        <ele>335.675</ele>
        <time>2020-07-26T08:52:25Z</time>
      </trkpt>
      <trkpt lat="41.862449" lon="2.573436">
        <ele>334.839</ele>
        <time>2020-07-26T08:52:26Z</time>
      </trkpt>
      <trkpt lat="41.862449" lon="2.573578">
        <ele>333.975</ele>
        <time>2020-07-26T08:52:27Z</time>
      </trkpt>
      <trkpt lat="41.862417" lon="2.573721">
        <ele>332.998</ele>
        <time>2020-07-26T08:52:28Z</time>
      </trkpt>
      <trkpt lat="41.862378" lon="2.573862">
        <ele>332.015</ele>
        <time>2020-07-26T08:52:29Z</time>
      </trkpt>
      <trkpt lat="41.862341" lon="2.574002">
        <ele>331.326</ele>
        <time>2020-07-26T08:52:30Z</time>
      </trkpt>
      <trkpt lat="41.862307" lon="2.574139">
        <ele>331.008</ele>
        <time>2020-07-26T08:52:31Z</time>
      </trkpt>
      <trkpt lat="41.862252" lon="2.574263">
        <ele>330.464</ele>
        <time>2020-07-26T08:52:32Z</time>
      </trkpt>
      <trkpt lat="41.862162" lon="2.574325">
        <ele>329.522</ele>
        <time>2020-07-26T08:52:33Z</time>
      </trkpt>
      <trkpt lat="41.862059" lon="2.574329">
        <ele>328.555</ele>
        <time>2020-07-26T08:52:34Z</time>
      </trkpt>
      <trkpt lat="41.861966" lon="2.574327">
        <ele>327.680</ele>
        <time>2020-07-26T08:52:35Z</time>
      </trkpt>
      <trkpt lat="41.861893" lon="2.574374">
        <ele>327.048</ele>
        <time>2020-07-26T08:52:36Z</time>
      </trkpt>
      <trkpt lat="41.861850" lon="2.574477">
        <ele>326.161</ele>
        <time>2020-07-26T08:52:37Z</time>
      </trkpt>
      <trkpt lat="41.861823" lon="2.574598">
        <ele>324.985</ele>
        <time>2020-07-26T08:52:38Z</time>
      </trkpt>
      <trkpt lat="41.861816" lon="2.574725">
        <ele>324.091</ele>
        <time>2020-07-26T08:52:39Z</time>
      </trkpt>
      <trkpt lat="41.861821" lon="2.574854">
        <ele>323.419</ele>
        <time>2020-07-26T08:52:40Z</time>
      </trkpt>
      <trkpt lat="41.861837" lon="2.574984">
        <ele>322.709</ele>
        <time>2020-07-26T08:52:41Z</time>
      </trkpt>
      <trkpt lat="41.861870" lon="2.575116">
        <ele>321.819</ele>
        <time>2020-07-26T08:52:42Z</time>
      </trkpt>
      <trkpt lat="41.861906" lon="2.575249">
        <ele>321.308</ele>
        <time>2020-07-26T08:52:43Z</time>
      </trkpt>
      <trkpt lat="41.861951" lon="2.575386">
        <ele>320.836</ele>
        <time>2020-07-26T08:52:44Z</time>
      </trkpt>
      <trkpt lat="41.861985" lon="2.575527">
        <ele>319.984</ele>
        <time>2020-07-26T08:52:45Z</time>
      </trkpt>
      <trkpt lat="41.862014" lon="2.575673">
        <ele>318.947</ele>
        <time>2020-07-26T08:52:46Z</time>
      </trkpt>
      <trkpt lat="41.862048" lon="2.575810">
        <ele>317.732</ele>
        <time>2020-07-26T08:52:47Z</time>
      </trkpt>
      <trkpt lat="41.862100" lon="2.575935">
        <ele>316.840</ele>
        <time>2020-07-26T08:52:48Z</time>
      </trkpt>
      <trkpt lat="41.862170" lon="2.576040">
        <ele>316.043</ele>
        <time>2020-07-26T08:52:49Z</time>
      </trkpt>
      <trkpt lat="41.862246" lon="2.576145">
        <ele>315.457</ele>
        <time>2020-07-26T08:52:50Z</time>
      </trkpt>
      <trkpt lat="41.862339" lon="2.576231">
        <ele>315.473</ele>
        <time>2020-07-26T08:52:51Z</time>
      </trkpt>
      <trkpt lat="41.862441" lon="2.576318">
        <ele>314.856</ele>
        <time>2020-07-26T08:52:52Z</time>
      </trkpt>
      <trkpt lat="41.862519" lon="2.576435">
        <ele>314.259</ele>
        <time>2020-07-26T08:52:53Z</time>
      </trkpt>
      <trkpt lat="41.862568" lon="2.576581">
        <ele>314.014</ele>
        <time>2020-07-26T08:52:54Z</time>
      </trkpt>
      <trkpt lat="41.862603" lon="2.576730">
        <ele>313.508</ele>
        <time>2020-07-26T08:52:55Z</time>
      </trkpt>
      <trkpt lat="41.862628" lon="2.576873">
        <ele>313.270</ele>
        <time>2020-07-26T08:52:56Z</time>
      </trkpt>
      <trkpt lat="41.862644" lon="2.577012">
        <ele>312.388</ele>
        <time>2020-07-26T08:52:57Z</time>
      </trkpt>
      <trkpt lat="41.862661" lon="2.577150">
        <ele>311.261</ele>
        <time>2020-07-26T08:52:58Z</time>
      </trkpt>
      <trkpt lat="41.862678" lon="2.577285">
        <ele>309.946</ele>
        <time>2020-07-26T08:52:59Z</time>
      </trkpt>
      <trkpt lat="41.862698" lon="2.577421">
        <ele>309.194</ele>
        <time>2020-07-26T08:53:00Z</time>
      </trkpt>
      <trkpt lat="41.862727" lon="2.577551">
        <ele>308.757</ele>
        <time>2020-07-26T08:53:01Z</time>
      </trkpt>
      <trkpt lat="41.862773" lon="2.577673">
        <ele>307.991</ele>
        <time>2020-07-26T08:53:02Z</time>
      </trkpt>
      <trkpt lat="41.862837" lon="2.577787">
        <ele>307.577</ele>
        <time>2020-07-26T08:53:03Z</time>
      </trkpt>
      <trkpt lat="41.862907" lon="2.577896">
        <ele>307.348</ele>
        <time>2020-07-26T08:53:04Z</time>
      </trkpt>
      <trkpt lat="41.862980" lon="2.578002">
        <ele>306.861</ele>
        <time>2020-07-26T08:53:05Z</time>
      </trkpt>
      <trkpt lat="41.863055" lon="2.578106">
        <ele>306.317</ele>
        <time>2020-07-26T08:53:06Z</time>
      </trkpt>
      <trkpt lat="41.863130" lon="2.578209">
        <ele>305.808</ele>
        <time>2020-07-26T08:53:07Z</time>
      </trkpt>
      <trkpt lat="41.863202" lon="2.578314">
        <ele>305.019</ele>
        <time>2020-07-26T08:53:08Z</time>
      </trkpt>
      <trkpt lat="41.863274" lon="2.578422">
        <ele>304.467</ele>
        <time>2020-07-26T08:53:09Z</time>
      </trkpt>
      <trkpt lat="41.863347" lon="2.578534">
        <ele>303.890</ele>
        <time>2020-07-26T08:53:10Z</time>
      </trkpt>
      <trkpt lat="41.863425" lon="2.578644">
        <ele>303.225</ele>
        <time>2020-07-26T08:53:11Z</time>
      </trkpt>
      <trkpt lat="41.863508" lon="2.578749">
        <ele>302.563</ele>
        <time>2020-07-26T08:53:12Z</time>
      </trkpt>
      <trkpt lat="41.863582" lon="2.578861">
        <ele>301.766</ele>
        <time>2020-07-26T08:53:13Z</time>
      </trkpt>
      <trkpt lat="41.863653" lon="2.578973">
        <ele>301.540</ele>
        <time>2020-07-26T08:53:14Z</time>
      </trkpt>
      <trkpt lat="41.863719" lon="2.579090">
        <ele>301.256</ele>
        <time>2020-07-26T08:53:15Z</time>
      </trkpt>
      <trkpt lat="41.863787" lon="2.579206">
        <ele>300.696</ele>
        <time>2020-07-26T08:53:16Z</time>
      </trkpt>
      <trkpt lat="41.863856" lon="2.579320">
        <ele>299.931</ele>
        <time>2020-07-26T08:53:17Z</time>
      </trkpt>
      <trkpt lat="41.863928" lon="2.579430">
        <ele>298.924</ele>
        <time>2020-07-26T08:53:18Z</time>
      </trkpt>
      <trkpt lat="41.864007" lon="2.579536">
        <ele>297.908</ele>
        <time>2020-07-26T08:53:19Z</time>
      </trkpt>
      <trkpt lat="41.864096" lon="2.579641">
        <ele>297.014</ele>
        <time>2020-07-26T08:53:20Z</time>
      </trkpt>
      <trkpt lat="41.864183" lon="2.579733">
        <ele>296.382</ele>
        <time>2020-07-26T08:53:21Z</time>
      </trkpt>
      <trkpt lat="41.864255" lon="2.579824">
        <ele>295.565</ele>
        <time>2020-07-26T08:53:22Z</time>
      </trkpt>
      <trkpt lat="41.864329" lon="2.579908">
        <ele>294.960</ele>
        <time>2020-07-26T08:53:23Z</time>
      </trkpt>
      <trkpt lat="41.864382" lon="2.580013">
        <ele>294.038</ele>
        <time>2020-07-26T08:53:24Z</time>
      </trkpt>
      <trkpt lat="41.864432" lon="2.580124">
        <ele>293.451</ele>
        <time>2020-07-26T08:53:25Z</time>
      </trkpt>
      <trkpt lat="41.864442" lon="2.580254">
        <ele>292.635</ele>
        <time>2020-07-26T08:53:26Z</time>
      </trkpt>
      <trkpt lat="41.864370" lon="2.580393">
        <ele>291.921</ele>
        <time>2020-07-26T08:53:27Z</time>
      </trkpt>
      <trkpt lat="41.864264" lon="2.580519">
        <ele>290.983</ele>
        <time>2020-07-26T08:53:28Z</time>
      </trkpt>
      <trkpt lat="41.864185" lon="2.580606">
        <ele>290.125</ele>
        <time>2020-07-26T08:53:29Z</time>
      </trkpt>
      <trkpt lat="41.864100" lon="2.580690">
        <ele>289.617</ele>
        <time>2020-07-26T08:53:30Z</time>
      </trkpt>
      <trkpt lat="41.864006" lon="2.580781">
        <ele>289.108</ele>
        <time>2020-07-26T08:53:31Z</time>
      </trkpt>
      <trkpt lat="41.863924" lon="2.580879">
        <ele>288.793</ele>
        <time>2020-07-26T08:53:32Z</time>
      </trkpt>
      <trkpt lat="41.863857" lon="2.580984">
        <ele>288.261</ele>
        <time>2020-07-26T08:53:33Z</time>
      </trkpt>
      <trkpt lat="41.863792" lon="2.581090">
        <ele>287.624</ele>
        <time>2020-07-26T08:53:34Z</time>
      </trkpt>
      <trkpt lat="41.863747" lon="2.581222">
        <ele>287.079</ele>
        <time>2020-07-26T08:53:35Z</time>
      </trkpt>
      <trkpt lat="41.863711" lon="2.581344">
        <ele>286.497</ele>
        <time>2020-07-26T08:53:36Z</time>
      </trkpt>
      <trkpt lat="41.863693" lon="2.581465">
        <ele>285.870</ele>
        <time>2020-07-26T08:53:37Z</time>
      </trkpt>
      <trkpt lat="41.863720" lon="2.581600">
        <ele>285.354</ele>
        <time>2020-07-26T08:53:38Z</time>
      </trkpt>
      <trkpt lat="41.863752" lon="2.581743">
        <ele>284.930</ele>
        <time>2020-07-26T08:53:39Z</time>
      </trkpt>
      <trkpt lat="41.863786" lon="2.581893">
        <ele>284.589</ele>
        <time>2020-07-26T08:53:40Z</time>
      </trkpt>
      <trkpt lat="41.863815" lon="2.582035">
        <ele>284.206</ele>
        <time>2020-07-26T08:53:41Z</time>
      </trkpt>
      <trkpt lat="41.863851" lon="2.582170">
        <ele>283.626</ele>
        <time>2020-07-26T08:53:42Z</time>
      </trkpt>
      <trkpt lat="41.863885" lon="2.582301">
        <ele>282.908</ele>
        <time>2020-07-26T08:53:43Z</time>
      </trkpt>
      <trkpt lat="41.863914" lon="2.582434">
        <ele>282.473</ele>
        <time>2020-07-26T08:53:44Z</time>
      </trkpt>
      <trkpt lat="41.863936" lon="2.582564">
        <ele>282.041</ele>
        <time>2020-07-26T08:53:45Z</time>
      </trkpt>
      <trkpt lat="41.863953" lon="2.582704">
        <ele>281.834</ele>
        <time>2020-07-26T08:53:46Z</time>
      </trkpt>
      <trkpt lat="41.863970" lon="2.582867">
        <ele>281.369</ele>
        <time>2020-07-26T08:53:47Z</time>
      </trkpt>
      <trkpt lat="41.863984" lon="2.583026">
        <ele>281.077</ele>
        <time>2020-07-26T08:53:48Z</time>
      </trkpt>
      <trkpt lat="41.863996" lon="2.583181">
        <ele>280.980</ele>
        <time>2020-07-26T08:53:49Z</time>
      </trkpt>
      <trkpt lat="41.864011" lon="2.583323">
        <ele>280.724</ele>
        <time>2020-07-26T08:53:50Z</time>
      </trkpt>
      <trkpt lat="41.864038" lon="2.583460">
        <ele>280.260</ele>
        <time>2020-07-26T08:53:51Z</time>
      </trkpt>
      <trkpt lat="41.864075" lon="2.583593">
        <ele>279.694</ele>
        <time>2020-07-26T08:53:52Z</time>
      </trkpt>
      <trkpt lat="41.864121" lon="2.583718">
        <ele>278.757</ele>
        <time>2020-07-26T08:53:53Z</time>
      </trkpt>
      <trkpt lat="41.864172" lon="2.583839">
        <ele>277.922</ele>
        <time>2020-07-26T08:53:54Z</time>
      </trkpt>
      <trkpt lat="41.864224" lon="2.583957">
        <ele>277.508</ele>
        <time>2020-07-26T08:53:55Z</time>
      </trkpt>
      <trkpt lat="41.864278" lon="2.584074">
        <ele>277.434</ele>
        <time>2020-07-26T08:53:56Z</time>
      </trkpt>
      <trkpt lat="41.864330" lon="2.584188">
        <ele>277.642</ele>
        <time>2020-07-26T08:53:57Z</time>
      </trkpt>
      <trkpt lat="41.864377" lon="2.584304">
        <ele>277.735</ele>
        <time>2020-07-26T08:53:58Z</time>
      </trkpt>
      <trkpt lat="41.864417" lon="2.584420">
        <ele>277.370</ele>
        <time>2020-07-26T08:53:59Z</time>
      </trkpt>
      <trkpt lat="41.864439" lon="2.584657">
        <ele>276.998</ele>
        <time>2020-07-26T08:54:01Z</time>
      </trkpt>
      <trkpt lat="41.864406" lon="2.584890">
        <ele>276.671</ele>
        <time>2020-07-26T08:54:03Z</time>
      </trkpt>
      <trkpt lat="41.864370" lon="2.585128">
        <ele>276.885</ele>
        <time>2020-07-26T08:54:05Z</time>
      </trkpt>
      <trkpt lat="41.864365" lon="2.585254">
        <ele>277.051</ele>
        <time>2020-07-26T08:54:06Z</time>
      </trkpt>
      <trkpt lat="41.864363" lon="2.585375">
        <ele>277.097</ele>
        <time>2020-07-26T08:54:07Z</time>
      </trkpt>
      <trkpt lat="41.864371" lon="2.585616">
        <ele>277.323</ele>
        <time>2020-07-26T08:54:09Z</time>
      </trkpt>
      <trkpt lat="41.864381" lon="2.585852">
        <ele>277.225</ele>
        <time>2020-07-26T08:54:11Z</time>
      </trkpt>
      <trkpt lat="41.864384" lon="2.586088">
        <ele>277.208</ele>
        <time>2020-07-26T08:54:13Z</time>
      </trkpt>
      <trkpt lat="41.864399" lon="2.586325">
        <ele>276.824</ele>
        <time>2020-07-26T08:54:15Z</time>
      </trkpt>
      <trkpt lat="41.864406" lon="2.586449">
        <ele>276.322</ele>
        <time>2020-07-26T08:54:16Z</time>
      </trkpt>
      <trkpt lat="41.864412" lon="2.586574">
        <ele>275.945</ele>
        <time>2020-07-26T08:54:17Z</time>
      </trkpt>
      <trkpt lat="41.864410" lon="2.586701">
        <ele>275.710</ele>
        <time>2020-07-26T08:54:18Z</time>
      </trkpt>
      <trkpt lat="41.864409" lon="2.586826">
        <ele>275.758</ele>
        <time>2020-07-26T08:54:19Z</time>
      </trkpt>
      <trkpt lat="41.864417" lon="2.586948">
        <ele>275.341</ele>
        <time>2020-07-26T08:54:20Z</time>
      </trkpt>
      <trkpt lat="41.864425" lon="2.587072">
        <ele>274.935</ele>
        <time>2020-07-26T08:54:21Z</time>
      </trkpt>
      <trkpt lat="41.864435" lon="2.587193">
        <ele>274.721</ele>
        <time>2020-07-26T08:54:22Z</time>
      </trkpt>
      <trkpt lat="41.864445" lon="2.587316">
        <ele>274.569</ele>
        <time>2020-07-26T08:54:23Z</time>
      </trkpt>
      <trkpt lat="41.864452" lon="2.587439">
        <ele>274.004</ele>
        <time>2020-07-26T08:54:24Z</time>
      </trkpt>
      <trkpt lat="41.864458" lon="2.587561">
        <ele>273.424</ele>
        <time>2020-07-26T08:54:25Z</time>
      </trkpt>
      <trkpt lat="41.864458" lon="2.587683">
        <ele>272.608</ele>
        <time>2020-07-26T08:54:26Z</time>
      </trkpt>
      <trkpt lat="41.864441" lon="2.587800">
        <ele>271.821</ele>
        <time>2020-07-26T08:54:27Z</time>
      </trkpt>
      <trkpt lat="41.864385" lon="2.587910">
        <ele>271.029</ele>
        <time>2020-07-26T08:54:28Z</time>
      </trkpt>
      <trkpt lat="41.864304" lon="2.587984">
        <ele>270.562</ele>
        <time>2020-07-26T08:54:29Z</time>
      </trkpt>
      <trkpt lat="41.864210" lon="2.588028">
        <ele>270.037</ele>
        <time>2020-07-26T08:54:30Z</time>
      </trkpt>
      <trkpt lat="41.864114" lon="2.588057">
        <ele>269.435</ele>
        <time>2020-07-26T08:54:31Z</time>
      </trkpt>
      <trkpt lat="41.864020" lon="2.588092">
        <ele>268.858</ele>
        <time>2020-07-26T08:54:32Z</time>
      </trkpt>
      <trkpt lat="41.863931" lon="2.588135">
        <ele>268.282</ele>
        <time>2020-07-26T08:54:33Z</time>
      </trkpt>
      <trkpt lat="41.863850" lon="2.588191">
        <ele>268.138</ele>
        <time>2020-07-26T08:54:34Z</time>
      </trkpt>
      <trkpt lat="41.863774" lon="2.588264">
        <ele>267.824</ele>
        <time>2020-07-26T08:54:35Z</time>
      </trkpt>
      <trkpt lat="41.863643" lon="2.588418">
        <ele>267.704</ele>
        <time>2020-07-26T08:54:37Z</time>
      </trkpt>
      <trkpt lat="41.863523" lon="2.588562">
        <ele>267.814</ele>
        <time>2020-07-26T08:54:39Z</time>
      </trkpt>
      <trkpt lat="41.863429" lon="2.588683">
        <ele>268.308</ele>
        <time>2020-07-26T08:54:41Z</time>
      </trkpt>
      <trkpt lat="41.863325" lon="2.588797">
        <ele>267.777</ele>
        <time>2020-07-26T08:54:43Z</time>
      </trkpt>
      <trkpt lat="41.863204" lon="2.588879">
        <ele>267.615</ele>
        <time>2020-07-26T08:54:45Z</time>
      </trkpt>
      <trkpt lat="41.863100" lon="2.588978">
        <ele>267.878</ele>
        <time>2020-07-26T08:54:47Z</time>
      </trkpt>
      <trkpt lat="41.863002" lon="2.589083">
        <ele>268.043</ele>
        <time>2020-07-26T08:54:49Z</time>
      </trkpt>
      <trkpt lat="41.862914" lon="2.589195">
        <ele>268.491</ele>
        <time>2020-07-26T08:54:51Z</time>
      </trkpt>
      <trkpt lat="41.862836" lon="2.589318">
        <ele>269.024</ele>
        <time>2020-07-26T08:54:53Z</time>
      </trkpt>
      <trkpt lat="41.862798" lon="2.589381">
        <ele>269.068</ele>
        <time>2020-07-26T08:54:54Z</time>
      </trkpt>
      <trkpt lat="41.862763" lon="2.589443">
        <ele>269.254</ele>
        <time>2020-07-26T08:54:55Z</time>
      </trkpt>
      <trkpt lat="41.862733" lon="2.589508">
        <ele>269.694</ele>
        <time>2020-07-26T08:54:56Z</time>
      </trkpt>
      <trkpt lat="41.862705" lon="2.589575">
        <ele>269.657</ele>
        <time>2020-07-26T08:54:57Z</time>
      </trkpt>
      <trkpt lat="41.862682" lon="2.589645">
        <ele>269.722</ele>
        <time>2020-07-26T08:54:58Z</time>
      </trkpt>
      <trkpt lat="41.862667" lon="2.589720">
        <ele>269.708</ele>
        <time>2020-07-26T08:54:59Z</time>
      </trkpt>
      <trkpt lat="41.862661" lon="2.589802">
        <ele>269.384</ele>
        <time>2020-07-26T08:55:00Z</time>
      </trkpt>
      <trkpt lat="41.862662" lon="2.589888">
        <ele>269.152</ele>
        <time>2020-07-26T08:55:01Z</time>
      </trkpt>
      <trkpt lat="41.862670" lon="2.589975">
        <ele>268.995</ele>
        <time>2020-07-26T08:55:02Z</time>
      </trkpt>
      <trkpt lat="41.862687" lon="2.590062">
        <ele>268.760</ele>
        <time>2020-07-26T08:55:03Z</time>
      </trkpt>
      <trkpt lat="41.862712" lon="2.590151">
        <ele>268.378</ele>
        <time>2020-07-26T08:55:04Z</time>
      </trkpt>
      <trkpt lat="41.862740" lon="2.590240">
        <ele>268.291</ele>
        <time>2020-07-26T08:55:05Z</time>
      </trkpt>
      <trkpt lat="41.862769" lon="2.590332">
        <ele>268.125</ele>
        <time>2020-07-26T08:55:06Z</time>
      </trkpt>
      <trkpt lat="41.862800" lon="2.590428">
        <ele>267.951</ele>
        <time>2020-07-26T08:55:07Z</time>
      </trkpt>
      <trkpt lat="41.862830" lon="2.590527">
        <ele>267.586</ele>
        <time>2020-07-26T08:55:08Z</time>
      </trkpt>
      <trkpt lat="41.862860" lon="2.590628">
        <ele>267.360</ele>
        <time>2020-07-26T08:55:09Z</time>
      </trkpt>
      <trkpt lat="41.862887" lon="2.590732">
        <ele>266.926</ele>
        <time>2020-07-26T08:55:10Z</time>
      </trkpt>
      <trkpt lat="41.862911" lon="2.590835">
        <ele>266.508</ele>
        <time>2020-07-26T08:55:11Z</time>
      </trkpt>
      <trkpt lat="41.862935" lon="2.590939">
        <ele>266.393</ele>
        <time>2020-07-26T08:55:12Z</time>
      </trkpt>
      <trkpt lat="41.862956" lon="2.591042">
        <ele>266.191</ele>
        <time>2020-07-26T08:55:13Z</time>
      </trkpt>
      <trkpt lat="41.862970" lon="2.591142">
        <ele>265.914</ele>
        <time>2020-07-26T08:55:14Z</time>
      </trkpt>
      <trkpt lat="41.862976" lon="2.591238">
        <ele>265.659</ele>
        <time>2020-07-26T08:55:15Z</time>
      </trkpt>
      <trkpt lat="41.862978" lon="2.591327">
        <ele>265.577</ele>
        <time>2020-07-26T08:55:16Z</time>
      </trkpt>
      <trkpt lat="41.862964" lon="2.591485">
        <ele>265.730</ele>
        <time>2020-07-26T08:55:18Z</time>
      </trkpt>
      <trkpt lat="41.862936" lon="2.591670">
        <ele>265.354</ele>
        <time>2020-07-26T08:55:20Z</time>
      </trkpt>
      <trkpt lat="41.862874" lon="2.591847">
        <ele>265.160</ele>
        <time>2020-07-26T08:55:22Z</time>
      </trkpt>
      <trkpt lat="41.862828" lon="2.591923">
        <ele>264.844</ele>
        <time>2020-07-26T08:55:23Z</time>
      </trkpt>
      <trkpt lat="41.862782" lon="2.591994">
        <ele>264.305</ele>
        <time>2020-07-26T08:55:24Z</time>
      </trkpt>
      <trkpt lat="41.862744" lon="2.592076">
        <ele>264.215</ele>
        <time>2020-07-26T08:55:25Z</time>
      </trkpt>
      <trkpt lat="41.862712" lon="2.592161">
        <ele>264.308</ele>
        <time>2020-07-26T08:55:26Z</time>
      </trkpt>
      <trkpt lat="41.862700" lon="2.592249">
        <ele>264.369</ele>
        <time>2020-07-26T08:55:27Z</time>
      </trkpt>
      <trkpt lat="41.862714" lon="2.592334">
        <ele>264.187</ele>
        <time>2020-07-26T08:55:28Z</time>
      </trkpt>
      <trkpt lat="41.862803" lon="2.592477">
        <ele>263.710</ele>
        <time>2020-07-26T08:55:30Z</time>
      </trkpt>
      <trkpt lat="41.862930" lon="2.592602">
        <ele>262.825</ele>
        <time>2020-07-26T08:55:32Z</time>
      </trkpt>
      <trkpt lat="41.863064" lon="2.592740">
        <ele>261.883</ele>
        <time>2020-07-26T08:55:34Z</time>
      </trkpt>
      <trkpt lat="41.863212" lon="2.592870">
        <ele>260.946</ele>
        <time>2020-07-26T08:55:36Z</time>
      </trkpt>
      <trkpt lat="41.863290" lon="2.592936">
        <ele>260.550</ele>
        <time>2020-07-26T08:55:37Z</time>
      </trkpt>
      <trkpt lat="41.863453" lon="2.593038">
        <ele>259.766</ele>
        <time>2020-07-26T08:55:39Z</time>
      </trkpt>
      <trkpt lat="41.863533" lon="2.593094">
        <ele>259.357</ele>
        <time>2020-07-26T08:55:40Z</time>
      </trkpt>
      <trkpt lat="41.863625" lon="2.593155">
        <ele>258.800</ele>
        <time>2020-07-26T08:55:41Z</time>
      </trkpt>
      <trkpt lat="41.863697" lon="2.593229">
        <ele>258.320</ele>
        <time>2020-07-26T08:55:42Z</time>
      </trkpt>
      <trkpt lat="41.863776" lon="2.593290">
        <ele>257.908</ele>
        <time>2020-07-26T08:55:43Z</time>
      </trkpt>
      <trkpt lat="41.863863" lon="2.593340">
        <ele>257.640</ele>
        <time>2020-07-26T08:55:44Z</time>
      </trkpt>
      <trkpt lat="41.863956" lon="2.593382">
        <ele>257.148</ele>
        <time>2020-07-26T08:55:45Z</time>
      </trkpt>
      <trkpt lat="41.864047" lon="2.593422">
        <ele>256.831</ele>
        <time>2020-07-26T08:55:46Z</time>
      </trkpt>
      <trkpt lat="41.864151" lon="2.593450">
        <ele>256.396</ele>
        <time>2020-07-26T08:55:47Z</time>
      </trkpt>
      <trkpt lat="41.864247" lon="2.593480">
        <ele>255.944</ele>
        <time>2020-07-26T08:55:48Z</time>
      </trkpt>
      <trkpt lat="41.864348" lon="2.593496">
        <ele>255.777</ele>
        <time>2020-07-26T08:55:49Z</time>
      </trkpt>
      <trkpt lat="41.864449" lon="2.593502">
        <ele>255.331</ele>
        <time>2020-07-26T08:55:50Z</time>
      </trkpt>
      <trkpt lat="41.864550" lon="2.593494">
        <ele>254.937</ele>
        <time>2020-07-26T08:55:51Z</time>
      </trkpt>
      <trkpt lat="41.864645" lon="2.593480">
        <ele>254.661</ele>
        <time>2020-07-26T08:55:52Z</time>
      </trkpt>
      <trkpt lat="41.864734" lon="2.593459">
        <ele>254.021</ele>
        <time>2020-07-26T08:55:53Z</time>
      </trkpt>
      <trkpt lat="41.864822" lon="2.593423">
        <ele>253.313</ele>
        <time>2020-07-26T08:55:54Z</time>
      </trkpt>
      <trkpt lat="41.864913" lon="2.593381">
        <ele>252.908</ele>
        <time>2020-07-26T08:55:55Z</time>
      </trkpt>
      <trkpt lat="41.864999" lon="2.593333">
        <ele>252.181</ele>
        <time>2020-07-26T08:55:56Z</time>
      </trkpt>
      <trkpt lat="41.865083" lon="2.593278">
        <ele>250.479</ele>
        <time>2020-07-26T08:55:57Z</time>
      </trkpt>
      <trkpt lat="41.865171" lon="2.593220">
        <ele>249.962</ele>
        <time>2020-07-26T08:55:58Z</time>
      </trkpt>
      <trkpt lat="41.865260" lon="2.593150">
        <ele>249.417</ele>
        <time>2020-07-26T08:55:59Z</time>
      </trkpt>
      <trkpt lat="41.865345" lon="2.593084">
        <ele>248.745</ele>
        <time>2020-07-26T08:56:00Z</time>
      </trkpt>
      <trkpt lat="41.865438" lon="2.593014">
        <ele>248.538</ele>
        <time>2020-07-26T08:56:01Z</time>
      </trkpt>
      <trkpt lat="41.865533" lon="2.592943">
        <ele>248.362</ele>
        <time>2020-07-26T08:56:02Z</time>
      </trkpt>
      <trkpt lat="41.865626" lon="2.592866">
        <ele>248.178</ele>
        <time>2020-07-26T08:56:03Z</time>
      </trkpt>
      <trkpt lat="41.865696" lon="2.592763">
        <ele>247.954</ele>
        <time>2020-07-26T08:56:04Z</time>
      </trkpt>
      <trkpt lat="41.865749" lon="2.592609">
        <ele>247.756</ele>
        <time>2020-07-26T08:56:05Z</time>
      </trkpt>
      <trkpt lat="41.865812" lon="2.592470">
        <ele>247.211</ele>
        <time>2020-07-26T08:56:06Z</time>
      </trkpt>
      <trkpt lat="41.865873" lon="2.592343">
        <ele>246.508</ele>
        <time>2020-07-26T08:56:07Z</time>
      </trkpt>
      <trkpt lat="41.865953" lon="2.592250">
        <ele>246.290</ele>
        <time>2020-07-26T08:56:08Z</time>
      </trkpt>
      <trkpt lat="41.866105" lon="2.592252">
        <ele>244.758</ele>
        <time>2020-07-26T08:56:10Z</time>
      </trkpt>
      <trkpt lat="41.866164" lon="2.592453">
        <ele>243.051</ele>
        <time>2020-07-26T08:56:12Z</time>
      </trkpt>
      <trkpt lat="41.866185" lon="2.592677">
        <ele>241.816</ele>
        <time>2020-07-26T08:56:14Z</time>
      </trkpt>
      <trkpt lat="41.866256" lon="2.592900">
        <ele>241.014</ele>
        <time>2020-07-26T08:56:16Z</time>
      </trkpt>
      <trkpt lat="41.866335" lon="2.593017">
        <ele>240.447</ele>
        <time>2020-07-26T08:56:17Z</time>
      </trkpt>
      <trkpt lat="41.866417" lon="2.593108">
        <ele>239.821</ele>
        <time>2020-07-26T08:56:18Z</time>
      </trkpt>
      <trkpt lat="41.866500" lon="2.593194">
        <ele>239.217</ele>
        <time>2020-07-26T08:56:19Z</time>
      </trkpt>
      <trkpt lat="41.866561" lon="2.593291">
        <ele>238.641</ele>
        <time>2020-07-26T08:56:20Z</time>
      </trkpt>
      <trkpt lat="41.866643" lon="2.593378">
        <ele>238.181</ele>
        <time>2020-07-26T08:56:21Z</time>
      </trkpt>
      <trkpt lat="41.866728" lon="2.593467">
        <ele>237.909</ele>
        <time>2020-07-26T08:56:22Z</time>
      </trkpt>
      <trkpt lat="41.866977" lon="2.593700">
        <ele>237.608</ele>
        <time>2020-07-26T08:56:26Z</time>
      </trkpt>
      <trkpt lat="41.867041" lon="2.593814">
        <ele>237.899</ele>
        <time>2020-07-26T08:56:28Z</time>
      </trkpt>
      <trkpt lat="41.867132" lon="2.593914">
        <ele>238.417</ele>
        <time>2020-07-26T08:56:30Z</time>
      </trkpt>
      <trkpt lat="41.867224" lon="2.594038">
        <ele>239.060</ele>
        <time>2020-07-26T08:56:32Z</time>
      </trkpt>
      <trkpt lat="41.867331" lon="2.594129">
        <ele>239.675</ele>
        <time>2020-07-26T08:56:34Z</time>
      </trkpt>
      <trkpt lat="41.867398" lon="2.594270">
        <ele>240.073</ele>
        <time>2020-07-26T08:56:36Z</time>
      </trkpt>
      <trkpt lat="41.867466" lon="2.594407">
        <ele>240.696</ele>
        <time>2020-07-26T08:56:38Z</time>
      </trkpt>
      <trkpt lat="41.867542" lon="2.594544">
        <ele>241.030</ele>
        <time>2020-07-26T08:56:40Z</time>
      </trkpt>
      <trkpt lat="41.867615" lon="2.594669">
        <ele>241.316</ele>
        <time>2020-07-26T08:56:42Z</time>
      </trkpt>
      <trkpt lat="41.867692" lon="2.594785">
        <ele>241.859</ele>
        <time>2020-07-26T08:56:44Z</time>
      </trkpt>
      <trkpt lat="41.867779" lon="2.594888">
        <ele>241.803</ele>
        <time>2020-07-26T08:56:46Z</time>
      </trkpt>
      <trkpt lat="41.867827" lon="2.594931">
        <ele>242.023</ele>
        <time>2020-07-26T08:56:47Z</time>
      </trkpt>
      <trkpt lat="41.867882" lon="2.594965">
        <ele>242.108</ele>
        <time>2020-07-26T08:56:48Z</time>
      </trkpt>
      <trkpt lat="41.867938" lon="2.594993">
        <ele>242.270</ele>
        <time>2020-07-26T08:56:49Z</time>
      </trkpt>
      <trkpt lat="41.867993" lon="2.595017">
        <ele>242.418</ele>
        <time>2020-07-26T08:56:50Z</time>
      </trkpt>
      <trkpt lat="41.868052" lon="2.595039">
        <ele>242.761</ele>
        <time>2020-07-26T08:56:51Z</time>
      </trkpt>
      <trkpt lat="41.868112" lon="2.595058">
        <ele>242.626</ele>
        <time>2020-07-26T08:56:52Z</time>
      </trkpt>
      <trkpt lat="41.868170" lon="2.595070">
        <ele>242.844</ele>
        <time>2020-07-26T08:56:53Z</time>
      </trkpt>
      <trkpt lat="41.868224" lon="2.595079">
        <ele>243.087</ele>
        <time>2020-07-26T08:56:54Z</time>
      </trkpt>
      <trkpt lat="41.868280" lon="2.595082">
        <ele>243.461</ele>
        <time>2020-07-26T08:56:55Z</time>
      </trkpt>
      <trkpt lat="41.868335" lon="2.595081">
        <ele>243.647</ele>
        <time>2020-07-26T08:56:56Z</time>
      </trkpt>
      <trkpt lat="41.868389" lon="2.595075">
        <ele>243.657</ele>
        <time>2020-07-26T08:56:57Z</time>
      </trkpt>
      <trkpt lat="41.868442" lon="2.595064">
        <ele>243.800</ele>
        <time>2020-07-26T08:56:58Z</time>
      </trkpt>
      <trkpt lat="41.868495" lon="2.595052">
        <ele>243.820</ele>
        <time>2020-07-26T08:56:59Z</time>
      </trkpt>
      <trkpt lat="41.868547" lon="2.595037">
        <ele>244.008</ele>
        <time>2020-07-26T08:57:00Z</time>
      </trkpt>
      <trkpt lat="41.868596" lon="2.595021">
        <ele>244.240</ele>
        <time>2020-07-26T08:57:01Z</time>
      </trkpt>
      <trkpt lat="41.868645" lon="2.595005">
        <ele>244.428</ele>
        <time>2020-07-26T08:57:02Z</time>
      </trkpt>
      <trkpt lat="41.868692" lon="2.594990">
        <ele>244.611</ele>
        <time>2020-07-26T08:57:03Z</time>
      </trkpt>
      <trkpt lat="41.868738" lon="2.594973">
        <ele>244.646</ele>
        <time>2020-07-26T08:57:04Z</time>
      </trkpt>
      <trkpt lat="41.868784" lon="2.594957">
        <ele>244.864</ele>
        <time>2020-07-26T08:57:05Z</time>
      </trkpt>
      <trkpt lat="41.868830" lon="2.594942">
        <ele>244.827</ele>
        <time>2020-07-26T08:57:06Z</time>
      </trkpt>
      <trkpt lat="41.868876" lon="2.594928">
        <ele>245.011</ele>
        <time>2020-07-26T08:57:07Z</time>
      </trkpt>
      <trkpt lat="41.868923" lon="2.594916">
        <ele>245.287</ele>
        <time>2020-07-26T08:57:08Z</time>
      </trkpt>
      <trkpt lat="41.868968" lon="2.594904">
        <ele>245.425</ele>
        <time>2020-07-26T08:57:09Z</time>
      </trkpt>
      <trkpt lat="41.869013" lon="2.594892">
        <ele>245.626</ele>
        <time>2020-07-26T08:57:10Z</time>
      </trkpt>
      <trkpt lat="41.869058" lon="2.594881">
        <ele>246.008</ele>
        <time>2020-07-26T08:57:11Z</time>
      </trkpt>
      <trkpt lat="41.869105" lon="2.594869">
        <ele>246.108</ele>
        <time>2020-07-26T08:57:12Z</time>
      </trkpt>
      <trkpt lat="41.869152" lon="2.594859">
        <ele>246.267</ele>
        <time>2020-07-26T08:57:13Z</time>
      </trkpt>
      <trkpt lat="41.869200" lon="2.594851">
        <ele>246.465</ele>
        <time>2020-07-26T08:57:14Z</time>
      </trkpt>
      <trkpt lat="41.869248" lon="2.594844">
        <ele>246.678</ele>
        <time>2020-07-26T08:57:15Z</time>
      </trkpt>
      <trkpt lat="41.869295" lon="2.594838">
        <ele>246.653</ele>
        <time>2020-07-26T08:57:16Z</time>
      </trkpt>
      <trkpt lat="41.869342" lon="2.594834">
        <ele>246.891</ele>
        <time>2020-07-26T08:57:17Z</time>
      </trkpt>
      <trkpt lat="41.869390" lon="2.594828">
        <ele>247.024</ele>
        <time>2020-07-26T08:57:18Z</time>
      </trkpt>
      <trkpt lat="41.869435" lon="2.594825">
        <ele>247.258</ele>
        <time>2020-07-26T08:57:19Z</time>
      </trkpt>
      <trkpt lat="41.869481" lon="2.594821">
        <ele>247.454</ele>
        <time>2020-07-26T08:57:20Z</time>
      </trkpt>
      <trkpt lat="41.869528" lon="2.594817">
        <ele>247.643</ele>
        <time>2020-07-26T08:57:21Z</time>
      </trkpt>
      <trkpt lat="41.869575" lon="2.594813">
        <ele>247.864</ele>
        <time>2020-07-26T08:57:22Z</time>
      </trkpt>
      <trkpt lat="41.869621" lon="2.594810">
        <ele>248.010</ele>
        <time>2020-07-26T08:57:23Z</time>
      </trkpt>
      <trkpt lat="41.869667" lon="2.594806">
        <ele>248.208</ele>
        <time>2020-07-26T08:57:24Z</time>
      </trkpt>
      <trkpt lat="41.869713" lon="2.594800">
        <ele>248.329</ele>
        <time>2020-07-26T08:57:25Z</time>
      </trkpt>
      <trkpt lat="41.869758" lon="2.594793">
        <ele>248.487</ele>
        <time>2020-07-26T08:57:26Z</time>
      </trkpt>
      <trkpt lat="41.869804" lon="2.594785">
        <ele>248.610</ele>
        <time>2020-07-26T08:57:27Z</time>
      </trkpt>
      <trkpt lat="41.869847" lon="2.594777">
        <ele>248.615</ele>
        <time>2020-07-26T08:57:28Z</time>
      </trkpt>
      <trkpt lat="41.869890" lon="2.594769">
        <ele>248.843</ele>
        <time>2020-07-26T08:57:29Z</time>
      </trkpt>
      <trkpt lat="41.869935" lon="2.594753">
        <ele>248.836</ele>
        <time>2020-07-26T08:57:30Z</time>
      </trkpt>
      <trkpt lat="41.869977" lon="2.594732">
        <ele>249.060</ele>
        <time>2020-07-26T08:57:31Z</time>
      </trkpt>
      <trkpt lat="41.870023" lon="2.594714">
        <ele>249.046</ele>
        <time>2020-07-26T08:57:32Z</time>
      </trkpt>
      <trkpt lat="41.870067" lon="2.594695">
        <ele>249.255</ele>
        <time>2020-07-26T08:57:33Z</time>
      </trkpt>
      <trkpt lat="41.870113" lon="2.594667">
        <ele>249.707</ele>
        <time>2020-07-26T08:57:34Z</time>
      </trkpt>
      <trkpt lat="41.870156" lon="2.594640">
        <ele>250.117</ele>
        <time>2020-07-26T08:57:35Z</time>
      </trkpt>
      <trkpt lat="41.870201" lon="2.594618">
        <ele>250.108</ele>
        <time>2020-07-26T08:57:36Z</time>
      </trkpt>
      <trkpt lat="41.870245" lon="2.594596">
        <ele>249.980</ele>
        <time>2020-07-26T08:57:37Z</time>
      </trkpt>
      <trkpt lat="41.870285" lon="2.594567">
        <ele>249.788</ele>
        <time>2020-07-26T08:57:38Z</time>
      </trkpt>
      <trkpt lat="41.870331" lon="2.594542">
        <ele>249.671</ele>
        <time>2020-07-26T08:57:39Z</time>
      </trkpt>
      <trkpt lat="41.870378" lon="2.594520">
        <ele>249.636</ele>
        <time>2020-07-26T08:57:40Z</time>
      </trkpt>
      <trkpt lat="41.870428" lon="2.594499">
        <ele>249.764</ele>
        <time>2020-07-26T08:57:41Z</time>
      </trkpt>
      <trkpt lat="41.870480" lon="2.594482">
        <ele>249.417</ele>
        <time>2020-07-26T08:57:42Z</time>
      </trkpt>
      <trkpt lat="41.870535" lon="2.594466">
        <ele>248.941</ele>
        <time>2020-07-26T08:57:43Z</time>
      </trkpt>
      <trkpt lat="41.870587" lon="2.594453">
        <ele>248.667</ele>
        <time>2020-07-26T08:57:44Z</time>
      </trkpt>
      <trkpt lat="41.870643" lon="2.594442">
        <ele>248.661</ele>
        <time>2020-07-26T08:57:45Z</time>
      </trkpt>
      <trkpt lat="41.870706" lon="2.594439">
        <ele>248.821</ele>
        <time>2020-07-26T08:57:46Z</time>
      </trkpt>
      <trkpt lat="41.870771" lon="2.594443">
        <ele>248.313</ele>
        <time>2020-07-26T08:57:47Z</time>
      </trkpt>
      <trkpt lat="41.870899" lon="2.594435">
        <ele>247.708</ele>
        <time>2020-07-26T08:57:49Z</time>
      </trkpt>
      <trkpt lat="41.871034" lon="2.594390">
        <ele>247.171</ele>
        <time>2020-07-26T08:57:51Z</time>
      </trkpt>
      <trkpt lat="41.871165" lon="2.594393">
        <ele>246.729</ele>
        <time>2020-07-26T08:57:53Z</time>
      </trkpt>
      <trkpt lat="41.871309" lon="2.594491">
        <ele>246.182</ele>
        <time>2020-07-26T08:57:55Z</time>
      </trkpt>
      <trkpt lat="41.871373" lon="2.594555">
        <ele>246.037</ele>
        <time>2020-07-26T08:57:56Z</time>
      </trkpt>
      <trkpt lat="41.871432" lon="2.594626">
        <ele>245.935</ele>
        <time>2020-07-26T08:57:57Z</time>
      </trkpt>
      <trkpt lat="41.871489" lon="2.594700">
        <ele>245.598</ele>
        <time>2020-07-26T08:57:58Z</time>
      </trkpt>
      <trkpt lat="41.871545" lon="2.594778">
        <ele>245.312</ele>
        <time>2020-07-26T08:57:59Z</time>
      </trkpt>
      <trkpt lat="41.871597" lon="2.594859">
        <ele>244.978</ele>
        <time>2020-07-26T08:58:00Z</time>
      </trkpt>
      <trkpt lat="41.871645" lon="2.594942">
        <ele>244.762</ele>
        <time>2020-07-26T08:58:01Z</time>
      </trkpt>
      <trkpt lat="41.871690" lon="2.595029">
        <ele>244.683</ele>
        <time>2020-07-26T08:58:02Z</time>
      </trkpt>
      <trkpt lat="41.871732" lon="2.595113">
        <ele>244.511</ele>
        <time>2020-07-26T08:58:03Z</time>
      </trkpt>
      <trkpt lat="41.871773" lon="2.595198">
        <ele>244.308</ele>
        <time>2020-07-26T08:58:04Z</time>
      </trkpt>
      <trkpt lat="41.871814" lon="2.595281">
        <ele>244.121</ele>
        <time>2020-07-26T08:58:05Z</time>
      </trkpt>
      <trkpt lat="41.871852" lon="2.595364">
        <ele>244.079</ele>
        <time>2020-07-26T08:58:06Z</time>
      </trkpt>
      <trkpt lat="41.871887" lon="2.595444">
        <ele>244.322</ele>
        <time>2020-07-26T08:58:07Z</time>
      </trkpt>
      <trkpt lat="41.871923" lon="2.595526">
        <ele>243.947</ele>
        <time>2020-07-26T08:58:08Z</time>
      </trkpt>
      <trkpt lat="41.871955" lon="2.595606">
        <ele>243.875</ele>
        <time>2020-07-26T08:58:09Z</time>
      </trkpt>
      <trkpt lat="41.871987" lon="2.595681">
        <ele>244.198</ele>
        <time>2020-07-26T08:58:10Z</time>
      </trkpt>
      <trkpt lat="41.872018" lon="2.595751">
        <ele>244.022</ele>
        <time>2020-07-26T08:58:11Z</time>
      </trkpt>
      <trkpt lat="41.872055" lon="2.595826">
        <ele>244.298</ele>
        <time>2020-07-26T08:58:12Z</time>
      </trkpt>
      <trkpt lat="41.872096" lon="2.595903">
        <ele>243.568</ele>
        <time>2020-07-26T08:58:13Z</time>
      </trkpt>
      <trkpt lat="41.872135" lon="2.595984">
        <ele>243.042</ele>
        <time>2020-07-26T08:58:14Z</time>
      </trkpt>
      <trkpt lat="41.872180" lon="2.596057">
        <ele>242.626</ele>
        <time>2020-07-26T08:58:15Z</time>
      </trkpt>
      <trkpt lat="41.872228" lon="2.596125">
        <ele>242.708</ele>
        <time>2020-07-26T08:58:16Z</time>
      </trkpt>
      <trkpt lat="41.872277" lon="2.596185">
        <ele>242.371</ele>
        <time>2020-07-26T08:58:17Z</time>
      </trkpt>
      <trkpt lat="41.872329" lon="2.596241">
        <ele>242.359</ele>
        <time>2020-07-26T08:58:18Z</time>
      </trkpt>
      <trkpt lat="41.872386" lon="2.596296">
        <ele>242.012</ele>
        <time>2020-07-26T08:58:19Z</time>
      </trkpt>
      <trkpt lat="41.872440" lon="2.596348">
        <ele>241.847</ele>
        <time>2020-07-26T08:58:20Z</time>
      </trkpt>
      <trkpt lat="41.872490" lon="2.596411">
        <ele>241.115</ele>
        <time>2020-07-26T08:58:21Z</time>
      </trkpt>
      <trkpt lat="41.872534" lon="2.596485">
        <ele>240.878</ele>
        <time>2020-07-26T08:58:22Z</time>
      </trkpt>
      <trkpt lat="41.872575" lon="2.596579">
        <ele>240.212</ele>
        <time>2020-07-26T08:58:23Z</time>
      </trkpt>
      <trkpt lat="41.872608" lon="2.596686">
        <ele>239.728</ele>
        <time>2020-07-26T08:58:24Z</time>
      </trkpt>
      <trkpt lat="41.872629" lon="2.596800">
        <ele>239.448</ele>
        <time>2020-07-26T08:58:25Z</time>
      </trkpt>
      <trkpt lat="41.872639" lon="2.596919">
        <ele>238.961</ele>
        <time>2020-07-26T08:58:26Z</time>
      </trkpt>
      <trkpt lat="41.872643" lon="2.597042">
        <ele>238.517</ele>
        <time>2020-07-26T08:58:27Z</time>
      </trkpt>
      <trkpt lat="41.872633" lon="2.597168">
        <ele>238.108</ele>
        <time>2020-07-26T08:58:28Z</time>
      </trkpt>
      <trkpt lat="41.872615" lon="2.597300">
        <ele>237.949</ele>
        <time>2020-07-26T08:58:29Z</time>
      </trkpt>
      <trkpt lat="41.872596" lon="2.597432">
        <ele>237.457</ele>
        <time>2020-07-26T08:58:30Z</time>
      </trkpt>
      <trkpt lat="41.872574" lon="2.597567">
        <ele>236.630</ele>
        <time>2020-07-26T08:58:31Z</time>
      </trkpt>
      <trkpt lat="41.872556" lon="2.597701">
        <ele>235.865</ele>
        <time>2020-07-26T08:58:32Z</time>
      </trkpt>
      <trkpt lat="41.872546" lon="2.597844">
        <ele>235.223</ele>
        <time>2020-07-26T08:58:33Z</time>
      </trkpt>
      <trkpt lat="41.872547" lon="2.598005">
        <ele>234.626</ele>
        <time>2020-07-26T08:58:34Z</time>
      </trkpt>
      <trkpt lat="41.872553" lon="2.598150">
        <ele>234.190</ele>
        <time>2020-07-26T08:58:35Z</time>
      </trkpt>
      <trkpt lat="41.872562" lon="2.598296">
        <ele>233.696</ele>
        <time>2020-07-26T08:58:36Z</time>
      </trkpt>
      <trkpt lat="41.872572" lon="2.598441">
        <ele>233.181</ele>
        <time>2020-07-26T08:58:37Z</time>
      </trkpt>
      <trkpt lat="41.872584" lon="2.598589">
        <ele>232.661</ele>
        <time>2020-07-26T08:58:38Z</time>
      </trkpt>
      <trkpt lat="41.872595" lon="2.598734">
        <ele>232.117</ele>
        <time>2020-07-26T08:58:39Z</time>
      </trkpt>
      <trkpt lat="41.872611" lon="2.598880">
        <ele>231.708</ele>
        <time>2020-07-26T08:58:40Z</time>
      </trkpt>
      <trkpt lat="41.872634" lon="2.599022">
        <ele>231.583</ele>
        <time>2020-07-26T08:58:41Z</time>
      </trkpt>
      <trkpt lat="41.872657" lon="2.599159">
        <ele>231.141</ele>
        <time>2020-07-26T08:58:42Z</time>
      </trkpt>
      <trkpt lat="41.872674" lon="2.599292">
        <ele>230.994</ele>
        <time>2020-07-26T08:58:43Z</time>
      </trkpt>
      <trkpt lat="41.872684" lon="2.599420">
        <ele>230.639</ele>
        <time>2020-07-26T08:58:44Z</time>
      </trkpt>
      <trkpt lat="41.872674" lon="2.599550">
        <ele>230.447</ele>
        <time>2020-07-26T08:58:45Z</time>
      </trkpt>
      <trkpt lat="41.872633" lon="2.599683">
        <ele>229.790</ele>
        <time>2020-07-26T08:58:46Z</time>
      </trkpt>
      <trkpt lat="41.872575" lon="2.599805">
        <ele>229.574</ele>
        <time>2020-07-26T08:58:47Z</time>
      </trkpt>
      <trkpt lat="41.872512" lon="2.599913">
        <ele>229.120</ele>
        <time>2020-07-26T08:58:48Z</time>
      </trkpt>
      <trkpt lat="41.872449" lon="2.600018">
        <ele>228.749</ele>
        <time>2020-07-26T08:58:49Z</time>
      </trkpt>
      <trkpt lat="41.872399" lon="2.600130">
        <ele>228.602</ele>
        <time>2020-07-26T08:58:50Z</time>
      </trkpt>
      <trkpt lat="41.872359" lon="2.600249">
        <ele>228.822</ele>
        <time>2020-07-26T08:58:51Z</time>
      </trkpt>
      <trkpt lat="41.872338" lon="2.600370">
        <ele>228.808</ele>
        <time>2020-07-26T08:58:52Z</time>
      </trkpt>
      <trkpt lat="41.872328" lon="2.600498">
        <ele>228.629</ele>
        <time>2020-07-26T08:58:53Z</time>
      </trkpt>
      <trkpt lat="41.872316" lon="2.600629">
        <ele>228.187</ele>
        <time>2020-07-26T08:58:54Z</time>
      </trkpt>
      <trkpt lat="41.872306" lon="2.600758">
        <ele>227.920</ele>
        <time>2020-07-26T08:58:55Z</time>
      </trkpt>
      <trkpt lat="41.872301" lon="2.600884">
        <ele>227.645</ele>
        <time>2020-07-26T08:58:56Z</time>
      </trkpt>
      <trkpt lat="41.872307" lon="2.601010">
        <ele>227.133</ele>
        <time>2020-07-26T08:58:57Z</time>
      </trkpt>
      <trkpt lat="41.872320" lon="2.601139">
        <ele>226.866</ele>
        <time>2020-07-26T08:58:58Z</time>
      </trkpt>
      <trkpt lat="41.872340" lon="2.601371">
        <ele>226.380</ele>
        <time>2020-07-26T08:59:00Z</time>
      </trkpt>
      <trkpt lat="41.872359" lon="2.601598">
        <ele>225.946</ele>
        <time>2020-07-26T08:59:02Z</time>
      </trkpt>
      <trkpt lat="41.872368" lon="2.601819">
        <ele>225.172</ele>
        <time>2020-07-26T08:59:04Z</time>
      </trkpt>
      <trkpt lat="41.872333" lon="2.602035">
        <ele>224.313</ele>
        <time>2020-07-26T08:59:06Z</time>
      </trkpt>
      <trkpt lat="41.872265" lon="2.602259">
        <ele>223.814</ele>
        <time>2020-07-26T08:59:08Z</time>
      </trkpt>
      <trkpt lat="41.872222" lon="2.602376">
        <ele>223.108</ele>
        <time>2020-07-26T08:59:09Z</time>
      </trkpt>
      <trkpt lat="41.872178" lon="2.602495">
        <ele>222.782</ele>
        <time>2020-07-26T08:59:10Z</time>
      </trkpt>
      <trkpt lat="41.872125" lon="2.602616">
        <ele>222.230</ele>
        <time>2020-07-26T08:59:11Z</time>
      </trkpt>
      <trkpt lat="41.872074" lon="2.602734">
        <ele>221.463</ele>
        <time>2020-07-26T08:59:12Z</time>
      </trkpt>
      <trkpt lat="41.872018" lon="2.602847">
        <ele>221.068</ele>
        <time>2020-07-26T08:59:13Z</time>
      </trkpt>
      <trkpt lat="41.871961" lon="2.602958">
        <ele>221.366</ele>
        <time>2020-07-26T08:59:14Z</time>
      </trkpt>
      <trkpt lat="41.871905" lon="2.603068">
        <ele>220.859</ele>
        <time>2020-07-26T08:59:15Z</time>
      </trkpt>
      <trkpt lat="41.871844" lon="2.603169">
        <ele>220.143</ele>
        <time>2020-07-26T08:59:16Z</time>
      </trkpt>
      <trkpt lat="41.871770" lon="2.603381">
        <ele>219.969</ele>
        <time>2020-07-26T08:59:18Z</time>
      </trkpt>
      <trkpt lat="41.871755" lon="2.603621">
        <ele>219.527</ele>
        <time>2020-07-26T08:59:20Z</time>
      </trkpt>
      <trkpt lat="41.871799" lon="2.603845">
        <ele>218.968</ele>
        <time>2020-07-26T08:59:22Z</time>
      </trkpt>
      <trkpt lat="41.871832" lon="2.603966">
        <ele>218.714</ele>
        <time>2020-07-26T08:59:23Z</time>
      </trkpt>
      <trkpt lat="41.871870" lon="2.604086">
        <ele>218.308</ele>
        <time>2020-07-26T08:59:24Z</time>
      </trkpt>
      <trkpt lat="41.871909" lon="2.604217">
        <ele>218.117</ele>
        <time>2020-07-26T08:59:25Z</time>
      </trkpt>
      <trkpt lat="41.871954" lon="2.604345">
        <ele>217.785</ele>
        <time>2020-07-26T08:59:26Z</time>
      </trkpt>
      <trkpt lat="41.872004" lon="2.604476">
        <ele>217.018</ele>
        <time>2020-07-26T08:59:27Z</time>
      </trkpt>
      <trkpt lat="41.872068" lon="2.604587">
        <ele>215.633</ele>
        <time>2020-07-26T08:59:28Z</time>
      </trkpt>
      <trkpt lat="41.872125" lon="2.604700">
        <ele>214.441</ele>
        <time>2020-07-26T08:59:29Z</time>
      </trkpt>
      <trkpt lat="41.872194" lon="2.604811">
        <ele>213.844</ele>
        <time>2020-07-26T08:59:30Z</time>
      </trkpt>
      <trkpt lat="41.872264" lon="2.604903">
        <ele>213.338</ele>
        <time>2020-07-26T08:59:31Z</time>
      </trkpt>
      <trkpt lat="41.872337" lon="2.604982">
        <ele>212.944</ele>
        <time>2020-07-26T08:59:32Z</time>
      </trkpt>
      <trkpt lat="41.872405" lon="2.605072">
        <ele>212.562</ele>
        <time>2020-07-26T08:59:33Z</time>
      </trkpt>
      <trkpt lat="41.872537" lon="2.605227">
        <ele>212.183</ele>
        <time>2020-07-26T08:59:35Z</time>
      </trkpt>
      <trkpt lat="41.872671" lon="2.605367">
        <ele>212.011</ele>
        <time>2020-07-26T08:59:37Z</time>
      </trkpt>
      <trkpt lat="41.872795" lon="2.605517">
        <ele>212.308</ele>
        <time>2020-07-26T08:59:39Z</time>
      </trkpt>
      <trkpt lat="41.872911" lon="2.605672">
        <ele>212.141</ele>
        <time>2020-07-26T08:59:41Z</time>
      </trkpt>
      <trkpt lat="41.873026" lon="2.605819">
        <ele>212.119</ele>
        <time>2020-07-26T08:59:43Z</time>
      </trkpt>
      <trkpt lat="41.873138" lon="2.605963">
        <ele>212.012</ele>
        <time>2020-07-26T08:59:45Z</time>
      </trkpt>
      <trkpt lat="41.873251" lon="2.606091">
        <ele>212.077</ele>
        <time>2020-07-26T08:59:47Z</time>
      </trkpt>
      <trkpt lat="41.873346" lon="2.606225">
        <ele>212.225</ele>
        <time>2020-07-26T08:59:49Z</time>
      </trkpt>
      <trkpt lat="41.873397" lon="2.606291">
        <ele>212.648</ele>
        <time>2020-07-26T08:59:50Z</time>
      </trkpt>
      <trkpt lat="41.873447" lon="2.606356">
        <ele>212.842</ele>
        <time>2020-07-26T08:59:51Z</time>
      </trkpt>
      <trkpt lat="41.873553" lon="2.606474">
        <ele>212.848</ele>
        <time>2020-07-26T08:59:53Z</time>
      </trkpt>
      <trkpt lat="41.873663" lon="2.606576">
        <ele>212.899</ele>
        <time>2020-07-26T08:59:55Z</time>
      </trkpt>
      <trkpt lat="41.873765" lon="2.606679">
        <ele>213.007</ele>
        <time>2020-07-26T08:59:57Z</time>
      </trkpt>
      <trkpt lat="41.873866" lon="2.606796">
        <ele>213.027</ele>
        <time>2020-07-26T08:59:59Z</time>
      </trkpt>
      <trkpt lat="41.873963" lon="2.606917">
        <ele>213.008</ele>
        <time>2020-07-26T09:00:01Z</time>
      </trkpt>
      <trkpt lat="41.874057" lon="2.607044">
        <ele>213.354</ele>
        <time>2020-07-26T09:00:03Z</time>
      </trkpt>
      <trkpt lat="41.874154" lon="2.607171">
        <ele>213.842</ele>
        <time>2020-07-26T09:00:05Z</time>
      </trkpt>
      <trkpt lat="41.874249" lon="2.607279">
        <ele>213.765</ele>
        <time>2020-07-26T09:00:07Z</time>
      </trkpt>
      <trkpt lat="41.874364" lon="2.607323">
        <ele>213.530</ele>
        <time>2020-07-26T09:00:09Z</time>
      </trkpt>
      <trkpt lat="41.874482" lon="2.607327">
        <ele>213.338</ele>
        <time>2020-07-26T09:00:11Z</time>
      </trkpt>
      <trkpt lat="41.874617" lon="2.607321">
        <ele>212.761</ele>
        <time>2020-07-26T09:00:13Z</time>
      </trkpt>
      <trkpt lat="41.874761" lon="2.607263">
        <ele>212.865</ele>
        <time>2020-07-26T09:00:15Z</time>
      </trkpt>
      <trkpt lat="41.874900" lon="2.607173">
        <ele>212.861</ele>
        <time>2020-07-26T09:00:17Z</time>
      </trkpt>
      <trkpt lat="41.875031" lon="2.607091">
        <ele>212.833</ele>
        <time>2020-07-26T09:00:19Z</time>
      </trkpt>
      <trkpt lat="41.875156" lon="2.606998">
        <ele>212.723</ele>
        <time>2020-07-26T09:00:21Z</time>
      </trkpt>
      <trkpt lat="41.875273" lon="2.606904">
        <ele>212.315</ele>
        <time>2020-07-26T09:00:23Z</time>
      </trkpt>
      <trkpt lat="41.875406" lon="2.606851">
        <ele>211.908</ele>
        <time>2020-07-26T09:00:25Z</time>
      </trkpt>
      <trkpt lat="41.875468" lon="2.606827">
        <ele>211.898</ele>
        <time>2020-07-26T09:00:26Z</time>
      </trkpt>
      <trkpt lat="41.875532" lon="2.606808">
        <ele>212.076</ele>
        <time>2020-07-26T09:00:27Z</time>
      </trkpt>
      <trkpt lat="41.875592" lon="2.606793">
        <ele>212.059</ele>
        <time>2020-07-26T09:00:28Z</time>
      </trkpt>
      <trkpt lat="41.875653" lon="2.606780">
        <ele>212.134</ele>
        <time>2020-07-26T09:00:29Z</time>
      </trkpt>
      <trkpt lat="41.875719" lon="2.606772">
        <ele>212.122</ele>
        <time>2020-07-26T09:00:30Z</time>
      </trkpt>
      <trkpt lat="41.875786" lon="2.606770">
        <ele>212.025</ele>
        <time>2020-07-26T09:00:31Z</time>
      </trkpt>
      <trkpt lat="41.875856" lon="2.606776">
        <ele>211.989</ele>
        <time>2020-07-26T09:00:32Z</time>
      </trkpt>
      <trkpt lat="41.875994" lon="2.606802">
        <ele>211.875</ele>
        <time>2020-07-26T09:00:34Z</time>
      </trkpt>
      <trkpt lat="41.876060" lon="2.606817">
        <ele>211.728</ele>
        <time>2020-07-26T09:00:35Z</time>
      </trkpt>
      <trkpt lat="41.876127" lon="2.606836">
        <ele>211.689</ele>
        <time>2020-07-26T09:00:36Z</time>
      </trkpt>
      <trkpt lat="41.876187" lon="2.606859">
        <ele>211.817</ele>
        <time>2020-07-26T09:00:37Z</time>
      </trkpt>
      <trkpt lat="41.876305" lon="2.606910">
        <ele>212.008</ele>
        <time>2020-07-26T09:00:39Z</time>
      </trkpt>
      <trkpt lat="41.876367" lon="2.606936">
        <ele>212.057</ele>
        <time>2020-07-26T09:00:40Z</time>
      </trkpt>
      <trkpt lat="41.876431" lon="2.606961">
        <ele>212.025</ele>
        <time>2020-07-26T09:00:41Z</time>
      </trkpt>
      <trkpt lat="41.876497" lon="2.606982">
        <ele>211.988</ele>
        <time>2020-07-26T09:00:42Z</time>
      </trkpt>
      <trkpt lat="41.876563" lon="2.606998">
        <ele>211.733</ele>
        <time>2020-07-26T09:00:43Z</time>
      </trkpt>
      <trkpt lat="41.876628" lon="2.607008">
        <ele>211.631</ele>
        <time>2020-07-26T09:00:44Z</time>
      </trkpt>
      <trkpt lat="41.876690" lon="2.607024">
        <ele>211.824</ele>
        <time>2020-07-26T09:00:45Z</time>
      </trkpt>
      <trkpt lat="41.876745" lon="2.607056">
        <ele>211.868</ele>
        <time>2020-07-26T09:00:46Z</time>
      </trkpt>
      <trkpt lat="41.876794" lon="2.607106">
        <ele>211.874</ele>
        <time>2020-07-26T09:00:47Z</time>
      </trkpt>
      <trkpt lat="41.876830" lon="2.607175">
        <ele>211.877</ele>
        <time>2020-07-26T09:00:48Z</time>
      </trkpt>
      <trkpt lat="41.876856" lon="2.607249">
        <ele>212.061</ele>
        <time>2020-07-26T09:00:49Z</time>
      </trkpt>
      <trkpt lat="41.876874" lon="2.607328">
        <ele>212.027</ele>
        <time>2020-07-26T09:00:50Z</time>
      </trkpt>
      <trkpt lat="41.876883" lon="2.607408">
        <ele>212.008</ele>
        <time>2020-07-26T09:00:51Z</time>
      </trkpt>
      <trkpt lat="41.876888" lon="2.607487">
        <ele>212.412</ele>
        <time>2020-07-26T09:00:52Z</time>
      </trkpt>
      <trkpt lat="41.876895" lon="2.607564">
        <ele>212.630</ele>
        <time>2020-07-26T09:00:53Z</time>
      </trkpt>
      <trkpt lat="41.876901" lon="2.607641">
        <ele>212.823</ele>
        <time>2020-07-26T09:00:54Z</time>
      </trkpt>
      <trkpt lat="41.876908" lon="2.607715">
        <ele>212.948</ele>
        <time>2020-07-26T09:00:55Z</time>
      </trkpt>
      <trkpt lat="41.876915" lon="2.607791">
        <ele>212.856</ele>
        <time>2020-07-26T09:00:56Z</time>
      </trkpt>
      <trkpt lat="41.876924" lon="2.607868">
        <ele>213.179</ele>
        <time>2020-07-26T09:00:57Z</time>
      </trkpt>
      <trkpt lat="41.876932" lon="2.607943">
        <ele>213.153</ele>
        <time>2020-07-26T09:00:58Z</time>
      </trkpt>
      <trkpt lat="41.876939" lon="2.608019">
        <ele>213.159</ele>
        <time>2020-07-26T09:00:59Z</time>
      </trkpt>
      <trkpt lat="41.876941" lon="2.608096">
        <ele>213.669</ele>
        <time>2020-07-26T09:01:00Z</time>
      </trkpt>
      <trkpt lat="41.876933" lon="2.608178">
        <ele>213.604</ele>
        <time>2020-07-26T09:01:01Z</time>
      </trkpt>
      <trkpt lat="41.876907" lon="2.608253">
        <ele>213.524</ele>
        <time>2020-07-26T09:01:02Z</time>
      </trkpt>
      <trkpt lat="41.876864" lon="2.608309">
        <ele>213.408</ele>
        <time>2020-07-26T09:01:03Z</time>
      </trkpt>
      <trkpt lat="41.876809" lon="2.608349">
        <ele>213.611</ele>
        <time>2020-07-26T09:01:04Z</time>
      </trkpt>
      <trkpt lat="41.876750" lon="2.608382">
        <ele>214.059</ele>
        <time>2020-07-26T09:01:05Z</time>
      </trkpt>
      <trkpt lat="41.876691" lon="2.608412">
        <ele>214.072</ele>
        <time>2020-07-26T09:01:06Z</time>
      </trkpt>
      <trkpt lat="41.876632" lon="2.608443">
        <ele>214.047</ele>
        <time>2020-07-26T09:01:07Z</time>
      </trkpt>
      <trkpt lat="41.876572" lon="2.608475">
        <ele>214.065</ele>
        <time>2020-07-26T09:01:08Z</time>
      </trkpt>
      <trkpt lat="41.876515" lon="2.608515">
        <ele>213.918</ele>
        <time>2020-07-26T09:01:09Z</time>
      </trkpt>
      <trkpt lat="41.876464" lon="2.608566">
        <ele>213.652</ele>
        <time>2020-07-26T09:01:10Z</time>
      </trkpt>
      <trkpt lat="41.876421" lon="2.608630">
        <ele>213.628</ele>
        <time>2020-07-26T09:01:11Z</time>
      </trkpt>
      <trkpt lat="41.876383" lon="2.608705">
        <ele>213.657</ele>
        <time>2020-07-26T09:01:12Z</time>
      </trkpt>
      <trkpt lat="41.876345" lon="2.608783">
        <ele>213.600</ele>
        <time>2020-07-26T09:01:13Z</time>
      </trkpt>
      <trkpt lat="41.876303" lon="2.608857">
        <ele>213.820</ele>
        <time>2020-07-26T09:01:14Z</time>
      </trkpt>
      <trkpt lat="41.876210" lon="2.608985">
        <ele>213.508</ele>
        <time>2020-07-26T09:01:16Z</time>
      </trkpt>
      <trkpt lat="41.876164" lon="2.609046">
        <ele>213.330</ele>
        <time>2020-07-26T09:01:17Z</time>
      </trkpt>
      <trkpt lat="41.876121" lon="2.609107">
        <ele>213.148</ele>
        <time>2020-07-26T09:01:18Z</time>
      </trkpt>
      <trkpt lat="41.876079" lon="2.609170">
        <ele>213.051</ele>
        <time>2020-07-26T09:01:19Z</time>
      </trkpt>
      <trkpt lat="41.876040" lon="2.609236">
        <ele>213.116</ele>
        <time>2020-07-26T09:01:20Z</time>
      </trkpt>
      <trkpt lat="41.876003" lon="2.609304">
        <ele>213.324</ele>
        <time>2020-07-26T09:01:21Z</time>
      </trkpt>
      <trkpt lat="41.875970" lon="2.609374">
        <ele>213.957</ele>
        <time>2020-07-26T09:01:22Z</time>
      </trkpt>
      <trkpt lat="41.875940" lon="2.609446">
        <ele>214.451</ele>
        <time>2020-07-26T09:01:23Z</time>
      </trkpt>
      <trkpt lat="41.875909" lon="2.609526">
        <ele>214.597</ele>
        <time>2020-07-26T09:01:24Z</time>
      </trkpt>
      <trkpt lat="41.875878" lon="2.609603">
        <ele>214.033</ele>
        <time>2020-07-26T09:01:25Z</time>
      </trkpt>
      <trkpt lat="41.875845" lon="2.609674">
        <ele>213.523</ele>
        <time>2020-07-26T09:01:26Z</time>
      </trkpt>
      <trkpt lat="41.875804" lon="2.609740">
        <ele>213.115</ele>
        <time>2020-07-26T09:01:27Z</time>
      </trkpt>
      <trkpt lat="41.875755" lon="2.609798">
        <ele>212.908</ele>
        <time>2020-07-26T09:01:28Z</time>
      </trkpt>
      <trkpt lat="41.875703" lon="2.609843">
        <ele>212.818</ele>
        <time>2020-07-26T09:01:29Z</time>
      </trkpt>
      <trkpt lat="41.875649" lon="2.609881">
        <ele>212.916</ele>
        <time>2020-07-26T09:01:30Z</time>
      </trkpt>
      <trkpt lat="41.875597" lon="2.609918">
        <ele>212.829</ele>
        <time>2020-07-26T09:01:31Z</time>
      </trkpt>
      <trkpt lat="41.875544" lon="2.609955">
        <ele>213.084</ele>
        <time>2020-07-26T09:01:32Z</time>
      </trkpt>
      <trkpt lat="41.875488" lon="2.609992">
        <ele>213.062</ele>
        <time>2020-07-26T09:01:33Z</time>
      </trkpt>
      <trkpt lat="41.875428" lon="2.610017">
        <ele>213.125</ele>
        <time>2020-07-26T09:01:34Z</time>
      </trkpt>
      <trkpt lat="41.875366" lon="2.610022">
        <ele>213.039</ele>
        <time>2020-07-26T09:01:35Z</time>
      </trkpt>
      <trkpt lat="41.875304" lon="2.610013">
        <ele>212.965</ele>
        <time>2020-07-26T09:01:36Z</time>
      </trkpt>
      <trkpt lat="41.875245" lon="2.610000">
        <ele>212.778</ele>
        <time>2020-07-26T09:01:37Z</time>
      </trkpt>
      <trkpt lat="41.875190" lon="2.609988">
        <ele>212.533</ele>
        <time>2020-07-26T09:01:38Z</time>
      </trkpt>
      <trkpt lat="41.875130" lon="2.609987">
        <ele>212.326</ele>
        <time>2020-07-26T09:01:39Z</time>
      </trkpt>
      <trkpt lat="41.875065" lon="2.609995">
        <ele>212.308</ele>
        <time>2020-07-26T09:01:40Z</time>
      </trkpt>
      <trkpt lat="41.875001" lon="2.609999">
        <ele>212.082</ele>
        <time>2020-07-26T09:01:41Z</time>
      </trkpt>
      <trkpt lat="41.874939" lon="2.610002">
        <ele>212.440</ele>
        <time>2020-07-26T09:01:42Z</time>
      </trkpt>
      <trkpt lat="41.874875" lon="2.610005">
        <ele>212.683</ele>
        <time>2020-07-26T09:01:43Z</time>
      </trkpt>
      <trkpt lat="41.874810" lon="2.610017">
        <ele>212.188</ele>
        <time>2020-07-26T09:01:44Z</time>
      </trkpt>
      <trkpt lat="41.874743" lon="2.610038">
        <ele>211.986</ele>
        <time>2020-07-26T09:01:45Z</time>
      </trkpt>
      <trkpt lat="41.874677" lon="2.610074">
        <ele>211.549</ele>
        <time>2020-07-26T09:01:46Z</time>
      </trkpt>
      <trkpt lat="41.874623" lon="2.610130">
        <ele>211.163</ele>
        <time>2020-07-26T09:01:47Z</time>
      </trkpt>
      <trkpt lat="41.874573" lon="2.610203">
        <ele>210.949</ele>
        <time>2020-07-26T09:01:48Z</time>
      </trkpt>
      <trkpt lat="41.874499" lon="2.610387">
        <ele>210.023</ele>
        <time>2020-07-26T09:01:50Z</time>
      </trkpt>
      <trkpt lat="41.874440" lon="2.610604">
        <ele>208.683</ele>
        <time>2020-07-26T09:01:52Z</time>
      </trkpt>
      <trkpt lat="41.874405" lon="2.610721">
        <ele>207.811</ele>
        <time>2020-07-26T09:01:53Z</time>
      </trkpt>
      <trkpt lat="41.874359" lon="2.610838">
        <ele>207.208</ele>
        <time>2020-07-26T09:01:54Z</time>
      </trkpt>
      <trkpt lat="41.874287" lon="2.610931">
        <ele>206.497</ele>
        <time>2020-07-26T09:01:55Z</time>
      </trkpt>
      <trkpt lat="41.874199" lon="2.611001">
        <ele>205.845</ele>
        <time>2020-07-26T09:01:56Z</time>
      </trkpt>
      <trkpt lat="41.874107" lon="2.611058">
        <ele>205.048</ele>
        <time>2020-07-26T09:01:57Z</time>
      </trkpt>
      <trkpt lat="41.874020" lon="2.611126">
        <ele>204.483</ele>
        <time>2020-07-26T09:01:58Z</time>
      </trkpt>
      <trkpt lat="41.873941" lon="2.611212">
        <ele>203.831</ele>
        <time>2020-07-26T09:01:59Z</time>
      </trkpt>
      <trkpt lat="41.873879" lon="2.611323">
        <ele>203.264</ele>
        <time>2020-07-26T09:02:00Z</time>
      </trkpt>
      <trkpt lat="41.873830" lon="2.611440">
        <ele>202.428</ele>
        <time>2020-07-26T09:02:01Z</time>
      </trkpt>
      <trkpt lat="41.873790" lon="2.611568">
        <ele>201.834</ele>
        <time>2020-07-26T09:02:02Z</time>
      </trkpt>
      <trkpt lat="41.873761" lon="2.611706">
        <ele>201.232</ele>
        <time>2020-07-26T09:02:03Z</time>
      </trkpt>
      <trkpt lat="41.873742" lon="2.611849">
        <ele>200.792</ele>
        <time>2020-07-26T09:02:04Z</time>
      </trkpt>
      <trkpt lat="41.873734" lon="2.612012">
        <ele>200.111</ele>
        <time>2020-07-26T09:02:05Z</time>
      </trkpt>
      <trkpt lat="41.873725" lon="2.612169">
        <ele>199.208</ele>
        <time>2020-07-26T09:02:06Z</time>
      </trkpt>
      <trkpt lat="41.873713" lon="2.612323">
        <ele>198.678</ele>
        <time>2020-07-26T09:02:07Z</time>
      </trkpt>
      <trkpt lat="41.873709" lon="2.612483">
        <ele>198.086</ele>
        <time>2020-07-26T09:02:08Z</time>
      </trkpt>
      <trkpt lat="41.873702" lon="2.612640">
        <ele>197.239</ele>
        <time>2020-07-26T09:02:09Z</time>
      </trkpt>
      <trkpt lat="41.873700" lon="2.612793">
        <ele>196.524</ele>
        <time>2020-07-26T09:02:10Z</time>
      </trkpt>
      <trkpt lat="41.873707" lon="2.612944">
        <ele>196.062</ele>
        <time>2020-07-26T09:02:11Z</time>
      </trkpt>
      <trkpt lat="41.873726" lon="2.613090">
        <ele>195.225</ele>
        <time>2020-07-26T09:02:12Z</time>
      </trkpt>
      <trkpt lat="41.873757" lon="2.613229">
        <ele>194.659</ele>
        <time>2020-07-26T09:02:13Z</time>
      </trkpt>
      <trkpt lat="41.873795" lon="2.613362">
        <ele>193.895</ele>
        <time>2020-07-26T09:02:14Z</time>
      </trkpt>
      <trkpt lat="41.873831" lon="2.613494">
        <ele>193.063</ele>
        <time>2020-07-26T09:02:15Z</time>
      </trkpt>
      <trkpt lat="41.873843" lon="2.613630">
        <ele>192.444</ele>
        <time>2020-07-26T09:02:16Z</time>
      </trkpt>
      <trkpt lat="41.873811" lon="2.613757">
        <ele>191.818</ele>
        <time>2020-07-26T09:02:17Z</time>
      </trkpt>
      <trkpt lat="41.873742" lon="2.613856">
        <ele>191.208</ele>
        <time>2020-07-26T09:02:18Z</time>
      </trkpt>
      <trkpt lat="41.873656" lon="2.613931">
        <ele>190.791</ele>
        <time>2020-07-26T09:02:19Z</time>
      </trkpt>
      <trkpt lat="41.873565" lon="2.613995">
        <ele>190.259</ele>
        <time>2020-07-26T09:02:20Z</time>
      </trkpt>
      <trkpt lat="41.873475" lon="2.614051">
        <ele>189.592</ele>
        <time>2020-07-26T09:02:21Z</time>
      </trkpt>
      <trkpt lat="41.873392" lon="2.614122">
        <ele>189.097</ele>
        <time>2020-07-26T09:02:22Z</time>
      </trkpt>
      <trkpt lat="41.873318" lon="2.614199">
        <ele>188.515</ele>
        <time>2020-07-26T09:02:23Z</time>
      </trkpt>
      <trkpt lat="41.873248" lon="2.614283">
        <ele>188.018</ele>
        <time>2020-07-26T09:02:24Z</time>
      </trkpt>
      <trkpt lat="41.873176" lon="2.614368">
        <ele>187.512</ele>
        <time>2020-07-26T09:02:25Z</time>
      </trkpt>
      <trkpt lat="41.873104" lon="2.614462">
        <ele>187.038</ele>
        <time>2020-07-26T09:02:26Z</time>
      </trkpt>
      <trkpt lat="41.873028" lon="2.614567">
        <ele>186.425</ele>
        <time>2020-07-26T09:02:27Z</time>
      </trkpt>
      <trkpt lat="41.872959" lon="2.614671">
        <ele>185.926</ele>
        <time>2020-07-26T09:02:28Z</time>
      </trkpt>
      <trkpt lat="41.872894" lon="2.614782">
        <ele>185.408</ele>
        <time>2020-07-26T09:02:29Z</time>
      </trkpt>
      <trkpt lat="41.872831" lon="2.614894">
        <ele>184.908</ele>
        <time>2020-07-26T09:02:30Z</time>
      </trkpt>
      <trkpt lat="41.872765" lon="2.615003">
        <ele>184.547</ele>
        <time>2020-07-26T09:02:31Z</time>
      </trkpt>
      <trkpt lat="41.872704" lon="2.615112">
        <ele>184.085</ele>
        <time>2020-07-26T09:02:32Z</time>
      </trkpt>
      <trkpt lat="41.872645" lon="2.615222">
        <ele>183.548</ele>
        <time>2020-07-26T09:02:33Z</time>
      </trkpt>
      <trkpt lat="41.872587" lon="2.615330">
        <ele>183.113</ele>
        <time>2020-07-26T09:02:34Z</time>
      </trkpt>
      <trkpt lat="41.872535" lon="2.615438">
        <ele>182.691</ele>
        <time>2020-07-26T09:02:35Z</time>
      </trkpt>
      <trkpt lat="41.872472" lon="2.615536">
        <ele>182.114</ele>
        <time>2020-07-26T09:02:36Z</time>
      </trkpt>
      <trkpt lat="41.872415" lon="2.615636">
        <ele>181.998</ele>
        <time>2020-07-26T09:02:37Z</time>
      </trkpt>
      <trkpt lat="41.872332" lon="2.615846">
        <ele>181.354</ele>
        <time>2020-07-26T09:02:39Z</time>
      </trkpt>
      <trkpt lat="41.872302" lon="2.615967">
        <ele>180.891</ele>
        <time>2020-07-26T09:02:40Z</time>
      </trkpt>
      <trkpt lat="41.872267" lon="2.616081">
        <ele>180.381</ele>
        <time>2020-07-26T09:02:41Z</time>
      </trkpt>
      <trkpt lat="41.872230" lon="2.616195">
        <ele>180.119</ele>
        <time>2020-07-26T09:02:42Z</time>
      </trkpt>
      <trkpt lat="41.872187" lon="2.616310">
        <ele>179.908</ele>
        <time>2020-07-26T09:02:43Z</time>
      </trkpt>
      <trkpt lat="41.872142" lon="2.616423">
        <ele>179.754</ele>
        <time>2020-07-26T09:02:44Z</time>
      </trkpt>
      <trkpt lat="41.872096" lon="2.616534">
        <ele>179.342</ele>
        <time>2020-07-26T09:02:45Z</time>
      </trkpt>
      <trkpt lat="41.872056" lon="2.616641">
        <ele>179.125</ele>
        <time>2020-07-26T09:02:46Z</time>
      </trkpt>
      <trkpt lat="41.872022" lon="2.616744">
        <ele>178.720</ele>
        <time>2020-07-26T09:02:47Z</time>
      </trkpt>
      <trkpt lat="41.871998" lon="2.616853">
        <ele>178.348</ele>
        <time>2020-07-26T09:02:48Z</time>
      </trkpt>
      <trkpt lat="41.871982" lon="2.616964">
        <ele>178.351</ele>
        <time>2020-07-26T09:02:49Z</time>
      </trkpt>
      <trkpt lat="41.871971" lon="2.617078">
        <ele>178.335</ele>
        <time>2020-07-26T09:02:50Z</time>
      </trkpt>
      <trkpt lat="41.871964" lon="2.617189">
        <ele>178.331</ele>
        <time>2020-07-26T09:02:51Z</time>
      </trkpt>
      <trkpt lat="41.871959" lon="2.617300">
        <ele>178.344</ele>
        <time>2020-07-26T09:02:52Z</time>
      </trkpt>
      <trkpt lat="41.871953" lon="2.617411">
        <ele>178.105</ele>
        <time>2020-07-26T09:02:53Z</time>
      </trkpt>
      <trkpt lat="41.871949" lon="2.617524">
        <ele>177.915</ele>
        <time>2020-07-26T09:02:54Z</time>
      </trkpt>
      <trkpt lat="41.871946" lon="2.617634">
        <ele>177.708</ele>
        <time>2020-07-26T09:02:55Z</time>
      </trkpt>
      <trkpt lat="41.871943" lon="2.617744">
        <ele>177.619</ele>
        <time>2020-07-26T09:02:56Z</time>
      </trkpt>
      <trkpt lat="41.871940" lon="2.617853">
        <ele>177.517</ele>
        <time>2020-07-26T09:02:57Z</time>
      </trkpt>
      <trkpt lat="41.871938" lon="2.617962">
        <ele>177.380</ele>
        <time>2020-07-26T09:02:58Z</time>
      </trkpt>
      <trkpt lat="41.871938" lon="2.618073">
        <ele>177.195</ele>
        <time>2020-07-26T09:02:59Z</time>
      </trkpt>
      <trkpt lat="41.871938" lon="2.618181">
        <ele>177.183</ele>
        <time>2020-07-26T09:03:00Z</time>
      </trkpt>
      <trkpt lat="41.871940" lon="2.618287">
        <ele>177.146</ele>
        <time>2020-07-26T09:03:01Z</time>
      </trkpt>
      <trkpt lat="41.871944" lon="2.618393">
        <ele>177.190</ele>
        <time>2020-07-26T09:03:02Z</time>
      </trkpt>
      <trkpt lat="41.871950" lon="2.618498">
        <ele>177.026</ele>
        <time>2020-07-26T09:03:03Z</time>
      </trkpt>
      <trkpt lat="41.871959" lon="2.618602">
        <ele>176.936</ele>
        <time>2020-07-26T09:03:04Z</time>
      </trkpt>
      <trkpt lat="41.871972" lon="2.618706">
        <ele>176.717</ele>
        <time>2020-07-26T09:03:05Z</time>
      </trkpt>
      <trkpt lat="41.871986" lon="2.618808">
        <ele>176.618</ele>
        <time>2020-07-26T09:03:06Z</time>
      </trkpt>
      <trkpt lat="41.872001" lon="2.618908">
        <ele>176.608</ele>
        <time>2020-07-26T09:03:07Z</time>
      </trkpt>
      <trkpt lat="41.872018" lon="2.619008">
        <ele>176.598</ele>
        <time>2020-07-26T09:03:08Z</time>
      </trkpt>
      <trkpt lat="41.872035" lon="2.619106">
        <ele>176.316</ele>
        <time>2020-07-26T09:03:09Z</time>
      </trkpt>
      <trkpt lat="41.872051" lon="2.619204">
        <ele>176.349</ele>
        <time>2020-07-26T09:03:10Z</time>
      </trkpt>
      <trkpt lat="41.872068" lon="2.619301">
        <ele>176.194</ele>
        <time>2020-07-26T09:03:11Z</time>
      </trkpt>
      <trkpt lat="41.872086" lon="2.619398">
        <ele>176.172</ele>
        <time>2020-07-26T09:03:12Z</time>
      </trkpt>
      <trkpt lat="41.872104" lon="2.619494">
        <ele>176.085</ele>
        <time>2020-07-26T09:03:13Z</time>
      </trkpt>
      <trkpt lat="41.872121" lon="2.619590">
        <ele>176.039</ele>
        <time>2020-07-26T09:03:14Z</time>
      </trkpt>
      <trkpt lat="41.872137" lon="2.619685">
        <ele>176.095</ele>
        <time>2020-07-26T09:03:15Z</time>
      </trkpt>
      <trkpt lat="41.872155" lon="2.619780">
        <ele>176.052</ele>
        <time>2020-07-26T09:03:16Z</time>
      </trkpt>
      <trkpt lat="41.872174" lon="2.619875">
        <ele>176.053</ele>
        <time>2020-07-26T09:03:17Z</time>
      </trkpt>
      <trkpt lat="41.872192" lon="2.619971">
        <ele>176.008</ele>
        <time>2020-07-26T09:03:18Z</time>
      </trkpt>
      <trkpt lat="41.872210" lon="2.620066">
        <ele>175.908</ele>
        <time>2020-07-26T09:03:19Z</time>
      </trkpt>
      <trkpt lat="41.872228" lon="2.620161">
        <ele>175.810</ele>
        <time>2020-07-26T09:03:20Z</time>
      </trkpt>
      <trkpt lat="41.872244" lon="2.620257">
        <ele>175.778</ele>
        <time>2020-07-26T09:03:21Z</time>
      </trkpt>
      <trkpt lat="41.872260" lon="2.620354">
        <ele>175.341</ele>
        <time>2020-07-26T09:03:22Z</time>
      </trkpt>
      <trkpt lat="41.872276" lon="2.620452">
        <ele>175.316</ele>
        <time>2020-07-26T09:03:23Z</time>
      </trkpt>
      <trkpt lat="41.872293" lon="2.620549">
        <ele>175.324</ele>
        <time>2020-07-26T09:03:24Z</time>
      </trkpt>
      <trkpt lat="41.872309" lon="2.620645">
        <ele>175.347</ele>
        <time>2020-07-26T09:03:25Z</time>
      </trkpt>
      <trkpt lat="41.872325" lon="2.620741">
        <ele>175.181</ele>
        <time>2020-07-26T09:03:26Z</time>
      </trkpt>
      <trkpt lat="41.872341" lon="2.620839">
        <ele>175.117</ele>
        <time>2020-07-26T09:03:27Z</time>
      </trkpt>
      <trkpt lat="41.872357" lon="2.620936">
        <ele>174.927</ele>
        <time>2020-07-26T09:03:28Z</time>
      </trkpt>
      <trkpt lat="41.872373" lon="2.621032">
        <ele>174.868</ele>
        <time>2020-07-26T09:03:29Z</time>
      </trkpt>
      <trkpt lat="41.872390" lon="2.621128">
        <ele>174.814</ele>
        <time>2020-07-26T09:03:30Z</time>
      </trkpt>
      <trkpt lat="41.872406" lon="2.621223">
        <ele>174.708</ele>
        <time>2020-07-26T09:03:31Z</time>
      </trkpt>
      <trkpt lat="41.872422" lon="2.621317">
        <ele>174.387</ele>
        <time>2020-07-26T09:03:32Z</time>
      </trkpt>
      <trkpt lat="41.872438" lon="2.621413">
        <ele>174.315</ele>
        <time>2020-07-26T09:03:33Z</time>
      </trkpt>
      <trkpt lat="41.872454" lon="2.621509">
        <ele>173.918</ele>
        <time>2020-07-26T09:03:34Z</time>
      </trkpt>
      <trkpt lat="41.872471" lon="2.621607">
        <ele>173.783</ele>
        <time>2020-07-26T09:03:35Z</time>
      </trkpt>
      <trkpt lat="41.872489" lon="2.621707">
        <ele>173.571</ele>
        <time>2020-07-26T09:03:36Z</time>
      </trkpt>
      <trkpt lat="41.872507" lon="2.621809">
        <ele>173.344</ele>
        <time>2020-07-26T09:03:37Z</time>
      </trkpt>
      <trkpt lat="41.872524" lon="2.621912">
        <ele>173.178</ele>
        <time>2020-07-26T09:03:38Z</time>
      </trkpt>
      <trkpt lat="41.872540" lon="2.622017">
        <ele>172.734</ele>
        <time>2020-07-26T09:03:39Z</time>
      </trkpt>
      <trkpt lat="41.872554" lon="2.622123">
        <ele>172.583</ele>
        <time>2020-07-26T09:03:40Z</time>
      </trkpt>
      <trkpt lat="41.872569" lon="2.622229">
        <ele>172.225</ele>
        <time>2020-07-26T09:03:41Z</time>
      </trkpt>
      <trkpt lat="41.872583" lon="2.622336">
        <ele>171.617</ele>
        <time>2020-07-26T09:03:42Z</time>
      </trkpt>
      <trkpt lat="41.872599" lon="2.622443">
        <ele>171.108</ele>
        <time>2020-07-26T09:03:43Z</time>
      </trkpt>
      <trkpt lat="41.872614" lon="2.622551">
        <ele>170.833</ele>
        <time>2020-07-26T09:03:44Z</time>
      </trkpt>
      <trkpt lat="41.872628" lon="2.622661">
        <ele>170.391</ele>
        <time>2020-07-26T09:03:45Z</time>
      </trkpt>
      <trkpt lat="41.872643" lon="2.622773">
        <ele>169.984</ele>
        <time>2020-07-26T09:03:46Z</time>
      </trkpt>
      <trkpt lat="41.872659" lon="2.622886">
        <ele>169.619</ele>
        <time>2020-07-26T09:03:47Z</time>
      </trkpt>
      <trkpt lat="41.872675" lon="2.622998">
        <ele>169.167</ele>
        <time>2020-07-26T09:03:48Z</time>
      </trkpt>
      <trkpt lat="41.872693" lon="2.623112">
        <ele>168.990</ele>
        <time>2020-07-26T09:03:49Z</time>
      </trkpt>
      <trkpt lat="41.872710" lon="2.623225">
        <ele>168.514</ele>
        <time>2020-07-26T09:03:50Z</time>
      </trkpt>
      <trkpt lat="41.872726" lon="2.623337">
        <ele>168.110</ele>
        <time>2020-07-26T09:03:51Z</time>
      </trkpt>
      <trkpt lat="41.872742" lon="2.623451">
        <ele>167.968</ele>
        <time>2020-07-26T09:03:52Z</time>
      </trkpt>
      <trkpt lat="41.872755" lon="2.623568">
        <ele>167.542</ele>
        <time>2020-07-26T09:03:53Z</time>
      </trkpt>
      <trkpt lat="41.872755" lon="2.623687">
        <ele>167.226</ele>
        <time>2020-07-26T09:03:54Z</time>
      </trkpt>
      <trkpt lat="41.872735" lon="2.623808">
        <ele>166.708</ele>
        <time>2020-07-26T09:03:55Z</time>
      </trkpt>
      <trkpt lat="41.872702" lon="2.623921">
        <ele>166.541</ele>
        <time>2020-07-26T09:03:56Z</time>
      </trkpt>
      <trkpt lat="41.872663" lon="2.624027">
        <ele>166.139</ele>
        <time>2020-07-26T09:03:57Z</time>
      </trkpt>
      <trkpt lat="41.872621" lon="2.624134">
        <ele>165.712</ele>
        <time>2020-07-26T09:03:58Z</time>
      </trkpt>
      <trkpt lat="41.872577" lon="2.624239">
        <ele>165.317</ele>
        <time>2020-07-26T09:03:59Z</time>
      </trkpt>
      <trkpt lat="41.872537" lon="2.624343">
        <ele>165.155</ele>
        <time>2020-07-26T09:04:00Z</time>
      </trkpt>
      <trkpt lat="41.872510" lon="2.624455">
        <ele>164.928</ele>
        <time>2020-07-26T09:04:01Z</time>
      </trkpt>
      <trkpt lat="41.872492" lon="2.624571">
        <ele>164.592</ele>
        <time>2020-07-26T09:04:02Z</time>
      </trkpt>
      <trkpt lat="41.872486" lon="2.624688">
        <ele>164.318</ele>
        <time>2020-07-26T09:04:03Z</time>
      </trkpt>
      <trkpt lat="41.872487" lon="2.624804">
        <ele>163.933</ele>
        <time>2020-07-26T09:04:04Z</time>
      </trkpt>
      <trkpt lat="41.872497" lon="2.624919">
        <ele>163.523</ele>
        <time>2020-07-26T09:04:05Z</time>
      </trkpt>
      <trkpt lat="41.872512" lon="2.625032">
        <ele>163.115</ele>
        <time>2020-07-26T09:04:06Z</time>
      </trkpt>
      <trkpt lat="41.872528" lon="2.625141">
        <ele>162.708</ele>
        <time>2020-07-26T09:04:07Z</time>
      </trkpt>
      <trkpt lat="41.872554" lon="2.625245">
        <ele>162.578</ele>
        <time>2020-07-26T09:04:08Z</time>
      </trkpt>
      <trkpt lat="41.872587" lon="2.625344">
        <ele>162.166</ele>
        <time>2020-07-26T09:04:09Z</time>
      </trkpt>
      <trkpt lat="41.872621" lon="2.625442">
        <ele>162.119</ele>
        <time>2020-07-26T09:04:10Z</time>
      </trkpt>
      <trkpt lat="41.872713" lon="2.625615">
        <ele>162.084</ele>
        <time>2020-07-26T09:04:12Z</time>
      </trkpt>
      <trkpt lat="41.872811" lon="2.625766">
        <ele>162.042</ele>
        <time>2020-07-26T09:04:14Z</time>
      </trkpt>
      <trkpt lat="41.872911" lon="2.625910">
        <ele>161.835</ele>
        <time>2020-07-26T09:04:16Z</time>
      </trkpt>
      <trkpt lat="41.873005" lon="2.626059">
        <ele>161.879</ele>
        <time>2020-07-26T09:04:18Z</time>
      </trkpt>
      <trkpt lat="41.873093" lon="2.626209">
        <ele>162.125</ele>
        <time>2020-07-26T09:04:20Z</time>
      </trkpt>
      <trkpt lat="41.873168" lon="2.626360">
        <ele>162.122</ele>
        <time>2020-07-26T09:04:22Z</time>
      </trkpt>
      <trkpt lat="41.873213" lon="2.626519">
        <ele>162.462</ele>
        <time>2020-07-26T09:04:24Z</time>
      </trkpt>
      <trkpt lat="41.873249" lon="2.626679">
        <ele>163.008</ele>
        <time>2020-07-26T09:04:26Z</time>
      </trkpt>
      <trkpt lat="41.873331" lon="2.626828">
        <ele>163.408</ele>
        <time>2020-07-26T09:04:28Z</time>
      </trkpt>
      <trkpt lat="41.873401" lon="2.626994">
        <ele>164.057</ele>
        <time>2020-07-26T09:04:30Z</time>
      </trkpt>
      <trkpt lat="41.873429" lon="2.627177">
        <ele>164.455</ele>
        <time>2020-07-26T09:04:32Z</time>
      </trkpt>
      <trkpt lat="41.873448" lon="2.627346">
        <ele>165.278</ele>
        <time>2020-07-26T09:04:34Z</time>
      </trkpt>
      <trkpt lat="41.873459" lon="2.627503">
        <ele>165.693</ele>
        <time>2020-07-26T09:04:36Z</time>
      </trkpt>
      <trkpt lat="41.873473" lon="2.627658">
        <ele>166.231</ele>
        <time>2020-07-26T09:04:38Z</time>
      </trkpt>
      <trkpt lat="41.873481" lon="2.627814">
        <ele>166.894</ele>
        <time>2020-07-26T09:04:40Z</time>
      </trkpt>
      <trkpt lat="41.873464" lon="2.627972">
        <ele>167.488</ele>
        <time>2020-07-26T09:04:42Z</time>
      </trkpt>
      <trkpt lat="41.873410" lon="2.628120">
        <ele>167.884</ele>
        <time>2020-07-26T09:04:44Z</time>
      </trkpt>
      <trkpt lat="41.873373" lon="2.628185">
        <ele>168.078</ele>
        <time>2020-07-26T09:04:45Z</time>
      </trkpt>
      <trkpt lat="41.873333" lon="2.628245">
        <ele>168.133</ele>
        <time>2020-07-26T09:04:46Z</time>
      </trkpt>
      <trkpt lat="41.873289" lon="2.628302">
        <ele>168.226</ele>
        <time>2020-07-26T09:04:47Z</time>
      </trkpt>
      <trkpt lat="41.873244" lon="2.628353">
        <ele>168.308</ele>
        <time>2020-07-26T09:04:48Z</time>
      </trkpt>
      <trkpt lat="41.873203" lon="2.628410">
        <ele>168.312</ele>
        <time>2020-07-26T09:04:49Z</time>
      </trkpt>
      <trkpt lat="41.873158" lon="2.628468">
        <ele>168.330</ele>
        <time>2020-07-26T09:04:50Z</time>
      </trkpt>
      <trkpt lat="41.873108" lon="2.628524">
        <ele>168.323</ele>
        <time>2020-07-26T09:04:51Z</time>
      </trkpt>
      <trkpt lat="41.873057" lon="2.628581">
        <ele>168.348</ele>
        <time>2020-07-26T09:04:52Z</time>
      </trkpt>
      <trkpt lat="41.873005" lon="2.628641">
        <ele>168.136</ele>
        <time>2020-07-26T09:04:53Z</time>
      </trkpt>
      <trkpt lat="41.872951" lon="2.628703">
        <ele>167.949</ele>
        <time>2020-07-26T09:04:54Z</time>
      </trkpt>
      <trkpt lat="41.872896" lon="2.628769">
        <ele>167.543</ele>
        <time>2020-07-26T09:04:55Z</time>
      </trkpt>
      <trkpt lat="41.872843" lon="2.628840">
        <ele>167.369</ele>
        <time>2020-07-26T09:04:56Z</time>
      </trkpt>
      <trkpt lat="41.872794" lon="2.628920">
        <ele>167.124</ele>
        <time>2020-07-26T09:04:57Z</time>
      </trkpt>
      <trkpt lat="41.872753" lon="2.629006">
        <ele>166.804</ele>
        <time>2020-07-26T09:04:58Z</time>
      </trkpt>
      <trkpt lat="41.872727" lon="2.629103">
        <ele>166.714</ele>
        <time>2020-07-26T09:04:59Z</time>
      </trkpt>
      <trkpt lat="41.872706" lon="2.629208">
        <ele>166.308</ele>
        <time>2020-07-26T09:05:00Z</time>
      </trkpt>
      <trkpt lat="41.872705" lon="2.629311">
        <ele>165.817</ele>
        <time>2020-07-26T09:05:01Z</time>
      </trkpt>
      <trkpt lat="41.872712" lon="2.629410">
        <ele>165.355</ele>
        <time>2020-07-26T09:05:02Z</time>
      </trkpt>
      <trkpt lat="41.872764" lon="2.629603">
        <ele>164.978</ele>
        <time>2020-07-26T09:05:04Z</time>
      </trkpt>
      <trkpt lat="41.872872" lon="2.629804">
        <ele>164.143</ele>
        <time>2020-07-26T09:05:06Z</time>
      </trkpt>
      <trkpt lat="41.872931" lon="2.629912">
        <ele>163.771</ele>
        <time>2020-07-26T09:05:07Z</time>
      </trkpt>
      <trkpt lat="41.872990" lon="2.630018">
        <ele>163.364</ele>
        <time>2020-07-26T09:05:08Z</time>
      </trkpt>
      <trkpt lat="41.873063" lon="2.630127">
        <ele>162.928</ele>
        <time>2020-07-26T09:05:09Z</time>
      </trkpt>
      <trkpt lat="41.873140" lon="2.630233">
        <ele>162.544</ele>
        <time>2020-07-26T09:05:10Z</time>
      </trkpt>
      <trkpt lat="41.873205" lon="2.630336">
        <ele>162.168</ele>
        <time>2020-07-26T09:05:11Z</time>
      </trkpt>
      <trkpt lat="41.873262" lon="2.630436">
        <ele>161.742</ele>
        <time>2020-07-26T09:05:12Z</time>
      </trkpt>
      <trkpt lat="41.873314" lon="2.630534">
        <ele>161.626</ele>
        <time>2020-07-26T09:05:13Z</time>
      </trkpt>
      <trkpt lat="41.873366" lon="2.630634">
        <ele>161.608</ele>
        <time>2020-07-26T09:05:14Z</time>
      </trkpt>
      <trkpt lat="41.873417" lon="2.630736">
        <ele>161.871</ele>
        <time>2020-07-26T09:05:15Z</time>
      </trkpt>
      <trkpt lat="41.873474" lon="2.630842">
        <ele>161.119</ele>
        <time>2020-07-26T09:05:16Z</time>
      </trkpt>
      <trkpt lat="41.873523" lon="2.630945">
        <ele>159.932</ele>
        <time>2020-07-26T09:05:17Z</time>
      </trkpt>
      <trkpt lat="41.873570" lon="2.631051">
        <ele>159.087</ele>
        <time>2020-07-26T09:05:18Z</time>
      </trkpt>
      <trkpt lat="41.873611" lon="2.631163">
        <ele>158.575</ele>
        <time>2020-07-26T09:05:19Z</time>
      </trkpt>
      <trkpt lat="41.873643" lon="2.631279">
        <ele>158.338</ele>
        <time>2020-07-26T09:05:20Z</time>
      </trkpt>
      <trkpt lat="41.873671" lon="2.631398">
        <ele>158.192</ele>
        <time>2020-07-26T09:05:21Z</time>
      </trkpt>
      <trkpt lat="41.873690" lon="2.631516">
        <ele>158.038</ele>
        <time>2020-07-26T09:05:22Z</time>
      </trkpt>
      <trkpt lat="41.873707" lon="2.631631">
        <ele>157.982</ele>
        <time>2020-07-26T09:05:23Z</time>
      </trkpt>
      <trkpt lat="41.873722" lon="2.631745">
        <ele>157.743</ele>
        <time>2020-07-26T09:05:24Z</time>
      </trkpt>
      <trkpt lat="41.873734" lon="2.631859">
        <ele>158.117</ele>
        <time>2020-07-26T09:05:25Z</time>
      </trkpt>
      <trkpt lat="41.873745" lon="2.631974">
        <ele>158.308</ele>
        <time>2020-07-26T09:05:26Z</time>
      </trkpt>
      <trkpt lat="41.873757" lon="2.632086">
        <ele>159.063</ele>
        <time>2020-07-26T09:05:27Z</time>
      </trkpt>
      <trkpt lat="41.873769" lon="2.632193">
        <ele>158.791</ele>
        <time>2020-07-26T09:05:28Z</time>
      </trkpt>
      <trkpt lat="41.873785" lon="2.632297">
        <ele>157.774</ele>
        <time>2020-07-26T09:05:29Z</time>
      </trkpt>
      <trkpt lat="41.873809" lon="2.632395">
        <ele>156.819</ele>
        <time>2020-07-26T09:05:30Z</time>
      </trkpt>
      <trkpt lat="41.873841" lon="2.632477">
        <ele>156.037</ele>
        <time>2020-07-26T09:05:31Z</time>
      </trkpt>
      <trkpt lat="41.873872" lon="2.632545">
        <ele>155.210</ele>
        <time>2020-07-26T09:05:32Z</time>
      </trkpt>
      <trkpt lat="41.873927" lon="2.632614">
        <ele>154.514</ele>
        <time>2020-07-26T09:05:33Z</time>
      </trkpt>
      <trkpt lat="41.874005" lon="2.632684">
        <ele>154.370</ele>
        <time>2020-07-26T09:05:34Z</time>
      </trkpt>
      <trkpt lat="41.874086" lon="2.632749">
        <ele>154.121</ele>
        <time>2020-07-26T09:05:35Z</time>
      </trkpt>
      <trkpt lat="41.874166" lon="2.632818">
        <ele>153.941</ele>
        <time>2020-07-26T09:05:36Z</time>
      </trkpt>
      <trkpt lat="41.874241" lon="2.632895">
        <ele>153.505</ele>
        <time>2020-07-26T09:05:37Z</time>
      </trkpt>
      <trkpt lat="41.874309" lon="2.632978">
        <ele>153.308</ele>
        <time>2020-07-26T09:05:38Z</time>
      </trkpt>
      <trkpt lat="41.874376" lon="2.633063">
        <ele>153.417</ele>
        <time>2020-07-26T09:05:39Z</time>
      </trkpt>
      <trkpt lat="41.874436" lon="2.633148">
        <ele>153.545</ele>
        <time>2020-07-26T09:05:40Z</time>
      </trkpt>
      <trkpt lat="41.874495" lon="2.633238">
        <ele>153.398</ele>
        <time>2020-07-26T09:05:41Z</time>
      </trkpt>
      <trkpt lat="41.874554" lon="2.633336">
        <ele>152.983</ele>
        <time>2020-07-26T09:05:42Z</time>
      </trkpt>
      <trkpt lat="41.874609" lon="2.633437">
        <ele>152.511</ele>
        <time>2020-07-26T09:05:43Z</time>
      </trkpt>
      <trkpt lat="41.874658" lon="2.633544">
        <ele>152.094</ele>
        <time>2020-07-26T09:05:44Z</time>
      </trkpt>
      <trkpt lat="41.874702" lon="2.633664">
        <ele>151.258</ele>
        <time>2020-07-26T09:05:45Z</time>
      </trkpt>
      <trkpt lat="41.874732" lon="2.633789">
        <ele>150.424</ele>
        <time>2020-07-26T09:05:46Z</time>
      </trkpt>
      <trkpt lat="41.874755" lon="2.633925">
        <ele>149.858</ele>
        <time>2020-07-26T09:05:47Z</time>
      </trkpt>
      <trkpt lat="41.874758" lon="2.634064">
        <ele>149.152</ele>
        <time>2020-07-26T09:05:48Z</time>
      </trkpt>
      <trkpt lat="41.874751" lon="2.634208">
        <ele>148.717</ele>
        <time>2020-07-26T09:05:49Z</time>
      </trkpt>
      <trkpt lat="41.874744" lon="2.634350">
        <ele>148.308</ele>
        <time>2020-07-26T09:05:50Z</time>
      </trkpt>
      <trkpt lat="41.874737" lon="2.634499">
        <ele>147.830</ele>
        <time>2020-07-26T09:05:51Z</time>
      </trkpt>
      <trkpt lat="41.874710" lon="2.634642">
        <ele>147.168</ele>
        <time>2020-07-26T09:05:52Z</time>
      </trkpt>
      <trkpt lat="41.874661" lon="2.634774">
        <ele>146.561</ele>
        <time>2020-07-26T09:05:53Z</time>
      </trkpt>
      <trkpt lat="41.874610" lon="2.634912">
        <ele>145.536</ele>
        <time>2020-07-26T09:05:54Z</time>
      </trkpt>
      <trkpt lat="41.874563" lon="2.635054">
        <ele>144.774</ele>
        <time>2020-07-26T09:05:55Z</time>
      </trkpt>
      <trkpt lat="41.874531" lon="2.635202">
        <ele>144.397</ele>
        <time>2020-07-26T09:05:56Z</time>
      </trkpt>
      <trkpt lat="41.874511" lon="2.635353">
        <ele>144.251</ele>
        <time>2020-07-26T09:05:57Z</time>
      </trkpt>
      <trkpt lat="41.874502" lon="2.635503">
        <ele>143.657</ele>
        <time>2020-07-26T09:05:58Z</time>
      </trkpt>
      <trkpt lat="41.874495" lon="2.635650">
        <ele>142.962</ele>
        <time>2020-07-26T09:05:59Z</time>
      </trkpt>
      <trkpt lat="41.874480" lon="2.635792">
        <ele>142.583</ele>
        <time>2020-07-26T09:06:00Z</time>
      </trkpt>
      <trkpt lat="41.874456" lon="2.635925">
        <ele>142.111</ele>
        <time>2020-07-26T09:06:01Z</time>
      </trkpt>
      <trkpt lat="41.874419" lon="2.636049">
        <ele>141.808</ele>
        <time>2020-07-26T09:06:02Z</time>
      </trkpt>
      <trkpt lat="41.874372" lon="2.636159">
        <ele>141.241</ele>
        <time>2020-07-26T09:06:03Z</time>
      </trkpt>
      <trkpt lat="41.874323" lon="2.636263">
        <ele>141.319</ele>
        <time>2020-07-26T09:06:04Z</time>
      </trkpt>
      <trkpt lat="41.874271" lon="2.636362">
        <ele>141.172</ele>
        <time>2020-07-26T09:06:05Z</time>
      </trkpt>
      <trkpt lat="41.874213" lon="2.636452">
        <ele>140.917</ele>
        <time>2020-07-26T09:06:06Z</time>
      </trkpt>
      <trkpt lat="41.874146" lon="2.636520">
        <ele>140.775</ele>
        <time>2020-07-26T09:06:07Z</time>
      </trkpt>
      <trkpt lat="41.874071" lon="2.636576">
        <ele>140.648</ele>
        <time>2020-07-26T09:06:08Z</time>
      </trkpt>
      <trkpt lat="41.873996" lon="2.636629">
        <ele>140.552</ele>
        <time>2020-07-26T09:06:09Z</time>
      </trkpt>
      <trkpt lat="41.873925" lon="2.636681">
        <ele>140.398</ele>
        <time>2020-07-26T09:06:10Z</time>
      </trkpt>
      <trkpt lat="41.873858" lon="2.636736">
        <ele>140.115</ele>
        <time>2020-07-26T09:06:11Z</time>
      </trkpt>
      <trkpt lat="41.873790" lon="2.636793">
        <ele>140.165</ele>
        <time>2020-07-26T09:06:12Z</time>
      </trkpt>
      <trkpt lat="41.873726" lon="2.636856">
        <ele>140.111</ele>
        <time>2020-07-26T09:06:13Z</time>
      </trkpt>
      <trkpt lat="41.873664" lon="2.636923">
        <ele>140.208</ele>
        <time>2020-07-26T09:06:14Z</time>
      </trkpt>
      <trkpt lat="41.873605" lon="2.636991">
        <ele>140.326</ele>
        <time>2020-07-26T09:06:15Z</time>
      </trkpt>
      <trkpt lat="41.873548" lon="2.637061">
        <ele>140.324</ele>
        <time>2020-07-26T09:06:16Z</time>
      </trkpt>
      <trkpt lat="41.873490" lon="2.637131">
        <ele>140.477</ele>
        <time>2020-07-26T09:06:17Z</time>
      </trkpt>
      <trkpt lat="41.873434" lon="2.637199">
        <ele>140.662</ele>
        <time>2020-07-26T09:06:18Z</time>
      </trkpt>
      <trkpt lat="41.873382" lon="2.637264">
        <ele>140.610</ele>
        <time>2020-07-26T09:06:19Z</time>
      </trkpt>
      <trkpt lat="41.873329" lon="2.637328">
        <ele>140.613</ele>
        <time>2020-07-26T09:06:20Z</time>
      </trkpt>
      <trkpt lat="41.873276" lon="2.637389">
        <ele>140.917</ele>
        <time>2020-07-26T09:06:21Z</time>
      </trkpt>
      <trkpt lat="41.873226" lon="2.637450">
        <ele>140.813</ele>
        <time>2020-07-26T09:06:22Z</time>
      </trkpt>
      <trkpt lat="41.873175" lon="2.637511">
        <ele>141.098</ele>
        <time>2020-07-26T09:06:23Z</time>
      </trkpt>
      <trkpt lat="41.873124" lon="2.637573">
        <ele>141.215</ele>
        <time>2020-07-26T09:06:24Z</time>
      </trkpt>
      <trkpt lat="41.873075" lon="2.637632">
        <ele>141.426</ele>
        <time>2020-07-26T09:06:25Z</time>
      </trkpt>
      <trkpt lat="41.873028" lon="2.637690">
        <ele>141.608</ele>
        <time>2020-07-26T09:06:26Z</time>
      </trkpt>
      <trkpt lat="41.872977" lon="2.637745">
        <ele>141.844</ele>
        <time>2020-07-26T09:06:27Z</time>
      </trkpt>
      <trkpt lat="41.872928" lon="2.637802">
        <ele>142.032</ele>
        <time>2020-07-26T09:06:28Z</time>
      </trkpt>
      <trkpt lat="41.872879" lon="2.637858">
        <ele>142.255</ele>
        <time>2020-07-26T09:06:29Z</time>
      </trkpt>
      <trkpt lat="41.872829" lon="2.637913">
        <ele>142.430</ele>
        <time>2020-07-26T09:06:30Z</time>
      </trkpt>
      <trkpt lat="41.872780" lon="2.637965">
        <ele>142.638</ele>
        <time>2020-07-26T09:06:31Z</time>
      </trkpt>
      <trkpt lat="41.872732" lon="2.638015">
        <ele>142.861</ele>
        <time>2020-07-26T09:06:32Z</time>
      </trkpt>
      <trkpt lat="41.872686" lon="2.638065">
        <ele>143.035</ele>
        <time>2020-07-26T09:06:33Z</time>
      </trkpt>
      <trkpt lat="41.872637" lon="2.638113">
        <ele>143.171</ele>
        <time>2020-07-26T09:06:34Z</time>
      </trkpt>
      <trkpt lat="41.872589" lon="2.638162">
        <ele>143.161</ele>
        <time>2020-07-26T09:06:35Z</time>
      </trkpt>
      <trkpt lat="41.872541" lon="2.638212">
        <ele>143.121</ele>
        <time>2020-07-26T09:06:36Z</time>
      </trkpt>
      <trkpt lat="41.872488" lon="2.638260">
        <ele>143.013</ele>
        <time>2020-07-26T09:06:37Z</time>
      </trkpt>
      <trkpt lat="41.872433" lon="2.638310">
        <ele>143.208</ele>
        <time>2020-07-26T09:06:38Z</time>
      </trkpt>
      <trkpt lat="41.872380" lon="2.638360">
        <ele>143.381</ele>
        <time>2020-07-26T09:06:39Z</time>
      </trkpt>
      <trkpt lat="41.872325" lon="2.638409">
        <ele>143.059</ele>
        <time>2020-07-26T09:06:40Z</time>
      </trkpt>
      <trkpt lat="41.872268" lon="2.638459">
        <ele>143.052</ele>
        <time>2020-07-26T09:06:41Z</time>
      </trkpt>
      <trkpt lat="41.872216" lon="2.638509">
        <ele>143.217</ele>
        <time>2020-07-26T09:06:42Z</time>
      </trkpt>
      <trkpt lat="41.872160" lon="2.638556">
        <ele>143.345</ele>
        <time>2020-07-26T09:06:43Z</time>
      </trkpt>
      <trkpt lat="41.872102" lon="2.638605">
        <ele>143.148</ele>
        <time>2020-07-26T09:06:44Z</time>
      </trkpt>
      <trkpt lat="41.872043" lon="2.638656">
        <ele>143.232</ele>
        <time>2020-07-26T09:06:45Z</time>
      </trkpt>
      <trkpt lat="41.871985" lon="2.638709">
        <ele>143.388</ele>
        <time>2020-07-26T09:06:46Z</time>
      </trkpt>
      <trkpt lat="41.871928" lon="2.638763">
        <ele>143.199</ele>
        <time>2020-07-26T09:06:47Z</time>
      </trkpt>
      <trkpt lat="41.871871" lon="2.638817">
        <ele>143.107</ele>
        <time>2020-07-26T09:06:48Z</time>
      </trkpt>
      <trkpt lat="41.871815" lon="2.638874">
        <ele>143.127</ele>
        <time>2020-07-26T09:06:49Z</time>
      </trkpt>
      <trkpt lat="41.871760" lon="2.638932">
        <ele>143.108</ele>
        <time>2020-07-26T09:06:50Z</time>
      </trkpt>
      <trkpt lat="41.871706" lon="2.638992">
        <ele>143.084</ele>
        <time>2020-07-26T09:06:51Z</time>
      </trkpt>
      <trkpt lat="41.871651" lon="2.639057">
        <ele>142.952</ele>
        <time>2020-07-26T09:06:52Z</time>
      </trkpt>
      <trkpt lat="41.871597" lon="2.639127">
        <ele>142.745</ele>
        <time>2020-07-26T09:06:53Z</time>
      </trkpt>
      <trkpt lat="41.871545" lon="2.639198">
        <ele>142.330</ele>
        <time>2020-07-26T09:06:54Z</time>
      </trkpt>
      <trkpt lat="41.871491" lon="2.639273">
        <ele>142.028</ele>
        <time>2020-07-26T09:06:55Z</time>
      </trkpt>
      <trkpt lat="41.871437" lon="2.639348">
        <ele>142.041</ele>
        <time>2020-07-26T09:06:56Z</time>
      </trkpt>
      <trkpt lat="41.871382" lon="2.639424">
        <ele>141.965</ele>
        <time>2020-07-26T09:06:57Z</time>
      </trkpt>
      <trkpt lat="41.871330" lon="2.639503">
        <ele>141.891</ele>
        <time>2020-07-26T09:06:58Z</time>
      </trkpt>
      <trkpt lat="41.871280" lon="2.639584">
        <ele>141.724</ele>
        <time>2020-07-26T09:06:59Z</time>
      </trkpt>
      <trkpt lat="41.871229" lon="2.639661">
        <ele>141.604</ele>
        <time>2020-07-26T09:07:00Z</time>
      </trkpt>
      <trkpt lat="41.871180" lon="2.639741">
        <ele>141.514</ele>
        <time>2020-07-26T09:07:01Z</time>
      </trkpt>
      <trkpt lat="41.871135" lon="2.639820">
        <ele>141.108</ele>
        <time>2020-07-26T09:07:02Z</time>
      </trkpt>
      <trkpt lat="41.871039" lon="2.639969">
        <ele>141.117</ele>
        <time>2020-07-26T09:07:04Z</time>
      </trkpt>
      <trkpt lat="41.870990" lon="2.640042">
        <ele>140.965</ele>
        <time>2020-07-26T09:07:05Z</time>
      </trkpt>
      <trkpt lat="41.870938" lon="2.640111">
        <ele>140.818</ele>
        <time>2020-07-26T09:07:06Z</time>
      </trkpt>
      <trkpt lat="41.870881" lon="2.640175">
        <ele>140.833</ele>
        <time>2020-07-26T09:07:07Z</time>
      </trkpt>
      <trkpt lat="41.870828" lon="2.640238">
        <ele>141.091</ele>
        <time>2020-07-26T09:07:08Z</time>
      </trkpt>
      <trkpt lat="41.870776" lon="2.640304">
        <ele>141.064</ele>
        <time>2020-07-26T09:07:09Z</time>
      </trkpt>
      <trkpt lat="41.870725" lon="2.640370">
        <ele>141.288</ele>
        <time>2020-07-26T09:07:10Z</time>
      </trkpt>
      <trkpt lat="41.870675" lon="2.640438">
        <ele>141.324</ele>
        <time>2020-07-26T09:07:11Z</time>
      </trkpt>
      <trkpt lat="41.870625" lon="2.640506">
        <ele>141.319</ele>
        <time>2020-07-26T09:07:12Z</time>
      </trkpt>
      <trkpt lat="41.870574" lon="2.640574">
        <ele>141.309</ele>
        <time>2020-07-26T09:07:13Z</time>
      </trkpt>
      <trkpt lat="41.870523" lon="2.640641">
        <ele>141.319</ele>
        <time>2020-07-26T09:07:14Z</time>
      </trkpt>
      <trkpt lat="41.870472" lon="2.640709">
        <ele>141.308</ele>
        <time>2020-07-26T09:07:15Z</time>
      </trkpt>
      <trkpt lat="41.870421" lon="2.640781">
        <ele>141.136</ele>
        <time>2020-07-26T09:07:16Z</time>
      </trkpt>
      <trkpt lat="41.870371" lon="2.640851">
        <ele>140.964</ele>
        <time>2020-07-26T09:07:17Z</time>
      </trkpt>
      <trkpt lat="41.870320" lon="2.640919">
        <ele>140.717</ele>
        <time>2020-07-26T09:07:18Z</time>
      </trkpt>
      <trkpt lat="41.870270" lon="2.640987">
        <ele>140.622</ele>
        <time>2020-07-26T09:07:19Z</time>
      </trkpt>
      <trkpt lat="41.870223" lon="2.641053">
        <ele>140.820</ele>
        <time>2020-07-26T09:07:20Z</time>
      </trkpt>
      <trkpt lat="41.870174" lon="2.641122">
        <ele>140.763</ele>
        <time>2020-07-26T09:07:21Z</time>
      </trkpt>
      <trkpt lat="41.870126" lon="2.641188">
        <ele>140.697</ele>
        <time>2020-07-26T09:07:22Z</time>
      </trkpt>
      <trkpt lat="41.870077" lon="2.641257">
        <ele>140.523</ele>
        <time>2020-07-26T09:07:23Z</time>
      </trkpt>
      <trkpt lat="41.870029" lon="2.641325">
        <ele>140.326</ele>
        <time>2020-07-26T09:07:24Z</time>
      </trkpt>
      <trkpt lat="41.869980" lon="2.641392">
        <ele>140.347</ele>
        <time>2020-07-26T09:07:25Z</time>
      </trkpt>
      <trkpt lat="41.869930" lon="2.641460">
        <ele>140.311</ele>
        <time>2020-07-26T09:07:26Z</time>
      </trkpt>
      <trkpt lat="41.869880" lon="2.641526">
        <ele>140.308</ele>
        <time>2020-07-26T09:07:27Z</time>
      </trkpt>
      <trkpt lat="41.869830" lon="2.641591">
        <ele>140.167</ele>
        <time>2020-07-26T09:07:28Z</time>
      </trkpt>
      <trkpt lat="41.869780" lon="2.641655">
        <ele>140.135</ele>
        <time>2020-07-26T09:07:29Z</time>
      </trkpt>
      <trkpt lat="41.869731" lon="2.641721">
        <ele>140.018</ele>
        <time>2020-07-26T09:07:30Z</time>
      </trkpt>
      <trkpt lat="41.869682" lon="2.641786">
        <ele>140.013</ele>
        <time>2020-07-26T09:07:31Z</time>
      </trkpt>
      <trkpt lat="41.869634" lon="2.641851">
        <ele>140.121</ele>
        <time>2020-07-26T09:07:32Z</time>
      </trkpt>
      <trkpt lat="41.869585" lon="2.641918">
        <ele>140.094</ele>
        <time>2020-07-26T09:07:33Z</time>
      </trkpt>
      <trkpt lat="41.869538" lon="2.641989">
        <ele>140.098</ele>
        <time>2020-07-26T09:07:34Z</time>
      </trkpt>
      <trkpt lat="41.869489" lon="2.642059">
        <ele>140.174</ele>
        <time>2020-07-26T09:07:35Z</time>
      </trkpt>
      <trkpt lat="41.869441" lon="2.642129">
        <ele>140.088</ele>
        <time>2020-07-26T09:07:36Z</time>
      </trkpt>
      <trkpt lat="41.869393" lon="2.642197">
        <ele>140.024</ele>
        <time>2020-07-26T09:07:37Z</time>
      </trkpt>
      <trkpt lat="41.869345" lon="2.642265">
        <ele>140.126</ele>
        <time>2020-07-26T09:07:38Z</time>
      </trkpt>
      <trkpt lat="41.869298" lon="2.642335">
        <ele>140.108</ele>
        <time>2020-07-26T09:07:39Z</time>
      </trkpt>
      <trkpt lat="41.869249" lon="2.642404">
        <ele>140.073</ele>
        <time>2020-07-26T09:07:40Z</time>
      </trkpt>
      <trkpt lat="41.869202" lon="2.642475">
        <ele>140.111</ele>
        <time>2020-07-26T09:07:41Z</time>
      </trkpt>
      <trkpt lat="41.869155" lon="2.642542">
        <ele>139.944</ele>
        <time>2020-07-26T09:07:42Z</time>
      </trkpt>
      <trkpt lat="41.869107" lon="2.642609">
        <ele>139.829</ele>
        <time>2020-07-26T09:07:43Z</time>
      </trkpt>
      <trkpt lat="41.869058" lon="2.642677">
        <ele>139.877</ele>
        <time>2020-07-26T09:07:44Z</time>
      </trkpt>
      <trkpt lat="41.869009" lon="2.642746">
        <ele>139.720</ele>
        <time>2020-07-26T09:07:45Z</time>
      </trkpt>
      <trkpt lat="41.868959" lon="2.642816">
        <ele>139.644</ele>
        <time>2020-07-26T09:07:46Z</time>
      </trkpt>
      <trkpt lat="41.868909" lon="2.642887">
        <ele>140.040</ele>
        <time>2020-07-26T09:07:47Z</time>
      </trkpt>
      <trkpt lat="41.868860" lon="2.642958">
        <ele>139.916</ele>
        <time>2020-07-26T09:07:48Z</time>
      </trkpt>
      <trkpt lat="41.868810" lon="2.643030">
        <ele>139.776</ele>
        <time>2020-07-26T09:07:49Z</time>
      </trkpt>
      <trkpt lat="41.868760" lon="2.643101">
        <ele>139.313</ele>
        <time>2020-07-26T09:07:50Z</time>
      </trkpt>
      <trkpt lat="41.868709" lon="2.643172">
        <ele>139.008</ele>
        <time>2020-07-26T09:07:51Z</time>
      </trkpt>
      <trkpt lat="41.868659" lon="2.643243">
        <ele>139.056</ele>
        <time>2020-07-26T09:07:52Z</time>
      </trkpt>
      <trkpt lat="41.868608" lon="2.643317">
        <ele>139.154</ele>
        <time>2020-07-26T09:07:53Z</time>
      </trkpt>
      <trkpt lat="41.868559" lon="2.643389">
        <ele>138.917</ele>
        <time>2020-07-26T09:07:54Z</time>
      </trkpt>
      <trkpt lat="41.868511" lon="2.643461">
        <ele>138.792</ele>
        <time>2020-07-26T09:07:55Z</time>
      </trkpt>
      <trkpt lat="41.868463" lon="2.643534">
        <ele>138.350</ele>
        <time>2020-07-26T09:07:56Z</time>
      </trkpt>
      <trkpt lat="41.868415" lon="2.643608">
        <ele>138.183</ele>
        <time>2020-07-26T09:07:57Z</time>
      </trkpt>
      <trkpt lat="41.868368" lon="2.643682">
        <ele>137.937</ele>
        <time>2020-07-26T09:07:58Z</time>
      </trkpt>
      <trkpt lat="41.868320" lon="2.643754">
        <ele>137.543</ele>
        <time>2020-07-26T09:07:59Z</time>
      </trkpt>
      <trkpt lat="41.868273" lon="2.643827">
        <ele>137.319</ele>
        <time>2020-07-26T09:08:00Z</time>
      </trkpt>
      <trkpt lat="41.868226" lon="2.643897">
        <ele>137.109</ele>
        <time>2020-07-26T09:08:01Z</time>
      </trkpt>
      <trkpt lat="41.868181" lon="2.643968">
        <ele>137.119</ele>
        <time>2020-07-26T09:08:02Z</time>
      </trkpt>
      <trkpt lat="41.868135" lon="2.644041">
        <ele>137.108</ele>
        <time>2020-07-26T09:08:03Z</time>
      </trkpt>
      <trkpt lat="41.868087" lon="2.644114">
        <ele>137.036</ele>
        <time>2020-07-26T09:08:04Z</time>
      </trkpt>
      <trkpt lat="41.868041" lon="2.644185">
        <ele>137.094</ele>
        <time>2020-07-26T09:08:05Z</time>
      </trkpt>
      <trkpt lat="41.867995" lon="2.644256">
        <ele>137.027</ele>
        <time>2020-07-26T09:08:06Z</time>
      </trkpt>
      <trkpt lat="41.867948" lon="2.644328">
        <ele>137.142</ele>
        <time>2020-07-26T09:08:07Z</time>
      </trkpt>
      <trkpt lat="41.867902" lon="2.644400">
        <ele>137.130</ele>
        <time>2020-07-26T09:08:08Z</time>
      </trkpt>
      <trkpt lat="41.867855" lon="2.644472">
        <ele>137.073</ele>
        <time>2020-07-26T09:08:09Z</time>
      </trkpt>
      <trkpt lat="41.867807" lon="2.644543">
        <ele>137.047</ele>
        <time>2020-07-26T09:08:10Z</time>
      </trkpt>
      <trkpt lat="41.867758" lon="2.644612">
        <ele>137.073</ele>
        <time>2020-07-26T09:08:11Z</time>
      </trkpt>
      <trkpt lat="41.867709" lon="2.644682">
        <ele>137.016</ele>
        <time>2020-07-26T09:08:12Z</time>
      </trkpt>
      <trkpt lat="41.867662" lon="2.644753">
        <ele>136.976</ele>
        <time>2020-07-26T09:08:13Z</time>
      </trkpt>
      <trkpt lat="41.867614" lon="2.644826">
        <ele>136.513</ele>
        <time>2020-07-26T09:08:14Z</time>
      </trkpt>
      <trkpt lat="41.867566" lon="2.644899">
        <ele>136.108</ele>
        <time>2020-07-26T09:08:15Z</time>
      </trkpt>
      <trkpt lat="41.867518" lon="2.644971">
        <ele>136.116</ele>
        <time>2020-07-26T09:08:16Z</time>
      </trkpt>
      <trkpt lat="41.867471" lon="2.645045">
        <ele>136.144</ele>
        <time>2020-07-26T09:08:17Z</time>
      </trkpt>
      <trkpt lat="41.867423" lon="2.645118">
        <ele>135.877</ele>
        <time>2020-07-26T09:08:18Z</time>
      </trkpt>
      <trkpt lat="41.867375" lon="2.645190">
        <ele>135.152</ele>
        <time>2020-07-26T09:08:19Z</time>
      </trkpt>
      <trkpt lat="41.867327" lon="2.645262">
        <ele>134.920</ele>
        <time>2020-07-26T09:08:20Z</time>
      </trkpt>
      <trkpt lat="41.867279" lon="2.645335">
        <ele>134.873</ele>
        <time>2020-07-26T09:08:21Z</time>
      </trkpt>
      <trkpt lat="41.867232" lon="2.645408">
        <ele>134.767</ele>
        <time>2020-07-26T09:08:22Z</time>
      </trkpt>
      <trkpt lat="41.867183" lon="2.645482">
        <ele>134.343</ele>
        <time>2020-07-26T09:08:23Z</time>
      </trkpt>
      <trkpt lat="41.867134" lon="2.645555">
        <ele>134.042</ele>
        <time>2020-07-26T09:08:24Z</time>
      </trkpt>
      <trkpt lat="41.867086" lon="2.645629">
        <ele>133.922</ele>
        <time>2020-07-26T09:08:25Z</time>
      </trkpt>
      <trkpt lat="41.867038" lon="2.645702">
        <ele>133.814</ele>
        <time>2020-07-26T09:08:26Z</time>
      </trkpt>
      <trkpt lat="41.866989" lon="2.645775">
        <ele>133.808</ele>
        <time>2020-07-26T09:08:27Z</time>
      </trkpt>
      <trkpt lat="41.866940" lon="2.645849">
        <ele>133.939</ele>
        <time>2020-07-26T09:08:28Z</time>
      </trkpt>
      <trkpt lat="41.866891" lon="2.645922">
        <ele>133.647</ele>
        <time>2020-07-26T09:08:29Z</time>
      </trkpt>
      <trkpt lat="41.866843" lon="2.645996">
        <ele>133.550</ele>
        <time>2020-07-26T09:08:30Z</time>
      </trkpt>
      <trkpt lat="41.866795" lon="2.646069">
        <ele>133.355</ele>
        <time>2020-07-26T09:08:31Z</time>
      </trkpt>
      <trkpt lat="41.866747" lon="2.646141">
        <ele>133.313</ele>
        <time>2020-07-26T09:08:32Z</time>
      </trkpt>
      <trkpt lat="41.866700" lon="2.646214">
        <ele>133.156</ele>
        <time>2020-07-26T09:08:33Z</time>
      </trkpt>
      <trkpt lat="41.866654" lon="2.646286">
        <ele>133.030</ele>
        <time>2020-07-26T09:08:34Z</time>
      </trkpt>
      <trkpt lat="41.866608" lon="2.646357">
        <ele>132.996</ele>
        <time>2020-07-26T09:08:35Z</time>
      </trkpt>
      <trkpt lat="41.866560" lon="2.646428">
        <ele>132.759</ele>
        <time>2020-07-26T09:08:36Z</time>
      </trkpt>
      <trkpt lat="41.866513" lon="2.646498">
        <ele>132.503</ele>
        <time>2020-07-26T09:08:37Z</time>
      </trkpt>
      <trkpt lat="41.866466" lon="2.646569">
        <ele>132.323</ele>
        <time>2020-07-26T09:08:38Z</time>
      </trkpt>
      <trkpt lat="41.866418" lon="2.646641">
        <ele>132.308</ele>
        <time>2020-07-26T09:08:39Z</time>
      </trkpt>
      <trkpt lat="41.866371" lon="2.646713">
        <ele>131.950</ele>
        <time>2020-07-26T09:08:40Z</time>
      </trkpt>
      <trkpt lat="41.866324" lon="2.646786">
        <ele>131.848</ele>
        <time>2020-07-26T09:08:41Z</time>
      </trkpt>
      <trkpt lat="41.866278" lon="2.646858">
        <ele>131.841</ele>
        <time>2020-07-26T09:08:42Z</time>
      </trkpt>
      <trkpt lat="41.866231" lon="2.646930">
        <ele>131.866</ele>
        <time>2020-07-26T09:08:43Z</time>
      </trkpt>
      <trkpt lat="41.866183" lon="2.647002">
        <ele>131.824</ele>
        <time>2020-07-26T09:08:44Z</time>
      </trkpt>
      <trkpt lat="41.866136" lon="2.647073">
        <ele>131.797</ele>
        <time>2020-07-26T09:08:45Z</time>
      </trkpt>
      <trkpt lat="41.866089" lon="2.647144">
        <ele>131.651</ele>
        <time>2020-07-26T09:08:46Z</time>
      </trkpt>
      <trkpt lat="41.866044" lon="2.647215">
        <ele>131.697</ele>
        <time>2020-07-26T09:08:47Z</time>
      </trkpt>
      <trkpt lat="41.865998" lon="2.647283">
        <ele>131.596</ele>
        <time>2020-07-26T09:08:48Z</time>
      </trkpt>
      <trkpt lat="41.865953" lon="2.647352">
        <ele>131.431</ele>
        <time>2020-07-26T09:08:49Z</time>
      </trkpt>
      <trkpt lat="41.865907" lon="2.647420">
        <ele>131.724</ele>
        <time>2020-07-26T09:08:50Z</time>
      </trkpt>
      <trkpt lat="41.865861" lon="2.647489">
        <ele>131.308</ele>
        <time>2020-07-26T09:08:51Z</time>
      </trkpt>
      <trkpt lat="41.865816" lon="2.647558">
        <ele>131.464</ele>
        <time>2020-07-26T09:08:52Z</time>
      </trkpt>
      <trkpt lat="41.865771" lon="2.647627">
        <ele>131.682</ele>
        <time>2020-07-26T09:08:53Z</time>
      </trkpt>
      <trkpt lat="41.865727" lon="2.647697">
        <ele>131.865</ele>
        <time>2020-07-26T09:08:54Z</time>
      </trkpt>
      <trkpt lat="41.865681" lon="2.647767">
        <ele>131.980</ele>
        <time>2020-07-26T09:08:55Z</time>
      </trkpt>
      <trkpt lat="41.865636" lon="2.647836">
        <ele>131.678</ele>
        <time>2020-07-26T09:08:56Z</time>
      </trkpt>
      <trkpt lat="41.865590" lon="2.647906">
        <ele>131.691</ele>
        <time>2020-07-26T09:08:57Z</time>
      </trkpt>
      <trkpt lat="41.865545" lon="2.647977">
        <ele>131.525</ele>
        <time>2020-07-26T09:08:58Z</time>
      </trkpt>
      <trkpt lat="41.865500" lon="2.648046">
        <ele>131.241</ele>
        <time>2020-07-26T09:08:59Z</time>
      </trkpt>
      <trkpt lat="41.865455" lon="2.648116">
        <ele>131.355</ele>
        <time>2020-07-26T09:09:00Z</time>
      </trkpt>
      <trkpt lat="41.865408" lon="2.648187">
        <ele>131.107</ele>
        <time>2020-07-26T09:09:01Z</time>
      </trkpt>
      <trkpt lat="41.865362" lon="2.648260">
        <ele>130.917</ele>
        <time>2020-07-26T09:09:02Z</time>
      </trkpt>
      <trkpt lat="41.865316" lon="2.648332">
        <ele>130.708</ele>
        <time>2020-07-26T09:09:03Z</time>
      </trkpt>
      <trkpt lat="41.865269" lon="2.648404">
        <ele>130.530</ele>
        <time>2020-07-26T09:09:04Z</time>
      </trkpt>
      <trkpt lat="41.865222" lon="2.648475">
        <ele>130.418</ele>
        <time>2020-07-26T09:09:05Z</time>
      </trkpt>
      <trkpt lat="41.865176" lon="2.648547">
        <ele>130.531</ele>
        <time>2020-07-26T09:09:06Z</time>
      </trkpt>
      <trkpt lat="41.865129" lon="2.648618">
        <ele>130.216</ele>
        <time>2020-07-26T09:09:07Z</time>
      </trkpt>
      <trkpt lat="41.865081" lon="2.648688">
        <ele>130.344</ele>
        <time>2020-07-26T09:09:08Z</time>
      </trkpt>
      <trkpt lat="41.865036" lon="2.648757">
        <ele>130.347</ele>
        <time>2020-07-26T09:09:09Z</time>
      </trkpt>
      <trkpt lat="41.864990" lon="2.648827">
        <ele>130.441</ele>
        <time>2020-07-26T09:09:10Z</time>
      </trkpt>
      <trkpt lat="41.864945" lon="2.648898">
        <ele>130.687</ele>
        <time>2020-07-26T09:09:11Z</time>
      </trkpt>
      <trkpt lat="41.864900" lon="2.648970">
        <ele>130.823</ele>
        <time>2020-07-26T09:09:12Z</time>
      </trkpt>
      <trkpt lat="41.864857" lon="2.649044">
        <ele>130.783</ele>
        <time>2020-07-26T09:09:13Z</time>
      </trkpt>
      <trkpt lat="41.864816" lon="2.649120">
        <ele>130.611</ele>
        <time>2020-07-26T09:09:14Z</time>
      </trkpt>
      <trkpt lat="41.864777" lon="2.649199">
        <ele>130.608</ele>
        <time>2020-07-26T09:09:15Z</time>
      </trkpt>
      <trkpt lat="41.864741" lon="2.649280">
        <ele>130.677</ele>
        <time>2020-07-26T09:09:16Z</time>
      </trkpt>
      <trkpt lat="41.864708" lon="2.649363">
        <ele>130.835</ele>
        <time>2020-07-26T09:09:17Z</time>
      </trkpt>
      <trkpt lat="41.864677" lon="2.649442">
        <ele>131.298</ele>
        <time>2020-07-26T09:09:18Z</time>
      </trkpt>
      <trkpt lat="41.864646" lon="2.649521">
        <ele>132.013</ele>
        <time>2020-07-26T09:09:19Z</time>
      </trkpt>
      <trkpt lat="41.864615" lon="2.649596">
        <ele>132.251</ele>
        <time>2020-07-26T09:09:20Z</time>
      </trkpt>
      <trkpt lat="41.864587" lon="2.649670">
        <ele>132.384</ele>
        <time>2020-07-26T09:09:21Z</time>
      </trkpt>
      <trkpt lat="41.864556" lon="2.649745">
        <ele>132.358</ele>
        <time>2020-07-26T09:09:22Z</time>
      </trkpt>
      <trkpt lat="41.864525" lon="2.649828">
        <ele>132.884</ele>
        <time>2020-07-26T09:09:23Z</time>
      </trkpt>
      <trkpt lat="41.864496" lon="2.649911">
        <ele>133.034</ele>
        <time>2020-07-26T09:09:24Z</time>
      </trkpt>
      <trkpt lat="41.864462" lon="2.649999">
        <ele>132.355</ele>
        <time>2020-07-26T09:09:25Z</time>
      </trkpt>
      <trkpt lat="41.864428" lon="2.650086">
        <ele>131.410</ele>
        <time>2020-07-26T09:09:26Z</time>
      </trkpt>
      <trkpt lat="41.864396" lon="2.650169">
        <ele>130.608</ele>
        <time>2020-07-26T09:09:27Z</time>
      </trkpt>
      <trkpt lat="41.864367" lon="2.650250">
        <ele>130.128</ele>
        <time>2020-07-26T09:09:28Z</time>
      </trkpt>
      <trkpt lat="41.864336" lon="2.650331">
        <ele>129.926</ele>
        <time>2020-07-26T09:09:29Z</time>
      </trkpt>
      <trkpt lat="41.864305" lon="2.650411">
        <ele>129.639</ele>
        <time>2020-07-26T09:09:30Z</time>
      </trkpt>
      <trkpt lat="41.864274" lon="2.650488">
        <ele>129.714</ele>
        <time>2020-07-26T09:09:31Z</time>
      </trkpt>
      <trkpt lat="41.864243" lon="2.650567">
        <ele>129.332</ele>
        <time>2020-07-26T09:09:32Z</time>
      </trkpt>
      <trkpt lat="41.864211" lon="2.650645">
        <ele>128.935</ele>
        <time>2020-07-26T09:09:33Z</time>
      </trkpt>
      <trkpt lat="41.864179" lon="2.650722">
        <ele>128.569</ele>
        <time>2020-07-26T09:09:34Z</time>
      </trkpt>
      <trkpt lat="41.864147" lon="2.650798">
        <ele>128.135</ele>
        <time>2020-07-26T09:09:35Z</time>
      </trkpt>
      <trkpt lat="41.864115" lon="2.650874">
        <ele>128.118</ele>
        <time>2020-07-26T09:09:36Z</time>
      </trkpt>
      <trkpt lat="41.864083" lon="2.650951">
        <ele>128.198</ele>
        <time>2020-07-26T09:09:37Z</time>
      </trkpt>
      <trkpt lat="41.864052" lon="2.651029">
        <ele>128.017</ele>
        <time>2020-07-26T09:09:38Z</time>
      </trkpt>
      <trkpt lat="41.864021" lon="2.651109">
        <ele>128.208</ele>
        <time>2020-07-26T09:09:39Z</time>
      </trkpt>
      <trkpt lat="41.863987" lon="2.651192">
        <ele>128.456</ele>
        <time>2020-07-26T09:09:40Z</time>
      </trkpt>
      <trkpt lat="41.863952" lon="2.651276">
        <ele>128.714</ele>
        <time>2020-07-26T09:09:41Z</time>
      </trkpt>
      <trkpt lat="41.863917" lon="2.651361">
        <ele>128.437</ele>
        <time>2020-07-26T09:09:42Z</time>
      </trkpt>
      <trkpt lat="41.863881" lon="2.651448">
        <ele>127.832</ele>
        <time>2020-07-26T09:09:43Z</time>
      </trkpt>
      <trkpt lat="41.863846" lon="2.651534">
        <ele>127.350</ele>
        <time>2020-07-26T09:09:44Z</time>
      </trkpt>
      <trkpt lat="41.863809" lon="2.651622">
        <ele>127.133</ele>
        <time>2020-07-26T09:09:45Z</time>
      </trkpt>
      <trkpt lat="41.863771" lon="2.651707">
        <ele>126.757</ele>
        <time>2020-07-26T09:09:46Z</time>
      </trkpt>
      <trkpt lat="41.863736" lon="2.651794">
        <ele>126.663</ele>
        <time>2020-07-26T09:09:47Z</time>
      </trkpt>
      <trkpt lat="41.863699" lon="2.651882">
        <ele>126.738</ele>
        <time>2020-07-26T09:09:48Z</time>
      </trkpt>
      <trkpt lat="41.863664" lon="2.651972">
        <ele>126.370</ele>
        <time>2020-07-26T09:09:49Z</time>
      </trkpt>
      <trkpt lat="41.863629" lon="2.652062">
        <ele>126.017</ele>
        <time>2020-07-26T09:09:50Z</time>
      </trkpt>
      <trkpt lat="41.863593" lon="2.652151">
        <ele>126.108</ele>
        <time>2020-07-26T09:09:51Z</time>
      </trkpt>
      <trkpt lat="41.863557" lon="2.652240">
        <ele>126.198</ele>
        <time>2020-07-26T09:09:52Z</time>
      </trkpt>
      <trkpt lat="41.863521" lon="2.652329">
        <ele>126.156</ele>
        <time>2020-07-26T09:09:53Z</time>
      </trkpt>
      <trkpt lat="41.863484" lon="2.652417">
        <ele>125.859</ele>
        <time>2020-07-26T09:09:54Z</time>
      </trkpt>
      <trkpt lat="41.863446" lon="2.652506">
        <ele>126.064</ele>
        <time>2020-07-26T09:09:55Z</time>
      </trkpt>
      <trkpt lat="41.863409" lon="2.652594">
        <ele>126.312</ele>
        <time>2020-07-26T09:09:56Z</time>
      </trkpt>
      <trkpt lat="41.863372" lon="2.652684">
        <ele>126.195</ele>
        <time>2020-07-26T09:09:57Z</time>
      </trkpt>
      <trkpt lat="41.863335" lon="2.652774">
        <ele>125.869</ele>
        <time>2020-07-26T09:09:58Z</time>
      </trkpt>
      <trkpt lat="41.863298" lon="2.652863">
        <ele>125.895</ele>
        <time>2020-07-26T09:09:59Z</time>
      </trkpt>
      <trkpt lat="41.863262" lon="2.652953">
        <ele>125.914</ele>
        <time>2020-07-26T09:10:00Z</time>
      </trkpt>
      <trkpt lat="41.863225" lon="2.653042">
        <ele>125.854</ele>
        <time>2020-07-26T09:10:01Z</time>
      </trkpt>
      <trkpt lat="41.863189" lon="2.653131">
        <ele>125.809</ele>
        <time>2020-07-26T09:10:02Z</time>
      </trkpt>
      <trkpt lat="41.863153" lon="2.653218">
        <ele>125.708</ele>
        <time>2020-07-26T09:10:03Z</time>
      </trkpt>
      <trkpt lat="41.863117" lon="2.653306">
        <ele>125.566</ele>
        <time>2020-07-26T09:10:04Z</time>
      </trkpt>
      <trkpt lat="41.863081" lon="2.653395">
        <ele>125.184</ele>
        <time>2020-07-26T09:10:05Z</time>
      </trkpt>
      <trkpt lat="41.863045" lon="2.653482">
        <ele>125.017</ele>
        <time>2020-07-26T09:10:06Z</time>
      </trkpt>
      <trkpt lat="41.863009" lon="2.653569">
        <ele>125.172</ele>
        <time>2020-07-26T09:10:07Z</time>
      </trkpt>
      <trkpt lat="41.862973" lon="2.653654">
        <ele>124.940</ele>
        <time>2020-07-26T09:10:08Z</time>
      </trkpt>
      <trkpt lat="41.862938" lon="2.653740">
        <ele>124.773</ele>
        <time>2020-07-26T09:10:09Z</time>
      </trkpt>
      <trkpt lat="41.862902" lon="2.653827">
        <ele>124.417</ele>
        <time>2020-07-26T09:10:10Z</time>
      </trkpt>
      <trkpt lat="41.862866" lon="2.653913">
        <ele>124.473</ele>
        <time>2020-07-26T09:10:11Z</time>
      </trkpt>
      <trkpt lat="41.862831" lon="2.654000">
        <ele>124.663</ele>
        <time>2020-07-26T09:10:12Z</time>
      </trkpt>
      <trkpt lat="41.862797" lon="2.654086">
        <ele>124.844</ele>
        <time>2020-07-26T09:10:13Z</time>
      </trkpt>
      <trkpt lat="41.862761" lon="2.654170">
        <ele>124.818</ele>
        <time>2020-07-26T09:10:14Z</time>
      </trkpt>
      <trkpt lat="41.862727" lon="2.654254">
        <ele>124.708</ele>
        <time>2020-07-26T09:10:15Z</time>
      </trkpt>
      <trkpt lat="41.862692" lon="2.654337">
        <ele>124.521</ele>
        <time>2020-07-26T09:10:16Z</time>
      </trkpt>
      <trkpt lat="41.862656" lon="2.654421">
        <ele>124.539</ele>
        <time>2020-07-26T09:10:17Z</time>
      </trkpt>
      <trkpt lat="41.862620" lon="2.654503">
        <ele>124.472</ele>
        <time>2020-07-26T09:10:18Z</time>
      </trkpt>
      <trkpt lat="41.862584" lon="2.654584">
        <ele>123.767</ele>
        <time>2020-07-26T09:10:19Z</time>
      </trkpt>
      <trkpt lat="41.862547" lon="2.654668">
        <ele>123.315</ele>
        <time>2020-07-26T09:10:20Z</time>
      </trkpt>
      <trkpt lat="41.862512" lon="2.654752">
        <ele>122.988</ele>
        <time>2020-07-26T09:10:21Z</time>
      </trkpt>
      <trkpt lat="41.862479" lon="2.654837">
        <ele>122.512</ele>
        <time>2020-07-26T09:10:22Z</time>
      </trkpt>
      <trkpt lat="41.862444" lon="2.654922">
        <ele>122.388</ele>
        <time>2020-07-26T09:10:23Z</time>
      </trkpt>
      <trkpt lat="41.862409" lon="2.655008">
        <ele>122.229</ele>
        <time>2020-07-26T09:10:24Z</time>
      </trkpt>
      <trkpt lat="41.862374" lon="2.655094">
        <ele>122.300</ele>
        <time>2020-07-26T09:10:25Z</time>
      </trkpt>
      <trkpt lat="41.862340" lon="2.655181">
        <ele>122.120</ele>
        <time>2020-07-26T09:10:26Z</time>
      </trkpt>
      <trkpt lat="41.862304" lon="2.655268">
        <ele>122.008</ele>
        <time>2020-07-26T09:10:27Z</time>
      </trkpt>
      <trkpt lat="41.862273" lon="2.655353">
        <ele>122.497</ele>
        <time>2020-07-26T09:10:28Z</time>
      </trkpt>
      <trkpt lat="41.862239" lon="2.655440">
        <ele>122.335</ele>
        <time>2020-07-26T09:10:29Z</time>
      </trkpt>
      <trkpt lat="41.862206" lon="2.655526">
        <ele>122.198</ele>
        <time>2020-07-26T09:10:30Z</time>
      </trkpt>
      <trkpt lat="41.862173" lon="2.655611">
        <ele>122.233</ele>
        <time>2020-07-26T09:10:31Z</time>
      </trkpt>
      <trkpt lat="41.862137" lon="2.655696">
        <ele>122.391</ele>
        <time>2020-07-26T09:10:32Z</time>
      </trkpt>
      <trkpt lat="41.862101" lon="2.655780">
        <ele>122.184</ele>
        <time>2020-07-26T09:10:33Z</time>
      </trkpt>
      <trkpt lat="41.862062" lon="2.655862">
        <ele>121.788</ele>
        <time>2020-07-26T09:10:34Z</time>
      </trkpt>
      <trkpt lat="41.862026" lon="2.655950">
        <ele>121.524</ele>
        <time>2020-07-26T09:10:35Z</time>
      </trkpt>
      <trkpt lat="41.861988" lon="2.656037">
        <ele>121.446</ele>
        <time>2020-07-26T09:10:36Z</time>
      </trkpt>
      <trkpt lat="41.861950" lon="2.656124">
        <ele>120.688</ele>
        <time>2020-07-26T09:10:37Z</time>
      </trkpt>
      <trkpt lat="41.861916" lon="2.656211">
        <ele>120.116</ele>
        <time>2020-07-26T09:10:38Z</time>
      </trkpt>
      <trkpt lat="41.861883" lon="2.656298">
        <ele>119.708</ele>
        <time>2020-07-26T09:10:39Z</time>
      </trkpt>
      <trkpt lat="41.861853" lon="2.656385">
        <ele>119.399</ele>
        <time>2020-07-26T09:10:40Z</time>
      </trkpt>
      <trkpt lat="41.861834" lon="2.656473">
        <ele>119.187</ele>
        <time>2020-07-26T09:10:41Z</time>
      </trkpt>
      <trkpt lat="41.861827" lon="2.656564">
        <ele>119.160</ele>
        <time>2020-07-26T09:10:42Z</time>
      </trkpt>
      <trkpt lat="41.861830" lon="2.656654">
        <ele>118.975</ele>
        <time>2020-07-26T09:10:43Z</time>
      </trkpt>
      <trkpt lat="41.861840" lon="2.656744">
        <ele>118.773</ele>
        <time>2020-07-26T09:10:44Z</time>
      </trkpt>
      <trkpt lat="41.861855" lon="2.656828">
        <ele>118.656</ele>
        <time>2020-07-26T09:10:45Z</time>
      </trkpt>
      <trkpt lat="41.861874" lon="2.656903">
        <ele>119.060</ele>
        <time>2020-07-26T09:10:46Z</time>
      </trkpt>
      <trkpt lat="41.861893" lon="2.656975">
        <ele>119.446</ele>
        <time>2020-07-26T09:10:47Z</time>
      </trkpt>
      <trkpt lat="41.861909" lon="2.657046">
        <ele>119.847</ele>
        <time>2020-07-26T09:10:48Z</time>
      </trkpt>
      <trkpt lat="41.861927" lon="2.657113">
        <ele>120.029</ele>
        <time>2020-07-26T09:10:49Z</time>
      </trkpt>
      <trkpt lat="41.861946" lon="2.657178">
        <ele>120.421</ele>
        <time>2020-07-26T09:10:50Z</time>
      </trkpt>
      <trkpt lat="41.861966" lon="2.657243">
        <ele>120.508</ele>
        <time>2020-07-26T09:10:51Z</time>
      </trkpt>
      <trkpt lat="41.861983" lon="2.657306">
        <ele>120.219</ele>
        <time>2020-07-26T09:10:52Z</time>
      </trkpt>
      <trkpt lat="41.862001" lon="2.657364">
        <ele>120.557</ele>
        <time>2020-07-26T09:10:53Z</time>
      </trkpt>
      <trkpt lat="41.862019" lon="2.657422">
        <ele>120.110</ele>
        <time>2020-07-26T09:10:54Z</time>
      </trkpt>
      <trkpt lat="41.862032" lon="2.657480">
        <ele>120.165</ele>
        <time>2020-07-26T09:10:55Z</time>
      </trkpt>
      <trkpt lat="41.862049" lon="2.657536">
        <ele>120.053</ele>
        <time>2020-07-26T09:10:56Z</time>
      </trkpt>
      <trkpt lat="41.862066" lon="2.657594">
        <ele>120.126</ele>
        <time>2020-07-26T09:10:57Z</time>
      </trkpt>
      <trkpt lat="41.862089" lon="2.657653">
        <ele>119.890</ele>
        <time>2020-07-26T09:10:58Z</time>
      </trkpt>
      <trkpt lat="41.862114" lon="2.657704">
        <ele>119.886</ele>
        <time>2020-07-26T09:10:59Z</time>
      </trkpt>
      <trkpt lat="41.862142" lon="2.657743">
        <ele>119.723</ele>
        <time>2020-07-26T09:11:00Z</time>
      </trkpt>
      <trkpt lat="41.862181" lon="2.657758">
        <ele>119.483</ele>
        <time>2020-07-26T09:11:01Z</time>
      </trkpt>
      <trkpt lat="41.862242" lon="2.657768">
        <ele>118.911</ele>
        <time>2020-07-26T09:11:02Z</time>
      </trkpt>
      <trkpt lat="41.862310" lon="2.657769">
        <ele>118.508</ele>
        <time>2020-07-26T09:11:03Z</time>
      </trkpt>
      <trkpt lat="41.862379" lon="2.657765">
        <ele>118.117</ele>
        <time>2020-07-26T09:11:04Z</time>
      </trkpt>
      <trkpt lat="41.862445" lon="2.657746">
        <ele>118.155</ele>
        <time>2020-07-26T09:11:05Z</time>
      </trkpt>
      <trkpt lat="41.862513" lon="2.657725">
        <ele>117.918</ele>
        <time>2020-07-26T09:11:06Z</time>
      </trkpt>
      <trkpt lat="41.862578" lon="2.657710">
        <ele>117.843</ele>
        <time>2020-07-26T09:11:07Z</time>
      </trkpt>
      <trkpt lat="41.862643" lon="2.657700">
        <ele>117.851</ele>
        <time>2020-07-26T09:11:08Z</time>
      </trkpt>
      <trkpt lat="41.862702" lon="2.657682">
        <ele>117.874</ele>
        <time>2020-07-26T09:11:09Z</time>
      </trkpt>
      <trkpt lat="41.862756" lon="2.657664">
        <ele>118.038</ele>
        <time>2020-07-26T09:11:10Z</time>
      </trkpt>
      <trkpt lat="41.862806" lon="2.657646">
        <ele>118.054</ele>
        <time>2020-07-26T09:11:11Z</time>
      </trkpt>
      <trkpt lat="41.862854" lon="2.657627">
        <ele>118.039</ele>
        <time>2020-07-26T09:11:12Z</time>
      </trkpt>
      <trkpt lat="41.862905" lon="2.657606">
        <ele>118.101</ele>
        <time>2020-07-26T09:11:13Z</time>
      </trkpt>
      <trkpt lat="41.862956" lon="2.657583">
        <ele>118.121</ele>
        <time>2020-07-26T09:11:14Z</time>
      </trkpt>
      <trkpt lat="41.863007" lon="2.657559">
        <ele>118.208</ele>
        <time>2020-07-26T09:11:15Z</time>
      </trkpt>
      <trkpt lat="41.863059" lon="2.657534">
        <ele>118.498</ele>
        <time>2020-07-26T09:11:16Z</time>
      </trkpt>
      <trkpt lat="41.863109" lon="2.657505">
        <ele>118.576</ele>
        <time>2020-07-26T09:11:17Z</time>
      </trkpt>
      <trkpt lat="41.863158" lon="2.657475">
        <ele>118.519</ele>
        <time>2020-07-26T09:11:18Z</time>
      </trkpt>
      <trkpt lat="41.863207" lon="2.657446">
        <ele>118.574</ele>
        <time>2020-07-26T09:11:19Z</time>
      </trkpt>
      <trkpt lat="41.863257" lon="2.657420">
        <ele>118.682</ele>
        <time>2020-07-26T09:11:20Z</time>
      </trkpt>
      <trkpt lat="41.863308" lon="2.657393">
        <ele>118.895</ele>
        <time>2020-07-26T09:11:21Z</time>
      </trkpt>
      <trkpt lat="41.863358" lon="2.657364">
        <ele>118.869</ele>
        <time>2020-07-26T09:11:22Z</time>
      </trkpt>
      <trkpt lat="41.863407" lon="2.657331">
        <ele>119.055</ele>
        <time>2020-07-26T09:11:23Z</time>
      </trkpt>
      <trkpt lat="41.863455" lon="2.657297">
        <ele>119.013</ele>
        <time>2020-07-26T09:11:24Z</time>
      </trkpt>
      <trkpt lat="41.863504" lon="2.657262">
        <ele>119.143</ele>
        <time>2020-07-26T09:11:25Z</time>
      </trkpt>
      <trkpt lat="41.863552" lon="2.657226">
        <ele>119.107</ele>
        <time>2020-07-26T09:11:26Z</time>
      </trkpt>
      <trkpt lat="41.863602" lon="2.657192">
        <ele>119.108</ele>
        <time>2020-07-26T09:11:27Z</time>
      </trkpt>
      <trkpt lat="41.863650" lon="2.657154">
        <ele>119.166</ele>
        <time>2020-07-26T09:11:28Z</time>
      </trkpt>
      <trkpt lat="41.863700" lon="2.657119">
        <ele>119.294</ele>
        <time>2020-07-26T09:11:29Z</time>
      </trkpt>
      <trkpt lat="41.863752" lon="2.657088">
        <ele>119.467</ele>
        <time>2020-07-26T09:11:30Z</time>
      </trkpt>
      <trkpt lat="41.863806" lon="2.657060">
        <ele>119.552</ele>
        <time>2020-07-26T09:11:31Z</time>
      </trkpt>
      <trkpt lat="41.863859" lon="2.657030">
        <ele>119.640</ele>
        <time>2020-07-26T09:11:32Z</time>
      </trkpt>
      <trkpt lat="41.863911" lon="2.656999">
        <ele>119.773</ele>
        <time>2020-07-26T09:11:33Z</time>
      </trkpt>
      <trkpt lat="41.863960" lon="2.656962">
        <ele>119.617</ele>
        <time>2020-07-26T09:11:34Z</time>
      </trkpt>
      <trkpt lat="41.864008" lon="2.656929">
        <ele>119.833</ele>
        <time>2020-07-26T09:11:35Z</time>
      </trkpt>
      <trkpt lat="41.864043" lon="2.656890">
        <ele>120.213</ele>
        <time>2020-07-26T09:11:36Z</time>
      </trkpt>
      <trkpt lat="41.864053" lon="2.656846">
        <ele>120.543</ele>
        <time>2020-07-26T09:11:37Z</time>
      </trkpt>
      <trkpt lat="41.864036" lon="2.656810">
        <ele>121.007</ele>
        <time>2020-07-26T09:11:38Z</time>
      </trkpt>
      <trkpt lat="41.864003" lon="2.656790">
        <ele>121.208</ele>
        <time>2020-07-26T09:11:39Z</time>
      </trkpt>
      <trkpt lat="41.863963" lon="2.656786">
        <ele>121.576</ele>
        <time>2020-07-26T09:11:40Z</time>
      </trkpt>
      <trkpt lat="41.863916" lon="2.656789">
        <ele>121.554</ele>
        <time>2020-07-26T09:11:41Z</time>
      </trkpt>
      <trkpt lat="41.863817" lon="2.656796">
        <ele>121.847</ele>
        <time>2020-07-26T09:11:43Z</time>
      </trkpt>
      <trkpt lat="41.863723" lon="2.656802">
        <ele>121.542</ele>
        <time>2020-07-26T09:11:45Z</time>
      </trkpt>
      <trkpt lat="41.863677" lon="2.656802">
        <ele>121.570</ele>
        <time>2020-07-26T09:11:46Z</time>
      </trkpt>
      <trkpt lat="41.863631" lon="2.656803">
        <ele>121.593</ele>
        <time>2020-07-26T09:11:47Z</time>
      </trkpt>
      <trkpt lat="41.863588" lon="2.656807">
        <ele>121.697</ele>
        <time>2020-07-26T09:11:48Z</time>
      </trkpt>
      <trkpt lat="41.863544" lon="2.656806">
        <ele>121.813</ele>
        <time>2020-07-26T09:11:49Z</time>
      </trkpt>
      <trkpt lat="41.863500" lon="2.656803">
        <ele>121.869</ele>
        <time>2020-07-26T09:11:50Z</time>
      </trkpt>
      <trkpt lat="41.863457" lon="2.656803">
        <ele>121.804</ele>
        <time>2020-07-26T09:11:51Z</time>
      </trkpt>
      <trkpt lat="41.863415" lon="2.656801">
        <ele>137.024</ele>
        <time>2020-07-26T09:11:52Z</time>
      </trkpt>
    </trkseg>
  </trk>
</gpx>
